/BCO-DMO/NPac_Cont_Ship/NPac_underway_data ---- Level 0

      Directory  DocumentationDownload and Other Operations...

 - At level 0 -  - At last level -       Flat list

#   NPac Underway Data
#   Cruises: Tianjin_2, Tokyo_1, Tokyo_2, Tokyo_3
#   PI: Paul Quay
#   Co-PI: Hilary Palevsky
#   Version Date (v1): 2020-11-20
#   Comments: nd = no data
=========================
ISO_DateTime_UTC        Cruise        Latitude    Longitude   Lon360      Salinity    Temperature  Fluo      TrueO2Ar    O2Arsat     O2Arbiosat  MLD_WOA13  Wkn         Air_sea_flux  
-------------------------
2012-07-24T13:37:29Z    Tianjin_2     22.7595     120.0881    120.0881    33.0086     29.4183      0.0572    nd          20.3483     nd          nd         16.9796     nd            
2012-07-24T13:40:30Z    Tianjin_2     22.7736     120.0786    120.0786    33.0115     29.4362      0.0604    nd          20.3482     nd          nd         16.9854     nd            
2012-07-24T13:43:32Z    Tianjin_2     22.7875     120.0693    120.0693    33.0046     29.4542      0.0579    nd          20.3482     nd          nd         16.9915     nd            
2012-07-24T13:46:33Z    Tianjin_2     22.8018     120.0597    120.0597    32.9803     29.4595      0.0539    nd          20.3482     nd          nd         16.994      nd            
2012-07-24T13:49:26Z    Tianjin_2     22.8159     120.0504    120.0504    32.9731     29.4853      0.0566    nd          20.3482     nd          nd         17.0027     nd            
2012-07-24T13:52:27Z    Tianjin_2     22.8303     120.0409    120.0409    32.9671     29.4998      0.0544    nd          20.3482     nd          nd         17.0077     nd            
2012-07-24T13:55:29Z    Tianjin_2     22.8457     120.0309    120.0309    32.9605     29.4912      0.0543    nd          20.3482     nd          nd         17.0051     nd            
2012-07-24T13:58:30Z    Tianjin_2     22.8601     120.0215    120.0215    32.9575     29.4741      0.0577    nd          20.3482     nd          nd         16.9995     nd            
2012-07-24T14:01:32Z    Tianjin_2     22.875      120.0119    120.0119    32.9678     29.4658      0.0541    nd          20.3482     nd          nd         16.025      nd            
2012-07-24T14:04:33Z    Tianjin_2     22.8894     120.0025    120.0025    32.9657     29.4848      0.0578    nd          20.3482     nd          nd         16.0309     nd            
2012-07-24T14:07:26Z    Tianjin_2     22.9041     119.9928    119.9928    32.9593     29.5401      0.0543    nd          20.3481     nd          22.5       12.8652     nd            
2012-07-24T14:10:27Z    Tianjin_2     22.9191     119.9829    119.9829    32.9487     29.5913      0.0522    nd          20.348      nd          22.5       12.8929     nd            
2012-07-24T14:13:29Z    Tianjin_2     22.9334     119.9735    119.9735    32.9189     29.6096      0.0608    nd          20.348      nd          22.5       12.9042     nd            
2012-07-24T14:16:30Z    Tianjin_2     22.9481     119.9637    119.9637    32.9243     29.6149      0.0586    nd          20.348      nd          22.5       12.9067     nd            
2012-07-24T14:19:32Z    Tianjin_2     22.9628     119.9539    119.9539    32.9241     29.5549      0.0601    nd          20.3481     nd          22.5       12.8749     nd            
2012-07-24T14:22:33Z    Tianjin_2     22.9778     119.944     119.944     32.9323     29.4834      0.0565    nd          20.3482     nd          22.5       12.8365     nd            
2012-07-24T14:25:26Z    Tianjin_2     22.9934     119.935     119.935     32.9509     29.4712      0.0533    nd          20.3482     nd          22.5       12.829      nd            
2012-07-24T14:28:27Z    Tianjin_2     23.0094     119.9288    119.9288    32.9295     29.4086      0.0597    nd          20.3484     nd          12.5       18.3933     nd            
2012-07-24T14:31:29Z    Tianjin_2     23.0264     119.9246    119.9246    32.9367     29.3418      0.0566    nd          20.3485     nd          12.5       18.3183     nd            
2012-07-24T14:34:30Z    Tianjin_2     23.045      119.9236    119.9236    32.9583     29.3319      0.0549    nd          20.3484     nd          12.5       18.3051     nd            
2012-07-24T14:37:32Z    Tianjin_2     23.0612     119.9237    119.9237    32.9577     29.3093      0.0491    nd          20.3485     nd          12.5       18.2802     nd            
2012-07-24T14:40:33Z    Tianjin_2     23.0776     119.9237    119.9237    32.949      29.2902      0.0529    nd          20.3485     nd          12.5       18.2602     nd            
2012-07-24T14:43:26Z    Tianjin_2     23.0978     119.9239    119.9239    32.9449     29.28        0.0555    nd          20.3485     nd          12.5       18.2495     nd            
2012-07-24T14:46:27Z    Tianjin_2     23.1156     119.924     119.924     32.9532     29.2552      0.0508    nd          20.3486     nd          12.5       18.2217     nd            
2012-07-24T14:49:29Z    Tianjin_2     23.131      119.9241    119.9241    32.9525     29.2512      0.058     nd          20.3486     nd          12.5       16.2154     nd            
2012-07-24T14:52:30Z    Tianjin_2     23.1486     119.9243    119.9243    32.9344     29.2596      0.0569    nd          20.3486     nd          12.5       16.2209     nd            
2012-07-24T14:55:32Z    Tianjin_2     23.1665     119.9245    119.9245    32.937      29.2403      0.0572    nd          20.3486     nd          12.5       16.2103     nd            
2012-07-24T14:58:33Z    Tianjin_2     23.1862     119.9246    119.9246    32.9429     29.2067      0.0597    nd          20.3487     nd          12.5       16.1918     nd            
2012-07-24T15:01:26Z    Tianjin_2     23.2043     119.9249    119.9249    32.9622     29.1667      0.0574    nd          20.3487     nd          12.5       16.1692     nd            
2012-07-24T15:04:27Z    Tianjin_2     23.2205     119.9252    119.9252    32.9897     29.2003      0.0534    nd          20.3486     nd          12.5       16.1859     nd            
2012-07-24T15:07:29Z    Tianjin_2     23.2399     119.9258    119.9258    32.9764     29.2011      0.0477    nd          20.3486     nd          12.5       16.187      nd            
2012-07-24T15:10:30Z    Tianjin_2     23.2591     119.9262    119.9262    32.9801     29.209       0.0476    nd          20.3486     nd          12.5       16.1911     nd            
2012-07-24T15:13:32Z    Tianjin_2     23.2771     119.9265    119.9265    32.9631     29.1979      0.0544    nd          20.3487     nd          12.5       16.1859     nd            
2012-07-24T15:16:33Z    Tianjin_2     23.2947     119.9271    119.9271    32.9797     29.2227      0.0525    nd          20.3486     nd          12.5       16.1985     nd            
2012-07-24T15:19:26Z    Tianjin_2     23.3122     119.9296    119.9296    32.9795     29.2458      0.049     nd          20.3486     nd          12.5       16.211      nd            
2012-07-24T15:22:27Z    Tianjin_2     23.3316     119.9339    119.9339    32.9577     29.2393      0.0525    nd          20.3486     nd          12.5       16.2087     nd            
2012-07-24T15:25:29Z    Tianjin_2     23.3494     119.9378    119.9378    32.8608     29.2214      0.0614    nd          20.3487     nd          12.5       16.204      nd            
2012-07-24T15:28:30Z    Tianjin_2     23.3683     119.942     119.942     32.8465     29.31        0.0681    nd          20.3486     nd          12.5       16.253      nd            
2012-07-24T15:31:32Z    Tianjin_2     23.3875     119.9448    119.9448    32.8143     29.3861      0.0881    nd          20.3485     nd          12.5       13.4533     nd            
2012-07-24T15:34:33Z    Tianjin_2     23.4043     119.9459    119.9459    32.8149     29.2793      0.079     nd          20.3487     nd          12.5       13.4273     nd            
2012-07-24T15:37:26Z    Tianjin_2     23.4227     119.9448    119.9448    32.8623     29.1914      0.0634    nd          20.3488     nd          12.5       13.4048     nd            
2012-07-24T15:40:27Z    Tianjin_2     23.4415     119.9437    119.9437    32.8649     29.1814      0.0655    nd          20.3488     nd          12.5       13.4023     nd            
2012-07-24T15:43:29Z    Tianjin_2     23.46       119.9427    119.9427    32.8691     29.204       0.067     nd          20.3487     nd          12.5       13.4077     nd            
2012-07-24T15:46:30Z    Tianjin_2     23.4801     119.9414    119.9414    32.8871     29.2793      0.0705    nd          20.3486     nd          12.5       13.4256     nd            
2012-07-24T15:49:32Z    Tianjin_2     23.4994     119.9403    119.9403    32.9033     29.4005      0.0873    nd          20.3484     nd          12.5       13.4547     nd            
2012-07-24T15:52:33Z    Tianjin_2     23.5188     119.9392    119.9392    32.7852     29.4642      0.1381    nd          20.3484     nd          12.5       13.473      nd            
2012-07-24T15:55:26Z    Tianjin_2     23.5383     119.9383    119.9383    32.6967     29.5036      0.1515    nd          20.3484     nd          12.5       13.4847     nd            
2012-07-24T16:37:29Z    Tianjin_2     23.8097     119.9629    119.9629    32.7562     29.4207      0.0682    nd          20.3485     nd          12.5       6.6221      nd            
2012-07-24T16:40:30Z    Tianjin_2     23.8272     119.9707    119.9707    32.8179     29.3367      0.1054    nd          20.3486     nd          12.5       6.586       nd            
2012-07-24T16:43:32Z    Tianjin_2     23.844      119.9801    119.9801    32.8824     28.8722      0.1261    nd          20.3493     nd          12.5       6.4003      nd            
2012-07-24T16:46:33Z    Tianjin_2     23.86       119.9896    119.9896    32.9478     28.8414      0.1359    nd          20.3493     nd          12.5       6.386       nd            
2012-07-24T16:49:26Z    Tianjin_2     23.8755     119.9993    119.9993    32.8837     28.9993      0.1353    nd          20.3491     nd          12.5       1.8718      nd            
2012-07-24T16:52:27Z    Tianjin_2     23.8922     120.0097    120.0097    32.9213     29.0599      0.144     nd          20.3489     nd          nd         nd          nd            
2012-07-24T16:55:29Z    Tianjin_2     23.9093     120.0207    120.0207    32.8803     29.2471      0.1258    nd          20.3487     nd          nd         nd          nd            
2012-07-24T16:58:30Z    Tianjin_2     23.9245     120.0305    120.0305    32.8444     29.2214      0.1194    nd          20.3487     nd          nd         nd          nd            
2012-07-24T17:01:32Z    Tianjin_2     23.9389     120.0398    120.0398    32.864      29.0256      0.1309    nd          20.3491     nd          nd         nd          nd            
2012-07-24T17:04:33Z    Tianjin_2     23.9546     120.0495    120.0495    32.9096     28.895       0.1278    nd          20.3492     nd          nd         nd          nd            
2012-07-24T17:07:26Z    Tianjin_2     23.9703     120.059     120.059     32.9113     28.8773      0.1182    nd          20.3493     nd          nd         nd          nd            
2012-07-24T17:10:27Z    Tianjin_2     23.9858     120.0687    120.0687    32.9464     28.7935      0.118     nd          20.3494     nd          nd         nd          nd            
2012-07-24T17:13:29Z    Tianjin_2     24.0011     120.0783    120.0783    32.9561     28.854       0.1174    nd          20.3492     nd          7.5        1.9734      nd            
2012-07-24T17:16:30Z    Tianjin_2     24.0165     120.0881    120.0881    32.9402     28.9183      0.1129    nd          20.3492     nd          7.5        1.9765      nd            
2012-07-24T17:19:32Z    Tianjin_2     24.0325     120.0986    120.0986    32.9482     28.8982      0.104     nd          20.3492     nd          7.5        1.9755      nd            
2012-07-24T17:22:33Z    Tianjin_2     24.047      120.1085    120.1085    32.9559     28.8356      0.1227    nd          20.3493     nd          7.5        1.9726      nd            
2012-07-24T17:25:26Z    Tianjin_2     24.0607     120.1181    120.1181    32.9619     28.7354      0.1272    nd          20.3494     nd          7.5        1.9679      nd            
2012-07-24T17:28:27Z    Tianjin_2     24.0755     120.1284    120.1284    32.9694     28.6519      0.1358    nd          20.3496     nd          7.5        0.1821      nd            
2012-07-24T17:31:29Z    Tianjin_2     24.0906     120.1389    120.1389    32.9977     28.5375      0.1475    nd          20.3497     nd          7.5        0.1823      nd            
2012-07-24T17:34:30Z    Tianjin_2     24.1059     120.1495    120.1495    33.0052     28.4766      0.1495    nd          20.3498     nd          7.5        0.1825      nd            
2012-07-24T17:37:32Z    Tianjin_2     24.12       120.1594    120.1594    33.0195     28.4896      0.1514    nd          20.3498     nd          7.5        0.1825      nd            
2012-07-24T17:40:33Z    Tianjin_2     24.1339     120.1689    120.1689    32.9991     28.6138      0.1516    nd          20.3496     nd          7.5        0.1505      nd            
2012-07-24T17:43:26Z    Tianjin_2     24.1484     120.179     120.179     33.0029     28.5684      0.1542    nd          20.3497     nd          7.5        0.1506      nd            
2012-07-24T17:46:27Z    Tianjin_2     24.1627     120.1889    120.1889    33.0114     28.485       0.1642    nd          20.3498     nd          7.5        0.1509      nd            
2012-07-24T17:49:29Z    Tianjin_2     24.1784     120.1997    120.1997    33.02       28.4284      0.1731    nd          20.3499     nd          7.5        0.151       nd            
2012-07-24T17:52:30Z    Tianjin_2     24.1929     120.2098    120.2098    33.023      28.3933      0.1783    nd          20.35       nd          7.5        0.1511      nd            
2012-07-24T17:55:32Z    Tianjin_2     24.2061     120.2189    120.2189    33.0182     28.3867      0.1944    nd          20.35       nd          7.5        0.1511      nd            
2012-07-24T17:58:33Z    Tianjin_2     24.2214     120.2289    120.2289    33.0025     28.4199      0.2034    nd          20.3499     nd          7.5        0.151       nd            
2012-07-24T18:01:26Z    Tianjin_2     24.2358     120.238     120.238     33.0006     28.374       0.1989    nd          20.35       nd          7.5        0.1511      nd            
2012-07-24T18:04:27Z    Tianjin_2     24.2498     120.2469    120.2469    33.0165     28.3058      0.2005    nd          20.3501     nd          7.5        0.1513      nd            
2012-07-24T18:07:29Z    Tianjin_2     24.2646     120.2561    120.2561    33.0252     28.2719      0.2087    nd          20.3502     nd          7.5        0.1514      nd            
2012-07-24T18:10:30Z    Tianjin_2     24.2795     120.2654    120.2654    33.0301     28.2647      0.1977    nd          20.3502     nd          7.5        0.1514      nd            
2012-07-24T18:13:32Z    Tianjin_2     24.2947     120.2748    120.2748    33.0288     28.2487      0.2009    nd          20.3502     nd          7.5        0.1515      nd            
2012-07-24T18:16:33Z    Tianjin_2     24.309      120.2838    120.2838    33.0046     28.2003      0.2125    nd          20.3503     nd          7.5        0.1516      nd            
2012-07-24T18:19:26Z    Tianjin_2     24.3233     120.2929    120.2929    33.0003     28.0403      0.2306    nd          20.3506     nd          7.5        0.152       nd            
2012-07-24T18:22:27Z    Tianjin_2     24.3379     120.3021    120.3021    33.0509     28.0288      0.2727    nd          20.3506     nd          7.5        0.1521      nd            
2012-07-24T18:25:29Z    Tianjin_2     24.3524     120.3107    120.3107    33.0298     28.1639      0.2842    nd          20.3503     nd          7.5        0.1517      nd            
2012-07-24T18:28:30Z    Tianjin_2     24.3676     120.3198    120.3198    33.0283     28.2547      0.2609    nd          20.3502     nd          7.5        0.1515      nd            
2012-07-24T18:31:32Z    Tianjin_2     24.3826     120.3288    120.3288    32.9984     28.3571      0.2506    nd          20.35       nd          7.5        2.2696      nd            
2012-07-24T18:34:33Z    Tianjin_2     24.3974     120.3376    120.3376    32.9559     28.3614      0.2675    nd          20.3501     nd          7.5        2.2694      nd            
2012-07-24T18:37:26Z    Tianjin_2     24.4123     120.3467    120.3467    32.8997     28.3076      0.2892    nd          20.3502     nd          7.5        2.2706      nd            
2012-07-24T18:40:27Z    Tianjin_2     24.4277     120.3561    120.3561    32.8829     28.2156      0.3007    nd          20.3504     nd          7.5        2.2727      nd            
2012-07-24T18:43:29Z    Tianjin_2     24.4438     120.366     120.366     32.8918     28.1928      0.2915    nd          20.3504     nd          7.5        2.2732      nd            
2012-07-24T18:46:30Z    Tianjin_2     24.4582     120.3748    120.3748    32.9187     28.2228      0.3002    nd          20.3504     nd          7.5        2.2726      nd            
2012-07-24T18:49:32Z    Tianjin_2     24.472      120.3833    120.3833    32.9261     28.2185      0.3012    nd          20.3504     nd          7.5        2.2868      nd            
2012-07-24T18:52:33Z    Tianjin_2     24.4883     120.3933    120.3933    32.9739     28.0434      0.3309    nd          20.3506     nd          7.5        2.2909      nd            
2012-07-24T18:55:26Z    Tianjin_2     24.5033     120.4026    120.4026    33.0286     27.5235      0.3727    nd          20.3515     nd          7.5        2.3033      nd            
2012-07-24T19:37:29Z    Tianjin_2     24.7124     120.5306    120.5306    33.1298     27.855       0.0833    nd          20.3508     nd          7.5        7.272       nd            
2012-07-24T19:40:30Z    Tianjin_2     24.7253     120.5387    120.5387    33.1339     27.8138      0.0862    nd          20.3508     nd          7.5        7.2671      nd            
2012-07-24T19:43:32Z    Tianjin_2     24.7399     120.5479    120.5479    33.127      27.5816      0.1476    nd          20.3513     nd          7.5        7.2393      nd            
2012-07-24T19:46:33Z    Tianjin_2     24.755      120.5574    120.5574    33.1135     27.6735      0.1094    nd          20.3511     nd          7.5        7.2505      nd            
2012-07-24T19:49:26Z    Tianjin_2     24.7699     120.567     120.567     33.1112     27.985       0.0864    nd          20.3506     nd          7.5        7.2877      nd            
2012-07-24T19:52:27Z    Tianjin_2     24.7848     120.5765    120.5765    33.1015     27.9861      0.0798    nd          20.3506     nd          7.5        7.2879      nd            
2012-07-24T19:55:29Z    Tianjin_2     24.8007     120.5868    120.5868    33.0867     28.0357      0.0913    nd          20.3505     nd          7.5        7.294       nd            
2012-07-24T19:58:30Z    Tianjin_2     24.8156     120.5963    120.5963    33.0727     28.2751      0.0911    nd          20.3501     nd          7.5        7.3224      nd            
2012-07-24T20:01:32Z    Tianjin_2     24.8305     120.6059    120.6059    33.0586     28.4508      0.0925    nd          20.3498     nd          7.5        7.3432      nd            
2012-07-24T20:04:33Z    Tianjin_2     24.8458     120.6157    120.6157    33.0691     28.3467      0.0882    nd          20.35       nd          7.5        7.3309      nd            
2012-07-24T20:07:26Z    Tianjin_2     24.8601     120.625     120.625     33.0642     28.4176      0.0912    nd          20.3499     nd          7.5        7.7721      nd            
2012-07-24T20:10:27Z    Tianjin_2     24.875      120.6346    120.6346    33.0121     28.5203      0.0813    nd          20.3498     nd          7.5        7.7859      nd            
2012-07-24T20:13:29Z    Tianjin_2     24.8919     120.6455    120.6455    32.9949     28.606       0.0814    nd          20.3496     nd          7.5        7.9512      nd            
2012-07-24T20:16:30Z    Tianjin_2     24.9088     120.6563    120.6563    32.9325     28.6918      0.086     nd          20.3495     nd          7.5        7.9629      nd            
2012-07-24T20:19:32Z    Tianjin_2     24.9225     120.6651    120.6651    32.8891     28.5922      0.0849    nd          20.3498     nd          7.5        7.9506      nd            
2012-07-24T20:22:33Z    Tianjin_2     24.9361     120.6738    120.6738    32.9579     28.6699      0.0779    nd          20.3496     nd          7.5        7.9598      nd            
2012-07-24T20:25:26Z    Tianjin_2     24.9513     120.6835    120.6835    32.9508     28.6079      0.0829    nd          20.3497     nd          7.5        7.9519      nd            
2012-07-24T20:28:27Z    Tianjin_2     24.9688     120.6947    120.6947    32.9224     28.5443      0.0764    nd          20.3498     nd          7.5        7.9441      nd            
2012-07-24T22:37:29Z    Tianjin_2     25.2765     121.0615    121.0615    32.8412     28.884       0.2292    nd          20.3493     nd          7.5        9.4692      nd            
2012-07-24T22:40:30Z    Tianjin_2     25.2774     121.0623    121.0623    33.0338     28.2883      0.1597    nd          20.3501     nd          7.5        9.3833      nd            
2012-07-24T22:43:32Z    Tianjin_2     25.2782     121.0608    121.0608    32.9585     28.6594      0.1787    nd          20.3496     nd          7.5        9.4367      nd            
2012-07-24T22:46:33Z    Tianjin_2     25.2789     121.0571    121.0571    32.8557     28.8358      0.2227    nd          20.3494     nd          7.5        9.4624      nd            
2012-07-24T22:49:26Z    Tianjin_2     25.2825     121.0538    121.0538    33.105      27.911       0.11      nd          20.3507     nd          7.5        9.3277      nd            
2012-07-24T22:52:27Z    Tianjin_2     25.2901     121.0563    121.0563    33.0881     27.9652      0.1143    nd          20.3506     nd          7.5        9.3358      nd            
2012-07-24T22:55:29Z    Tianjin_2     25.2988     121.0658    121.0658    33.1267     27.8687      0.1101    nd          20.3508     nd          7.5        9.3211      nd            
2012-07-24T22:58:30Z    Tianjin_2     25.309      121.0783    121.0783    33.1627     27.8288      0.1247    nd          20.3508     nd          7.5        9.3148      nd            
2012-07-24T23:01:32Z    Tianjin_2     25.3199     121.0917    121.0917    33.1562     27.867       0.1122    nd          20.3507     nd          7.5        9.3205      nd            
2012-07-24T23:04:33Z    Tianjin_2     25.3308     121.1055    121.1055    33.1323     27.9226      0.1103    nd          20.3507     nd          7.5        9.329       nd            
2012-07-24T23:07:26Z    Tianjin_2     25.3414     121.1201    121.1201    33.1014     28.0215      0.1042    nd          20.3505     nd          7.5        9.3439      nd            
2012-07-24T23:10:27Z    Tianjin_2     25.3523     121.1354    121.1354    33.0096     28.1804      0.1003    nd          20.3503     nd          7.5        9.5253      nd            
2012-07-24T23:13:29Z    Tianjin_2     25.3634     121.1514    121.1514    33.01       28.3868      0.0948    nd          20.35       nd          7.5        9.5496      nd            
2012-07-24T23:16:30Z    Tianjin_2     25.3747     121.1676    121.1676    33.0522     28.4826      0.099     nd          20.3498     nd          7.5        9.5603      nd            
2012-07-24T23:19:32Z    Tianjin_2     25.3862     121.1842    121.1842    33.111      28.2622      0.1038    nd          20.3501     nd          7.5        9.4594      nd            
2012-07-24T23:22:33Z    Tianjin_2     25.3976     121.2008    121.2008    33.125      28.1477      0.0973    nd          20.3503     nd          7.5        9.4463      nd            
2012-07-24T23:25:26Z    Tianjin_2     25.4089     121.2171    121.2171    33.1088     28.2         0.106     nd          20.3502     nd          7.5        9.4524      nd            
2012-07-24T23:28:27Z    Tianjin_2     25.4206     121.2339    121.2339    33.0987     28.2443      0.1153    nd          20.3501     nd          7.5        9.4576      nd            
2012-07-24T23:31:29Z    Tianjin_2     25.4329     121.2504    121.2504    33.0884     28.2946      0.1193    20.3643     20.3501     0.0699      7.5        9.4633      1.3397        
2012-07-24T23:34:30Z    Tianjin_2     25.4448     121.2652    121.2652    33.0869     28.2984      0.114     20.3377     20.3501     -0.0608     7.5        9.4638      -1.1649       
2012-07-24T23:37:32Z    Tianjin_2     25.4582     121.2806    121.2806    33.0593     28.452       0.1253    20.3376     20.3498     -0.0603     7.5        9.4811      -1.1542       
2012-07-24T23:40:33Z    Tianjin_2     25.4715     121.2953    121.2953    33.0506     28.4657      0.135     20.3446     20.3498     -0.0257     7.5        9.4827      -0.4922       
2012-07-24T23:43:26Z    Tianjin_2     25.4847     121.308     121.308     33.0407     28.5499      0.1507    20.3612     20.3497     0.0565      7.5        9.492       1.0825        
2012-07-24T23:46:27Z    Tianjin_2     25.4983     121.3202    121.3202    33.0505     28.423       0.1593    20.3749     20.3499     0.1232      7.5        9.478       2.3595        
2012-07-24T23:49:29Z    Tianjin_2     25.5124     121.3319    121.3319    33.0456     28.4257      0.1522    20.3993     20.3499     0.2431      7.5        9.4783      4.6554        
2012-07-24T23:52:30Z    Tianjin_2     25.527      121.3448    121.3448    33.0592     28.4305      0.1268    20.4254     20.3499     0.3711      7.5        9.4787      7.1076        
2012-07-24T23:55:32Z    Tianjin_2     25.5396     121.3585    121.3585    33.0689     28.4296      0.1061    20.4537     20.3498     0.5103      7.5        9.4785      9.7728        
2012-07-24T23:58:33Z    Tianjin_2     25.5499     121.3733    121.3733    33.0939     28.3244      0.0998    20.469      20.35       0.5848      7.5        9.4666      11.2032       
2012-07-25T00:01:26Z    Tianjin_2     25.5609     121.3897    121.3897    33.1041     28.3299      0.1033    20.4736     20.35       0.6073      7.5        6.5965      8.1053        
2012-07-25T00:04:27Z    Tianjin_2     25.5712     121.4054    121.4054    33.0816     28.5015      0.1038    20.4653     20.3497     0.5679      7.5        6.6116      7.5767        
2012-07-25T00:07:29Z    Tianjin_2     25.5826     121.4223    121.4223    33.0262     28.6839      0.1462    20.4737     20.3495     0.6106      7.5        6.6278      8.145         
2012-07-25T00:10:30Z    Tianjin_2     25.5931     121.438     121.438     32.9766     28.8732      0.165     20.4951     20.3492     0.7171      7.5        6.6445      9.563         
2012-07-25T00:13:32Z    Tianjin_2     25.602      121.4516    121.4516    32.9774     28.8856      0.1618    20.5484     20.3492     0.9791      7.5        6.6455      13.0556       
2012-07-25T00:16:33Z    Tianjin_2     25.6125     121.4679    121.4679    33.0215     28.6681      0.1308    20.5922     20.3495     1.1926      7.5        6.6264      15.9094       
2012-07-25T00:19:26Z    Tianjin_2     25.6222     121.4837    121.4837    33.157      27.9548      0.1038    20.5959     20.3506     1.2056      7.5        6.5634      16.1046       
2012-07-25T00:22:27Z    Tianjin_2     25.6323     121.4999    121.4999    33.1583     27.9776      0.0812    20.5418     20.3505     0.94        7.5        6.3973      12.2333       
2012-07-25T00:25:29Z    Tianjin_2     25.6421     121.5161    121.5161    33.1442     28.1229      0.0828    20.4904     20.3503     0.6882      7.5        6.4094      8.9535        
2012-07-25T00:28:30Z    Tianjin_2     25.6514     121.5312    121.5312    33.0748     28.191       0.083     20.467      20.3503     0.5738      7.5        6.4156      7.4666        
2012-07-25T00:31:32Z    Tianjin_2     25.661      121.5466    121.5466    33.0359     28.4518      0.1149    20.4652     20.3498     0.5671      7.5        6.4374      7.3742        
2012-07-25T00:34:33Z    Tianjin_2     25.671      121.5622    121.5622    32.9977     28.5755      0.1497    20.504      20.3497     0.7582      7.5        6.4479      9.8577        
2012-07-25T00:37:26Z    Tianjin_2     25.6812     121.5779    121.5779    33.0486     28.3059      0.1255    20.5564     20.3501     1.014       7.5        6.4253      13.1912       
2012-07-25T00:40:27Z    Tianjin_2     25.6917     121.5932    121.5932    33.0238     28.3133      0.0995    20.5456     20.3501     0.9606      7.5        6.4261      12.4981       
2012-07-25T00:43:29Z    Tianjin_2     25.7026     121.6083    121.6083    32.996      28.3537      0.0878    20.5055     20.3501     0.7637      7.5        6.4296      9.9377        
2012-07-25T00:46:30Z    Tianjin_2     25.7132     121.6232    121.6232    33.0043     28.3464      0.0829    20.4808     20.3501     0.6425      7.5        6.4289      8.3594        
2012-07-25T00:49:32Z    Tianjin_2     25.724      121.638     121.638     33.0208     28.3091      0.0961    20.469      20.3501     0.5843      7.5        6.0565      7.1664        
2012-07-25T00:52:33Z    Tianjin_2     25.7346     121.6524    121.6524    33.0278     28.3521      0.0928    20.4752     20.35       0.615       7.5        6.0597      7.5407        
2012-07-25T00:55:26Z    Tianjin_2     25.7452     121.6669    121.6669    33.0252     28.409       0.0932    20.4895     20.3499     0.6858      7.5        6.0639      8.4066        
2012-07-25T01:37:29Z    Tianjin_2     25.9016     121.8669    121.8669    33.1531     28.8165      0.0682    20.6911     20.3491     1.6807      7.5        5.9839      20.1824       
2012-07-25T01:40:30Z    Tianjin_2     25.9128     121.8805    121.8805    33.1792     28.8837      0.0461    20.6901     20.349      1.6762      7.5        5.6418      18.9543       
2012-07-25T01:43:32Z    Tianjin_2     25.9234     121.8933    121.8933    33.1404     28.9744      0.0406    20.6675     20.3489     1.5658      7.5        5.6481      17.703        
2012-07-25T01:46:33Z    Tianjin_2     25.9346     121.9068    121.9068    33.1106     29.0998      0.0362    20.6336     20.3487     1.4003      7.5        5.6566      15.826        
2012-07-25T01:49:26Z    Tianjin_2     25.946      121.9204    121.9204    33.1015     29.1543      0.0378    20.6105     20.3486     1.2872      7.5        5.6602      14.5451       
2012-07-25T01:52:27Z    Tianjin_2     25.9573     121.9339    121.9339    33.1001     29.1797      0.0398    20.5981     20.3486     1.2263      7.5        5.6619      13.8552       
2012-07-25T01:55:29Z    Tianjin_2     25.9681     121.9472    121.9472    33.1001     29.1663      0.0335    20.5949     20.3486     1.2107      7.5        5.661       13.6797       
2012-07-25T01:58:30Z    Tianjin_2     25.9788     121.9607    121.9607    33.0949     29.1663      0.03      20.5886     20.3486     1.1793      7.5        5.661       13.3262       
2012-07-25T02:01:32Z    Tianjin_2     25.9896     121.9744    121.9744    33.0815     29.1455      0.0291    20.5857     20.3486     1.1652      7.5        5.6597      13.1685       
2012-07-25T02:04:33Z    Tianjin_2     25.9998     121.9882    121.9882    33.0661     29.1469      0.0341    20.583      20.3486     1.1516      7.5        5.6599      13.017        
2012-07-25T02:07:26Z    Tianjin_2     26.0099     122.002     122.002     33.0514     29.1706      0.033     20.5804     20.3486     1.139       7.5        5.6616      12.8742       
2012-07-25T02:10:27Z    Tianjin_2     26.0202     122.0162    122.0162    33.0537     29.1821      0.0356    20.5769     20.3486     1.122       7.5        5.6623      12.6813       
2012-07-25T02:13:29Z    Tianjin_2     26.0305     122.03      122.03      33.0607     29.2101      0.0281    20.571      20.3486     1.0932      7.5        5.6641      12.3529       
2012-07-25T02:16:30Z    Tianjin_2     26.0411     122.0438    122.0438    33.0635     29.2198      0.0259    20.5674     20.3485     1.0756      7.5        5.6648      12.1541       
2012-07-25T02:19:32Z    Tianjin_2     26.052      122.0582    122.0582    33.0652     29.221       0.0305    20.5645     20.3485     1.0616      7.5        5.6648      11.9952       
2012-07-25T02:22:33Z    Tianjin_2     26.0627     122.0721    122.0721    33.0678     29.2171      0.029     20.5628     20.3485     1.053       7.5        5.6646      11.8985       
2012-07-25T02:25:26Z    Tianjin_2     26.0729     122.0853    122.0853    33.0717     29.2149      0.0253    20.5533     20.3485     1.0065      7.5        5.6644      11.3722       
2012-07-25T02:28:27Z    Tianjin_2     26.0827     122.0981    122.0981    33.0743     29.215       0.0296    20.546      20.3485     0.9707      7.5        5.6644      10.9677       
2012-07-25T02:31:29Z    Tianjin_2     26.0931     122.1115    122.1115    33.0775     29.2193      0.029     20.5417     20.3485     0.9493      7.5        5.6646      10.7256       
2012-07-25T02:34:30Z    Tianjin_2     26.1035     122.1249    122.1249    33.0792     29.2234      0.0306    20.5322     20.3485     0.9028      7.5        5.6649      10.1997       
2012-07-25T02:37:32Z    Tianjin_2     26.1141     122.1388    122.1388    33.0811     29.225       0.0284    20.5247     20.3485     0.8659      7.5        5.4032      9.3305        
2012-07-25T02:40:33Z    Tianjin_2     26.1248     122.1527    122.1527    33.0832     29.2256      0.022     20.5242     20.3485     0.8634      7.5        5.4033      9.304         
2012-07-25T02:43:26Z    Tianjin_2     26.135      122.166     122.166     33.0856     29.2242      0.0347    20.5256     20.3485     0.8701      7.5        5.3658      9.3109        
2012-07-25T02:46:27Z    Tianjin_2     26.145      122.1791    122.1791    33.0878     29.24        0.0304    20.5242     20.3485     0.8634      7.5        5.3668      9.2382        
2012-07-25T02:49:29Z    Tianjin_2     26.1554     122.1929    122.1929    33.0899     29.2434      0.0288    20.5194     20.3485     0.8402      7.5        5.3671      8.9905        
2012-07-25T02:52:30Z    Tianjin_2     26.1657     122.2064    122.2064    33.0896     29.2668      0.0291    20.519      20.3484     0.8385      7.5        5.3686      8.9706        
2012-07-25T02:55:32Z    Tianjin_2     26.1761     122.2204    122.2204    33.0867     29.276       0.0299    20.5174     20.3484     0.8305      7.5        5.3692      8.8852        
2012-07-25T02:58:33Z    Tianjin_2     26.1863     122.2341    122.2341    33.0825     29.301       0.0289    20.5166     20.3484     0.8266      7.5        5.3708      8.8432        
2012-07-25T03:01:26Z    Tianjin_2     26.1956     122.2467    122.2467    33.0708     29.3148      0.0308    20.515      20.3484     0.8191      7.5        5.3718      8.7624        
2012-07-25T03:04:27Z    Tianjin_2     26.2057     122.2607    122.2607    33.0533     29.3121      0.0328    20.5133     20.3484     0.8103      7.5        5.3717      8.6693        
2012-07-25T03:07:29Z    Tianjin_2     26.2157     122.2744    122.2744    33.0501     29.2909      0.0345    20.5109     20.3484     0.7982      7.5        5.3704      8.5417        
2012-07-25T03:10:30Z    Tianjin_2     26.2256     122.288     122.288     33.083      29.2012      0.0321    20.5029     20.3485     0.7584      7.5        5.3643      8.1162        
2012-07-25T03:13:32Z    Tianjin_2     26.2368     122.3034    122.3034    33.2143     28.5145      0.0511    20.489      20.3496     0.6854      7.5        5.3183      7.3487        
2012-07-25T03:16:33Z    Tianjin_2     26.247      122.3171    122.3171    33.4498     27.4982      0.0852    20.4714     20.351      0.5912      7.5        5.2484      6.3521        
2012-07-25T03:19:26Z    Tianjin_2     26.2561     122.3294    122.3294    33.5244     27.4478      0.0725    20.4416     20.3511     0.4447      7.5        5.2445      4.7763        
2012-07-25T03:22:27Z    Tianjin_2     26.2665     122.3431    122.3431    33.6193     27.3544      0.0528    20.4268     20.3511     0.372       7.5        5.2375      3.9944        
2012-07-25T03:25:29Z    Tianjin_2     26.2766     122.3577    122.3577    33.6463     27.1876      0.0483    20.4597     20.3514     0.5323      7.5        5.2259      5.7177        
2012-07-25T03:28:30Z    Tianjin_2     26.2859     122.373     122.373     33.6911     27.2512      0.0563    20.4949     20.3512     0.7062      7.5        5.23        7.5819        
2012-07-25T03:31:32Z    Tianjin_2     26.295      122.3886    122.3886    33.6649     27.3166      0.0477    20.496      20.3511     0.7119      7.5        5.0653      7.3959        
2012-07-25T03:34:33Z    Tianjin_2     26.3039     122.4041    122.4041    33.6424     27.5473      0.0465    20.4838     20.3508     0.6538      7.5        5.0817      6.7886        
2012-07-25T03:37:26Z    Tianjin_2     26.3126     122.419     122.419     33.6343     27.8122      0.0515    20.4794     20.3503     0.6344      7.5        5.1003      6.5827        
2012-07-25T03:40:27Z    Tianjin_2     26.3212     122.434     122.434     33.6273     27.8168      0.061     20.4782     20.3503     0.6285      7.5        5.1007      6.5219        
2012-07-25T03:43:29Z    Tianjin_2     26.3298     122.4492    122.4492    33.6103     27.8875      0.0357    20.4747     20.3502     0.6119      7.5        5.1057      6.349         
2012-07-25T03:46:30Z    Tianjin_2     26.3381     122.4638    122.4638    33.5804     27.931       0.0424    20.4734     20.3502     0.6054      7.5        5.1089      6.2824        
2012-07-25T03:49:32Z    Tianjin_2     26.3467     122.4789    122.4789    33.5673     28.0532      0.0363    20.4745     20.35       0.6122      7.5        5.1175      6.3512        
2012-07-25T03:52:33Z    Tianjin_2     26.3553     122.4938    122.4938    33.6679     28.3285      0.0333    20.4809     20.3494     0.6464      7.5        5.1359      6.6964        
2012-07-25T03:55:26Z    Tianjin_2     26.3636     122.5083    122.5083    33.6727     28.4336      0.0245    20.4865     20.3492     0.6748      7.5        5.1431      6.9881        
2012-07-25T04:37:29Z    Tianjin_2     26.4831     122.7176    122.7176    33.0614     29.4457      0.0322    20.5408     20.3482     0.9467      7.5        5.0952      9.5865        
2012-07-25T04:40:30Z    Tianjin_2     26.4908     122.7324    122.7324    33.0573     29.4322      0.0336    20.5347     20.3482     0.9164      7.5        5.0944      9.2805        
2012-07-25T04:43:32Z    Tianjin_2     26.4996     122.7494    122.7494    33.0539     29.4336      0.0311    20.5285     20.3482     0.8862      7.5        5.0945      8.9745        
2012-07-25T04:46:33Z    Tianjin_2     26.5076     122.7652    122.7652    33.0526     29.4273      0.0265    20.5238     20.3482     0.863       7.5        5.0941      8.7399        
2012-07-25T04:49:26Z    Tianjin_2     26.5155     122.7794    122.7794    33.0519     29.4389      0.0277    20.5145     20.3482     0.8171      7.5        5.0949      8.2754        
2012-07-25T04:52:27Z    Tianjin_2     26.5241     122.7946    122.7946    33.0502     29.4243      0.0294    20.5126     20.3482     0.8079      7.5        5.0939      8.1819        
2012-07-25T04:55:29Z    Tianjin_2     26.5327     122.8099    122.8099    33.049      29.4261      0.032     20.514      20.3482     0.815       7.5        5.0941      8.2539        
2012-07-25T04:58:30Z    Tianjin_2     26.5416     122.826     122.826     33.048      29.431       0.0298    20.51       20.3482     0.7953      7.5        5.0944      8.055         
2012-07-25T05:01:32Z    Tianjin_2     26.5505     122.8423    122.8423    33.0441     29.4166      0.0268    20.5036     20.3482     0.7635      7.5        5.0935      7.7329        
2012-07-25T05:04:33Z    Tianjin_2     26.5587     122.8574    122.8574    33.041      29.4209      0.0342    20.4949     20.3482     0.7209      7.5        5.0938      7.3021        
2012-07-25T05:07:26Z    Tianjin_2     26.5667     122.8724    122.8724    33.0451     29.4216      0.0275    20.4887     20.3482     0.6904      7.5        5.0938      6.993         
2012-07-25T05:10:27Z    Tianjin_2     26.5752     122.8884    122.8884    33.0453     29.4153      0.0287    20.4846     20.3482     0.6704      7.5        5.0816      6.7741        
2012-07-25T05:13:29Z    Tianjin_2     26.5833     122.9039    122.9039    33.0471     29.4403      0.0217    20.4799     20.3482     0.6473      7.5        5.0833      6.541         
2012-07-25T05:16:30Z    Tianjin_2     26.5913     122.9191    122.9191    33.0659     29.4685      0.0315    20.4737     20.3481     0.6174      7.5        5.085       6.2368        
2012-07-25T05:19:32Z    Tianjin_2     26.6        122.9357    122.9357    33.1021     29.4867      0.0309    20.4698     20.3481     0.5981      7.5        5.086       6.0403        
2012-07-25T05:22:33Z    Tianjin_2     26.6082     122.9517    122.9517    33.1377     29.4034      0.031     20.4613     20.3482     0.5559      7.5        5.0803      5.6145        
2012-07-25T05:25:26Z    Tianjin_2     26.6163     122.9667    122.9667    33.1268     29.2551      0.0369    20.4553     20.3484     0.5253      7.5        5.0705      5.308         
2012-07-25T05:28:27Z    Tianjin_2     26.6244     122.9819    122.9819    33.1127     29.2591      0.0347    20.463      20.3484     0.5632      7.5        5.0708      5.6911        
2012-07-25T05:31:29Z    Tianjin_2     26.6331     122.9971    122.9971    33.1142     29.3592      0.0372    20.464      20.3483     0.5687      7.5        5.0009      5.6585        
2012-07-25T05:34:30Z    Tianjin_2     26.6426     123.0133    123.0133    33.1055     29.4111      0.0376    20.4713     20.3482     0.6052      12.5       5.5196      6.6414        
2012-07-25T05:37:32Z    Tianjin_2     26.6515     123.0286    123.0286    33.0962     29.4192      0.0328    20.476      20.3482     0.628       12.5       5.5205      6.8924        
2012-07-25T05:40:33Z    Tianjin_2     26.6604     123.0428    123.0428    33.086      29.3819      0.0362    20.4709     20.3482     0.6027      12.5       5.5167      6.6142        
2012-07-25T05:43:26Z    Tianjin_2     26.6693     123.0573    123.0573    33.0848     29.397       0.0323    20.4687     20.3482     0.5921      12.5       5.5183      6.4979        
2012-07-25T05:46:27Z    Tianjin_2     26.6782     123.0716    123.0716    33.0857     29.3793      0.0386    20.4662     20.3482     0.5797      12.5       5.5164      6.3617        
2012-07-25T05:49:29Z    Tianjin_2     26.6877     123.0867    123.0867    33.0836     29.3412      0.034     20.4676     20.3483     0.5864      12.5       5.5124      6.434         
2012-07-25T05:52:30Z    Tianjin_2     26.6972     123.102     123.102     33.0916     29.3614      0.0348    20.4668     20.3483     0.5826      12.5       5.5145      6.3932        
2012-07-25T05:55:32Z    Tianjin_2     26.7064     123.117     123.117     33.1002     29.3823      0.0365    20.4704     20.3482     0.6005      12.5       5.5166      6.5889        
2012-07-25T05:58:33Z    Tianjin_2     26.716      123.1332    123.1332    33.0873     29.3683      0.0282    20.4763     20.3483     0.6292      12.5       5.4927      6.8757        
2012-07-25T06:01:26Z    Tianjin_2     26.7247     123.1484    123.1484    33.0799     29.3787      0.0319    20.4687     20.3483     0.5919      12.5       5.4938      6.4685        
2012-07-25T06:04:27Z    Tianjin_2     26.7329     123.1627    123.1627    33.0745     29.3722      0.0329    20.4634     20.3483     0.5657      12.5       5.4932      6.1829        
2012-07-25T06:07:29Z    Tianjin_2     26.7417     123.1785    123.1785    33.0708     29.3838      0.0342    20.4675     20.3483     0.5858      12.5       5.4945      6.4034        
2012-07-25T06:10:30Z    Tianjin_2     26.7505     123.1942    123.1942    33.0643     29.3778      0.0364    20.4631     20.3483     0.5642      12.5       5.4939      6.1672        
2012-07-25T06:13:32Z    Tianjin_2     26.7597     123.2095    123.2095    33.0688     29.3579      0.036     20.4551     20.3483     0.5248      12.5       5.4918      5.7356        
2012-07-25T06:16:33Z    Tianjin_2     26.7711     123.2272    123.2272    33.076      29.3868      0.0318    20.4563     20.3482     0.5309      12.5       5.4947      5.8027        
2012-07-25T06:19:26Z    Tianjin_2     26.7808     123.2422    123.2422    33.0874     29.4         0.0338    20.4529     20.3482     0.5147      12.5       5.496       5.6254        
2012-07-25T06:22:27Z    Tianjin_2     26.789      123.2549    123.2549    33.085      29.3957      0.0305    20.4457     20.3482     0.4791      12.5       5.4956      5.2368        
2012-07-25T06:25:29Z    Tianjin_2     26.7983     123.2695    123.2695    33.083      29.394       0.0319    20.4456     20.3482     0.4787      12.5       5.4954      5.2324        
2012-07-25T06:28:30Z    Tianjin_2     26.8063     123.2856    123.2856    33.0782     29.3803      0.0303    20.4416     20.3483     0.4589      12.5       5.494       5.0154        
2012-07-25T06:31:32Z    Tianjin_2     26.8139     123.3021    123.3021    33.0816     29.3583      0.0344    20.4304     20.3483     0.4033      12.5       5.4917      4.4075        
2012-07-25T06:34:33Z    Tianjin_2     26.8233     123.3162    123.3162    33.0847     29.4018      0.0377    20.4314     20.3482     0.4088      12.5       5.4962      4.4685        
2012-07-25T06:37:26Z    Tianjin_2     26.8332     123.3312    123.3312    33.0906     29.4086      0.03      20.428      20.3482     0.3922      12.5       5.4969      4.2868        
2012-07-25T06:40:27Z    Tianjin_2     26.8431     123.3461    123.3461    33.0994     29.4002      0.0321    20.4248     20.3482     0.3764      12.5       5.4959      4.1137        
2012-07-25T06:43:29Z    Tianjin_2     26.8525     123.3603    123.3603    33.08       29.3656      0.0366    20.4219     20.3483     0.3616      12.5       5.4925      3.9517        
2012-07-25T06:46:30Z    Tianjin_2     26.8622     123.375     123.375     33.0896     29.3738      0.0293    20.4169     20.3483     0.3373      12.5       5.4652      3.6679        
2012-07-25T06:49:32Z    Tianjin_2     26.8723     123.3903    123.3903    33.0878     29.3324      0.0356    20.414      20.3483     0.3226      12.5       5.4609      3.5074        
2012-07-25T06:52:33Z    Tianjin_2     26.8822     123.4055    123.4055    33.0929     29.3251      0.0333    20.4136     20.3483     0.3209      12.5       5.2959      3.3838        
2012-07-25T06:55:26Z    Tianjin_2     26.8918     123.4203    123.4203    33.101      29.3079      0.0328    20.4174     20.3483     0.3394      12.5       5.294       3.5783        
2012-07-25T07:37:29Z    Tianjin_2     27.0037     123.6465    123.6465    33.139      29.2976      0.0499    20.4661     20.3483     0.5788      7.5        4.8409      5.5799        
2012-07-25T07:40:30Z    Tianjin_2     27.0113     123.6613    123.6613    33.1476     29.2884      0.0422    20.4648     20.3483     0.5722      7.5        4.8403      5.5156        
2012-07-25T07:43:32Z    Tianjin_2     27.0196     123.6772    123.6772    33.1267     29.2572      0.0381    20.4608     20.3484     0.5522      7.5        4.8384      5.324         
2012-07-25T07:46:33Z    Tianjin_2     27.0286     123.6942    123.6942    33.122      29.2548      0.0403    20.4618     20.3484     0.5571      7.5        4.8382      5.3714        
2012-07-25T07:49:26Z    Tianjin_2     27.0368     123.7096    123.7096    33.1188     29.2621      0.0392    20.4582     20.3484     0.5394      7.5        4.8387      5.2006        
2012-07-25T07:52:27Z    Tianjin_2     27.0448     123.7245    123.7245    33.1166     29.2671      0.0439    20.4567     20.3484     0.5322      7.5        4.8391      5.1317        
2012-07-25T07:55:29Z    Tianjin_2     27.0536     123.7407    123.7407    33.1146     29.27        0.0435    20.4486     20.3484     0.4926      7.5        4.8393      4.7497        
2012-07-25T07:58:30Z    Tianjin_2     27.0621     123.7562    123.7562    33.1142     29.3118      0.0504    20.4525     20.3483     0.5119      7.5        4.842       4.935         
2012-07-25T08:01:32Z    Tianjin_2     27.0706     123.7716    123.7716    33.1124     29.32        0.0475    20.4519     20.3483     0.5092      7.5        4.8425      4.9096        
2012-07-25T08:04:33Z    Tianjin_2     27.0792     123.7872    123.7872    33.1147     29.3576      0.0444    20.4501     20.3483     0.5005      7.5        4.845       4.8248        
2012-07-25T08:07:26Z    Tianjin_2     27.088      123.8034    123.8034    33.1063     29.3699      0.0473    20.4431     20.3482     0.4663      7.5        4.8458      4.4949        
2012-07-25T08:10:27Z    Tianjin_2     27.097      123.8196    123.8196    33.0986     29.4233      0.0409    20.4366     20.3482     0.4344      7.5        4.8493      4.187         
2012-07-25T08:13:29Z    Tianjin_2     27.1059     123.8356    123.8356    33.0851     29.4369      0.0389    20.4264     20.3482     0.3846      7.5        4.8503      3.7072        
2012-07-25T08:16:30Z    Tianjin_2     27.1143     123.8508    123.8508    33.0712     29.4443      0.0376    20.4163     20.3482     0.3347      7.5        4.8509      3.2269        
2012-07-25T08:19:32Z    Tianjin_2     27.1226     123.8657    123.8657    33.0616     29.457       0.0355    20.4081     20.3481     0.2946      7.5        4.8517      2.8403        
2012-07-25T08:22:33Z    Tianjin_2     27.1312     123.8812    123.8812    33.0439     29.4554      0.0375    20.3995     20.3482     0.2523      7.5        4.7484      2.3804        
2012-07-25T08:25:26Z    Tianjin_2     27.1404     123.8979    123.8979    33.0348     29.4672      0.0358    20.3969     20.3482     0.2396      7.5        4.7492      2.2613        
2012-07-25T08:28:27Z    Tianjin_2     27.1497     123.9148    123.9148    33.0372     29.4448      0.0364    20.3954     20.3482     0.2321      7.5        4.7477      2.1907        
2012-07-25T08:31:29Z    Tianjin_2     27.1578     123.9297    123.9297    33.0421     29.4579      0.0375    20.3903     20.3482     0.2069      7.5        4.7486      1.9523        
2012-07-25T08:34:30Z    Tianjin_2     27.1659     123.9445    123.9445    33.0509     29.4872      0.0459    20.3889     20.3481     0.2006      7.5        4.7505      1.8928        
2012-07-25T08:37:32Z    Tianjin_2     27.1738     123.9593    123.9593    33.0523     29.4875      0.043     20.3884     20.3481     0.1983      7.5        4.7505      1.8708        
2012-07-25T08:40:33Z    Tianjin_2     27.1816     123.9736    123.9736    33.0507     29.5145      0.0409    20.3846     20.3481     0.1798      7.5        4.7523      1.6962        
2012-07-25T08:43:26Z    Tianjin_2     27.19       123.9894    123.9894    33.0165     29.4656      0.0392    20.3862     20.3482     0.1871      7.5        4.7492      1.7658        
2012-07-25T08:46:27Z    Tianjin_2     27.1986     124.0056    124.0056    33.0105     29.4691      0.0467    20.3918     20.3482     0.2145      7.5        4.7495      2.0246        
2012-07-25T08:49:29Z    Tianjin_2     27.207      124.021     124.021     33.0275     29.4918      0.0405    20.3993     20.3481     0.2514      7.5        4.7509      2.3722        
2012-07-25T08:52:30Z    Tianjin_2     27.2151     124.0361    124.0361    33.0429     29.4105      0.0442    20.403      20.3482     0.2693      7.5        4.7454      2.5416        
2012-07-25T08:55:32Z    Tianjin_2     27.2234     124.0513    124.0513    33.0376     29.3818      0.0368    20.4007     20.3483     0.2576      7.5        4.7435      2.4313        
2012-07-25T08:58:33Z    Tianjin_2     27.2325     124.0679    124.0679    33.0323     29.3758      0.039     20.4034     20.3483     0.2706      7.5        4.7431      2.5546        
2012-07-25T09:01:26Z    Tianjin_2     27.2412     124.0837    124.0837    33.0343     29.4066      0.037     20.4034     20.3483     0.2709      7.5        4.7452      2.5568        
2012-07-25T09:04:27Z    Tianjin_2     27.2496     124.0989    124.0989    33.0323     29.3988      0.0463    20.3987     20.3483     0.248       7.5        4.7447      2.3408        
2012-07-25T09:07:29Z    Tianjin_2     27.2583     124.1145    124.1145    33.0319     29.4137      0.0451    20.3958     20.3482     0.2339      7.5        4.7457      2.2072        
2012-07-25T09:10:30Z    Tianjin_2     27.2666     124.1294    124.1294    33.0333     29.444       0.0377    20.3941     20.3482     0.2257      7.5        4.7433      2.1285        
2012-07-25T09:13:32Z    Tianjin_2     27.275      124.1445    124.1445    33.0322     29.4594      0.0452    20.395      20.3482     0.2302      7.5        4.7443      2.1706        
2012-07-25T09:16:33Z    Tianjin_2     27.2833     124.1595    124.1595    33.0204     29.4611      0.0446    20.3939     20.3482     0.2249      7.5        4.7445      2.1209        
2012-07-25T09:19:26Z    Tianjin_2     27.2919     124.1752    124.1752    33.0079     29.5096      0.0368    20.3911     20.3481     0.2113      7.5        4.7479      1.9919        
2012-07-25T09:22:27Z    Tianjin_2     27.3007     124.1913    124.1913    32.9639     29.4677      0.0453    20.3817     20.3482     0.1644      7.5        4.7453      1.5507        
2012-07-25T09:25:29Z    Tianjin_2     27.3088     124.2058    124.2058    32.9398     29.4828      0.044     20.3759     20.3482     0.1362      7.5        4.7465      1.2849        
2012-07-25T09:28:30Z    Tianjin_2     27.317      124.2204    124.2204    32.7348     29.5684      0.0407    20.3738     20.3483     0.1253      7.5        4.7537      1.1837        
2012-07-25T09:31:32Z    Tianjin_2     27.3259     124.2365    124.2365    32.6157     29.4276      0.0514    20.3809     20.3486     0.1586      7.5        4.7449      1.4998        
2012-07-25T09:34:33Z    Tianjin_2     27.3345     124.2522    124.2522    32.5029     29.3845      0.0529    20.3971     20.3488     0.2374      7.5        4.7427      2.2468        
2012-07-25T09:37:26Z    Tianjin_2     27.343      124.2673    124.2673    32.4553     29.3688      0.0582    20.418      20.3489     0.3398      7.5        4.7419      3.2173        
2012-07-25T09:40:27Z    Tianjin_2     27.3517     124.2828    124.2828    32.4528     29.4802      0.0507    20.4364     20.3487     0.4312      7.5        4.7496      4.0813        
2012-07-25T09:43:29Z    Tianjin_2     27.3605     124.2983    124.2983    32.4704     29.4786      0.0439    20.439      20.3487     0.4441      7.5        4.7494      4.2029        
2012-07-25T09:46:30Z    Tianjin_2     27.3702     124.3152    124.3152    32.4068     29.4777      0.0509    20.4343     20.3487     0.4205      7.5        4.7497      3.9818        
2012-07-25T09:49:32Z    Tianjin_2     27.379      124.3309    124.3309    32.3038     29.5624      0.0497    20.4387     20.3487     0.4424      7.5        4.6909      4.1338        
2012-07-25T09:52:33Z    Tianjin_2     27.3877     124.346     124.346     32.2069     29.6597      0.05      20.4419     20.3486     0.4582      7.5        4.6984      4.2844        
2012-07-25T09:55:26Z    Tianjin_2     27.3961     124.3605    124.3605    32.0967     29.7228      0.0523    20.4319     20.3486     0.4095      7.5        4.7036      3.8315        
2012-07-25T10:37:29Z    Tianjin_2     27.5153     124.5745    124.5745    32.0889     29.7757      0.0655    20.397      20.3485     0.238       7.5        4.7281      2.2368        
2012-07-25T10:40:30Z    Tianjin_2     27.5237     124.5899    124.5899    32.1698     29.7552      0.0562    20.3919     20.3485     0.2134      7.5        4.726       2.0044        
2012-07-25T10:43:32Z    Tianjin_2     27.5332     124.6074    124.6074    32.2988     29.7696      0.0527    20.3773     20.3484     0.1421      7.5        4.7262      1.333         
2012-07-25T10:46:33Z    Tianjin_2     27.5415     124.6229    124.6229    32.4006     29.6549      0.0542    20.3696     20.3484     0.1039      7.5        4.7172      0.974         
2012-07-25T10:49:26Z    Tianjin_2     27.5496     124.6377    124.6377    32.4025     29.6568      0.0612    20.3656     20.3484     0.0842      7.5        4.719       0.79          
2012-07-25T10:52:27Z    Tianjin_2     27.558      124.6533    124.6533    32.4331     29.6413      0.0642    20.3649     20.3484     0.0808      7.5        4.7176      0.7577        
2012-07-25T10:55:29Z    Tianjin_2     27.5657     124.6677    124.6677    32.4503     29.5688      0.0578    20.3597     20.3485     0.0551      7.5        4.7121      0.5163        
2012-07-25T10:58:30Z    Tianjin_2     27.5744     124.6836    124.6836    32.451      29.551       0.0632    20.3541     20.3486     0.0271      7.5        4.7108      0.2543        
2012-07-25T11:01:32Z    Tianjin_2     27.583      124.6995    124.6995    32.4525     29.5317      0.056     20.3518     20.3486     0.0157      7.5        4.7093      0.1473        
2012-07-25T11:04:33Z    Tianjin_2     27.5914     124.7147    124.7147    32.4542     29.6323      0.0532    20.3499     20.3484     0.0073      7.5        4.7168      0.0683        
2012-07-25T11:07:26Z    Tianjin_2     27.6003     124.7306    124.7306    32.3918     29.6488      0.0487    20.344      20.3485     -0.0218     7.5        4.7185      -0.2044       
2012-07-25T11:10:27Z    Tianjin_2     27.6095     124.7471    124.7471    32.3339     29.6307      0.0635    20.3337     20.3486     -0.0731     7.5        4.7176      -0.6865       
2012-07-25T11:13:29Z    Tianjin_2     27.6179     124.762     124.762     32.3077     29.6201      0.0651    20.3245     20.3486     -0.1185     7.5        4.717       -1.112        
2012-07-25T11:16:30Z    Tianjin_2     27.626      124.7765    124.7765    32.295      29.6182      0.061     20.3204     20.3486     -0.1388     7.5        4.638       -1.2813       
2012-07-25T11:19:32Z    Tianjin_2     27.6348     124.7919    124.7919    32.2931     29.6076      0.0701    20.3143     20.3486     -0.1686     7.5        4.6372      -1.5566       
2012-07-25T11:22:33Z    Tianjin_2     27.6433     124.8067    124.8067    32.3023     29.5939      0.0698    20.3069     20.3486     -0.205      7.5        4.636       -1.8926       
2012-07-25T11:25:26Z    Tianjin_2     27.6534     124.8208    124.8208    32.3118     29.5898      0.0668    20.296      20.3486     -0.2588     7.5        4.6357      -2.3886       
2012-07-25T11:28:27Z    Tianjin_2     27.6641     124.8344    124.8344    32.332      29.5916      0.0667    20.2886     20.3486     -0.2947     7.5        4.6356      -2.7199       
2012-07-25T11:31:29Z    Tianjin_2     27.6744     124.8475    124.8475    32.3517     29.5948      0.0681    20.2867     20.3486     -0.3041     7.5        4.6357      -2.8063       
2012-07-25T11:34:30Z    Tianjin_2     27.6843     124.8619    124.8619    32.382      29.5855      0.0637    20.2849     20.3486     -0.3128     7.5        4.6348      -2.8858       
2012-07-25T11:37:32Z    Tianjin_2     27.6951     124.8787    124.8787    32.4303     29.6607      0.0544    20.2869     20.3484     -0.3021     7.5        4.6652      -2.8009       
2012-07-25T11:40:33Z    Tianjin_2     27.704      124.8939    124.8939    32.4115     29.684       0.0601    20.2847     20.3484     -0.3129     7.5        4.6672      -2.9016       
2012-07-25T11:43:26Z    Tianjin_2     27.7113     124.9085    124.9085    32.3821     29.6853      0.0581    20.2753     20.3484     -0.3592     7.5        4.6676      -3.3315       
2012-07-25T11:46:27Z    Tianjin_2     27.7193     124.9242    124.9242    32.379      29.7142      0.0595    20.2664     20.3484     -0.4028     7.5        4.6699      -3.7367       
2012-07-25T11:49:29Z    Tianjin_2     27.7269     124.939     124.939     32.4038     29.7006      0.0645    20.2666     20.3484     -0.4017     7.5        4.6686      -3.725        
2012-07-25T11:52:30Z    Tianjin_2     27.7349     124.9547    124.9547    32.5869     29.6777      0.0439    20.2642     20.3482     -0.4127     7.5        4.6654      -3.8227       
2012-07-25T11:55:32Z    Tianjin_2     27.7428     124.97      124.97      32.5729     29.7011      0.0456    20.2704     20.3482     -0.3822     7.5        4.6673      -3.5406       
2012-07-25T11:58:33Z    Tianjin_2     27.7509     124.9858    124.9858    32.5382     29.7411      0.0436    20.2823     20.3482     -0.3237     7.5        4.6707      -2.9995       
2012-07-25T12:01:26Z    Tianjin_2     27.759      125.0016    125.0016    32.5083     29.8471      0.0393    20.2865     20.348      -0.3024     7.5        4.6793      -2.803        
2012-07-25T12:04:27Z    Tianjin_2     27.767      125.0173    125.0173    32.4255     29.8358      0.0453    20.2818     20.3481     -0.3259     7.5        4.679       -3.0225       
2012-07-25T12:07:29Z    Tianjin_2     27.7752     125.0333    125.0333    32.3722     29.8389      0.0559    20.2767     20.3482     -0.3514     7.5        4.6797      -3.26         
2012-07-25T12:10:30Z    Tianjin_2     27.7834     125.0495    125.0495    32.3259     29.8665      0.0447    20.2735     20.3482     -0.3668     7.5        4.6822      -3.4042       
2012-07-25T12:13:32Z    Tianjin_2     27.7911     125.0647    125.0647    32.3147     29.8832      0.05      20.272      20.3481     -0.3742     7.5        4.6836      -3.4729       
2012-07-25T12:16:33Z    Tianjin_2     27.7985     125.0793    125.0793    32.3265     29.8745      0.0409    20.2707     20.3481     -0.3804     7.5        4.6828      -3.5305       
2012-07-25T12:19:26Z    Tianjin_2     27.8065     125.095     125.095     32.3778     29.8291      0.048     20.2683     20.3482     -0.3926     7.5        4.6789      -3.6421       
2012-07-25T12:22:27Z    Tianjin_2     27.8143     125.1105    125.1105    32.4263     29.8257      0.0407    20.2644     20.3481     -0.4116     7.5        4.6782      -3.8171       
2012-07-25T12:25:29Z    Tianjin_2     27.823      125.126     125.126     32.4947     29.8246      0.045     20.2526     20.3481     -0.4692     7.5        4.6962      -4.3666       
2012-07-25T12:28:30Z    Tianjin_2     27.8324     125.1411    125.1411    32.5434     29.801       0.0426    20.2543     20.3481     -0.4607     7.5        4.6939      -4.2856       
2012-07-25T12:31:32Z    Tianjin_2     27.8411     125.1553    125.1553    32.5676     29.7562      0.044     20.2669     20.3481     -0.399      7.5        4.69        -3.711        
2012-07-25T12:34:33Z    Tianjin_2     27.8492     125.1711    125.1711    32.5898     29.6876      0.0449    20.2766     20.3482     -0.352      7.5        4.6843      -3.2725       
2012-07-25T12:37:26Z    Tianjin_2     27.8571     125.1864    125.1864    32.6078     29.6291      0.0468    20.2792     20.3483     -0.3397     7.5        4.6793      -3.1575       
2012-07-25T12:40:27Z    Tianjin_2     27.865      125.2021    125.2021    32.6036     29.5093      0.0462    20.2828     20.3485     -0.3228     7.5        4.6695      -3            
2012-07-25T12:43:29Z    Tianjin_2     27.8731     125.2182    125.2182    32.5267     29.3062      0.0427    20.2858     20.3489     -0.3099     7.5        4.6534      -2.8812       
2012-07-25T12:46:30Z    Tianjin_2     27.8807     125.2334    125.2334    32.5018     29.2787      0.0515    20.2839     20.349      -0.32       7.5        4.5471      -2.9087       
2012-07-25T12:49:32Z    Tianjin_2     27.8884     125.2489    125.2489    32.4739     29.2736      0.0404    20.2798     20.349      -0.3401     7.5        4.5469      -3.0923       
2012-07-25T12:52:33Z    Tianjin_2     27.8964     125.2647    125.2647    32.5064     29.2591      0.0427    20.2795     20.349      -0.3416     7.5        4.5455      -3.1051       
2012-07-25T12:55:26Z    Tianjin_2     27.9044     125.2807    125.2807    32.4343     29.2007      0.0583    20.2753     20.3492     -0.3629     7.5        4.5412      -3.2993       
2012-07-25T13:37:29Z    Tianjin_2     28.0268     125.5025    125.5025    31.8611     29.6455      0.0584    20.3032     20.349      -0.2248     7.5        4.6355      -2.0783       
2012-07-25T13:40:30Z    Tianjin_2     28.0353     125.5171    125.5171    31.8492     29.654       0.0555    20.3015     20.349      -0.2334     7.5        4.6363      -2.158        
2012-07-25T13:43:32Z    Tianjin_2     28.0439     125.5319    125.5319    31.8133     29.6644      0.0533    20.3037     20.349      -0.2224     7.5        4.6376      -2.0567       
2012-07-25T13:46:33Z    Tianjin_2     28.0532     125.548     125.548     31.7818     29.6757      0.0543    20.3033     20.349      -0.2245     7.5        4.6388      -2.0763       
2012-07-25T13:49:26Z    Tianjin_2     28.0621     125.5637    125.5637    31.7626     29.6891      0.0593    20.3        20.349      -0.241      7.5        4.6401      -2.2295       
2012-07-25T13:52:27Z    Tianjin_2     28.0709     125.5789    125.5789    31.7664     29.687       0.0614    20.2966     20.349      -0.2572     7.5        4.6399      -2.3798       
2012-07-25T13:55:29Z    Tianjin_2     28.0798     125.5946    125.5946    31.7945     29.6599      0.0546    20.2884     20.349      -0.2978     7.5        4.6373      -2.7545       
2012-07-25T13:58:30Z    Tianjin_2     28.0891     125.6108    125.6108    31.8128     29.6542      0.0576    20.2791     20.349      -0.3435     7.5        4.6367      -3.1768       
2012-07-25T19:37:29Z    Tianjin_2     29.1126     127.4692    127.4692    31.7416     29.3812      0.0462    20.1958     20.3495     -0.7555     7.5        4.2352      -6.4122       
2012-07-25T19:40:30Z    Tianjin_2     29.1222     127.4864    127.4864    31.7506     29.31        0.0472    20.1977     20.3497     -0.7466     7.5        4.2268      -6.3316       
2012-07-25T19:43:32Z    Tianjin_2     29.1308     127.5022    127.5022    31.7216     29.3245      0.0487    20.1998     20.3497     -0.7366     7.5        4.0197      -5.9401       
2012-07-25T19:46:33Z    Tianjin_2     29.1398     127.5188    127.5188    31.6911     29.3433      0.0525    20.1982     20.3497     -0.7443     7.5        4.022       -6.0048       
2012-07-25T19:49:26Z    Tianjin_2     29.1489     127.5358    127.5358    31.6684     29.359       0.0535    20.1943     20.3496     -0.7636     7.5        4.024       -6.1629       
2012-07-25T19:52:27Z    Tianjin_2     29.1576     127.5518    127.5518    31.6485     29.369       0.0457    20.1917     20.3496     -0.7763     7.5        4.0253      -6.2671       
2012-07-25T19:55:29Z    Tianjin_2     29.1662     127.5678    127.5678    31.6489     29.3917      0.0547    20.1909     20.3496     -0.7801     7.5        4.0277      -6.2992       
2012-07-25T19:58:30Z    Tianjin_2     29.1757     127.5853    127.5853    31.635      29.3921      0.0481    20.1869     20.3496     -0.7997     7.5        4.0279      -6.4584       
2012-07-25T20:01:32Z    Tianjin_2     29.1854     127.6031    127.6031    31.6106     29.3921      0.0576    20.1852     20.3496     -0.8079     7.5        4.0282      -6.5257       
2012-07-25T20:04:33Z    Tianjin_2     29.1941     127.619     127.619     31.6122     29.4057      0.0525    20.1859     20.3496     -0.8046     7.5        4.0296      -6.5          
2012-07-25T20:07:26Z    Tianjin_2     29.2027     127.6346    127.6346    31.6095     29.4227      0.0542    20.1838     20.3496     -0.8147     7.5        4.0277      -6.5765       
2012-07-25T20:10:27Z    Tianjin_2     29.2119     127.6514    127.6514    31.5965     29.4541      0.051     20.1822     20.3496     -0.8224     7.5        4.0313      -6.6415       
2012-07-25T20:13:29Z    Tianjin_2     29.2212     127.6684    127.6684    31.5427     29.54        0.0563    20.1801     20.3495     -0.832      7.5        4.0414      -6.7285       
2012-07-25T20:16:30Z    Tianjin_2     29.231      127.6864    127.6864    31.4785     29.5738      0.0528    20.1809     20.3495     -0.8284     7.5        4.0458      -6.7057       
2012-07-25T20:19:32Z    Tianjin_2     29.2398     127.7026    127.7026    31.4554     29.5763      0.055     20.1831     20.3495     -0.8177     7.5        4.0463      -6.6207       
2012-07-25T20:22:33Z    Tianjin_2     29.2478     127.7176    127.7176    31.4506     29.568       0.0496    20.1899     20.3495     -0.784      7.5        4.0455      -6.3473       
2012-07-25T20:25:26Z    Tianjin_2     29.257      127.735     127.735     31.4581     29.5649      0.0503    20.1942     20.3495     -0.7633     7.5        4.045       -6.1792       
2012-07-25T20:28:27Z    Tianjin_2     29.2663     127.752     127.752     31.4756     29.5712      0.0468    20.197      20.3495     -0.7491     7.5        4.0455      -6.0639       
2012-07-25T20:31:29Z    Tianjin_2     29.2753     127.7686    127.7686    31.4845     29.5855      0.0506    20.1936     20.3494     -0.7657     7.5        4.047       -6.1984       
2012-07-25T20:34:30Z    Tianjin_2     29.2847     127.7862    127.7862    31.4952     29.5233      0.0443    20.1856     20.3495     -0.8054     7.5        4.04        -6.5147       
2012-07-25T20:37:32Z    Tianjin_2     29.2941     127.8035    127.8035    31.5113     29.5498      0.047     20.1764     20.3495     -0.8503     7.5        4.0428      -6.8794       
2012-07-25T20:40:33Z    Tianjin_2     29.303      127.8201    127.8201    31.4955     29.6011      0.0551    20.1743     20.3494     -0.8605     7.5        4.0486      -6.9664       
2012-07-25T20:43:26Z    Tianjin_2     29.3127     127.8381    127.8381    31.5448     29.6062      0.0554    20.1662     20.3493     -0.9001     7.5        4.0486      -7.2845       
2012-07-25T20:46:27Z    Tianjin_2     29.3223     127.8558    127.8558    31.6703     29.5974      0.0507    20.1592     20.3492     -0.9337     7.5        4.0463      -7.5482       
2012-07-25T20:49:29Z    Tianjin_2     29.3312     127.8723    127.8723    31.8246     29.5972      0.0468    20.1581     20.3491     -0.9387     7.5        4.0446      -7.5786       
2012-07-25T20:52:30Z    Tianjin_2     29.3406     127.8893    127.8893    31.912      29.5831      0.0482    20.1485     20.349      -0.9854     7.5        3.9393      -7.7464       
2012-07-25T20:55:32Z    Tianjin_2     29.3501     127.9065    127.9065    31.8391     29.4938      0.0428    20.1422     20.3493     -1.0175     7.5        3.9305      -7.9962       
2012-07-25T20:58:33Z    Tianjin_2     29.3605     127.9249    127.9249    31.7539     29.4639      0.0562    20.1375     20.3494     -1.0411     7.5        3.9282      -8.1843       
2012-07-25T21:01:26Z    Tianjin_2     29.3702     127.9421    127.9421    31.7586     29.4763      0.0489    20.1408     20.3494     -1.0249     7.5        3.9295      -8.0579       
2012-07-25T21:04:27Z    Tianjin_2     29.3802     127.9599    127.9599    31.857      29.4667      0.0535    20.1495     20.3493     -0.9816     7.5        3.6258      -7.1186       
2012-07-25T21:07:29Z    Tianjin_2     29.3902     127.9777    127.9777    31.9118     29.4091      0.0541    20.1539     20.3493     -0.9604     7.5        3.6201      -6.9577       
2012-07-25T21:10:30Z    Tianjin_2     29.3997     127.9947    127.9947    31.9971     29.334       0.0521    20.1589     20.3494     -0.9359     7.5        3.6124      -6.7709       
2012-07-25T21:13:32Z    Tianjin_2     29.4102     128.0134    128.0134    32.0606     29.1323      0.0486    20.1633     20.3497     -0.9156     7.5        3.5935      -6.6087       
2012-07-25T21:16:33Z    Tianjin_2     29.4191     128.0295    128.0295    32.1338     28.9032      0.059     20.1632     20.35       -0.9177     7.5        3.572       -6.6064       
2012-07-25T21:19:26Z    Tianjin_2     29.4284     128.046     128.046     32.3329     28.9613      0.0567    20.1717     20.3497     -0.8749     7.5        3.5755      -6.2913       
2012-07-25T21:22:27Z    Tianjin_2     29.4387     128.0644    128.0644    32.6787     29.3174      0.0444    20.1824     20.3487     -0.8175     7.5        3.6049      -5.8817       
2012-07-25T21:25:29Z    Tianjin_2     29.4488     128.0827    128.0827    32.7251     29.4177      0.0352    20.1779     20.3485     -0.8385     7.5        3.6137      -6.0359       
2012-07-25T21:28:30Z    Tianjin_2     29.4583     128.0997    128.0997    32.7566     29.4481      0.043     20.1651     20.3485     -0.9013     7.5        3.6162      -6.4881       
2012-07-25T21:31:32Z    Tianjin_2     29.4677     128.1167    128.1167    32.7788     29.4165      0.0422    20.1472     20.3485     -0.989      7.5        3.6131      -7.1163       
2012-07-25T21:34:33Z    Tianjin_2     29.4774     128.1343    128.1343    32.7697     29.3875      0.0371    20.1364     20.3485     -1.0423     7.5        3.4554      -7.1761       
2012-07-25T21:37:26Z    Tianjin_2     29.4868     128.1516    128.1516    32.7877     29.4102      0.0383    20.1314     20.3485     -1.0667     7.5        3.4571      -7.3445       
2012-07-25T21:40:27Z    Tianjin_2     29.4968     128.1698    128.1698    32.8064     29.4185      0.0364    20.134      20.3485     -1.0539     7.5        3.4577      -7.2559       
2012-07-25T21:43:29Z    Tianjin_2     29.5068     128.1882    128.1882    32.8411     29.455       0.0411    20.1314     20.3484     -1.0664     7.5        3.4605      -7.3417       
2012-07-25T21:46:30Z    Tianjin_2     29.5157     128.2045    128.2045    32.9088     29.4766      0.0355    20.127      20.3483     -1.0875     7.5        3.4618      -7.4846       
2012-07-25T21:49:32Z    Tianjin_2     29.525      128.2217    128.2217    32.9479     29.5058      0.0387    20.1237     20.3482     -1.1032     7.5        3.4639      -7.5924       
2012-07-25T21:52:33Z    Tianjin_2     29.5353     128.2408    128.2408    32.9581     29.5149      0.0343    20.1247     20.3481     -1.0982     7.5        3.4646      -7.5575       
2012-07-25T21:55:26Z    Tianjin_2     29.5448     128.2585    128.2585    32.9573     29.5076      0.0412    20.1225     20.3482     -1.1092     7.5        3.464       -7.6332       
2012-07-25T22:37:29Z    Tianjin_2     29.6772     128.5076    128.5076    32.9951     29.474       0.0265    20.1674     20.3482     -0.8882     7.5        3.0049      -5.304        
2012-07-25T22:40:30Z    Tianjin_2     29.6871     128.5263    128.5263    33.0154     29.4744      0.0326    20.1652     20.3482     -0.899      7.5        3.0048      -5.3674       
2012-07-25T22:43:32Z    Tianjin_2     29.6969     128.545     128.545     33.0099     29.4904      0.0262    20.1645     20.3481     -0.9024     7.5        3.0059      -5.3884       
2012-07-25T22:46:33Z    Tianjin_2     29.7059     128.5624    128.5624    32.9901     29.5062      0.025     20.1664     20.3481     -0.8932     7.5        3.0071      -5.3351       
2012-07-25T22:49:26Z    Tianjin_2     29.7147     128.5791    128.5791    33.0375     29.5091      0.0254    20.1681     20.3481     -0.8844     7.5        3.0069      -5.2807       
2012-07-25T22:52:27Z    Tianjin_2     29.7245     128.5976    128.5976    33.1097     29.5095      0.0274    20.1623     20.348      -0.9127     7.5        3.0065      -5.4466       
2012-07-25T22:55:29Z    Tianjin_2     29.7341     128.6162    128.6162    33.044      29.499       0.0298    20.161      20.3481     -0.9196     7.5        3.0062      -5.4903       
2012-07-25T22:58:30Z    Tianjin_2     29.7427     128.6329    128.6329    33.0294     29.5216      0.0267    20.1642     20.3481     -0.9034     7.5        2.9076      -5.215        
2012-07-25T23:01:32Z    Tianjin_2     29.7516     128.6502    128.6502    33.0293     29.5619      0.0218    20.1617     20.348      -0.9156     7.5        2.91        -5.2863       
2012-07-25T23:04:33Z    Tianjin_2     29.7608     128.6678    128.6678    33.0424     29.5528      0.0334    20.161      20.348      -0.9192     7.5        2.9094      -5.3064       
2012-07-25T23:07:26Z    Tianjin_2     29.77       128.6855    128.6855    33.0922     29.5102      0.0262    20.1585     20.348      -0.9316     7.5        2.9065      -5.3748       
2012-07-25T23:10:27Z    Tianjin_2     29.7792     128.7033    128.7033    33.2115     29.3737      0.0265    20.1553     20.3481     -0.9476     7.5        2.8975      -5.4584       
2012-07-25T23:13:29Z    Tianjin_2     29.7886     128.7213    128.7213    33.2292     29.4123      0.024     20.1587     20.3481     -0.9306     7.5        2.8997      -5.3608       
2012-07-25T23:16:30Z    Tianjin_2     29.7981     128.7397    128.7397    33.1891     29.4543      0.0224    20.1699     20.348      -0.8754     7.5        2.9025      -5.0456       
2012-07-25T23:19:32Z    Tianjin_2     29.8072     128.7576    128.7576    33.1152     29.3676      0.0306    20.1754     20.3482     -0.8495     7.5        2.8977      -4.8968       
2012-07-25T23:22:33Z    Tianjin_2     29.816      128.7759    128.7759    33.1379     29.2803      0.0267    20.1758     20.3484     -0.8479     7.5        2.8922      -4.8845       
2012-07-25T23:25:26Z    Tianjin_2     29.8245     128.7946    128.7946    33.1913     29.2872      0.0322    20.1735     20.3483     -0.8588     7.5        2.8923      -4.9456       
2012-07-25T23:28:27Z    Tianjin_2     29.8331     128.8138    128.8138    33.3003     29.4739      0.0275    20.1831     20.3479     -0.81       7.5        2.9031      -4.6651       
2012-07-25T23:31:29Z    Tianjin_2     29.8414     128.8324    128.8324    33.2056     29.4297      0.0233    20.1905     20.348      -0.7743     7.5        2.9009      -4.4615       
2012-07-25T23:34:30Z    Tianjin_2     29.8494     128.8503    128.8503    33.0784     29.3905      0.0257    20.1861     20.3482     -0.7968     7.5        2.8993      -4.5947       
2012-07-25T23:37:32Z    Tianjin_2     29.8586     128.869     128.869     32.9688     29.3621      0.0273    20.1813     20.3484     -0.8209     7.5        2.8982      -4.7373       
2012-07-25T23:40:33Z    Tianjin_2     29.8691     128.8896    128.8896    32.9782     29.3244      0.0242    20.1736     20.3484     -0.8593     7.5        2.8279      -4.8411       
2012-07-25T23:43:26Z    Tianjin_2     29.8796     128.9064    128.9064    33.109      29.4662      0.0231    20.1741     20.3481     -0.8551     7.5        2.6152      -4.4414       
2012-07-25T23:46:27Z    Tianjin_2     29.8891     128.9219    128.9219    33.2509     29.5818      0.028     20.1748     20.3478     -0.8502     7.5        2.6202      -4.4129       
2012-07-25T23:49:29Z    Tianjin_2     29.8994     128.9385    128.9385    33.1752     29.5025      0.0283    20.1713     20.348      -0.868      7.5        2.6166      -4.5072       
2012-07-25T23:52:30Z    Tianjin_2     29.9096     128.9546    128.9546    32.9375     29.446       0.0225    20.1682     20.3483     -0.8852     7.5        2.615       -4.6037       
2012-07-25T23:55:32Z    Tianjin_2     29.9209     128.973     128.973     32.7987     29.5413      0.022     20.1677     20.3483     -0.8875     7.5        2.6203      -4.6212       
2012-07-25T23:58:33Z    Tianjin_2     29.9315     128.9902    128.9902    32.7469     29.5984      0.0264    20.1692     20.3482     -0.8797     7.5        2.6234      -4.583        
2012-07-26T00:01:26Z    Tianjin_2     29.9409     129.0053    129.0053    32.7155     29.5897      0.0206    20.1622     20.3483     -0.9146     7.5        2.7472      -4.9913       
2012-07-26T00:04:27Z    Tianjin_2     29.9517     129.0225    129.0225    32.7684     29.5879      0.0212    20.1574     20.3482     -0.9379     7.5        2.7468      -5.1164       
2012-07-26T00:07:29Z    Tianjin_2     29.9634     129.0414    129.0414    32.8486     29.6325      0.0261    20.1487     20.3481     -0.9797     7.5        2.7488      -5.3424       
2012-07-26T00:10:30Z    Tianjin_2     29.9735     129.0577    129.0577    32.7965     29.6178      0.0258    20.1428     20.3481     -1.0092     7.5        2.7483      -5.5051       
2012-07-26T00:13:32Z    Tianjin_2     29.9828     129.0727    129.0727    32.715      29.6324      0.0305    20.1356     20.3482     -1.0447     7.5        2.7495      -5.7024       
2012-07-26T00:16:33Z    Tianjin_2     29.9932     129.0896    129.0896    32.666      29.6776      0.0276    20.1329     20.3482     -1.0578     7.5        2.7522      -5.7772       
2012-07-26T00:19:26Z    Tianjin_2     30.0038     129.1072    129.1072    32.6543     29.7256      0.0359    20.1383     20.3481     -1.0309     7.5        2.7549      -5.6314       
2012-07-26T00:22:27Z    Tianjin_2     30.0138     129.1246    129.1246    32.6561     29.7203      0.0242    20.1391     20.3481     -1.0271     7.5        2.7546      -5.6106       
2012-07-26T00:25:29Z    Tianjin_2     30.0235     129.142     129.142     32.6587     29.6887      0.0266    20.1345     20.3481     -1.05       7.5        2.7947      -5.822        
2012-07-26T00:28:30Z    Tianjin_2     30.0333     129.1594    129.1594    32.674      29.7089      0.0282    20.1334     20.3481     -1.0551     7.5        2.7957      -5.8501       
2012-07-26T00:31:32Z    Tianjin_2     30.043      129.1766    129.1766    32.6819     29.7283      0.0253    20.1265     20.3481     -1.0891     7.5        2.7968      -6.0387       
2012-07-26T00:34:33Z    Tianjin_2     30.0536     129.1955    129.1955    32.7338     29.7335      0.0284    20.1238     20.348      -1.102      7.5        2.7968      -6.1078       
2012-07-26T00:37:26Z    Tianjin_2     30.0631     129.2125    129.2125    32.7397     29.7564      0.0289    20.122      20.348      -1.1104     7.5        2.798       -6.155        
2012-07-26T00:40:27Z    Tianjin_2     30.0725     129.2291    129.2291    32.6143     29.827       0.034     20.1204     20.348      -1.1184     7.5        2.8027      -6.2067       
2012-07-26T00:43:29Z    Tianjin_2     30.0823     129.2466    129.2466    32.5522     29.7809      0.0291    20.1198     20.3481     -1.1221     7.5        2.8005      -6.2294       
2012-07-26T00:46:30Z    Tianjin_2     30.0914     129.263     129.263     32.4501     29.7882      0.0329    20.1311     20.3482     -1.0667     7.5        2.8015      -5.9264       
2012-07-26T00:49:32Z    Tianjin_2     30.1006     129.2808    129.2808    32.5578     29.7747      0.0307    20.1411     20.3481     -1.0174     7.5        2.8001      -5.6477       
2012-07-26T00:52:33Z    Tianjin_2     30.1107     129.3003    129.3003    32.6732     29.7393      0.0291    20.1549     20.3481     -0.9494     7.5        2.7975      -5.2645       
2012-07-26T00:55:26Z    Tianjin_2     30.1185     129.3185    129.3185    32.8439     29.6133      0.0269    20.161      20.3481     -0.9195     7.5        2.7894      -5.0896       
2012-07-26T01:37:29Z    Tianjin_2     30.2462     129.561     129.561     31.7632     29.6739      0.0465    20.2728     20.349      -0.3745     7.5        2.7537      -2.0564       
2012-07-26T01:40:30Z    Tianjin_2     30.2567     129.5788    129.5788    31.5416     29.7192      0.0571    20.3211     20.3491     -0.1378     7.5        2.7574      -0.7582       
2012-07-26T01:43:32Z    Tianjin_2     30.2657     129.5941    129.5941    31.4067     29.6283      0.0536    20.3415     20.3494     -0.0388     7.5        2.7531      -0.2135       
2012-07-26T01:46:33Z    Tianjin_2     30.2746     129.6091    129.6091    31.2988     29.5804      0.0488    20.3507     20.3496     0.0053      7.5        2.751       0.0295        
2012-07-26T01:49:26Z    Tianjin_2     30.2853     129.6274    129.6274    31.27       29.5035      0.0521    20.3672     20.3498     0.0859      7.5        2.9067      0.5005        
2012-07-26T01:52:27Z    Tianjin_2     30.2949     129.6439    129.6439    31.2375     29.5108      0.0535    20.3819     20.3498     0.1579      7.5        2.9073      0.9206        
2012-07-26T01:55:29Z    Tianjin_2     30.3036     129.6589    129.6589    31.2514     29.5175      0.0503    20.3952     20.3498     0.223       7.5        2.9076      1.3003        
2012-07-26T01:58:30Z    Tianjin_2     30.3126     129.6744    129.6744    31.2586     29.4698      0.0461    20.3983     20.3498     0.2381      7.5        2.9047      1.3877        
2012-07-26T02:01:32Z    Tianjin_2     30.3211     129.6894    129.6894    31.3589     29.4385      0.0496    20.3976     20.3498     0.235       7.5        2.9022      1.3685        
2012-07-26T02:04:33Z    Tianjin_2     30.3302     129.7056    129.7056    31.3921     29.4391      0.0543    20.4028     20.3498     0.2608      7.5        2.902       1.5181        
2012-07-26T02:07:26Z    Tianjin_2     30.3396     129.7221    129.7221    31.8821     29.4044      0.0519    20.4135     20.3494     0.3153      7.5        2.897       1.8284        
2012-07-26T02:10:27Z    Tianjin_2     30.3504     129.7413    129.7413    31.7296     29.4186      0.0588    20.4241     20.3495     0.3669      7.5        2.8987      2.1301        
2012-07-26T02:13:29Z    Tianjin_2     30.3594     129.7572    129.7572    31.6463     29.3423      0.0596    20.4338     20.3497     0.4135      7.5        2.8946      2.4015        
2012-07-26T02:16:30Z    Tianjin_2     30.3678     129.7719    129.7719    31.5793     29.3291      0.0506    20.4472     20.3498     0.4785      7.5        2.8942      2.78          
2012-07-26T02:19:32Z    Tianjin_2     30.3771     129.7884    129.7884    31.5052     29.3948      0.0543    20.4606     20.3497     0.5449      7.5        2.7142      2.9673        
2012-07-26T02:22:33Z    Tianjin_2     30.3864     129.8044    129.8044    31.4407     29.3865      0.056     20.4733     20.3498     0.6066      7.5        2.7141      3.3047        
2012-07-26T02:25:26Z    Tianjin_2     30.3952     129.8199    129.8199    31.4309     29.358       0.0483    20.4772     20.3499     0.6256      7.5        2.7126      3.4083        
2012-07-26T02:28:27Z    Tianjin_2     30.4033     129.8349    129.8349    31.4868     29.2993      0.0511    20.4761     20.3499     0.6202      7.5        2.7091      3.3765        
2012-07-26T02:31:29Z    Tianjin_2     30.4121     129.8512    129.8512    31.5079     29.3024      0.0527    20.4761     20.3499     0.6199      7.5        2.7092      3.3744        
2012-07-26T02:34:30Z    Tianjin_2     30.4204     129.8674    129.8674    31.5922     29.389       0.0554    20.484      20.3497     0.66        7.5        2.7135      3.5917        
2012-07-26T02:37:32Z    Tianjin_2     30.4286     129.884     129.884     31.5632     29.4026      0.052     20.4839     20.3497     0.6597      7.5        2.8852      3.8171        
2012-07-26T02:40:33Z    Tianjin_2     30.4372     129.9015    129.9015    31.4114     29.4262      0.0626    20.4783     20.3498     0.6317      7.5        2.8875      3.6595        
2012-07-26T02:43:26Z    Tianjin_2     30.4455     129.9182    129.9182    31.3242     29.4289      0.0576    20.4767     20.3499     0.6233      7.5        2.8881      3.6131        
2012-07-26T02:46:27Z    Tianjin_2     30.4536     129.9348    129.9348    31.2491     29.458       0.057     20.4725     20.3499     0.6024      7.5        2.8903      3.4945        
2012-07-26T02:49:29Z    Tianjin_2     30.4617     129.9513    129.9513    31.2716     29.494       0.0593    20.4706     20.3498     0.5938      7.5        2.8923      3.4444        
2012-07-26T02:52:30Z    Tianjin_2     30.4695     129.967     129.967     31.5322     29.5843      0.053     20.4651     20.3494     0.5687      7.5        2.8962      3.2938        
2012-07-26T02:55:32Z    Tianjin_2     30.4777     129.9836    129.9836    31.5801     29.4653      0.0527    20.4427     20.3495     0.4577      7.5        2.8888      2.6483        
2012-07-26T02:58:33Z    Tianjin_2     30.4859     129.9999    129.9999    31.6022     29.3494      0.0512    20.4298     20.3497     0.3933      7.5        2.8817      2.2741        
2012-07-26T03:01:26Z    Tianjin_2     30.4946     130.0171    130.0171    31.5838     29.2741      0.0522    20.431      20.3499     0.3985      7.5        2.8773      2.3039        
2012-07-26T03:04:27Z    Tianjin_2     30.5033     130.0339    130.0339    31.6017     29.2916      0.0495    20.4371     20.3498     0.429       7.5        2.8783      2.4798        
2012-07-26T03:07:29Z    Tianjin_2     30.5113     130.0495    130.0495    31.7733     29.3336      0.046     20.4385     20.3496     0.4369      7.5        2.8798      2.5229        
2012-07-26T03:10:30Z    Tianjin_2     30.5196     130.0655    130.0655    32.0678     29.3087      0.0445    20.4377     20.3494     0.434       7.5        2.8766      2.5004        
2012-07-26T03:13:32Z    Tianjin_2     30.5287     130.0829    130.0829    31.9962     29.2758      0.0426    20.4352     20.3495     0.4213      7.5        2.8751      2.4282        
2012-07-26T03:16:33Z    Tianjin_2     30.5376     130.0998    130.0998    31.8843     29.2914      0.0471    20.4417     20.3496     0.4526      7.5        2.8766      2.6111        
2012-07-26T03:19:26Z    Tianjin_2     30.546      130.1156    130.1156    31.7889     29.2974      0.0459    20.4474     20.3496     0.4804      7.5        2.8775      2.7734        
2012-07-26T03:22:27Z    Tianjin_2     30.5548     130.1326    130.1326    31.7134     29.2806      0.0542    20.4535     20.3497     0.5099      7.5        3.0634      3.1359        
2012-07-26T03:25:29Z    Tianjin_2     30.5635     130.1499    130.1499    31.7372     29.3031      0.0505    20.4602     20.3497     0.5429      7.5        3.0647      3.3389        
2012-07-26T03:28:30Z    Tianjin_2     30.5721     130.1672    130.1672    31.8696     29.3718      0.0528    20.4631     20.3494     0.5586      7.5        3.0684      3.4333        
2012-07-26T03:31:32Z    Tianjin_2     30.5806     130.1841    130.1841    32.2866     29.3507      0.0408    20.4607     20.3491     0.5485      7.5        3.0644      3.3601        
2012-07-26T03:34:33Z    Tianjin_2     30.5887     130.2011    130.2011    32.7659     29.4569      0.0349    20.4492     20.3484     0.4951      7.5        3.0683      3.0238        
2012-07-26T03:37:26Z    Tianjin_2     30.597      130.2184    130.2184    33.0715     29.7635      0.0222    20.424      20.3476     0.3752      7.5        3.0863      2.2892        
2012-07-26T03:40:27Z    Tianjin_2     30.6057     130.2366    130.2366    33.0842     29.8317      0.0228    20.3863     20.3475     0.1905      7.5        3.0907      1.1627        
2012-07-26T03:43:29Z    Tianjin_2     30.6138     130.2535    130.2535    32.8631     29.6204      0.0247    20.3398     20.3481     -0.0409     7.5        3.0783      -0.2496       
2012-07-26T03:46:30Z    Tianjin_2     30.6215     130.2696    130.2696    32.9008     29.6106      0.0296    20.3069     20.348      -0.2022     7.5        3.0774      -1.2345       
2012-07-26T03:49:32Z    Tianjin_2     30.6303     130.2879    130.2879    33.3709     29.9809      0.0195    20.3099     20.347      -0.1822     7.5        2.7107      -0.9717       
2012-07-26T03:52:33Z    Tianjin_2     30.6389     130.3057    130.3057    33.4301     30.0041      0.0113    20.3027     20.3469     -0.2173     7.5        2.7116      -1.158        
2012-07-26T03:55:26Z    Tianjin_2     30.6467     130.3218    130.3218    33.3906     30.0926      0.0142    20.2816     20.3468     -0.3205     7.5        2.7163      -1.7092       
2012-07-26T04:37:29Z    Tianjin_2     30.7588     130.5667    130.5667    32.5308     29.1677      0.0494    20.2952     20.3491     -0.265      7.5        2.8843      -1.5306       
2012-07-26T04:40:30Z    Tianjin_2     30.7653     130.5844    130.5844    32.5105     29.0904      0.062     20.3016     20.3493     -0.2346     7.5        2.8799      -1.3547       
2012-07-26T04:43:32Z    Tianjin_2     30.7717     130.6014    130.6014    32.4807     28.9087      0.0632    20.3325     20.3496     -0.0842     7.5        2.8696      -0.4862       
2012-07-26T04:46:33Z    Tianjin_2     30.7789     130.6193    130.6193    32.3143     29.2437      0.0675    20.3554     20.3492     0.0302      7.5        2.8899      0.1746        
2012-07-26T04:49:26Z    Tianjin_2     30.7872     130.637     130.637     32.2527     29.3864      0.0616    20.37       20.349      0.1031      7.5        2.8506      0.5874        
2012-07-26T04:52:27Z    Tianjin_2     30.795      130.6528    130.6528    32.2706     29.1618      0.0588    20.3676     20.3494     0.0892      7.5        2.8389      0.5079        
2012-07-26T04:55:29Z    Tianjin_2     30.8039     130.6702    130.6702    32.212      29.2444      0.0584    20.3692     20.3493     0.0977      7.5        2.8435      0.5566        
2012-07-26T04:58:30Z    Tianjin_2     30.8123     130.6865    130.6865    32.0188     29.3972      0.0475    20.3831     20.3492     0.1665      7.5        2.8523      0.9502        
2012-07-26T05:01:32Z    Tianjin_2     30.8202     130.7026    130.7026    31.8974     29.3375      0.0498    20.4028     20.3495     0.2623      7.5        2.8499      1.4977        
2012-07-26T05:04:33Z    Tianjin_2     30.8291     130.7202    130.7202    31.8647     29.4251      0.0591    20.4136     20.3493     0.3158      7.5        2.8545      1.8041        
2012-07-26T05:07:26Z    Tianjin_2     30.8368     130.7356    130.7356    32.0062     29.3721      0.0524    20.4234     20.3493     0.364       7.5        2.8511      2.0772        
2012-07-26T05:10:27Z    Tianjin_2     30.8444     130.7512    130.7512    32.0527     29.2893      0.0552    20.4238     20.3494     0.3657      7.5        2.8466      2.0857        
2012-07-26T05:13:29Z    Tianjin_2     30.8531     130.7689    130.7689    31.884      29.4015      0.057     20.4264     20.3494     0.3786      7.5        2.8532      2.1624        
2012-07-26T05:16:30Z    Tianjin_2     30.8617     130.7866    130.7866    31.8695     29.4479      0.0514    20.4306     20.3493     0.3997      7.5        2.8557      2.2835        
2012-07-26T05:19:32Z    Tianjin_2     30.8698     130.8048    130.8048    31.9593     29.2933      0.0548    20.4226     20.3495     0.3594      7.5        2.8473      2.0513        
2012-07-26T05:22:33Z    Tianjin_2     30.878      130.8232    130.8232    31.6949     29.4302      0.0615    20.4122     20.3495     0.3082      7.5        2.4389      1.5057        
2012-07-26T05:25:26Z    Tianjin_2     30.8855     130.8401    130.8401    31.8528     29.2876      0.0579    20.4157     20.3496     0.325       7.5        2.4328      1.586         
2012-07-26T05:28:27Z    Tianjin_2     30.8939     130.8589    130.8589    32.0444     29.1881      0.0549    20.4297     20.3496     0.3936      7.5        2.4282      1.9183        
2012-07-26T05:31:29Z    Tianjin_2     30.9027     130.8785    130.8785    32.0467     29.3072      0.0565    20.4279     20.3494     0.3858      7.5        2.3975      1.853         
2012-07-26T05:34:30Z    Tianjin_2     30.9115     130.8977    130.8977    32.0836     29.2844      0.0536    20.4129     20.3494     0.3121      7.5        2.3966      1.4984        
2012-07-26T05:37:32Z    Tianjin_2     30.9193     130.9145    130.9145    31.945      29.4077      0.0559    20.4012     20.3493     0.2553      7.5        2.4013      1.2266        
2012-07-26T05:40:33Z    Tianjin_2     30.9268     130.931     130.931     32.0146     29.2648      0.0549    20.3989     20.3495     0.2426      7.5        2.3962      1.1656        
2012-07-26T05:43:26Z    Tianjin_2     30.9354     130.9495    130.9495    31.8803     29.4021      0.0602    20.3977     20.3494     0.2373      7.5        2.4013      1.1408        
2012-07-26T05:46:27Z    Tianjin_2     30.9446     130.9693    130.9693    31.9238     29.4323      0.0605    20.3998     20.3493     0.2484      7.5        2.4022      1.1935        
2012-07-26T05:49:29Z    Tianjin_2     30.9527     130.9883    130.9883    31.9762     29.3832      0.0579    20.4087     20.3493     0.2919      7.5        2.4003      1.4022        
2012-07-26T05:52:30Z    Tianjin_2     30.9601     131.0053    131.0053    32.0292     29.451       0.0496    20.4148     20.3491     0.3227      7.5        2.4025      1.5495        
2012-07-26T05:55:32Z    Tianjin_2     30.9681     131.0234    131.0234    32.0259     29.4015      0.0559    20.4052     20.3492     0.2749      7.5        2.4008      1.3201        
2012-07-26T05:58:33Z    Tianjin_2     30.9758     131.0414    131.0414    32.109      29.357       0.0457    20.3868     20.3492     0.1846      7.5        2.399       0.8861        
2012-07-26T06:01:26Z    Tianjin_2     30.9831     131.06      131.06      32.3455     28.9896      0.057     20.3721     20.3496     0.1106      7.5        2.3857      0.5304        
2012-07-26T06:04:27Z    Tianjin_2     30.9912     131.0799    131.0799    32.2519     29.2669      0.0527    20.3622     20.3492     0.0635      7.5        2.3955      0.3044        
2012-07-26T06:07:29Z    Tianjin_2     30.9988     131.0994    131.0994    32.3688     29.3509      0.0405    20.3606     20.349      0.0568      7.5        2.3979      0.2723        
2012-07-26T06:10:30Z    Tianjin_2     31.0061     131.1179    131.1179    32.28       29.4376      0.0442    20.3517     20.3489     0.0138      nd         1.6435      0.0453        
2012-07-26T06:13:32Z    Tianjin_2     31.0138     131.1369    131.1369    32.2513     29.4133      0.0459    20.3328     20.349      -0.0796     nd         1.3565      -0.2157       
2012-07-26T06:16:33Z    Tianjin_2     31.0217     131.1565    131.1565    32.3008     29.3436      0.046     20.324      20.3491     -0.1233     nd         1.3545      -0.3338       
2012-07-26T06:19:26Z    Tianjin_2     31.0295     131.1763    131.1763    32.3406     29.2567      0.0486    20.3238     20.3492     -0.1248     nd         1.3521      -0.3378       
2012-07-26T06:22:27Z    Tianjin_2     31.0368     131.1956    131.1956    32.3254     29.1941      0.0418    20.3251     20.3493     -0.1188     nd         1.3505      -0.3216       
2012-07-26T06:25:29Z    Tianjin_2     31.0442     131.2161    131.2161    32.2369     29.2808      0.0484    20.3395     20.3492     -0.048      nd         1.353       -0.13         
2012-07-26T06:28:30Z    Tianjin_2     31.0517     131.2365    131.2365    32.1886     29.4038      0.0521    20.3515     20.3491     0.012       nd         1.3564      0.0325        
2012-07-26T06:31:32Z    Tianjin_2     31.059      131.2565    131.2565    32.2736     29.1851      0.0415    20.3625     20.3494     0.0647      nd         1.3504      0.1751        
2012-07-26T06:34:33Z    Tianjin_2     31.0662     131.2763    131.2763    32.3152     29.1449      0.0469    20.3618     20.3494     0.061       nd         1.3492      0.165         
2012-07-26T06:37:26Z    Tianjin_2     31.0728     131.2949    131.2949    32.3708     28.9885      0.0458    20.3564     20.3496     0.0334      nd         1.345       0.0904        
2012-07-26T06:40:27Z    Tianjin_2     31.0796     131.3137    131.3137    32.4026     28.854       0.0548    20.3562     20.3498     0.0317      nd         1.3413      0.0856        
2012-07-26T06:43:29Z    Tianjin_2     31.0869     131.333     131.333     32.3998     28.698       0.0634    20.3624     20.3501     0.0607      nd         1.3372      0.1639        
2012-07-26T06:46:30Z    Tianjin_2     31.0944     131.3528    131.3528    32.087      29.3466      0.0606    20.3782     20.3493     0.1419      nd         1.3551      0.3849        
2012-07-26T06:49:32Z    Tianjin_2     31.1017     131.3718    131.3718    32.0647     29.348       0.0604    20.4032     20.3493     0.2647      nd         1.3552      0.718         
2012-07-26T06:52:33Z    Tianjin_2     31.1089     131.3905    131.3905    32.1156     29.1977      0.0587    20.4169     20.3495     0.3313      nd         1.2707      0.8445        
2012-07-26T06:55:26Z    Tianjin_2     31.1165     131.4102    131.4102    32.2833     28.8874      0.0564    20.4301     20.3499     0.394       nd         1.2625      1.0021        
2012-07-26T07:37:29Z    Tianjin_2     31.2245     131.6689    131.6689    32.7517     29.5638      0.0332    20.3684     20.3483     0.0988      nd         0.987       0.1938        
2012-07-26T07:40:30Z    Tianjin_2     31.2331     131.6893    131.6893    32.6224     29.5609      0.0334    20.3511     20.3484     0.0135      nd         0.9872      0.0264        
2012-07-26T07:43:32Z    Tianjin_2     31.2402     131.7082    131.7082    32.5909     29.3863      0.0449    20.3306     20.3487     -0.0891     nd         0.984       -0.1748       
2012-07-26T07:46:33Z    Tianjin_2     31.247      131.7268    131.7268    32.618      29.4155      0.0334    20.3224     20.3486     -0.129      nd         0.9845      -0.2531       
2012-07-26T07:49:26Z    Tianjin_2     31.2545     131.7483    131.7483    32.6108     29.3554      0.0329    20.3273     20.3487     -0.1054     nd         0.9833      -0.2068       
2012-07-26T07:52:27Z    Tianjin_2     31.2611     131.7669    131.7669    32.8212     29.8989      0.0273    20.335      20.3477     -0.062      nd         0.9933      -0.1217       
2012-07-26T07:55:29Z    Tianjin_2     31.2668     131.7833    131.7833    32.8971     29.8393      0.0265    20.3445     20.3477     -0.0155     nd         0.992       -0.0305       
2012-07-26T07:58:30Z    Tianjin_2     31.2731     131.8012    131.8012    32.8737     29.6754      0.0247    20.3296     20.348      -0.0902     nd         0.9889      -0.1768       
2012-07-26T08:01:32Z    Tianjin_2     31.28       131.8215    131.8215    32.9493     29.5451      0.0292    20.3099     20.3481     -0.1878     nd         0.9863      -0.3677       
2012-07-26T08:04:33Z    Tianjin_2     31.2865     131.8403    131.8403    32.9894     29.4528      0.0226    20.2968     20.3482     -0.2528     nd         0.9845      -0.4947       
2012-07-26T08:07:26Z    Tianjin_2     31.2934     131.8604    131.8604    33.0397     29.6533      0.0294    20.2955     20.3478     -0.2572     nd         0.9882      -0.5035       
2012-07-26T08:10:27Z    Tianjin_2     31.3        131.8798    131.8798    33.066      29.7914      0.0266    20.292      20.3476     -0.2733     nd         0.8907      -0.4811       
2012-07-26T08:13:29Z    Tianjin_2     31.3061     131.8982    131.8982    33.0684     29.6763      0.0252    20.2836     20.3478     -0.3155     nd         0.8888      -0.5552       
2012-07-26T08:16:30Z    Tianjin_2     31.3122     131.9172    131.9172    33.0875     29.6188      0.0217    20.2745     20.3479     -0.3603     nd         0.8877      -0.6339       
2012-07-26T08:19:32Z    Tianjin_2     31.3178     131.9347    131.9347    33.077      29.6027      0.0308    20.2722     20.3479     -0.3722     nd         0.8875      -0.6547       
2012-07-26T08:22:33Z    Tianjin_2     31.3238     131.9539    131.9539    33.0943     29.5199      0.0294    20.2717     20.348      -0.3751     nd         0.886       -0.6597       
2012-07-26T08:25:26Z    Tianjin_2     31.3297     131.9732    131.9732    33.1051     29.411       0.022     20.2756     20.3482     -0.3564     nd         0.8842      -0.6265       
2012-07-26T08:28:27Z    Tianjin_2     31.3356     131.9927    131.9927    33.1251     29.769       0.0232    20.2809     20.3476     -0.3277     nd         0.8902      -0.5766       
2012-07-26T08:31:29Z    Tianjin_2     31.3414     132.012     132.012     33.112      30.0546      0.0284    20.284      20.3471     -0.3102     7.5        1.7955      -1.0957       
2012-07-26T08:34:30Z    Tianjin_2     31.3476     132.03      132.03      33.0744     29.9698      0.0284    20.2792     20.3473     -0.3348     7.5        1.7939      -1.1834       
2012-07-26T08:37:32Z    Tianjin_2     31.3538     132.0483    132.0483    33.0138     29.708       0.0255    20.2725     20.3478     -0.3701     7.5        1.7891      -1.3108       
2012-07-26T08:40:33Z    Tianjin_2     31.3607     132.0671    132.0671    32.9772     29.7321      0.0214    20.2682     20.3478     -0.3911     7.5        1.7896      -1.3852       
2012-07-26T08:43:26Z    Tianjin_2     31.3678     132.0853    132.0853    32.9947     29.8175      0.0227    20.2612     20.3476     -0.4245     7.5        1.7912      -1.5027       
2012-07-26T08:46:27Z    Tianjin_2     31.3746     132.103     132.103     32.9273     29.7331      0.0252    20.2517     20.3478     -0.4725     7.5        1.7897      -1.6743       
2012-07-26T08:49:29Z    Tianjin_2     31.3823     132.1228    132.1228    32.9415     29.6459      0.0288    20.2477     20.348      -0.4925     7.5        1.7399      -1.6986       
2012-07-26T08:52:30Z    Tianjin_2     31.3895     132.1413    132.1413    32.9645     29.5956      0.0296    20.2536     20.348      -0.4641     7.5        1.6563      -1.5249       
2012-07-26T08:55:32Z    Tianjin_2     31.3959     132.1581    132.1581    32.8661     29.4848      0.0278    20.2496     20.3483     -0.4848     7.5        1.6546      -1.5949       
2012-07-26T08:58:33Z    Tianjin_2     31.4029     132.1766    132.1766    32.771      29.4224      0.0359    20.2506     20.3485     -0.4809     7.5        1.6538      -1.5837       
2012-07-26T09:01:26Z    Tianjin_2     31.4099     132.1947    132.1947    32.679      29.5424      0.0322    20.2588     20.3484     -0.4401     7.5        1.6559      -1.449        
2012-07-26T09:04:27Z    Tianjin_2     31.4165     132.2118    132.2118    32.6314     29.6149      0.0361    20.2743     20.3483     -0.3634     7.5        1.6571      -1.1965       
2012-07-26T09:07:29Z    Tianjin_2     31.4233     132.2295    132.2295    32.5875     29.6208      0.0389    20.2846     20.3483     -0.3132     7.5        1.6573      -1.0314       
2012-07-26T09:10:30Z    Tianjin_2     31.4302     132.2474    132.2474    32.7157     29.9097      0.0287    20.2874     20.3477     -0.2965     7.5        1.6618      -0.9739       
2012-07-26T09:13:32Z    Tianjin_2     31.4375     132.2661    132.2661    32.7374     29.8308      0.028     20.2842     20.3478     -0.3127     7.5        1.6605      -1.0275       
2012-07-26T09:16:33Z    Tianjin_2     31.4445     132.2842    132.2842    32.6795     29.8852      0.0351    20.2677     20.3478     -0.3936     7.5        1.6614      -1.2933       
2012-07-26T09:19:26Z    Tianjin_2     31.451      132.3015    132.3015    32.7363     30.0421      0.0283    20.2571     20.3475     -0.4442     7.5        1.6639      -1.4576       
2012-07-26T09:22:27Z    Tianjin_2     31.4572     132.3192    132.3192    32.7821     29.7851      0.0244    20.2498     20.3479     -0.482      7.5        1.6597      -1.5835       
2012-07-26T09:25:29Z    Tianjin_2     31.4635     132.3369    132.3369    32.7492     29.7502      0.0364    20.241      20.348      -0.5259     7.5        1.6591      -1.7285       
2012-07-26T09:28:30Z    Tianjin_2     31.4697     132.355     132.355     32.6946     29.4836      0.0267    20.2409     20.3485     -0.5284     7.5        1.6549      -1.7405       
2012-07-26T09:31:32Z    Tianjin_2     31.4758     132.3729    132.3729    32.6485     29.5317      0.0319    20.244      20.3484     -0.5134     7.5        1.6557      -1.6908       
2012-07-26T09:34:33Z    Tianjin_2     31.4821     132.3912    132.3912    32.648      29.6283      0.0295    20.2563     20.3483     -0.452      7.5        1.6108      -1.4461       
2012-07-26T09:37:26Z    Tianjin_2     31.4883     132.4094    132.4094    32.6549     29.646       0.0341    20.261      20.3482     -0.4289     7.5        1.6111      -1.3718       
2012-07-26T09:40:27Z    Tianjin_2     31.4948     132.4275    132.4275    32.668      29.5549      0.0315    20.2599     20.3484     -0.4347     7.5        1.6097      -1.3911       
2012-07-26T09:43:29Z    Tianjin_2     31.5017     132.4449    132.4449    32.6828     29.7057      0.029     20.2584     20.3481     -0.4406     7.5        1.6119      -1.4086       
2012-07-26T09:46:30Z    Tianjin_2     31.5089     132.4629    132.4629    32.6921     29.7702      0.0288    20.2578     20.348      -0.4432     7.5        1.6129      -1.4162       
2012-07-26T09:49:32Z    Tianjin_2     31.516      132.4806    132.4806    32.6997     29.7838      0.0277    20.2551     20.348      -0.4565     7.5        1.6131      -1.4585       
2012-07-26T09:52:33Z    Tianjin_2     31.5228     132.4976    132.4976    32.7122     29.6992      0.0314    20.2503     20.3481     -0.4803     7.5        1.6118      -1.5353       
2012-07-26T09:55:26Z    Tianjin_2     31.5296     132.5149    132.5149    32.7228     29.6259      0.0244    20.2473     20.3482     -0.4958     7.5        1.6107      -1.5854       
2012-07-26T10:37:29Z    Tianjin_2     31.627      132.7605    132.7605    32.7154     29.5387      0.0311    20.2025     20.3483     -0.7167     7.5        1.5317      -2.1825       
2012-07-26T10:40:30Z    Tianjin_2     31.6331     132.7777    132.7777    32.6063     29.3011      0.0299    20.2043     20.3488     -0.7104     7.5        1.5286      -2.1685       
2012-07-26T10:43:32Z    Tianjin_2     31.6397     132.7967    132.7967    32.5905     29.2319      0.0341    20.2167     20.349      -0.6501     7.5        1.5276      -1.9859       
2012-07-26T10:46:33Z    Tianjin_2     31.646      132.8152    132.8152    32.8094     29.2363      0.0294    20.23       20.3488     -0.5836     7.5        1.5274      -1.78         
2012-07-26T10:49:26Z    Tianjin_2     31.6517     132.8317    132.8317    32.8731     29.272       0.0376    20.2397     20.3486     -0.5354     7.5        1.5278      -1.632        
2012-07-26T10:52:27Z    Tianjin_2     31.6582     132.8509    132.8509    33.0774     29.2056      0.0261    20.2319     20.3485     -0.5732     7.5        1.5266      -1.7456       
2012-07-26T10:55:29Z    Tianjin_2     31.6645     132.8693    132.8693    33.2007     29.1523      0.0288    20.2237     20.3485     -0.6133     7.5        1.5257      -1.8671       
2012-07-26T10:58:30Z    Tianjin_2     31.6707     132.8877    132.8877    33.2678     29.2857      0.0258    20.2241     20.3482     -0.61       7.5        1.5077      -1.8305       
2012-07-26T11:01:32Z    Tianjin_2     31.6772     132.9065    132.9065    33.1997     29.5665      0.0236    20.2224     20.3478     -0.6163     7.5        1.5115      -1.8465       
2012-07-26T11:04:33Z    Tianjin_2     31.9383     133.6203    133.6203    33.9239     28.8714      0.0245    20.1905     20.3482     -0.775      7.5        1.4526      -2.2474       
2012-07-26T11:07:26Z    Tianjin_2     nd          nd          nd          nd          nd           nd        nd          nd          nd          nd         nd          nd            
2012-07-26T11:10:27Z    Tianjin_2     nd          nd          nd          nd          nd           nd        nd          nd          nd          nd         nd          nd            
2012-07-26T11:13:29Z    Tianjin_2     nd          nd          nd          nd          nd           nd        nd          nd          nd          nd         nd          nd            
2012-07-26T11:16:30Z    Tianjin_2     nd          nd          nd          nd          nd           nd        nd          nd          nd          nd         nd          nd            
2012-07-26T11:19:32Z    Tianjin_2     nd          nd          nd          nd          nd           nd        nd          nd          nd          nd         nd          nd            
2012-07-26T11:22:33Z    Tianjin_2     nd          nd          nd          nd          nd           nd        nd          nd          nd          nd         nd          nd            
2012-07-26T11:25:26Z    Tianjin_2     nd          nd          nd          nd          nd           nd        nd          nd          nd          nd         nd          nd            
2012-07-26T11:28:27Z    Tianjin_2     nd          nd          nd          nd          nd           nd        nd          nd          nd          nd         nd          nd            
2012-07-26T11:31:29Z    Tianjin_2     nd          nd          nd          nd          nd           nd        nd          nd          nd          nd         nd          nd            
2012-07-26T11:34:30Z    Tianjin_2     nd          nd          nd          nd          nd           nd        nd          nd          nd          nd         nd          nd            
2012-07-26T11:37:32Z    Tianjin_2     nd          nd          nd          nd          nd           nd        nd          nd          nd          nd         nd          nd            
2012-07-26T11:40:33Z    Tianjin_2     nd          nd          nd          nd          nd           nd        nd          nd          nd          nd         nd          nd            
2012-07-26T11:43:26Z    Tianjin_2     nd          nd          nd          nd          nd           nd        nd          nd          nd          nd         nd          nd            
2012-07-26T11:46:27Z    Tianjin_2     nd          nd          nd          nd          nd           nd        nd          nd          nd          nd         nd          nd            
2012-07-26T11:49:29Z    Tianjin_2     nd          nd          nd          nd          nd           nd        nd          nd          nd          nd         nd          nd            
2012-07-26T11:52:30Z    Tianjin_2     nd          nd          nd          nd          nd           nd        nd          nd          nd          nd         nd          nd            
2012-07-26T11:55:32Z    Tianjin_2     nd          nd          nd          nd          nd           nd        nd          nd          nd          nd         nd          nd            
2012-07-26T11:58:33Z    Tianjin_2     nd          nd          nd          nd          nd           nd        nd          nd          nd          nd         nd          nd            
2012-07-26T12:01:26Z    Tianjin_2     nd          nd          nd          nd          nd           nd        nd          nd          nd          nd         nd          nd            
2012-07-26T12:04:27Z    Tianjin_2     nd          nd          nd          nd          nd           nd        nd          nd          nd          nd         nd          nd            
2012-07-26T12:07:29Z    Tianjin_2     nd          nd          nd          nd          nd           nd        nd          nd          nd          nd         nd          nd            
2012-07-26T12:10:30Z    Tianjin_2     nd          nd          nd          nd          nd           nd        nd          nd          nd          nd         nd          nd            
2012-07-26T12:13:32Z    Tianjin_2     nd          nd          nd          nd          nd           nd        nd          nd          nd          nd         nd          nd            
2012-07-26T12:16:33Z    Tianjin_2     nd          nd          nd          nd          nd           nd        nd          nd          nd          nd         nd          nd            
2012-07-26T12:19:26Z    Tianjin_2     nd          nd          nd          nd          nd           nd        nd          nd          nd          nd         nd          nd            
2012-07-26T12:22:27Z    Tianjin_2     nd          nd          nd          nd          nd           nd        nd          nd          nd          nd         nd          nd            
2012-07-26T12:25:29Z    Tianjin_2     nd          nd          nd          nd          nd           nd        nd          nd          nd          nd         nd          nd            
2012-07-26T12:28:30Z    Tianjin_2     nd          nd          nd          nd          nd           nd        nd          nd          nd          nd         nd          nd            
2012-07-26T12:31:32Z    Tianjin_2     nd          nd          nd          nd          nd           nd        nd          nd          nd          nd         nd          nd            
2012-07-26T12:34:33Z    Tianjin_2     nd          nd          nd          nd          nd           nd        nd          nd          nd          nd         nd          nd            
2012-07-26T12:37:26Z    Tianjin_2     nd          nd          nd          nd          nd           nd        nd          nd          nd          nd         nd          nd            
2012-07-26T12:40:27Z    Tianjin_2     nd          nd          nd          nd          nd           nd        nd          nd          nd          nd         nd          nd            
2012-07-26T12:43:29Z    Tianjin_2     nd          nd          nd          nd          nd           nd        nd          nd          nd          nd         nd          nd            
2012-07-26T12:46:30Z    Tianjin_2     nd          nd          nd          nd          nd           nd        nd          nd          nd          nd         nd          nd            
2012-07-26T12:49:32Z    Tianjin_2     nd          nd          nd          nd          nd           nd        nd          nd          nd          nd         nd          nd            
2012-07-26T12:52:33Z    Tianjin_2     nd          nd          nd          nd          nd           nd        nd          nd          nd          nd         nd          nd            
2012-07-26T12:55:26Z    Tianjin_2     nd          nd          nd          nd          nd           nd        nd          nd          nd          nd         nd          nd            
2012-07-26T13:37:29Z    Tianjin_2     nd          nd          nd          nd          nd           nd        nd          nd          nd          nd         nd          nd            
2012-07-26T13:40:30Z    Tianjin_2     32.0284     133.8658    133.8658    34.1251     28.715       0.0251    20.1694     20.3483     -0.8792     7.5        1.4376      -2.5269       
2012-07-26T13:43:32Z    Tianjin_2     32.0349     133.8821    133.8821    34.1021     28.641       0.012     20.1716     20.3484     -0.869      7.5        1.4217      -2.4735       
2012-07-26T13:46:33Z    Tianjin_2     32.0408     133.8973    133.8973    34.0541     28.6107      0.0281    20.1733     20.3485     -0.8612     7.5        1.4214      -2.4525       
2012-07-26T13:49:26Z    Tianjin_2     32.0483     133.9161    133.9161    33.8648     28.7432      0.0194    20.1743     20.3485     -0.8561     7.5        1.4232      -2.4385       
2012-07-26T13:52:27Z    Tianjin_2     32.0557     133.9348    133.9348    33.7703     29.1301      0.0211    20.1782     20.348      -0.8341     7.5        1.428       -2.3701       
2012-07-26T13:55:29Z    Tianjin_2     32.0634     133.9548    133.9548    33.7667     28.9805      0.0177    20.1747     20.3482     -0.8527     7.5        1.4262      -2.4256       
2012-07-26T13:58:30Z    Tianjin_2     32.0707     133.9737    133.9737    33.7579     28.6444      0.0204    20.1675     20.3488     -0.8906     7.5        1.4222      -2.5404       
2012-07-26T14:01:32Z    Tianjin_2     32.0768     133.9898    133.9898    33.7782     28.4438      0.0178    20.1627     20.3491     -0.9162     7.5        1.4197      -2.617        
2012-07-26T14:04:33Z    Tianjin_2     32.0833     134.0071    134.0071    33.759      28.5579      0.014     20.1645     20.3489     -0.9065     7.5        1.4211      -2.5875       
2012-07-26T14:07:26Z    Tianjin_2     32.0903     134.0254    134.0254    33.7346     28.6885      0.0202    20.1718     20.3487     -0.8693     7.5        1.4227      -2.4792       
2012-07-26T14:10:27Z    Tianjin_2     32.0968     134.0435    134.0435    33.7728     28.7415      0.0143    20.1716     20.3486     -0.8698     7.5        1.4233      -2.4788       
2012-07-26T14:13:29Z    Tianjin_2     32.1033     134.0618    134.0618    33.8036     28.7986      0.0174    20.1707     20.3485     -0.8739     7.5        1.424       -2.489        
2012-07-26T14:16:30Z    Tianjin_2     32.1102     134.0813    134.0813    33.7645     28.7329      0.012     20.1671     20.3486     -0.8921     7.5        1.4232      -2.5428       
2012-07-26T14:19:32Z    Tianjin_2     32.1168     134.0998    134.0998    33.7512     28.7847      0.0135    20.1694     20.3486     -0.8803     7.5        1.4239      -2.5083       
2012-07-26T14:22:33Z    Tianjin_2     32.123      134.1175    134.1175    33.7405     28.681       0.0162    20.1717     20.3487     -0.8702     7.5        1.4226      -2.4816       
2012-07-26T14:25:26Z    Tianjin_2     32.1301     134.1373    134.1373    33.762      28.7881      0.0187    20.1712     20.3485     -0.8715     7.5        1.4065      -2.4525       
2012-07-26T14:28:27Z    Tianjin_2     32.1369     134.1564    134.1564    33.7698     28.8694      0.0185    20.1705     20.3484     -0.8743     7.5        1.4074      -2.4588       
2012-07-26T14:31:29Z    Tianjin_2     32.1432     134.1741    134.1741    33.7624     28.8457      0.0142    20.1641     20.3484     -0.9061     7.5        1.4071      -2.5488       
2012-07-26T14:34:30Z    Tianjin_2     32.1496     134.1924    134.1924    33.7781     29.1423      0.0166    20.1609     20.348      -0.9192     7.5        1.4106      -2.5793       
2012-07-26T14:37:32Z    Tianjin_2     32.1564     134.2117    134.2117    33.7903     29.1178      0.0181    20.1569     20.348      -0.9393     7.5        1.4103      -2.6359       
2012-07-26T14:40:33Z    Tianjin_2     32.1636     134.232     134.232     33.8149     29.3107      0.02      20.148      20.3476     -0.9811     7.5        1.4125      -2.7488       
2012-07-26T14:43:26Z    Tianjin_2     32.17       134.2499    134.2499    33.8878     29.5068      0.0189    20.1404     20.3473     -1.0169     7.5        1.4146      -2.8431       
2012-07-26T14:46:27Z    Tianjin_2     32.1767     134.2691    134.2691    33.7999     28.6242      0.0184    20.1354     20.3488     -1.0487     7.5        1.4045      -2.9544       
2012-07-26T14:49:29Z    Tianjin_2     32.1837     134.2892    134.2892    33.7704     28.253       0.0231    20.1349     20.3494     -1.054      7.5        1.4001      -2.9785       
2012-07-26T14:52:30Z    Tianjin_2     32.1896     134.3057    134.3057    33.7705     28.2961      0.0176    20.1481     20.3493     -0.9887     7.5        1.4007      -2.7932       
2012-07-26T14:55:32Z    Tianjin_2     32.1956     134.3229    134.3229    33.8248     28.5003      0.0165    20.1559     20.3489     -0.9486     7.5        1.403       -2.6747       
2012-07-26T14:58:33Z    Tianjin_2     32.202      134.3413    134.3413    33.8056     28.4436      0.0227    20.1587     20.3491     -0.9353     7.5        1.4024      -2.6386       
2012-07-26T15:01:26Z    Tianjin_2     32.2085     134.3599    134.3599    33.796      28.7202      0.0166    20.1574     20.3486     -0.9396     7.5        1.4056      -2.6451       
2012-07-26T15:04:27Z    Tianjin_2     32.2152     134.3786    134.3786    33.7683     28.8466      0.02      20.1563     20.3484     -0.944      7.5        1.4015      -2.6447       
2012-07-26T15:07:29Z    Tianjin_2     32.2221     134.3975    134.3975    33.7151     28.5858      0.0155    20.1496     20.3489     -0.9796     7.5        1.3985      -2.751        
2012-07-26T15:10:30Z    Tianjin_2     32.2291     134.4161    134.4161    33.6908     28.536       0.0167    20.144      20.349      -1.0073     7.5        1.3979      -2.8304       
2012-07-26T15:13:32Z    Tianjin_2     32.2362     134.4351    134.4351    33.6942     28.7075      0.026     20.1495     20.3487     -0.9792     7.5        1.3999      -2.7476       
2012-07-26T15:16:33Z    Tianjin_2     32.2435     134.4542    134.4542    33.6764     28.76        0.0159    20.1507     20.3487     -0.9728     7.5        1.4006      -2.7286       
2012-07-26T15:19:26Z    Tianjin_2     32.2503     134.472     134.472     33.6712     28.9159      0.0215    20.1489     20.3484     -0.9807     7.5        1.4024      -2.7475       
2012-07-26T15:22:27Z    Tianjin_2     32.258      134.4922    134.4922    33.6678     28.7227      0.0191    20.1469     20.3487     -0.9921     7.5        1.4001      -2.784        
2012-07-26T15:25:29Z    Tianjin_2     32.2656     134.5122    134.5122    33.6484     28.5724      0.0171    20.1493     20.349      -0.9816     7.5        1.3984      -2.7579       
2012-07-26T15:28:30Z    Tianjin_2     32.272      134.529     134.529     33.6498     28.5218      0.0178    20.1484     20.3491     -0.9864     7.5        1.3978      -2.7726       
2012-07-26T15:31:32Z    Tianjin_2     32.2788     134.5466    134.5466    33.6646     28.7138      0.0153    20.1509     20.3488     -0.9723     7.5        1.4         -2.7286       
2012-07-26T15:34:33Z    Tianjin_2     32.2856     134.5647    134.5647    33.6729     28.7581      0.0197    20.1544     20.3487     -0.9547     7.5        1.4006      -2.6781       
2012-07-26T15:37:26Z    Tianjin_2     32.2927     134.5833    134.5833    33.6847     28.6751      0.0163    20.152      20.3488     -0.9671     7.5        1.3996      -2.7144       
2012-07-26T15:40:27Z    Tianjin_2     32.2999     134.6024    134.6024    33.672      28.4284      0.018     20.1491     20.3492     -0.9833     7.5        1.3967      -2.7656       
2012-07-26T15:43:29Z    Tianjin_2     32.3068     134.6205    134.6205    33.6225     28.3092      0.02      20.1504     20.3495     -0.9785     7.5        1.3953      -2.7553       
2012-07-26T15:46:30Z    Tianjin_2     32.3137     134.6391    134.6391    33.6288     28.3142      0.0203    20.1551     20.3495     -0.955      7.5        1.398       -2.6943       
2012-07-26T15:49:32Z    Tianjin_2     32.3206     134.6578    134.6578    33.6424     28.335       0.0218    20.1618     20.3494     -0.9221     7.5        1.3982      -2.6008       
2012-07-26T15:52:33Z    Tianjin_2     32.3273     134.6761    134.6761    33.6312     28.6514      0.0193    20.1647     20.3489     -0.9053     7.5        1.402       -2.5472       
2012-07-26T15:55:26Z    Tianjin_2     32.3345     134.6956    134.6956    33.606      28.6546      0.019     20.1643     20.3489     -0.9074     7.5        1.4021      -2.5535       
2012-07-26T16:37:29Z    Tianjin_2     32.4291     134.9593    134.9593    33.7548     28.3607      0.0207    20.2197     20.3492     -0.6368     7.5        1.4682      -1.8839       
2012-07-26T16:40:30Z    Tianjin_2     32.4359     134.9785    134.9785    33.761      28.677       0.0176    20.2112     20.3487     -0.6757     7.5        1.4722      -1.9941       
2012-07-26T16:43:32Z    Tianjin_2     32.4424     134.9971    134.9971    33.8549     28.6888      0.0191    20.2006     20.3486     -0.7275     7.5        1.4722      -2.1453       
2012-07-26T16:46:33Z    Tianjin_2     32.4496     135.0175    135.0175    34.0093     28.6877      0.0177    20.1846     20.3484     -0.8052     7.5        1.472       -2.3721       
2012-07-26T16:49:26Z    Tianjin_2     32.4563     135.0366    135.0366    34.0498     28.7807      0.0189    20.1722     20.3483     -0.865      7.5        1.4731      -2.5459       
2012-07-26T16:52:27Z    Tianjin_2     32.4624     135.0542    135.0542    34.0693     28.8068      0.0184    20.1682     20.3482     -0.8848     7.5        1.4734      -2.6034       
2012-07-26T16:55:29Z    Tianjin_2     32.4692     135.0738    135.0738    34.0758     28.7195      0.0204    20.1625     20.3483     -0.9132     7.5        1.4723      -2.6887       
2012-07-26T16:58:30Z    Tianjin_2     32.4769     135.0954    135.0954    34.0733     28.6758      0.0166    20.1577     20.3484     -0.9372     7.5        1.4718      -2.7604       
2012-07-26T17:01:32Z    Tianjin_2     32.4838     135.1144    135.1144    34.0755     28.5809      0.0179    20.1567     20.3486     -0.9427     7.5        1.4706      -2.7786       
2012-07-26T17:04:33Z    Tianjin_2     32.4901     135.1316    135.1316    34.0767     28.7349      0.0234    20.1537     20.3483     -0.9565     7.5        1.5003      -2.8689       
2012-07-26T17:07:26Z    Tianjin_2     32.4971     135.1508    135.1508    34.0716     28.7534      0.0171    20.1527     20.3483     -0.961      7.5        1.5006      -2.8822       
2012-07-26T17:10:27Z    Tianjin_2     32.5045     135.171     135.171     34.0086     28.6767      0.0191    20.151      20.3485     -0.9705     7.5        1.4996      -2.9133       
2012-07-26T17:13:29Z    Tianjin_2     32.5117     135.1909    135.1909    33.9651     28.6666      0.0211    20.1451     20.3485     -0.9996     7.5        1.4996      -3.0017       
2012-07-26T17:16:30Z    Tianjin_2     32.5182     135.2085    135.2085    34.0295     28.485       0.0104    20.1389     20.3488     -1.0313     7.5        1.4971      -3.1          
2012-07-26T17:19:32Z    Tianjin_2     32.5248     135.2267    135.2267    34.058      28.5014      0.0119    20.1412     20.3487     -1.0199     7.5        1.4973      -3.0648       
2012-07-26T17:22:33Z    Tianjin_2     32.5322     135.247     135.247     34.0587     28.5719      0.0178    20.1463     20.3486     -0.9939     7.5        1.4982      -2.9851       
2012-07-26T17:25:26Z    Tianjin_2     32.5395     135.267     135.267     34.0581     28.5795      0.018     20.1462     20.3486     -0.9946     7.5        1.4983      -2.9872       
2012-07-26T17:28:27Z    Tianjin_2     32.546      135.2851    135.2851    34.0506     28.6055      0.0155    20.1484     20.3485     -0.9837     7.5        1.4987      -2.9539       
2012-07-26T17:31:29Z    Tianjin_2     32.553      135.3046    135.3046    33.8926     28.2966      0.0204    20.148      20.3492     -0.9885     7.5        1.4948      -2.9784       
2012-07-26T17:34:30Z    Tianjin_2     32.5602     135.3249    135.3249    33.7576     28.2596      0.0177    20.1446     20.3494     -1.0067     7.5        1.4945      -3.0365       
2012-07-26T17:37:32Z    Tianjin_2     32.5672     135.3436    135.3436    33.7638     28.3123      0.0217    20.147      20.3493     -0.9941     7.5        1.4952      -2.9973       
2012-07-26T17:40:33Z    Tianjin_2     32.574      135.3618    135.3618    33.8267     28.4589      0.0216    20.1509     20.349      -0.9734     7.5        1.497       -2.9305       
2012-07-26T17:43:26Z    Tianjin_2     32.5811     135.3808    135.3808    33.8127     28.3863      0.0176    20.1473     20.3491     -0.9919     7.5        1.5236      -3.0431       
2012-07-26T17:46:27Z    Tianjin_2     32.5884     135.4001    135.4001    33.8361     28.444       0.0167    20.1433     20.349      -1.0112     7.5        1.5244      -3.1005       
2012-07-26T17:49:29Z    Tianjin_2     32.5954     135.4188    135.4188    33.88       28.3403      0.0159    20.1385     20.3492     -1.0353     7.5        1.5229      -3.176        
2012-07-26T17:52:30Z    Tianjin_2     32.6028     135.4382    135.4382    33.8598     28.4422      0.0169    20.1378     20.349      -1.0379     7.5        1.5243      -3.182        
2012-07-26T17:55:32Z    Tianjin_2     32.6101     135.4577    135.4577    33.7269     28.4334      0.0187    20.1375     20.3492     -1.0404     7.5        1.5244      -3.1923       
2012-07-26T17:58:33Z    Tianjin_2     32.6173     135.4772    135.4772    33.6523     28.4644      0.0253    20.1349     20.3492     -1.0532     7.5        1.5249      -3.2325       
2012-07-26T18:01:26Z    Tianjin_2     32.6243     135.496     135.496     33.6427     28.4613      0.0186    20.1327     20.3492     -1.0638     7.5        1.5249      -3.2653       
2012-07-26T18:04:27Z    Tianjin_2     32.6313     135.515     135.515     33.679      28.2817      0.0151    20.1299     20.3495     -1.0791     7.5        1.6398      -3.5714       
2012-07-26T18:07:29Z    Tianjin_2     32.6386     135.5348    135.5348    33.6988     28.3301      0.0155    20.1311     20.3494     -1.0723     7.5        1.6404      -3.5475       
2012-07-26T18:10:30Z    Tianjin_2     32.6454     135.5529    135.5529    33.7543     28.3825      0.0204    20.1345     20.3492     -1.0553     7.5        1.6411      -3.4886       
2012-07-26T18:13:32Z    Tianjin_2     32.6532     135.574     135.574     33.8074     28.4872      0.0201    20.1355     20.349      -1.0493     7.5        1.6426      -3.4648       
2012-07-26T18:16:33Z    Tianjin_2     32.6605     135.5934    135.5934    33.8725     28.4776      0.0187    20.1346     20.3489     -1.0535     7.5        1.6424      -3.4773       
2012-07-26T18:19:26Z    Tianjin_2     32.6667     135.6101    135.6101    33.8611     28.5769      0.0141    20.1328     20.3488     -1.0612     7.5        1.6438      -3.5006       
2012-07-26T18:22:27Z    Tianjin_2     32.6739     135.6294    135.6294    33.8712     28.6568      0.0182    20.1337     20.3486     -1.0565     7.5        1.685       -3.5673       
2012-07-26T18:25:29Z    Tianjin_2     32.6811     135.6488    135.6488    33.8572     28.7279      0.0169    20.1308     20.3485     -1.0698     7.5        1.6861      -3.6109       
2012-07-26T18:28:30Z    Tianjin_2     32.6879     135.6675    135.6675    33.865      28.6558      0.0168    20.1283     20.3486     -1.0828     7.5        1.685       -3.6563       
2012-07-26T18:31:32Z    Tianjin_2     32.6948     135.6864    135.6864    33.8809     28.5983      0.0187    20.1267     20.3487     -1.0909     7.5        1.6841      -3.6848       
2012-07-26T18:34:33Z    Tianjin_2     32.7016     135.7051    135.7051    33.8807     28.5508      0.0167    20.1242     20.3488     -1.1035     7.5        1.6833      -3.7289       
2012-07-26T18:37:26Z    Tianjin_2     32.7085     135.7238    135.7238    33.883      28.4562      0.0196    20.1256     20.349      -1.0976     7.5        1.6819      -3.7115       
2012-07-26T18:40:27Z    Tianjin_2     32.7155     135.743     135.743     33.8818     28.4503      0.0146    20.1268     20.349      -1.0916     7.5        1.6818      -3.6913       
2012-07-26T18:43:29Z    Tianjin_2     32.7228     135.7627    135.7627    33.8723     28.4376      0.0125    20.1274     20.349      -1.089      7.5        1.6816      -3.6831       
2012-07-26T18:46:30Z    Tianjin_2     32.7299     135.7818    135.7818    33.88       28.5066      0.0187    20.127      20.3489     -1.0901     7.5        1.6827      -3.6849       
2012-07-26T18:49:32Z    Tianjin_2     32.7375     135.8024    135.8024    33.9218     28.4703      0.0209    20.1265     20.3489     -1.0928     7.5        1.6821      -3.6938       
2012-07-26T18:52:33Z    Tianjin_2     32.7449     135.8217    135.8217    33.9853     28.4566      0.0121    20.1225     20.3488     -1.1123     7.5        1.6818      -3.7584       
2012-07-26T18:55:26Z    Tianjin_2     32.7513     135.8389    135.8389    34.0342     28.5523      0.0168    20.1173     20.3486     -1.1369     7.5        1.6831      -3.8377       
2012-07-26T19:37:29Z    Tianjin_2     32.8441     136.1167    136.1167    33.4827     28.2586      0.0203    20.1381     20.3497     -1.0397     7.5        1.7206      -3.6163       
2012-07-26T19:40:30Z    Tianjin_2     32.8515     136.1353    136.1353    33.4643     28.1743      0.0217    20.1397     20.3499     -1.0328     7.5        1.7623      -3.6847       
2012-07-26T19:43:32Z    Tianjin_2     32.8586     136.1537    136.1537    33.4939     28.3693      0.0225    20.1432     20.3495     -1.0139     7.5        1.7656      -3.612        
2012-07-26T19:46:33Z    Tianjin_2     32.8663     136.173     136.173     33.5555     28.4039      0.0156    20.1412     20.3494     -1.0231     7.5        1.7661      -3.6425       
2012-07-26T19:49:26Z    Tianjin_2     32.874      136.1927    136.1927    33.6057     28.569       0.0166    20.1388     20.3491     -1.0331     7.5        1.7689      -3.6729       
2012-07-26T19:52:27Z    Tianjin_2     32.8819     136.2129    136.2129    33.5983     28.6904      0.0128    20.1358     20.3489     -1.0472     7.5        1.9555      -4.1078       
2012-07-26T19:55:29Z    Tianjin_2     32.8901     136.2336    136.2336    33.5406     28.8483      0.0198    20.1311     20.3487     -1.069      7.5        1.9587      -4.1909       
2012-07-26T19:58:30Z    Tianjin_2     32.8975     136.2526    136.2526    33.5504     28.8596      0.0189    20.1281     20.3486     -1.0838     7.5        1.9589      -4.2481       
2012-07-26T23:40:33Z    Tianjin_2     33.4464     137.7379    137.7379    33.0319     27.2831      0.0281    20.2593     20.3519     -0.455      2.5        1.8734      -1.7555       
2012-07-26T23:43:26Z    Tianjin_2     33.4522     137.7551    137.7551    33.0466     27.2721      0.0237    20.2581     20.3519     -0.4611     2.5        1.8727      -1.7785       
2012-07-26T23:46:27Z    Tianjin_2     33.4583     137.7734    137.7734    33.0647     27.3025      0.0288    20.2551     20.3518     -0.4755     2.5        1.8744      -1.8344       
2012-07-26T23:49:29Z    Tianjin_2     33.4643     137.7919    137.7919    33.0845     27.2934      0.0311    20.2544     20.3518     -0.4788     2.5        1.8738      -1.8468       
2012-07-26T23:52:30Z    Tianjin_2     33.4705     137.8112    137.8112    33.0978     27.3531      0.0258    20.245      20.3517     -0.5245     2.5        1.8772      -2.0245       
2012-07-26T23:55:32Z    Tianjin_2     33.4766     137.83      137.83      33.1004     27.3751      0.0279    20.2427     20.3517     -0.5354     2.5        1.8785      -2.0672       
2012-07-26T23:58:33Z    Tianjin_2     33.4827     137.8487    137.8487    33.0802     27.2376      0.0311    20.2392     20.3519     -0.5541     2.5        1.8705      -2.1353       
2012-07-27T00:01:26Z    Tianjin_2     33.489      137.8674    137.8674    33.0515     27.07        0.0375    20.2301     20.3523     -0.6        2.5        1.78        -2.2068       
2012-07-27T00:04:27Z    Tianjin_2     33.495      137.8852    137.8852    33.0376     26.9913      0.0287    20.2321     20.3524     -0.5912     2.5        1.7986      -2.2002       
2012-07-27T00:07:29Z    Tianjin_2     33.5019     137.9052    137.9052    33.011      26.7053      0.0411    20.2392     20.353      -0.5592     2.5        1.7872      -2.0783       
2012-07-27T00:10:30Z    Tianjin_2     33.509      137.9255    137.9255    33.0392     26.2652      0.0404    20.2378     20.3538     -0.5697     2.5        1.7693      -2.1114       
2012-07-27T00:13:32Z    Tianjin_2     33.5153     137.9428    137.9428    33.054      26.1024      0.0497    20.2546     20.3541     -0.4887     2.5        1.7626      -1.8089       
2012-07-27T00:16:33Z    Tianjin_2     33.5215     137.9599    137.9599    33.0447     26.2533      0.0423    20.2885     20.3538     -0.3209     2.5        1.7688      -1.1891       
2012-07-27T00:19:26Z    Tianjin_2     33.5284     137.9783    137.9783    33.0123     26.3589      0.0359    20.3258     20.3536     -0.1367     2.5        1.7732      -0.507        
2012-07-27T00:22:27Z    Tianjin_2     33.5356     137.9966    137.9966    32.9735     26.3742      0.0318    20.3342     20.3536     -0.0957     2.5        1.774       -0.3549       
2012-07-27T00:25:29Z    Tianjin_2     33.5428     138.0146    138.0146    32.9724     26.473       0.0349    20.3267     20.3534     -0.1314     7.5        2.142       -0.5878       
2012-07-27T00:28:30Z    Tianjin_2     33.5502     138.0329    138.0329    32.9553     26.661       0.0341    20.3163     20.3531     -0.1809     7.5        2.1471      -0.8084       
2012-07-27T00:31:32Z    Tianjin_2     33.5574     138.0509    138.0509    32.9141     26.7353      0.0403    20.2899     20.353      -0.3101     7.5        2.1492      -1.3859       
2012-07-27T00:34:33Z    Tianjin_2     33.5652     138.07      138.07      32.9625     26.3957      0.0351    20.2351     20.3536     -0.5821     7.5        2.14        -2.6045       
2012-07-27T00:37:26Z    Tianjin_2     33.5724     138.0885    138.0885    32.9011     26.7438      0.032     20.2325     20.353      -0.5921     7.5        2.1495      -2.6467       
2012-07-27T00:40:27Z    Tianjin_2     33.5789     138.106     138.106     32.894      26.8306      0.0344    20.2384     20.3529     -0.5626     7.5        2.1519      -2.5141       
2012-07-27T00:43:29Z    Tianjin_2     33.5865     138.1264    138.1264    32.9115     26.7983      0.0317    20.2362     20.3529     -0.5732     7.5        2.1833      -2.5999       
2012-07-27T00:46:30Z    Tianjin_2     33.5934     138.1453    138.1453    32.9246     26.8579      0.0244    20.2391     20.3528     -0.5587     7.5        2.1849      -2.5334       
2012-07-27T00:49:32Z    Tianjin_2     33.5993     138.1622    138.1622    32.9318     26.8833      0.0212    20.2323     20.3527     -0.5916     7.5        2.1856      -2.6819       
2012-07-27T00:52:33Z    Tianjin_2     33.6061     138.181     138.181     32.9521     26.8517      0.0307    20.2294     20.3528     -0.6061     7.5        2.1847      -2.7476       
2012-07-27T00:55:26Z    Tianjin_2     33.6128     138.1998    138.1998    32.9864     26.8298      0.0338    20.229      20.3528     -0.6083     7.5        2.184       -2.7574       
2012-07-27T00:58:27Z    Tianjin_2     33.6195     138.218     138.218     32.991      26.9209      0.0316    20.2341     20.3526     -0.5821     7.5        2.1865      -2.6377       
2012-07-27T01:01:29Z    Tianjin_2     33.6264     138.2369    138.2369    33.017      26.9103      0.0296    20.2353     20.3526     -0.576      7.5        2.3085      -2.7557       
2012-07-27T01:04:30Z    Tianjin_2     33.6333     138.2551    138.2551    33.0275     26.8069      0.0317    20.2327     20.3528     -0.59       7.5        2.3053      -2.8235       
2012-07-27T01:07:32Z    Tianjin_2     33.64       138.2735    138.2735    33.0255     26.7588      0.0299    20.2277     20.3529     -0.6151     7.5        2.3039      -2.9438       
2012-07-27T01:10:33Z    Tianjin_2     33.648      138.2949    138.2949    33.0257     26.6022      0.0335    20.2287     20.3531     -0.6114     7.5        2.2991      -2.9279       
2012-07-27T01:13:26Z    Tianjin_2     33.6551     138.3141    138.3141    33.0289     26.4771      0.0248    20.2301     20.3534     -0.6057     7.5        2.2953      -2.902        
2012-07-27T01:16:27Z    Tianjin_2     33.6615     138.331     138.331     33.0152     26.7175      0.0327    20.238      20.3529     -0.565      7.5        2.3026      -2.7046       
2012-07-27T01:19:29Z    Tianjin_2     33.6682     138.3487    138.3487    32.9855     26.8937      0.0298    20.2394     20.3527     -0.5566     7.5        2.3081      -2.6636       
2012-07-27T01:22:30Z    Tianjin_2     33.6744     138.3656    138.3656    32.9384     27.1094      0.031     20.2418     20.3523     -0.5429     7.5        2.3147      -2.5969       
2012-07-27T01:25:32Z    Tianjin_2     33.6814     138.3843    138.3843    32.9322     27.1273      0.0282    20.2427     20.3523     -0.5383     7.5        2.3413      -2.6034       
2012-07-27T01:28:33Z    Tianjin_2     33.6884     138.4027    138.4027    32.9452     26.9033      0.0284    20.2387     20.3527     -0.5601     7.5        2.3345      -2.7112       
2012-07-27T01:31:26Z    Tianjin_2     33.6957     138.421     138.421     32.9465     26.9508      0.0366    20.2473     20.3526     -0.5173     7.5        2.3359      -2.5033       
2012-07-27T01:34:27Z    Tianjin_2     33.7033     138.4394    138.4394    32.9308     26.981       0.0361    20.2636     20.3526     -0.4373     7.5        2.3369      -2.1162       
2012-07-27T01:37:29Z    Tianjin_2     33.711      138.4581    138.4581    32.9304     26.9635      0.0292    20.2705     20.3526     -0.4033     7.5        2.3364      -1.9519       
2012-07-27T01:40:30Z    Tianjin_2     33.7184     138.4773    138.4773    32.9309     27.085       0.0323    20.279      20.3524     -0.3604     7.5        2.34        -1.7435       
2012-07-27T01:43:32Z    Tianjin_2     33.7249     138.4954    138.4954    32.9764     26.701       0.0268    20.2774     20.353      -0.3714     7.5        2.3283      -1.7988       
2012-07-27T01:46:33Z    Tianjin_2     33.7316     138.5143    138.5143    32.9879     26.9549      0.0297    20.2711     20.3525     -0.4        7.5        2.336       -1.9354       
2012-07-27T01:49:26Z    Tianjin_2     33.7381     138.534     138.534     32.9459     27.1451      0.0278    20.279      20.3522     -0.3598     7.5        2.3418      -1.7398       
2012-07-27T01:52:27Z    Tianjin_2     33.7443     138.5524    138.5524    32.9573     27.1053      0.0247    20.269      20.3523     -0.4092     7.5        2.3406      -1.9792       
2012-07-27T01:55:29Z    Tianjin_2     33.7508     138.571     138.571     32.9253     27.0943      0.0301    20.258      20.3524     -0.4637     7.5        2.3403      -2.2431       
2012-07-27T01:58:30Z    Tianjin_2     33.7576     138.5903    138.5903    32.9163     26.9924      0.0257    20.2395     20.3525     -0.5557     7.5        2.3373      -2.6893       
2012-07-27T02:40:33Z    Tianjin_2     33.8549     138.8737    138.8737    33.0557     28.7688      0.0218    20.2334     20.3493     -0.5693     7.5        2.409       -2.7557       
2012-07-27T02:43:26Z    Tianjin_2     33.8629     138.8977    138.8977    33.0539     28.7476      0.0233    20.237      20.3493     -0.5522     7.5        2.4296      -2.6968       
2012-07-27T02:46:27Z    Tianjin_2     33.8696     138.9182    138.9182    32.9651     28.7417      0.0305    20.2373     20.3494     -0.5511     7.5        2.4297      -2.693        
2012-07-27T02:49:29Z    Tianjin_2     33.8767     138.9385    138.9385    33.0334     28.7219      0.02      20.2404     20.3494     -0.5358     7.5        2.4814      -2.674        
2012-07-27T02:52:30Z    Tianjin_2     33.8841     138.9601    138.9601    32.9904     28.6578      0.0217    20.244      20.3495     -0.5186     7.5        2.4795      -2.5894       
2012-07-27T02:55:32Z    Tianjin_2     33.8912     138.9796    138.9796    33.044      28.4852      0.0194    20.2363     20.3498     -0.5578     7.5        2.474       -2.7859       
2012-07-27T02:58:33Z    Tianjin_2     33.9005     138.9985    138.9985    33.0768     28.3548      0.0221    20.2336     20.35       -0.572      7.5        2.4699      -2.8578       
2012-07-27T03:01:26Z    Tianjin_2     33.9124     139.0152    139.0152    33.1183     28.389       0.0191    20.2369     20.3499     -0.5553     7.5        2.4708      -2.7733       
2012-07-27T03:04:27Z    Tianjin_2     33.9247     139.0323    139.0323    33.0779     28.4224      0.0257    20.2462     20.3499     -0.5092     7.5        2.472       -2.5434       
2012-07-27T03:07:29Z    Tianjin_2     33.9371     139.0493    139.0493    32.9943     28.6114      0.0281    20.254      20.3496     -0.4701     7.5        2.4781      -2.3476       
2012-07-27T03:10:30Z    Tianjin_2     33.9493     139.0664    139.0664    33.0458     28.6737      0.018     20.2561     20.3495     -0.4589     7.5        2.4799      -2.2902       
2012-07-27T03:13:32Z    Tianjin_2     33.9612     139.0836    139.0836    33.0373     28.6921      0.0221    20.2515     20.3494     -0.4812     7.5        2.4805      -2.4016       
2012-07-27T03:16:33Z    Tianjin_2     33.9731     139.1011    139.1011    33.0846     28.7783      0.0155    20.2454     20.3492     -0.5101     7.5        2.483       -2.5441       
2012-07-27T03:19:26Z    Tianjin_2     33.985      139.1187    139.1187    33.1065     28.7507      0.0266    20.2325     20.3493     -0.5737     7.5        2.4821      -2.8616       
2012-07-27T03:22:27Z    Tianjin_2     33.9966     139.1358    139.1358    33.1332     28.6759      0.019     20.2242     20.3494     -0.6152     7.5        2.4966      -3.0899       
2012-07-27T03:25:29Z    Tianjin_2     34.0082     139.1532    139.1532    33.2396     28.8461      0.0221    20.219      20.349      -0.6387     7.5        2.5016      -3.2033       
2012-07-27T03:28:30Z    Tianjin_2     34.0196     139.1707    139.1707    33.2729     28.9207      0.0247    20.2185     20.3488     -0.6404     7.5        2.5039      -3.2104       
2012-07-27T03:31:32Z    Tianjin_2     34.0326     139.1905    139.1905    33.2876     28.9688      0.0171    20.2239     20.3487     -0.6133     7.5        2.5053      -3.0737       
2012-07-27T03:34:33Z    Tianjin_2     34.0437     139.2078    139.2078    33.3095     28.9461      0.014     20.2303     20.3487     -0.582      7.5        2.5045      -2.9163       
2012-07-27T03:37:26Z    Tianjin_2     34.053      139.2224    139.2224    33.346      28.9295      0.0224    20.2368     20.3487     -0.5501     7.5        2.5039      -2.7561       
2012-07-27T03:40:27Z    Tianjin_2     34.0647     139.2411    139.2411    33.3661     28.9255      0.0176    20.2406     20.3487     -0.5313     7.5        2.5037      -2.6615       
2012-07-27T03:43:29Z    Tianjin_2     34.0761     139.2589    139.2589    33.3119     28.8645      0.0157    20.2342     20.3489     -0.5636     7.5        2.502       -2.8251       
2012-07-27T03:46:30Z    Tianjin_2     34.0868     139.2757    139.2757    33.6105     28.6368      0.02      20.2252     20.3489     -0.6082     7.5        2.4941      -3.0455       
2012-07-27T03:49:32Z    Tianjin_2     34.098      139.2928    139.2928    33.3506     28.6274      0.0227    20.2165     20.3492     -0.6523     7.5        2.4945      -3.272        
2012-07-27T03:52:33Z    Tianjin_2     34.1091     139.3085    139.3085    33.4273     28.6336      0.0257    20.2164     20.3491     -0.6521     7.5        2.4945      -3.269        
2012-07-27T03:55:26Z    Tianjin_2     34.1206     139.3244    139.3244    33.3635     28.6187      0.0257    20.2307     20.3492     -0.5823     7.5        2.4942      -2.9203       
2012-07-27T03:58:27Z    Tianjin_2     34.1322     139.341     139.341     33.286      28.7671      0.0192    20.2446     20.3491     -0.5131     7.5        2.5017      -2.5763       
2012-07-27T04:01:29Z    Tianjin_2     34.1446     139.3585    139.3585    33.3544     28.7205      0.0186    20.25       20.3491     -0.4868     7.5        2.5001      -2.4433       
2012-07-27T04:04:30Z    Tianjin_2     34.1563     139.3757    139.3757    33.4432     28.6611      0.0225    20.2371     20.3491     -0.5504     7.5        2.51        -2.7749       
2012-07-27T04:07:32Z    Tianjin_2     34.1681     139.3931    139.3931    33.5388     28.5829      0.021     20.2247     20.3491     -0.6115     7.5        2.5072      -3.0818       
2012-07-27T04:10:33Z    Tianjin_2     34.1807     139.4121    139.4121    33.588      28.5167      0.024     20.2153     20.3492     -0.6576     7.5        2.5049      -3.3139       
2012-07-27T04:13:26Z    Tianjin_2     34.1922     139.4295    139.4295    33.5051     28.5693      0.0264    20.2091     20.3492     -0.6881     7.5        2.5068      -3.4687       
2012-07-27T04:16:27Z    Tianjin_2     34.2032     139.4467    139.4467    33.4808     28.5377      0.0236    20.2118     20.3492     -0.6755     7.5        2.5059      -3.4061       
2012-07-27T04:19:29Z    Tianjin_2     34.2157     139.466     139.466     33.4439     28.583       0.0196    20.2111     20.3492     -0.6785     7.5        2.5075      -3.4218       
2012-07-27T04:22:30Z    Tianjin_2     34.229      139.4865    139.4865    33.4738     28.711       0.0238    20.206      20.349      -0.7027     7.5        2.5115      -3.5415       
2012-07-27T04:25:32Z    Tianjin_2     34.2404     139.5047    139.5047    33.4784     28.6949      0.025     20.1982     20.349      -0.7408     7.5        2.511       -3.7335       
2012-07-27T04:28:33Z    Tianjin_2     34.2518     139.5222    139.5222    33.5196     28.5996      0.0157    20.1949     20.3491     -0.7575     7.5        2.5078      -3.818        
2012-07-27T04:31:26Z    Tianjin_2     34.2644     139.5421    139.5421    33.4958     28.7113      0.0259    20.1965     20.3489     -0.7489     7.5        2.5115      -3.7736       
2012-07-27T04:34:27Z    Tianjin_2     34.2763     139.5603    139.5603    33.6657     28.6634      0.0199    20.1976     20.3488     -0.7434     7.5        2.5094      -3.7424       
2012-07-27T04:37:29Z    Tianjin_2     34.2877     139.5775    139.5775    33.5924     28.677       0.0185    20.1992     20.3489     -0.7357     7.5        2.5101      -3.7053       
2012-07-27T04:40:30Z    Tianjin_2     34.2996     139.5955    139.5955    33.4761     28.7612      0.0171    20.2009     20.3489     -0.7274     7.5        2.5131      -3.6654       
2012-07-27T04:43:32Z    Tianjin_2     34.3115     139.6139    139.6139    33.1724     29.0572      0.0273    20.2038     20.3487     -0.7121     7.5        2.5236      -3.592        
2012-07-27T04:46:33Z    Tianjin_2     34.3232     139.6321    139.6321    33.0148     28.9443      0.0208    20.1995     20.349      -0.7346     7.5        2.5176      -3.7066       
2012-07-27T04:49:26Z    Tianjin_2     34.3348     139.6491    139.6491    32.9144     29.0482      0.0173    20.1927     20.349      -0.7681     7.5        2.5214      -3.8769       
2012-07-27T04:52:27Z    Tianjin_2     34.3459     139.6656    139.6656    32.9562     28.9516      0.025     20.1855     20.3491     -0.8037     7.5        2.518       -4.0569       
2012-07-27T04:55:29Z    Tianjin_2     34.3576     139.6828    139.6828    33.1098     28.5839      0.0323    20.1854     20.3495     -0.8067     7.5        2.5051      -4.0717       
2012-07-27T04:58:30Z    Tianjin_2     34.3694     139.6998    139.6998    33.3181     27.9988      0.0469    20.1865     20.3503     -0.8051     7.5        2.4847      -4.0647       
2012-07-27T05:40:33Z    Tianjin_2     34.5163     139.923     139.923     33.4301     27.9783      0.0256    20.1679     20.3502     -0.896      7.5        2.558       -4.6559       
2012-07-27T05:43:26Z    Tianjin_2     34.5265     139.9389    139.9389    33.4639     26.3651      0.0926    20.1721     20.3531     -0.8894     7.5        2.5024      -4.6429       
2012-07-27T05:46:27Z    Tianjin_2     34.537      139.9551    139.9551    33.4375     25.4529      0.2285    20.1634     20.3549     -0.9408     7.5        2.4705      -4.9244       
2012-07-27T05:49:29Z    Tianjin_2     34.5473     139.9705    139.9705    33.4137     25.3256      0.2501    20.1769     20.3551     -0.8755     7.5        2.466       -4.5849       
2012-07-27T05:52:30Z    Tianjin_2     34.5576     139.9861    139.9861    33.4405     24.9756      0.2744    20.299      20.3558     -0.2791     7.5        2.4536      -1.4627       
2012-07-27T05:55:32Z    Tianjin_2     34.5685     140.0021    140.0021    33.4885     24.1182      0.3352    20.4141     20.3575     0.278       7.5        2.4229      1.4594        
2012-07-27T05:58:33Z    Tianjin_2     34.5803     140.0181    140.0181    33.5359     23.6694      0.4068    20.4688     20.3584     0.542       7.5        2.4066      2.8481        
2012-07-27T06:01:26Z    Tianjin_2     34.5915     140.0328    140.0328    33.5096     23.4079      0.3909    20.4089     20.359      0.2447      7.5        2.3973      1.2867        
2012-07-27T06:04:27Z    Tianjin_2     34.6026     140.0469    140.0469    33.4873     23.7656      0.3185    20.374      20.3583     0.0773      7.5        2.4102      0.4061        
2012-07-27T06:07:29Z    Tianjin_2     34.6137     140.062     140.062     33.4682     23.6221      0.3428    20.361      20.3586     0.0115      7.5        2.4051      0.0606        
2012-07-27T06:10:30Z    Tianjin_2     34.6258     140.0772    140.0772    33.4104     23.976       0.3306    20.3475     20.3579     -0.0511     7.5        2.5531      -0.2838       
2012-07-27T06:13:32Z    Tianjin_2     34.6378     140.0919    140.0919    33.2406     24.3303      0.0955    20.3676     20.3574     0.0501      7.5        2.5675      0.278         
2012-07-27T06:16:33Z    Tianjin_2     34.6482     140.1045    140.1045    33.2206     24.6144      0.0717    20.4539     20.3568     0.4771      7.5        2.5787      2.6472        
2012-07-27T06:19:26Z    Tianjin_2     34.6591     140.118     140.118     33.0931     24.9137      0.0641    20.5007     20.3564     0.7091      7.5        2.5908      3.936         
2012-07-27T06:22:27Z    Tianjin_2     34.67       140.1322    140.1322    33.0175     24.9804      0.0697    20.5136     20.3563     0.7728      7.5        2.6019      4.3049        
2012-07-27T06:25:29Z    Tianjin_2     34.6811     140.1469    140.1469    33.0069     25.2319      0.0693    20.5286     20.3558     0.8489      7.5        2.6118      4.727         
2012-07-27T06:28:30Z    Tianjin_2     34.692      140.1617    140.1617    33.0761     25.6206      0.0754    20.562      20.355      1.017       7.5        2.6269      5.6559        
2012-07-27T06:31:32Z    Tianjin_2     34.7038     140.1777    140.1777    33.1665     26.0741      0.0693    20.5935     20.354      1.1766      7.5        2.6444      6.5335        
2012-07-27T06:34:33Z    Tianjin_2     34.7155     140.1932    140.1932    33.2635     26.0568      0.0665    20.5895     20.3539     1.1577      7.5        2.6435      6.4241        
2012-07-27T06:37:26Z    Tianjin_2     34.7256     140.2066    140.2066    33.3288     26.229       0.06      20.5529     20.3535     0.9799      7.5        2.65        5.4335        
2012-07-27T06:40:27Z    Tianjin_2     34.7366     140.2207    140.2207    33.3692     25.8273      0.0672    20.5168     20.3542     0.7989      7.5        2.6342      4.4323        
2012-07-27T06:43:29Z    Tianjin_2     34.7487     140.2362    140.2362    33.354      25.9809      0.0604    20.5017     20.3539     0.7258      7.5        2.6402      4.0259        
2012-07-27T06:46:30Z    Tianjin_2     34.7606     140.2511    140.2511    33.3351     26.0563      0.0604    20.5396     20.3538     0.9128      7.5        2.6432      5.0628        
2012-07-27T06:49:32Z    Tianjin_2     34.7723     140.2662    140.2662    33.3452     26.1369      0.055     20.5631     20.3536     1.0292      7.5        2.6463      5.707         
2012-07-27T06:52:33Z    Tianjin_2     34.7835     140.2819    140.2819    33.3719     25.5815      0.0652    20.5582     20.3547     1           7.5        2.6245      5.5502        
2012-07-27T06:55:26Z    Tianjin_2     34.7939     140.2975    140.2975    33.3631     25.766       0.0599    20.5536     20.3543     0.979       7.5        2.6318      5.4325        
2012-07-27T06:58:27Z    Tianjin_2     34.8046     140.3137    140.3137    33.3837     25.4607      0.0638    20.5679     20.3549     1.0465      7.5        2.6197      5.8097        
2012-07-27T07:01:29Z    Tianjin_2     34.815      140.33      140.33      33.4088     25.1622      0.0675    20.5784     20.3555     1.0953      7.5        2.6079      6.0827        
2012-07-27T07:04:30Z    Tianjin_2     34.8257     140.3465    140.3465    33.4014     25.7604      0.0649    20.6082     20.3543     1.2476      7.5        2.6314      6.9207        
2012-07-27T07:07:32Z    Tianjin_2     34.8359     140.3631    140.3631    33.3715     25.8968      0.0587    20.6436     20.3541     1.4223      7.5        2.6369      7.8893        
2012-07-27T07:10:33Z    Tianjin_2     34.8461     140.3805    140.3805    33.3406     26.1494      0.061     20.6098     20.3536     1.2585      7.5        2.6563      7.0039        
2012-07-27T07:13:26Z    Tianjin_2     34.8563     140.3973    140.3973    33.3486     25.6956      0.0653    20.5482     20.3545     0.9518      7.5        2.6382      5.3011        
2012-07-27T07:16:27Z    Tianjin_2     34.8655     140.4132    140.4132    33.345      25.7112      0.0627    20.4974     20.3545     0.7022      7.5        2.6388      3.9108        
2012-07-27T07:19:29Z    Tianjin_2     34.8753     140.4292    140.4292    33.3234     26.0091      0.0701    20.4872     20.3539     0.6546      7.5        2.7623      3.7978        
2012-07-27T07:22:30Z    Tianjin_2     34.8855     140.4463    140.4463    33.3257     26.0373      0.0631    20.4863     20.3539     0.6506      7.5        2.7635      3.7742        
2012-07-27T07:25:32Z    Tianjin_2     34.8957     140.4631    140.4631    33.3382     25.7844      0.0613    20.4779     20.3543     0.6069      7.5        2.7522      3.5212        
2012-07-27T07:28:33Z    Tianjin_2     34.9057     140.4795    140.4795    33.3373     25.6002      0.063     20.4702     20.3547     0.5674      7.5        2.744       3.2926        
2012-07-27T07:31:26Z    Tianjin_2     34.9164     140.4971    140.4971    33.3609     25.441       0.0669    20.471      20.355      0.5699      7.5        2.7369      3.3066        
2012-07-27T07:34:27Z    Tianjin_2     34.9266     140.5142    140.5142    33.3874     25.2341      0.0692    20.4846     20.3554     0.6347      7.5        2.7275      3.6826        
2012-07-27T07:37:29Z    Tianjin_2     34.9367     140.5313    140.5313    33.3578     25.3577      0.0667    20.5044     20.3551     0.7332      7.5        2.7332      4.2543        
2012-07-27T07:40:30Z    Tianjin_2     34.9473     140.5491    140.5491    33.3558     25.1802      0.0666    20.5116     20.3555     0.7669      7.5        2.7252      4.4507        
2012-07-27T07:43:32Z    Tianjin_2     34.9578     140.5655    140.5655    33.3758     25.2179      0.0749    20.5164     20.3554     0.7911      7.5        2.7268      4.5903        
2012-07-27T07:46:33Z    Tianjin_2     34.9687     140.5824    140.5824    33.3974     24.7444      0.0739    20.5327     20.3563     0.8662      7.5        2.7056      5.027         
2012-07-27T07:49:26Z    Tianjin_2     34.98       140.5998    140.5998    33.4118     24.8924      0.0738    20.5573     20.356      0.9889      7.5        2.7122      5.7376        
2012-07-27T07:52:27Z    Tianjin_2     34.9923     140.6186    140.6186    33.4025     24.9915      0.071     20.5922     20.3558     1.1612      7.5        2.7166      6.7378        
2012-07-27T07:55:29Z    Tianjin_2     35.0032     140.6355    140.6355    33.4059     25.0474      0.0674    20.6001     20.3557     1.2008      nd         2.6288      6.7357        
2012-07-27T07:58:30Z    Tianjin_2     35.0132     140.6503    140.6503    33.3913     25.4912      0.0768    20.5995     20.3548     1.2021      nd         2.6547      6.7587        
2012-07-27T08:40:33Z    Tianjin_2     35.1778     140.8866    140.8866    33.4527     26.2185      0.0605    20.5372     20.3534     0.9032      nd         2.565       4.8446        
2012-07-27T08:43:26Z    Tianjin_2     35.1898     140.9035    140.9035    33.4205     26.0708      0.0585    20.5299     20.3537     0.8657      nd         2.557       4.6417        
2012-07-27T08:46:27Z    Tianjin_2     35.201      140.9194    140.9194    33.3871     26.0679      0.0564    20.5163     20.3537     0.7988      nd         2.5569      4.2839        
2012-07-27T08:49:29Z    Tianjin_2     35.2128     140.9362    140.9362    33.3636     26.3059      0.0612    20.5139     20.3533     0.7888      nd         2.5702      4.2359        
2012-07-27T08:52:30Z    Tianjin_2     35.2251     140.9535    140.9535    33.3824     26.7159      0.0556    20.5162     20.3525     0.8043      nd         2.5926      4.3267        
2012-07-27T08:55:32Z    Tianjin_2     35.2377     140.9713    140.9713    33.4249     27.1243      0.0521    20.5015     20.3517     0.7357      nd         2.6148      3.9632        
2012-07-27T08:58:33Z    Tianjin_2     35.2499     140.989     140.989     33.4157     27.3429      0.0447    20.4811     20.3514     0.6376      nd         2.6268      3.4384        
2012-07-27T09:01:26Z    Tianjin_2     35.2609     141.0056    141.0056    33.3789     27.1682      0.0449    20.4576     20.3517     0.5202      7.5        2.596       2.7808        
2012-07-27T09:04:27Z    Tianjin_2     35.2732     141.0241    141.0241    33.3336     27.6002      0.0394    20.4103     20.351      0.2912      7.5        2.6136      1.5567        
2012-07-27T09:07:29Z    Tianjin_2     35.2851     141.0422    141.0422    33.313      27.5246      0.0404    20.3677     20.3512     0.0811      7.5        2.6106      0.4334        
2012-07-27T09:10:30Z    Tianjin_2     35.2954     141.0578    141.0578    33.3071     27.4549      0.0352    20.3363     20.3513     -0.0737     7.5        2.6078      -0.3942       
2012-07-27T09:13:32Z    Tianjin_2     35.3066     141.0748    141.0748    33.2833     27.3197      0.0356    20.3153     20.3515     -0.1781     7.5        2.6025      -0.9525       
2012-07-27T09:16:33Z    Tianjin_2     35.3185     141.093     141.093     33.274      27.492       0.0442    20.3046     20.3513     -0.2293     7.5        2.6094      -1.2263       
2012-07-27T09:19:26Z    Tianjin_2     35.3301     141.1108    141.1108    33.2625     27.5081      0.0413    20.3012     20.3512     -0.2456     7.5        2.6101      -1.3137       
2012-07-27T09:22:27Z    Tianjin_2     35.3418     141.1289    141.1289    33.2607     27.5055      0.0373    20.2915     20.3512     -0.2935     7.5        2.4573      -1.4776       
2012-07-27T09:25:29Z    Tianjin_2     35.3535     141.1469    141.1469    33.2653     27.4784      0.0407    20.2782     20.3513     -0.3593     7.5        2.4563      -1.809        
2012-07-27T09:28:30Z    Tianjin_2     35.3655     141.1657    141.1657    33.2568     27.3883      0.0385    20.2659     20.3515     -0.4203     7.5        2.453       -2.117        
2012-07-27T09:31:32Z    Tianjin_2     35.3769     141.1838    141.1838    33.2599     27.3326      0.0389    20.2602     20.3516     -0.449      7.5        2.2176      -2.046        
2012-07-27T09:34:33Z    Tianjin_2     35.3874     141.2004    141.2004    33.2653     27.4044      0.0356    20.2561     20.3514     -0.4685     7.5        2.2198      -2.1344       
2012-07-27T09:37:26Z    Tianjin_2     35.3987     141.2188    141.2188    33.292      27.4676      0.0359    20.2524     20.3513     -0.4856     7.5        2.2216      -2.2118       
2012-07-27T09:40:27Z    Tianjin_2     35.4099     141.2366    141.2366    33.3051     27.4762      0.0345    20.2475     20.3512     -0.5096     7.5        2.2218      -2.3207       
2012-07-27T09:43:29Z    Tianjin_2     35.4218     141.2537    141.2537    33.3067     27.5001      0.0341    20.2414     20.3512     -0.5396     7.5        2.2226      -2.457        
2012-07-27T09:46:30Z    Tianjin_2     35.4349     141.2726    141.2726    33.3032     27.487       0.0356    20.2383     20.3512     -0.5548     7.5        2.2222      -2.5266       
2012-07-27T09:49:32Z    Tianjin_2     35.4473     141.2906    141.2906    33.3116     27.4678      0.0378    20.2329     20.3513     -0.5817     7.5        2.2216      -2.6489       
2012-07-27T09:52:33Z    Tianjin_2     35.4588     141.3072    141.3072    33.3306     27.4397      0.0319    20.23       20.3513     -0.5961     7.5        2.2207      -2.7145       
2012-07-27T09:55:26Z    Tianjin_2     35.4706     141.3245    141.3245    33.3584     27.417       0.0422    20.2291     20.3513     -0.6005     7.5        2.2199      -2.7341       
2012-07-27T09:58:27Z    Tianjin_2     35.4825     141.3422    141.3422    33.3861     27.4181      0.0422    20.2293     20.3513     -0.5991     7.5        2.2199      -2.7274       
2012-07-27T10:01:29Z    Tianjin_2     35.495      141.3608    141.3608    33.4195     27.4486      0.0451    20.2386     20.3512     -0.553      7.5        2.2207      -2.5166       
2012-07-27T10:04:30Z    Tianjin_2     35.5069     141.3786    141.3786    33.4337     27.4274      0.045     20.2519     20.3512     -0.4881     7.5        2.1268      -2.1279       
2012-07-27T10:07:32Z    Tianjin_2     35.5183     141.396     141.396     33.4416     27.3804      0.0416    20.2592     20.3513     -0.4523     7.5        2.1254      -1.9721       
2012-07-27T10:10:33Z    Tianjin_2     35.5302     141.4141    141.4141    33.4436     27.1705      0.0509    20.2634     20.3516     -0.4333     7.5        2.1194      -1.8904       
2012-07-27T10:13:26Z    Tianjin_2     35.5426     141.4332    141.4332    33.4692     26.9748      0.0475    20.27       20.352      -0.4026     7.5        2.1137      -1.7573       
2012-07-27T11:40:33Z    Tianjin_2     35.8833     141.9228    141.9228    33.4445     25.0893      0.0844    20.4309     20.3556     0.3702      7.5        1.7098      1.3495        
2012-07-27T11:43:26Z    Tianjin_2     35.8947     141.939     141.939     33.4274     24.8365      0.0811    20.451      20.3561     0.466       7.5        1.7044      1.7005        
2012-07-27T11:46:27Z    Tianjin_2     35.9062     141.9549    141.9549    33.4262     24.4562      0.0803    20.4455     20.3569     0.4351      7.5        1.6964      1.5908        
2012-07-27T11:49:29Z    Tianjin_2     35.9174     141.9717    141.9717    33.4056     25.4538      0.0696    20.4407     20.3549     0.4216      7.5        1.7175      1.5344        
2012-07-27T11:52:30Z    Tianjin_2     35.9283     141.9886    141.9886    33.3993     25.3085      0.0743    20.4349     20.3552     0.3914      7.5        1.7144      1.4256        
2012-07-27T11:55:32Z    Tianjin_2     35.9392     142.0059    142.0059    33.3754     25.1169      0.0569    20.4122     20.3556     0.2779      7.5        1.7104      1.0133        
2012-07-27T11:58:33Z    Tianjin_2     35.9492     142.0217    142.0217    33.4561     24.7325      0.0669    20.4029     20.3563     0.2288      7.5        1.7022      0.8353        
2012-07-27T12:01:26Z    Tianjin_2     35.9588     142.037     142.037     33.4118     25.3159      0.0634    20.4048     20.3552     0.2437      7.5        1.7146      0.8874        
2012-07-27T12:04:27Z    Tianjin_2     35.9695     142.0535    142.0535    33.3931     25.3104      0.0576    20.4134     20.3552     0.2857      7.5        1.7145      1.0406        
2012-07-27T12:07:29Z    Tianjin_2     35.9805     142.0705    142.0705    33.3571     25.6205      0.0619    20.393      20.3546     0.1886      7.5        1.721       0.686         
2012-07-27T12:10:30Z    Tianjin_2     35.9913     142.0866    142.0866    33.2838     26.3824      0.0598    20.4267     20.3533     0.3608      7.5        1.737       1.3081        
2012-07-27T12:13:32Z    Tianjin_2     36.0016     142.1022    142.1022    33.2484     27.2824      0.0538    20.473      20.3517     0.5963      2.5        1.1875      1.4565        
2012-07-27T12:16:33Z    Tianjin_2     36.0118     142.1188    142.1188    33.2366     27.5027      0.046     20.4788     20.3513     0.6265      2.5        1.1918      1.5303        
2012-07-27T12:19:26Z    Tianjin_2     36.0221     142.1356    142.1356    33.2159     27.3589      0.0491    20.436      20.3516     0.4149      2.5        1.2156      1.0362        
2012-07-27T12:22:27Z    Tianjin_2     36.0322     142.1518    142.1518    33.2188     27.3646      0.0438    20.3952     20.3515     0.2146      2.5        1.2157      0.5359        
2012-07-27T12:25:29Z    Tianjin_2     36.043      142.1689    142.1689    33.2232     27.3182      0.0496    20.3903     20.3516     0.1902      2.5        1.2147      0.475         
2012-07-27T12:28:30Z    Tianjin_2     36.0535     142.1855    142.1855    33.2258     27.4076      0.0535    20.4029     20.3515     0.2528      2.5        1.2165      0.6313        
2012-07-27T12:31:32Z    Tianjin_2     36.0638     142.2017    142.2017    33.2371     27.3432      0.0476    20.4167     20.3516     0.32        2.5        1.2152      0.7991        
2012-07-27T12:34:33Z    Tianjin_2     36.0743     142.2183    142.2183    33.2383     27.4347      0.0452    20.4248     20.3514     0.3605      2.5        1.217       0.9001        
2012-07-27T12:37:26Z    Tianjin_2     36.0842     142.2338    142.2338    33.2383     27.4011      0.0474    20.4325     20.3515     0.3981      2.5        1.2164      0.9942        
2012-07-27T12:40:27Z    Tianjin_2     36.0949     142.2506    142.2506    33.2451     27.2822      0.0535    20.4291     20.3517     0.3807      2.5        1.214       0.9506        
2012-07-27T12:43:29Z    Tianjin_2     36.1055     142.2673    142.2673    33.2906     27.2346      0.0447    20.4298     20.3517     0.3839      2.5        1.2129      0.9584        
2012-07-27T12:46:30Z    Tianjin_2     36.116      142.2839    142.2839    33.322      27.4006      0.0425    20.433      20.3514     0.4011      2.5        1.2162      1.001         
2012-07-27T12:49:32Z    Tianjin_2     36.1265     142.3008    142.3008    33.3848     27.4708      0.0397    20.422      20.3512     0.348       2.5        1.0753      0.7668        
2012-07-27T12:52:33Z    Tianjin_2     36.1368     142.3178    142.3178    33.4211     27.541       0.037     20.3975     20.351      0.2284      2.5        1.0765      0.5031        
2012-07-27T12:55:26Z    Tianjin_2     36.1482     142.3362    142.3362    33.4066     27.4807      0.0352    20.3691     20.3511     0.0881      2.5        1.0755      0.1942        
2012-07-27T12:58:27Z    Tianjin_2     36.1598     142.3543    142.3543    33.4322     27.2996      0.0418    20.3436     20.3514     -0.0382     2.5        1.0724      -0.0842       
2012-07-27T13:01:29Z    Tianjin_2     36.1697     142.3697    142.3697    33.53       27.07        0.0393    20.332      20.3517     -0.0971     2.5        1.0684      -0.2137       
2012-07-27T13:04:30Z    Tianjin_2     36.1794     142.3849    142.3849    33.5646     27.0132      0.0386    20.3247     20.3518     -0.1332     2.5        1.0972      -0.3013       
2012-07-27T13:07:32Z    Tianjin_2     36.1901     142.4015    142.4015    33.622      26.7863      0.0352    20.3186     20.3521     -0.1648     2.5        1.0931      -0.3728       
2012-07-27T13:10:33Z    Tianjin_2     36.2009     142.4182    142.4182    33.6885     26.5358      0.0304    20.3211     20.3525     -0.1541     2.5        1.0887      -0.3485       
2012-07-27T13:13:26Z    Tianjin_2     36.2124     142.4359    142.4359    33.7328     26.4905      0.0297    20.3174     20.3525     -0.1725     2.5        1.0878      -0.39         
2012-07-27T13:16:27Z    Tianjin_2     36.2235     142.4531    142.4531    33.7122     26.5804      0.0358    20.3193     20.3524     -0.1624     2.5        1.0894      -0.3673       
2012-07-27T13:19:29Z    Tianjin_2     36.234      142.4693    142.4693    33.7416     26.5204      0.0333    20.3163     20.3525     -0.1777     2.5        1.0883      -0.4018       
2012-07-27T13:22:30Z    Tianjin_2     36.2448     142.4855    142.4855    33.7408     26.4649      0.0321    20.3123     20.3526     -0.1979     2.5        1.0874      -0.4475       
2012-07-27T13:25:32Z    Tianjin_2     36.2555     142.5015    142.5015    33.8069     26.2924      0.0295    20.3066     20.3528     -0.2273     2.5        1.0843      -0.5136       
2012-07-27T13:28:33Z    Tianjin_2     36.2668     142.5185    142.5185    33.8145     26.2537      0.0282    20.3034     20.3529     -0.2432     2.5        1.0836      -0.5498       
2012-07-27T13:31:26Z    Tianjin_2     36.2779     142.5352    142.5352    33.8272     26.2403      0.0336    20.3036     20.3529     -0.2422     2.5        1.0833      -0.5474       
2012-07-27T13:34:27Z    Tianjin_2     36.2892     142.5522    142.5522    33.8456     26.2257      0.0306    20.3065     20.3529     -0.2281     2.5        1.0831      -0.5154       
2012-07-27T13:37:29Z    Tianjin_2     36.3006     142.5697    142.5697    33.8523     26.3213      0.0331    20.3099     20.3527     -0.2103     2.5        1.0847      -0.4751       
2012-07-27T13:40:30Z    Tianjin_2     36.3115     142.5867    142.5867    33.8513     26.3807      0.0332    20.3101     20.3526     -0.2089     2.5        1.0857      -0.472        
2012-07-27T13:43:32Z    Tianjin_2     36.322      142.6032    142.6032    33.8534     26.3266      0.0259    20.3048     20.3527     -0.2352     2.5        1.0848      -0.5314       
2012-07-27T13:46:33Z    Tianjin_2     36.3341     142.6227    142.6227    33.8556     26.2161      0.0316    20.2869     20.3529     -0.3243     2.5        1.0829      -0.7328       
2012-07-27T13:49:26Z    Tianjin_2     36.3454     142.6407    142.6407    33.7922     26.4425      0.0259    20.2799     20.3526     -0.357      2.5        1.1157      -0.8282       
2012-07-27T13:52:27Z    Tianjin_2     36.3547     142.6559    142.6559    33.7281     26.7235      0.0281    20.2839     20.3521     -0.335      2.5        1.1209      -0.7775       
2012-07-27T13:55:29Z    Tianjin_2     36.3654     142.6732    142.6732    33.6632     26.9756      0.0263    20.2854     20.3517     -0.3258     2.5        1.1255      -0.7563       
2012-07-27T13:58:30Z    Tianjin_2     36.376      142.6906    142.6906    33.5651     27.1231      0.0261    20.2899     20.3516     -0.3029     2.5        0.9884      -0.6163       
2012-07-27T14:40:33Z    Tianjin_2     36.5322     142.9206    142.9206    33.7016     26.9376      0.0333    20.2884     20.3518     -0.3112     2.5        1.0056      -0.6458       
2012-07-27T14:43:26Z    Tianjin_2     36.5432     142.9363    142.9363    33.6681     27.0709      0.0363    20.2773     20.3516     -0.3647     2.5        1.0077      -0.7568       
2012-07-27T14:46:27Z    Tianjin_2     36.5544     142.9524    142.9524    33.5933     27.2991      0.0316    20.2739     20.3512     -0.38       2.5        1.0112      -0.7886       
2012-07-27T14:49:29Z    Tianjin_2     36.5654     142.9696    142.9696    33.4979     27.4507      0.0272    20.267      20.3511     -0.4134     2.5        1.0136      -0.8582       
2012-07-27T14:52:30Z    Tianjin_2     36.5762     142.9865    142.9865    33.4439     27.3864      0.0323    20.2589     20.3513     -0.454      2.5        1.0127      -0.943        
2012-07-27T14:55:32Z    Tianjin_2     36.5867     143.0031    143.0031    33.4334     27.1952      0.0324    20.252      20.3516     -0.4893     7.5        1.5767      -1.5874       
2012-07-27T14:58:33Z    Tianjin_2     36.5974     143.0202    143.0202    33.416      27.1909      0.0332    20.253      20.3516     -0.4844     7.5        1.5766      -1.5717       
2012-07-27T15:01:26Z    Tianjin_2     36.6087     143.0381    143.0381    33.3956     27.2436      0.0271    20.2535     20.3516     -0.4819     7.5        1.5775      -1.5632       
2012-07-27T15:04:27Z    Tianjin_2     36.6193     143.0554    143.0554    33.4005     27.265       0.0366    20.2537     20.3515     -0.4808     7.5        1.5779      -1.5597       
2012-07-27T15:07:29Z    Tianjin_2     36.6298     143.0725    143.0725    33.4336     27.2605      0.0388    20.2577     20.3515     -0.4609     7.5        1.4627      -1.3859       
2012-07-27T15:10:30Z    Tianjin_2     36.6403     143.09      143.09      33.4422     27.152       0.0326    20.264      20.3517     -0.4309     7.5        1.4611      -1.2963       
2012-07-27T15:13:32Z    Tianjin_2     36.6507     143.1076    143.1076    33.3946     27.3815      0.0346    20.2673     20.3513     -0.4127     7.5        1.4645      -1.2401       
2012-07-27T15:16:33Z    Tianjin_2     36.6617     143.1252    143.1252    33.399      27.4128      0.032     20.2837     20.3513     -0.3318     7.5        1.4792      -1.0063       
2012-07-27T15:19:26Z    Tianjin_2     36.6723     143.1416    143.1416    33.396      27.3431      0.0413    20.2759     20.3514     -0.3708     7.5        1.4782      -1.1254       
2012-07-27T15:22:27Z    Tianjin_2     36.6826     143.1577    143.1577    33.3915     27.2158      0.037     20.2648     20.3516     -0.4265     7.5        1.4764      -1.2955       
2012-07-27T15:25:29Z    Tianjin_2     36.6931     143.1742    143.1742    33.3849     27.0351      0.0387    20.2553     20.3519     -0.475      7.5        1.4737      -1.4448       
2012-07-27T15:28:30Z    Tianjin_2     36.7037     143.1912    143.1912    33.386      26.9109      0.0426    20.2472     20.3522     -0.5158     7.5        1.4719      -1.5701       
2012-07-27T15:31:32Z    Tianjin_2     36.7141     143.2077    143.2077    33.3897     26.7663      0.0411    20.2458     20.3524     -0.524      7.5        1.4698      -1.5966       
2012-07-27T15:34:33Z    Tianjin_2     36.7246     143.2243    143.2243    33.3898     26.6634      0.0465    20.2536     20.3526     -0.4864     7.5        1.4683      -1.4829       
2012-07-27T15:37:26Z    Tianjin_2     36.7364     143.2433    143.2433    33.3847     26.5317      0.0418    20.2583     20.3529     -0.4646     7.5        1.4664      -1.418        
2012-07-27T15:40:27Z    Tianjin_2     36.7472     143.2606    143.2606    33.3948     26.6284      0.0496    20.2604     20.3527     -0.4534     7.5        1.4678      -1.3826       
2012-07-27T15:43:29Z    Tianjin_2     36.7564     143.2755    143.2755    33.392      26.7851      0.0408    20.2561     20.3524     -0.4731     7.5        1.4701      -1.4412       
2012-07-27T15:46:30Z    Tianjin_2     36.7668     143.292     143.292     33.3354     26.6437      0.0398    20.2566     20.3527     -0.4723     7.5        1.4681      -1.4408       
2012-07-27T15:49:32Z    Tianjin_2     36.778      143.3089    143.3089    33.2513     26.1468      0.0402    20.2521     20.3537     -0.4993     7.5        1.4609      -1.5291       
2012-07-27T15:52:33Z    Tianjin_2     36.7888     143.3247    143.3247    33.3033     25.5719      0.043     20.2496     20.3548     -0.5168     7.5        1.4523      -1.5881       
2012-07-27T15:55:26Z    Tianjin_2     36.799      143.3393    143.3393    33.3682     24.5898      0.0756    20.2536     20.3567     -0.5063     7.5        1.4374      -1.5653       
2012-07-27T15:58:27Z    Tianjin_2     36.8097     143.3541    143.3541    33.3568     23.4832      0.0759    20.2688     20.3591     -0.4437     7.5        1.4204      -1.3818       
2012-07-27T16:01:29Z    Tianjin_2     36.8207     143.3689    143.3689    33.3537     23.7052      0.0723    20.2834     20.3586     -0.3693     7.5        1.4238      -1.1485       
2012-07-27T16:04:30Z    Tianjin_2     36.8323     143.384     143.384     33.366      23.7658      0.0582    20.2765     20.3584     -0.4024     7.5        1.4352      -1.26         
2012-07-27T16:07:32Z    Tianjin_2     36.8439     143.3987    143.3987    33.3668     23.5323      0.0741    20.2469     20.359      -0.5504     7.5        1.4316      -1.7262       
2012-07-27T16:10:33Z    Tianjin_2     36.8562     143.414     143.414     33.4046     23.4259      0.0768    20.2367     20.3591     -0.6014     7.5        1.4299      -1.8869       
2012-07-27T16:13:26Z    Tianjin_2     36.8687     143.4294    143.4294    33.409      23.8943      0.0717    20.2382     20.3581     -0.589      7.5        1.4372      -1.8422       
2012-07-27T16:16:27Z    Tianjin_2     36.8805     143.4433    143.4433    33.419      24.1728      0.0689    20.2475     20.3575     -0.5401     7.5        1.3697      -1.6022       
2012-07-27T16:19:29Z    Tianjin_2     36.892      143.4583    143.4583    33.4446     24.5243      0.0578    20.2776     20.3567     -0.3887     7.5        1.3745      -1.15         
2012-07-27T16:22:30Z    Tianjin_2     36.9029     143.4731    143.4731    33.5058     24.7621      0.0624    20.2991     20.3562     -0.2805     7.5        1.3777      -0.828        
2012-07-27T16:25:32Z    Tianjin_2     36.9138     143.4877    143.4877    33.5304     24.6761      0.0508    20.3008     20.3563     -0.2725     7.5        1.3765      -0.8048       
2012-07-27T16:28:33Z    Tianjin_2     36.9253     143.5028    143.5028    33.5332     24.5801      0.0578    20.2967     20.3565     -0.2938     7.5        1.3752      -0.8685       
2012-07-27T16:31:26Z    Tianjin_2     36.9368     143.5188    143.5188    33.5541     24.5576      0.0575    20.2998     20.3565     -0.2785     7.5        1.3749      -0.8231       
2012-07-27T16:34:27Z    Tianjin_2     36.948      143.5348    143.5348    33.576      24.619       0.046     20.3085     20.3564     -0.2351     7.5        1.3757      -0.6944       
2012-07-27T16:37:29Z    Tianjin_2     36.9584     143.5501    143.5501    33.5823     24.7857      0.0512    20.3217     20.356      -0.1687     7.5        1.378       -0.4976       
2012-07-27T16:40:30Z    Tianjin_2     36.9696     143.5665    143.5665    33.5823     25.0198      0.0473    20.3285     20.3555     -0.1328     7.5        1.3812      -0.3911       
2012-07-27T16:43:32Z    Tianjin_2     36.9805     143.5826    143.5826    33.5828     25.1032      0.0591    20.3145     20.3554     -0.2007     7.5        1.3823      -0.5907       
2012-07-27T16:46:33Z    Tianjin_2     36.9916     143.5993    143.5993    33.5853     25.0889      0.0536    20.2885     20.3554     -0.3284     7.5        1.3821      -0.967        
2012-07-27T16:49:26Z    Tianjin_2     37.0026     143.6161    143.6161    33.5998     24.9339      0.0564    20.2708     20.3557     -0.4172     2.5        0.8031      -0.7155       
2012-07-27T16:52:27Z    Tianjin_2     37.0124     143.6315    143.6315    33.5879     24.8863      0.0518    20.2647     20.3558     -0.4478     2.5        0.8192      -0.784        
2012-07-27T16:55:29Z    Tianjin_2     37.0236     143.6489    143.6489    33.5622     24.7785      0.0473    20.2658     20.3561     -0.4435     2.5        0.8177      -0.7767       
2012-07-27T16:58:30Z    Tianjin_2     37.0341     143.6656    143.6656    33.554      24.8673      0.0451    20.2749     20.3559     -0.3979     2.5        0.8189      -0.6969       
2012-07-27T17:40:33Z    Tianjin_2     37.1796     143.8959    143.8959    33.5702     23.8139      0.0416    20.3865     20.3581     0.1396      2.5        0.7791      0.2368        
2012-07-27T17:43:26Z    Tianjin_2     37.1899     143.9124    143.9124    33.5043     24.0965      0.0494    20.3805     20.3576     0.1127      2.5        0.7827      0.1911        
2012-07-27T17:46:27Z    Tianjin_2     37.2001     143.9287    143.9287    33.446      24.3105      0.0517    20.3815     20.3572     0.1194      2.5        0.7854      0.2027        
2012-07-27T17:49:29Z    Tianjin_2     37.2105     143.9453    143.9453    33.4085     24.3497      0.0652    20.3585     20.3571     0.0067      2.5        0.786       0.0114        
2012-07-27T17:52:30Z    Tianjin_2     37.2209     143.9619    143.9619    33.3199     24.2143      0.0551    20.33       20.3575     -0.1354     2.5        0.7843      -0.23         
2012-07-27T17:55:32Z    Tianjin_2     37.2316     143.9789    143.9789    33.2557     23.7697      0.0663    20.307      20.3586     -0.2536     2.5        0.7788      -0.4311       
2012-07-27T17:58:33Z    Tianjin_2     37.2424     143.996     143.996     33.2855     23.7584      0.0619    20.2908     20.3586     -0.3329     2.5        0.7787      -0.5658       
2012-07-27T18:01:26Z    Tianjin_2     37.2511     144.0134    144.0134    33.2968     23.6167      0.0517    20.2985     20.3589     -0.2967     2.5        0.7769      -0.5044       
2012-07-27T18:04:27Z    Tianjin_2     37.2592     144.031     144.031     33.3457     23.8285      0.0521    20.2927     20.3583     -0.3226     2.5        0.7795      -0.548        
2012-07-27T18:07:29Z    Tianjin_2     37.2674     144.049     144.049     33.4891     23.5992      0.0487    20.2905     20.3586     -0.335      2.5        0.7765      -0.5687       
2012-07-27T18:10:30Z    Tianjin_2     37.2759     144.0675    144.0675    33.5229     23.8298      0.0543    20.2893     20.3581     -0.3381     2.5        0.7793      -0.5737       
2012-07-27T18:13:32Z    Tianjin_2     37.2847     144.0868    144.0868    33.6025     23.569       0.0511    20.2853     20.3586     -0.36       2.5        0.776       -0.6108       
2012-07-27T18:16:33Z    Tianjin_2     37.2928     144.1045    144.1045    33.6487     23.4179      0.0575    20.2757     20.3588     -0.4086     2.5        0.7741      -0.6931       
2012-07-27T18:19:26Z    Tianjin_2     37.3008     144.122     144.122     33.6875     23.11        0.0582    20.2714     20.3595     -0.4326     2.5        0.7703      -0.7341       
2012-07-27T18:22:27Z    Tianjin_2     37.3096     144.1398    144.1398    33.6786     23.7277      0.0542    20.2775     20.3581     -0.3958     2.5        0.8011      -0.6911       
2012-07-27T18:25:29Z    Tianjin_2     37.3185     144.1582    144.1582    33.7116     23.4487      0.0549    20.2882     20.3587     -0.3465     2.5        0.7975      -0.605        
2012-07-27T18:28:30Z    Tianjin_2     37.3272     144.176     144.176     33.72       23.5621      0.0582    20.2807     20.3584     -0.382      2.5        0.799       -0.667        
2012-07-27T18:31:32Z    Tianjin_2     37.3358     144.1934    144.1934    33.719      23.1915      0.0586    20.2775     20.3593     -0.4015     2.5        0.7943      -0.7013       
2012-07-27T18:34:33Z    Tianjin_2     37.3447     144.2112    144.2112    33.7041     23.1062      0.0508    20.2791     20.3595     -0.3946     2.5        0.7932      -0.6895       
2012-07-27T18:37:26Z    Tianjin_2     37.3532     144.2282    144.2282    33.6902     23.0469      0.0577    20.2827     20.3596     -0.3776     2.5        0.7925      -0.6598       
2012-07-27T18:40:27Z    Tianjin_2     37.3616     144.245     144.245     33.6863     23.1364      0.0606    20.2875     20.3594     -0.353      2.5        0.7936      -0.6169       
2012-07-27T18:43:29Z    Tianjin_2     37.3706     144.263     144.263     33.6954     23.1379      0.0543    20.2878     20.3594     -0.3519     2.5        0.7936      -0.6149       
2012-07-27T18:46:30Z    Tianjin_2     37.3798     144.2814    144.2814    33.707      22.974       0.0527    20.287      20.3598     -0.3572     2.5        0.7779      -0.6135       
2012-07-27T18:49:32Z    Tianjin_2     37.3883     144.2983    144.2983    33.7111     22.9916      0.052     20.2807     20.3597     -0.3881     2.5        0.7781      -0.6665       
2012-07-27T18:52:33Z    Tianjin_2     37.3973     144.3165    144.3165    33.7147     23.1359      0.0577    20.2778     20.3594     -0.4007     2.5        0.7798      -0.6879       
2012-07-27T18:55:26Z    Tianjin_2     37.4064     144.3349    144.3349    33.7179     23.1726      0.0577    20.2744     20.3593     -0.4168     2.5        0.7803      -0.7155       
2012-07-27T18:58:27Z    Tianjin_2     37.4141     144.3518    144.3518    33.7152     22.6647      0.0487    20.2649     20.3605     -0.4695     2.5        0.7742      -0.8069       
2012-07-27T19:01:29Z    Tianjin_2     37.4236     144.372     144.372     33.716      23.4193      0.0573    20.2644     20.3588     -0.4632     2.5        0.7832      -0.7948       
2012-07-27T19:04:30Z    Tianjin_2     37.4319     144.3899    144.3899    33.7165     23.2554      0.0503    20.2642     20.3591     -0.4661     2.5        0.8074      -0.8267       
2012-07-27T19:07:32Z    Tianjin_2     37.4387     144.4048    144.4048    33.7103     23.1632      0.0625    20.2596     20.3593     -0.4897     2.5        0.8063      -0.8688       
2012-07-27T19:10:33Z    Tianjin_2     37.4477     144.424     144.424     33.693      23.3057      0.0609    20.2556     20.359      -0.5081     2.5        0.8081      -0.9012       
2012-07-27T19:13:26Z    Tianjin_2     37.4562     144.4422    144.4422    33.6716     23.2978      0.0657    20.2521     20.3591     -0.5257     2.5        0.808       -0.9326       
2012-07-27T19:16:27Z    Tianjin_2     37.4642     144.4593    144.4593    33.6538     23.5214      0.0744    20.2557     20.3586     -0.5057     2.5        0.8108      -0.8969       
2012-07-27T19:19:29Z    Tianjin_2     37.4727     144.4776    144.4776    33.648      23.502       0.0818    20.2597     20.3587     -0.4863     2.5        0.8106      -0.8625       
2012-07-27T19:22:30Z    Tianjin_2     37.4811     144.4958    144.4958    33.6484     23.2931      0.0745    20.2574     20.3591     -0.4994     2.5        0.808       -0.8862       
2012-07-27T19:25:32Z    Tianjin_2     37.4898     144.5146    144.5146    33.6491     23.3169      0.0727    20.2504     20.3591     -0.5338     2.5        0.8082      -0.9471       
2012-07-27T19:28:33Z    Tianjin_2     37.4984     144.5328    144.5328    33.651      23.1722      0.074     20.2446     20.3594     -0.5638     2.5        0.8064      -1.0007       
2012-07-27T19:31:26Z    Tianjin_2     37.5068     144.5505    144.5505    33.6492     22.737       0.0683    20.2381     20.3604     -0.6006     2.5        0.801       -1.067        
2012-07-27T19:34:27Z    Tianjin_2     37.5156     144.569     144.569     33.6534     23.2659      0.0661    20.2434     20.3592     -0.5685     2.5        0.8076      -1.0088       
2012-07-27T19:37:29Z    Tianjin_2     37.5243     144.5873    144.5873    33.6508     22.8466      0.0752    20.2442     20.3601     -0.5694     2.5        0.8024      -1.0113       
2012-07-27T19:40:30Z    Tianjin_2     37.533      144.6055    144.6055    33.6495     23.2615      0.0712    20.2445     20.3592     -0.5634     2.5        0.8076      -0.9998       
2012-07-27T19:43:32Z    Tianjin_2     37.5419     144.624     144.624     33.6472     23.522       0.0777    20.2505     20.3586     -0.531      2.5        0.8108      -0.9417       
2012-07-27T19:46:33Z    Tianjin_2     37.5504     144.6418    144.6418    33.6425     23.6531      0.0811    20.2485     20.3583     -0.5393     2.5        0.8405      -0.9894       
2012-07-27T19:49:26Z    Tianjin_2     37.5594     144.6602    144.6602    33.6371     23.3598      0.0897    20.2419     20.359      -0.5753     2.5        0.8367      -1.0561       
2012-07-27T19:52:27Z    Tianjin_2     37.5695     144.6808    144.6808    33.6328     23.3801      0.0845    20.2436     20.3589     -0.5664     2.5        0.837       -1.0396       
2012-07-27T19:55:29Z    Tianjin_2     37.5782     144.6983    144.6983    33.6313     23.57        0.0937    20.2579     20.3585     -0.4944     2.5        0.8394      -0.9072       
2012-07-27T19:58:30Z    Tianjin_2     37.5861     144.7143    144.7143    33.6279     23.566       0.0954    20.2666     20.3585     -0.4515     2.5        0.8394      -0.8285       
2012-07-27T20:40:33Z    Tianjin_2     37.7014     144.9695    144.9695    33.6503     22.985       0.0687    20.284      20.3598     -0.3723     2.5        0.8695      -0.7148       
2012-07-27T20:43:26Z    Tianjin_2     37.7092     144.9874    144.9874    33.6402     23.0906      0.0639    20.276      20.3596     -0.4107     2.5        0.8709      -0.7884       
2012-07-27T20:46:27Z    Tianjin_2     37.7167     145.0042    145.0042    33.6494     23.2949      0.064     20.2681     20.3591     -0.4468     7.5        1.4516      -1.4246       
2012-07-27T20:49:29Z    Tianjin_2     37.7248     145.023     145.023     33.6694     23.3612      0.0688    20.2636     20.3589     -0.4685     7.5        1.4527      -1.4927       
2012-07-27T20:52:30Z    Tianjin_2     37.7331     145.0421    145.0421    33.6845     23.3531      0.0738    20.262      20.3589     -0.4761     7.5        1.4525      -1.5169       
2012-07-27T20:55:32Z    Tianjin_2     37.7406     145.0592    145.0592    33.7        22.9527      0.0699    20.2551     20.3598     -0.5141     7.5        1.446       -1.6421       
2012-07-27T20:58:33Z    Tianjin_2     37.7482     145.0762    145.0762    33.7166     22.6641      0.0604    20.2589     20.3605     -0.4987     7.5        1.4413      -1.5956       
2012-07-27T21:01:26Z    Tianjin_2     37.7566     145.0948    145.0948    33.7199     21.8837      0.0426    20.2737     20.3623     -0.435      7.5        1.4284      -1.3983       
2012-07-27T21:04:27Z    Tianjin_2     37.7645     145.1124    145.1124    33.7207     22.3125      0.0414    20.2879     20.3613     -0.3603     7.5        1.4355      -1.1553       
2012-07-27T21:07:29Z    Tianjin_2     37.7724     145.1303    145.1303    33.7015     23.1033      0.0617    20.2989     20.3595     -0.2977     7.5        1.475       -0.9674       
2012-07-27T21:10:30Z    Tianjin_2     37.7806     145.1489    145.1489    33.7695     22.3301      0.0621    20.3005     20.3612     -0.2981     7.5        1.4618      -0.9727       
2012-07-27T21:13:32Z    Tianjin_2     37.7889     145.1677    145.1677    33.8404     21.8478      0.0641    20.2934     20.3622     -0.338      7.5        1.4535      -1.1057       
2012-07-27T21:16:33Z    Tianjin_2     37.7966     145.1852    145.1852    33.8377     21.8795      0.0647    20.302      20.3621     -0.2956     7.5        1.454       -0.9668       
2012-07-27T21:19:26Z    Tianjin_2     37.8039     145.2018    145.2018    33.8267     21.8659      0.0729    20.3118     20.3622     -0.2474     7.5        1.4538      -0.8092       
2012-07-27T21:22:27Z    Tianjin_2     37.8123     145.2211    145.2211    33.8395     21.4846      0.0772    20.3154     20.3631     -0.2341     7.5        1.4472      -0.7674       
2012-07-27T21:25:29Z    Tianjin_2     37.8201     145.2392    145.2392    33.8271     21.4485      0.0723    20.3125     20.3632     -0.2488     7.5        1.4466      -0.8161       
2012-07-27T21:28:30Z    Tianjin_2     37.8276     145.2566    145.2566    33.7529     21.6161      0.0807    20.3133     20.3629     -0.2434     7.5        1.4496      -0.7977       
2012-07-27T21:31:32Z    Tianjin_2     37.8355     145.275     145.275     33.6652     21.4758      0.0873    20.3124     20.3634     -0.25       7.5        1.4473      -0.8207       
2012-07-27T21:34:33Z    Tianjin_2     37.843      145.2925    145.2925    33.5873     21.3706      0.0947    20.3189     20.3637     -0.2201     7.5        1.4455      -0.7234       
2012-07-27T21:37:26Z    Tianjin_2     37.8507     145.3105    145.3105    33.5418     21.4581      0.0969    20.3346     20.3636     -0.1424     7.5        1.4471      -0.4679       
2012-07-27T21:40:27Z    Tianjin_2     37.8591     145.3302    145.3302    33.5341     21.5433      0.0986    20.3536     20.3634     -0.0479     7.5        1.4486      -0.1574       
2012-07-27T21:43:29Z    Tianjin_2     37.8669     145.3486    145.3486    33.5082     21.6135      0.0999    20.3615     20.3632     -0.0087     7.5        1.4498      -0.0286       
2012-07-27T21:46:30Z    Tianjin_2     37.8742     145.3656    145.3656    33.4493     21.5705      0.0958    20.3683     20.3634     0.0239      7.5        1.4491      0.0784        
2012-07-27T21:49:32Z    Tianjin_2     37.8818     145.3832    145.3832    33.3436     21.2776      0.0885    20.372      20.3643     0.0377      7.5        1.5082      0.1295        
2012-07-27T21:52:33Z    Tianjin_2     37.8896     145.4013    145.4013    33.3782     21.0581      0.0892    20.3762     20.3648     0.0559      7.5        1.5041      0.1923        
2012-07-27T21:55:26Z    Tianjin_2     37.8977     145.4195    145.4195    33.4305     20.6957      0.0891    20.3856     20.3657     0.0981      7.5        1.4974      0.3384        
2012-07-27T21:58:27Z    Tianjin_2     37.9059     145.4381    145.4381    33.5269     20.2894      0.0759    20.3799     20.3666     0.0654      7.5        1.4897      0.226         
2012-07-27T22:01:29Z    Tianjin_2     37.9136     145.4555    145.4555    33.5581     20.3849      0.0798    20.3765     20.3663     0.0499      7.5        1.4915      0.1722        
2012-07-27T22:04:30Z    Tianjin_2     37.9212     145.4728    145.4728    33.5316     20.6815      0.0806    20.3843     20.3656     0.0921      7.5        1.497       0.3175        
2012-07-27T22:07:32Z    Tianjin_2     37.929      145.4907    145.4907    33.5365     20.5007      0.0787    20.3803     20.366      0.0702      7.5        1.4936      0.2422        
2012-07-27T22:10:33Z    Tianjin_2     37.9367     145.5085    145.5085    33.5361     20.5621      0.0745    20.3702     20.3659     0.0211      7.5        1.4948      0.0729        
2012-07-27T22:13:26Z    Tianjin_2     37.9446     145.5262    145.5262    33.6291     20.4536      0.0739    20.3698     20.366      0.0188      7.5        1.4927      0.0647        
2012-07-27T22:16:27Z    Tianjin_2     37.9524     145.5437    145.5437    33.719      20.2463      0.0786    20.3797     20.3664     0.065       7.5        1.4887      0.2243        
2012-07-27T22:19:29Z    Tianjin_2     37.9602     145.5612    145.5612    33.7322     20.3818      0.0706    20.3966     20.3661     0.15        7.5        1.4912      0.5172        
2012-07-27T22:22:30Z    Tianjin_2     37.9679     145.5784    145.5784    33.7539     19.9828      0.0683    20.3727     20.3671     0.0275      7.5        1.4838      0.095         
2012-07-27T22:25:32Z    Tianjin_2     37.9759     145.5965    145.5965    33.7474     20.113       0.063     20.341      20.3668     -0.1266     7.5        1.4863      -0.4372       
2012-07-27T22:28:33Z    Tianjin_2     37.9838     145.6142    145.6142    33.7224     20.5544      0.065     20.377      20.3656     0.0557      7.5        1.4944      0.1917        
2012-07-27T22:31:26Z    Tianjin_2     37.9917     145.6315    145.6315    33.6938     20.6656      0.0602    20.4023     20.3654     0.1811      7.5        1.5184      0.6328        
2012-07-27T22:34:27Z    Tianjin_2     37.9995     145.6494    145.6494    33.6596     20.8963      0.0654    20.4049     20.3648     0.1965      7.5        1.5227      0.6859        
2012-07-27T22:37:29Z    Tianjin_2     38.0074     145.667     145.667     33.6476     20.9384      0.0627    20.3982     20.3647     0.1643      7.5        1.5235      0.5735        
2012-07-27T22:40:30Z    Tianjin_2     38.0155     145.6855    145.6855    33.6478     20.8719      0.0631    20.389      20.3649     0.1183      7.5        1.5223      0.4128        
2012-07-27T22:43:32Z    Tianjin_2     38.0235     145.7038    145.7038    33.665      20.8339      0.0648    20.3872     20.365      0.1091      7.5        1.5216      0.3809        
2012-07-27T22:46:33Z    Tianjin_2     38.0312     145.7213    145.7213    33.678      20.915       0.0704    20.3991     20.3648     0.1684      7.5        1.5231      0.5875        
2012-07-27T22:49:26Z    Tianjin_2     38.0391     145.7396    145.7396    33.6813     20.9318      0.0803    20.4201     20.3647     0.2722      7.5        1.5234      0.9496        
2012-07-27T22:52:27Z    Tianjin_2     38.0468     145.7575    145.7575    33.673      20.9381      0.0813    20.4303     20.3647     0.3222      7.5        1.5235      1.1242        
2012-07-27T22:55:29Z    Tianjin_2     38.0545     145.7754    145.7754    33.6821     20.6139      0.0852    20.431      20.3655     0.3214      7.5        1.5174      1.1234        
2012-07-27T22:58:30Z    Tianjin_2     38.0626     145.794     145.794     33.6689     20.7618      0.0887    20.4337     20.3652     0.3366      7.5        1.5202      1.1756        
2012-07-27T23:37:32Z    Tianjin_2     38.1653     146.0265    146.0265    33.3094     21.124       0.0906    20.4047     20.3647     0.1961      7.5        1.5871      0.7118        
2012-07-27T23:40:33Z    Tianjin_2     38.1739     146.0449    146.0449    33.3195     21.1259      0.0913    20.4245     20.3647     0.2936      7.5        1.5872      1.0658        
2012-07-27T23:43:26Z    Tianjin_2     38.1831     146.0642    146.0642    33.3304     21.1392      0.0857    20.4424     20.3647     0.3816      7.5        1.5874      1.385         
2012-07-27T23:46:27Z    Tianjin_2     38.1908     146.0804    146.0804    33.3214     21.1592      0.0791    20.4532     20.3646     0.4347      7.5        1.5878      1.5776        
2012-07-27T23:49:29Z    Tianjin_2     38.1988     146.0972    146.0972    33.3269     21.1708      0.0787    20.4614     20.3646     0.4756      7.5        1.588       1.7258        
2012-07-27T23:52:30Z    Tianjin_2     38.2072     146.1149    146.1149    33.3499     21.168       0.0718    20.4606     20.3646     0.4716      7.5        1.588       1.7109        
2012-07-27T23:55:32Z    Tianjin_2     38.2152     146.1316    146.1316    33.3765     21.1925      0.0787    20.4606     20.3645     0.4719      7.5        1.5898      1.7131        
2012-07-27T23:58:33Z    Tianjin_2     38.2235     146.1493    146.1493    33.4297     21.201       0.074     20.4593     20.3644     0.466       7.5        1.5899      1.6911        
2012-07-28T00:01:26Z    Tianjin_2     38.232      146.1672    146.1672    33.4961     21.1605      0.0713    20.4531     20.3644     0.4354      7.5        1.6516      1.642         
2012-07-28T00:04:27Z    Tianjin_2     38.2403     146.1849    146.1849    33.5475     21.1311      0.0712    20.4473     20.3644     0.4073      7.5        1.6508      1.5356        
2012-07-28T00:07:29Z    Tianjin_2     38.2488     146.2028    146.2028    33.5778     21.0807      0.0733    20.443      20.3645     0.3858      7.5        1.6494      1.4542        
2012-07-28T00:10:30Z    Tianjin_2     38.2575     146.2214    146.2214    33.5965     21.0335      0.0692    20.4311     20.3646     0.3265      7.5        1.6482      1.2308        
2012-07-28T00:13:32Z    Tianjin_2     38.2658     146.24      146.24      33.6207     20.9188      0.0701    20.4135     20.3648     0.2388      7.5        1.6452      0.9001        
2012-07-28T00:16:33Z    Tianjin_2     38.2731     146.2568    146.2568    33.6383     20.8631      0.0737    20.3908     20.3649     0.1272      7.5        1.6438      0.4794        
2012-07-28T00:19:26Z    Tianjin_2     38.2806     146.2736    146.2736    33.6549     20.8244      0.0754    20.3723     20.365      0.0356      7.5        1.6427      0.1342        
2012-07-28T00:22:27Z    Tianjin_2     38.2886     146.2918    146.2918    33.6492     20.8801      0.0755    20.3565     20.3649     -0.0414     7.5        1.6442      -0.1561       
2012-07-28T00:25:29Z    Tianjin_2     38.2966     146.3102    146.3102    33.6523     20.9457      0.0732    20.3458     20.3647     -0.093      7.5        1.6459      -0.3504       
2012-07-28T00:28:30Z    Tianjin_2     38.3045     146.328     146.328     33.6696     20.9738      0.0734    20.342      20.3646     -0.1113     7.5        1.6466      -0.4194       
2012-07-28T00:31:32Z    Tianjin_2     38.3129     146.3468    146.3468    33.6988     20.9807      0.0738    20.338      20.3646     -0.1302     7.5        1.6467      -0.4905       
2012-07-28T00:34:33Z    Tianjin_2     38.3208     146.3647    146.3647    33.7239     20.9397      0.0654    20.3335     20.3646     -0.1529     7.5        1.6456      -0.5758       
2012-07-28T00:37:26Z    Tianjin_2     38.3285     146.3818    146.3818    33.7491     20.9229      0.0575    20.3348     20.3646     -0.1468     7.5        1.6474      -0.5535       
2012-07-28T00:40:27Z    Tianjin_2     38.3369     146.4006    146.4006    33.7559     20.9561      0.0538    20.3383     20.3645     -0.1289     7.5        1.6482      -0.4862       
2012-07-28T00:43:29Z    Tianjin_2     38.3444     146.4172    146.4172    33.7642     20.9538      0.0498    20.3432     20.3645     -0.105      7.5        1.6482      -0.396        
2012-07-28T00:46:30Z    Tianjin_2     38.352      146.4341    146.4341    33.7699     20.9664      0.0505    20.3387     20.3645     -0.1269     7.5        1.6485      -0.4784       
2012-07-28T00:49:32Z    Tianjin_2     38.3604     146.4526    146.4526    33.7634     20.9777      0.0525    20.3362     20.3645     -0.139      7.5        1.6488      -0.5242       
2012-07-28T00:52:33Z    Tianjin_2     38.3683     146.4699    146.4699    33.7563     21.0035      0.0598    20.3372     20.3644     -0.1336     7.5        1.6494      -0.5039       
2012-07-28T00:55:26Z    Tianjin_2     38.3761     146.4871    146.4871    33.7537     20.9876      0.0537    20.335      20.3645     -0.1447     7.5        1.6703      -0.5526       
2012-07-28T00:58:27Z    Tianjin_2     38.3846     146.5057    146.5057    33.7479     20.9516      0.0572    20.3323     20.3646     -0.1584     7.5        1.6693      -0.605        
2012-07-28T01:01:29Z    Tianjin_2     38.3928     146.5236    146.5236    33.736      20.9167      0.0487    20.324      20.3647     -0.1998     7.5        1.6685      -0.7634       
2012-07-28T01:04:30Z    Tianjin_2     38.4007     146.5407    146.5407    33.7179     20.9468      0.0536    20.3184     20.3646     -0.2271     7.5        1.6693      -0.8676       
2012-07-28T01:07:32Z    Tianjin_2     38.4091     146.5594    146.5594    33.6912     20.906       0.0526    20.3126     20.3648     -0.2563     7.5        1.6683      -0.9795       
2012-07-28T01:10:33Z    Tianjin_2     38.4171     146.5769    146.5769    33.6469     20.7792      0.0456    20.3076     20.3651     -0.2824     7.5        1.665       -1.0801       
2012-07-28T01:13:26Z    Tianjin_2     38.4252     146.5944    146.5944    33.5945     20.7362      0.0475    20.3039     20.3653     -0.3017     7.5        1.664       -1.1543       
2012-07-28T01:16:27Z    Tianjin_2     38.4336     146.6128    146.6128    33.5655     20.7267      0.0468    20.3016     20.3654     -0.3134     7.5        1.6638      -1.1995       
2012-07-28T01:19:29Z    Tianjin_2     38.4418     146.6305    146.6305    33.4864     20.7263      0.0526    20.3007     20.3655     -0.3181     7.5        1.6585      -1.2141       
2012-07-28T01:22:30Z    Tianjin_2     38.4499     146.6483    146.6483    33.411      20.7062      0.0514    20.3032     20.3657     -0.3065     7.5        1.6581      -1.1705       
2012-07-28T01:25:32Z    Tianjin_2     38.4573     146.6666    146.6666    33.3503     20.6198      0.0567    20.3036     20.366      -0.3061     7.5        1.656       -1.1696       
2012-07-28T01:28:33Z    Tianjin_2     38.4651     146.6853    146.6853    33.3052     20.5517      0.0528    20.3061     20.3662     -0.2949     7.5        1.6544      -1.1276       
2012-07-28T01:31:26Z    Tianjin_2     38.4726     146.7039    146.7039    33.2729     20.4867      0.0544    20.3066     20.3664     -0.2938     7.5        1.6528      -1.1236       
2012-07-28T01:34:27Z    Tianjin_2     38.4802     146.7222    146.7222    33.3449     20.6844      0.057     20.3094     20.3658     -0.2771     7.5        1.6577      -1.0587       
2012-07-28T01:37:29Z    Tianjin_2     38.4877     146.7408    146.7408    33.4289     20.8908      0.0532    20.313      20.3652     -0.2561     7.5        1.6628      -0.9772       
2012-07-28T01:40:30Z    Tianjin_2     38.4954     146.7595    146.7595    33.5076     21.0385      0.0597    20.3101     20.3647     -0.2682     7.5        1.6665      -1.0226       
2012-07-28T01:43:32Z    Tianjin_2     38.5033     146.7787    146.7787    33.5527     21.1435      0.0526    20.3088     20.3644     -0.2726     7.5        1.6691      -1.0389       
2012-07-28T01:46:33Z    Tianjin_2     38.5115     146.7988    146.7988    33.5751     21.1785      0.0497    20.3069     20.3642     -0.2815     7.5        1.6699      -1.0723       
2012-07-28T01:49:26Z    Tianjin_2     38.519      146.8171    146.8171    33.5843     21.2025      0.0441    20.3059     20.3642     -0.2863     7.5        1.6705      -1.0904       
2012-07-28T01:52:27Z    Tianjin_2     38.5259     146.8344    146.8344    33.6023     21.18        0.053     20.3051     20.3642     -0.2902     7.5        1.6699      -1.1055       
2012-07-28T01:55:29Z    Tianjin_2     38.5335     146.8532    146.8532    33.6323     21.1751      0.0499    20.3049     20.3642     -0.2911     7.5        1.6697      -1.1087       
2012-07-28T02:37:32Z    Tianjin_2     38.637      147.1134    147.1134    33.611      21.2599      0.0543    20.3547     20.364      -0.0456     7.5        1.666       -0.1732       
2012-07-28T02:40:33Z    Tianjin_2     38.6461     147.1344    147.1344    33.6235     21.1515      0.0561    20.3547     20.3642     -0.0469     7.5        1.6735      -0.1792       
2012-07-28T02:43:26Z    Tianjin_2     38.6539     147.1522    147.1522    33.644      20.9711      0.0524    20.357      20.3647     -0.0379     7.5        1.669       -0.1446       
2012-07-28T02:46:27Z    Tianjin_2     38.66       147.1667    147.1667    33.664      20.8837      0.0551    20.3616     20.3649     -0.016      7.5        1.6668      -0.0611       
2012-07-28T02:49:29Z    Tianjin_2     38.6681     147.1851    147.1851    33.6799     20.9047      0.0459    20.3698     20.3648     0.0247      7.5        1.6673      0.0944        
2012-07-28T02:52:30Z    Tianjin_2     38.676      147.2034    147.2034    33.6708     21.0532      0.053     20.377      20.3644     0.0618      7.5        1.671       0.2359        
2012-07-28T02:55:32Z    Tianjin_2     38.6836     147.2209    147.2209    33.6357     20.9971      0.0536    20.3761     20.3646     0.0565      7.5        1.6696      0.2158        
2012-07-28T02:58:33Z    Tianjin_2     38.6918     147.2398    147.2398    33.5735     20.8929      0.0546    20.3722     20.365      0.0356      7.5        1.6671      0.1361        
2012-07-28T03:01:26Z    Tianjin_2     38.6997     147.2581    147.2581    33.4651     20.728       0.0505    20.3667     20.3655     0.0057      7.5        1.6632      0.0217        
2012-07-28T03:04:27Z    Tianjin_2     38.7071     147.275     147.275     33.3537     20.4149      0.0624    20.3668     20.3665     0.0012      7.5        1.6556      0.0047        
2012-07-28T03:07:29Z    Tianjin_2     38.7146     147.2924    147.2924    33.3111     20.3481      0.0681    20.3711     20.3667     0.0216      7.5        1.654       0.0829        
2012-07-28T03:10:30Z    Tianjin_2     38.7221     147.3098    147.3098    33.3154     20.438       0.0709    20.3793     20.3665     0.0628      7.5        1.6562      0.2407        
2012-07-28T03:13:32Z    Tianjin_2     38.7299     147.3279    147.3279    33.315      20.418       0.0811    20.3849     20.3665     0.0903      7.5        1.6557      0.3462        
2012-07-28T03:16:33Z    Tianjin_2     38.7382     147.3469    147.3469    33.3131     20.3975      0.0854    20.3904     20.3666     0.1171      7.5        1.6552      0.4492        
2012-07-28T03:19:26Z    Tianjin_2     38.7463     147.3652    147.3652    33.2897     20.3284      0.0902    20.3988     20.3668     0.1571      7.5        1.6536      0.6029        
2012-07-28T03:22:27Z    Tianjin_2     38.7542     147.3831    147.3831    33.2442     20.2256      0.0879    20.4018     20.3672     0.1699      7.5        1.6769      0.6628        
2012-07-28T03:25:29Z    Tianjin_2     38.7624     147.4017    147.4017    33.2771     20.3132      0.082     20.405      20.3669     0.187       7.5        1.6791      0.7291        
2012-07-28T03:28:30Z    Tianjin_2     38.77       147.4194    147.4194    33.3575     20.4549      0.0675    20.4061     20.3664     0.1948      7.5        1.6826      0.7587        
2012-07-28T03:31:32Z    Tianjin_2     38.7783     147.4382    147.4382    33.5594     20.7723      0.0623    20.4033     20.3653     0.1865      7.5        1.6904      0.7244        
2012-07-28T03:34:33Z    Tianjin_2     38.7865     147.4568    147.4568    33.6823     20.8551      0.0521    20.3973     20.3649     0.1589      7.5        1.6924      0.6167        
2012-07-28T03:37:26Z    Tianjin_2     38.7938     147.4736    147.4736    33.6924     20.9864      0.0515    20.385      20.3646     0.1006      7.5        1.6957      0.3902        
2012-07-28T03:40:27Z    Tianjin_2     38.8013     147.4905    147.4905    33.6835     21.2438      0.0545    20.3758     20.3639     0.0583      7.5        1.7023      0.2261        
2012-07-28T03:43:29Z    Tianjin_2     38.8093     147.5086    147.5086    33.6835     21.3397      0.0454    20.3668     20.3637     0.0154      7.5        1.7048      0.0597        
2012-07-28T03:46:30Z    Tianjin_2     38.8175     147.527     147.527     33.7228     21.2371      0.0477    20.3533     20.3639     -0.0519     7.5        1.7021      -0.201        
2012-07-28T03:49:32Z    Tianjin_2     38.8257     147.5463    147.5463    33.725      21.1139      0.0534    20.3438     20.3642     -0.1004     7.5        1.6989      -0.3891       
2012-07-28T03:52:33Z    Tianjin_2     38.8333     147.5647    147.5647    33.7184     21.0658      0.0495    20.3412     20.3643     -0.1134     7.5        1.6977      -0.4396       
2012-07-28T03:55:26Z    Tianjin_2     38.8405     147.5823    147.5823    33.7184     20.9103      0.053     20.3447     20.3647     -0.0983     7.5        1.6937      -0.3814       
2012-07-28T03:58:27Z    Tianjin_2     38.8482     147.6014    147.6014    33.7171     20.8715      0.0508    20.3476     20.3648     -0.0848     7.5        1.6927      -0.3289       
2012-07-28T04:01:29Z    Tianjin_2     38.8563     147.6209    147.6209    33.7132     21.0727      0.0479    20.3541     20.3643     -0.0503     7.5        1.6979      -0.1951       
2012-07-28T04:04:30Z    Tianjin_2     38.864      147.6399    147.6399    33.7189     21.0167      0.0517    20.3551     20.3644     -0.0458     7.5        1.7382      -0.1822       
2012-07-28T04:07:32Z    Tianjin_2     38.8716     147.6583    147.6583    33.7249     20.8826      0.0481    20.3522     20.3648     -0.0617     7.5        1.7345      -0.2453       
2012-07-28T04:10:33Z    Tianjin_2     38.8787     147.6757    147.6757    33.7322     20.9255      0.048     20.3503     20.3647     -0.0705     7.5        1.7245      -0.2784       
2012-07-28T04:13:26Z    Tianjin_2     38.8864     147.6946    147.6946    33.7336     20.8713      0.0442    20.3521     20.3648     -0.0622     7.5        1.7231      -0.2456       
2012-07-28T04:16:27Z    Tianjin_2     38.8941     147.7138    147.7138    33.7293     20.7915      0.0438    20.3509     20.365      -0.0693     7.5        1.7211      -0.2736       
2012-07-28T04:19:29Z    Tianjin_2     38.9014     147.7317    147.7317    33.7305     20.641       0.0448    20.3493     20.3654     -0.0791     7.5        1.7172      -0.3125       
2012-07-28T04:22:30Z    Tianjin_2     38.9086     147.7498    147.7498    33.7342     20.7202      0.0455    20.3494     20.3652     -0.0776     7.5        1.7192      -0.3067       
2012-07-28T04:25:32Z    Tianjin_2     38.9161     147.7683    147.7683    33.7457     20.9172      0.0401    20.3528     20.3647     -0.0582     7.5        1.7243      -0.2298       
2012-07-28T04:28:33Z    Tianjin_2     38.9236     147.7868    147.7868    33.756      20.9726      0.0508    20.3532     20.3645     -0.0557     7.5        1.7257      -0.2198       
2012-07-28T04:31:26Z    Tianjin_2     38.9312     147.8058    147.8058    33.7544     20.8736      0.0503    20.3493     20.3648     -0.0758     7.5        1.7231      -0.2992       
2012-07-28T04:34:27Z    Tianjin_2     38.9388     147.8243    147.8243    33.7518     20.9441      0.0446    20.3457     20.3646     -0.0927     7.5        1.725       -0.366        
2012-07-28T04:37:29Z    Tianjin_2     38.9464     147.8427    147.8427    33.7527     20.8721      0.0469    20.3443     20.3648     -0.1007     7.5        1.7231      -0.3976       
2012-07-28T04:40:30Z    Tianjin_2     38.9544     147.862     147.862     33.7611     20.7974      0.0591    20.3395     20.3649     -0.1249     7.5        1.7212      -0.4932       
2012-07-28T04:43:32Z    Tianjin_2     38.9617     147.8796    147.8796    33.7565     21.1814      0.0573    20.3384     20.364      -0.1257     7.5        1.796       -0.5144       
2012-07-28T04:46:33Z    Tianjin_2     38.9698     147.8991    147.8991    33.7602     21.3383      0.0509    20.3389     20.3636     -0.1214     7.5        1.8004      -0.4966       
2012-07-28T04:49:26Z    Tianjin_2     38.9775     147.9175    147.9175    33.7644     21.2803      0.0488    20.3272     20.3637     -0.1793     7.5        1.7988      -0.7337       
2012-07-28T04:52:27Z    Tianjin_2     38.9848     147.9351    147.9351    33.7642     21.2566      0.0486    20.3209     20.3638     -0.2108     7.5        1.7981      -0.8625       
2012-07-28T04:55:29Z    Tianjin_2     38.9924     147.9536    147.9536    33.7652     21.1951      0.0396    20.3241     20.3639     -0.1956     7.5        1.7964      -0.8004       
2012-07-28T05:37:32Z    Tianjin_2     39.1        148.214     148.214     33.512      21.0699      0.0591    20.4126     20.3646     0.2359      7.5        1.8636      1.0051        
2012-07-28T05:40:33Z    Tianjin_2     39.1075     148.2322    148.2322    33.5521     21.0647      0.0538    20.4016     20.3646     0.182       7.5        1.8634      0.7753        
2012-07-28T05:43:26Z    Tianjin_2     39.1151     148.251     148.251     33.6121     21.0564      0.0554    20.3896     20.3645     0.1232      7.5        1.863       0.5247        
2012-07-28T05:46:27Z    Tianjin_2     39.1227     148.27      148.27      33.6287     20.9716      0.0493    20.38       20.3647     0.0754      7.5        1.8604      0.3211        
2012-07-28T05:49:29Z    Tianjin_2     39.1303     148.2884    148.2884    33.6634     21.0159      0.058     20.3763     20.3645     0.0579      7.5        1.8653      0.2468        
2012-07-28T05:52:30Z    Tianjin_2     39.1386     148.309     148.309     33.694      20.8901      0.0623    20.3729     20.3648     0.0399      7.5        1.8614      0.1704        
2012-07-28T05:55:32Z    Tianjin_2     39.1463     148.3282    148.3282    33.6924     20.8135      0.0661    20.3712     20.365      0.0306      7.5        1.8591      0.1304        
2012-07-28T05:58:33Z    Tianjin_2     39.1536     148.3462    148.3462    33.6802     20.73        0.0663    20.3737     20.3652     0.0418      7.5        1.8566      0.1782        
2012-07-28T06:01:26Z    Tianjin_2     39.1616     148.3656    148.3656    33.6713     20.673       0.0616    20.3783     20.3654     0.0632      7.5        1.8549      0.2698        
2012-07-28T06:04:27Z    Tianjin_2     39.1693     148.3847    148.3847    33.6855     20.6877      0.0607    20.3826     20.3653     0.0846      7.5        1.9342      0.3765        
2012-07-28T06:07:29Z    Tianjin_2     39.177      148.4036    148.4036    33.6975     20.7821      0.0581    20.3869     20.3651     0.107       7.5        1.9373      0.476         
2012-07-28T06:10:30Z    Tianjin_2     39.1848     148.4226    148.4226    33.7021     20.8723      0.0536    20.3853     20.3648     0.1006      7.5        1.9403      0.4475        
2012-07-28T06:13:32Z    Tianjin_2     39.1926     148.4419    148.4419    33.7035     20.9022      0.0449    20.3768     20.3648     0.0592      7.5        1.9413      0.2635        
2012-07-28T06:16:33Z    Tianjin_2     39.2002     148.461     148.461     33.7113     20.968       0.0481    20.3652     20.3646     0.0032      7.5        1.9435      0.0141        
2012-07-28T06:19:26Z    Tianjin_2     39.2079     148.4803    148.4803    33.7207     20.991       0.05      20.3535     20.3645     -0.0542     7.5        1.9443      -0.2412       
2012-07-28T06:22:27Z    Tianjin_2     39.2156     148.4994    148.4994    33.7156     20.9679      0.0467    20.3469     20.3646     -0.0868     7.5        1.9435      -0.3859       
2012-07-28T06:25:29Z    Tianjin_2     39.2235     148.5192    148.5192    33.7191     20.9622      0.0547    20.3397     20.3646     -0.1224     7.5        1.9433      -0.5441       
2012-07-28T06:28:30Z    Tianjin_2     39.2312     148.5386    148.5386    33.7207     20.9841      0.0558    20.3388     20.3645     -0.1261     7.5        1.944       -0.5609       
2012-07-28T06:31:32Z    Tianjin_2     39.2383     148.5565    148.5565    33.7189     21.0144      0.0592    20.3347     20.3645     -0.1461     7.5        1.9451      -0.6498       
2012-07-28T06:34:33Z    Tianjin_2     39.2464     148.5769    148.5769    33.719      21.016       0.0607    20.3355     20.3644     -0.1423     7.5        1.9451      -0.6327       
2012-07-28T06:37:26Z    Tianjin_2     39.2541     148.596     148.596     33.6946     21.0412      0.056     20.3382     20.3644     -0.1289     7.5        1.946       -0.5733       
2012-07-28T06:40:27Z    Tianjin_2     39.2611     148.6135    148.6135    33.6629     21.003       0.0618    20.3379     20.3646     -0.1311     7.5        1.9448      -0.5832       
2012-07-28T06:43:29Z    Tianjin_2     39.2686     148.6323    148.6323    33.5934     21.0076      0.0692    20.3402     20.3646     -0.1198     7.5        2.0065      -0.5502       
2012-07-28T06:46:30Z    Tianjin_2     39.2762     148.6511    148.6511    33.5543     20.9904      0.0681    20.3441     20.3647     -0.1012     7.5        2.006       -0.465        
2012-07-28T06:49:32Z    Tianjin_2     39.2839     148.6703    148.6703    33.5297     20.968       0.0737    20.347      20.3648     -0.0877     7.5        2.0052      -0.4028       
2012-07-28T06:52:33Z    Tianjin_2     39.2915     148.6892    148.6892    33.4884     20.8665      0.0852    20.3474     20.3651     -0.087      7.5        2.0016      -0.3998       
2012-07-28T06:55:26Z    Tianjin_2     39.2991     148.7081    148.7081    33.4332     20.7298      0.0786    20.3494     20.3656     -0.0796     7.5        1.9967      -0.366        
2012-07-28T06:58:27Z    Tianjin_2     39.3067     148.7272    148.7272    33.3888     20.6565      0.0879    20.3522     20.3658     -0.0668     7.5        1.9942      -0.307        
2012-07-28T07:01:29Z    Tianjin_2     39.3144     148.7462    148.7462    33.3637     20.4296      0.0784    20.3525     20.3664     -0.0687     7.5        1.986       -0.3158       
2012-07-28T07:04:30Z    Tianjin_2     39.322      148.7652    148.7652    33.3509     20.226       0.0727    20.3535     20.367      -0.0662     7.5        1.9786      -0.3043       
2012-07-28T07:07:32Z    Tianjin_2     39.33       148.7853    148.7853    33.3991     20.3346      0.0733    20.3583     20.3666     -0.0408     7.5        1.9825      -0.1874       
2012-07-28T07:10:33Z    Tianjin_2     39.3376     148.8041    148.8041    33.4787     20.4756      0.0598    20.3647     20.3662     -0.0074     7.5        1.9874      -0.0342       
2012-07-28T07:13:26Z    Tianjin_2     39.3451     148.8227    148.8227    33.5311     20.5253      0.0616    20.3625     20.366      -0.0168     7.5        1.9891      -0.0771       
2012-07-28T07:16:27Z    Tianjin_2     39.3529     148.8418    148.8418    33.5262     20.4175      0.0678    20.3546     20.3663     -0.057      7.5        1.9852      -0.2618       
2012-07-28T07:19:29Z    Tianjin_2     39.3612     148.8621    148.8621    33.4885     20.3202      0.0676    20.3486     20.3666     -0.0881     7.5        1.9818      -0.4047       
2012-07-28T07:22:30Z    Tianjin_2     39.3689     148.8807    148.8807    33.3157     19.926       0.0846    20.3524     20.3679     -0.0757     7.5        2.0005      -0.3539       
2012-07-28T07:25:32Z    Tianjin_2     39.3761     148.8981    148.8981    33.1862     19.7717      0.0982    20.363      20.3685     -0.0267     7.5        2.0166      -0.1261       
2012-07-28T07:28:33Z    Tianjin_2     39.3845     148.9179    148.9179    33.0711     19.6891      0.1004    20.3931     20.3688     0.1192      7.5        2.0137      0.5643        
2012-07-28T07:31:26Z    Tianjin_2     39.3924     148.9365    148.9365    33.1173     19.9046      0.096     20.4144     20.3682     0.2268      7.5        2.0217      1.0734        
2012-07-28T07:34:27Z    Tianjin_2     39.4        148.9545    148.9545    33.2465     20.1944      0.0911    20.4227     20.3672     0.2723      7.5        2.0323      1.2878        
2012-07-28T07:37:29Z    Tianjin_2     39.4079     148.9728    148.9728    33.43       20.5691      0.0788    20.4172     20.366      0.2516      7.5        2.046       1.1884        
2012-07-28T07:40:30Z    Tianjin_2     39.4161     148.9923    148.9923    33.6846     20.9173      0.0685    20.4019     20.3647     0.1826      7.5        2.0586      0.8611        
2012-07-28T07:43:32Z    Tianjin_2     39.4239     149.0107    149.0107    33.7        20.9114      0.0595    20.3841     20.3647     0.0949      7.5        2.0584      0.4475        
2012-07-28T07:46:33Z    Tianjin_2     39.4321     149.03      149.03      33.7383     20.8635      0.0649    20.3608     20.3648     -0.0197     7.5        2.0565      -0.0926       
2012-07-28T07:49:26Z    Tianjin_2     39.4402     149.0491    149.0491    33.7867     20.8639      0.0642    20.3425     20.3647     -0.109      7.5        2.0564      -0.5138       
2012-07-28T07:52:27Z    Tianjin_2     39.4472     149.066     149.066     33.7905     20.8338      0.0575    20.3291     20.3648     -0.1756     7.5        2.0552      -0.8273       
2012-07-28T07:55:29Z    Tianjin_2     39.4547     149.0838    149.0838    33.7864     20.823       0.0551    20.3208     20.3648     -0.2162     7.5        2.0548      -1.019        
2012-07-28T08:37:32Z    Tianjin_2     39.5576     149.3457    149.3457    33.6646     20.9207      0.0799    20.3724     20.3648     0.0374      7.5        2.0797      0.1781        
2012-07-28T08:40:33Z    Tianjin_2     39.5649     149.3644    149.3644    33.6609     20.9461      0.0781    20.3682     20.3647     0.0173      7.5        2.0807      0.0824        
2012-07-28T08:43:26Z    Tianjin_2     39.572      149.3829    149.3829    33.6548     20.9362      0.0745    20.368      20.3647     0.0161      7.5        2.0842      0.077         
2012-07-28T08:46:27Z    Tianjin_2     39.5793     149.4021    149.4021    33.6494     20.9159      0.0752    20.3621     20.3648     -0.0132     7.5        2.0834      -0.0632       
2012-07-28T08:49:29Z    Tianjin_2     39.587      149.4225    149.4225    33.6358     20.8784      0.0701    20.3566     20.3649     -0.0407     7.5        2.0819      -0.1943       
2012-07-28T08:52:30Z    Tianjin_2     39.5946     149.4426    149.4426    33.5961     20.8492      0.073     20.3544     20.365      -0.0521     7.5        2.0808      -0.2488       
2012-07-28T08:55:32Z    Tianjin_2     39.601      149.4597    149.4597    33.5699     20.8551      0.0888    20.3493     20.3651     -0.0772     7.5        2.0811      -0.3685       
2012-07-28T08:58:33Z    Tianjin_2     39.6077     149.4777    149.4777    33.5747     20.8063      0.078     20.3508     20.3652     -0.0706     7.5        2.0792      -0.3374       
2012-07-28T09:01:26Z    Tianjin_2     39.6148     149.497     149.497     33.574      20.7806      0.079     20.3485     20.3652     -0.0821     7.5        2.0782      -0.3918       
2012-07-28T09:04:27Z    Tianjin_2     39.6219     149.5163    149.5163    33.6156     20.7819      0.0759    20.3465     20.3652     -0.0918     7.5        2.0781      -0.4381       
2012-07-28T09:07:29Z    Tianjin_2     39.6289     149.5357    149.5357    33.6277     20.6258      0.0746    20.3418     20.3656     -0.1167     7.5        2.0779      -0.5585       
2012-07-28T09:10:30Z    Tianjin_2     39.6359     149.5549    149.5549    33.6048     20.5625      0.0761    20.3396     20.3658     -0.1283     7.5        2.0756      -0.6144       
2012-07-28T09:13:32Z    Tianjin_2     39.6428     149.5745    149.5745    33.5883     20.4514      0.0783    20.3356     20.3661     -0.1497     7.5        2.0713      -0.7166       
2012-07-28T09:16:33Z    Tianjin_2     39.6499     149.5938    149.5938    33.5496     20.3506      0.0808    20.3311     20.3664     -0.1732     7.5        2.0675      -0.8295       
2012-07-28T09:19:26Z    Tianjin_2     39.6569     149.613     149.613     33.462      20.1893      0.0807    20.3321     20.3669     -0.1712     7.5        2.0615      -0.8202       
2012-07-28T09:22:27Z    Tianjin_2     39.6641     149.6329    149.6329    33.3971     20.1381      0.0861    20.3316     20.3672     -0.1749     7.5        2.0683      -0.8417       
2012-07-28T09:25:29Z    Tianjin_2     39.6711     149.6521    149.6521    33.3117     20.0905      0.079     20.3331     20.3674     -0.1687     7.5        2.0667      -0.8124       
2012-07-28T09:28:30Z    Tianjin_2     39.6779     149.6706    149.6706    33.2508     19.9944      0.0821    20.3329     20.3678     -0.1713     7.5        2.0631      -0.8256       
2012-07-28T09:31:32Z    Tianjin_2     39.685      149.6896    149.6896    33.178      19.8232      0.094     20.3297     20.3683     -0.1898     7.5        2.0566      -0.9151       
2012-07-28T09:34:33Z    Tianjin_2     39.6925     149.7085    149.7085    33.0475     19.4484      0.1331    20.3295     20.3695     -0.1965     7.5        2.0424      -0.9481       
2012-07-28T09:37:26Z    Tianjin_2     39.7        149.7277    149.7277    32.9663     19.0143      0.1653    20.3425     20.3709     -0.139      7.5        2.0258      -0.671        
2012-07-28T09:40:27Z    Tianjin_2     39.7075     149.7465    149.7465    33.041      19.062       0.1485    20.3683     20.3706     -0.0112     7.5        2.0275      -0.054        
2012-07-28T09:43:29Z    Tianjin_2     39.715      149.765     149.765     33.1138     19.2608      0.1277    20.3962     20.37       0.1289      7.5        2.035       0.6213        
2012-07-28T09:46:30Z    Tianjin_2     39.7241     149.7874    149.7874    33.1679     19.4698      0.098     20.3984     20.3693     0.1429      7.5        2.043       0.689         
2012-07-28T09:49:32Z    Tianjin_2     39.7326     149.808     149.808     33.1863     19.6027      0.0929    20.3874     20.3689     0.0908      7.5        2.048       0.4375        
2012-07-28T09:52:33Z    Tianjin_2     39.7389     149.8233    149.8233    33.1462     19.4633      0.1011    20.3744     20.3694     0.0246      7.5        2.0427      0.1186        
2012-07-28T09:55:26Z    Tianjin_2     39.7461     149.8409    149.8409    33.0737     19.2785      0.1235    20.3596     20.37       -0.0507     7.5        2.0358      -0.2444       
2012-07-28T09:58:27Z    Tianjin_2     39.7538     149.8593    149.8593    32.9747     19.2179      0.141     20.3607     20.3703     -0.0468     7.5        2.0337      -0.226        
2012-07-28T10:01:29Z    Tianjin_2     39.7611     149.8768    149.8768    32.9234     19.147       0.1651    20.3686     20.3705     -0.0095     7.5        2.0366      -0.0459       
2012-07-28T10:04:30Z    Tianjin_2     39.769      149.8956    149.8956    32.9336     19.0866      0.1634    20.3821     20.3707     0.056       7.5        2.0342      0.2709        
2012-07-28T11:37:32Z    Tianjin_2     39.9891     150.4708    150.4708    33.5031     19.9011      0.0969    20.4003     20.3677     0.1601      7.5        2.0662      0.7727        
2012-07-28T11:40:33Z    Tianjin_2     39.996      150.4886    150.4886    33.5044     19.8919      0.1008    20.374      20.3677     0.0312      7.5        2.0659      0.1504        
2012-07-28T11:43:26Z    Tianjin_2     40.003      150.5059    150.5059    33.4797     19.8071      0.1167    20.3538     20.3679     -0.0694     7.5        2.0627      -0.3352       
2012-07-28T11:46:27Z    Tianjin_2     40.0101     150.5232    150.5232    33.453      19.7231      0.1372    20.3399     20.3682     -0.1391     7.5        2.0595      -0.6715       
2012-07-28T11:49:29Z    Tianjin_2     40.0176     150.5415    150.5415    33.4324     19.6578      0.1539    20.3474     20.3684     -0.1034     7.5        2.057       -0.4992       
2012-07-28T11:52:30Z    Tianjin_2     40.025      150.5595    150.5595    33.4176     19.6446      0.1677    20.3619     20.3685     -0.0323     7.5        2.0565      -0.1562       
2012-07-28T11:55:32Z    Tianjin_2     40.0328     150.5789    150.5789    33.4068     19.7484      0.1629    20.3811     20.3682     0.0634      7.5        2.0606      0.3064        
2012-07-28T11:58:33Z    Tianjin_2     40.0402     150.5974    150.5974    33.4055     19.816       0.1574    20.3911     20.368      0.1134      7.5        2.0632      0.5478        
2012-07-28T12:01:26Z    Tianjin_2     40.0466     150.6133    150.6133    33.4054     19.8146      0.1621    20.3888     20.368      0.1022      7.5        2.0631      0.4934        
2012-07-28T12:04:27Z    Tianjin_2     40.0538     150.631     150.631     33.4091     19.8354      0.1675    20.376      20.368      0.0396      7.5        2.0575      0.1908        
2012-07-28T12:07:29Z    Tianjin_2     40.0611     150.6491    150.6491    33.4196     19.8886      0.1568    20.3693     20.3678     0.0071      7.5        2.0596      0.0342        
2012-07-28T12:10:30Z    Tianjin_2     40.0683     150.667     150.667     33.4428     19.9661      0.1503    20.3708     20.3676     0.0157      7.5        2.0625      0.0754        
2012-07-28T12:13:32Z    Tianjin_2     40.0758     150.6851    150.6851    33.4702     20.0498      0.1336    20.3676     20.3673     0.0016      7.5        2.0657      0.0075        
2012-07-28T12:16:33Z    Tianjin_2     40.0833     150.7033    150.7033    33.4727     20.0465      0.1296    20.3734     20.3673     0.03        7.5        2.0655      0.1444        
2012-07-28T12:19:26Z    Tianjin_2     40.091      150.7217    150.7217    33.4638     20.029       0.1306    20.3808     20.3674     0.0657      7.5        2.0649      0.3162        
2012-07-28T12:22:27Z    Tianjin_2     40.0983     150.7393    150.7393    33.4548     20.0502      0.13      20.3789     20.3673     0.0569      7.5        2.0657      0.2739        
2012-07-28T12:25:29Z    Tianjin_2     40.1051     150.7557    150.7557    33.4499     20.1223      0.1339    20.3749     20.3671     0.0381      7.5        2.0685      0.1834        
2012-07-28T12:28:30Z    Tianjin_2     40.1124     150.7733    150.7733    33.4328     20.1114      0.1532    20.3684     20.3672     0.0058      7.5        2.0681      0.0281        
2012-07-28T12:31:32Z    Tianjin_2     40.1196     150.7919    150.7919    33.4022     19.9705      0.1735    20.36       20.3676     -0.0375     7.5        2.0628      -0.1804       
2012-07-28T12:34:33Z    Tianjin_2     40.127      150.8111    150.8111    33.3779     19.9385      0.1989    20.3608     20.3677     -0.0341     7.5        2.0653      -0.1643       
2012-07-28T12:37:26Z    Tianjin_2     40.1341     150.829     150.829     33.3296     19.8928      0.2021    20.3591     20.3679     -0.0434     7.5        2.0636      -0.2095       
2012-07-28T12:40:27Z    Tianjin_2     40.1409     150.8463    150.8463    33.2886     19.8776      0.203     20.3597     20.368      -0.0407     7.5        2.0632      -0.1963       
2012-07-28T12:43:29Z    Tianjin_2     40.1481     150.8655    150.8655    33.2619     19.9506      0.206     20.3629     20.3679     -0.0243     7.5        2.066       -0.1172       
2012-07-28T12:46:30Z    Tianjin_2     40.1553     150.8858    150.8858    33.2481     19.9261      0.2       20.3642     20.3679     -0.0184     7.5        2.0598      -0.0886       
2012-07-28T12:49:32Z    Tianjin_2     40.162      150.9046    150.9046    33.2383     19.9251      0.2237    20.3601     20.368      -0.0388     7.5        2.0598      -0.1869       
2012-07-28T12:52:33Z    Tianjin_2     40.1685     150.9225    150.9225    33.2268     19.8712      0.2422    20.359      20.3681     -0.0447     7.5        2.0578      -0.2152       
2012-07-28T12:55:26Z    Tianjin_2     40.1752     150.9414    150.9414    33.2167     19.8462      0.2564    20.3555     20.3682     -0.0626     7.5        2.0569      -0.3014       
2012-07-28T12:58:27Z    Tianjin_2     40.1829     150.9626    150.9626    33.2222     19.8589      0.2478    20.3579     20.3682     -0.0503     7.5        2.0574      -0.2426       
2012-07-28T13:01:29Z    Tianjin_2     40.19       150.9815    150.9815    33.2335     19.8093      0.2349    20.3657     20.3683     -0.0128     7.5        2.0555      -0.0619       
2012-07-28T13:04:30Z    Tianjin_2     40.1963     150.9986    150.9986    33.2686     19.7774      0.2029    20.3659     20.3683     -0.0117     7.5        2.0542      -0.0564       
2012-07-28T13:07:32Z    Tianjin_2     40.2035     151.0177    151.0177    33.3168     19.8562      0.1759    20.3665     20.368      -0.0077     7.5        2.0571      -0.0369       
2012-07-28T13:10:33Z    Tianjin_2     40.2108     151.0371    151.0371    33.3636     19.9637      0.1606    20.3612     20.3677     -0.0319     7.5        2.061       -0.1535       
2012-07-28T13:13:26Z    Tianjin_2     40.218      151.0563    151.0563    33.3761     20.0549      0.1604    20.3524     20.3674     -0.0737     7.5        2.0644      -0.3549       
2012-07-28T13:16:27Z    Tianjin_2     40.2248     151.0742    151.0742    33.3727     20.0484      0.1819    20.3417     20.3674     -0.1264     7.5        2.0642      -0.6084       
2012-07-28T13:19:29Z    Tianjin_2     40.2318     151.0929    151.0929    33.3927     19.9977      0.1776    20.3321     20.3676     -0.1741     7.5        2.0622      -0.8377       
2012-07-28T13:22:30Z    Tianjin_2     40.2389     151.1125    151.1125    33.4087     19.9114      0.1565    20.3291     20.3678     -0.1899     7.5        2.0589      -0.9137       
2012-07-28T13:25:32Z    Tianjin_2     40.2459     151.1318    151.1318    33.4104     19.8641      0.1363    20.3277     20.3679     -0.1975     7.5        2.049       -0.9463       
2012-07-28T13:28:33Z    Tianjin_2     40.2526     151.1503    151.1503    33.3933     19.8448      0.1338    20.3236     20.368      -0.2178     7.5        2.0483      -1.044        
2012-07-28T13:31:26Z    Tianjin_2     40.2595     151.1694    151.1694    33.3663     19.8287      0.1126    20.3164     20.368      -0.2535     7.5        2.0477      -1.2153       
2012-07-28T13:34:27Z    Tianjin_2     40.2666     151.1888    151.1888    33.3457     19.8771      0.1004    20.3116     20.3679     -0.2767     7.5        2.0496      -1.3268       
2012-07-28T13:37:29Z    Tianjin_2     40.273      151.2066    151.2066    33.3385     19.9343      0.0978    20.3044     20.3678     -0.3113     7.5        2.0518      -1.4925       
2012-07-28T13:40:30Z    Tianjin_2     40.2796     151.2248    151.2248    33.3407     19.9048      0.102     20.2956     20.3679     -0.3548     7.5        2.0507      -1.7012       
2012-07-28T13:43:32Z    Tianjin_2     40.2864     151.2441    151.2441    33.3464     19.9223      0.1065    20.2885     20.3678     -0.3895     7.5        2.0513      -1.8672       
2012-07-28T13:46:33Z    Tianjin_2     40.293      151.2632    151.2632    33.3516     19.9064      0.1083    20.283      20.3679     -0.4165     7.5        2.0507      -1.9968       
2012-07-28T13:49:26Z    Tianjin_2     40.2998     151.2825    151.2825    33.3703     19.9531      0.1117    20.2811     20.3677     -0.425      7.5        2.0524      -2.0373       
2012-07-28T13:52:27Z    Tianjin_2     40.3065     151.3019    151.3019    33.4084     20.0054      0.1163    20.2778     20.3675     -0.4406     7.5        2.0543      -2.1116       
2012-07-28T13:55:29Z    Tianjin_2     40.3132     151.3212    151.3212    33.4414     20.1321      0.1052    20.2754     20.3671     -0.4503     7.5        2.0591      -2.1576       
2012-07-28T14:37:32Z    Tianjin_2     40.4074     151.5889    151.5889    33.6217     20.2199      0.0766    20.3334     20.3666     -0.1631     7.5        2.0929      -0.7921       
2012-07-28T14:40:33Z    Tianjin_2     40.4141     151.6081    151.6081    33.6089     20.1169      0.0753    20.3378     20.3669     -0.1428     7.5        2.0889      -0.6938       
2012-07-28T14:43:26Z    Tianjin_2     40.4209     151.6274    151.6274    33.5926     20.0538      0.0793    20.3394     20.3671     -0.1362     7.5        2.0948      -0.6644       
2012-07-28T14:46:27Z    Tianjin_2     40.4276     151.6466    151.6466    33.6176     20.2951      0.0726    20.3395     20.3665     -0.1326     7.5        2.1043      -0.6465       
2012-07-28T14:49:29Z    Tianjin_2     40.4344     151.6661    151.6661    33.637      20.4092      0.0725    20.3373     20.3661     -0.1414     7.5        2.1088      -0.6896       
2012-07-28T14:52:30Z    Tianjin_2     40.4416     151.6864    151.6864    33.6412     20.4705      0.0735    20.3293     20.366      -0.1802     7.5        2.1112      -0.8787       
2012-07-28T14:55:32Z    Tianjin_2     40.449      151.706     151.706     33.6442     20.4937      0.0721    20.3198     20.3659     -0.2261     7.5        2.1121      -1.1028       
2012-07-28T14:58:33Z    Tianjin_2     40.4563     151.7235    151.7235    33.6423     20.5137      0.0682    20.3104     20.3658     -0.2723     7.5        2.1129      -1.328        
2012-07-28T15:01:26Z    Tianjin_2     40.4643     151.7412    151.7412    33.6523     20.5801      0.0763    20.3057     20.3657     -0.2943     7.5        2.1155      -1.435        
2012-07-28T15:04:27Z    Tianjin_2     40.4723     151.7592    151.7592    33.6669     20.6509      0.0661    20.299      20.3655     -0.3263     7.5        2.1183      -1.591        
2012-07-28T15:07:29Z    Tianjin_2     40.4805     151.7771    151.7771    33.6732     20.6888      0.0681    20.2945     20.3653     -0.3481     7.5        2.1198      -1.6972       
2012-07-28T15:10:30Z    Tianjin_2     40.4887     151.7956    151.7956    33.6853     20.6853      0.0694    20.2873     20.3653     -0.3834     7.5        2.1196      -1.8692       
2012-07-28T15:13:32Z    Tianjin_2     40.4964     151.8141    151.8141    33.7308     20.7574      0.0696    20.2873     20.3651     -0.3822     7.5        2.1224      -1.8629       
2012-07-28T15:16:33Z    Tianjin_2     40.5039     151.8334    151.8334    33.7602     20.7984      0.0661    20.2853     20.3649     -0.3911     7.5        2.124       -1.9062       
2012-07-28T15:19:26Z    Tianjin_2     40.5107     151.8518    151.8518    33.7503     20.6929      0.0702    20.2864     20.3652     -0.3872     7.5        2.1198      -1.8869       
2012-07-28T15:22:27Z    Tianjin_2     40.5173     151.8701    151.8701    33.7227     20.5718      0.0695    20.2895     20.3656     -0.3734     7.5        2.115       -1.8201       
2012-07-28T15:25:29Z    Tianjin_2     40.5245     151.8897    151.8897    33.692      20.464       0.0758    20.2912     20.3659     -0.3666     7.5        2.1241      -1.7984       
2012-07-28T15:28:30Z    Tianjin_2     40.5312     151.908     151.908     33.6862     20.4574      0.0713    20.29       20.3659     -0.3727     7.5        2.1239      -1.8286       
2012-07-28T15:31:32Z    Tianjin_2     40.538      151.9266    151.9266    33.6953     20.4853      0.0698    20.2864     20.3658     -0.3899     7.5        2.125       -1.9125       
2012-07-28T15:34:33Z    Tianjin_2     40.5456     151.9472    151.9472    33.7364     20.6928      0.0698    20.2853     20.3652     -0.3927     7.5        2.1333      -1.9264       
2012-07-28T15:37:26Z    Tianjin_2     40.5523     151.9651    151.9651    33.7749     20.8092      0.0727    20.2854     20.3649     -0.3906     7.5        2.138       -1.9156       
2012-07-28T15:40:27Z    Tianjin_2     40.5585     151.982     151.982     33.7722     20.7641      0.0686    20.2875     20.365      -0.3805     7.5        2.1361      -1.8661       
2012-07-28T15:43:29Z    Tianjin_2     40.5653     152.0022    152.0022    33.7652     20.7482      0.0758    20.2876     20.3651     -0.3806     7.5        2.1355      -1.8667       
2012-07-28T15:46:30Z    Tianjin_2     40.5722     152.022     152.022     33.7638     20.7268      0.0668    20.2873     20.3651     -0.3823     7.5        2.1346      -1.8751       
2012-07-28T15:49:32Z    Tianjin_2     40.5784     152.0401    152.0401    33.773      20.7956      0.0692    20.2827     20.3649     -0.4037     7.5        2.1374      -1.9801       
2012-07-28T15:52:33Z    Tianjin_2     40.5846     152.0583    152.0583    33.7748     20.8233      0.0658    20.2797     20.3649     -0.4182     7.5        2.1385      -2.0512       
2012-07-28T15:55:26Z    Tianjin_2     40.5912     152.0778    152.0778    33.7601     20.7465      0.0699    20.2762     20.3651     -0.4365     7.5        2.1354      -2.141        
2012-07-28T15:58:27Z    Tianjin_2     40.5979     152.0973    152.0973    33.741      20.7775      0.0676    20.2732     20.365      -0.4509     7.5        2.1367      -2.2119       
2012-07-28T16:01:29Z    Tianjin_2     40.6043     152.116     152.116     33.7372     20.797       0.0636    20.2736     20.365      -0.4489     7.5        2.1376      -2.202        
2012-07-28T16:04:30Z    Tianjin_2     40.6107     152.1351    152.1351    33.7432     20.8447      0.0656    20.268      20.3648     -0.4757     7.5        2.1519      -2.3469       
2012-07-28T16:07:32Z    Tianjin_2     40.6172     152.1544    152.1544    33.749      20.8718      0.0676    20.2647     20.3648     -0.4914     7.5        2.153       -2.4244       
2012-07-28T16:10:33Z    Tianjin_2     40.6239     152.1732    152.1732    33.7508     20.9002      0.0751    20.2626     20.3647     -0.5014     7.5        2.1542      -2.474        
2012-07-28T16:13:26Z    Tianjin_2     40.6312     152.1937    152.1937    33.6957     20.786       0.0692    20.2637     20.3651     -0.4976     7.5        2.1429      -2.4482       
2012-07-28T16:16:27Z    Tianjin_2     40.6381     152.2132    152.2132    33.6311     20.8277      0.058     20.2671     20.365      -0.4808     7.5        2.1448      -2.3664       
2012-07-28T16:19:29Z    Tianjin_2     40.6442     152.2309    152.2309    33.6466     20.9027      0.0571    20.2669     20.3648     -0.4809     7.5        2.1477      -2.3668       
2012-07-28T16:22:30Z    Tianjin_2     40.6509     152.2499    152.2499    33.6684     21.0001      0.0518    20.2624     20.3646     -0.5017     7.5        2.1515      -2.4689       
2012-07-28T16:25:32Z    Tianjin_2     40.6574     152.2686    152.2686    33.6321     21.2171      0.0516    20.2554     20.3641     -0.5334     7.5        2.1602      -2.6261       
2012-07-28T16:28:33Z    Tianjin_2     40.6639     152.2876    152.2876    33.6219     21.2529      0.0562    20.2491     20.364      -0.5644     7.5        2.1617      -2.7786       
2012-07-28T16:31:26Z    Tianjin_2     40.6711     152.3089    152.3089    33.6221     21.4185      0.0517    20.2413     20.3636     -0.6006     7.5        2.1682      -2.957        
2012-07-28T16:34:27Z    Tianjin_2     40.6777     152.3283    152.3283    33.5862     21.4086      0.0505    20.2392     20.3636     -0.611      7.5        2.1679      -3.0092       
2012-07-28T16:37:29Z    Tianjin_2     40.6837     152.346     152.346     33.5711     21.3427      0.0478    20.2403     20.3638     -0.6065     7.5        2.1653      -2.9874       
2012-07-28T16:40:30Z    Tianjin_2     40.6902     152.3648    152.3648    33.5693     21.3042      0.0574    20.2454     20.3639     -0.5821     7.5        2.1638      -2.8671       
2012-07-28T16:43:32Z    Tianjin_2     40.6975     152.383     152.383     33.5578     21.3099      0.0513    20.2492     20.3639     -0.5634     7.5        2.1542      -2.7626       
2012-07-28T16:46:33Z    Tianjin_2     40.7051     152.4026    152.4026    33.55       21.307       0.048     20.2559     20.3639     -0.5304     7.5        2.1541      -2.6008       
2012-07-28T16:49:26Z    Tianjin_2     40.7127     152.4215    152.4215    33.56       21.2472      0.0497    20.2607     20.3641     -0.5076     7.5        2.1517      -2.489        
2012-07-28T16:52:27Z    Tianjin_2     40.7197     152.4395    152.4395    33.5773     21.2037      0.0513    20.2664     20.3642     -0.4799     7.5        2.15        -2.3527       
2012-07-28T16:55:29Z    Tianjin_2     40.727      152.4587    152.4587    33.5889     21.1771      0.0493    20.2667     20.3642     -0.4789     7.5        2.1489      -2.3474       
2012-07-28T17:37:32Z    Tianjin_2     40.8193     152.7282    152.7282    33.5922     21.078       0.0739    20.2682     20.3645     -0.4726     7.5        2.1166      -2.2861       
2012-07-28T17:40:33Z    Tianjin_2     40.8261     152.7474    152.7474    33.5795     20.8982      0.1071    20.2656     20.3649     -0.4878     7.5        2.1098      -2.3598       
2012-07-28T17:43:26Z    Tianjin_2     40.8329     152.7661    152.7661    33.5653     20.4344      0.1824    20.2653     20.3662     -0.4953     7.5        2.0923      -2.3965       
2012-07-28T19:10:33Z    Tianjin_2     41.0244     153.3267    153.3267    33.6936     19.9595      0.0841    20.2652     20.3672     -0.5008     7.5        1.9721      -2.3019       
2012-07-28T19:13:26Z    Tianjin_2     41.0308     153.3463    153.3463    33.6615     19.8559      0.0848    20.2586     20.3676     -0.5349     7.5        1.9687      -2.4599       
2012-07-28T19:16:27Z    Tianjin_2     41.0373     153.3657    153.3657    33.656      19.8524      0.0802    20.2575     20.3676     -0.5407     7.5        1.9686      -2.4864       
2012-07-28T19:19:29Z    Tianjin_2     41.0442     153.3865    153.3865    33.6658     19.7382      0.0845    20.2569     20.3679     -0.545      7.5        1.9118      -2.439        
2012-07-28T19:22:30Z    Tianjin_2     41.0506     153.4058    153.4058    33.6638     19.9246      0.086     20.2584     20.3674     -0.5352     7.5        1.9178      -2.3944       
2012-07-28T19:25:32Z    Tianjin_2     41.057      153.4249    153.4249    33.6597     19.9667      0.0893    20.2612     20.3673     -0.5209     7.5        1.9191      -2.3304       
2012-07-28T19:28:33Z    Tianjin_2     41.0636     153.4449    153.4449    33.6492     19.8246      0.0941    20.2588     20.3677     -0.5347     7.5        1.9146      -2.3927       
2012-07-28T19:31:26Z    Tianjin_2     41.07       153.4642    153.4642    33.6373     19.8903      0.0884    20.2534     20.3675     -0.5601     7.5        1.9167      -2.5064       
2012-07-28T19:34:27Z    Tianjin_2     41.0764     153.4841    153.4841    33.6521     20.0085      0.0797    20.253      20.3672     -0.5605     7.5        1.9205      -2.5072       
2012-07-28T19:37:29Z    Tianjin_2     41.0829     153.5038    153.5038    33.6722     20.1919      0.0686    20.2494     20.3666     -0.5758     7.5        1.9263      -2.5748       
2012-07-28T19:40:30Z    Tianjin_2     41.0896     153.5227    153.5227    33.6698     20.307       0.0687    20.2437     20.3663     -0.6022     7.5        1.93        -2.6924       
2012-07-28T19:43:32Z    Tianjin_2     41.0962     153.5413    153.5413    33.6814     20.243       0.0637    20.2376     20.3665     -0.633      7.5        1.928       -2.8299       
2012-07-28T19:46:33Z    Tianjin_2     41.103      153.5603    153.5603    33.682      20.2285      0.0638    20.2289     20.3665     -0.6758     7.5        1.9275      -3.0216       
2012-07-28T19:49:26Z    Tianjin_2     41.1097     153.5792    153.5792    33.6761     20.2677      0.0674    20.225      20.3664     -0.6947     7.5        1.9288      -3.106        
2012-07-28T19:52:27Z    Tianjin_2     41.1162     153.5976    153.5976    33.6692     20.2892      0.0684    20.2226     20.3664     -0.706      7.5        1.9295      -3.1564       
2012-07-28T19:55:29Z    Tianjin_2     41.1229     153.6163    153.6163    33.6529     20.3241      0.0722    20.223      20.3663     -0.7036     7.5        1.9306      -3.1458       
2012-07-28T20:37:32Z    Tianjin_2     41.2182     153.884     153.884     33.2881     18.1398      0.8288    20.975      20.3729     2.955       7.5        1.7898      12.784        
2012-07-28T20:40:33Z    Tianjin_2     41.2254     153.9038    153.9038    33.2754     18.106       0.8724    21.0668     20.3731     3.4053      7.5        1.7888      14.7342       
2012-07-28T20:43:26Z    Tianjin_2     41.2328     153.9242    153.9242    33.2814     18.1082      0.8411    21.169      20.373      3.9069      7.5        1.7888      16.9038       
2012-07-28T20:46:27Z    Tianjin_2     41.2398     153.9437    153.9437    33.2828     18.0093      0.8382    21.2414     20.3733     4.2607      7.5        1.7858      18.4377       
2012-07-28T20:49:29Z    Tianjin_2     41.2467     153.9626    153.9626    33.2816     18.0424      0.829     21.2693     20.3732     4.3984      7.5        1.7868      19.0327       
2012-07-28T20:52:30Z    Tianjin_2     41.2541     153.9831    153.9831    33.2789     18.0402      0.8232    21.2927     20.3732     4.5133      7.5        1.7867      19.53         
2012-07-28T20:55:32Z    Tianjin_2     41.262      154.0049    154.0049    33.2693     17.9264      0.8605    21.3154     20.3736     4.6229      7.5        1.7833      20.0097       
2012-07-28T20:58:33Z    Tianjin_2     41.2691     154.0241    154.0241    33.2655     17.9038      0.879     21.3334     20.3737     4.7105      7.5        1.7826      20.3905       
2012-07-28T21:01:26Z    Tianjin_2     41.2756     154.0418    154.0418    33.2605     17.8827      0.8977    21.3658     20.3737     4.8691      7.5        1.7819      21.0787       
2012-07-28T21:04:27Z    Tianjin_2     41.2824     154.0613    154.0613    33.2537     17.8976      0.8849    21.3955     20.3737     5.0151      7.5        1.7824      21.7108       
2012-07-28T21:07:29Z    Tianjin_2     41.2894     154.0808    154.0808    33.2472     17.8888      0.9067    21.4273     20.3737     5.1712      7.5        1.7821      22.3882       
2012-07-28T21:10:30Z    Tianjin_2     41.2967     154.1011    154.1011    33.2444     17.8306      0.9361    21.4569     20.3739     5.3154      7.5        1.7804      23.0152       
2012-07-28T21:13:32Z    Tianjin_2     41.304      154.1216    154.1216    33.2443     17.8417      0.9287    21.495      20.3739     5.5025      7.5        1.7807      23.825        
2012-07-28T21:16:33Z    Tianjin_2     41.3112     154.143     154.143     33.2493     17.9321      0.8594    21.5366     20.3736     5.7082      7.5        1.7416      24.1311       
2012-07-28T21:19:26Z    Tianjin_2     41.3177     154.1629    154.1629    33.2499     18.0064      0.7671    21.5783     20.3734     5.9144      7.5        1.7439      24.9993       
2012-07-28T21:22:27Z    Tianjin_2     41.3237     154.1815    154.1815    33.2465     18.0139      0.7426    21.5867     20.3734     5.9553      7.5        1.7441      25.1725       
2012-07-28T21:25:29Z    Tianjin_2     41.3302     154.2012    154.2012    33.2416     18.0399      0.7161    21.5695     20.3733     5.8712      7.5        1.7449      24.8169       
2012-07-28T21:28:30Z    Tianjin_2     41.3365     154.2207    154.2207    33.2421     18.0072      0.6763    21.5542     20.3734     5.7956      7.5        1.7439      24.4987       
2012-07-28T21:31:32Z    Tianjin_2     41.3428     154.24      154.24      33.25       17.7599      0.6251    21.5364     20.3741     5.7048      7.5        1.7365      24.1237       
2012-07-28T21:34:33Z    Tianjin_2     41.3493     154.2598    154.2598    33.2536     17.817       0.5914    21.5076     20.3739     5.5645      7.5        1.7382      23.5275       
2012-07-28T21:37:26Z    Tianjin_2     41.3562     154.2809    154.2809    33.2561     17.9607      0.5281    21.4829     20.3735     5.445       7.5        1.7425      23.0163       
2012-07-28T21:40:27Z    Tianjin_2     41.3629     154.3013    154.3013    33.2564     18.0239      0.4695    21.4421     20.3733     5.2459      7.5        1.7444      22.1722       
2012-07-28T21:43:29Z    Tianjin_2     41.3691     154.3203    154.3203    33.2589     18.0834      0.4555    21.3941     20.3731     5.0115      7.5        1.7462      21.1786       
2012-07-28T21:46:30Z    Tianjin_2     41.3758     154.3405    154.3405    33.2644     18.1451      0.4758    21.3581     20.373      4.8354      7.5        1.7853      20.8674       
2012-07-28T21:49:32Z    Tianjin_2     41.3828     154.3612    154.3612    33.2696     18.0793      0.4837    21.33       20.3731     4.6966      7.5        1.7832      20.2693       
2012-07-28T21:52:33Z    Tianjin_2     41.3894     154.3807    154.3807    33.2697     18.0944      0.496     21.3168     20.3731     4.6323      7.5        1.7536      19.6548       
2012-07-28T21:55:26Z    Tianjin_2     41.3961     154.4001    154.4001    33.2714     18.0893      0.5224    21.3051     20.3731     4.5745      7.5        1.7535      19.4093       
2012-07-28T21:58:27Z    Tianjin_2     41.4028     154.4205    154.4205    33.2804     18.0377      0.5999    21.2951     20.3732     4.525       7.5        1.7519      19.1995       
2012-07-28T22:01:29Z    Tianjin_2     41.409      154.4394    154.4394    33.2865     18.0552      0.6477    21.3015     20.3732     4.5563      7.5        1.7524      19.331        
2012-07-28T22:04:30Z    Tianjin_2     41.415      154.4579    154.4579    33.2939     18.0883      0.6951    21.3327     20.3731     4.7103      7.5        1.7534      19.9824       
2012-07-28T22:07:32Z    Tianjin_2     41.4214     154.4778    154.4778    33.2999     18.1858      0.6942    21.3722     20.3728     4.9058      7.5        1.7565      20.8089       
2012-07-28T22:10:33Z    Tianjin_2     41.4277     154.4973    154.4973    33.3075     18.2408      0.6601    21.4054     20.3726     5.0696      7.5        1.7582      21.5012       
2012-07-28T22:13:26Z    Tianjin_2     41.4341     154.5175    154.5175    33.313      18.3631      0.5972    21.4212     20.3722     5.1489      7.5        1.762       21.8339       
2012-07-28T22:16:27Z    Tianjin_2     41.4405     154.5376    154.5376    33.3125     18.4279      0.568     21.4193     20.3721     5.1405      7.5        1.764       21.7967       
2012-07-28T22:19:29Z    Tianjin_2     41.447      154.5576    154.5576    33.3088     18.3694      0.5834    21.3941     20.3722     5.0158      7.5        1.7622      21.2701       
2012-07-28T22:22:30Z    Tianjin_2     41.4536     154.5777    154.5777    33.3017     18.2509      0.566     21.3733     20.3726     4.9121      7.5        1.7585      20.8339       
2012-07-28T22:25:32Z    Tianjin_2     41.4601     154.5978    154.5978    33.2959     18.2332      0.4948    21.3635     20.3726     4.8634      7.5        1.758       20.6287       
2012-07-28T22:28:33Z    Tianjin_2     41.4666     154.6177    154.6177    33.2921     18.2885      0.4575    21.3583     20.3725     4.8389      7.5        1.7597      20.5238       
2012-07-28T22:31:26Z    Tianjin_2     41.4728     154.6372    154.6372    33.2959     18.3876      0.4481    21.3485     20.3722     4.7923      7.5        1.7547      20.2301       
2012-07-28T22:34:27Z    Tianjin_2     41.479      154.6571    154.6571    33.3086     18.3639      0.4526    21.3296     20.3722     4.6993      7.5        1.7539      19.8363       
2012-07-28T22:37:29Z    Tianjin_2     41.485      154.6764    154.6764    33.3167     18.3443      0.4603    21.3055     20.3723     4.5806      7.5        1.7533      19.3345       
2012-07-28T22:40:30Z    Tianjin_2     41.4912     154.6965    154.6965    33.3288     18.3351      0.4449    21.2805     20.3723     4.4578      7.5        1.753       18.8145       
2012-07-28T22:43:32Z    Tianjin_2     41.4976     154.7174    154.7174    33.3725     18.4102      0.436     21.2649     20.372      4.3827      7.5        1.7553      18.4909       
2012-07-28T22:46:33Z    Tianjin_2     41.5036     154.7372    154.7372    33.4445     18.6122      0.3995    21.2437     20.3713     4.2821      7.5        1.7615      18.054        
2012-07-28T22:49:26Z    Tianjin_2     41.5096     154.7569    154.7569    33.5069     18.7962      0.3687    21.2049     20.3707     4.0948      7.5        1.7672      17.2543       
2012-07-28T22:52:27Z    Tianjin_2     41.5156     154.7769    154.7769    33.5447     18.9124      0.3066    21.1299     20.3703     3.7285      7.5        1.7708      15.705        
2012-07-28T22:55:29Z    Tianjin_2     41.5214     154.7962    154.7962    33.5544     18.9183      0.2665    21.0251     20.3703     3.2145      7.5        1.771       13.5388       
2012-07-28T23:37:32Z    Tianjin_2     41.6102     155.0749    155.0749    33.5239     18.6192      0.3015    21.2066     20.3712     4.1007      7.5        1.7658      17.3205       
2012-07-28T23:40:33Z    Tianjin_2     41.6165     155.0943    155.0943    33.5208     18.6776      0.2916    21.19       20.371      4.0204      7.5        1.7676      16.9811       
2012-07-28T23:43:26Z    Tianjin_2     41.6226     155.1134    155.1134    33.5184     18.7078      0.2868    21.1707     20.371      3.9261      7.5        1.7686      16.5826       
2012-07-28T23:46:27Z    Tianjin_2     41.6292     155.134     155.134     33.5182     18.7106      0.2839    21.1528     20.371      3.8379      7.5        1.8338      16.807        
2012-07-28T23:49:29Z    Tianjin_2     41.6357     155.1545    155.1545    33.5212     18.7179      0.2856    21.1335     20.3709     3.7435      7.5        1.834       16.3933       
2012-07-28T23:52:30Z    Tianjin_2     41.642      155.1745    155.1745    33.5192     18.7416      0.2819    21.1114     20.3709     3.6355      7.5        1.8349      15.9203       
2012-07-28T23:55:32Z    Tianjin_2     41.6482     155.194     155.194     33.5087     18.8104      0.2879    21.0859     20.3707     3.511       7.5        1.8372      15.3756       
2012-07-28T23:58:33Z    Tianjin_2     41.6545     155.214     155.214     33.5048     18.8247      0.2993    21.0683     20.3706     3.4251      7.5        1.8377      14.9998       
2012-07-29T00:01:26Z    Tianjin_2     41.6612     155.2348    155.2348    33.4947     18.7708      0.3287    21.056      20.3708     3.3637      7.5        1.972       15.8241       
2012-07-29T00:04:27Z    Tianjin_2     41.6675     155.2548    155.2548    33.4964     18.6854      0.3748    21.0525     20.3711     3.3453      7.5        1.9682      15.7329       
2012-07-29T00:07:29Z    Tianjin_2     41.6737     155.2742    155.2742    33.5058     18.5635      0.4456    21.0649     20.3714     3.4045      7.5        1.9629      16.0038       
2012-07-29T00:10:30Z    Tianjin_2     41.6799     155.294     155.294     33.4929     18.4348      0.4916    21.0848     20.3718     3.5001      7.5        1.9574      16.4478       
2012-07-29T00:13:32Z    Tianjin_2     41.6866     155.315     155.315     33.481      18.2419      0.4767    21.1075     20.3724     3.6086      7.5        1.949       16.9484       
2012-07-29T00:16:33Z    Tianjin_2     41.693      155.335     155.335     33.4595     18.0628      0.4202    21.1225     20.3729     3.6792      7.5        1.9414      17.2723       
2012-07-29T00:19:26Z    Tianjin_2     41.699      155.3539    155.3539    33.4473     17.9463      0.3906    21.1184     20.3733     3.6574      7.5        1.9364      17.165        
2012-07-29T00:22:27Z    Tianjin_2     41.7056     155.374     155.374     33.4431     17.9433      0.3875    21.103      20.3733     3.5816      7.5        1.9362      16.8096       
2012-07-29T00:25:29Z    Tianjin_2     41.7126     155.3947    155.3947    33.4404     18.0164      0.4237    21.0944     20.3731     3.5406      7.5        1.9251      16.4991       
2012-07-29T00:28:30Z    Tianjin_2     41.7197     155.4144    155.4144    33.4475     18.0887      0.4227    21.089      20.3729     3.515       7.5        1.9282      16.3827       
2012-07-29T00:31:32Z    Tianjin_2     41.7262     155.4327    155.4327    33.4517     18.123       0.4122    21.0846     20.3728     3.494       7.5        1.9296      16.2859       
2012-07-29T00:34:33Z    Tianjin_2     41.7329     155.4515    155.4515    33.4352     18.0812      0.3879    21.0872     20.3729     3.5062      7.5        1.9279      16.3425       
2012-07-29T00:37:26Z    Tianjin_2     41.7399     155.471     155.471     33.4172     18.0072      0.3553    21.0817     20.3731     3.4778      7.5        1.9248      16.2087       
2012-07-29T00:40:27Z    Tianjin_2     41.7468     155.4906    155.4906    33.4096     18.0234      0.3245    21.0739     20.3731     3.44        7.5        1.9255      16.0341       
2012-07-29T00:43:29Z    Tianjin_2     41.7539     155.5107    155.5107    33.3991     18.0562      0.3139    21.0654     20.373      3.3985      7.5        1.9269      15.8435       
2012-07-29T00:46:30Z    Tianjin_2     41.7608     155.53      155.53      33.412      18.0444      0.3286    21.0644     20.373      3.3935      7.5        1.9264      15.818        
2012-07-29T00:49:32Z    Tianjin_2     41.7676     155.5488    155.5488    33.4103     18.1079      0.3348    21.0757     20.3729     3.4498      7.5        1.9291      16.0838       
2012-07-29T00:52:33Z    Tianjin_2     41.7744     155.5682    155.5682    33.4235     18.2179      0.3561    21.1049     20.3725     3.595       7.5        1.9337      16.7651       
2012-07-29T00:55:26Z    Tianjin_2     41.7815     155.5884    155.5884    33.4351     18.3954      0.3857    21.1299     20.372      3.7203      7.5        1.9413      17.3577       
2012-07-29T00:58:27Z    Tianjin_2     41.7888     155.6093    155.6093    33.4741     18.4904      0.3777    21.1514     20.3716     3.8275      7.5        1.9452      17.8584       
2012-07-29T01:01:29Z    Tianjin_2     41.796      155.6297    155.6297    33.5212     18.5565      0.3601    21.1521     20.3714     3.8324      7.5        1.9121      17.5501       
2012-07-29T01:04:30Z    Tianjin_2     41.8017     155.6484    155.6484    33.5436     18.7468      0.3266    21.1444     20.3708     3.7975      7.5        1.9201      17.3977       
2012-07-29T01:07:32Z    Tianjin_2     41.807      155.6668    155.6668    33.5399     18.8755      0.2915    21.1244     20.3704     3.7011      7.5        1.9255      16.9632       
2012-07-29T01:10:33Z    Tianjin_2     41.813      155.6871    155.6871    33.5513     18.8782      0.2759    21.0742     20.3704     3.455       7.5        1.9256      15.8341       
2012-07-29T01:13:26Z    Tianjin_2     41.8189     155.7071    155.7071    33.5652     18.853       0.2594    21.0133     20.3705     3.1555      7.5        1.9245      14.4588       
2012-07-29T01:16:27Z    Tianjin_2     41.8249     155.7276    155.7276    33.5638     18.8378      0.2404    20.9688     20.3705     2.9368      7.5        1.9238      13.4565       
2012-07-29T01:19:29Z    Tianjin_2     41.8308     155.7481    155.7481    33.5557     18.847       0.2267    20.9391     20.3705     2.7915      7.5        1.9242      12.7915       
2012-07-29T01:22:30Z    Tianjin_2     41.8368     155.7685    155.7685    33.5383     18.7798      0.2297    20.9195     20.3707     2.6941      7.5        1.9214      12.3445       
2012-07-29T01:25:32Z    Tianjin_2     41.8429     155.7892    155.7892    33.5233     18.7409      0.2835    20.91       20.3709     2.6466      7.5        1.9199      12.1265       
2012-07-29T01:28:33Z    Tianjin_2     41.8495     155.8122    155.8122    33.5159     18.7522      0.328     20.9074     20.3708     2.6339      7.5        1.9203      12.0694       
2012-07-29T01:31:26Z    Tianjin_2     41.8553     155.8316    155.8316    33.5182     18.6658      0.3749    20.9145     20.3711     2.6677      7.5        1.9167      12.2208       
2012-07-29T01:34:27Z    Tianjin_2     41.8603     155.8485    155.8485    33.5348     18.6178      0.3571    20.9293     20.3712     2.7397      7.5        1.9147      12.5472       
2012-07-29T01:37:29Z    Tianjin_2     41.8664     155.8695    155.8695    33.5357     18.5461      0.3641    20.9501     20.3714     2.8408      7.5        1.9117      13.0075       
2012-07-29T01:40:30Z    Tianjin_2     41.8721     155.8888    155.8888    33.5548     18.6268      0.33      20.9567     20.3711     2.8746      7.5        1.8603      12.7874       
2012-07-29T01:43:32Z    Tianjin_2     41.8777     155.908     155.908     33.5685     18.6277      0.287     20.9626     20.3711     2.9037      7.5        1.9241      13.3587       
2012-07-29T01:46:33Z    Tianjin_2     41.8835     155.9281    155.9281    33.5709     18.6441      0.2495    20.947      20.3711     2.827       7.5        1.9248      13.0065       
2012-07-29T01:49:26Z    Tianjin_2     41.8893     155.9477    155.9477    33.5722     18.6647      0.2277    20.9267     20.371      2.7277      7.5        1.9257      12.5505       
2012-07-29T01:52:27Z    Tianjin_2     41.8951     155.9674    155.9674    33.5698     18.6369      0.2127    20.9075     20.3711     2.6332      7.5        1.9245      12.1146       
2012-07-29T01:55:29Z    Tianjin_2     41.9008     155.9865    155.9865    33.5581     18.5596      0.2092    20.8892     20.3713     2.5424      7.5        1.9213      11.6947       
2012-07-29T02:37:32Z    Tianjin_2     41.9889     156.264     156.264     33.3445     17.4681      0.4311    21.5129     20.3749     5.5854      7.5        1.8036      24.6555       
2012-07-29T02:40:33Z    Tianjin_2     41.9954     156.2836    156.2836    33.325      17.541       0.4625    21.5653     20.3747     5.8438      7.5        1.8066      25.8053       
2012-07-29T02:43:26Z    Tianjin_2     42.0019     156.3034    156.3034    33.3119     17.5103      0.4932    21.6088     20.3748     6.0565      7.5        1.8054      26.7446       
2012-07-29T02:46:27Z    Tianjin_2     42.008      156.3225    156.3225    33.2795     17.3206      0.5423    21.6369     20.3754     6.1914      7.5        1.7979      27.3313       
2012-07-29T02:49:29Z    Tianjin_2     42.0144     156.3422    156.3422    33.2505     17.2101      0.6076    21.6711     20.3758     6.3571      7.5        1.7935      28.0596       
2012-07-29T02:52:30Z    Tianjin_2     42.0207     156.3618    156.3618    33.233      17.3427      0.6386    21.7478     20.3754     6.7356      7.5        1.7988      29.7456       
2012-07-29T02:55:32Z    Tianjin_2     42.0272     156.3821    156.3821    33.2264     17.3803      0.6663    21.8389     20.3753     7.1833      7.5        1.7201      30.3125       
2012-07-29T02:58:33Z    Tianjin_2     42.034      156.4027    156.4027    33.226      17.3163      0.678     21.8861     20.3755     7.4136      7.5        1.7176      31.2791       
2012-07-29T03:01:26Z    Tianjin_2     42.0401     156.4218    156.4218    33.2245     17.3401      0.711     21.912      20.3754     7.5413      7.5        1.7185      31.8202       
2012-07-29T03:04:27Z    Tianjin_2     42.0463     156.4408    156.4408    33.2179     17.4271      0.7212    21.9616     20.3752     7.7862      7.5        1.7218      32.8629       
2012-07-29T03:07:29Z    Tianjin_2     42.0527     156.4606    156.4606    33.2106     17.4362      0.7261    22.011      20.3752     8.0288      7.5        1.7222      33.8895       
2012-07-29T03:10:30Z    Tianjin_2     42.0593     156.4805    156.4805    33.2086     17.4274      0.6796    22.0375     20.3752     8.1586      7.5        1.7219      34.437        
2012-07-29T03:13:32Z    Tianjin_2     42.0659     156.5003    156.5003    33.2113     17.4422      0.6085    22.0314     20.3751     8.129       7.5        1.7224      34.3129       
2012-07-29T03:16:33Z    Tianjin_2     42.0726     156.5204    156.5204    33.213      17.4884      0.5717    21.9974     20.375      7.9628      7.5        1.7242      33.6154       
2012-07-29T03:19:26Z    Tianjin_2     42.0793     156.5406    156.5406    33.211      17.4637      0.5575    21.9431     20.3751     7.6959      7.5        1.7232      32.487        
2012-07-29T03:22:27Z    Tianjin_2     42.0855     156.5603    156.5603    33.2158     17.4672      0.5177    21.8695     20.375      7.3349      7.5        1.7234      30.962        
2012-07-29T03:25:29Z    Tianjin_2     42.0917     156.5798    156.5798    33.2278     17.4052      0.5027    21.7761     20.3752     6.8754      7.5        1.721       29.0151       
2012-07-29T03:28:30Z    Tianjin_2     42.0987     156.6021    156.6021    33.2375     17.3293      0.541     21.6626     20.3754     6.3171      7.5        1.7181      26.6514       
2012-07-29T03:31:32Z    Tianjin_2     42.105      156.6221    156.6221    33.2383     17.2761      0.5664    21.587      20.3756     5.9455      7.5        1.7161      25.08         
2012-07-29T03:34:33Z    Tianjin_2     42.1107     156.6398    156.6398    33.2391     17.2076      0.5518    21.5444     20.3758     5.7353      7.5        1.6376      23.1167       
2012-07-29T03:37:26Z    Tianjin_2     42.117      156.6595    156.6595    33.2391     17.1126      0.557     21.509      20.3761     5.5597      7.5        1.6342      22.4037       
2012-07-29T03:40:27Z    Tianjin_2     42.1234     156.6792    156.6792    33.2334     17.1177      0.5755    21.4858     20.3761     5.4459      7.5        1.6344      21.9464       
2012-07-29T03:43:29Z    Tianjin_2     42.1296     156.6987    156.6987    33.2377     17.0979      0.5779    21.4772     20.3761     5.4034      7.5        1.6846      22.4514       
2012-07-29T03:46:30Z    Tianjin_2     42.1361     156.7188    156.7188    33.2339     17.0984      0.5758    21.4781     20.3762     5.4079      7.5        1.6846      22.4706       
2012-07-29T03:49:32Z    Tianjin_2     42.1425     156.7386    156.7386    33.2285     17.109       0.6135    21.4819     20.3761     5.4266      7.5        1.685       22.55         
2012-07-29T03:52:33Z    Tianjin_2     42.149      156.7589    156.7589    33.2303     17.0961      0.6685    21.4993     20.3762     5.5119      7.5        1.6845      22.9033       
2012-07-29T03:55:26Z    Tianjin_2     42.1559     156.7801    156.7801    33.2328     17.0851      0.6576    21.517      20.3762     5.5985      7.5        1.6841      23.2621       
2012-07-29T03:58:27Z    Tianjin_2     42.1621     156.7998    156.7998    33.2356     17.0869      0.6617    21.5298     20.3762     5.6616      7.5        1.6842      23.5239       
2012-07-29T04:01:29Z    Tianjin_2     42.1683     156.82      156.82      33.2362     17.0941      0.6508    21.5374     20.3762     5.699       7.5        1.6844      23.6794       
2012-07-29T04:04:30Z    Tianjin_2     42.1742     156.8394    156.8394    33.2413     17.0908      0.5976    21.5371     20.3762     5.6974      7.5        1.6843      23.6718       
2012-07-29T04:07:32Z    Tianjin_2     42.18       156.8585    156.8585    33.2429     17.0734      0.5679    21.5345     20.3762     5.6847      7.5        1.6837      23.6176       
2012-07-29T04:10:33Z    Tianjin_2     42.1861     156.8789    156.8789    33.244      17.0411      0.5931    21.528      20.3763     5.6522      7.5        1.6124      22.503        
2012-07-29T04:13:26Z    Tianjin_2     42.1922     156.8992    156.8992    33.2445     17.0367      0.6026    21.5225     20.3763     5.6249      7.5        1.6123      22.3937       
2012-07-29T04:16:27Z    Tianjin_2     42.1984     156.9195    156.9195    33.247      17.0439      0.6349    21.5261     20.3763     5.6431      7.5        1.6125      22.4661       
2012-07-29T04:19:29Z    Tianjin_2     42.2045     156.94      156.94      33.2481     17.0896      0.6762    21.5464     20.3762     5.7429      7.5        1.6141      22.8662       
2012-07-29T04:22:30Z    Tianjin_2     42.2107     156.9609    156.9609    33.2479     17.0982      0.7221    21.5773     20.3761     5.8949      7.5        1.6144      23.4717       
2012-07-29T04:25:32Z    Tianjin_2     42.2166     156.9808    156.9808    33.2494     17.076       0.7642    21.6055     20.3762     6.0332      7.5        1.6136      24.0207       
2012-07-29T04:28:33Z    Tianjin_2     42.2226     157.0008    157.0008    33.2493     17.0784      0.7894    21.6334     20.3762     6.17        7.5        1.6137      24.5659       
2012-07-29T04:31:26Z    Tianjin_2     42.2287     157.0212    157.0212    33.2481     17.095       0.7541    21.6716     20.3761     6.3576      7.5        1.6143      25.3138       
2012-07-29T04:34:27Z    Tianjin_2     42.2346     157.0412    157.0412    33.2484     17.0789      0.7626    21.7132     20.3762     6.5614      7.5        1.6137      26.1242       
2012-07-29T04:37:29Z    Tianjin_2     42.2407     157.0615    157.0615    33.2478     17.0949      0.797     21.737      20.3761     6.6787      7.5        1.6143      26.5925       
2012-07-29T04:40:30Z    Tianjin_2     42.2469     157.0819    157.0819    33.2486     17.0781      0.8425    21.7619     20.3762     6.8008      7.5        1.6137      27.0772       
2012-07-29T04:43:32Z    Tianjin_2     42.2528     157.1022    157.1022    33.2476     17.096       0.8453    21.7894     20.3761     6.936       7.5        1.6143      27.6171       
2012-07-29T04:46:33Z    Tianjin_2     42.2589     157.1223    157.1223    33.2447     17.1298      0.7992    21.8008     20.376      6.9924      7.5        1.6155      27.8446       
2012-07-29T04:49:26Z    Tianjin_2     42.2649     157.1425    157.1425    33.2438     17.1223      0.7764    21.8013     20.3761     6.9945      7.5        1.5578      26.8606       
2012-07-29T04:52:27Z    Tianjin_2     42.271      157.1632    157.1632    33.2433     17.1257      0.7751    21.7885     20.3761     6.9318      7.5        1.5579      26.6202       
2012-07-29T04:55:29Z    Tianjin_2     42.2772     157.1841    157.1841    33.2419     17.1388      0.7617    21.7728     20.376      6.8551      7.5        1.5583      26.3265       
2012-07-29T05:46:27Z    Tianjin_2     42.3744     157.5283    157.5283    33.2604     17.1099      0.6014    21.2841     20.3761     4.4565      7.5        1.5169      16.6674       
2012-07-29T05:49:29Z    Tianjin_2     42.3796     157.5472    157.5472    33.2556     17.1367      0.6068    21.2678     20.376      4.3768      7.5        1.5336      16.5417       
2012-07-29T05:52:30Z    Tianjin_2     42.3853     157.5675    157.5675    33.2499     17.1654      0.6254    21.2368     20.3759     4.2251      7.5        1.5346      15.97         
2012-07-29T05:55:32Z    Tianjin_2     42.391      157.5877    157.5877    33.2469     17.2428      0.6431    21.2303     20.3757     4.1942      7.5        1.5371      15.8564       
2012-07-29T05:58:33Z    Tianjin_2     42.397      157.6078    157.6078    33.2428     17.3036      0.6688    21.2435     20.3755     4.2602      7.5        1.5392      16.1088       
2012-07-29T06:01:26Z    Tianjin_2     42.4029     157.6274    157.6274    33.2406     17.3767      0.6829    21.2626     20.3753     4.3551      7.5        1.5129      16.1643       
2012-07-29T06:04:27Z    Tianjin_2     42.4089     157.6475    157.6475    33.2368     17.4244      0.6916    21.279      20.3751     4.436       7.5        1.5145      16.4673       
2012-07-29T06:07:29Z    Tianjin_2     42.4152     157.6684    157.6684    33.215      17.3839      0.7207    21.2939     20.3753     4.5083      7.5        1.5132      16.7363       
2012-07-29T06:10:30Z    Tianjin_2     42.4211     157.688     157.688     33.1983     17.4033      0.7102    21.3075     20.3753     4.5753      7.5        1.5139      16.988        
2012-07-29T06:13:32Z    Tianjin_2     42.4268     157.7071    157.7071    33.1751     17.4245      0.7453    21.3315     20.3752     4.6935      7.5        1.5146      17.4308       
2012-07-29T06:16:33Z    Tianjin_2     42.4329     157.7275    157.7275    33.1489     17.4433      0.8054    21.3543     20.3752     4.8052      7.5        1.5153      17.8496       
2012-07-29T06:19:26Z    Tianjin_2     42.439      157.7477    157.7477    33.1175     17.38        0.8567    21.3741     20.3755     4.9011      7.5        1.5132      18.2072       
2012-07-29T06:22:27Z    Tianjin_2     42.4447     157.767     157.767     33.1041     17.3458      0.8792    21.4014     20.3756     5.0344      7.5        1.5121      18.7023       
2012-07-29T06:25:29Z    Tianjin_2     42.4507     157.787     157.787     33.0952     17.3489      0.8863    21.4633     20.3756     5.3383      7.5        1.5122      19.8327       
2012-07-29T06:28:30Z    Tianjin_2     42.4568     157.8076    157.8076    33.0877     17.3962      0.8793    21.5409     20.3754     5.7198      7.5        1.5138      21.2539       
2012-07-29T06:31:32Z    Tianjin_2     42.4627     157.8273    157.8273    33.0821     17.4397      0.864     21.5885     20.3753     5.9539      7.5        1.5153      22.1273       
2012-07-29T06:34:33Z    Tianjin_2     42.4687     157.8473    157.8473    33.0775     17.4888      0.8398    21.6098     20.3752     6.0596      7.5        1.5169      22.5238       
2012-07-29T06:37:26Z    Tianjin_2     42.4752     157.869     157.869     33.0786     17.5181      0.7914    21.6047     20.3751     6.0351      7.5        1.5179      22.4341       
2012-07-29T06:40:27Z    Tianjin_2     42.4813     157.8895    157.8895    33.0773     17.5121      0.761     21.575      20.3751     5.8892      7.5        1.5165      21.8749       
2012-07-29T06:43:29Z    Tianjin_2     42.4872     157.9089    157.9089    33.0721     17.4818      0.7623    21.525      20.3752     5.6429      7.5        1.5155      20.9587       
2012-07-29T06:46:30Z    Tianjin_2     42.4933     157.9288    157.9288    33.058      17.4731      0.8003    21.4753     20.3753     5.3991      7.5        1.5152      20.0546       
2012-07-29T06:49:32Z    Tianjin_2     42.4996     157.9494    157.9494    33.0393     17.5506      0.804     21.4351     20.375      5.2029      7.5        1.5179      19.3334       
2012-07-29T06:52:33Z    Tianjin_2     42.5059     157.9697    157.9697    33.024      17.6214      0.7777    21.4303     20.3749     5.18        7.5        1.5203      19.2546       
2012-07-29T06:55:26Z    Tianjin_2     42.5121     157.9895    157.9895    33.014      17.6226      0.7597    21.4232     20.3749     5.1455      7.5        1.5203      19.1276       
2012-07-29T06:58:27Z    Tianjin_2     42.5184     158.0097    158.0097    33.0041     17.6167      0.7919    21.4004     20.3749     5.033       7.5        1.5202      18.7107       
2012-07-29T07:01:29Z    Tianjin_2     42.5248     158.0301    158.0301    33.0043     17.6086      0.7257    21.3687     20.3749     4.8776      7.5        1.5199      18.1322       
2012-07-29T07:04:30Z    Tianjin_2     42.5312     158.0505    158.0505    33.0087     17.6204      0.676     21.3512     20.3749     4.7918      7.5        1.5203      17.8135       
2012-07-29T07:07:32Z    Tianjin_2     42.5378     158.0717    158.0717    33.0281     17.5753      0.6182    21.3044     20.375      4.5617      7.5        1.5187      16.9532       
2012-07-29T07:10:33Z    Tianjin_2     42.5435     158.0921    158.0921    33.0409     17.5803      0.5858    21.2296     20.375      4.1948      7.5        1.5189      15.5885       
2012-07-29T07:13:26Z    Tianjin_2     42.5492     158.1119    158.1119    33.0545     17.5519      0.5551    21.1569     20.375      3.8373      7.5        1.5179      14.2573       
2012-07-29T07:16:27Z    Tianjin_2     42.5547     158.1334    158.1334    33.0604     17.5496      0.5536    21.0834     20.375      3.4769      7.5        1.549       13.1834       
2012-07-29T07:19:29Z    Tianjin_2     42.56       158.1538    158.1538    33.0626     17.5643      0.5629    21.0245     20.375      3.188       7.5        1.5495      12.0884       
2012-07-29T07:22:30Z    Tianjin_2     42.5651     158.1738    158.1738    33.0782     17.5202      0.5678    20.9843     20.3751     2.99        7.5        1.5479      11.3342       
2012-07-29T07:25:32Z    Tianjin_2     42.5704     158.1948    158.1948    33.0991     17.4725      0.6001    20.952      20.3752     2.831       7.5        1.5462      10.7279       
2012-07-29T07:28:33Z    Tianjin_2     42.5756     158.2156    158.2156    33.1035     17.4656      0.6102    20.9363     20.3752     2.7535      7.5        1.5459      10.4338       
2012-07-29T07:31:26Z    Tianjin_2     42.5811     158.2367    158.2367    33.0979     17.5206      0.6138    20.9314     20.3751     2.7305      7.5        1.5479      10.3493       
2012-07-29T07:34:27Z    Tianjin_2     42.5868     158.2583    158.2583    33.0974     17.4619      0.6279    20.9334     20.3752     2.7395      7.5        1.5458      10.381        
2012-07-29T07:37:29Z    Tianjin_2     42.5924     158.2797    158.2797    33.0942     17.4454      0.6351    20.9301     20.3753     2.7228      7.5        1.5452      10.3171       
2012-07-29T07:40:30Z    Tianjin_2     42.5978     158.3005    158.3005    33.0933     17.4529      0.6323    20.9351     20.3753     2.7479      7.5        1.5455      10.4125       
2012-07-29T07:43:32Z    Tianjin_2     42.6032     158.3207    158.3207    33.0982     17.4623      0.6495    20.9408     20.3752     2.7756      7.5        1.5458      10.5176       
2012-07-29T07:46:33Z    Tianjin_2     42.6085     158.3419    158.3419    33.1025     17.4873      0.6768    20.9438     20.3751     2.7909      7.5        1.5467      10.5764       
2012-07-29T07:49:26Z    Tianjin_2     42.6141     158.3634    158.3634    33.1232     17.4485      0.7395    20.9562     20.3752     2.8511      7.5        1.5453      10.8014       
2012-07-29T07:52:27Z    Tianjin_2     42.6194     158.3841    158.3841    33.1576     17.3878      0.8396    20.979      20.3754     2.9625      7.5        1.5973      11.6123       
2012-07-29T07:55:29Z    Tianjin_2     42.6245     158.4042    158.4042    33.178      17.3595      0.882     21.0307     20.3754     3.2159      7.5        1.5962      12.6021       
2012-07-29T08:55:32Z    Tianjin_2     42.7399     158.8254    158.8254    33.2019     17.5675      1.2092    21.7785     20.3748     6.8895      7.5        1.6375      27.5815       
2012-07-29T08:58:33Z    Tianjin_2     42.7459     158.8468    158.8468    33.205      17.5068      1.2622    21.7679     20.3749     6.8367      7.5        1.635       27.3605       
2012-07-29T09:01:26Z    Tianjin_2     42.7517     158.8679    158.8679    33.2076     17.435       1.2939    21.7667     20.3752     6.8297      7.5        1.6321      27.3218       
2012-07-29T09:04:27Z    Tianjin_2     42.7577     158.8894    158.8894    33.2065     17.3641      1.2784    21.7801     20.3754     6.894       7.5        1.6892      28.5827       
2012-07-29T09:07:29Z    Tianjin_2     42.7638     158.9112    158.9112    33.2081     17.306       1.2287    21.7938     20.3756     6.9606      7.5        1.6867      28.848        
2012-07-29T09:10:30Z    Tianjin_2     42.7696     158.9322    158.9322    33.2169     17.2615      1.1911    21.7955     20.3757     6.9684      7.5        1.6848      28.8708       
2012-07-29T09:13:32Z    Tianjin_2     42.7755     158.9537    158.9537    33.2167     17.2233      1.1638    21.7737     20.3758     6.8604      7.5        1.6832      28.4165       
2012-07-29T09:16:33Z    Tianjin_2     42.7817     158.9761    158.9761    33.2061     17.2373      1.1346    21.7418     20.3758     6.704       7.5        1.6838      27.7733       
2012-07-29T09:19:26Z    Tianjin_2     42.7873     158.9968    158.9968    33.2        17.302       1.1357    21.7071     20.3756     6.5349      7.5        1.6866      27.0846       
2012-07-29T09:22:27Z    Tianjin_2     42.7929     159.0174    159.0174    33.2071     17.3499      1.2036    21.6683     20.3754     6.3455      12.5       1.7207      26.8056       
2012-07-29T09:25:29Z    Tianjin_2     42.7989     159.0398    159.0398    33.2122     17.3547      1.2472    21.621      20.3754     6.1133      12.5       1.7209      25.8245       
2012-07-29T09:28:30Z    Tianjin_2     42.8048     159.0614    159.0614    33.2135     17.3538      1.2228    21.5837     20.3754     5.93        12.5       1.7208      25.0496       
2012-07-29T09:31:32Z    Tianjin_2     42.8111     159.0831    159.0831    33.2178     17.3106      1.1753    21.5546     20.3755     5.7869      12.5       1.719       24.4387       
2012-07-29T09:34:33Z    Tianjin_2     42.8172     159.1043    159.1043    33.2212     17.2762      1.1477    21.523      20.3756     5.6312      12.5       1.7175      23.7759       
2012-07-29T09:37:26Z    Tianjin_2     42.823      159.1249    159.1249    33.2209     17.3312      1.1182    21.4967     20.3755     5.5027      12.5       1.7199      23.2406       
2012-07-29T09:40:27Z    Tianjin_2     42.8291     159.1461    159.1461    33.2098     17.5765      1.2373    21.4659     20.3747     5.3553      12.5       1.7913      23.449        
2012-07-29T09:43:29Z    Tianjin_2     42.8349     159.1665    159.1665    33.206      17.6742      1.266     21.4346     20.3744     5.2033      12.5       1.7957      22.7969       
2012-07-29T09:46:30Z    Tianjin_2     42.8411     159.1874    159.1874    33.1989     17.7011      1.2828    21.405      20.3744     5.0584      12.5       1.7969      22.1667       
2012-07-29T09:49:32Z    Tianjin_2     42.8476     159.2094    159.2094    33.1849     17.6753      1.2814    21.3814     20.3745     4.9421      12.5       1.7958      21.6557       
2012-07-29T09:52:33Z    Tianjin_2     42.8539     159.2302    159.2302    33.1812     17.6288      1.2193    21.3665     20.3746     4.8685      12.5       1.7937      21.3281       
2012-07-29T09:55:26Z    Tianjin_2     42.8598     159.25      159.25      33.1748     17.5856      1.1879    21.3525     20.3747     4.7986      12.5       1.7918      21.0178       
2012-07-29T09:58:27Z    Tianjin_2     42.866      159.2707    159.2707    33.1795     17.5162      1.1686    21.3349     20.375      4.7113      12.5       1.7887      20.6263       
2012-07-29T10:01:29Z    Tianjin_2     42.8721     159.2916    159.2916    33.1973     17.4485      1.123     21.3193     20.3751     4.6341      12.5       1.7856      20.2777       
2012-07-29T10:04:30Z    Tianjin_2     42.8784     159.3132    159.3132    33.2033     17.4655      1.1404    21.3018     20.3751     4.5484      12.5       1.7969      20.0216       
2012-07-29T10:07:32Z    Tianjin_2     42.8843     159.3336    159.3336    33.1945     17.5173      1.2148    21.2937     20.3749     4.5092      12.5       1.7992      19.8552       
2012-07-29T10:10:33Z    Tianjin_2     42.8902     159.3537    159.3537    33.1901     17.5459      1.263     21.2872     20.3748     4.4778      12.5       1.8004      19.7202       
2012-07-29T10:13:26Z    Tianjin_2     42.8962     159.3749    159.3749    33.1892     17.5726      1.306     21.2924     20.3748     4.5038      12.5       1.8016      19.8375       
2012-07-29T10:16:27Z    Tianjin_2     42.9021     159.3956    159.3956    33.1861     17.6376      1.3128    21.3018     20.3746     4.5511      12.5       1.8697      20.7785       
2012-07-29T10:19:29Z    Tianjin_2     42.9079     159.4161    159.4161    33.1872     17.6782      1.2704    21.3098     20.3745     4.5906      12.5       1.8715      20.9626       
2012-07-29T10:22:30Z    Tianjin_2     42.9141     159.4378    159.4378    33.1904     17.6907      1.2688    21.305      20.3744     4.5675      12.5       1.8721      20.8577       
2012-07-29T10:25:32Z    Tianjin_2     42.9202     159.4589    159.4589    33.1927     17.681       1.2597    21.2852     20.3744     4.47        12.5       1.8716      20.4115       
2012-07-29T10:28:33Z    Tianjin_2     42.9259     159.4788    159.4788    33.1926     17.6718      1.2435    21.2639     20.3745     4.3655      12.5       1.8712      19.9332       
2012-07-29T10:31:26Z    Tianjin_2     42.9321     159.5008    159.5008    33.2039     17.5854      1.2045    21.2464     20.3747     4.2783      12.5       1.8673      19.5256       
2012-07-29T10:34:27Z    Tianjin_2     42.9381     159.5222    159.5222    33.2074     17.5934      1.2108    21.2348     20.3747     4.2217      12.5       1.8677      19.2674       
2012-07-29T10:37:29Z    Tianjin_2     42.9437     159.5419    159.5419    33.2213     17.4637      1.3257    21.2356     20.3751     4.2235      12.5       1.8619      19.2622       
2012-07-29T10:40:30Z    Tianjin_2     42.9496     159.5625    159.5625    33.2459     17.1584      1.5946    21.2384     20.376      4.2325      12.5       1.8483      19.2717       
2012-07-29T10:43:32Z    Tianjin_2     42.9555     159.5837    159.5837    33.2702     16.8603      1.8753    21.2769     20.3768     4.4171      12.5       1.8351      20.0806       
2012-07-29T10:46:33Z    Tianjin_2     42.9613     159.604     159.604     33.264      16.8084      1.9444    21.3764     20.377      4.9044      12.5       1.8328      22.2913       
2012-07-29T10:49:26Z    Tianjin_2     42.9675     159.6255    159.6255    33.261      16.8169      1.9804    21.5375     20.377      5.6952      12.5       1.904       26.887        
2012-07-29T10:52:27Z    Tianjin_2     42.9739     159.6476    159.6476    33.2587     16.8655      1.9375    21.6788     20.3768     6.3896      12.5       1.9062      30.1724       
2012-07-29T10:55:29Z    Tianjin_2     42.9794     159.6667    159.6667    33.253      16.9882      1.8845    21.7526     20.3765     6.7537      12.5       1.9118      31.911        
2012-07-29T10:58:30Z    Tianjin_2     42.9851     159.6861    159.6861    33.2405     17.1372      1.8515    21.7849     20.376      6.9146      12.5       1.9186      32.6958       
2012-07-29T11:01:32Z    Tianjin_2     42.9913     159.7076    159.7076    33.2467     17.2029      1.7933    21.7911     20.3758     6.9459      12.5       1.9216      32.8522       
2012-07-29T11:04:33Z    Tianjin_2     42.9974     159.7286    159.7286    33.2625     17.1975      1.7368    21.7712     20.3758     6.8482      12.5       1.9213      32.3857       
2012-07-29T11:07:26Z    Tianjin_2     43.0034     159.7488    159.7488    33.2761     17.1811      1.6559    21.7386     20.3758     6.6882      12.5       1.9205      31.6238       
2012-07-29T11:10:27Z    Tianjin_2     43.0095     159.7693    159.7693    33.2959     17.1051      1.5771    21.7043     20.376      6.5187      12.5       1.917       30.8071       
2012-07-29T11:13:29Z    Tianjin_2     43.0157     159.7903    159.7903    33.2956     17.0554      1.6239    21.6695     20.3762     6.3473      12.5       1.9147      29.9903       
2012-07-29T11:55:32Z    Tianjin_2     43.0965     160.078     160.078     33.2909     17.2791      1.4844    21.5089     20.3755     5.5626      12.5       2.0049      27.4027       
2012-07-29T11:58:33Z    Tianjin_2     43.1019     160.0994    160.0994    33.2787     17.308       1.3772    21.4835     20.3754     5.4384      12.5       2.0062      26.7959       
2012-07-29T12:01:26Z    Tianjin_2     43.1072     160.1204    160.1204    33.2713     17.3688      1.376     21.463      20.3753     5.3383      12.5       2.0091      26.3106       
2012-07-29T12:04:27Z    Tianjin_2     43.1125     160.141     160.141     33.2793     17.1819      1.4049    21.4357     20.3758     5.2015      12.5       2.0529      26.289        
2012-07-29T12:07:29Z    Tianjin_2     43.1182     160.1626    160.1626    33.1785     16.9111      1.1191    21.3957     20.3768     5.0004      12.5       2.0406      25.2672       
2012-07-29T12:10:30Z    Tianjin_2     43.1235     160.1825    160.1825    33.1774     17.006       1.0257    21.3571     20.3765     4.8123      12.5       2.045       24.3249       
2012-07-29T12:13:32Z    Tianjin_2     43.1287     160.2021    160.2021    33.2128     17.1041      1.1107    21.3148     20.3762     4.6065      12.5       2.0505      23.2984       
2012-07-29T12:16:33Z    Tianjin_2     43.1344     160.2234    160.2234    33.2316     17.1701      1.2132    21.2647     20.3759     4.3617      12.5       2.0533      22.0597       
2012-07-29T12:19:26Z    Tianjin_2     43.14       160.2435    160.2435    33.2586     17.15        1.3657    21.2295     20.376      4.1889      12.5       2.0524      21.1807       
2012-07-29T12:22:27Z    Tianjin_2     43.1454     160.2638    160.2638    33.2496     17.274       1.3604    21.2061     20.3756     4.0759      12.5       2.0577      20.615        
2012-07-29T12:25:29Z    Tianjin_2     43.151      160.2844    160.2844    33.2349     17.31        1.3131    21.214      20.3755     4.1153      12.5       2.0593      20.8175       
2012-07-29T12:28:30Z    Tianjin_2     43.1559     160.3042    160.3042    33.2437     17.2608      1.3891    21.2237     20.3756     4.1619      12.5       2.0571      21.0505       
2012-07-29T12:31:32Z    Tianjin_2     43.1614     160.326     160.326     33.2335     17.1184      1.3812    21.2137     20.3761     4.1109      12.5       2.0511      20.7893       
2012-07-29T12:34:33Z    Tianjin_2     43.1669     160.3476    160.3476    33.1983     16.9807      1.2994    21.1985     20.3766     4.0337      12.5       2.0452      20.399        
2012-07-29T12:37:26Z    Tianjin_2     43.1717     160.3666    160.3666    33.1764     16.9519      1.2881    21.1794     20.3767     3.9394      12.5       2.044       19.9245       
2012-07-29T12:40:27Z    Tianjin_2     43.1767     160.3861    160.3861    33.1559     16.9214      1.2462    21.1584     20.3768     3.8355      12.5       2.0802      19.7557       
2012-07-29T12:43:29Z    Tianjin_2     43.182      160.4068    160.4068    33.1298     16.9308      1.2055    21.1329     20.3768     3.7105      12.5       2.0806      19.1157       
2012-07-29T12:46:30Z    Tianjin_2     43.1875     160.4277    160.4277    33.116      16.9516      1.201     21.101      20.3768     3.5543      12.5       2.0815      18.3129       
2012-07-29T12:49:32Z    Tianjin_2     43.1926     160.4482    160.4482    33.104      16.9185      1.1818    21.0682     20.3769     3.3928      12.5       2.0802      17.4818       
2012-07-29T12:52:33Z    Tianjin_2     43.1978     160.4685    160.4685    33.1029     16.7716      1.0212    21.0348     20.3774     3.2265      12.5       2.0741      16.6237       
2012-07-29T12:55:26Z    Tianjin_2     43.2031     160.4893    160.4893    33.0921     16.8052      0.9476    20.9933     20.3773     3.023       12.5       2.0755      15.5768       
2012-07-29T12:58:27Z    Tianjin_2     43.2085     160.51      160.51      33.1104     16.8459      0.9194    20.9505     20.3771     2.814       12.5       2.0771      14.498        
2012-07-29T13:01:29Z    Tianjin_2     43.2137     160.5308    160.5308    33.1826     16.8723      0.9256    20.9058     20.3769     2.5954      12.5       2.0781      13.3655       
2012-07-29T13:04:30Z    Tianjin_2     43.2187     160.5511    160.5511    33.2178     16.8572      0.9051    20.8663     20.3769     2.4015      12.5       2.0774      12.3639       
2012-07-29T13:07:32Z    Tianjin_2     43.2247     160.5753    160.5753    33.2192     16.8902      0.8771    20.8305     20.3768     2.2263      12.5       2.0787      11.462        
2012-07-29T13:10:33Z    Tianjin_2     43.2299     160.5962    160.5962    33.2289     16.882       0.834     20.8063     20.3768     2.1077      12.5       2.0784      10.8504       
2012-07-29T13:13:26Z    Tianjin_2     43.2341     160.6134    160.6134    33.2318     16.8868      0.8201    20.7851     20.3768     2.0036      12.5       2.0786      10.3146       
2012-07-29T13:16:27Z    Tianjin_2     43.2392     160.634     160.634     33.2458     16.8385      0.8106    20.7556     20.3769     1.8582      12.5       2.0947      9.6481        
2012-07-29T13:19:29Z    Tianjin_2     43.2445     160.6546    160.6546    33.258      16.7961      0.7912    20.7208     20.3771     1.687       12.5       2.0929      8.7583        
2012-07-29T13:22:30Z    Tianjin_2     43.2497     160.6752    160.6752    33.2741     16.6676      0.7291    20.6859     20.3774     1.5137      12.5       2.0878      7.8584        
2012-07-29T13:25:32Z    Tianjin_2     43.2549     160.6957    160.6957    33.2876     16.5776      0.6939    20.6553     20.3777     1.3623      12.5       2.0842      7.0717        
2012-07-29T13:28:33Z    Tianjin_2     43.2603     160.7167    160.7167    33.2897     16.5649      0.6827    20.6348     20.3777     1.2614      12.5       2.0837      6.548         
2012-07-29T13:31:26Z    Tianjin_2     43.2658     160.7389    160.7389    33.2949     16.5667      0.7137    20.6228     20.3777     1.2028      12.5       2.0837      6.2435        
2012-07-29T13:34:27Z    Tianjin_2     43.2709     160.7592    160.7592    33.298      16.6108      0.7461    20.6273     20.3776     1.2256      12.5       2.0855      6.3618        
2012-07-29T13:37:29Z    Tianjin_2     43.276      160.7795    160.7795    33.3003     16.5639      0.7866    20.637      20.3777     1.2724      12.5       2.0836      6.6045        
2012-07-29T13:40:30Z    Tianjin_2     43.2811     160.8002    160.8002    33.2917     16.5244      0.8029    20.6518     20.3779     1.3442      12.5       2.082       6.9776        
2012-07-29T13:43:32Z    Tianjin_2     43.286      160.82      160.82      33.2889     16.5409      0.7801    20.6782     20.3778     1.4743      12.5       2.0827      7.6532        
2012-07-29T13:46:33Z    Tianjin_2     43.2912     160.8412    160.8412    33.2828     16.5354      0.7754    20.7053     20.3778     1.6069      12.5       2.0825      8.3416        
2012-07-29T13:49:26Z    Tianjin_2     43.2963     160.862     160.862     33.2825     16.5918      0.7472    20.7189     20.3777     1.6746      12.5       2.0847      8.6932        
2012-07-29T13:52:27Z    Tianjin_2     43.3013     160.883     160.883     33.2865     16.6176      0.7105    20.7225     20.3776     1.6929      12.5       2.0886      8.7994        
2012-07-29T13:55:29Z    Tianjin_2     43.3064     160.904     160.904     33.2911     16.6109      0.7264    20.7134     20.3776     1.648       12.5       2.0883      8.566         
2012-07-29T13:58:30Z    Tianjin_2     43.3113     160.924     160.924     33.2921     16.6046      0.7493    20.694      20.3776     1.5527      12.5       2.0881      8.0708        
2012-07-29T14:01:32Z    Tianjin_2     43.3163     160.9449    160.9449    33.2831     16.5927      0.7465    20.6772     20.3777     1.4699      12.5       2.0876      7.6409        
2012-07-29T14:04:33Z    Tianjin_2     43.3213     160.9656    160.9656    33.2651     16.4996      0.7531    20.6649     20.378      1.4078      12.5       2.0841      7.3196        
2012-07-29T14:07:26Z    Tianjin_2     43.3263     160.9861    160.9861    33.2363     16.3412      0.7791    20.6559     20.3785     1.361       12.5       2.078       7.0789        
2012-07-29T14:10:27Z    Tianjin_2     43.3314     161.0074    161.0074    33.1994     16.0947      0.8519    20.6579     20.3794     1.3666      12.5       2.0686      7.1115        
2012-07-29T14:13:29Z    Tianjin_2     43.3365     161.0283    161.0283    33.1693     15.9544      0.9069    20.6801     20.3799     1.4731      12.5       2.0633      7.6687        
2012-07-29T14:55:32Z    Tianjin_2     43.409      161.3227    161.3227    33.1306     15.3978      0.7909    20.7873     20.3817     1.9896      12.5       2.0208      10.2584       
2012-07-29T14:58:33Z    Tianjin_2     43.4142     161.3442    161.3442    33.1219     15.4051      0.7672    20.7702     20.3817     1.906       12.5       2.021       9.8276        
2012-07-29T15:01:26Z    Tianjin_2     43.4194     161.3657    161.3657    33.1159     15.4749      0.7462    20.7529     20.3815     1.8222      12.5       2.0235      9.3943        
2012-07-29T15:04:27Z    Tianjin_2     43.4243     161.386     161.386     33.1206     15.4977      0.7466    20.7413     20.3814     1.7659      12.5       2.0263      9.1123        
2012-07-29T15:07:29Z    Tianjin_2     43.4291     161.4062    161.4062    33.1333     15.5148      0.721     20.733      20.3814     1.7252      12.5       2.0269      8.9012        
2012-07-29T15:10:30Z    Tianjin_2     43.4341     161.4273    161.4273    33.1525     15.4901      0.7575    20.7313     20.3814     1.7165      12.5       2.026       8.8558        
2012-07-29T15:13:32Z    Tianjin_2     43.4391     161.4486    161.4486    33.1522     15.3948      0.7643    20.7424     20.3817     1.7697      12.5       2.0228      9.1329        
2012-07-29T15:16:33Z    Tianjin_2     43.4439     161.4692    161.4692    33.1454     15.3607      0.7138    20.7553     20.3818     1.8323      12.5       2.0216      9.4571        
2012-07-29T15:19:26Z    Tianjin_2     43.4489     161.4905    161.4905    33.1348     15.3686      0.7474    20.7695     20.3818     1.9021      12.5       2.0219      9.8179        
2012-07-29T15:22:27Z    Tianjin_2     43.4539     161.5115    161.5115    33.1289     15.3728      0.7586    20.7781     20.3818     1.9442      12.5       2.022       10.0356       
2012-07-29T15:25:29Z    Tianjin_2     43.4589     161.5319    161.5319    33.1225     15.372       0.7609    20.7814     20.3818     1.9603      12.5       2.022       10.1191       
2012-07-29T15:28:30Z    Tianjin_2     43.4641     161.5528    161.5528    33.1189     15.4035      0.7377    20.7864     20.3817     1.9853      12.5       2.0231      10.2474       
2012-07-29T15:31:32Z    Tianjin_2     43.4692     161.5736    161.5736    33.1239     15.3737      0.7578    20.7826     20.3818     1.9662      12.5       2.0221      10.1493       
2012-07-29T15:34:33Z    Tianjin_2     43.4743     161.5944    161.5944    33.1304     15.2962      0.7237    20.7717     20.3821     1.9118      12.5       2.0194      9.87          
2012-07-29T15:37:26Z    Tianjin_2     43.4794     161.6153    161.6153    33.1388     15.2441      0.6849    20.7589     20.3822     1.8482      12.5       2.0176      9.5427        
2012-07-29T15:40:27Z    Tianjin_2     43.4843     161.636     161.636     33.1452     15.2295      0.6524    20.7418     20.3823     1.7637      12.5       2.0211      9.1244        
2012-07-29T15:43:29Z    Tianjin_2     43.4895     161.6572    161.6572    33.1487     15.1546      0.6604    20.7172     20.3825     1.6419      12.5       2.0185      8.496         
2012-07-29T15:46:30Z    Tianjin_2     43.4944     161.6779    161.6779    33.149      15.0149      0.6862    20.6941     20.383      1.5261      12.5       2.0136      7.8995        
2012-07-29T15:49:32Z    Tianjin_2     43.4992     161.6976    161.6976    33.1425     14.9182      0.6994    20.6858     20.3833     1.4838      12.5       2.0103      7.683         
2012-07-29T15:52:33Z    Tianjin_2     43.5042     161.7182    161.7182    33.1279     14.7779      0.7048    20.6909     20.3838     1.5062      12.5       2.0054      7.8029        
2012-07-29T15:55:26Z    Tianjin_2     43.5092     161.7388    161.7388    33.1095     14.6742      0.7214    20.7076     20.3842     1.5863      12.5       2.0019      8.2213        
2012-07-29T15:58:27Z    Tianjin_2     43.5143     161.7596    161.7596    33.0991     14.6143      0.7309    20.7326     20.3844     1.7078      12.5       1.9998      8.8528        
2012-07-29T16:01:29Z    Tianjin_2     43.5195     161.7805    161.7805    33.0912     14.5552      0.7467    20.7561     20.3846     1.8221      12.5       1.9978      9.4473        
2012-07-29T16:04:30Z    Tianjin_2     43.5245     161.8012    161.8012    33.0878     14.5253      0.75      20.7749     20.3848     1.9139      12.5       1.9967      9.9245        
2012-07-29T16:07:32Z    Tianjin_2     43.5296     161.8215    161.8215    33.08       14.4642      0.6939    20.7878     20.385      1.9762      12.5       1.9946      10.2499       
2012-07-29T16:10:33Z    Tianjin_2     43.5347     161.8423    161.8423    33.0654     14.3608      0.6684    20.7948     20.3853     2.0085      12.5       1.9911      10.4214       
2012-07-29T16:13:26Z    Tianjin_2     43.54       161.864     161.864     33.0469     14.2794      0.7022    20.7947     20.3857     2.0065      12.5       1.9883      10.4147       
2012-07-29T16:16:27Z    Tianjin_2     43.5451     161.8845    161.8845    33.0256     14.2175      0.697     20.7917     20.3859     1.9904      12.5       1.9885      10.3465       
2012-07-29T16:19:29Z    Tianjin_2     43.5503     161.905     161.905     32.9998     14.1902      0.6716    20.794      20.386      2.0013      12.5       1.9875      10.4055       
2012-07-29T16:22:30Z    Tianjin_2     43.5554     161.9256    161.9256    32.9788     14.2148      0.6627    20.7936     20.386      1.9995      12.5       1.9884      10.397        
2012-07-29T16:25:32Z    Tianjin_2     43.5605     161.946     161.946     32.9529     14.2919      0.6729    20.7924     20.3857     1.995       12.5       1.9912      10.3735       
2012-07-29T16:28:33Z    Tianjin_2     43.5659     161.9667    161.9667    32.9249     14.2984      0.6564    20.7845     20.3858     1.9561      12.5       1.9915      10.1731       
2012-07-29T16:31:26Z    Tianjin_2     43.5714     161.9883    161.9883    32.9096     14.2725      0.6679    20.7687     20.3859     1.8779      12.5       1.9906      9.7681        
2012-07-29T16:34:27Z    Tianjin_2     43.5767     162.0091    162.0091    32.9161     14.2537      0.6087    20.751      20.3859     1.791       12.5       1.9899      9.3162        
2012-07-29T16:37:29Z    Tianjin_2     43.5818     162.0293    162.0293    32.9203     14.2603      0.6066    20.742      20.3859     1.7466      12.5       1.9901      9.0847        
2012-07-29T16:40:30Z    Tianjin_2     43.5869     162.0498    162.0498    32.9061     14.2341      0.6279    20.7361     20.386      1.7174      12.5       1.9892      8.9343        
2012-07-29T16:43:32Z    Tianjin_2     43.592      162.0702    162.0702    32.8854     14.1925      0.6213    20.7358     20.3862     1.715       12.5       1.9878      8.9243        
2012-07-29T16:46:33Z    Tianjin_2     43.597      162.0908    162.0908    32.8623     14.1989      0.6429    20.7465     20.3862     1.7676      12.5       1.9881      9.199         
2012-07-29T16:49:26Z    Tianjin_2     43.6024     162.112     162.112     32.847      14.2312      0.6292    20.754      20.3861     1.8048      12.5       1.9892      9.3931        
2012-07-29T16:52:27Z    Tianjin_2     43.6075     162.1327    162.1327    32.84       14.2507      0.6174    20.7572     20.3861     1.8205      12.5       1.9882      9.4667        
2012-07-29T16:55:29Z    Tianjin_2     43.6127     162.1532    162.1532    32.8386     14.171       0.5939    20.7504     20.3863     1.7859      12.5       1.9853      9.2883        
2012-07-29T16:58:30Z    Tianjin_2     43.6181     162.1753    162.1753    32.8295     13.9755      0.5476    20.7321     20.387      1.6925      12.5       1.9783      8.8066        
2012-07-29T17:01:32Z    Tianjin_2     43.6235     162.1969    162.1969    32.8012     13.7437      0.5264    20.7116     20.3879     1.5876      12.5       1.9699      8.2663        
2012-07-29T17:04:33Z    Tianjin_2     43.6286     162.2171    162.2171    32.7456     13.4065      0.4379    20.6903     20.3892     1.4772      12.5       1.9706      7.7497        
2012-07-29T17:07:26Z    Tianjin_2     43.6339     162.2375    162.2375    32.6924     13.2806      0.3414    20.6665     20.3897     1.3579      12.5       1.9661      7.1282        
2012-07-29T17:10:27Z    Tianjin_2     43.6392     162.2586    162.2586    32.6591     13.2626      0.3013    20.6312     20.3898     1.1841      12.5       1.9655      6.2175        
2012-07-29T17:13:29Z    Tianjin_2     43.6446     162.28      162.28      32.6508     13.2703      0.304     20.5831     20.3898     0.9483      12.5       1.9657      4.9797        
2012-07-29T17:55:32Z    Tianjin_2     43.72       162.5739    162.5739    32.7702     13.7415      0.4331    20.6319     20.3879     1.1964      12.5       1.9778      6.2559        
2012-07-29T17:58:33Z    Tianjin_2     43.7251     162.5934    162.5934    32.7641     13.7566      0.4301    20.6308     20.3879     1.1914      12.5       1.9784      6.2301        
2012-07-29T18:01:26Z    Tianjin_2     43.7306     162.6143    162.6143    32.7573     13.7859      0.4198    20.6271     20.3878     1.1737      12.5       1.9795      6.1375        
2012-07-29T18:04:27Z    Tianjin_2     43.7362     162.6355    162.6355    32.7583     13.858       0.4122    20.6193     20.3875     1.1367      12.5       1.9587      5.8725        
2012-07-29T18:07:29Z    Tianjin_2     43.7418     162.6568    162.6568    32.7676     13.7902      0.4074    20.6095     20.3878     1.0878      12.5       1.9562      5.6203        
2012-07-29T18:10:30Z    Tianjin_2     43.7474     162.6777    162.6777    32.7737     13.6753      0.4202    20.5981     20.3882     1.0298      12.5       1.9519      5.3211        
2012-07-29T18:13:32Z    Tianjin_2     43.7531     162.6992    162.6992    32.7639     13.7358      0.4159    20.5913     20.388      0.9975      12.5       1.9542      5.1544        
2012-07-29T18:16:33Z    Tianjin_2     43.7586     162.72      162.72      32.753      13.7063      0.3898    20.5932     20.3881     1.0062      12.5       1.9531      5.1996        
2012-07-29T18:19:26Z    Tianjin_2     43.764      162.7405    162.7405    32.7373     13.6536      0.3864    20.5893     20.3883     0.9858      12.5       1.9511      5.0951        
2012-07-29T18:22:27Z    Tianjin_2     43.7701     162.7628    162.7628    32.7309     13.6316      0.3816    20.5814     20.3884     0.9468      12.5       1.9503      4.8942        
2012-07-29T18:25:29Z    Tianjin_2     43.7757     162.7838    162.7838    32.7305     13.5892      0.3788    20.5739     20.3885     0.9093      12.5       1.9488      4.7007        
2012-07-29T18:28:30Z    Tianjin_2     43.781      162.8032    162.8032    32.735      13.585       0.3773    20.5702     20.3885     0.891       12.5       1.9486      4.6057        
2012-07-29T18:31:32Z    Tianjin_2     43.7865     162.8243    162.8243    32.7488     13.594       0.396     20.5641     20.3885     0.8612      12.5       1.9489      4.4514        
2012-07-29T18:34:33Z    Tianjin_2     43.7922     162.8452    162.8452    32.7613     13.5598      0.4191    20.5617     20.3886     0.849       12.5       1.9476      4.3879        
2012-07-29T18:37:26Z    Tianjin_2     43.7978     162.8655    162.8655    32.7604     13.5146      0.4195    20.5586     20.3888     0.8328      12.5       1.9459      4.3047        
2012-07-29T18:40:27Z    Tianjin_2     43.8033     162.8862    162.8862    32.7478     13.5322      0.395     20.5655     20.3887     0.867       12.5       1.9119      4.4019        
2012-07-29T18:43:29Z    Tianjin_2     43.8091     162.9073    162.9073    32.7405     13.572       0.3868    20.579      20.3886     0.9341      12.5       1.9134      4.7426        
2012-07-29T18:46:30Z    Tianjin_2     43.8148     162.9284    162.9284    32.7335     13.5923      0.3857    20.594      20.3885     1.008       12.5       1.9141      5.1177        
2012-07-29T18:49:32Z    Tianjin_2     43.8204     162.9489    162.9489    32.7398     13.6519      0.4082    20.5998     20.3883     1.0374      12.5       1.9163      5.2663        
2012-07-29T18:52:33Z    Tianjin_2     43.8255     162.9695    162.9695    32.7518     13.7286      0.4247    20.6052     20.388      1.0652      12.5       1.919       5.4061        
2012-07-29T18:55:26Z    Tianjin_2     43.8303     162.9903    162.9903    32.7481     13.7744      0.4331    20.6146     20.3879     1.1123      12.5       1.9207      5.6449        
2012-07-29T18:58:27Z    Tianjin_2     43.835      163.0113    163.0113    32.7532     13.8716      0.4495    20.6228     20.3875     1.1541      12.5       1.9242      5.8562        
2012-07-29T19:01:29Z    Tianjin_2     43.8399     163.0334    163.0334    32.7682     13.9926      0.4718    20.6308     20.3871     1.1957      12.5       1.9286      6.0655        
2012-07-29T19:04:30Z    Tianjin_2     43.8446     163.0543    163.0543    32.7851     13.9794      0.4665    20.6291     20.3871     1.1872      12.5       1.9281      6.0217        
2012-07-29T19:07:32Z    Tianjin_2     43.8492     163.0748    163.0748    32.7859     13.9171      0.448     20.6301     20.3873     1.1911      12.5       1.9258      6.0419        
2012-07-29T19:10:33Z    Tianjin_2     43.8539     163.0961    163.0961    32.7819     13.8372      0.4092    20.6297     20.3876     1.1874      12.5       1.9229      6.0243        
2012-07-29T19:13:26Z    Tianjin_2     43.859      163.1186    163.1186    32.7648     13.8508      0.3828    20.6266     20.3876     1.1723      12.5       1.9234      5.9483        
2012-07-29T19:16:27Z    Tianjin_2     43.8642     163.1418    163.1418    32.7461     13.7769      0.3497    20.612      20.3878     1.0996      12.5       1.8816      5.4665        
2012-07-29T19:19:29Z    Tianjin_2     43.8686     163.1619    163.1619    32.716      13.6378      0.3072    20.5914     20.3884     0.9958      12.5       1.8768      4.9531        
2012-07-29T19:22:30Z    Tianjin_2     43.873      163.1812    163.1812    32.6893     13.4747      0.2883    20.5659     20.389      0.8676      12.5       1.8712      4.3177        
2012-07-29T19:25:32Z    Tianjin_2     43.8777     163.2025    163.2025    32.6626     13.299       0.2751    20.5343     20.3897     0.7094      12.5       1.9022      3.6026        
2012-07-29T19:28:33Z    Tianjin_2     43.8824     163.2231    163.2231    32.6344     13.143       0.2635    20.5068     20.3903     0.5713      12.5       1.8967      2.9025        
2012-07-29T19:31:26Z    Tianjin_2     43.887      163.2444    163.2444    32.5923     12.9666      0.2447    20.4858     20.391      0.4652      12.5       1.8903      2.3648        
2012-07-29T19:34:27Z    Tianjin_2     43.8917     163.2657    163.2657    32.5635     12.8743      0.2239    20.4726     20.3913     0.3986      12.5       1.887       2.0271        
2012-07-29T19:37:29Z    Tianjin_2     43.8963     163.2863    163.2863    32.529      12.7506      0.2087    20.4611     20.3918     0.3396      12.5       1.8826      1.7279        
2012-07-29T19:40:30Z    Tianjin_2     43.9009     163.3078    163.3078    32.5095     12.6929      0.2002    20.4498     20.3921     0.283       12.5       1.8806      1.4402        
2012-07-29T19:43:32Z    Tianjin_2     43.9057     163.3293    163.3293    32.5032     12.6966      0.2049    20.4432     20.3921     0.2509      12.5       1.8807      1.2766        
2012-07-29T19:46:33Z    Tianjin_2     43.9106     163.3511    163.3511    32.5088     12.714       0.2006    20.4395     20.392      0.2328      12.5       1.8813      1.1845        
2012-07-29T19:49:26Z    Tianjin_2     43.9152     163.3726    163.3726    32.5113     12.6943      0.1907    20.4327     20.3921     0.1992      12.5       1.8806      1.0135        
2012-07-29T19:52:27Z    Tianjin_2     43.9202     163.3954    163.3954    32.5057     12.7229      0.1974    20.4328     20.392      0.2003      12.5       1.8501      1.002         
2012-07-29T19:55:29Z    Tianjin_2     43.9248     163.4167    163.4167    32.5102     12.7147      0.2043    20.4312     20.392      0.1925      12.5       1.8498      0.9629        
2012-07-29T19:58:30Z    Tianjin_2     43.929      163.4363    163.4363    32.5007     12.6837      0.1987    20.4285     20.3921     0.1785      12.5       1.8487      0.8932        
2012-07-29T20:01:32Z    Tianjin_2     43.9334     163.457     163.457     32.4925     12.6652      0.2019    20.4308     20.3922     0.1893      12.5       1.8481      0.947         
2012-07-29T20:04:33Z    Tianjin_2     43.9379     163.4777    163.4777    32.4919     12.6941      0.1925    20.4348     20.3921     0.2096      12.5       1.8491      1.0486        
2012-07-29T20:07:26Z    Tianjin_2     43.9426     163.4991    163.4991    32.4896     12.744       0.1949    20.4371     20.3919     0.2217      12.5       1.8508      1.1091        
2012-07-29T20:10:27Z    Tianjin_2     43.9473     163.5211    163.5211    32.49       12.7389      0.1939    20.4338     20.3919     0.2051      12.5       1.8506      1.026         
2012-07-29T20:13:29Z    Tianjin_2     43.9519     163.5424    163.5424    32.495      12.7825      0.1827    20.4325     20.3918     0.1997      12.5       1.8521      0.999         
2012-07-29T20:55:32Z    Tianjin_2     44.0168     163.8421    163.8421    32.5961     12.7989      0.1415    20.4881     20.3916     0.4736      12.5       1.8354      2.3455        
2012-07-29T20:58:33Z    Tianjin_2     44.0212     163.8627    163.8627    32.605      12.8123      0.1384    20.4863     20.3915     0.4646      12.5       1.8358      2.301         
2012-07-29T21:01:26Z    Tianjin_2     44.0266     163.8872    163.8872    32.6138     12.8376      0.1418    20.49       20.3914     0.4834      12.5       1.8387      2.3961        
2012-07-29T21:04:27Z    Tianjin_2     44.0316     163.9089    163.9089    32.6301     12.9042      0.1452    20.4959     20.3911     0.5139      12.5       1.841       2.5466        
2012-07-29T21:07:29Z    Tianjin_2     44.0354     163.9271    163.9271    32.6291     12.9931      0.1466    20.5037     20.3908     0.5536      12.5       1.844       2.743         
2012-07-29T21:10:30Z    Tianjin_2     44.0403     163.9488    163.9488    32.6401     13.0106      0.1657    20.5046     20.3907     0.5586      12.5       1.8446      2.7677        
2012-07-29T21:13:32Z    Tianjin_2     44.0452     163.9703    163.9703    32.6655     13.0334      0.1706    20.4972     20.3906     0.5228      12.5       1.8453      2.5895        
2012-07-29T21:16:33Z    Tianjin_2     44.0499     163.9918    163.9918    32.6973     13.1076      0.1736    20.4943     20.3903     0.5099      12.5       1.8478      2.5247        
2012-07-29T21:19:26Z    Tianjin_2     44.0547     164.0132    164.0132    32.7163     13.233       0.176     20.5052     20.3898     0.566       12.5       1.8521      2.8015        
2012-07-29T21:22:27Z    Tianjin_2     44.0596     164.0345    164.0345    32.7359     13.3523      0.1845    20.5204     20.3894     0.6429      12.5       1.8562      3.1807        
2012-07-29T21:25:29Z    Tianjin_2     44.0645     164.0561    164.0561    32.7575     13.4612      0.1968    20.531      20.3889     0.6968      12.5       1.8599      3.4464        
2012-07-29T21:28:30Z    Tianjin_2     44.0695     164.0778    164.0778    32.7775     13.4933      0.1912    20.5366     20.3888     0.725       12.5       1.861       3.5848        
2012-07-29T21:31:32Z    Tianjin_2     44.0743     164.0991    164.0991    32.7866     13.464       0.1788    20.5339     20.3889     0.7112      12.5       1.86        3.5167        
2012-07-29T21:34:33Z    Tianjin_2     44.0793     164.1196    164.1196    32.7954     13.4777      0.1669    20.5387     20.3888     0.7351      12.5       1.8604      3.6347        
2012-07-29T21:37:26Z    Tianjin_2     44.084      164.1396    164.1396    32.801      13.4893      0.1699    20.5424     20.3888     0.7534      12.5       1.8819      3.7671        
2012-07-29T21:40:27Z    Tianjin_2     44.0888     164.1604    164.1604    32.8006     13.4878      0.1761    20.5528     20.3888     0.8046      12.5       1.8819      4.0228        
2012-07-29T21:43:29Z    Tianjin_2     44.0938     164.1814    164.1814    32.7915     13.4868      0.1847    20.5579     20.3888     0.8293      12.5       1.8818      4.1468        
2012-07-29T21:46:30Z    Tianjin_2     44.0985     164.2022    164.2022    32.7785     13.4354      0.1795    20.5611     20.389      0.8439      12.5       1.88        4.2206        
2012-07-29T21:49:32Z    Tianjin_2     44.1034     164.2236    164.2236    32.768      13.3572      0.1742    20.5588     20.3893     0.8312      12.5       1.8773      4.1578        
2012-07-29T21:52:33Z    Tianjin_2     44.1085     164.2456    164.2456    32.7646     13.2822      0.172     20.5478     20.3896     0.7761      12.5       1.8746      3.8828        
2012-07-29T21:55:26Z    Tianjin_2     44.1134     164.2669    164.2669    32.7632     13.2507      0.1758    20.5401     20.3897     0.7378      12.5       1.8735      3.6913        
2012-07-29T21:58:27Z    Tianjin_2     44.1184     164.2884    164.2884    32.768      13.2032      0.1773    20.5347     20.3899     0.7102      12.5       1.8718      3.5535        
2012-07-29T22:01:29Z    Tianjin_2     44.1234     164.3099    164.3099    32.793      13.219       0.1845    20.5376     20.3898     0.7252      12.5       1.8723      3.6278        
2012-07-29T22:04:30Z    Tianjin_2     44.128      164.3303    164.3303    32.821      13.3481      0.1919    20.5389     20.3893     0.7337      12.5       1.9036      3.7212        
2012-07-29T22:07:32Z    Tianjin_2     44.1329     164.3517    164.3517    32.8367     13.5391      0.1895    20.5431     20.3886     0.758       12.5       1.9107      3.8435        
2012-07-29T22:10:33Z    Tianjin_2     44.1379     164.3729    164.3729    32.8744     13.714       0.2099    20.5391     20.3879     0.7415      12.5       1.9172      3.7579        
2012-07-29T22:13:26Z    Tianjin_2     44.1428     164.3943    164.3943    32.906      13.8439      0.2239    20.5336     20.3874     0.7171      12.5       1.9471      3.6806        
2012-07-29T22:16:27Z    Tianjin_2     44.1478     164.4159    164.4159    32.9256     13.9017      0.2231    20.5334     20.3871     0.7175      12.5       1.9493      3.6822        
2012-07-29T22:19:29Z    Tianjin_2     44.1527     164.4368    164.4368    32.9403     13.9362      0.2126    20.5347     20.387      0.7245      12.5       1.9506      3.7174        
2012-07-29T22:22:30Z    Tianjin_2     44.1578     164.4594    164.4594    32.9477     13.9464      0.204     20.5344     20.387      0.7231      12.5       1.951       3.71          
2012-07-29T22:25:32Z    Tianjin_2     44.1623     164.4812    164.4812    32.9516     13.9396      0.1939    20.5365     20.387      0.7336      12.5       1.9507      3.7638        
2012-07-29T22:28:33Z    Tianjin_2     44.1663     164.5015    164.5015    32.9506     13.8594      0.1913    20.5365     20.3873     0.7321      12.5       1.9476      3.7564        
2012-07-29T22:31:26Z    Tianjin_2     44.1705     164.5239    164.5239    32.9568     13.8335      0.1825    20.5351     20.3873     0.7247      12.5       1.9466      3.7184        
2012-07-29T22:34:27Z    Tianjin_2     44.1746     164.5455    164.5455    32.9583     13.8436      0.1782    20.5407     20.3873     0.7526      12.5       1.947       3.8614        
2012-07-29T22:37:29Z    Tianjin_2     44.1788     164.567     164.567     32.9406     13.7679      0.1742    20.5434     20.3876     0.7644      12.5       1.9441      3.9226        
2012-07-29T22:40:30Z    Tianjin_2     44.1828     164.5885    164.5885    32.9169     13.7026      0.1872    20.539      20.3879     0.7411      12.5       1.9416      3.8038        
2012-07-29T22:43:32Z    Tianjin_2     44.187      164.6093    164.6093    32.8812     13.5795      0.19      20.5373     20.3883     0.7305      12.5       1.9368      3.7505        
2012-07-29T22:46:33Z    Tianjin_2     44.1913     164.6311    164.6311    32.8026     13.343       0.1783    20.5345     20.3893     0.7122      12.5       1.966       3.7312        
2012-07-29T22:49:26Z    Tianjin_2     44.1957     164.6535    164.6535    32.6671     12.9657      0.1609    20.5363     20.3909     0.7134      12.5       1.9509      3.7412        
2012-07-29T22:52:27Z    Tianjin_2     44.1999     164.6747    164.6747    32.6282     12.9161      0.1554    20.5374     20.3911     0.7175      12.5       1.949       3.7633        
2012-07-29T22:55:29Z    Tianjin_2     44.2042     164.6949    164.6949    32.6263     12.9572      0.1532    20.5454     20.3909     0.7577      12.5       1.9506      3.9745        
2012-07-29T22:58:30Z    Tianjin_2     44.2086     164.7159    164.7159    32.6249     13.0356      0.1508    20.5488     20.3907     0.7756      12.5       1.9538      4.0684        
2012-07-29T23:01:32Z    Tianjin_2     44.2131     164.7371    164.7371    32.6313     13.0802      0.1526    20.5459     20.3905     0.7621      12.5       1.9556      3.9975        
2012-07-29T23:04:33Z    Tianjin_2     44.2177     164.7587    164.7587    32.6447     13.0793      0.1433    20.5374     20.3905     0.7206      12.5       1.9556      3.7795        
2012-07-29T23:07:26Z    Tianjin_2     44.2224     164.781     164.781     32.6625     13.127       0.1457    20.5272     20.3903     0.6717      12.5       1.9575      3.5225        
2012-07-29T23:10:27Z    Tianjin_2     44.2271     164.802     164.802     32.6797     13.1047      0.1571    20.518      20.3903     0.6262      12.5       1.9565      3.2835        
2012-07-29T23:13:29Z    Tianjin_2     44.2316     164.8226    164.8226    32.6793     13.1093      0.1514    20.5076     20.3903     0.5752      12.5       1.9567      3.0161        
2012-07-29T23:55:32Z    Tianjin_2     44.2954     165.1177    165.1177    32.7649     13.2917      0.1591    20.5135     20.3895     0.6078      12.5       2.0136      3.2658        
2012-07-29T23:58:33Z    Tianjin_2     44.2996     165.1388    165.1388    32.769      13.2922      0.1655    20.5115     20.3895     0.5982      12.5       2.0725      3.3082        
2012-07-30T00:01:26Z    Tianjin_2     44.3041     165.1599    165.1599    32.774      13.2907      0.1701    20.509      20.3895     0.586       12.5       2.4718      3.8649        
2012-07-30T00:04:27Z    Tianjin_2     44.3085     165.1816    165.1816    32.7811     13.2844      0.1665    20.5042     20.3895     0.5622      12.5       2.4713      3.7074        
2012-07-30T00:07:29Z    Tianjin_2     44.313      165.2033    165.2033    32.7847     13.259       0.1676    20.5037     20.3896     0.5596      12.5       2.4695      3.6891        
2012-07-30T00:10:30Z    Tianjin_2     44.3175     165.2247    165.2247    32.7738     13.148       0.1582    20.4983     20.39       0.5308      12.5       2.4618      3.4967        
2012-07-30T00:13:32Z    Tianjin_2     44.3218     165.2459    165.2459    32.7663     13.1333      0.1635    20.4932     20.3901     0.5057      12.5       2.4608      3.3316        
2012-07-30T00:16:33Z    Tianjin_2     44.3261     165.267     165.267     32.7831     13.188       0.1646    20.4927     20.3899     0.5041      12.5       2.4646      3.3218        
2012-07-30T00:19:26Z    Tianjin_2     44.3306     165.2885    165.2885    32.7805     13.1763      0.1615    20.4915     20.3899     0.4982      12.5       2.4638      3.2827        
2012-07-30T00:22:27Z    Tianjin_2     44.335      165.3103    165.3103    32.769      13.1446      0.1566    20.488      20.3901     0.4803      12.5       2.4616      3.1641        
2012-07-30T00:25:29Z    Tianjin_2     44.3394     165.3318    165.3318    32.762      13.1087      0.1429    20.483      20.3902     0.455       12.5       2.4591      2.9967        
2012-07-30T00:28:30Z    Tianjin_2     44.3438     165.3533    165.3533    32.7551     13.1039      0.1303    20.478      20.3902     0.4302      12.5       2.4588      2.8338        
2012-07-30T00:31:32Z    Tianjin_2     44.3481     165.3748    165.3748    32.7535     13.0797      0.1398    20.476      20.3903     0.4201      12.5       2.4572      2.7666        
2012-07-30T00:34:33Z    Tianjin_2     44.3528     165.3959    165.3959    32.7543     13.0504      0.1437    20.4792     20.3904     0.4355      12.5       2.5067      2.928         
2012-07-30T00:37:26Z    Tianjin_2     44.3574     165.4172    165.4172    32.7512     13.0293      0.1401    20.4815     20.3905     0.446       12.5       2.5052      2.9981        
2012-07-30T00:40:27Z    Tianjin_2     44.3618     165.4385    165.4385    32.7432     13.0074      0.1368    20.4841     20.3906     0.4584      12.5       2.5037      3.0806        
2012-07-30T00:43:29Z    Tianjin_2     44.3664     165.4598    165.4598    32.7448     12.978       0.129     20.4786     20.3907     0.4312      12.5       2.5016      2.8973        
2012-07-30T00:46:30Z    Tianjin_2     44.3709     165.481     165.481     32.7624     12.9864      0.131     20.4707     20.3906     0.3928      12.5       2.5022      2.639         
2012-07-30T00:49:32Z    Tianjin_2     44.3753     165.502     165.502     32.7966     13.0362      0.1269    20.466      20.3904     0.3706      12.5       2.546       2.5303        
2012-07-30T00:52:33Z    Tianjin_2     44.3798     165.5232    165.5232    32.8146     13.0465      0.1176    20.4607     20.3903     0.3453      12.5       2.5467      2.3573        
2012-07-30T00:55:26Z    Tianjin_2     44.3843     165.5448    165.5448    32.8099     12.9878      0.1233    20.4548     20.3906     0.3151      12.5       2.5424      2.1504        
2012-07-30T00:58:27Z    Tianjin_2     44.3887     165.5658    165.5658    32.7993     12.954       0.1138    20.4454     20.3907     0.2682      12.5       2.5399      1.8301        
2012-07-30T01:01:29Z    Tianjin_2     44.3931     165.5871    165.5871    32.7973     12.9135      0.1154    20.4396     20.3909     0.2392      12.5       2.5369      1.6318        
2012-07-30T01:04:30Z    Tianjin_2     44.3976     165.6086    165.6086    32.7956     12.9121      0.1161    20.441      20.3909     0.2459      12.5       2.5368      1.6769        
2012-07-30T01:07:32Z    Tianjin_2     44.4019     165.6292    165.6292    32.7877     12.9147      0.1202    20.4448     20.3909     0.2647      12.5       2.6111      1.858         
2012-07-30T01:10:33Z    Tianjin_2     44.4062     165.6498    165.6498    32.788      12.9233      0.1161    20.4466     20.3908     0.2735      12.5       2.6118      1.9205        
2012-07-30T01:13:26Z    Tianjin_2     44.4106     165.6706    165.6706    32.8002     12.9904      0.1217    20.4461     20.3906     0.2722      12.5       2.617       1.9119        
2012-07-30T01:16:27Z    Tianjin_2     44.415      165.6916    165.6916    32.8166     13.2091      0.1187    20.45       20.3898     0.2953      12.5       2.6342      2.0786        
2012-07-30T01:19:29Z    Tianjin_2     44.4197     165.7143    165.7143    32.8357     13.299       0.1198    20.4438     20.3894     0.2669      12.5       2.6413      1.8801        
2012-07-30T01:22:30Z    Tianjin_2     44.4242     165.7355    165.7355    32.8316     13.2764      0.1157    20.4332     20.3895     0.2143      12.5       2.6395      1.5093        
2012-07-30T01:25:32Z    Tianjin_2     44.4285     165.755     165.755     32.8196     13.2881      0.1163    20.4319     20.3895     0.208       12.5       2.6405      1.465         
2012-07-30T01:28:33Z    Tianjin_2     44.4333     165.7772    165.7772    32.8224     13.2633      0.1216    20.4396     20.3896     0.2454      12.5       2.6385      1.7278        
2012-07-30T01:31:26Z    Tianjin_2     44.438      165.799     165.799     32.834      13.2467      0.1136    20.4482     20.3896     0.2875      12.5       2.6371      2.0242        
2012-07-30T01:34:27Z    Tianjin_2     44.4425     165.8197    165.8197    32.852      13.2117      0.1155    20.4535     20.3897     0.3129      12.5       2.6343      2.2019        
2012-07-30T01:37:29Z    Tianjin_2     44.4469     165.8409    165.8409    32.8675     13.0363      0.1168    20.4539     20.3903     0.3118      12.5       2.6204      2.1901        
2012-07-30T01:40:30Z    Tianjin_2     44.4514     165.8619    165.8619    32.8744     12.9535      0.1159    20.4514     20.3906     0.298       12.5       2.6139      2.0914        
2012-07-30T01:43:32Z    Tianjin_2     44.4559     165.8829    165.8829    32.8767     12.904       0.1078    20.4582     20.3908     0.3308      12.5       2.6921      2.3936        
2012-07-30T01:46:33Z    Tianjin_2     44.4606     165.905     165.905     32.8766     12.8701      0.1084    20.4631     20.3909     0.3542      12.5       2.6892      2.5617        
2012-07-30T01:49:26Z    Tianjin_2     44.4654     165.9279    165.9279    32.8762     12.8532      0.1124    20.468      20.391      0.3779      12.5       2.6878      2.7328        
2012-07-30T01:52:27Z    Tianjin_2     44.4697     165.9483    165.9483    32.8779     12.8474      0.1208    20.4727     20.391      0.4008      12.5       2.6873      2.8984        
2012-07-30T01:55:29Z    Tianjin_2     44.474      165.9687    165.9687    32.8821     12.8287      0.1167    20.477      20.391      0.4214      12.5       2.6858      3.0464        
2012-07-30T01:58:30Z    Tianjin_2     44.4786     165.9911    165.9911    32.8802     12.8581      0.1156    20.4887     20.3909     0.4795      12.5       2.6882      3.468         
2012-07-30T02:01:32Z    Tianjin_2     44.483      166.0125    166.0125    32.8624     12.9536      0.1091    20.5004     20.3906     0.5386      12.5       2.6963      3.8994        
2012-07-30T02:04:33Z    Tianjin_2     44.4875     166.0335    166.0335    32.8525     13.0416      0.1221    20.5059     20.3903     0.567       12.5       2.7037      4.1094        
2012-07-30T02:07:26Z    Tianjin_2     44.4922     166.0553    166.0553    32.8481     13.075       0.1289    20.5108     20.3902     0.5916      12.5       2.7065      4.2896        
2012-07-30T02:10:27Z    Tianjin_2     44.4957     166.0773    166.0773    32.847      13.0405      0.1308    20.5213     20.3903     0.6421      12.5       2.7036      4.6538        
2012-07-30T02:13:29Z    Tianjin_2     44.4918     166.0979    166.0979    32.8467     12.9663      0.1445    20.531      20.3906     0.6883      12.5       2.6974      4.9851        
2012-07-30T02:55:32Z    Tianjin_2     44.5258     166.3871    166.3871    32.6398     12.8589      0.1252    20.5813     20.3913     0.9319      12.5       2.8019      7.0355        
2012-07-30T02:58:33Z    Tianjin_2     44.5315     166.4089    166.4089    32.6216     12.8958      0.1228    20.5876     20.3912     0.9631      12.5       2.8054      7.2748        
2012-07-30T03:01:26Z    Tianjin_2     44.537      166.4302    166.4302    32.6099     12.9349      0.1262    20.5933     20.3911     0.992       12.5       2.809       7.4976        
2012-07-30T03:04:27Z    Tianjin_2     44.5428     166.4519    166.4519    32.6087     12.9603      0.1327    20.5948     20.391      0.9995      12.5       2.8114      7.5563        
2012-07-30T03:07:29Z    Tianjin_2     44.5486     166.4741    166.4741    32.6162     12.9727      0.1379    20.5985     20.3909     1.0183      12.5       2.8125      7.6995        
2012-07-30T03:10:30Z    Tianjin_2     44.5542     166.4954    166.4954    32.627      12.9681      0.1368    20.6056     20.3909     1.0527      12.5       2.812       7.9588        
2012-07-30T03:13:32Z    Tianjin_2     44.5598     166.5171    166.5171    32.6284     12.9543      0.1352    20.61       20.391      1.0741      12.5       2.8108      8.1191        
2012-07-30T03:16:33Z    Tianjin_2     44.5656     166.5391    166.5391    32.6253     12.951       0.1373    20.613      20.391      1.0889      12.5       2.8105      8.2308        
2012-07-30T03:19:26Z    Tianjin_2     44.5713     166.5611    166.5611    32.6219     12.929       0.1458    20.6177     20.3911     1.1116      12.5       2.8084      8.4001        
2012-07-30T03:22:27Z    Tianjin_2     44.5771     166.5837    166.5837    32.6205     12.9095      0.1415    20.6176     20.3911     1.1108      12.5       2.8066      8.3922        
2012-07-30T03:25:29Z    Tianjin_2     44.5826     166.6054    166.6054    32.6237     12.8754      0.1537    20.6225     20.3912     1.1339      12.5       2.8035      8.5631        
2012-07-30T03:28:30Z    Tianjin_2     44.5878     166.6265    166.6265    32.6286     12.8464      0.1572    20.622      20.3913     1.1311      12.5       2.8608      8.7216        
2012-07-30T03:31:32Z    Tianjin_2     44.5936     166.6494    166.6494    32.6331     12.8564      0.1438    20.6202     20.3913     1.1224      12.5       2.8618      8.6549        
2012-07-30T03:34:33Z    Tianjin_2     44.5992     166.6717    166.6717    32.6368     12.8585      0.1418    20.6196     20.3913     1.1196      12.5       2.862       8.6336        
2012-07-30T03:37:26Z    Tianjin_2     44.6045     166.6935    166.6935    32.645      12.8612      0.1473    20.6133     20.3913     1.0889      12.5       2.8622      8.3967        
2012-07-30T03:40:27Z    Tianjin_2     44.6099     166.7154    166.7154    32.6561     12.8528      0.1468    20.6129     20.3913     1.0869      12.5       2.8614      8.3798        
2012-07-30T03:43:29Z    Tianjin_2     44.6157     166.739     166.739     32.6622     12.8431      0.1418    20.6161     20.3913     1.1023      12.5       2.8604      8.4973        
2012-07-30T03:46:30Z    Tianjin_2     44.6211     166.7613    166.7613    32.6617     12.8467      0.1366    20.6114     20.3913     1.0793      12.5       2.8608      8.3199        
2012-07-30T03:49:32Z    Tianjin_2     44.626      166.7813    166.7813    32.6514     12.8754      0.1253    20.6072     20.3912     1.0592      12.5       2.7912      7.9619        
2012-07-30T03:52:33Z    Tianjin_2     44.6316     166.8038    166.8038    32.6454     12.9074      0.1363    20.5957     20.3911     1.0033      12.5       2.7942      7.5458        
2012-07-30T03:55:26Z    Tianjin_2     44.6371     166.8267    166.8267    32.6478     12.9116      0.1405    20.5781     20.3911     0.917       12.5       2.7946      6.8967        
2012-07-30T03:58:27Z    Tianjin_2     44.6425     166.8489    166.8489    32.6443     12.8581      0.1342    20.5659     20.3913     0.8566      12.5       2.7895      6.4379        
2012-07-30T04:01:29Z    Tianjin_2     44.6476     166.8711    166.8711    32.6307     12.8296      0.1404    20.5538     20.3914     0.7966      12.5       2.7869      5.9853        
2012-07-30T04:04:30Z    Tianjin_2     44.6527     166.8937    166.8937    32.61       12.808       0.1299    20.5473     20.3915     0.764       12.5       2.8359      5.845         
2012-07-30T04:07:32Z    Tianjin_2     44.6577     166.9168    166.9168    32.5789     12.6716      0.1316    20.539      20.3921     0.7206      12.5       2.8226      5.504         
2012-07-30T04:10:33Z    Tianjin_2     44.6625     166.9407    166.9407    32.5554     12.6178      0.1413    20.5322     20.3923     0.686       12.5       2.8174      5.2368        
2012-07-30T04:13:26Z    Tianjin_2     44.6669     166.963     166.963     32.5293     12.6241      0.1365    20.5389     20.3923     0.719       12.5       2.8181      5.4896        
2012-07-30T04:16:27Z    Tianjin_2     44.6712     166.9846    166.9846    32.4931     12.5937      0.1437    20.5454     20.3925     0.7501      12.5       2.8153      5.7267        
2012-07-30T04:19:29Z    Tianjin_2     44.6757     167.0071    167.0071    32.4519     12.5087      0.1473    20.5488     20.3928     0.7648      12.5       2.8071      5.8332        
2012-07-30T04:22:30Z    Tianjin_2     44.6803     167.0299    167.0299    32.442      12.5238      0.1578    20.5491     20.3928     0.7664      12.5       2.8087      5.8477        
2012-07-30T04:25:32Z    Tianjin_2     44.685      167.0535    167.0535    32.4476     12.5622      0.1601    20.551      20.3926     0.7765      12.5       2.8124      5.9275        
2012-07-30T04:28:33Z    Tianjin_2     44.6897     167.0764    167.0764    32.442      12.5686      0.1737    20.5527     20.3926     0.7848      12.5       2.813       5.9913        
2012-07-30T04:31:26Z    Tianjin_2     44.6942     167.0984    167.0984    32.4275     12.5398      0.1781    20.5515     20.3928     0.7783      12.5       2.8103      5.94          
2012-07-30T04:34:27Z    Tianjin_2     44.6987     167.1216    167.1216    32.4107     12.4923      0.1843    20.5464     20.393      0.7526      12.5       2.8057      5.7408        
2012-07-30T04:37:29Z    Tianjin_2     44.7031     167.1441    167.1441    32.3915     12.4418      0.1883    20.5354     20.3932     0.6976      12.5       2.8827      5.474         
2012-07-30T04:40:30Z    Tianjin_2     44.7073     167.1656    167.1656    32.3736     12.3877      0.2015    20.531      20.3934     0.6747      12.5       2.8772      5.2911        
2012-07-30T04:43:32Z    Tianjin_2     44.7117     167.1884    167.1884    32.3654     12.4013      0.1994    20.5364     20.3934     0.7015      12.5       2.8786      5.502         
2012-07-30T04:46:33Z    Tianjin_2     44.7161     167.2114    167.2114    32.358      12.3811      0.2008    20.5404     20.3934     0.7204      12.5       2.8766      5.6494        
2012-07-30T04:49:26Z    Tianjin_2     44.7204     167.2345    167.2345    32.3304     12.2996      0.2008    20.5391     20.3938     0.7124      12.5       2.8684      5.5811        
2012-07-30T04:52:27Z    Tianjin_2     44.7245     167.2571    167.2571    32.3115     12.2436      0.2077    20.5331     20.394      0.682       12.5       2.8628      5.3395        
2012-07-30T04:55:29Z    Tianjin_2     44.7287     167.2791    167.2791    32.3051     12.1687      0.2301    20.5232     20.3943     0.6323      12.5       2.8552      4.9447        
2012-07-30T04:58:30Z    Tianjin_2     44.7329     167.3014    167.3014    32.2787     12.0691      0.2354    20.5172     20.3947     0.6007      12.5       2.8452      4.6918        
2012-07-30T05:01:32Z    Tianjin_2     44.7371     167.324     167.324     32.263      12.0555      0.2282    20.5113     20.3948     0.5711      12.5       2.8439      4.4602        
2012-07-30T05:04:33Z    Tianjin_2     44.7417     167.3482    167.3482    32.2618     12.1         0.2219    20.5038     20.3946     0.5353      12.5       2.8484      4.1834        
2012-07-30T05:07:26Z    Tianjin_2     44.7459     167.3706    167.3706    32.2649     12.0916      0.2307    20.4905     20.3946     0.4701      12.5       2.8475      3.6737        
2012-07-30T05:10:27Z    Tianjin_2     44.7498     167.3922    167.3922    32.2593     12.0138      0.2256    20.4843     20.3949     0.4383      12.5       2.9481      3.5522        
2012-07-30T05:13:29Z    Tianjin_2     44.7541     167.4153    167.4153    32.2627     11.9857      0.2402    20.4777     20.395      0.4051      12.5       2.9451      3.2818        
2012-07-30T05:55:32Z    Tianjin_2     44.8181     167.7364    167.7364    32.2334     12.2425      0.2282    20.5219     20.3941     0.6265      12.5       3.088       5.2932        
2012-07-30T05:58:33Z    Tianjin_2     44.823      167.7592    167.7592    32.2289     12.2209      0.2288    20.5115     20.3942     0.5751      12.5       3.0856      4.8579        
2012-07-30T06:01:26Z    Tianjin_2     44.8279     167.7817    167.7817    32.2346     12.2173      0.2429    20.504      20.3942     0.5384      12.5       3.0851      4.5477        
2012-07-30T06:04:27Z    Tianjin_2     44.8328     167.8047    167.8047    32.2428     12.1892      0.2554    20.4995     20.3943     0.5157      12.5       3.0819      4.3536        
2012-07-30T06:07:29Z    Tianjin_2     44.8378     167.8286    167.8286    32.246      12.1779      0.2561    20.4994     20.3944     0.515       12.5       3.0806      4.3462        
2012-07-30T06:10:30Z    Tianjin_2     44.8428     167.8519    167.8519    32.2475     12.1674      0.2554    20.5042     20.3944     0.5384      12.5       3.0794      4.5435        
2012-07-30T06:13:32Z    Tianjin_2     44.8476     167.8745    167.8745    32.2477     12.1465      0.2545    20.506      20.3945     0.5469      12.5       3.077       4.6133        
2012-07-30T06:16:33Z    Tianjin_2     44.8524     167.8975    167.8975    32.2489     12.1405      0.2549    20.5055     20.3945     0.5445      12.5       3.1671      4.7277        
2012-07-30T06:19:26Z    Tianjin_2     44.8572     167.9205    167.9205    32.2404     12.1383      0.2506    20.5079     20.3945     0.5558      12.5       3.1669      4.8265        
2012-07-30T06:22:27Z    Tianjin_2     44.8618     167.9437    167.9437    32.2369     12.1318      0.2502    20.5061     20.3945     0.5471      12.5       3.1661      4.7505        
2012-07-30T06:25:29Z    Tianjin_2     44.8664     167.9667    167.9667    32.2251     12.129       0.2446    20.5061     20.3946     0.5469      12.5       3.1658      4.7487        
2012-07-30T06:28:30Z    Tianjin_2     44.871      167.9902    167.9902    32.2042     12.1388      0.2369    20.5031     20.3946     0.5321      12.5       3.1671      4.6217        
2012-07-30T06:31:32Z    Tianjin_2     44.8754     168.0137    168.0137    32.1969     12.161       0.2397    20.5004     20.3945     0.5194      12.5       3.1495      4.4846        
2012-07-30T06:34:33Z    Tianjin_2     44.8796     168.0374    168.0374    32.2093     12.155       0.2407    20.4981     20.3945     0.5079      12.5       3.1487      4.3842        
2012-07-30T06:37:26Z    Tianjin_2     44.8838     168.0608    168.0608    32.2216     12.1251      0.2525    20.4945     20.3946     0.4897      12.5       3.1451      4.2251        
2012-07-30T06:40:27Z    Tianjin_2     44.8878     168.0841    168.0841    32.2192     12.0677      0.25      20.4902     20.3948     0.468       12.5       3.1384      4.0337        
2012-07-30T06:43:29Z    Tianjin_2     44.892      168.1081    168.1081    32.2246     11.9261      0.257     20.4911     20.3953     0.4694      12.5       3.1216      4.0361        
2012-07-30T06:46:30Z    Tianjin_2     44.896      168.1315    168.1315    32.2341     11.7863      0.2781    20.4964     20.3958     0.4931      12.5       3.1724      4.3211        
2012-07-30T06:49:32Z    Tianjin_2     44.8999     168.1544    168.1544    32.2363     11.762       0.2757    20.5058     20.3959     0.5389      12.5       3.1694      4.721         
2012-07-30T06:52:33Z    Tianjin_2     44.9037     168.1771    168.1771    32.2415     11.7725      0.2756    20.5146     20.3959     0.5823      12.5       3.1707      5.1015        
2012-07-30T06:55:26Z    Tianjin_2     44.9079     168.2022    168.2022    32.2453     11.8516      0.2789    20.5209     20.3956     0.6146      12.5       3.1802      5.3916        
2012-07-30T06:58:27Z    Tianjin_2     44.9117     168.2257    168.2257    32.2375     12.0039      0.272     20.5211     20.395      0.6183      12.5       3.1987      5.4388        
2012-07-30T07:01:29Z    Tianjin_2     44.9153     168.2472    168.2472    32.2272     12.1013      0.2756    20.5199     20.3947     0.614       12.5       3.2106      5.4098        
2012-07-30T07:04:30Z    Tianjin_2     44.9193     168.2711    168.2711    32.2178     12.1534      0.2731    20.5152     20.3945     0.5919      12.5       3.217       5.22          
2012-07-30T07:07:32Z    Tianjin_2     44.9236     168.297     168.297     32.2286     12.1012      0.2774    20.5117     20.3947     0.574       12.5       3.2106      5.0579        
2012-07-30T07:10:33Z    Tianjin_2     44.9275     168.3199    168.3199    32.2489     12.0091      0.2788    20.5081     20.395      0.5544      12.5       3.1993      4.8767        
2012-07-30T07:13:26Z    Tianjin_2     44.9312     168.3409    168.3409    32.251      12.0663      0.2765    20.5066     20.3948     0.5485      12.5       3.2062      4.8291        
2012-07-30T07:16:27Z    Tianjin_2     44.9353     168.364     168.364     32.2739     11.9953      0.2739    20.5073     20.395      0.5508      12.5       3.1975      4.8428        
2012-07-30T07:19:29Z    Tianjin_2     44.9394     168.3871    168.3871    32.27       12.032       0.2655    20.5067     20.3949     0.5485      12.5       3.2631      4.9179        
2012-07-30T07:22:30Z    Tianjin_2     44.9436     168.4109    168.4109    32.2697     12.0327      0.2753    20.5076     20.3949     0.5525      12.5       3.2632      4.9541        
2012-07-30T07:25:32Z    Tianjin_2     44.9478     168.4339    168.4339    32.2732     12.0232      0.2725    20.5024     20.3949     0.5273      12.5       3.2619      4.7271        
2012-07-30T07:28:33Z    Tianjin_2     44.9521     168.4569    168.4569    32.2731     12.0132      0.276     20.4983     20.3949     0.507       12.5       3.2607      4.5442        
2012-07-30T07:31:26Z    Tianjin_2     44.9564     168.48      168.48      32.285      12.018       0.278     20.4983     20.3949     0.5071      12.5       3.2613      4.5446        
2012-07-30T07:34:27Z    Tianjin_2     44.9605     168.5027    168.5027    32.3137     12.0398      0.2706    20.4958     20.3948     0.4952      12.5       3.2638      4.4389        
2012-07-30T07:37:29Z    Tianjin_2     44.9647     168.526     168.526     32.3313     12.0312      0.2708    20.4959     20.3948     0.4956      12.5       3.2627      4.4414        
2012-07-30T07:40:30Z    Tianjin_2     44.9687     168.5483    168.5483    32.3426     12.0229      0.2757    20.4969     20.3948     0.5006      12.5       3.2616      4.4855        
2012-07-30T07:43:32Z    Tianjin_2     44.973      168.5718    168.5718    32.3689     12.0311      0.2742    20.5018     20.3947     0.5248      12.5       3.2625      4.7014        
2012-07-30T07:46:33Z    Tianjin_2     44.9773     168.5963    168.5963    32.392      12.2428      0.2617    20.5089     20.3939     0.5639      12.5       3.2889      5.0698        
2012-07-30T07:49:26Z    Tianjin_2     44.9812     168.6187    168.6187    32.3911     12.3629      0.2702    20.5211     20.3935     0.626       12.5       3.304       5.6396        
2012-07-30T07:52:27Z    Tianjin_2     44.9849     168.6401    168.6401    32.3956     12.4206      0.2717    20.5339     20.3932     0.6897      12.5       3.3801      6.3487        
2012-07-30T07:55:29Z    Tianjin_2     44.9889     168.663     168.663     32.4008     12.4362      0.2754    20.5359     20.3932     0.6997      12.5       3.3821      6.4422        
2012-07-30T07:58:30Z    Tianjin_2     44.9928     168.6858    168.6858    32.4037     12.4356      0.282     20.5344     20.3932     0.6928      12.5       3.382       6.378         
2012-07-30T08:01:32Z    Tianjin_2     44.9968     168.7081    168.7081    32.4013     12.4428      0.2763    20.5366     20.3932     0.7033      12.5       3.383       6.4763        
2012-07-30T08:04:33Z    Tianjin_2     45.0007     168.7313    168.7313    32.397      12.4308      0.2762    20.5343     20.3932     0.6919      12.5       3.3814      6.3702        
2012-07-30T08:07:26Z    Tianjin_2     45.0046     168.754     168.754     32.394      12.4033      0.2769    20.5316     20.3933     0.6781      12.5       3.3779      6.2403        
2012-07-30T08:10:27Z    Tianjin_2     45.0085     168.7761    168.7761    32.3798     12.3397      0.2789    20.5232     20.3936     0.6359      12.5       3.3697      5.8455        
2012-07-30T08:13:29Z    Tianjin_2     45.0127     168.7995    168.7995    32.3666     12.2369      0.2854    20.5154     20.394      0.5954      12.5       3.3565      5.4642        
2012-07-30T08:55:32Z    Tianjin_2     45.0712     169.1185    169.1185    32.5298     12.8395      0.3056    20.5928     20.3915     0.987       12.5       3.5508      9.4532        
2012-07-30T08:58:33Z    Tianjin_2     45.0748     169.1407    169.1407    32.5571     12.7926      0.3072    20.5876     20.3916     0.9607      12.5       3.7024      9.6021        
2012-07-30T09:01:26Z    Tianjin_2     45.0784     169.1626    169.1626    32.5437     12.6839      0.3076    20.5838     20.3921     0.9401      12.5       3.687       9.3782        
2012-07-30T09:04:27Z    Tianjin_2     45.0823     169.1857    169.1857    32.5046     12.6312      0.2948    20.5799     20.3923     0.92        12.5       3.6797      9.1728        
2012-07-30T09:07:29Z    Tianjin_2     45.0861     169.2088    169.2088    32.5002     12.6546      0.2976    20.5747     20.3922     0.8947      12.5       3.6831      8.9238        
2012-07-30T09:10:30Z    Tianjin_2     45.0899     169.2318    169.2318    32.5168     12.6831      0.3049    20.5695     20.3921     0.8697      12.5       3.687       8.6782        
2012-07-30T09:13:32Z    Tianjin_2     45.0937     169.2547    169.2547    32.55       12.7839      0.3231    20.564      20.3917     0.8449      12.5       3.7012      8.4435        
2012-07-30T09:16:33Z    Tianjin_2     45.0972     169.2774    169.2774    32.5902     12.9861      0.3453    20.5628     20.3909     0.8431      12.5       3.7299      8.4536        
2012-07-30T09:19:26Z    Tianjin_2     45.1008     169.2998    169.2998    32.6449     13.1355      0.378     20.5668     20.3903     0.8657      12.5       3.751       8.6993        
2012-07-30T09:22:27Z    Tianjin_2     45.1045     169.3224    169.3224    32.6835     13.1204      0.3945    20.5729     20.3903     0.8959      12.5       3.7486      8.9971        
2012-07-30T09:25:29Z    Tianjin_2     45.1082     169.3456    169.3456    32.6884     12.9916      0.3992    20.5801     20.3907     0.9286      12.5       3.7301      9.3042        
2012-07-30T09:28:30Z    Tianjin_2     45.1119     169.3684    169.3684    32.6768     12.9299      0.3829    20.5919     20.391      0.9855      12.5       3.7214      9.8642        
2012-07-30T09:31:32Z    Tianjin_2     45.1156     169.3914    169.3914    32.6706     12.9195      0.3658    20.6009     20.391      1.0295      12.5       3.8818      10.7519       
2012-07-30T09:34:33Z    Tianjin_2     45.1193     169.414     169.414     32.668      12.9052      0.3732    20.6008     20.3911     1.0286      12.5       3.8797      10.7397       
2012-07-30T09:37:26Z    Tianjin_2     45.1228     169.436     169.436     32.6589     12.8437      0.3871    20.5995     20.3913     1.0209      12.5       3.8706      10.6484       
2012-07-30T09:40:27Z    Tianjin_2     45.1264     169.459     169.459     32.6532     12.8008      0.4162    20.6025     20.3915     1.035       12.5       3.8856      10.8482       
2012-07-30T09:43:29Z    Tianjin_2     45.1301     169.4824    169.4824    32.6546     12.8075      0.4349    20.6054     20.3914     1.0491      12.5       3.8866      10.9971       
2012-07-30T09:46:30Z    Tianjin_2     45.1338     169.5061    169.5061    32.6569     12.812       0.4398    20.6086     20.3914     1.0648      12.5       3.8873      11.1618       
2012-07-30T09:49:32Z    Tianjin_2     45.1374     169.5292    169.5292    32.649      12.7822      0.4402    20.6162     20.3915     1.1014      12.5       3.8829      11.5408       
2012-07-30T09:52:33Z    Tianjin_2     45.1409     169.5519    169.5519    32.6331     12.7072      0.4355    20.6204     20.3918     1.121       12.5       3.8718      11.7313       
2012-07-30T09:55:26Z    Tianjin_2     45.1443     169.5735    169.5735    32.6024     12.6283      0.4283    20.6258     20.3922     1.1457      12.5       3.8603      11.9759       
2012-07-30T09:58:27Z    Tianjin_2     45.1476     169.5947    169.5947    32.5534     12.7329      0.4273    20.6263     20.3919     1.1497      12.5       3.8761      12.045        
2012-07-30T10:01:29Z    Tianjin_2     45.1512     169.6178    169.6178    32.5282     12.86        0.4143    20.6348     20.3914     1.1935      12.5       3.8951      12.5339       
2012-07-30T10:04:30Z    Tianjin_2     45.1548     169.6403    169.6403    32.5177     12.8908      0.3967    20.6398     20.3913     1.2184      12.5       4.0597      13.3285       
2012-07-30T10:07:32Z    Tianjin_2     45.1583     169.6627    169.6627    32.5159     12.9165      0.4003    20.6357     20.3913     1.1989      12.5       4.0637      13.1211       
2012-07-30T10:10:33Z    Tianjin_2     45.162      169.6859    169.6859    32.5136     12.9421      0.395     20.6279     20.3912     1.1607      12.5       4.0677      12.7093       
2012-07-30T10:13:26Z    Tianjin_2     45.1656     169.7086    169.7086    32.5106     12.9618      0.3894    20.6265     20.3911     1.1545      12.5       4.0707      12.6461       
2012-07-30T10:16:27Z    Tianjin_2     45.1692     169.7313    169.7313    32.5099     12.955       0.3966    20.6262     20.3911     1.1528      12.5       4.0697      12.6253       
2012-07-30T10:19:29Z    Tianjin_2     45.1728     169.7533    169.7533    32.5092     12.9259      0.391     20.6249     20.3912     1.1458      12.5       4.0652      12.5424       
2012-07-30T10:22:30Z    Tianjin_2     45.1764     169.7762    169.7762    32.5035     12.9167      0.3948    20.6219     20.3913     1.1309      12.5       4.0638      12.378        
2012-07-30T10:25:32Z    Tianjin_2     45.1806     169.7989    169.7989    32.4936     12.9062      0.3899    20.6221     20.3913     1.1319      12.5       4.0622      12.388        
2012-07-30T10:28:33Z    Tianjin_2     45.1845     169.8209    169.8209    32.4917     12.8994      0.3826    20.6179     20.3914     1.1108      12.5       4.0612      12.1558       
2012-07-30T10:31:26Z    Tianjin_2     45.1886     169.8436    169.8436    32.4939     12.922       0.3746    20.6134     20.3913     1.0892      12.5       4.0647      11.9242       
2012-07-30T10:34:27Z    Tianjin_2     45.1926     169.8658    169.8658    32.4926     12.975       0.3758    20.6032     20.3911     1.0402      12.5       4.0729      11.3977       
2012-07-30T10:37:29Z    Tianjin_2     45.1965     169.8881    169.8881    32.4964     12.9567      0.377     20.5934     20.3911     0.9922      12.5       4.1159      10.9902       
2012-07-30T10:40:30Z    Tianjin_2     45.2007     169.9116    169.9116    32.5049     12.9096      0.3903    20.5792     20.3913     0.9217      12.5       4.1085      10.2004       
2012-07-30T10:43:32Z    Tianjin_2     45.2047     169.9341    169.9341    32.5117     12.8708      0.3851    20.5757     20.3914     0.9036      12.5       4.1024      9.9936        
2012-07-30T10:46:33Z    Tianjin_2     45.2086     169.9558    169.9558    32.5188     12.8224      0.3944    20.5701     20.3916     0.8752      12.5       4.0948      9.6706        
2012-07-30T10:49:26Z    Tianjin_2     45.2127     169.9783    169.9783    32.5255     12.8027      0.3835    20.57       20.3917     0.8746      12.5       4.0917      9.6604        
2012-07-30T10:52:27Z    Tianjin_2     45.2168     170.0007    170.0007    32.5348     12.8381      0.3701    20.5722     20.3915     0.886       12.5       4.0971      9.7912        
2012-07-30T10:55:29Z    Tianjin_2     45.221      170.0235    170.0235    32.5453     12.8077      0.3826    20.5717     20.3916     0.8833      12.5       4.0924      9.7556        
2012-07-30T10:58:30Z    Tianjin_2     45.2253     170.0462    170.0462    32.5509     12.7018      0.3849    20.5726     20.392      0.8857      12.5       4.0759      9.7635        
2012-07-30T11:01:32Z    Tianjin_2     45.2297     170.0693    170.0693    32.5435     12.6903      0.3805    20.5741     20.392      0.8927      12.5       4.0741      9.8399        
2012-07-30T11:04:33Z    Tianjin_2     45.2341     170.0914    170.0914    32.5405     12.7259      0.3686    20.5817     20.3919     0.9307      12.5       4.0797      10.2649       
2012-07-30T11:07:26Z    Tianjin_2     45.2382     170.113     170.113     32.5405     12.7439      0.3716    20.5836     20.3918     0.9402      12.5       4.0825      10.3733       
2012-07-30T11:10:27Z    Tianjin_2     45.2426     170.1359    170.1359    32.5469     12.7347      0.373     20.5826     20.3919     0.9352      12.5       4.0425      10.2177       
2012-07-30T11:13:29Z    Tianjin_2     45.247      170.1584    170.1584    32.5485     12.7521      0.3758    20.5806     20.3918     0.9259      12.5       4.0451      10.1195       
2012-07-30T11:55:32Z    Tianjin_2     45.2997     170.4791    170.4791    32.5915     13.0182      0.4039    20.668      20.3908     1.3596      12.5       4.0048      14.6264       
2012-07-30T11:58:33Z    Tianjin_2     45.303      170.5026    170.5026    32.5963     13.0656      0.4023    20.6641     20.3906     1.3415      12.5       4.0121      14.4434       
2012-07-30T12:01:26Z    Tianjin_2     45.3063     170.5253    170.5253    32.6028     13.0899      0.3985    20.6633     20.3905     1.3381      12.5       4.0158      14.4126       
2012-07-30T12:04:27Z    Tianjin_2     45.3096     170.5482    170.5482    32.6009     13.1748      0.3929    20.6616     20.3902     1.3312      12.5       4.0288      14.36         
2012-07-30T12:07:29Z    Tianjin_2     45.3128     170.5707    170.5707    32.5944     13.2264      0.4027    20.6605     20.39       1.3264      12.5       4.0368      14.3219       
2012-07-30T12:10:30Z    Tianjin_2     45.3161     170.5936    170.5936    32.5895     13.2745      0.4057    20.6533     20.3899     1.2922      12.5       4.0443      13.9651       
2012-07-30T12:13:32Z    Tianjin_2     45.3196     170.6178    170.6178    32.589      13.292       0.4113    20.6468     20.3898     1.2603      12.5       4.047       13.6241       
2012-07-30T12:16:33Z    Tianjin_2     45.3228     170.6407    170.6407    32.5876     13.3034      0.4085    20.6404     20.3898     1.2295      12.5       3.9972      13.1244       
2012-07-30T12:19:26Z    Tianjin_2     45.3261     170.6634    170.6634    32.5818     13.3034      0.4013    20.6321     20.3898     1.1884      12.5       3.9972      12.6865       
2012-07-30T12:22:27Z    Tianjin_2     45.3295     170.6873    170.6873    32.5808     13.2856      0.3891    20.6263     20.3898     1.1596      12.5       3.9945      12.3748       
2012-07-30T12:25:29Z    Tianjin_2     45.3329     170.7107    170.7107    32.5751     13.3023      0.3867    20.6213     20.3898     1.1356      12.5       3.9971      12.123        
2012-07-30T12:28:30Z    Tianjin_2     45.3363     170.734     170.734     32.5775     13.2963      0.3856    20.6155     20.3898     1.1067      12.5       3.9961      11.8136       
2012-07-30T12:31:32Z    Tianjin_2     45.3397     170.7567    170.7567    32.5726     13.3017      0.3813    20.6133     20.3898     1.0963      12.5       3.997       11.7037       
2012-07-30T12:34:33Z    Tianjin_2     45.3432     170.7794    170.7794    32.5651     13.3174      0.3668    20.6119     20.3897     1.0894      12.5       3.9994      11.6341       
2012-07-30T12:37:26Z    Tianjin_2     45.3468     170.8025    170.8025    32.5636     13.3622      0.3698    20.6081     20.3896     1.0718      12.5       4.0063      11.4559       
2012-07-30T12:40:27Z    Tianjin_2     45.3504     170.8261    170.8261    32.5669     13.3155      0.3634    20.6029     20.3897     1.0454      12.5       3.9991      11.1634       
2012-07-30T12:43:29Z    Tianjin_2     45.3539     170.8495    170.8495    32.5635     13.3176      0.3706    20.5965     20.3897     1.0139      12.5       3.9995      10.8279       
2012-07-30T12:46:30Z    Tianjin_2     45.3575     170.8729    170.8729    32.5554     13.3381      0.3719    20.5954     20.3897     1.0088      12.5       4.0027      10.778        
2012-07-30T12:49:32Z    Tianjin_2     45.3614     170.8982    170.8982    32.5511     13.392       0.3657    20.594      20.3895     1.0029      12.5       3.9971      10.6885       
2012-07-30T12:52:33Z    Tianjin_2     45.365      170.9214    170.9214    32.5485     13.3709      0.3601    20.5873     20.3896     0.9695      12.5       3.9939      10.3292       
2012-07-30T12:55:26Z    Tianjin_2     45.3683     170.9431    170.9431    32.5492     13.3847      0.369     20.5803     20.3895     0.9356      12.5       3.996       9.9706        
2012-07-30T12:58:27Z    Tianjin_2     45.3718     170.9662    170.9662    32.5457     13.414       0.349     20.5725     20.3894     0.898       12.5       4.0005      9.5743        
2012-07-30T13:01:29Z    Tianjin_2     45.3753     170.9898    170.9898    32.5523     13.3169      0.3541    20.569      20.3898     0.8789      12.5       4.0238      9.4442        
2012-07-30T13:04:30Z    Tianjin_2     45.3788     171.0135    171.0135    32.5639     13.2439      0.3564    20.5632     20.39       0.8493      12.5       4.0123      9.1132        
2012-07-30T13:07:32Z    Tianjin_2     45.3822     171.0365    171.0365    32.5639     13.2331      0.3688    20.5654     20.39       0.86        12.5       4.0106      9.2264        
2012-07-30T13:10:33Z    Tianjin_2     45.3856     171.0598    171.0598    32.5722     13.2027      0.382     20.5687     20.3901     0.8758      12.5       4.0058      9.3894        
2012-07-30T13:13:26Z    Tianjin_2     45.389      171.0829    171.0829    32.5839     13.214       0.3872    20.573      20.3901     0.8972      12.5       4.0075      9.6199        
2012-07-30T13:16:27Z    Tianjin_2     45.3924     171.1054    171.1054    32.5841     13.2106      0.382     20.5736     20.3901     0.9001      12.5       4.007       9.6502        
2012-07-30T13:19:29Z    Tianjin_2     45.3959     171.1287    171.1287    32.5815     13.205       0.386     20.5764     20.3901     0.9137      12.5       4.0605      9.9285        
2012-07-30T13:22:30Z    Tianjin_2     45.3993     171.1519    171.1519    32.5816     13.2652      0.3742    20.5735     20.3899     0.9005      12.5       4.0701      9.7962        
2012-07-30T13:25:32Z    Tianjin_2     45.4027     171.1754    171.1754    32.5851     13.42        0.3652    20.5719     20.3893     0.8955      12.5       4.0947      9.7699        
2012-07-30T13:28:33Z    Tianjin_2     45.4062     171.1987    171.1987    32.5854     13.4407      0.371     20.5674     20.3893     0.8736      12.5       4.098       9.5342        
2012-07-30T13:31:26Z    Tianjin_2     45.4096     171.222     171.222     32.5868     13.4105      0.3824    20.5617     20.3894     0.8451      12.5       4.0932      9.2177        
2012-07-30T13:34:27Z    Tianjin_2     45.4133     171.2476    171.2476    32.5902     13.38        0.3727    20.559      20.3895     0.8314      12.5       4.0883      9.0631        
2012-07-30T13:37:29Z    Tianjin_2     45.4165     171.2706    171.2706    32.5915     13.3295      0.3734    20.5581     20.3897     0.8263      12.5       4.0802      8.9984        
2012-07-30T13:40:30Z    Tianjin_2     45.4197     171.2922    171.2922    32.5928     13.2901      0.3743    20.5594     20.3898     0.8317      12.5       4.0739      9.0512        
2012-07-30T13:43:32Z    Tianjin_2     45.423      171.3156    171.3156    32.5892     13.2908      0.3739    20.5606     20.3898     0.8375      12.5       4.0741      9.1143        
2012-07-30T13:46:33Z    Tianjin_2     45.4263     171.3384    171.3384    32.5876     13.3029      0.3751    20.5603     20.3898     0.8362      12.5       4.076       9.1029        
2012-07-30T13:49:26Z    Tianjin_2     45.4296     171.3617    171.3617    32.5891     13.3262      0.3748    20.5578     20.3897     0.8247      12.5       4.0797      8.9816        
2012-07-30T13:52:27Z    Tianjin_2     45.433      171.3844    171.3844    32.5975     13.3472      0.3839    20.5569     20.3896     0.8208      12.5       4.1289      9.0415        
2012-07-30T13:55:29Z    Tianjin_2     45.4363     171.4079    171.4079    32.6106     13.3473      0.3755    20.5575     20.3896     0.8238      12.5       4.1288      9.0745        
2012-07-30T13:58:30Z    Tianjin_2     45.4396     171.4316    171.4316    32.624      13.3059      0.3688    20.5544     20.3897     0.808       12.5       4.122       8.8926        
2012-07-30T14:01:32Z    Tianjin_2     45.4429     171.4547    171.4547    32.6276     13.3481      0.383     20.5519     20.3895     0.7962      12.5       4.1288      8.7693        
2012-07-30T14:04:33Z    Tianjin_2     45.4463     171.4778    171.4778    32.6285     13.4134      0.3816    20.5491     20.3893     0.7837      12.5       4.1394      8.642         
2012-07-30T14:07:26Z    Tianjin_2     45.4494     171.501     171.501     32.6235     13.4727      0.3882    20.55       20.3891     0.7893      12.5       4.1491      8.7136        
2012-07-30T14:10:27Z    Tianjin_2     45.4526     171.524     171.524     32.624      13.4843      0.376     20.5464     20.3891     0.7716      12.5       4.1509      8.5204        
2012-07-30T14:13:29Z    Tianjin_2     45.4559     171.5475    171.5475    32.6275     13.431       0.3615    20.5432     20.3892     0.7553      12.5       4.1423      8.3314        
2012-07-30T14:55:32Z    Tianjin_2     45.5031     171.8747    171.8747    32.617      13.6221      0.349     20.5649     20.3886     0.8649      12.5       4.1891      9.6111        
2012-07-30T14:58:33Z    Tianjin_2     45.5063     171.8975    171.8975    32.6207     13.5441      0.3693    20.5522     20.3889     0.8012      12.5       4.1672      8.871         
2012-07-30T15:01:26Z    Tianjin_2     45.5095     171.9208    171.9208    32.6164     13.4531      0.3705    20.5431     20.3892     0.7548      12.5       4.1523      8.3432        
2012-07-30T15:04:27Z    Tianjin_2     45.5128     171.9441    171.9441    32.601      13.383       0.3693    20.5381     20.3895     0.7288      12.5       4.141       8.046         
2012-07-30T15:07:29Z    Tianjin_2     45.516      171.967     171.967     32.5899     13.3627      0.3703    20.5415     20.3895     0.7453      12.5       4.1377      8.2253        
2012-07-30T15:10:30Z    Tianjin_2     45.5193     171.9907    171.9907    32.5762     13.4213      0.3767    20.5427     20.3894     0.7523      12.5       4.1474      8.3129        
2012-07-30T15:13:32Z    Tianjin_2     45.5226     172.0139    172.0139    32.5666     13.4958      0.3765    20.547      20.3891     0.7745      12.5       4.1596      8.5713        
2012-07-30T15:16:33Z    Tianjin_2     45.5258     172.0367    172.0367    32.5645     13.5161      0.3745    20.5521     20.389      0.8         12.5       4.163       8.8566        
2012-07-30T15:19:26Z    Tianjin_2     45.5291     172.0599    172.0599    32.5655     13.484       0.3748    20.5509     20.3891     0.7932      12.5       4.1577      8.7757        
2012-07-30T15:22:27Z    Tianjin_2     45.5323     172.0827    172.0827    32.5667     13.4549      0.38      20.5455     20.3892     0.7663      12.5       4.1529      8.474         
2012-07-30T15:25:29Z    Tianjin_2     45.5357     172.1057    172.1057    32.5662     13.4478      0.3792    20.5459     20.3893     0.7683      12.5       4.1518      8.4949        
2012-07-30T15:28:30Z    Tianjin_2     45.5389     172.1286    172.1286    32.5668     13.4335      0.3862    20.5492     20.3893     0.7842      12.5       4.1264      8.6204        
2012-07-30T15:31:32Z    Tianjin_2     45.5422     172.1521    172.1521    32.5679     13.4213      0.383     20.5538     20.3894     0.8066      12.5       4.1244      8.864         
2012-07-30T15:34:33Z    Tianjin_2     45.5455     172.175     172.175     32.5675     13.4235      0.3821    20.5557     20.3894     0.8158      12.5       4.1248      8.9652        
2012-07-30T15:37:26Z    Tianjin_2     45.5486     172.1975    172.1975    32.5681     13.4116      0.3872    20.5543     20.3894     0.8087      12.5       4.1228      8.885         
2012-07-30T15:40:27Z    Tianjin_2     45.5518     172.2208    172.2208    32.5678     13.4048      0.3907    20.5546     20.3894     0.8101      12.5       4.1217      8.9002        
2012-07-30T15:43:29Z    Tianjin_2     45.5551     172.2442    172.2442    32.5686     13.3774      0.3888    20.5553     20.3895     0.8133      12.5       4.1172      8.9296        
2012-07-30T15:46:30Z    Tianjin_2     45.5584     172.2676    172.2676    32.5734     13.3694      0.3881    20.5573     20.3895     0.8228      12.5       4.1159      9.0329        
2012-07-30T15:49:32Z    Tianjin_2     45.5616     172.2907    172.2907    32.5758     13.4284      0.3818    20.5664     20.3893     0.8684      12.5       4.1255      9.5436        
2012-07-30T15:52:33Z    Tianjin_2     45.5649     172.3141    172.3141    32.5726     13.5405      0.3836    20.5692     20.3889     0.8843      12.5       4.1439      9.7398        
2012-07-30T15:55:26Z    Tianjin_2     45.5682     172.3381    172.3381    32.5701     13.6261      0.3816    20.5693     20.3886     0.8861      12.5       4.158       9.7757        
2012-07-30T15:58:27Z    Tianjin_2     45.5715     172.3615    172.3615    32.5756     13.6336      0.3824    20.5721     20.3886     0.8999      12.5       4.1592      9.9289        
2012-07-30T16:01:29Z    Tianjin_2     45.5747     172.3845    172.3845    32.5848     13.6205      0.3708    20.5688     20.3886     0.8838      12.5       4.1272      9.6788        
2012-07-30T16:04:30Z    Tianjin_2     45.5781     172.4081    172.4081    32.5937     13.6268      0.3547    20.5642     20.3886     0.8613      12.5       4.1281      9.4327        
2012-07-30T16:07:32Z    Tianjin_2     45.5815     172.4315    172.4315    32.6001     13.6278      0.3519    20.5553     20.3886     0.8177      12.5       4.1283      8.9541        
2012-07-30T16:10:33Z    Tianjin_2     45.5847     172.4545    172.4545    32.5953     13.6047      0.3567    20.5434     20.3887     0.759       12.5       4.1245      8.3083        
2012-07-30T16:13:26Z    Tianjin_2     45.5881     172.478     172.478     32.5857     13.5668      0.3562    20.539      20.3888     0.7366      12.5       4.1183      8.0576        
2012-07-30T16:16:27Z    Tianjin_2     45.5913     172.5014    172.5014    32.5756     13.5001      0.3357    20.5334     20.3891     0.7077      12.5       4.1074      7.7318        
2012-07-30T16:19:29Z    Tianjin_2     45.5944     172.525     172.525     32.5767     13.4377      0.3353    20.5231     20.3893     0.6563      12.5       4.0971      7.1615        
2012-07-30T16:22:30Z    Tianjin_2     45.5976     172.5488    172.5488    32.5825     13.3555      0.3228    20.512      20.3896     0.6003      12.5       4.0836      6.5401        
2012-07-30T16:25:32Z    Tianjin_2     45.6009     172.5728    172.5728    32.583      13.3228      0.3047    20.5013     20.3897     0.5474      12.5       4.0783      5.9596        
2012-07-30T16:28:33Z    Tianjin_2     45.6041     172.5974    172.5974    32.5862     13.3219      0.2991    20.4919     20.3897     0.5014      12.5       4.0781      5.4592        
2012-07-30T16:31:26Z    Tianjin_2     45.6073     172.6199    172.6199    32.5878     13.3211      0.2944    20.4838     20.3897     0.4614      12.5       4.078       5.0232        
2012-07-30T16:34:27Z    Tianjin_2     45.6105     172.6425    172.6425    32.5917     13.2918      0.2924    20.4775     20.3898     0.4303      12.5       4.032       4.6341        
2012-07-30T16:37:29Z    Tianjin_2     45.6138     172.666     172.666     32.584      13.2759      0.3044    20.4737     20.3899     0.4111      12.5       4.0295      4.4264        
2012-07-30T16:40:30Z    Tianjin_2     45.6173     172.6903    172.6903    32.5879     13.2333      0.301     20.4718     20.39       0.4011      12.5       4.0225      4.3151        
2012-07-30T16:43:32Z    Tianjin_2     45.6207     172.7136    172.7136    32.5953     13.2087      0.2989    20.4724     20.3901     0.4038      12.5       4.0185      4.342         
2012-07-30T16:46:33Z    Tianjin_2     45.6239     172.7358    172.7358    32.5978     13.1782      0.3024    20.4738     20.3902     0.4103      12.5       4.0135      4.4084        
2012-07-30T16:49:26Z    Tianjin_2     45.6271     172.759     172.759     32.6067     13.1688      0.3111    20.476      20.3902     0.4206      12.5       4.023       4.5305        
2012-07-30T16:52:27Z    Tianjin_2     45.6304     172.7821    172.7821    32.6152     13.2408      0.3041    20.4758     20.3899     0.4213      12.5       4.0348      4.5445        
2012-07-30T16:55:29Z    Tianjin_2     45.6335     172.8053    172.8053    32.6198     13.2623      0.3035    20.4774     20.3899     0.4295      12.5       4.0383      4.6351        
2012-07-30T16:58:30Z    Tianjin_2     45.637      172.8289    172.8289    32.623      13.2736      0.3052    20.4732     20.3898     0.4092      12.5       4.0402      4.417         
2012-07-30T17:01:32Z    Tianjin_2     45.6404     172.8521    172.8521    32.6275     13.2407      0.3051    20.4693     20.3899     0.3893      12.5       4.0347      4.1995        
2012-07-30T17:04:33Z    Tianjin_2     45.6437     172.8747    172.8747    32.6318     13.2227      0.3055    20.4682     20.39       0.3834      12.5       4.0317      4.1338        
2012-07-30T17:07:26Z    Tianjin_2     45.6471     172.8981    172.8981    32.6328     13.2447      0.2975    20.4656     20.3899     0.371       12.5       4.03        3.9971        
2012-07-30T17:10:27Z    Tianjin_2     45.6506     172.9221    172.9221    32.6391     13.1737      0.2903    20.4631     20.3901     0.3577      12.5       4.0182      3.8479        
2012-07-30T17:13:29Z    Tianjin_2     45.654      172.9452    172.9452    32.6449     13.1492      0.2938    20.4608     20.3902     0.3463      12.5       4.0141      3.7231        
2012-07-30T17:55:32Z    Tianjin_2     45.701      173.2679    173.2679    32.6083     12.6897      0.232     20.4706     20.3919     0.3856      17.5       3.3536      3.4972        
2012-07-30T17:58:33Z    Tianjin_2     45.7044     173.2912    173.2912    32.6025     12.7157      0.2331    20.472      20.3919     0.3932      17.5       3.357       3.5678        
2012-07-30T18:01:26Z    Tianjin_2     45.7077     173.3138    173.3138    32.5937     12.7877      0.2284    20.4676     20.3916     0.3726      17.5       3.3664      3.3855        
2012-07-30T18:04:27Z    Tianjin_2     45.7111     173.3365    173.3365    32.586      12.8572      0.2099    20.4681     20.3914     0.3763      17.5       3.3755      3.4236        
2012-07-30T18:07:29Z    Tianjin_2     45.7145     173.3597    173.3597    32.5824     12.903       0.2174    20.4623     20.3912     0.3486      17.5       3.3815      3.174         
2012-07-30T18:10:30Z    Tianjin_2     45.7181     173.383     173.383     32.5818     12.9134      0.2172    20.4547     20.3912     0.3116      17.5       3.3648      2.8231        
2012-07-30T18:13:32Z    Tianjin_2     45.7215     173.4058    173.4058    32.5785     12.9202      0.2075    20.4487     20.3911     0.2824      17.5       3.3657      2.5586        
2012-07-30T18:16:33Z    Tianjin_2     45.7249     173.4287    173.4287    32.5758     12.9225      0.2147    20.4428     20.3911     0.2532      17.5       3.366       2.2942        
2012-07-30T18:19:26Z    Tianjin_2     45.7283     173.4517    173.4517    32.5723     12.8682      0.2129    20.4363     20.3913     0.2203      17.5       3.359       1.9939        
2012-07-30T18:22:27Z    Tianjin_2     45.7317     173.4744    173.4744    32.5646     12.8041      0.2226    20.4322     20.3916     0.1991      17.5       3.3508      1.8001        
2012-07-30T18:25:29Z    Tianjin_2     45.7352     173.4976    173.4976    32.5611     12.8023      0.2131    20.4329     20.3916     0.2025      17.5       3.3505      1.8313        
2012-07-30T18:28:30Z    Tianjin_2     45.7387     173.521     173.521     32.5598     12.8239      0.2135    20.4301     20.3915     0.1894      17.5       3.3533      1.7132        
2012-07-30T18:31:32Z    Tianjin_2     45.742      173.5441    173.5441    32.561      12.8432      0.2192    20.4264     20.3915     0.1714      17.5       3.3558      1.5509        
2012-07-30T18:34:33Z    Tianjin_2     45.7457     173.5689    173.5689    32.5628     12.7813      0.2182    20.4224     20.3917     0.1508      17.5       3.3478      1.363         
2012-07-30T18:37:26Z    Tianjin_2     45.749      173.5917    173.5917    32.5648     12.6961      0.2222    20.4232     20.392      0.1531      17.5       3.3369      1.3814        
2012-07-30T18:40:27Z    Tianjin_2     45.7522     173.6132    173.6132    32.5659     12.6541      0.2278    20.4259     20.3921     0.1658      17.5       3.3314      1.495         
2012-07-30T18:43:29Z    Tianjin_2     45.7557     173.6367    173.6367    32.5685     12.6363      0.2287    20.4273     20.3922     0.1721      17.5       3.3113      1.5436        
2012-07-30T18:46:30Z    Tianjin_2     45.7594     173.6611    173.6611    32.5713     12.6554      0.2239    20.4298     20.3921     0.185       17.5       3.3137      1.6592        
2012-07-30T18:49:32Z    Tianjin_2     45.7628     173.6836    173.6836    32.5732     12.6833      0.2258    20.4336     20.392      0.204       17.5       3.3173      1.8308        
2012-07-30T18:52:33Z    Tianjin_2     45.7657     173.7053    173.7053    32.5773     12.6624      0.2146    20.435      20.3921     0.2104      17.5       3.3146      1.8876        
2012-07-30T18:55:26Z    Tianjin_2     45.7689     173.7278    173.7278    32.5792     12.6636      0.2124    20.4331     20.3921     0.2009      17.5       3.3147      1.8024        
2012-07-30T18:58:27Z    Tianjin_2     45.772      173.7507    173.7507    32.5797     12.6488      0.2091    20.4276     20.3921     0.1737      17.5       3.3129      1.5581        
2012-07-30T19:01:29Z    Tianjin_2     45.7751     173.7742    173.7742    32.5799     12.5966      0.2111    20.4237     20.3923     0.1539      17.5       3.3062      1.3788        
2012-07-30T19:04:30Z    Tianjin_2     45.778      173.7966    173.7966    32.5812     12.5478      0.2145    20.4222     20.3925     0.1454      17.5       3.3         1.3015        
2012-07-30T19:07:32Z    Tianjin_2     45.7808     173.819     173.819     32.5828     12.5393      0.214     20.4198     20.3925     0.1336      17.5       3.299       1.1959        
2012-07-30T19:10:33Z    Tianjin_2     45.7838     173.8424    173.8424    32.5837     12.542       0.2043    20.4191     20.3925     0.1305      17.5       3.2993      1.168         
2012-07-30T19:13:26Z    Tianjin_2     45.7867     173.8659    173.8659    32.5861     12.5169      0.1995    20.418      20.3926     0.1246      17.5       3.2961      1.1151        
2012-07-30T19:16:27Z    Tianjin_2     45.7897     173.8896    173.8896    32.588      12.5217      0.1946    20.4164     20.3926     0.1166      17.5       3.2633      1.0324        
2012-07-30T19:19:29Z    Tianjin_2     45.7926     173.9124    173.9124    32.589      12.5376      0.1999    20.4175     20.3925     0.1224      17.5       3.2653      1.0845        
2012-07-30T19:22:30Z    Tianjin_2     45.7956     173.9355    173.9355    32.5899     12.5569      0.2001    20.4158     20.3925     0.1144      17.5       3.2677      1.0143        
2012-07-30T19:25:32Z    Tianjin_2     45.7986     173.9587    173.9587    32.5914     12.5521      0.2127    20.4145     20.3925     0.108       17.5       3.2671      0.9574        
2012-07-30T19:28:33Z    Tianjin_2     45.8016     173.9813    173.9813    32.5939     12.5475      0.2028    20.4127     20.3925     0.099       17.5       3.2665      0.8769        
2012-07-30T19:31:26Z    Tianjin_2     45.8046     174.0047    174.0047    32.5941     12.5662      0.2054    20.4143     20.3924     0.1071      17.5       3.2688      0.949         
2012-07-30T19:34:27Z    Tianjin_2     45.8074     174.0281    174.0281    32.5936     12.5944      0.2048    20.4091     20.3923     0.0825      17.5       3.2724      0.7314        
2012-07-30T19:37:29Z    Tianjin_2     45.8105     174.0523    174.0523    32.5918     12.6726      0.2018    20.4114     20.392      0.0948      17.5       3.2822      0.8421        
2012-07-30T19:40:30Z    Tianjin_2     45.8135     174.0757    174.0757    32.5916     12.6762      0.1931    20.4101     20.392      0.0888      17.5       3.2826      0.7886        
2012-07-30T19:43:32Z    Tianjin_2     45.8164     174.0987    174.0987    32.591      12.6616      0.1985    20.406      20.3921     0.0684      17.5       3.2808      0.6076        
2012-07-30T19:46:33Z    Tianjin_2     45.8195     174.1226    174.1226    32.5901     12.6261      0.1958    20.4018     20.3922     0.0469      17.5       3.2764      0.416         
2012-07-30T19:49:26Z    Tianjin_2     45.8224     174.1453    174.1453    32.5894     12.6088      0.1953    20.3982     20.3923     0.0292      17.5       3.2198      0.2547        
2012-07-30T19:52:27Z    Tianjin_2     45.8252     174.167     174.167     32.5873     12.6347      0.1962    20.3959     20.3922     0.0182      17.5       3.223       0.1586        
2012-07-30T19:55:29Z    Tianjin_2     45.828      174.1895    174.1895    32.5861     12.7017      0.1958    20.3968     20.3919     0.024       17.5       3.2312      0.21          
2012-07-30T19:58:30Z    Tianjin_2     45.831      174.2126    174.2126    32.5897     12.7078      0.192     20.3979     20.3919     0.0296      17.5       3.232       0.2589        
2012-07-30T20:01:32Z    Tianjin_2     45.8338     174.2358    174.2358    32.5944     12.7306      0.183     20.3945     20.3918     0.0134      17.5       3.2347      0.1167        
2012-07-30T20:04:33Z    Tianjin_2     45.8368     174.2596    174.2596    32.5948     12.763       0.164     20.3919     20.3917     0.0011      17.5       3.2387      0.0094        
2012-07-30T20:07:26Z    Tianjin_2     45.8394     174.2826    174.2826    32.5949     12.7437      0.1511    20.3863     20.3918     -0.0267     17.5       3.2364      -0.2337       
2012-07-30T20:10:27Z    Tianjin_2     45.8421     174.3057    174.3057    32.5969     12.6778      0.1492    20.3846     20.392      -0.0364     17.5       3.2283      -0.3176       
2012-07-30T20:13:29Z    Tianjin_2     45.8449     174.3288    174.3288    32.5988     12.6058      0.1474    20.3815     20.3923     -0.0526     17.5       3.2194      -0.459        
2012-07-30T20:55:32Z    Tianjin_2     45.8814     174.6493    174.6493    32.6006     12.7637      0.1357    20.4363     20.3917     0.2188      17.5       3.1857      1.8823        
2012-07-30T20:58:33Z    Tianjin_2     45.8843     174.6737    174.6737    32.6014     12.7416      0.1365    20.4346     20.3918     0.2102      17.5       3.183       1.8075        
2012-07-30T21:01:26Z    Tianjin_2     45.8866     174.6958    174.6958    32.6017     12.7091      0.1372    20.4342     20.3919     0.2074      17.5       3.179       1.7823        
2012-07-30T21:04:27Z    Tianjin_2     45.889      174.7182    174.7182    32.6019     12.6672      0.1293    20.4323     20.392      0.1976      17.5       3.1739      1.6967        
2012-07-30T21:07:29Z    Tianjin_2     45.8915     174.7417    174.7417    32.6021     12.5968      0.1286    20.4286     20.3923     0.1779      17.5       3.1653      1.5255        
2012-07-30T21:10:30Z    Tianjin_2     45.894      174.7651    174.7651    32.6013     12.5432      0.1444    20.4315     20.3925     0.1913      17.5       3.1588      1.6393        
2012-07-30T21:13:32Z    Tianjin_2     45.8965     174.7879    174.7879    32.599      12.6126      0.1408    20.4291     20.3922     0.1807      17.5       3.1672      1.5504        
2012-07-30T21:16:33Z    Tianjin_2     45.8989     174.811     174.811     32.5974     12.702       0.134     20.4324     20.3919     0.1985      17.5       3.1782      1.7059        
2012-07-30T21:19:26Z    Tianjin_2     45.9016     174.8352    174.8352    32.5962     12.6881      0.1342    20.4355     20.392      0.2133      17.5       3.1765      1.8326        
2012-07-30T21:22:27Z    Tianjin_2     45.904      174.8581    174.8581    32.5951     12.6575      0.1315    20.4346     20.3921     0.2086      17.5       3.1727      1.7912        
2012-07-30T21:25:29Z    Tianjin_2     45.9066     174.8805    174.8805    32.5941     12.6309      0.1161    20.4314     20.3922     0.1923      17.5       3.0919      1.6099        
2012-07-30T21:28:30Z    Tianjin_2     45.9094     174.904     174.904     32.5929     12.5681      0.1168    20.4307     20.3924     0.1878      17.5       3.0845      1.5707        
2012-07-30T21:31:32Z    Tianjin_2     45.912      174.9269    174.9269    32.5908     12.557       0.1187    20.43       20.3925     0.1842      17.5       3.0832      1.5407        
2012-07-30T21:34:33Z    Tianjin_2     45.9148     174.9508    174.9508    32.5898     12.5402      0.1239    20.4319     20.3925     0.1933      17.5       3.0813      1.6159        
2012-07-30T21:37:26Z    Tianjin_2     45.9176     174.9745    174.9745    32.5901     12.4885      0.1168    20.4327     20.3927     0.196       17.5       3.0752      1.6368        
2012-07-30T21:40:27Z    Tianjin_2     45.9203     174.998     174.998     32.5903     12.4515      0.1249    20.4329     20.3928     0.1966      17.5       3.0709      1.6411        
2012-07-30T21:43:29Z    Tianjin_2     45.9231     175.0213    175.0213    32.5889     12.4892      0.1144    20.4372     20.3927     0.2182      17.5       3.0753      1.8229        
2012-07-30T21:46:30Z    Tianjin_2     45.926      175.0451    175.0451    32.5824     12.593       0.1071    20.4443     20.3923     0.2548      17.5       3.0875      2.1319        
2012-07-30T21:49:32Z    Tianjin_2     45.929      175.0697    175.0697    32.5832     12.6049      0.114     20.4492     20.3923     0.2793      17.5       3.0889      2.3376        
2012-07-30T21:52:33Z    Tianjin_2     45.9318     175.0925    175.0925    32.5809     12.6429      0.1149    20.4484     20.3922     0.276       17.5       3.0934      2.3118        
2012-07-30T21:55:26Z    Tianjin_2     45.9346     175.1153    175.1153    32.5764     12.7123      0.1103    20.4507     20.3919     0.2881      17.5       3.1016      2.4161        
2012-07-30T21:58:27Z    Tianjin_2     45.9375     175.139     175.139     32.5763     12.7794      0.1126    20.4495     20.3917     0.2837      17.5       3.0336      2.3238        
2012-07-30T22:01:29Z    Tianjin_2     45.9403     175.1626    175.1626    32.5763     12.7541      0.1115    20.4464     20.3918     0.2682      17.5       3.0307      2.1954        
2012-07-30T22:04:30Z    Tianjin_2     45.9431     175.1861    175.1861    32.5754     12.6835      0.1088    20.4454     20.392      0.2618      17.5       3.0226      2.1404        
2012-07-30T22:07:32Z    Tianjin_2     45.946      175.2092    175.2092    32.5792     12.6367      0.114     20.4426     20.3922     0.2472      17.5       3.0173      2.0199        
2012-07-30T22:10:33Z    Tianjin_2     45.9487     175.2329    175.2329    32.5833     12.6614      0.108     20.4397     20.3921     0.2334      17.5       3.0201      1.9073        
2012-07-30T22:13:26Z    Tianjin_2     45.9514     175.2562    175.2562    32.5831     12.7218      0.104     20.4442     20.3919     0.2568      17.5       3.0269      2.101         
2012-07-30T22:16:27Z    Tianjin_2     45.954      175.2789    175.2789    32.5812     12.7369      0.105     20.4448     20.3918     0.2598      17.5       3.0287      2.1266        
2012-07-30T22:19:29Z    Tianjin_2     45.9567     175.3019    175.3019    32.5795     12.7475      0.1045    20.4438     20.3918     0.2553      17.5       3.0299      2.0895        
2012-07-30T22:22:30Z    Tianjin_2     45.9593     175.3251    175.3251    32.5784     12.7597      0.1067    20.4445     20.3917     0.2587      17.5       3.0313      2.118         
2012-07-30T22:25:32Z    Tianjin_2     45.962      175.3486    175.3486    32.5788     12.756       0.1064    20.44       20.3917     0.2365      17.5       3.0309      1.9365        
2012-07-30T22:28:33Z    Tianjin_2     45.9646     175.3719    175.3719    32.5791     12.7298      0.1145    20.4389     20.3918     0.2308      17.5       3.0279      1.8887        
2012-07-30T22:31:26Z    Tianjin_2     45.9672     175.3946    175.3946    32.5797     12.7488      0.1216    20.4435     20.3918     0.2539      17.5       2.9515      2.0242        
2012-07-30T22:34:27Z    Tianjin_2     45.9697     175.4175    175.4175    32.5762     12.7779      0.1221    20.451      20.3917     0.2909      17.5       2.9547      2.321         
2012-07-30T22:37:29Z    Tianjin_2     45.9721     175.4404    175.4404    32.5749     12.7668      0.1177    20.4562     20.3917     0.3163      17.5       2.9535      2.523         
2012-07-30T22:40:30Z    Tianjin_2     45.9744     175.4635    175.4635    32.5729     12.7098      0.1256    20.4643     20.3919     0.3551      17.5       2.9473      2.8294        
2012-07-30T22:43:32Z    Tianjin_2     45.9727     175.486     175.486     32.5652     12.6465      0.1265    20.4815     20.3922     0.4383      17.5       2.9404      3.4893        
2012-07-30T22:46:33Z    Tianjin_2     45.9619     175.5006    175.5006    32.5601     12.6841      0.13      20.4821     20.392      0.4416      17.5       2.9445      3.5176        
2012-07-30T22:49:26Z    Tianjin_2     45.9477     175.5064    175.5064    32.5563     12.823       0.118     20.4835     20.3915     0.4512      17.5       2.9597      3.6025        
2012-07-30T22:52:27Z    Tianjin_2     45.9323     175.5072    175.5072    32.5536     12.8859      0.1145    20.4812     20.3913     0.4409      17.5       2.9667      3.524         
2012-07-30T22:55:29Z    Tianjin_2     45.9166     175.5083    175.5083    32.5512     12.8383      0.1085    20.4778     20.3915     0.4232      17.5       2.9614      3.3797        
2012-07-30T22:58:30Z    Tianjin_2     45.9014     175.511     175.511     32.548      12.7977      0.1102    20.4732     20.3916     0.4001      17.5       2.957       3.1937        
2012-07-30T23:01:32Z    Tianjin_2     45.8867     175.5178    175.5178    32.5462     12.7524      0.1077    20.4692     20.3918     0.3798      17.5       2.952       3.0289        
2012-07-30T23:04:33Z    Tianjin_2     45.8725     175.5277    175.5277    32.547      12.8146      0.107     20.4637     20.3916     0.3537      17.5       2.8319      2.7028        
2012-07-30T23:07:26Z    Tianjin_2     45.8604     175.5407    175.5407    32.5509     12.8534      0.1166    20.4646     20.3914     0.3587      17.5       2.8358      2.7429        
2012-07-30T23:10:27Z    Tianjin_2     45.85       175.5558    175.5558    32.5539     12.9106      0.1107    20.4651     20.3912     0.3621      17.5       2.8416      2.771         
2012-07-30T23:13:29Z    Tianjin_2     45.8405     175.5748    175.5748    32.5516     13.0043      0.1029    20.4668     20.3909     0.3723      17.5       2.8512      2.8529        
2012-07-30T23:55:32Z    Tianjin_2     45.8654     175.8865    175.8865    32.5        12.8631      0.107     20.4908     20.3915     0.4871      17.5       2.6643      3.4992        
2012-07-30T23:58:33Z    Tianjin_2     45.8709     175.9093    175.9093    32.5031     12.8114      0.103     20.4941     20.3917     0.5022      17.5       2.6595      3.6054        
2012-07-31T00:01:26Z    Tianjin_2     45.8762     175.9318    175.9318    32.5005     12.798       0.1021    20.4997     20.3917     0.5295      17.5       3.2548      4.6538        
2012-07-31T00:04:27Z    Tianjin_2     45.8815     175.9536    175.9536    32.4976     12.8709      0.1045    20.5018     20.3914     0.5413      17.5       3.2641      4.764         
2012-07-31T00:07:29Z    Tianjin_2     45.8869     175.9755    175.9755    32.4979     12.9001      0.1046    20.4993     20.3913     0.5295      17.5       3.2678      4.662         
2012-07-31T00:10:30Z    Tianjin_2     45.8923     175.9975    175.9975    32.4993     12.9561      0.107     20.4991     20.3911     0.5295      17.5       3.2749      4.6668        
2012-07-31T00:13:32Z    Tianjin_2     45.8977     176.0198    176.0198    32.4961     13.0529      0.1118    20.4971     20.3908     0.5212      17.5       3.2873      4.6018        
2012-07-31T00:16:33Z    Tianjin_2     45.9032     176.042     176.042     32.4941     13.0712      0.1116    20.4945     20.3907     0.509       17.5       3.2897      4.496         
2012-07-31T00:19:26Z    Tianjin_2     45.9087     176.0639    176.0639    32.4919     13.0667      0.1139    20.4963     20.3907     0.5175      17.5       3.2891      4.5706        
2012-07-31T00:22:27Z    Tianjin_2     45.9143     176.0866    176.0866    32.49       13.0333      0.1087    20.497      20.3909     0.5203      17.5       3.2848      4.5922        
2012-07-31T00:25:29Z    Tianjin_2     45.9196     176.1082    176.1082    32.4916     12.9913      0.1116    20.4943     20.391      0.5066      17.5       3.2795      4.4683        
2012-07-31T00:28:30Z    Tianjin_2     45.9246     176.1294    176.1294    32.499      12.9892      0.1138    20.4961     20.391      0.5152      17.5       3.1636      4.3834        
2012-07-31T00:31:32Z    Tianjin_2     45.9302     176.1528    176.1528    32.5108     13.0654      0.1076    20.4943     20.3907     0.5078      17.5       3.1728      4.3259        
2012-07-31T00:34:33Z    Tianjin_2     45.9355     176.1754    176.1754    32.5124     13.1423      0.1097    20.4914     20.3904     0.4953      17.5       3.1822      4.2255        
2012-07-31T00:37:26Z    Tianjin_2     45.9409     176.1965    176.1965    32.516      13.2021      0.0975    20.4799     20.3902     0.4397      17.5       3.1895      3.7548        
2012-07-31T00:40:27Z    Tianjin_2     45.9474     176.2169    176.2169    32.5192     13.201       0.1041    20.4716     20.3902     0.3993      17.5       3.1893      3.4092        
2012-07-31T00:43:29Z    Tianjin_2     45.9543     176.2376    176.2376    32.5274     13.1982      0.0988    20.4483     20.3902     0.2846      17.5       3.1889      2.4302        
2012-07-31T00:46:30Z    Tianjin_2     45.9623     176.2577    176.2577    32.5436     13.1367      0.1071    20.4357     20.3904     0.222       17.5       3.1814      1.8934        
2012-07-31T00:49:32Z    Tianjin_2     45.9703     176.2778    176.2778    32.5547     13.0154      0.1061    20.4255     20.3908     0.17        17.5       3.1665      1.4465        
2012-07-31T00:52:33Z    Tianjin_2     45.9784     176.2981    176.2981    32.5591     12.8476      0.1037    20.4186     20.3914     0.1333      17.5       3.1462      1.1312        
2012-07-31T00:55:26Z    Tianjin_2     45.9863     176.3178    176.3178    32.5568     12.699       0.0929    20.414      20.392      0.1079      17.5       3.1283      0.9126        
2012-07-31T00:58:27Z    Tianjin_2     45.9943     176.3384    176.3384    32.5525     12.6102      0.0946    20.412      20.3923     0.0964      17.5       3.1177      0.8141        
2012-07-31T01:01:29Z    Tianjin_2     46.0012     176.36      176.36      32.5489     12.5979      0.0964    20.41       20.3924     0.0864      17.5       3.1162      0.7298        
2012-07-31T01:04:30Z    Tianjin_2     46.0072     176.3811    176.3811    32.5465     12.5955      0.0963    20.4084     20.3924     0.0786      17.5       3.0226      0.6441        
2012-07-31T01:07:32Z    Tianjin_2     46.0129     176.4027    176.4027    32.5447     12.5735      0.0996    20.4055     20.3925     0.0639      17.5       3.0201      0.5237        
2012-07-31T01:10:33Z    Tianjin_2     46.0185     176.4242    176.4242    32.5415     12.4955      0.1026    20.4005     20.3928     0.0382      17.5       3.0112      0.3126        
2012-07-31T01:13:26Z    Tianjin_2     46.0242     176.446     176.446     32.5284     12.5166      0.0959    20.398      20.3927     0.0262      17.5       3.0137      0.2143        
2012-07-31T01:16:27Z    Tianjin_2     46.0299     176.4672    176.4672    32.5141     12.598       0.1021    20.3973     20.3924     0.0241      17.5       3.0231      0.1977        
2012-07-31T01:19:29Z    Tianjin_2     46.0356     176.4882    176.4882    32.5103     12.5981      0.1058    20.397      20.3924     0.0226      17.5       3.0231      0.1852        
2012-07-31T01:22:30Z    Tianjin_2     46.0413     176.5095    176.5095    32.5063     12.5812      0.0999    20.394      20.3925     0.0073      17.5       3.0212      0.0597        
2012-07-31T01:25:32Z    Tianjin_2     46.0471     176.531     176.531     32.4981     12.6159      0.1016    20.3939     20.3924     0.0074      17.5       3.0252      0.0608        
2012-07-31T01:28:33Z    Tianjin_2     46.0531     176.5529    176.5529    32.4812     12.6459      0.1055    20.3923     20.3923     0.0002      17.5       3.0287      0.0015        
2012-07-31T01:31:26Z    Tianjin_2     46.0591     176.5744    176.5744    32.46       12.6148      0.1048    20.392      20.3924     -0.0021     17.5       3.0252      -0.0169       
2012-07-31T01:34:27Z    Tianjin_2     46.0648     176.5953    176.5953    32.4551     12.5598      0.1043    20.3885     20.3926     -0.0203     17.5       3.019       -0.166        
2012-07-31T01:37:29Z    Tianjin_2     46.0708     176.6171    176.6171    32.4648     12.5009      0.0977    20.3849     20.3928     -0.039      17.5       3.0122      -0.3192       
2012-07-31T01:40:30Z    Tianjin_2     46.0769     176.639     176.639     32.4776     12.5376      0.1014    20.3789     20.3927     -0.0675     17.5       2.9482      -0.5405       
2012-07-31T01:43:32Z    Tianjin_2     46.0827     176.6599    176.6599    32.487      12.6112      0.1024    20.3762     20.3924     -0.0796     17.5       2.9563      -0.6382       
2012-07-31T01:46:33Z    Tianjin_2     46.0878     176.6806    176.6806    32.4997     12.6718      0.1091    20.3771     20.3922     -0.074      17.5       2.963       -0.5938       
2012-07-31T01:49:26Z    Tianjin_2     46.0904     176.7028    176.7028    32.5062     12.6371      0.1192    20.3766     20.3923     -0.0769     17.5       2.9591      -0.6163       
2012-07-31T01:52:27Z    Tianjin_2     46.0931     176.7262    176.7262    32.5127     12.5909      0.1233    20.3709     20.3924     -0.1055     17.5       2.954       -0.845        
2012-07-31T01:55:29Z    Tianjin_2     46.0959     176.7491    176.7491    32.5337     12.5315      0.1268    20.3728     20.3926     -0.0972     17.5       2.9473      -0.7776       
2012-07-31T01:58:30Z    Tianjin_2     46.0987     176.7725    176.7725    32.5487     12.4231      0.1208    20.3724     20.393      -0.101      17.5       2.9352      -0.8063       
2012-07-31T02:01:32Z    Tianjin_2     46.1016     176.7954    176.7954    32.5515     12.3993      0.1157    20.3742     20.3931     -0.0929     17.5       2.9326      -0.7414       
2012-07-31T02:04:33Z    Tianjin_2     46.1041     176.817     176.817     32.5504     12.399       0.1149    20.3734     20.3931     -0.0968     17.5       2.9326      -0.7724       
2012-07-31T02:07:26Z    Tianjin_2     46.1067     176.8396    176.8396    32.5494     12.3641      0.1231    20.3715     20.3932     -0.1065     17.5       2.9287      -0.8496       
2012-07-31T02:10:27Z    Tianjin_2     46.1092     176.8624    176.8624    32.5481     12.295       0.1251    20.3678     20.3935     -0.1259     17.5       2.9211      -1.0032       
2012-07-31T02:13:29Z    Tianjin_2     46.1119     176.8857    176.8857    32.545      12.2255      0.1189    20.3677     20.3937     -0.1277     17.5       2.8692      -1.0007       
2012-07-31T02:55:32Z    Tianjin_2     46.1462     177.2041    177.2041    32.5364     12.1481      0.1292    20.4234     20.394      0.1438      17.5       3.0133      1.1861        
2012-07-31T02:58:33Z    Tianjin_2     46.1486     177.2282    177.2282    32.5435     12.1666      0.1319    20.4228     20.394      0.1416      17.5       3.0155      1.1679        
2012-07-31T03:01:26Z    Tianjin_2     46.1509     177.2508    177.2508    32.5377     12.2271      0.1368    20.423      20.3937     0.1434      17.5       3.0225      1.1841        
2012-07-31T03:04:27Z    Tianjin_2     46.153      177.2717    177.2717    32.5243     12.2385      0.1314    20.42       20.3937     0.1288      17.5       3.0239      1.0642        
2012-07-31T03:07:29Z    Tianjin_2     46.1551     177.2943    177.2943    32.5117     12.1856      0.1325    20.4167     20.3939     0.1118      17.5       3.0178      0.9223        
2012-07-31T03:10:30Z    Tianjin_2     46.1575     177.3171    177.3171    32.5128     12.159       0.1377    20.4127     20.394      0.0913      17.5       3.0147      0.7531        
2012-07-31T03:13:32Z    Tianjin_2     46.1598     177.3399    177.3399    32.5174     12.1912      0.1355    20.416      20.3939     0.1082      17.5       3.0184      0.8931        
2012-07-31T03:16:33Z    Tianjin_2     46.1621     177.3623    177.3623    32.519      12.2491      0.1334    20.4199     20.3937     0.1287      17.5       3.0251      1.0632        
2012-07-31T03:19:26Z    Tianjin_2     46.1642     177.3847    177.3847    32.5233     12.3489      0.1254    20.4203     20.3933     0.1325      17.5       3.0113      1.0876        
2012-07-31T03:22:27Z    Tianjin_2     46.168      177.4067    177.4067    32.4947     12.405       0.0061    20.4051     20.3932     0.0584      17.5       3.0179      0.4797        
2012-07-31T03:25:29Z    Tianjin_2     46.1727     177.4271    177.4271    32.3248     12.457       0.0001    20.4039     20.3932     0.0523      17.5       3.0247      0.4303        
2012-07-31T03:28:30Z    Tianjin_2     46.1749     177.4488    177.4488    32.1166     12.5094      -0.0063   20.4        20.3933     0.0328      17.5       3.0317      0.2709        
2012-07-31T03:31:32Z    Tianjin_2     46.1775     177.4717    177.4717    32.4848     12.4839      0.0991    20.4014     20.3929     0.0419      17.5       3.0271      0.3448        
2012-07-31T03:34:33Z    Tianjin_2     46.1799     177.4929    177.4929    32.5617     12.4738      0.1169    20.4018     20.3928     0.0442      17.5       3.0256      0.3637        
2012-07-31T03:37:26Z    Tianjin_2     46.1823     177.5144    177.5144    32.5571     12.4801      0.1261    20.404      20.3928     0.0552      17.5       3.0264      0.4538        
2012-07-31T03:40:27Z    Tianjin_2     46.1851     177.5393    177.5393    32.5517     12.5075      0.1321    20.4076     20.3927     0.0732      17.5       3.0296      0.6021        
2012-07-31T03:43:29Z    Tianjin_2     46.1876     177.5616    177.5616    32.5473     12.519       0.1442    20.411      20.3927     0.0899      17.5       3.031       0.7398        
2012-07-31T03:46:30Z    Tianjin_2     46.19       177.582     177.582     32.5428     12.5349      0.147     20.4171     20.3926     0.1203      17.5       3.0328      0.9903        
2012-07-31T03:49:32Z    Tianjin_2     46.1924     177.6045    177.6045    32.5391     12.5251      0.158     20.4193     20.3926     0.1306      17.5       3.0317      1.0748        
2012-07-31T03:52:33Z    Tianjin_2     46.1948     177.6265    177.6265    32.5302     12.4934      0.1713    20.4196     20.3928     0.1315      17.5       3           1.0719        
2012-07-31T03:55:26Z    Tianjin_2     46.197      177.6488    177.6488    32.5239     12.4934      0.1882    20.426      20.3928     0.1628      17.5       3.0001      1.3266        
2012-07-31T03:58:27Z    Tianjin_2     46.1994     177.6718    177.6718    32.5201     12.4916      0.1843    20.432      20.3928     0.1922      17.5       2.9999      1.5665        
2012-07-31T04:01:29Z    Tianjin_2     46.2018     177.6948    177.6948    32.5202     12.4803      0.1782    20.4417     20.3928     0.2395      17.5       2.9986      1.9514        
2012-07-31T04:04:30Z    Tianjin_2     46.2041     177.7177    177.7177    32.5217     12.4687      0.1828    20.4444     20.3929     0.2526      17.5       2.9972      2.0576        
2012-07-31T04:07:32Z    Tianjin_2     46.2066     177.7425    177.7425    32.5242     12.4429      0.1868    20.4475     20.393      0.2674      17.5       2.9942      2.1777        
2012-07-31T04:10:33Z    Tianjin_2     46.2091     177.7665    177.7665    32.5283     12.4096      0.1972    20.4497     20.3931     0.2776      17.5       2.9904      2.2589        
2012-07-31T04:13:26Z    Tianjin_2     46.2111     177.7874    177.7874    32.5305     12.3874      0.2087    20.4521     20.3932     0.2888      17.5       2.9879      2.3497        
2012-07-31T04:16:27Z    Tianjin_2     46.213      177.8093    177.8093    32.5292     12.411       0.2142    20.4532     20.3931     0.295       17.5       2.9906      2.4007        
2012-07-31T04:19:29Z    Tianjin_2     46.2151     177.8325    177.8325    32.5306     12.4048      0.2227    20.4546     20.3931     0.3017      17.5       2.9898      2.4555        
2012-07-31T04:22:30Z    Tianjin_2     46.2173     177.8571    177.8571    32.5359     12.3642      0.2227    20.4533     20.3932     0.2947      17.5       2.9852      2.3962        
2012-07-31T04:25:32Z    Tianjin_2     46.2194     177.8806    177.8806    32.5448     12.3482      0.2298    20.4544     20.3933     0.2996      17.5       2.9517      2.4098        
2012-07-31T04:28:33Z    Tianjin_2     46.2214     177.9027    177.9027    32.5533     12.4067      0.2266    20.4579     20.3931     0.3179      17.5       2.9583      2.5589        
2012-07-31T04:31:26Z    Tianjin_2     46.2236     177.926     177.926     32.5532     12.4747      0.2234    20.461      20.3928     0.3342      17.5       2.966       2.694         
2012-07-31T04:34:27Z    Tianjin_2     46.2255     177.9493    177.9493    32.5505     12.5138      0.2308    20.4629     20.3927     0.3444      17.5       2.9705      2.7779        
2012-07-31T04:37:29Z    Tianjin_2     46.2274     177.9727    177.9727    32.5481     12.5622      0.2415    20.4634     20.3925     0.3478      17.5       2.976       2.8075        
2012-07-31T04:40:30Z    Tianjin_2     46.2293     177.9956    177.9956    32.5415     12.6162      0.2453    20.4623     20.3923     0.3432      17.5       2.9822      2.773         
2012-07-31T04:43:32Z    Tianjin_2     46.2312     178.0183    178.0183    32.5376     12.6137      0.2391    20.4595     20.3923     0.3295      17.5       2.9819      2.6626        
2012-07-31T04:46:33Z    Tianjin_2     46.2332     178.0419    178.0419    32.5399     12.5905      0.2391    20.4551     20.3924     0.3074      17.5       2.9793      2.4826        
2012-07-31T04:49:26Z    Tianjin_2     46.2352     178.0668    178.0668    32.5455     12.5334      0.2454    20.4496     20.3926     0.2795      17.5       2.9727      2.2556        
2012-07-31T04:52:27Z    Tianjin_2     46.2372     178.0897    178.0897    32.55       12.4676      0.2494    20.444      20.3928     0.251       17.5       2.9652      2.0227        
2012-07-31T04:55:29Z    Tianjin_2     46.2389     178.1107    178.1107    32.5533     12.4186      0.219     20.4448     20.393      0.2537      17.5       2.9597      2.0431        
2012-07-31T04:58:30Z    Tianjin_2     46.2409     178.1341    178.1341    32.5561     12.389       0.2046    20.4434     20.3931     0.2463      17.5       2.9248      1.9615        
2012-07-31T05:01:32Z    Tianjin_2     46.2432     178.1593    178.1593    32.5593     12.3567      0.21      20.438      20.3932     0.2195      17.5       2.9212      1.7467        
2012-07-31T05:04:33Z    Tianjin_2     46.2451     178.1815    178.1815    32.562      12.3203      0.2289    20.4348     20.3934     0.203       17.5       2.9171      1.6145        
2012-07-31T05:07:26Z    Tianjin_2     46.247      178.2023    178.2023    32.5639     12.296       0.2437    20.4348     20.3935     0.2027      17.5       2.9144      1.6114        
2012-07-31T05:10:27Z    Tianjin_2     46.2492     178.2268    178.2268    32.5667     12.2424      0.2581    20.4357     20.3936     0.2062      17.5       2.9085      1.6374        
2012-07-31T05:13:29Z    Tianjin_2     46.2513     178.2498    178.2498    32.5678     12.1942      0.2518    20.4323     20.3938     0.1885      17.5       2.9031      1.4955        
2012-07-31T05:55:32Z    Tianjin_2     46.2802     178.5725    178.5725    32.5036     12.0636      0.2607    20.4899     20.3944     0.4682      17.5       2.869       3.6833        
2012-07-31T05:58:33Z    Tianjin_2     46.2822     178.5953    178.5953    32.5024     12.0969      0.2626    20.4887     20.3943     0.4628      17.5       2.8726      3.6425        
2012-07-31T06:01:26Z    Tianjin_2     46.284      178.6181    178.6181    32.5003     12.0954      0.2688    20.4884     20.3943     0.4616      17.5       2.8725      3.6331        
2012-07-31T06:04:27Z    Tianjin_2     46.2861     178.6423    178.6423    32.4963     12.0363      0.2654    20.4829     20.3945     0.4333      17.5       2.8551      3.3944        
2012-07-31T06:07:29Z    Tianjin_2     46.2881     178.6654    178.6654    32.4923     11.9693      0.2662    20.4843     20.3948     0.4391      17.5       2.8479      3.4355        
2012-07-31T06:10:30Z    Tianjin_2     46.2898     178.6869    178.6869    32.4875     11.8909      0.2706    20.485      20.3951     0.4409      17.5       2.8395      3.4458        
2012-07-31T06:13:32Z    Tianjin_2     46.2917     178.7102    178.7102    32.4787     11.7899      0.2745    20.4903     20.3955     0.4648      17.5       2.8287      3.6261        
2012-07-31T06:16:33Z    Tianjin_2     46.2939     178.734     178.734     32.4723     11.72        0.2867    20.4928     20.3957     0.4761      17.5       2.8213      3.71          
2012-07-31T06:19:26Z    Tianjin_2     46.2959     178.757     178.757     32.4698     11.6928      0.2818    20.4965     20.3958     0.4935      17.5       2.8184      3.8445        
2012-07-31T06:22:27Z    Tianjin_2     46.298      178.7797    178.7797    32.4678     11.6753      0.2889    20.5033     20.3959     0.5267      17.5       2.8165      4.1014        
2012-07-31T06:25:29Z    Tianjin_2     46.3        178.8025    178.8025    32.4582     11.681       0.2887    20.5038     20.3959     0.5289      17.5       2.8172      4.1199        
2012-07-31T06:28:30Z    Tianjin_2     46.3021     178.8259    178.8259    32.4518     11.6841      0.2751    20.5064     20.3959     0.542       17.5       2.8175      4.222         
2012-07-31T06:31:32Z    Tianjin_2     46.3041     178.8494    178.8494    32.4448     11.6949      0.2674    20.5061     20.3959     0.5405      17.5       2.8187      4.2116        
2012-07-31T06:34:33Z    Tianjin_2     46.3061     178.8728    178.8728    32.4404     11.7307      0.2695    20.5025     20.3957     0.5235      17.5       2.8226      4.0815        
2012-07-31T06:37:26Z    Tianjin_2     46.3082     178.8966    178.8966    32.4348     11.8044      0.2703    20.4998     20.3955     0.5116      17.5       2.8193      3.9777        
2012-07-31T06:40:27Z    Tianjin_2     46.3101     178.9199    178.9199    32.4332     11.8199      0.2639    20.493      20.3954     0.4784      17.5       2.821       3.7205        
2012-07-31T06:43:29Z    Tianjin_2     46.312      178.9429    178.9429    32.4333     11.8094      0.267     20.4879     20.3955     0.4533      17.5       2.8198      3.5251        
2012-07-31T06:46:30Z    Tianjin_2     46.314      178.9669    178.9669    32.4342     11.7807      0.2683    20.4839     20.3956     0.433       17.5       2.8168      3.3657        
2012-07-31T06:49:32Z    Tianjin_2     46.3158     178.9898    178.9898    32.436      11.7291      0.2772    20.4805     20.3958     0.4153      17.5       2.8114      3.225         
2012-07-31T06:52:33Z    Tianjin_2     46.3176     179.0122    179.0122    32.4371     11.6897      0.2643    20.4799     20.3959     0.4117      17.5       2.8072      3.195         
2012-07-31T06:55:26Z    Tianjin_2     46.3195     179.0354    179.0354    32.4341     11.6665      0.2699    20.4784     20.396      0.4041      17.5       2.8048      3.1349        
2012-07-31T06:58:27Z    Tianjin_2     46.3213     179.0585    179.0585    32.4304     11.6473      0.2542    20.4783     20.3961     0.4034      17.5       2.8028      3.1286        
2012-07-31T07:01:29Z    Tianjin_2     46.3234     179.084     179.084     32.4226     11.7724      0.2454    20.4739     20.3956     0.3839      17.5       2.816       2.9835        
2012-07-31T07:04:30Z    Tianjin_2     46.325      179.1064    179.1064    32.4145     11.9085      0.2375    20.4714     20.3951     0.3738      17.5       2.8304      2.9119        
2012-07-31T07:07:32Z    Tianjin_2     46.3267     179.1278    179.1278    32.411      11.9609      0.2337    20.4671     20.3949     0.3537      17.5       2.8152      2.7378        
2012-07-31T07:10:33Z    Tianjin_2     46.3286     179.1508    179.1508    32.4099     11.9713      0.2334    20.4606     20.3949     0.3223      17.5       2.8163      2.4951        
2012-07-31T07:13:26Z    Tianjin_2     46.3304     179.1726    179.1726    32.4101     11.9698      0.2357    20.4522     20.3949     0.2809      17.5       2.8161      2.1745        
2012-07-31T07:16:27Z    Tianjin_2     46.3324     179.1951    179.1951    32.4104     11.9914      0.2443    20.4457     20.3948     0.2493      17.5       2.8184      1.9305        
2012-07-31T07:19:29Z    Tianjin_2     46.3342     179.2178    179.2178    32.4107     12.0064      0.2463    20.4418     20.3948     0.2307      17.5       2.8199      1.7869        
2012-07-31T07:22:30Z    Tianjin_2     46.3361     179.2406    179.2406    32.4113     11.9955      0.2386    20.4418     20.3948     0.2304      17.5       2.8188      1.7845        
2012-07-31T07:25:32Z    Tianjin_2     46.338      179.2645    179.2645    32.4116     11.9971      0.2487    20.4368     20.3948     0.206       17.5       2.819       1.595         
2012-07-31T07:28:33Z    Tianjin_2     46.3398     179.2874    179.2874    32.4122     11.9726      0.2551    20.4351     20.3949     0.1972      17.5       2.8164      1.5265        
2012-07-31T07:31:26Z    Tianjin_2     46.3416     179.3099    179.3099    32.4136     11.9263      0.2604    20.4358     20.395      0.1999      17.5       2.8116      1.5461        
2012-07-31T07:34:27Z    Tianjin_2     46.3435     179.3328    179.3328    32.4157     11.8564      0.2628    20.4383     20.3953     0.2108      17.5       2.8043      1.6285        
2012-07-31T07:37:29Z    Tianjin_2     46.3454     179.3565    179.3565    32.416      11.8246      0.2666    20.437      20.3954     0.204       17.5       2.801       1.5752        
2012-07-31T07:40:30Z    Tianjin_2     46.3473     179.3807    179.3807    32.4185     11.7902      0.2702    20.4429     20.3956     0.2324      17.5       2.7648      1.7724        
2012-07-31T07:43:32Z    Tianjin_2     46.3492     179.4035    179.4035    32.4241     11.7328      0.2833    20.4391     20.3958     0.2124      17.5       2.759       1.6188        
2012-07-31T07:46:33Z    Tianjin_2     46.3509     179.4257    179.4257    32.4273     11.6862      0.2862    20.4329     20.3959     0.1814      17.5       2.7543      1.3818        
2012-07-31T07:49:26Z    Tianjin_2     46.3527     179.4487    179.4487    32.4262     11.6904      0.2934    20.4317     20.3959     0.1756      17.5       2.7548      1.3375        
2012-07-31T07:52:27Z    Tianjin_2     46.3545     179.4725    179.4725    32.4288     11.6922      0.2972    20.4341     20.3959     0.1875      17.5       2.7549      1.4278        
2012-07-31T07:55:29Z    Tianjin_2     46.3562     179.4955    179.4955    32.4327     11.6838      0.3072    20.437      20.3959     0.2015      17.5       2.7541      1.5348        
2012-07-31T07:58:30Z    Tianjin_2     46.3577     179.5179    179.5179    32.4314     11.6949      0.3146    20.439      20.3959     0.2111      17.5       2.7552      1.6081        
2012-07-31T08:01:32Z    Tianjin_2     46.3594     179.5412    179.5412    32.4298     11.7106      0.3189    20.44       20.3958     0.2167      17.5       2.7568      1.651         
2012-07-31T08:04:33Z    Tianjin_2     46.3609     179.5643    179.5643    32.4317     11.7032      0.3249    20.4411     20.3959     0.222       17.5       2.756       1.6912        
2012-07-31T08:07:26Z    Tianjin_2     46.3626     179.5877    179.5877    32.4327     11.6829      0.3317    20.4427     20.3959     0.2291      17.5       2.754       1.7443        
2012-07-31T08:10:27Z    Tianjin_2     46.3644     179.6116    179.6116    32.4333     11.6347      0.3394    20.4443     20.3961     0.2361      17.5       2.7492      1.797         
2012-07-31T08:13:29Z    Tianjin_2     46.366      179.6352    179.6352    32.4339     11.5929      0.3594    20.4468     20.3963     0.2476      17.5       2.706       1.8561        
2012-07-31T08:55:32Z    Tianjin_2     46.3881     179.965     179.965     32.4152     11.8086      0.3104    20.4702     20.3955     0.3661      17.5       2.8014      2.8287        
2012-07-31T08:58:33Z    Tianjin_2     46.3896     nd          nd          32.4155     11.7609      0.2915    20.4712     20.3957     0.3703      nd         nd          nd            
2012-07-31T09:01:26Z    Tianjin_2     46.3911     -179.9876   180.0124    32.4165     11.7229      0.2927    20.4717     20.3958     0.3721      17.5       2.7927      2.8714        
2012-07-31T09:04:27Z    Tianjin_2     46.3928     -179.9638   180.0362    32.4152     11.7507      0.2896    20.4721     20.3957     0.3745      17.5       2.7955      2.8911        
2012-07-31T09:07:29Z    Tianjin_2     46.3944     -179.9402   180.0598    32.4116     11.804       0.2798    20.4708     20.3955     0.3693      17.5       2.8009      2.8533        
2012-07-31T09:10:30Z    Tianjin_2     46.3958     -179.9164   180.0836    32.4095     11.8726      0.2829    20.4667     20.3953     0.3504      17.5       2.8079      2.7103        
2012-07-31T09:13:32Z    Tianjin_2     46.3975     -179.8929   180.1071    32.4107     11.9028      0.2798    20.4613     20.3951     0.3246      17.5       2.811       2.5117        
2012-07-31T09:16:33Z    Tianjin_2     46.3989     -179.8697   180.1303    32.413      11.9054      0.2824    20.4541     20.3951     0.2891      17.5       2.7651      2.2005        
2012-07-31T09:19:26Z    Tianjin_2     46.4006     -179.8464   180.1536    32.4167     11.8746      0.2786    20.4508     20.3952     0.2726      17.5       2.762       2.0737        
2012-07-31T09:22:27Z    Tianjin_2     46.4022     -179.8218   180.1782    32.4159     11.8822      0.2766    20.4499     20.3952     0.2681      17.5       2.7628      2.0396        
2012-07-31T09:25:29Z    Tianjin_2     46.4039     -179.798    180.202     32.415      11.8881      0.2832    20.4471     20.3952     0.2544      17.5       2.7634      1.936         
2012-07-31T09:28:30Z    Tianjin_2     46.4054     -179.7754   180.2246    32.4176     11.8672      0.2947    20.4448     20.3953     0.2428      17.5       2.7613      1.847         
2012-07-31T09:31:32Z    Tianjin_2     46.407      -179.7525   180.2475    32.4194     11.8678      0.2967    20.4449     20.3953     0.2434      17.5       2.7614      1.8515        
2012-07-31T09:34:33Z    Tianjin_2     46.4085     -179.7299   180.2701    32.4208     11.8809      0.2782    20.4443     20.3952     0.2409      17.5       2.7627      1.8323        
2012-07-31T09:37:26Z    Tianjin_2     46.41       -179.7068   180.2932    32.4211     11.9026      0.2887    20.4423     20.3951     0.2314      17.5       2.7648      1.761         
2012-07-31T09:40:27Z    Tianjin_2     46.4116     -179.6831   180.3169    32.4215     11.9112      0.2838    20.4417     20.3951     0.2286      17.5       2.7656      1.7402        
2012-07-31T09:43:29Z    Tianjin_2     46.4131     -179.6596   180.3404    32.4191     11.9665      0.2981    20.4382     20.3949     0.2124      17.5       2.7711      1.6181        
2012-07-31T09:46:30Z    Tianjin_2     46.4145     -179.6369   180.3631    32.4167     11.9971      0.293     20.4393     20.3948     0.2181      17.5       2.7741      1.6621        
2012-07-31T09:49:32Z    Tianjin_2     46.4159     -179.6138   180.3862    32.4182     11.9681      0.2881    20.4344     20.3949     0.1937      17.5       2.7433      1.4607        
2012-07-31T09:52:33Z    Tianjin_2     46.4172     -179.5902   180.4098    32.4206     11.9075      0.2754    20.4275     20.3951     0.159       17.5       2.7374      1.1976        
2012-07-31T09:55:26Z    Tianjin_2     46.4186     -179.5674   180.4326    32.4222     11.8653      0.2729    20.4247     20.3953     0.1441      17.5       2.7334      1.0853        
2012-07-31T09:58:27Z    Tianjin_2     46.42       -179.5441   180.4559    32.4214     11.8747      0.2692    20.4196     20.3952     0.1195      17.5       2.7343      0.9001        
2012-07-31T10:01:29Z    Tianjin_2     46.4214     -179.5209   180.4791    32.419      11.9042      0.2679    20.4177     20.3951     0.1107      17.5       2.7371      0.8341        
2012-07-31T10:04:30Z    Tianjin_2     46.4228     -179.4981   180.5019    32.4209     11.881       0.2607    20.4143     20.3952     0.0938      17.5       2.7349      0.7064        
2012-07-31T10:07:32Z    Tianjin_2     46.4243     -179.4739   180.5261    32.423      11.8591      0.2591    20.4082     20.3953     0.0631      17.5       2.7328      0.4754        
2012-07-31T10:10:33Z    Tianjin_2     46.4256     -179.4514   180.5486    32.4241     11.8434      0.2527    20.4064     20.3953     0.0541      17.5       2.7313      0.4074        
2012-07-31T10:13:26Z    Tianjin_2     46.427      -179.4298   180.5702    32.4229     11.8026      0.272     20.4012     20.3955     0.028       17.5       2.7274      0.2106        
2012-07-31T10:16:27Z    Tianjin_2     46.4285     -179.4065   180.5935    32.4211     11.7403      0.2878    20.4004     20.3957     0.023       17.5       2.7214      0.1731        
2012-07-31T10:19:29Z    Tianjin_2     46.43       -179.3823   180.6177    32.4212     11.6671      0.2968    20.401      20.396      0.0246      17.5       2.7144      0.1844        
2012-07-31T10:22:30Z    Tianjin_2     46.4316     -179.3584   180.6416    32.42       11.644       0.3118    20.3992     20.3961     0.0153      17.5       2.6995      0.1142        
2012-07-31T10:25:32Z    Tianjin_2     46.4331     -179.3363   180.6637    32.4227     11.6106      0.3391    20.4013     20.3962     0.0248      17.5       2.6964      0.1853        
2012-07-31T10:28:33Z    Tianjin_2     46.4348     -179.3129   180.6871    32.4192     11.6119      0.3617    20.3967     20.3962     0.0022      17.5       2.6965      0.0164        
2012-07-31T10:31:26Z    Tianjin_2     46.4362     -179.2899   180.7101    32.414      11.5632      0.3816    20.3952     20.3964     -0.0059     17.5       2.692       -0.0439       
2012-07-31T10:34:27Z    Tianjin_2     46.4378     -179.2675   180.7325    32.4128     11.4937      0.3883    20.3966     20.3967     -0.0006     17.5       2.6856      -0.0043       
2012-07-31T10:37:29Z    Tianjin_2     46.4395     -179.2426   180.7574    32.4145     11.4376      0.3802    20.3999     20.3969     0.0149      17.5       2.6804      0.111         
2012-07-31T10:40:30Z    Tianjin_2     46.4413     -179.2183   180.7817    32.4107     11.4741      0.3959    20.3991     20.3968     0.0114      17.5       2.6837      0.0849        
2012-07-31T10:43:32Z    Tianjin_2     46.443      -179.1961   180.8039    32.4008     11.5567      0.4057    20.4011     20.3965     0.0227      17.5       2.6914      0.1695        
2012-07-31T10:46:33Z    Tianjin_2     46.4449     -179.1727   180.8273    32.393      11.6227      0.411     20.4037     20.3962     0.0365      17.5       2.6976      0.2728        
2012-07-31T10:49:26Z    Tianjin_2     46.4467     -179.1502   180.8498    32.3897     11.6668      0.4127    20.4021     20.3961     0.0297      17.5       2.7017      0.222         
2012-07-31T10:52:27Z    Tianjin_2     46.4485     -179.1287   180.8713    32.3924     11.6764      0.419     20.4042     20.396      0.04        17.5       2.7026      0.2989        
2012-07-31T10:55:29Z    Tianjin_2     46.4505     -179.1054   180.8946    32.3922     11.6616      0.4237    20.4056     20.3961     0.0465      17.5       2.703       0.3476        
2012-07-31T10:58:30Z    Tianjin_2     46.4522     -179.0823   180.9177    32.3907     11.6393      0.411     20.4082     20.3962     0.0588      17.5       2.7009      0.4397        
2012-07-31T11:01:32Z    Tianjin_2     46.4539     -179.059    180.941     32.3966     11.5829      0.4144    20.408      20.3964     0.0571      17.5       2.6957      0.4269        
2012-07-31T11:04:33Z    Tianjin_2     46.4556     -179.0355   180.9645    32.4009     11.532       0.4109    20.4123     20.3966     0.0774      17.5       2.691       0.5782        
2012-07-31T11:07:26Z    Tianjin_2     46.4571     -179.0126   180.9874    32.4022     11.5043      0.4098    20.4151     20.3967     0.0903      17.5       2.6885      0.6739        
2012-07-31T11:10:27Z    Tianjin_2     46.4584     -178.99     181.01      32.405      11.4565      0.4097    20.4115     20.3968     0.072       17.5       2.6841      0.5369        
2012-07-31T11:13:29Z    Tianjin_2     46.4597     -178.9651   181.0349    32.4102     11.3983      0.3924    20.4126     20.397      0.0764      17.5       2.6788      0.5693        
2012-07-31T11:55:32Z    Tianjin_2     46.4789     -178.636    181.364     32.3862     11.5073      0.3535    20.46       20.3967     0.3106      17.5       2.7017      2.3297        
2012-07-31T11:58:33Z    Tianjin_2     46.4804     -178.6126   181.3874    32.3835     11.5216      0.3547    20.4585     20.3966     0.3035      17.5       2.7191      2.2904        
2012-07-31T12:01:26Z    Tianjin_2     46.4818     -178.5881   181.4119    32.3786     11.6107      0.3615    20.4582     20.3963     0.3034      17.5       2.7273      2.2921        
2012-07-31T12:04:27Z    Tianjin_2     46.4833     -178.5635   181.4365    32.3735     11.6637      0.3603    20.4563     20.3961     0.2952      17.5       2.7322      2.2316        
2012-07-31T12:07:29Z    Tianjin_2     46.4845     -178.5413   181.4587    32.3749     11.6538      0.35      20.4525     20.3961     0.2762      17.5       2.7313      2.0878        
2012-07-31T12:10:30Z    Tianjin_2     46.4859     -178.5182   181.4818    32.3772     11.6176      0.3385    20.4509     20.3963     0.2679      17.5       2.7279      2.0245        
2012-07-31T12:13:32Z    Tianjin_2     46.4873     -178.4944   181.5056    32.3784     11.6065      0.3161    20.453      20.3963     0.2781      17.5       2.7269      2.1013        
2012-07-31T12:16:33Z    Tianjin_2     46.4887     -178.4712   181.5288    32.3635     11.8055      0.3245    20.451      20.3956     0.2717      17.5       2.7452      2.058         
2012-07-31T12:19:26Z    Tianjin_2     46.4902     -178.448    181.552     32.3472     12.044       0.3097    20.4475     20.3947     0.2589      17.5       2.7674      1.9675        
2012-07-31T12:22:27Z    Tianjin_2     46.4918     -178.4242   181.5758    32.3394     12.1961      0.2789    20.4403     20.3942     0.2265      17.5       2.7816      1.7244        
2012-07-31T12:25:29Z    Tianjin_2     46.4933     -178.4014   181.5986    32.324      12.3372      0.2716    20.4319     20.3937     0.1874      17.5       2.7948      1.4296        
2012-07-31T12:28:30Z    Tianjin_2     46.495      -178.3778   181.6222    32.3181     12.4044      0.2846    20.426      20.3934     0.16        17.5       2.8012      1.2216        
2012-07-31T12:31:32Z    Tianjin_2     46.4966     -178.3543   181.6457    32.3157     12.4201      0.277     20.4199     20.3934     0.1302      17.5       2.823       1.0012        
2012-07-31T12:34:33Z    Tianjin_2     46.4981     -178.3318   181.6682    32.3207     12.4079      0.2918    20.4145     20.3934     0.1037      17.5       2.8218      0.7971        
2012-07-31T12:37:26Z    Tianjin_2     46.4997     -178.3077   181.6923    32.3313     12.3613      0.2808    20.4125     20.3936     0.0929      17.5       2.8173      0.7143        
2012-07-31T12:40:27Z    Tianjin_2     46.5013     -178.2843   181.7157    32.3317     12.3337      0.2859    20.4095     20.3937     0.0776      17.5       2.8147      0.5964        
2012-07-31T12:43:29Z    Tianjin_2     46.5029     -178.2609   181.7391    32.3379     12.3007      0.2778    20.4064     20.3938     0.062       17.5       2.8116      0.4757        
2012-07-31T12:46:30Z    Tianjin_2     46.5045     -178.2374   181.7626    32.3457     12.2681      0.2763    20.4065     20.3939     0.0619      17.5       2.8085      0.4747        
2012-07-31T12:49:32Z    Tianjin_2     46.5062     -178.2142   181.7858    32.3449     12.2904      0.2852    20.4039     20.3938     0.0495      17.5       2.8106      0.3801        
2012-07-31T12:52:33Z    Tianjin_2     46.5079     -178.1901   181.8099    32.3357     12.3494      0.2742    20.4049     20.3936     0.0553      17.5       2.8162      0.4249        
2012-07-31T12:55:26Z    Tianjin_2     46.5096     -178.1663   181.8337    32.326      12.3907      0.2712    20.4047     20.3935     0.0549      17.5       2.8201      0.4223        
2012-07-31T12:58:27Z    Tianjin_2     46.5111     -178.1428   181.8572    32.3207     12.4106      0.2773    20.4007     20.3934     0.0356      17.5       2.822       0.2741        
2012-07-31T13:01:29Z    Tianjin_2     46.5125     -178.1194   181.8806    32.3151     12.4487      0.2623    20.4005     20.3933     0.0357      17.5       2.8449      0.2764        
2012-07-31T13:04:30Z    Tianjin_2     46.514      -178.0961   181.9039    32.3123     12.4674      0.2657    20.3967     20.3932     0.0173      17.5       2.8467      0.1341        
2012-07-31T13:07:32Z    Tianjin_2     46.5153     -178.0723   181.9277    32.3163     12.4387      0.2571    20.3931     20.3933     -0.0007     17.5       2.8439      -0.0057       
2012-07-31T13:10:33Z    Tianjin_2     46.5167     -178.0485   181.9515    32.3229     12.3756      0.2562    20.3912     20.3935     -0.0113     17.5       2.8379      -0.0871       
2012-07-31T13:13:26Z    Tianjin_2     46.5179     -178.0248   181.9752    32.3277     12.3391      0.2794    20.3862     20.3936     -0.0364     17.5       2.8344      -0.2813       
2012-07-31T13:16:27Z    Tianjin_2     46.5192     -178.0008   181.9992    32.3319     12.3164      0.2684    20.3868     20.3937     -0.034      17.5       2.8322      -0.2629       
2012-07-31T13:19:29Z    Tianjin_2     46.5206     -177.9751   182.0249    32.3356     12.3001      0.2667    20.3858     20.3938     -0.039      17.5       2.8307      -0.3013       
2012-07-31T13:22:30Z    Tianjin_2     46.5218     -177.951    182.049     32.3378     12.2972      0.2681    20.3856     20.3938     -0.0403     17.5       2.8304      -0.3116       
2012-07-31T13:25:32Z    Tianjin_2     46.5228     -177.9293   182.0707    32.3359     12.3136      0.2559    20.3854     20.3937     -0.0407     17.5       2.8319      -0.3148       
2012-07-31T13:28:33Z    Tianjin_2     46.5239     -177.9068   182.0932    32.3302     12.32        0.2637    20.3835     20.3937     -0.0501     17.5       2.8326      -0.3872       
2012-07-31T13:31:26Z    Tianjin_2     46.525      -177.8831   182.1169    32.3264     12.3309      0.2625    20.3818     20.3937     -0.0583     17.5       2.8336      -0.4507       
2012-07-31T13:34:27Z    Tianjin_2     46.5263     -177.8584   182.1416    32.3345     12.3231      0.2872    20.3779     20.3937     -0.0773     17.5       2.8413      -0.5999       
2012-07-31T13:37:29Z    Tianjin_2     46.5276     -177.8352   182.1648    32.3415     12.2969      0.2871    20.3799     20.3938     -0.0682     17.5       2.8388      -0.5288       
2012-07-31T13:40:30Z    Tianjin_2     46.5287     -177.8121   182.1879    32.3439     12.2645      0.2822    20.3808     20.3939     -0.0642     17.5       2.8357      -0.4972       
2012-07-31T13:43:32Z    Tianjin_2     46.5299     -177.7887   182.2113    32.3506     12.2307      0.2993    20.38       20.394      -0.0686     17.5       2.8324      -0.5311       
2012-07-31T13:46:33Z    Tianjin_2     46.531      -177.7653   182.2347    32.3589     12.2643      0.3102    20.3836     20.3939     -0.0504     17.5       2.8356      -0.3907       
2012-07-31T13:49:26Z    Tianjin_2     46.5323     -177.7403   182.2597    32.3651     12.2788      0.3137    20.3861     20.3938     -0.0378     17.5       2.837       -0.2926       
2012-07-31T13:52:27Z    Tianjin_2     46.5334     -177.7173   182.2827    32.3697     12.2994      0.3123    20.3877     20.3937     -0.0295     17.5       2.8389      -0.2287       
2012-07-31T13:55:29Z    Tianjin_2     46.5345     -177.6954   182.3046    32.3733     12.3342      0.3206    20.3905     20.3936     -0.015      17.5       2.8422      -0.116        
2012-07-31T13:58:30Z    Tianjin_2     46.5357     -177.6725   182.3275    32.3826     12.3741      0.3095    20.3864     20.3934     -0.0343     17.5       2.846       -0.2665       
2012-07-31T14:01:32Z    Tianjin_2     46.5368     -177.6498   182.3502    32.389      12.4223      0.3206    20.3834     20.3932     -0.0485     17.5       2.8506      -0.3766       
2012-07-31T14:04:33Z    Tianjin_2     46.5379     -177.6266   182.3734    32.3936     12.4368      0.3296    20.3836     20.3932     -0.0469     17.5       2.852       -0.3638       
2012-07-31T14:07:26Z    Tianjin_2     46.539      -177.6022   182.3978    32.4026     12.4351      0.3352    20.3815     20.3932     -0.0571     17.5       2.8444      -0.4418       
2012-07-31T14:10:27Z    Tianjin_2     46.54       -177.5789   182.4211    32.4148     12.414       0.3446    20.3827     20.3932     -0.0516     17.5       2.8424      -0.3995       
2012-07-31T14:13:29Z    Tianjin_2     46.541      -177.5561   182.4439    32.4274     12.3611      0.3452    20.3822     20.3934     -0.0548     17.5       2.8373      -0.4237       
2012-07-31T14:55:32Z    Tianjin_2     46.5517     -177.2285   182.7715    32.3717     11.5201      0.2828    20.3941     20.3966     -0.0122     17.5       2.7348      -0.0926       
2012-07-31T14:58:33Z    Tianjin_2     46.5527     -177.2049   182.7951    32.3745     11.549       0.2758    20.3907     20.3965     -0.0286     17.5       2.7374      -0.2174       
2012-07-31T15:01:26Z    Tianjin_2     46.5537     -177.1818   182.8182    32.369      11.6241      0.2721    20.39       20.3962     -0.0305     17.5       2.7442      -0.232        
2012-07-31T15:04:27Z    Tianjin_2     46.5548     -177.1587   182.8413    32.3648     11.6567      0.283     20.3873     20.3961     -0.0434     17.5       2.7472      -0.3302       
2012-07-31T15:07:29Z    Tianjin_2     46.5558     -177.1355   182.8645    32.3652     11.622       0.2684    20.3851     20.3963     -0.0547     17.5       2.744       -0.4154       
2012-07-31T15:10:30Z    Tianjin_2     46.5568     -177.1115   182.8885    32.3714     11.5433      0.2597    20.3779     20.3966     -0.0914     17.5       2.7006      -0.6848       
2012-07-31T15:13:32Z    Tianjin_2     46.5577     -177.0879   182.9121    32.3759     11.4928      0.2627    20.3796     20.3967     -0.0839     17.5       2.6962      -0.6284       
2012-07-31T15:16:33Z    Tianjin_2     46.5587     -177.0643   182.9357    32.3798     11.5161      0.2647    20.376      20.3966     -0.101      17.5       2.6982      -0.7562       
2012-07-31T15:19:26Z    Tianjin_2     46.5597     -177.0408   182.9592    32.3813     11.5192      0.2667    20.3745     20.3966     -0.1083     17.5       2.6985      -0.811        
2012-07-31T15:22:27Z    Tianjin_2     46.5608     -177.017    182.983     32.3839     11.5156      0.2673    20.3705     20.3966     -0.128      17.5       2.6982      -0.9589       
2012-07-31T15:25:29Z    Tianjin_2     46.5619     -176.9917   183.0083    32.383      11.4806      0.2722    20.3726     20.3968     -0.1185     17.5       2.6951      -0.8869       
2012-07-31T15:28:30Z    Tianjin_2     46.5628     -176.9687   183.0313    32.3831     11.433       0.2727    20.3713     20.397      -0.1259     17.5       2.6909      -0.9421       
2012-07-31T15:31:32Z    Tianjin_2     46.5637     -176.947    183.053     32.3773     11.3613      0.2644    20.3717     20.3972     -0.125      17.5       2.6846      -0.9344       
2012-07-31T15:34:33Z    Tianjin_2     46.5646     -176.9243   183.0757    32.361      11.3175      0.273     20.371      20.3974     -0.1296     17.5       2.6808      -0.9687       
2012-07-31T15:37:26Z    Tianjin_2     46.5655     -176.9012   183.0988    32.3572     11.3458      0.2676    20.3688     20.3973     -0.14       17.5       2.6833      -1.0469       
2012-07-31T15:40:27Z    Tianjin_2     46.5664     -176.8779   183.1221    32.3521     11.3398      0.2772    20.3693     20.3974     -0.1377     17.5       2.6828      -1.0294       
2012-07-31T15:43:29Z    Tianjin_2     46.5673     -176.8543   183.1457    32.3358     11.3005      0.2585    20.366      20.3975     -0.1546     17.5       2.646       -1.141        
2012-07-31T15:46:30Z    Tianjin_2     46.5685     -176.8312   183.1688    32.3316     11.3202      0.2521    20.3633     20.3975     -0.1675     17.5       2.6477      -1.2366       
2012-07-31T15:49:32Z    Tianjin_2     46.5696     -176.808    183.192     32.3404     11.3318      0.2633    20.3618     20.3974     -0.1743     17.5       2.6486      -1.2871       
2012-07-31T15:52:33Z    Tianjin_2     46.5709     -176.7846   183.2154    32.3412     11.2753      0.2517    20.3589     20.3976     -0.1899     17.5       2.6438      -1.4015       
2012-07-31T15:55:26Z    Tianjin_2     46.572      -176.7611   183.2389    32.3284     11.1562      0.2492    20.3581     20.3981     -0.196      17.5       2.6338      -1.4446       
2012-07-31T15:58:27Z    Tianjin_2     46.5734     -176.7366   183.2634    32.3185     11.1444      0.2516    20.3589     20.3981     -0.1924     17.5       2.6328      -1.4178       
2012-07-31T16:01:29Z    Tianjin_2     46.5747     -176.7133   183.2867    32.3114     11.1297      0.2565    20.3613     20.3982     -0.181      17.5       2.6316      -1.334        
2012-07-31T16:04:30Z    Tianjin_2     46.576      -176.691    183.309     32.3064     11.1301      0.2637    20.3624     20.3982     -0.1757     17.5       2.6316      -1.2949       
2012-07-31T16:07:32Z    Tianjin_2     46.5774     -176.6678   183.3322    32.3042     11.1315      0.2646    20.3644     20.3982     -0.1658     17.5       2.6317      -1.2219       
2012-07-31T16:10:33Z    Tianjin_2     46.5787     -176.6448   183.3552    32.3034     11.088       0.2694    20.3633     20.3984     -0.172      17.5       2.6281      -1.2666       
2012-07-31T16:13:26Z    Tianjin_2     46.5801     -176.6211   183.3789    32.3023     11.0623      0.2666    20.3614     20.3985     -0.1817     17.5       2.611       -1.3304       
2012-07-31T16:16:27Z    Tianjin_2     46.5813     -176.5977   183.4023    32.3026     11.0765      0.2683    20.3592     20.3984     -0.1921     17.5       2.6122      -1.4066       
2012-07-31T16:19:29Z    Tianjin_2     46.5826     -176.5742   183.4258    32.3095     11.1116      0.2708    20.3577     20.3983     -0.199      17.5       2.6151      -1.4578       
2012-07-31T16:22:30Z    Tianjin_2     46.584      -176.5507   183.4493    32.3483     11.2856      0.2664    20.3473     20.3976     -0.2466     17.5       2.6294      -1.8093       
2012-07-31T16:25:32Z    Tianjin_2     46.5853     -176.5281   183.4719    32.3652     11.4128      0.2671    20.3337     20.3971     -0.3107     17.5       2.64        -2.2822       
2012-07-31T16:28:33Z    Tianjin_2     46.5866     -176.5046   183.4954    32.3641     11.3522      0.2698    20.3296     20.3973     -0.3319     17.5       2.635       -2.4365       
2012-07-31T16:31:26Z    Tianjin_2     46.588      -176.4808   183.5192    32.3671     11.2975      0.2713    20.3286     20.3975     -0.3375     17.5       2.6304      -2.4762       
2012-07-31T16:34:27Z    Tianjin_2     46.5893     -176.4577   183.5423    32.373      11.3176      0.2751    20.3283     20.3974     -0.339      17.5       2.632       -2.4877       
2012-07-31T16:37:29Z    Tianjin_2     46.5906     -176.4347   183.5653    32.3773     11.342       0.2618    20.3303     20.3973     -0.3285     17.5       2.6341      -2.4105       
2012-07-31T16:40:30Z    Tianjin_2     46.5919     -176.411    183.589     32.3818     11.3327      0.2615    20.3296     20.3973     -0.3323     17.5       2.6333      -2.4385       
2012-07-31T16:43:32Z    Tianjin_2     46.5932     -176.3875   183.6125    32.3864     11.3101      0.251     20.3325     20.3974     -0.3181     17.5       2.6314      -2.3334       
2012-07-31T16:46:33Z    Tianjin_2     46.5946     -176.3634   183.6366    32.3912     11.2839      0.2601    20.3311     20.3975     -0.3253     17.5       2.6416      -2.3972       
2012-07-31T16:49:26Z    Tianjin_2     46.5959     -176.3401   183.6599    32.3946     11.2936      0.2519    20.3296     20.3975     -0.3326     17.5       2.6424      -2.4511       
2012-07-31T16:52:27Z    Tianjin_2     46.5971     -176.3173   183.6827    32.3997     11.3012      0.2578    20.3312     20.3974     -0.3247     17.5       2.643       -2.3928       
2012-07-31T16:55:29Z    Tianjin_2     46.5985     -176.2935   183.7065    32.4039     11.2927      0.2648    20.3299     20.3975     -0.3312     17.5       2.6423      -2.4406       
2012-07-31T16:58:30Z    Tianjin_2     46.5998     -176.2701   183.7299    32.4035     11.2814      0.2563    20.3274     20.3975     -0.3436     17.5       2.6413      -2.5318       
2012-07-31T17:01:32Z    Tianjin_2     46.6012     -176.2462   183.7538    32.398      11.2532      0.2629    20.3313     20.3976     -0.3249     17.5       2.639       -2.3933       
2012-07-31T17:04:33Z    Tianjin_2     46.6025     -176.2227   183.7773    32.3904     11.1852      0.2557    20.3336     20.3979     -0.3151     17.5       2.6334      -2.3197       
2012-07-31T17:07:26Z    Tianjin_2     46.6039     -176.1995   183.8005    32.3825     11.1291      0.25      20.3328     20.3981     -0.3202     17.5       2.6288      -2.3556       
2012-07-31T17:10:27Z    Tianjin_2     46.6053     -176.1756   183.8244    32.3779     11.0732      0.2654    20.3353     20.3983     -0.3092     17.5       2.6241      -2.2738       
2012-07-31T17:13:29Z    Tianjin_2     46.6067     -176.1519   183.8481    32.3709     11.0157      0.2601    20.3332     20.3986     -0.3205     17.5       2.6194      -2.3555       
2012-07-31T17:55:32Z    Tianjin_2     46.6238     -175.8202   184.1798    32.315      10.9436      0.2395    20.38       20.3989     -0.0926     17.5       2.7087      -0.7052       
2012-07-31T17:58:33Z    Tianjin_2     46.6245     -175.7965   184.2035    32.3171     10.9509      0.2434    20.381      20.3989     -0.0879     17.5       2.7093      -0.6697       
2012-07-31T18:01:26Z    Tianjin_2     46.6249     -175.7727   184.2273    32.3193     10.9425      0.2393    20.381      20.3989     -0.0878     17.5       2.7086      -0.6681       
2012-07-31T18:04:27Z    Tianjin_2     46.6253     -175.7488   184.2512    32.3184     10.9125      0.2358    20.3811     20.399      -0.088      17.5       2.7899      -0.6907       
2012-07-31T18:07:29Z    Tianjin_2     46.6256     -175.7243   184.2757    32.3154     10.905       0.2361    20.3822     20.3991     -0.0825     17.5       2.7893      -0.6474       
2012-07-31T18:10:30Z    Tianjin_2     46.6258     -175.7002   184.2998    32.3197     10.8656      0.2291    20.3835     20.3992     -0.0771     17.5       2.7857      -0.6044       
2012-07-31T18:13:32Z    Tianjin_2     46.626      -175.6768   184.3232    32.3198     10.8546      0.2312    20.3862     20.3993     -0.0641     17.5       2.7848      -0.5027       
2012-07-31T18:16:33Z    Tianjin_2     46.6262     -175.6538   184.3462    32.3181     10.8494      0.2337    20.3854     20.3993     -0.068      17.5       2.7843      -0.5335       
2012-07-31T18:19:26Z    Tianjin_2     46.6265     -175.6302   184.3698    32.3182     10.8409      0.2247    20.3861     20.3993     -0.0646     17.5       2.7836      -0.507        
2012-07-31T18:22:27Z    Tianjin_2     46.6267     -175.6064   184.3936    32.3168     10.8333      0.2304    20.3867     20.3993     -0.0619     17.5       2.8489      -0.4969       
2012-07-31T18:25:29Z    Tianjin_2     46.6269     -175.5828   184.4172    32.315      10.8083      0.2297    20.3833     20.3994     -0.0793     17.5       2.8466      -0.6361       
2012-07-31T18:28:30Z    Tianjin_2     46.6269     -175.5585   184.4415    32.3141     10.7936      0.2269    20.3824     20.3995     -0.0838     17.5       2.8453      -0.6726       
2012-07-31T18:31:32Z    Tianjin_2     46.627      -175.5338   184.4662    32.3178     10.7791      0.2296    20.3826     20.3996     -0.0832     17.5       2.8439      -0.6675       
2012-07-31T18:34:33Z    Tianjin_2     46.627      -175.5103   184.4897    32.3268     10.7594      0.2337    20.3764     20.3996     -0.1138     17.5       2.8421      -0.9124       
2012-07-31T18:37:26Z    Tianjin_2     46.6271     -175.4869   184.5131    32.3437     10.7277      0.2282    20.3787     20.3997     -0.1032     17.5       2.8392      -0.8273       
2012-07-31T18:40:27Z    Tianjin_2     46.6272     -175.4633   184.5367    32.3527     10.7432      0.2241    20.3759     20.3996     -0.1164     17.5       2.8406      -0.9329       
2012-07-31T18:43:29Z    Tianjin_2     46.6274     -175.4401   184.5599    32.3551     10.7494      0.2192    20.379      20.3996     -0.101      17.5       2.8411      -0.8095       
2012-07-31T18:46:30Z    Tianjin_2     46.6276     -175.4164   184.5836    32.3602     10.7798      0.2245    20.3795     20.3995     -0.0981     17.5       2.8439      -0.7869       
2012-07-31T18:49:32Z    Tianjin_2     46.6283     -175.3926   184.6074    32.3632     10.8477      0.2313    20.3799     20.3992     -0.0946     17.5       2.85        -0.759        
2012-07-31T18:52:33Z    Tianjin_2     46.6288     -175.369    184.631     32.3643     10.8745      0.2091    20.3826     20.3991     -0.0812     17.5       2.9106      -0.665        
2012-07-31T18:55:26Z    Tianjin_2     46.6294     -175.3457   184.6543    32.3612     10.8411      0.2092    20.3819     20.3993     -0.085      17.5       2.9074      -0.6963       
2012-07-31T18:58:27Z    Tianjin_2     46.6301     -175.3222   184.6778    32.3548     10.7808      0.2204    20.3827     20.3995     -0.0823     17.5       2.9018      -0.6737       
2012-07-31T19:01:29Z    Tianjin_2     46.6308     -175.298    184.702     32.3546     10.7405      0.2       20.3848     20.3996     -0.0726     17.5       2.8981      -0.5941       
2012-07-31T19:04:30Z    Tianjin_2     46.6313     -175.275    184.725     32.354      10.7409      0.1959    20.3853     20.3996     -0.0705     17.5       2.8981      -0.5768       
2012-07-31T19:07:32Z    Tianjin_2     46.6317     -175.2523   184.7477    32.3514     10.7513      0.1688    20.3899     20.3996     -0.0478     17.5       2.8991      -0.3911       
2012-07-31T19:10:33Z    Tianjin_2     46.6322     -175.2285   184.7715    32.3474     10.7811      0.1632    20.3887     20.3995     -0.053      17.5       2.9019      -0.4339       
2012-07-31T19:13:26Z    Tianjin_2     46.6327     -175.2043   184.7957    32.3432     10.8249      0.1615    20.389      20.3993     -0.0505     17.5       2.906       -0.4133       
2012-07-31T19:16:27Z    Tianjin_2     46.6332     -175.1809   184.8191    32.3453     10.8586      0.1616    20.3857     20.3992     -0.066      17.5       2.9091      -0.5405       
2012-07-31T19:19:29Z    Tianjin_2     46.6337     -175.1577   184.8423    32.3439     10.8828      0.1535    20.3877     20.3991     -0.056      17.5       2.9114      -0.4589       
2012-07-31T19:22:30Z    Tianjin_2     46.6343     -175.1336   184.8664    32.3422     10.907       0.1552    20.385      20.399      -0.069      17.5       2.9137      -0.5652       
2012-07-31T19:25:32Z    Tianjin_2     46.6348     -175.1101   184.8899    32.3425     10.9008      0.1647    20.3755     20.399      -0.1156     17.5       2.9503      -0.9593       
2012-07-31T19:28:33Z    Tianjin_2     46.6352     -175.0868   184.9132    32.3408     10.8529      0.1473    20.3699     20.3992     -0.1437     17.5       2.9458      -1.1922       
2012-07-31T19:31:26Z    Tianjin_2     46.6357     -175.0631   184.9369    32.3374     10.7997      0.1554    20.3668     20.3994     -0.1602     17.5       2.9408      -1.3286       
2012-07-31T19:34:27Z    Tianjin_2     46.6361     -175.0393   184.9607    32.33       10.8282      0.1377    20.3672     20.3993     -0.1576     17.5       2.9435      -1.307        
2012-07-31T19:37:29Z    Tianjin_2     46.6368     -175.0156   184.9844    32.3223     10.8165      0.1273    20.3658     20.3994     -0.1645     17.5       2.9424      -1.3645       
2012-07-31T19:40:30Z    Tianjin_2     46.6374     -174.9911   185.0089    32.3228     10.7583      0.1245    20.3675     20.3996     -0.1573     17.5       2.9369      -1.3034       
2012-07-31T19:43:32Z    Tianjin_2     46.6381     -174.9667   185.0333    32.3289     10.7269      0.1315    20.3653     20.3997     -0.1687     17.5       2.9339      -1.3978       
2012-07-31T19:46:33Z    Tianjin_2     46.6388     -174.9441   185.0559    32.3291     10.704       0.1301    20.3666     20.3998     -0.1629     17.5       2.9317      -1.3495       
2012-07-31T19:49:26Z    Tianjin_2     46.6398     -174.9207   185.0793    32.3263     10.6888      0.1233    20.3686     20.3999     -0.1532     17.5       2.9303      -1.2691       
2012-07-31T19:52:27Z    Tianjin_2     46.6408     -174.8959   185.1041    32.3268     10.6702      0.1216    20.3698     20.4        -0.1477     17.5       2.9285      -1.2228       
2012-07-31T19:55:29Z    Tianjin_2     46.6418     -174.8717   185.1283    32.3328     10.6669      0.1183    20.3711     20.4        -0.1413     17.5       2.9504      -1.1791       
2012-07-31T19:58:30Z    Tianjin_2     46.6426     -174.8481   185.1519    32.3504     10.6929      0.1147    20.3722     20.3998     -0.1357     17.5       2.9528      -1.1322       
2012-07-31T20:01:32Z    Tianjin_2     46.6433     -174.8254   185.1746    32.3706     10.7501      0.1191    20.3726     20.3996     -0.1323     17.5       2.9582      -1.1042       
2012-07-31T20:04:33Z    Tianjin_2     46.6441     -174.8028   185.1972    32.3811     10.7903      0.1272    20.3757     20.3994     -0.1161     17.5       2.962       -0.9696       
2012-07-31T20:07:26Z    Tianjin_2     46.645      -174.7789   185.2211    32.3778     10.7846      0.134     20.375      20.3994     -0.12       17.5       2.9615      -1.0023       
2012-07-31T20:10:27Z    Tianjin_2     46.6458     -174.7544   185.2456    32.3703     10.7718      0.1373    20.3773     20.3995     -0.1087     17.5       2.9603      -0.9072       
2012-07-31T20:13:29Z    Tianjin_2     46.6467     -174.7315   185.2685    32.3655     10.7836      0.1303    20.3808     20.3995     -0.0915     17.5       2.9614      -0.764        
2012-07-31T20:55:32Z    Tianjin_2     46.658      -174.4006   185.5994    32.3066     10.9225      0.1266    20.4184     20.399      0.095       17.5       2.9932      0.7994        
2012-07-31T20:58:33Z    Tianjin_2     46.6589     -174.3764   185.6236    32.3086     10.935       0.1144    20.4173     20.399      0.0898      17.5       2.9944      0.7564        
2012-07-31T21:01:26Z    Tianjin_2     46.6596     -174.3525   185.6475    32.3059     10.9469      0.1218    20.4131     20.3989     0.0694      17.5       3.0153      0.5885        
2012-07-31T21:04:27Z    Tianjin_2     46.6601     -174.3286   185.6714    32.2983     10.9671      0.1181    20.4112     20.3989     0.0607      17.5       3.0172      0.5143        
2012-07-31T21:07:29Z    Tianjin_2     46.6608     -174.3044   185.6956    32.2966     10.9813      0.1165    20.3991     20.3988     0.0012      17.5       3.0186      0.0104        
2012-07-31T21:10:30Z    Tianjin_2     46.6614     -174.2803   185.7197    32.2964     10.9995      0.1226    20.3912     20.3987     -0.0367     17.5       3.0204      -0.3115       
2012-07-31T21:13:32Z    Tianjin_2     46.662      -174.2561   185.7439    32.2928     11.0688      0.1182    20.3874     20.3985     -0.0545     17.5       3.0271      -0.4627       
2012-07-31T21:16:33Z    Tianjin_2     46.6626     -174.2326   185.7674    32.2936     11.1296      0.118     20.3854     20.3982     -0.0628     17.5       3.0331      -0.5337       
2012-07-31T21:19:26Z    Tianjin_2     46.6632     -174.2067   185.7933    32.2925     11.1203      0.1163    20.3855     20.3983     -0.0628     17.5       3.0321      -0.5329       
2012-07-31T21:22:27Z    Tianjin_2     46.6636     -174.1828   185.8172    32.2855     11.073       0.1172    20.3829     20.3985     -0.0763     17.5       3.0276      -0.6473       
2012-07-31T21:25:29Z    Tianjin_2     46.6641     -174.1615   185.8385    32.2835     11.0328      0.1142    20.3857     20.3986     -0.0635     17.5       3.0237      -0.5391       
2012-07-31T21:28:30Z    Tianjin_2     46.6647     -174.1373   185.8627    32.2823     10.996       0.1009    20.3843     20.3988     -0.0709     17.5       3.0201      -0.6013       
2012-07-31T21:31:32Z    Tianjin_2     46.6652     -174.1134   185.8866    32.2764     11.0035      0.1079    20.3836     20.3987     -0.0742     17.5       3.0435      -0.6343       
2012-07-31T21:34:33Z    Tianjin_2     46.6656     -174.0898   185.9102    32.274      11.0312      0.1109    20.3815     20.3986     -0.0842     17.5       3.0462      -0.7201       
2012-07-31T21:37:26Z    Tianjin_2     46.6661     -174.0656   185.9344    32.2759     11.0144      0.1164    20.3805     20.3987     -0.0891     17.5       3.0446      -0.762        
2012-07-31T21:40:27Z    Tianjin_2     46.6666     -174.0401   185.9599    32.2766     10.965       0.1268    20.3815     20.3989     -0.0851     17.5       3.0398      -0.7274       
2012-07-31T21:43:29Z    Tianjin_2     46.6669     -174.0156   185.9844    32.2785     10.924       0.1284    20.3844     20.3991     -0.0717     17.5       3.0358      -0.6122       
2012-07-31T21:46:30Z    Tianjin_2     46.6674     -173.9916   186.0084    32.2779     10.9307      0.1346    20.3854     20.399      -0.0669     17.5       3.0364      -0.5712       
2012-07-31T21:49:32Z    Tianjin_2     46.6679     -173.9684   186.0316    32.2796     10.9333      0.1261    20.3859     20.399      -0.0641     17.5       3.0367      -0.5472       
2012-07-31T21:52:33Z    Tianjin_2     46.6683     -173.947    186.053     32.2801     10.9159      0.134     20.3873     20.3991     -0.0577     17.5       3.035       -0.4925       
2012-07-31T21:55:26Z    Tianjin_2     46.6686     -173.9226   186.0774    32.2816     10.9263      0.1312    20.3871     20.399      -0.0586     17.5       3.036       -0.5          
2012-07-31T21:58:27Z    Tianjin_2     46.6688     -173.8983   186.1017    32.2818     10.9424      0.1413    20.3851     20.399      -0.0678     17.5       3.0375      -0.5795       
2012-07-31T22:01:29Z    Tianjin_2     46.6688     -173.8752   186.1248    32.2844     10.9458      0.148     20.3845     20.399      -0.071      17.5       3.0379      -0.6064       
2012-07-31T22:04:30Z    Tianjin_2     46.6688     -173.8518   186.1482    32.2863     10.9645      0.1605    20.3837     20.3989     -0.0744     17.5       3.0602      -0.6401       
2012-07-31T22:07:32Z    Tianjin_2     46.6687     -173.8282   186.1718    32.2832     10.9713      0.1418    20.3845     20.3989     -0.0703     17.5       3.0609      -0.6047       
2012-07-31T22:10:33Z    Tianjin_2     46.6688     -173.8033   186.1967    32.2842     10.9666      0.1285    20.3829     20.3989     -0.0783     17.5       3.0604      -0.6738       
2012-07-31T22:13:26Z    Tianjin_2     46.6688     -173.7792   186.2208    32.29       10.9418      0.1209    20.38       20.399      -0.0931     17.5       3.058       -0.8006       
2012-07-31T22:16:27Z    Tianjin_2     46.6689     -173.7568   186.2432    32.2956     10.9161      0.1125    20.3812     20.3991     -0.0875     17.5       3.0554      -0.7523       
2012-07-31T22:19:29Z    Tianjin_2     46.669      -173.7338   186.2662    32.2943     10.8894      0.1144    20.3805     20.3992     -0.0913     17.5       3.0528      -0.7846       
2012-07-31T22:22:30Z    Tianjin_2     46.669      -173.7106   186.2894    32.2922     10.8549      0.107     20.3835     20.3993     -0.0773     17.5       3.0495      -0.6639       
2012-07-31T22:25:32Z    Tianjin_2     46.669      -173.6866   186.3134    32.2895     10.8228      0.0979    20.3833     20.3994     -0.0791     17.5       3.0463      -0.6791       
2012-07-31T22:28:33Z    Tianjin_2     46.6692     -173.6631   186.3369    32.2892     10.7945      0.084     20.3872     20.3995     -0.0602     17.5       3.0436      -0.5171       
2012-07-31T22:31:26Z    Tianjin_2     46.6693     -173.6402   186.3598    32.2918     10.7648      0.079     20.3865     20.3996     -0.0646     17.5       3.0407      -0.5548       
2012-07-31T22:34:27Z    Tianjin_2     46.6694     -173.6161   186.3839    32.2948     10.7386      0.0831    20.3867     20.3997     -0.0637     17.5       3.0467      -0.548        
2012-07-31T22:37:29Z    Tianjin_2     46.6694     -173.5918   186.4082    32.3028     10.696       0.0786    20.3861     20.3999     -0.0676     17.5       3.0426      -0.5811       
2012-07-31T22:40:30Z    Tianjin_2     46.6694     -173.5688   186.4312    32.3088     10.6544      0.0786    20.3827     20.4        -0.0848     17.5       3.0385      -0.7291       
2012-07-31T22:43:32Z    Tianjin_2     46.6694     -173.546    186.454     32.3022     10.5696      0.0956    20.3814     20.4004     -0.0931     17.5       3.0303      -0.7995       
2012-07-31T22:46:33Z    Tianjin_2     46.6694     -173.5231   186.4769    32.3015     10.5354      0.0855    20.3802     20.4005     -0.0996     17.5       3.027       -0.8553       
2012-07-31T22:49:26Z    Tianjin_2     46.6693     -173.5001   186.4999    32.2973     10.5546      0.0806    20.3826     20.4005     -0.0875     17.5       3.0289      -0.7514       
2012-07-31T22:52:27Z    Tianjin_2     46.6693     -173.4763   186.5237    32.295      10.5651      0.0808    20.3884     20.4004     -0.0587     17.5       3.0299      -0.5042       
2012-07-31T22:55:29Z    Tianjin_2     46.6696     -173.4531   186.5469    32.2955     10.5625      0.0848    20.3971     20.4004     -0.0162     17.5       3.0296      -0.1387       
2012-07-31T22:58:30Z    Tianjin_2     46.6698     -173.4301   186.5699    32.2959     10.578       0.0799    20.3967     20.4004     -0.0178     17.5       3.0311      -0.1531       
2012-07-31T23:01:32Z    Tianjin_2     46.6701     -173.4066   186.5934    32.2963     10.6309      0.0765    20.4013     20.4002     0.0054      17.5       3.0363      0.0467        
2012-07-31T23:04:33Z    Tianjin_2     46.6702     -173.3828   186.6172    32.3043     10.6479      0.0776    20.399      20.4001     -0.0051     17.5       3.0379      -0.0434       
2012-07-31T23:07:26Z    Tianjin_2     46.6705     -173.3575   186.6425    32.3137     10.6174      0.0758    20.3963     20.4002     -0.0189     17.5       3.0315      -0.1625       
2012-07-31T23:10:27Z    Tianjin_2     46.6706     -173.3339   186.6661    32.3161     10.6051      0.0737    20.3869     20.4002     -0.0653     17.5       3.0303      -0.5603       
2012-07-31T23:13:29Z    Tianjin_2     46.6708     -173.3111   186.6889    32.3168     10.6092      0.0671    20.3846     20.4002     -0.0765     17.5       3.0307      -0.6561       
2012-07-31T23:55:32Z    Tianjin_2     46.6878     -172.9817   187.0183    32.2986     10.5099      0.0899    20.4041     20.4006     0.0171      22.5       2.9258      0.1421        
2012-07-31T23:58:33Z    Tianjin_2     46.6938     -172.961    187.039     32.3002     10.5414      0.1012    20.4114     20.4005     0.0535      22.5       2.9286      0.4446        
2012-08-01T00:01:26Z    Tianjin_2     46.6981     -172.9387   187.0613    32.3025     10.608       0.1105    20.413      20.4002     0.0623      17.5       3.2034      0.5654        
2012-08-01T00:04:27Z    Tianjin_2     46.7002     -172.9159   187.0841    32.3033     10.6205      0.1133    20.4202     20.4002     0.0983      17.5       3.2047      0.8915        
2012-08-01T00:07:29Z    Tianjin_2     46.7002     -172.8919   187.1081    32.3042     10.5665      0.1014    20.4243     20.4004     0.1174      17.5       3.199       1.0641        
2012-08-01T00:10:30Z    Tianjin_2     46.7006     -172.8684   187.1316    32.3044     10.5546      0.0967    20.4338     20.4004     0.1634      17.5       3.1687      1.4683        
2012-08-01T00:13:32Z    Tianjin_2     46.7008     -172.8445   187.1555    32.3041     10.576       0.0949    20.4373     20.4004     0.1811      17.5       3.1709      1.6274        
2012-08-01T00:16:33Z    Tianjin_2     46.7006     -172.8208   187.1792    32.3049     10.6261      0.0914    20.4425     20.4002     0.2078      17.5       3.1761      1.8678        
2012-08-01T00:19:26Z    Tianjin_2     46.6977     -172.7966   187.2034    32.3071     10.6879      0.0895    20.4499     20.3999     0.2452      17.5       3.1825      2.2055        
2012-08-01T00:22:27Z    Tianjin_2     46.6914     -172.7753   187.2247    32.3067     10.7019      0.0895    20.4544     20.3999     0.2671      17.5       3.184       2.403         
2012-08-01T00:25:29Z    Tianjin_2     46.6825     -172.7578   187.2422    32.3061     10.7071      0.0998    20.4599     20.3998     0.2943      17.5       3.1845      2.6484        
2012-08-01T00:28:30Z    Tianjin_2     46.67       -172.7435   187.2565    32.3124     10.75        0.1133    20.4645     20.3997     0.3176      17.5       3.189       2.8593        
2012-08-01T00:31:32Z    Tianjin_2     46.6556     -172.7337   187.2663    32.3175     10.7503      0.1119    20.4704     20.3997     0.3465      17.5       3.189       3.1192        
2012-08-01T00:34:33Z    Tianjin_2     46.6412     -172.7305   187.2695    32.3172     10.719       0.1248    20.4696     20.3998     0.3425      17.5       3.1857      3.0816        
2012-08-01T00:37:26Z    Tianjin_2     46.6266     -172.7294   187.2706    32.3183     10.6919      0.1043    20.4709     20.3999     0.348       17.5       3.1829      3.1308        
2012-08-01T00:40:27Z    Tianjin_2     46.6125     -172.7215   187.2785    32.3173     10.6954      0.0934    20.4755     20.3999     0.3707      17.5       3.0543      3.1996        
2012-08-01T00:43:29Z    Tianjin_2     46.6007     -172.7072   187.2928    32.3157     10.7401      0.0942    20.4713     20.3997     0.3509      17.5       3.0586      3.0302        
2012-08-01T00:46:30Z    Tianjin_2     46.5918     -172.689    187.311     32.3147     10.7971      0.0824    20.4639     20.3995     0.3155      17.5       3.0642      2.7264        
2012-08-01T00:49:32Z    Tianjin_2     46.586      -172.6675   187.3325    32.3134     10.8072      0.0821    20.4535     20.3995     0.2651      17.5       3.0652      2.2912        
2012-08-01T00:52:33Z    Tianjin_2     46.5848     -172.6442   187.3558    32.3112     10.8134      0.079     20.4395     20.3994     0.1963      17.5       3.0658      1.6966        
2012-08-01T00:55:26Z    Tianjin_2     46.5862     -172.6209   187.3791    32.3109     10.8121      0.0755    20.4403     20.3994     0.2002      17.5       3.0436      1.7175        
2012-08-01T00:58:27Z    Tianjin_2     46.5875     -172.598    187.402     32.3115     10.8041      0.0792    20.4381     20.3995     0.1894      17.5       3.0428      1.625         
2012-08-01T01:01:29Z    Tianjin_2     46.5889     -172.5747   187.4253    32.3089     10.8746      0.0852    20.4373     20.3992     0.1868      17.5       3.0496      1.6038        
2012-08-01T01:04:30Z    Tianjin_2     46.5902     -172.551    187.449     32.3056     10.9131      0.0838    20.4388     20.3991     0.1947      17.5       3.0533      1.6726        
2012-08-01T01:07:32Z    Tianjin_2     46.5915     -172.5269   187.4731    32.3001     10.8983      0.0863    20.4393     20.3991     0.1969      17.5       3.0519      1.6909        
2012-08-01T01:10:33Z    Tianjin_2     46.5928     -172.5027   187.4973    32.2944     10.8719      0.085     20.4422     20.3992     0.2106      17.5       3.0493      1.8085        
2012-08-01T01:13:26Z    Tianjin_2     46.594      -172.4796   187.5204    32.2901     10.8527      0.0906    20.4389     20.3993     0.1939      17.5       3.0475      1.6647        
2012-08-01T01:16:27Z    Tianjin_2     46.5953     -172.4565   187.5435    32.2849     10.8285      0.0815    20.4261     20.3994     0.1309      17.5       3.0452      1.1235        
2012-08-01T01:19:29Z    Tianjin_2     46.5967     -172.4328   187.5672    32.2803     10.8371      0.0883    20.4245     20.3994     0.1231      17.5       3.0461      1.0564        
2012-08-01T01:22:30Z    Tianjin_2     46.598      -172.4089   187.5911    32.2796     10.8258      0.0891    20.4185     20.3994     0.0932      17.5       3.045       0.8004        
2012-08-01T01:25:32Z    Tianjin_2     46.5995     -172.3845   187.6155    32.2793     10.7892      0.0841    20.4179     20.3996     0.09        17.5       3.0415      0.7722        
2012-08-01T01:28:33Z    Tianjin_2     46.6008     -172.3615   187.6385    32.2781     10.7633      0.0806    20.42       20.3997     0.0998      17.5       3.0179      0.8499        
2012-08-01T01:31:26Z    Tianjin_2     46.6022     -172.3378   187.6622    32.2789     10.7278      0.0795    20.4208     20.3998     0.1031      17.5       3.0145      0.878         
2012-08-01T01:34:27Z    Tianjin_2     46.6035     -172.3142   187.6858    32.28       10.7076      0.078     20.4235     20.3999     0.1156      17.5       3.0126      0.9839        
2012-08-01T01:37:29Z    Tianjin_2     46.6049     -172.2916   187.7084    32.2819     10.6918      0.0834    20.4253     20.3999     0.1242      17.5       3.0111      1.0573        
2012-08-01T01:40:30Z    Tianjin_2     46.6064     -172.2679   187.7321    32.284      10.6752      0.0832    20.4251     20.4        0.1231      17.5       3.0095      1.0473        
2012-08-01T01:43:32Z    Tianjin_2     46.6079     -172.2448   187.7552    32.2835     10.6624      0.082     20.4246     20.4001     0.1204      17.5       3.0083      1.0244        
2012-08-01T01:46:33Z    Tianjin_2     46.6094     -172.2215   187.7785    32.2786     10.6821      0.0874    20.4245     20.4        0.12        17.5       3.0102      1.0217        
2012-08-01T01:49:26Z    Tianjin_2     46.6112     -172.1976   187.8024    32.2744     10.6842      0.0873    20.4253     20.4        0.1242      17.5       3.0104      1.0575        
2012-08-01T01:52:27Z    Tianjin_2     46.6129     -172.1738   187.8262    32.2734     10.6736      0.0908    20.4276     20.4        0.1351      17.5       3.0094      1.1499        
2012-08-01T01:55:29Z    Tianjin_2     46.6147     -172.1507   187.8493    32.2719     10.7259      0.0932    20.4308     20.3998     0.1519      17.5       3.0143      1.2935        
2012-08-01T01:58:30Z    Tianjin_2     46.6165     -172.1274   187.8726    32.2724     10.8243      0.097     20.4336     20.3994     0.1673      17.5       3.0237      1.4257        
2012-08-01T02:01:32Z    Tianjin_2     46.6181     -172.1039   187.8961    32.2736     10.8686      0.0991    20.4331     20.3993     0.1657      17.5       3.0033      1.4012        
2012-08-01T02:04:33Z    Tianjin_2     46.6198     -172.0785   187.9215    32.275      10.8856      0.1174    20.4323     20.3992     0.1622      17.5       3.0049      1.3725        
2012-08-01T02:07:26Z    Tianjin_2     46.6215     -172.0548   187.9452    32.2771     10.9119      0.1264    20.4281     20.3991     0.1421      17.5       3.0074      1.2022        
2012-08-01T02:10:27Z    Tianjin_2     46.6229     -172.0336   187.9664    32.2792     10.9477      0.1279    20.4261     20.399      0.1331      17.5       3.0107      1.127         
2012-08-01T02:13:29Z    Tianjin_2     46.6244     -172.0097   187.9903    32.2801     10.9659      0.1226    20.4279     20.3989     0.1423      17.5       3.0125      1.2046        
2012-08-01T02:55:32Z    Tianjin_2     46.6439     -171.6842   188.3158    32.2657     11.1749      0.1282    20.4576     20.3981     0.2915      17.5       3.1256      2.5497        
2012-08-01T02:58:33Z    Tianjin_2     46.6454     -171.6603   188.3397    32.2555     11.1153      0.1339    20.4607     20.3984     0.3057      17.5       3.1197      2.6721        
2012-08-01T03:01:26Z    Tianjin_2     46.6469     -171.6372   188.3628    32.2495     11.067       0.1379    20.4623     20.3985     0.3128      17.5       3.1149      2.7326        
2012-08-01T03:04:27Z    Tianjin_2     46.6486     -171.6113   188.3887    32.2402     11.1155      0.1376    20.4609     20.3984     0.3063      17.5       3.0791      2.6427        
2012-08-01T03:07:29Z    Tianjin_2     46.6502     -171.588    188.412     32.2311     11.1488      0.1292    20.4605     20.3983     0.3051      17.5       3.0824      2.6333        
2012-08-01T03:10:30Z    Tianjin_2     46.6516     -171.5681   188.4319    32.2286     11.1177      0.1265    20.4594     20.3984     0.2992      17.5       3.0794      2.5818        
2012-08-01T03:13:32Z    Tianjin_2     46.6532     -171.5452   188.4548    32.2274     11.0847      0.1318    20.4583     20.3985     0.293       17.5       3.0761      2.5274        
2012-08-01T03:16:33Z    Tianjin_2     46.6548     -171.5223   188.4777    32.2265     11.0818      0.1242    20.4543     20.3985     0.2737      17.5       3.0758      2.3605        
2012-08-01T03:19:26Z    Tianjin_2     46.6564     -171.4985   188.5015    32.2266     11.0585      0.1272    20.4503     20.3986     0.2536      17.5       3.0735      2.1866        
2012-08-01T03:22:27Z    Tianjin_2     46.6579     -171.4747   188.5253    32.2266     11.0673      0.1304    20.4491     20.3986     0.2476      17.5       3.0744      2.1355        
2012-08-01T03:25:29Z    Tianjin_2     46.6595     -171.4517   188.5483    32.2262     11.1151      0.1369    20.4466     20.3984     0.2366      17.5       3.0791      2.0412        
2012-08-01T03:28:30Z    Tianjin_2     46.661      -171.428    188.572     32.2279     11.0982      0.1386    20.4422     20.3985     0.2145      17.5       3.0774      1.8503        
2012-08-01T03:31:32Z    Tianjin_2     46.6626     -171.4045   188.5955    32.2326     11.0307      0.1463    20.4374     20.3987     0.1899      17.5       3.0707      1.6369        
2012-08-01T03:34:33Z    Tianjin_2     46.664      -171.3809   188.6191    32.2367     10.9731      0.1492    20.4343     20.3989     0.1733      17.5       3.065       1.493         
2012-08-01T03:37:26Z    Tianjin_2     46.6654     -171.3572   188.6428    32.2395     10.9458      0.1509    20.4226     20.399      0.1158      17.5       3.0131      0.981         
2012-08-01T03:40:27Z    Tianjin_2     46.6669     -171.3346   188.6654    32.2457     10.9596      0.1669    20.414      20.399      0.0737      17.5       3.0144      0.6247        
2012-08-01T03:43:29Z    Tianjin_2     46.6683     -171.3117   188.6883    32.2484     10.964       0.1767    20.4045     20.3989     0.0273      17.5       3.0148      0.2317        
2012-08-01T03:46:30Z    Tianjin_2     46.6697     -171.2888   188.7112    32.2512     10.9502      0.182     20.4033     20.399      0.0209      17.5       3.0135      0.1771        
2012-08-01T03:49:32Z    Tianjin_2     46.6713     -171.2658   188.7342    32.2527     10.9509      0.1833    20.4027     20.399      0.0183      17.5       3.0136      0.1554        
2012-08-01T03:52:33Z    Tianjin_2     46.6727     -171.2415   188.7585    32.251      10.9807      0.1745    20.4038     20.3989     0.024       17.5       3.0165      0.2033        
2012-08-01T03:55:26Z    Tianjin_2     46.674      -171.2181   188.7819    32.2471     11.032       0.1701    20.4103     20.3987     0.0571      17.5       3.0215      0.4845        
2012-08-01T03:58:27Z    Tianjin_2     46.6739     -171.1961   188.8039    32.2449     11.051       0.1645    20.4082     20.3986     0.0468      17.5       3.0233      0.3974        
2012-08-01T04:01:29Z    Tianjin_2     46.6739     -171.1712   188.8288    32.2445     11.0576      0.1768    20.4074     20.3986     0.0433      17.5       3.024       0.3673        
2012-08-01T04:04:30Z    Tianjin_2     46.6739     -171.1477   188.8523    32.2447     11.0503      0.1851    20.4059     20.3986     0.0359      17.5       3.0232      0.3046        
2012-08-01T04:07:32Z    Tianjin_2     46.6738     -171.1257   188.8743    32.2457     11.0374      0.183     20.4056     20.3987     0.0338      17.5       3.022       0.2866        
2012-08-01T04:10:33Z    Tianjin_2     46.6738     -171.1012   188.8988    32.2465     11.015       0.1904    20.4048     20.3987     0.0295      17.5       2.969       0.2457        
2012-08-01T04:13:26Z    Tianjin_2     46.6738     -171.0782   188.9218    32.2473     10.9964      0.1992    20.4043     20.3988     0.027       17.5       2.9672      0.2248        
2012-08-01T04:16:27Z    Tianjin_2     46.6738     -171.056    188.944     32.2499     10.9965      0.2045    20.4077     20.3988     0.0434      17.5       2.9672      0.3619        
2012-08-01T04:19:29Z    Tianjin_2     46.6737     -171.033    188.967     32.252      11.0129      0.2014    20.41       20.3987     0.0552      17.5       2.9687      0.4603        
2012-08-01T04:22:30Z    Tianjin_2     46.6737     -171.0094   188.9906    32.2517     11.0309      0.2067    20.4069     20.3987     0.0405      17.5       2.9705      0.3379        
2012-08-01T04:25:32Z    Tianjin_2     46.6735     -170.9862   189.0138    32.2493     11.0275      0.1975    20.4062     20.3987     0.0367      17.5       2.9702      0.3059        
2012-08-01T04:28:33Z    Tianjin_2     46.6735     -170.963    189.037     32.2452     11.0557      0.205     20.4081     20.3986     0.0468      17.5       2.9729      0.3903        
2012-08-01T04:31:26Z    Tianjin_2     46.6736     -170.9393   189.0607    32.24       11.1035      0.2097    20.4051     20.3984     0.0329      17.5       2.9775      0.275         
2012-08-01T04:34:27Z    Tianjin_2     46.6736     -170.9168   189.0832    32.2373     11.1256      0.1954    20.4066     20.3983     0.0405      17.5       2.9796      0.3383        
2012-08-01T04:37:29Z    Tianjin_2     46.6737     -170.8941   189.1059    32.236      11.1282      0.2039    20.4077     20.3983     0.0457      17.5       2.9798      0.3816        
2012-08-01T04:40:30Z    Tianjin_2     46.6738     -170.8702   189.1298    32.2323     11.1136      0.2054    20.4063     20.3984     0.0388      17.5       2.9329      0.3188        
2012-08-01T04:43:32Z    Tianjin_2     46.6739     -170.8465   189.1535    32.2267     11.0952      0.2104    20.407      20.3985     0.042       17.5       2.9312      0.345         
2012-08-01T04:46:33Z    Tianjin_2     46.6741     -170.8239   189.1761    32.2233     11.0685      0.2092    20.4067     20.3986     0.0399      17.5       2.9287      0.3282        
2012-08-01T04:49:26Z    Tianjin_2     46.6742     -170.7977   189.2023    32.2202     11.0955      0.208     20.4096     20.3985     0.0546      17.5       2.9312      0.4486        
2012-08-01T04:52:27Z    Tianjin_2     46.6742     -170.7738   189.2262    32.2199     11.1569      0.214     20.4107     20.3982     0.0612      17.5       2.937       0.5037        
2012-08-01T04:55:29Z    Tianjin_2     46.6743     -170.7535   189.2465    32.2179     11.1833      0.2071    20.4125     20.3981     0.0702      17.5       2.9395      0.5778        
2012-08-01T04:58:30Z    Tianjin_2     46.6744     -170.7304   189.2696    32.2162     11.2182      0.2137    20.4146     20.398      0.0812      17.5       2.9428      0.6682        
2012-08-01T05:01:32Z    Tianjin_2     46.6745     -170.7063   189.2937    32.216      11.2392      0.2182    20.4152     20.3979     0.0845      17.5       2.9448      0.6957        
2012-08-01T05:04:33Z    Tianjin_2     46.6746     -170.6831   189.3169    32.2121     11.2796      0.2212    20.4185     20.3978     0.1014      17.5       2.9486      0.8352        
2012-08-01T05:07:26Z    Tianjin_2     46.6747     -170.6603   189.3397    32.2056     11.3259      0.222     20.4178     20.3976     0.0989      17.5       2.953       0.8147        
2012-08-01T05:10:27Z    Tianjin_2     46.675      -170.636    189.364     32.2003     11.3421      0.2183    20.4185     20.3976     0.1028      17.5       2.9546      0.8469        
2012-08-01T05:13:29Z    Tianjin_2     46.6752     -170.6129   189.3871    32.1971     11.3512      0.219     20.4143     20.3975     0.0821      17.5       2.9213      0.6689        
2012-08-01T05:55:32Z    Tianjin_2     46.6764     -170.2851   189.7149    32.202      11.1509      0.2373    20.4449     20.3983     0.2287      17.5       2.8801      1.8449        
2012-08-01T05:58:33Z    Tianjin_2     46.6764     -170.2616   189.7384    32.2043     11.1438      0.2412    20.4466     20.3983     0.2365      17.5       2.8794      1.9072        
2012-08-01T06:01:26Z    Tianjin_2     46.6765     -170.2381   189.7619    32.2052     11.1472      0.2324    20.4465     20.3983     0.2364      17.5       2.8797      1.9066        
2012-08-01T06:04:27Z    Tianjin_2     46.6765     -170.2144   189.7856    32.2043     11.1758      0.2348    20.4459     20.3982     0.2338      17.5       2.8824      1.8864        
2012-08-01T06:07:29Z    Tianjin_2     46.6764     -170.1908   189.8092    32.2028     11.1786      0.2469    20.4476     20.3982     0.2424      17.5       2.8826      1.9558        
2012-08-01T06:10:30Z    Tianjin_2     46.6764     -170.1666   189.8334    32.2008     11.1766      0.238     20.4469     20.3982     0.2387      17.5       2.8824      1.9256        
2012-08-01T06:13:32Z    Tianjin_2     46.6763     -170.1435   189.8565    32.1998     11.1783      0.2537    20.4465     20.3982     0.2368      17.5       2.8826      1.9104        
2012-08-01T06:16:33Z    Tianjin_2     46.6763     -170.1207   189.8793    32.197      11.1746      0.2465    20.4456     20.3982     0.2325      17.5       2.8676      1.8664        
2012-08-01T06:19:26Z    Tianjin_2     46.6763     -170.0971   189.9029    32.1926     11.211       0.2485    20.4468     20.3981     0.239       17.5       2.8709      1.9195        
2012-08-01T06:22:27Z    Tianjin_2     46.6762     -170.0739   189.9261    32.191      11.2609      0.2551    20.4444     20.3979     0.2278      17.5       2.8754      1.8303        
2012-08-01T06:25:29Z    Tianjin_2     46.6761     -170.0505   189.9495    32.1908     11.2799      0.2646    20.4477     20.3978     0.2445      17.5       2.8772      1.9646        
2012-08-01T06:28:30Z    Tianjin_2     46.6755     -170.0259   189.9741    32.1893     11.3057      0.2637    20.4471     20.3977     0.2422      17.5       2.8795      1.9468        
2012-08-01T06:31:32Z    Tianjin_2     46.6748     -170.0025   189.9975    32.1834     11.3724      0.2709    20.4497     20.3975     0.2559      17.5       2.8856      2.0582        
2012-08-01T06:34:33Z    Tianjin_2     46.6741     -169.9797   190.0203    32.1772     11.4353      0.2785    20.4509     20.3972     0.2629      17.5       2.8914      2.1163        
2012-08-01T06:37:26Z    Tianjin_2     46.6734     -169.955    190.045     32.1763     11.4555      0.2837    20.4538     20.3972     0.2775      17.5       2.8932      2.2345        
2012-08-01T06:40:27Z    Tianjin_2     46.6728     -169.931    190.069     32.1762     11.4778      0.2944    20.4568     20.3971     0.2926      17.5       2.8953      2.3566        
2012-08-01T06:43:29Z    Tianjin_2     46.6722     -169.9072   190.0928    32.1762     11.4737      0.2918    20.4574     20.3971     0.2959      17.5       2.8949      2.3828        
2012-08-01T06:46:30Z    Tianjin_2     46.6717     -169.8828   190.1172    32.1771     11.4619      0.2816    20.4586     20.3971     0.3012      17.5       2.8938      2.4253        
2012-08-01T06:49:32Z    Tianjin_2     46.6712     -169.8602   190.1398    32.1843     11.4867      0.3035    20.4607     20.397      0.3122      17.5       2.8807      2.5009        
2012-08-01T06:52:33Z    Tianjin_2     46.6707     -169.8377   190.1623    32.1798     11.4896      0.3019    20.4574     20.397      0.2959      17.5       2.881       2.3704        
2012-08-01T06:55:26Z    Tianjin_2     46.6703     -169.8142   190.1858    32.181      11.5201      0.3063    20.4528     20.3969     0.2741      17.5       2.8837      2.1967        
2012-08-01T06:58:27Z    Tianjin_2     46.6699     -169.7905   190.2095    32.1841     11.5359      0.3088    20.4559     20.3969     0.2894      17.5       2.8852      2.3193        
2012-08-01T07:01:29Z    Tianjin_2     46.6695     -169.7663   190.2337    32.1847     11.5365      0.3041    20.4526     20.3968     0.2731      17.5       2.8852      2.1892        
2012-08-01T07:04:30Z    Tianjin_2     46.6691     -169.7429   190.2571    32.1863     11.5145      0.2988    20.4494     20.3969     0.2571      17.5       2.8832      2.0602        
2012-08-01T07:07:32Z    Tianjin_2     46.6687     -169.7197   190.2803    32.1868     11.4572      0.2997    20.4503     20.3971     0.2607      17.5       2.878       2.0881        
2012-08-01T07:10:33Z    Tianjin_2     46.6684     -169.6962   190.3038    32.1872     11.4087      0.2969    20.4493     20.3973     0.255       17.5       2.8737      2.0411        
2012-08-01T07:13:26Z    Tianjin_2     46.668      -169.6727   190.3273    32.1869     11.4005      0.2854    20.4488     20.3974     0.2522      17.5       2.8729      2.0189        
2012-08-01T07:16:27Z    Tianjin_2     46.6677     -169.6493   190.3507    32.184      11.3706      0.2921    20.4487     20.3975     0.251       17.5       2.8702      2.0088        
2012-08-01T07:19:29Z    Tianjin_2     46.6673     -169.6259   190.3741    32.1796     11.3581      0.2955    20.4443     20.3975     0.2291      17.5       2.8691      1.8332        
2012-08-01T07:22:30Z    Tianjin_2     46.667      -169.6025   190.3975    32.1724     11.3693      0.2992    20.4313     20.3975     0.1657      17.5       2.8452      1.3143        
2012-08-01T07:25:32Z    Tianjin_2     46.6666     -169.5792   190.4208    32.1674     11.3561      0.3017    20.4245     20.3976     0.1323      17.5       2.844       1.0496        
2012-08-01T07:28:33Z    Tianjin_2     46.6661     -169.5558   190.4442    32.1652     11.3345      0.2957    20.4212     20.3976     0.1155      17.5       2.8421      0.916         
2012-08-01T07:31:26Z    Tianjin_2     46.6653     -169.532    190.468     32.1638     11.301       0.3002    20.418      20.3978     0.0993      17.5       2.8392      0.7872        
2012-08-01T07:34:27Z    Tianjin_2     46.6646     -169.5081   190.4919    32.1604     11.261       0.2996    20.4158     20.3979     0.0878      17.5       2.8356      0.6958        
2012-08-01T07:37:29Z    Tianjin_2     46.6639     -169.4842   190.5158    32.157      11.2755      0.2912    20.4178     20.3979     0.0976      17.5       2.8369      0.7733        
2012-08-01T07:40:30Z    Tianjin_2     46.6633     -169.461    190.539     32.1543     11.3173      0.3013    20.4176     20.3977     0.0975      17.5       2.8406      0.7734        
2012-08-01T07:43:32Z    Tianjin_2     46.6625     -169.437    190.563     32.1496     11.338       0.2993    20.4176     20.3977     0.098       17.5       2.8425      0.7775        
2012-08-01T07:46:33Z    Tianjin_2     46.6617     -169.4129   190.5871    32.1475     11.3114      0.3113    20.4207     20.3978     0.1124      17.5       2.8401      0.8913        
2012-08-01T07:49:26Z    Tianjin_2     46.661      -169.3904   190.6096    32.1447     11.2766      0.3062    20.4196     20.3979     0.1066      17.5       2.8371      0.8451        
2012-08-01T07:52:27Z    Tianjin_2     46.6604     -169.3678   190.6322    32.1453     11.2409      0.3035    20.4223     20.398      0.1191      17.5       2.8001      0.9323        
2012-08-01T07:55:29Z    Tianjin_2     46.6597     -169.344    190.656     32.1437     11.2472      0.3147    20.4251     20.398      0.1327      17.5       2.8006      1.039         
2012-08-01T07:58:30Z    Tianjin_2     46.6591     -169.3204   190.6796    32.1391     11.3535      0.3124    20.427      20.3976     0.144       17.5       2.8098      1.1288        
2012-08-01T08:01:32Z    Tianjin_2     46.6585     -169.2958   190.7042    32.1356     11.428       0.3136    20.4268     20.3973     0.1446      17.5       2.8163      1.1345        
2012-08-01T08:04:33Z    Tianjin_2     46.6579     -169.272    190.728     32.136      11.4162      0.3089    20.4249     20.3974     0.1351      17.5       2.8153      1.06          
2012-08-01T08:07:26Z    Tianjin_2     46.6572     -169.2489   190.7511    32.1364     11.3764      0.3067    20.4236     20.3975     0.1279      17.5       2.8118      1.0025        
2012-08-01T08:10:27Z    Tianjin_2     46.6565     -169.2254   190.7746    32.1371     11.3636      0.3054    20.4238     20.3976     0.1287      17.5       2.8107      1.0086        
2012-08-01T08:13:29Z    Tianjin_2     46.6558     -169.2015   190.7985    32.1381     11.3335      0.3226    20.4202     20.3977     0.1101      17.5       2.8081      0.863         
2012-08-01T08:55:32Z    Tianjin_2     46.6463     -168.8726   191.1274    32.1501     11.479       0.2688    20.4157     20.3971     0.0911      17.5       2.7349      0.6932        
2012-08-01T08:58:33Z    Tianjin_2     46.6458     -168.8487   191.1513    32.1512     11.4858      0.2613    20.4169     20.3971     0.0973      17.5       2.7354      0.7405        
2012-08-01T09:01:26Z    Tianjin_2     46.6454     -168.8246   191.1754    32.1552     11.4722      0.265     20.416      20.3971     0.0923      17.5       2.7343      0.7024        
2012-08-01T09:04:27Z    Tianjin_2     46.6449     -168.8017   191.1983    32.1624     11.4522      0.2695    20.4139     20.3972     0.082       17.5       2.7326      0.6235        
2012-08-01T09:07:29Z    Tianjin_2     46.6444     -168.7782   191.2218    32.1687     11.4676      0.2607    20.4143     20.3971     0.0843      17.5       2.7339      0.6416        
2012-08-01T09:10:30Z    Tianjin_2     46.644      -168.7531   191.2469    32.1717     11.5214      0.2649    20.4138     20.3969     0.0829      17.5       2.7383      0.6305        
2012-08-01T09:13:32Z    Tianjin_2     46.6436     -168.7285   191.2715    32.1755     11.5445      0.264     20.4128     20.3968     0.0785      17.5       2.7402      0.5976        
2012-08-01T09:16:33Z    Tianjin_2     46.6431     -168.7054   191.2946    32.179      11.5421      0.263     20.4118     20.3968     0.0733      17.5       2.74        0.5583        
2012-08-01T09:19:26Z    Tianjin_2     46.6428     -168.6814   191.3186    32.1839     11.5267      0.2794    20.409      20.3969     0.0596      17.5       2.7387      0.4534        
2012-08-01T09:22:27Z    Tianjin_2     46.6423     -168.6582   191.3418    32.1861     11.5454      0.2885    20.4063     20.3968     0.0467      17.5       2.7403      0.3556        
2012-08-01T09:25:29Z    Tianjin_2     46.6419     -168.6353   191.3647    32.193      11.539       0.3007    20.4085     20.3968     0.0571      17.5       2.7397      0.4346        
2012-08-01T09:28:30Z    Tianjin_2     46.6415     -168.6107   191.3893    32.2025     11.5221      0.2856    20.4066     20.3969     0.0476      17.5       2.707       0.3579        
2012-08-01T09:31:32Z    Tianjin_2     46.6409     -168.5867   191.4133    32.2079     11.5305      0.2944    20.4063     20.3968     0.0464      17.5       2.7077      0.349         
2012-08-01T09:34:33Z    Tianjin_2     46.6403     -168.5623   191.4377    32.216      11.5714      0.3006    20.4052     20.3967     0.042       17.5       2.711       0.3157        
2012-08-01T09:37:26Z    Tianjin_2     46.6397     -168.5387   191.4613    32.2234     11.6438      0.3081    20.4083     20.3964     0.0582      17.5       2.7168      0.4382        
2012-08-01T09:40:27Z    Tianjin_2     46.639      -168.5162   191.4838    32.2232     11.6425      0.2916    20.4096     20.3964     0.0648      17.5       2.7167      0.488         
2012-08-01T09:43:29Z    Tianjin_2     46.6385     -168.4909   191.5091    32.2272     11.6748      0.2895    20.4129     20.3963     0.0818      17.5       2.7193      0.6159        
2012-08-01T09:46:30Z    Tianjin_2     46.6379     -168.4673   191.5327    32.2362     11.7265      0.3129    20.4092     20.3961     0.0644      17.5       2.7235      0.4851        
2012-08-01T09:49:32Z    Tianjin_2     46.6373     -168.445    191.555     32.2404     11.713       0.3233    20.4112     20.3961     0.0741      17.5       2.7224      0.5578        
2012-08-01T09:52:33Z    Tianjin_2     46.6366     -168.4211   191.5789    32.2494     11.7145      0.3135    20.409      20.3961     0.0633      17.5       2.7225      0.4768        
2012-08-01T09:55:26Z    Tianjin_2     46.636      -168.3974   191.6026    32.2587     11.7289      0.299     20.4136     20.396      0.0862      17.5       2.7236      0.6491        
2012-08-01T09:58:27Z    Tianjin_2     46.6352     -168.3735   191.6265    32.2639     11.7211      0.3128    20.4137     20.396      0.0864      17.5       2.7054      0.6469        
2012-08-01T10:01:29Z    Tianjin_2     46.6344     -168.3493   191.6507    32.266      11.7231      0.3135    20.415      20.396      0.0932      17.5       2.7056      0.6971        
2012-08-01T10:04:30Z    Tianjin_2     46.6336     -168.3249   191.6751    32.267      11.7184      0.3094    20.4108     20.396      0.0722      17.5       2.7052      0.5401        
2012-08-01T10:07:32Z    Tianjin_2     46.6327     -168.3016   191.6984    32.2667     11.701       0.3128    20.4103     20.3961     0.0697      17.5       2.7038      0.5218        
2012-08-01T10:10:33Z    Tianjin_2     46.6319     -168.2789   191.7211    32.2661     11.7247      0.3275    20.4105     20.396      0.0711      17.5       2.7057      0.5319        
2012-08-01T10:13:26Z    Tianjin_2     46.6311     -168.2555   191.7445    32.2659     11.7442      0.3417    20.4075     20.3959     0.0566      17.5       2.7072      0.4235        
2012-08-01T10:16:27Z    Tianjin_2     46.6303     -168.2319   191.7681    32.2664     11.7294      0.3333    20.4095     20.396      0.0663      17.5       2.7061      0.496         
2012-08-01T10:19:29Z    Tianjin_2     46.6295     -168.2082   191.7918    32.2658     11.7145      0.3287    20.4102     20.3961     0.0691      17.5       2.7049      0.5173        
2012-08-01T10:22:30Z    Tianjin_2     46.6286     -168.1846   191.8154    32.2637     11.6998      0.332     20.4098     20.3961     0.067       17.5       2.7037      0.5012        
2012-08-01T10:25:32Z    Tianjin_2     46.6278     -168.16     191.84      32.2619     11.6678      0.3372    20.409      20.3962     0.0627      17.5       2.7012      0.469         
2012-08-01T10:28:33Z    Tianjin_2     46.6269     -168.1361   191.8639    32.2608     11.6242      0.3378    20.4124     20.3964     0.0785      17.5       2.6977      0.5867        
2012-08-01T10:31:26Z    Tianjin_2     46.6261     -168.1133   191.8867    32.259      11.6028      0.3407    20.4124     20.3965     0.078       17.5       2.6851      0.5809        
2012-08-01T10:34:27Z    Tianjin_2     46.6253     -168.0891   191.9109    32.2565     11.5709      0.3367    20.4125     20.3966     0.0781      17.5       2.6826      0.5815        
2012-08-01T10:37:29Z    Tianjin_2     46.6245     -168.0657   191.9343    32.2553     11.5415      0.3348    20.4111     20.3967     0.0704      17.5       2.588       0.5057        
2012-08-01T10:40:30Z    Tianjin_2     46.6238     -168.0434   191.9566    32.2559     11.5098      0.3257    20.4127     20.3968     0.0777      17.5       2.5857      0.5584        
2012-08-01T10:43:32Z    Tianjin_2     46.6229     -168.0195   191.9805    32.2566     11.592       0.3201    20.4123     20.3965     0.0774      17.5       2.5916      0.5563        
2012-08-01T10:46:33Z    Tianjin_2     46.6221     -167.996    192.004     32.257      11.6626      0.3182    20.4098     20.3963     0.0664      17.5       2.5967      0.4775        
2012-08-01T10:49:26Z    Tianjin_2     46.6213     -167.9726   192.0274    32.2549     11.6699      0.3165    20.4066     20.3962     0.0507      17.5       2.5973      0.3648        
2012-08-01T10:52:27Z    Tianjin_2     46.6205     -167.949    192.051     32.2473     11.5916      0.3213    20.404      20.3966     0.0366      17.5       2.5916      0.2631        
2012-08-01T10:55:29Z    Tianjin_2     46.6197     -167.9253   192.0747    32.2429     11.5378      0.3158    20.3868     20.3968     -0.0487     17.5       2.5878      -0.3502       
2012-08-01T10:58:30Z    Tianjin_2     46.6189     -167.9023   192.0977    32.2404     11.5049      0.3307    20.3711     20.3969     -0.1266     17.5       2.5854      -0.9093       
2012-08-01T11:01:32Z    Tianjin_2     46.6181     -167.8802   192.1198    32.2397     11.4888      0.312     20.3673     20.397      -0.1452     17.5       2.5842      -1.0434       
2012-08-01T11:04:33Z    Tianjin_2     46.6171     -167.8564   192.1436    32.2404     11.433       0.3093    20.3641     20.3972     -0.162      17.5       2.5733      -1.1606       
2012-08-01T11:07:26Z    Tianjin_2     46.6162     -167.8318   192.1682    32.2427     11.3851      0.3162    20.3636     20.3973     -0.1652     17.5       2.5699      -1.1828       
2012-08-01T11:10:27Z    Tianjin_2     46.6152     -167.8089   192.1911    32.2433     11.3889      0.3037    20.3665     20.3973     -0.1511     17.5       2.5702      -1.0821       
2012-08-01T11:13:29Z    Tianjin_2     46.6143     -167.7863   192.2137    32.2418     11.4003      0.3244    20.3685     20.3973     -0.1412     17.5       2.571       -1.011        
2012-08-01T11:55:32Z    Tianjin_2     46.6017     -167.456    192.544     32.155      11.022       0.2241    20.3873     20.3989     -0.0566     17.5       2.5319      -0.4027       
2012-08-01T11:58:33Z    Tianjin_2     46.6009     -167.4328   192.5672    32.1585     11.0937      0.2124    20.3854     20.3986     -0.0646     17.5       2.5368      -0.4594       
2012-08-01T12:01:26Z    Tianjin_2     46.6001     -167.41     192.59      32.1538     11.1437      0.2132    20.3797     20.3984     -0.0914     17.5       2.5403      -0.6507       
2012-08-01T12:04:27Z    Tianjin_2     46.5993     -167.3862   192.6138    32.1515     11.1665      0.2262    20.3773     20.3983     -0.1032     17.5       2.5419      -0.7347       
2012-08-01T12:07:29Z    Tianjin_2     46.5984     -167.3619   192.6381    32.157      11.1672      0.2269    20.375      20.3983     -0.1141     17.5       2.5268      -0.8071       
2012-08-01T12:10:30Z    Tianjin_2     46.5976     -167.3387   192.6613    32.1641     11.1766      0.2359    20.3684     20.3982     -0.1466     17.5       2.5274      -1.0372       
2012-08-01T12:13:32Z    Tianjin_2     46.5967     -167.3156   192.6844    32.1655     11.1721      0.2388    20.3688     20.3983     -0.1445     17.5       2.5271      -1.0221       
2012-08-01T12:16:33Z    Tianjin_2     46.5959     -167.2921   192.7079    32.1629     11.1394      0.2434    20.3664     20.3984     -0.1568     17.5       2.5249      -1.1093       
2012-08-01T12:19:26Z    Tianjin_2     46.595      -167.2689   192.7311    32.1608     11.1294      0.2325    20.3673     20.3984     -0.1527     17.5       2.5242      -1.0799       
2012-08-01T12:22:27Z    Tianjin_2     46.5941     -167.2449   192.7551    32.1581     11.1279      0.2293    20.3701     20.3984     -0.139      17.5       2.5241      -0.9836       
2012-08-01T12:25:29Z    Tianjin_2     46.5931     -167.2212   192.7788    32.1551     11.1543      0.2292    20.3704     20.3983     -0.137      17.5       2.5259      -0.9692       
2012-08-01T12:28:30Z    Tianjin_2     46.5921     -167.198    192.802     32.1504     11.2268      0.2264    20.3681     20.3981     -0.1472     17.5       2.5309      -1.0418       
2012-08-01T12:31:32Z    Tianjin_2     46.591      -167.1749   192.8251    32.1451     11.2001      0.2339    20.3666     20.3982     -0.1551     17.5       2.5291      -1.0975       
2012-08-01T12:34:33Z    Tianjin_2     46.59       -167.1506   192.8494    32.1419     11.086       0.2349    20.362      20.3986     -0.1797     17.5       2.5213      -1.271        
2012-08-01T12:37:26Z    Tianjin_2     46.5888     -167.1273   192.8727    32.1399     10.987       0.2442    20.3607     20.399      -0.1879     17.5       2.5145      -1.3287       
2012-08-01T12:40:27Z    Tianjin_2     46.5877     -167.1049   192.8951    32.1346     10.9126      0.2528    20.3627     20.3993     -0.1795     17.5       2.4987      -1.2631       
2012-08-01T12:43:29Z    Tianjin_2     46.5866     -167.0815   192.9185    32.1249     10.8597      0.2581    20.3643     20.3995     -0.1729     17.5       2.4951      -1.2163       
2012-08-01T12:46:30Z    Tianjin_2     46.5853     -167.0565   192.9435    32.1201     10.851       0.2595    20.367      20.3996     -0.1598     17.5       2.4946      -1.1245       
2012-08-01T12:49:32Z    Tianjin_2     46.5841     -167.0324   192.9676    32.1184     10.8632      0.2518    20.3568     20.3995     -0.2096     17.5       2.4954      -1.4748       
2012-08-01T12:52:33Z    Tianjin_2     46.5831     -167.0105   192.9895    32.118      10.8822      0.2404    20.3474     20.3994     -0.2553     17.5       2.4967      -1.7961       
2012-08-01T12:55:26Z    Tianjin_2     46.5821     -166.9872   193.0128    32.1178     10.9112      0.2338    20.342      20.3993     -0.2808     17.5       2.4986      -1.9764       
2012-08-01T12:58:27Z    Tianjin_2     46.5811     -166.9641   193.0359    32.1212     10.91        0.2314    20.3354     20.3993     -0.3135     17.5       2.4985      -2.2059       
2012-08-01T13:01:29Z    Tianjin_2     46.5801     -166.9406   193.0594    32.1222     10.9153      0.2295    20.3359     20.3993     -0.3109     17.5       2.4989      -2.1883       
2012-08-01T13:04:30Z    Tianjin_2     46.5791     -166.9173   193.0827    32.125      10.8794      0.2336    20.3355     20.3994     -0.3135     17.5       2.4965      -2.2058       
2012-08-01T13:07:32Z    Tianjin_2     46.5783     -166.8952   193.1048    32.1296     10.8232      0.2207    20.3354     20.3997     -0.3152     17.5       2.4927      -2.2171       
2012-08-01T13:10:33Z    Tianjin_2     46.5774     -166.8717   193.1283    32.1342     10.8021      0.2119    20.3344     20.3997     -0.32       17.5       2.4835      -2.2438       
2012-08-01T13:13:26Z    Tianjin_2     46.5765     -166.8473   193.1527    32.1363     10.8465      0.2307    20.3326     20.3996     -0.3281     17.5       2.4865      -2.3006       
2012-08-01T13:16:27Z    Tianjin_2     46.5755     -166.8239   193.1761    32.1362     10.8706      0.2188    20.3347     20.3995     -0.3174     17.5       2.4881      -2.2259       
2012-08-01T13:19:29Z    Tianjin_2     46.5747     -166.8011   193.1989    32.1362     10.9261      0.2198    20.3396     20.3993     -0.2923     17.5       2.4918      -2.0504       
2012-08-01T13:22:30Z    Tianjin_2     46.5738     -166.7755   193.2245    32.1362     10.9641      0.229     20.3414     20.3991     -0.2826     17.5       2.4944      -1.9833       
2012-08-01T13:25:32Z    Tianjin_2     46.5729     -166.7521   193.2479    32.1401     10.9424      0.2313    20.3418     20.3992     -0.2815     17.5       2.4929      -1.9751       
2012-08-01T13:28:33Z    Tianjin_2     46.572      -166.7283   193.2717    32.1467     10.9285      0.2266    20.3418     20.3992     -0.2815     17.5       2.492       -1.9746       
2012-08-01T13:31:26Z    Tianjin_2     46.5711     -166.7045   193.2955    32.1552     10.9271      0.2238    20.3404     20.3992     -0.2881     17.5       2.4918      -2.0211       
2012-08-01T13:34:27Z    Tianjin_2     46.5703     -166.6828   193.3172    32.1598     10.9756      0.2191    20.3392     20.399      -0.2933     17.5       2.4951      -2.0575       
2012-08-01T13:37:29Z    Tianjin_2     46.5696     -166.6596   193.3404    32.1648     10.9928      0.2269    20.3393     20.399      -0.2926     17.5       2.4962      -2.0531       
2012-08-01T13:40:30Z    Tianjin_2     46.5688     -166.6368   193.3632    32.1744     10.9337      0.2256    20.3374     20.3992     -0.3029     17.5       2.4922      -2.1246       
2012-08-01T13:43:32Z    Tianjin_2     46.568      -166.6131   193.3869    32.181      10.923       0.221     20.3362     20.3992     -0.3087     17.5       2.4861      -2.1599       
2012-08-01T13:46:33Z    Tianjin_2     46.5672     -166.5894   193.4106    32.1839     10.9268      0.2241    20.3351     20.3992     -0.3142     17.5       2.4864      -2.1991       
2012-08-01T13:49:26Z    Tianjin_2     46.5664     -166.5662   193.4338    32.1883     10.9068      0.2234    20.3369     20.3992     -0.3059     17.5       2.485       -2.14         
2012-08-01T13:52:27Z    Tianjin_2     46.5655     -166.5426   193.4574    32.193      10.8958      0.2221    20.3397     20.3993     -0.2921     17.5       2.4843      -2.0437       
2012-08-01T13:55:29Z    Tianjin_2     46.5646     -166.519    193.481     32.1964     10.8846      0.2166    20.3406     20.3993     -0.2877     17.5       2.4835      -2.0129       
2012-08-01T13:58:30Z    Tianjin_2     46.5637     -166.4957   193.5043    32.1979     10.9224      0.2151    20.3398     20.3992     -0.2913     17.5       2.4861      -2.038        
2012-08-01T14:01:32Z    Tianjin_2     46.5628     -166.4717   193.5283    32.1994     10.9412      0.2254    20.3401     20.3991     -0.289      17.5       2.4873      -2.0222       
2012-08-01T14:04:33Z    Tianjin_2     46.5616     -166.4479   193.5521    32.201      10.9327      0.219     20.3402     20.3991     -0.2888     17.5       2.4867      -2.0209       
2012-08-01T14:07:26Z    Tianjin_2     46.5602     -166.4255   193.5745    32.2022     10.9242      0.2339    20.3423     20.3992     -0.2785     17.5       2.4862      -1.9488       
2012-08-01T14:10:27Z    Tianjin_2     46.5588     -166.4033   193.5967    32.2013     10.9313      0.2344    20.3438     20.3991     -0.2711     17.5       2.4867      -1.8968       
2012-08-01T14:13:29Z    Tianjin_2     46.5574     -166.3798   193.6202    32.2005     10.9205      0.231     20.3471     20.3992     -0.2554     17.5       2.4859      -1.7867       
2012-08-01T14:55:32Z    Tianjin_2     46.5384     -166.0544   193.9456    32.214      10.9327      0.2484    20.4099     20.3991     0.0531      17.5       2.4498      0.3662        
2012-08-01T14:58:33Z    Tianjin_2     46.5371     -166.0305   193.9695    32.2126     10.972       0.2463    20.4164     20.399      0.0854      17.5       2.4524      0.589         
2012-08-01T15:01:26Z    Tianjin_2     46.5359     -166.0065   193.9935    32.2049     11.0153      0.2501    20.4174     20.3988     0.0913      17.5       2.4553      0.6298        
2012-08-01T15:04:27Z    Tianjin_2     46.5347     -165.984    194.016     32.1979     11.0138      0.2632    20.4207     20.3988     0.1074      17.5       2.4552      0.7404        
2012-08-01T15:07:29Z    Tianjin_2     46.5334     -165.9605   194.0395    32.1912     11.0105      0.2527    20.4193     20.3988     0.1004      17.5       2.455       0.6928        
2012-08-01T15:10:30Z    Tianjin_2     46.5321     -165.9368   194.0632    32.1845     11.0659      0.2562    20.4183     20.3986     0.0963      17.5       2.4588      0.6647        
2012-08-01T15:13:32Z    Tianjin_2     46.5309     -165.9145   194.0855    32.1769     11.1282      0.2685    20.4185     20.3984     0.0984      17.5       2.463       0.6793        
2012-08-01T15:16:33Z    Tianjin_2     46.5297     -165.8909   194.1091    32.1629     11.1761      0.268     20.4208     20.3983     0.1103      17.5       2.4662      0.7619        
2012-08-01T15:19:26Z    Tianjin_2     46.5285     -165.8677   194.1323    32.1531     11.2117      0.2659    20.4216     20.3981     0.1152      17.5       2.4307      0.7836        
2012-08-01T15:22:27Z    Tianjin_2     46.5273     -165.844    194.156     32.1536     11.213       0.2546    20.4167     20.3981     0.091       17.5       2.4308      0.6191        
2012-08-01T15:25:29Z    Tianjin_2     46.526      -165.8205   194.1795    32.1538     11.2151      0.2563    20.414      20.3981     0.0777      17.5       2.4309      0.5284        
2012-08-01T15:28:30Z    Tianjin_2     46.525      -165.7982   194.2018    32.156      11.1904      0.2483    20.4092     20.3982     0.0538      17.5       2.4293      0.3658        
2012-08-01T15:31:32Z    Tianjin_2     46.5238     -165.7752   194.2248    32.1648     11.1613      0.2382    20.4078     20.3983     0.0466      17.5       2.4273      0.317         
2012-08-01T15:34:33Z    Tianjin_2     46.5228     -165.7521   194.2479    32.1731     11.1764      0.2432    20.4036     20.3982     0.0261      17.5       2.4283      0.1774        
2012-08-01T15:37:26Z    Tianjin_2     46.5217     -165.7286   194.2714    32.1767     11.1675      0.2413    20.403      20.3983     0.023       17.5       2.4277      0.1564        
2012-08-01T15:40:27Z    Tianjin_2     46.5208     -165.7057   194.2943    32.1746     11.2079      0.2376    20.4004     20.3981     0.011       17.5       2.4304      0.0747        
2012-08-01T15:43:29Z    Tianjin_2     46.5199     -165.6828   194.3172    32.1731     11.2489      0.2293    20.3971     20.398      -0.0044     17.5       2.4331      -0.0299       
2012-08-01T15:46:30Z    Tianjin_2     46.519      -165.659    194.341     32.1737     11.2814      0.2251    20.3941     20.3978     -0.0184     17.5       2.4352      -0.1254       
2012-08-01T15:49:32Z    Tianjin_2     46.5182     -165.636    194.364     32.1738     11.3489      0.2262    20.3921     20.3976     -0.027      17.5       2.4397      -0.1835       
2012-08-01T15:52:33Z    Tianjin_2     46.5172     -165.6133   194.3867    32.1757     11.4037      0.2181    20.3888     20.3974     -0.0422     17.5       2.3911      -0.2811       
2012-08-01T15:55:26Z    Tianjin_2     46.5163     -165.5898   194.4102    32.1775     11.4623      0.2148    20.3854     20.3971     -0.0578     17.5       2.3949      -0.3851       
2012-08-01T15:58:27Z    Tianjin_2     46.5153     -165.5662   194.4338    32.1802     11.5035      0.2085    20.3831     20.397      -0.0683     17.5       2.3976      -0.4549       
2012-08-01T16:01:29Z    Tianjin_2     46.5143     -165.5428   194.4572    32.1796     11.5118      0.2178    20.3772     20.397      -0.0966     17.5       2.3981      -0.644        
2012-08-01T16:04:30Z    Tianjin_2     46.5132     -165.5187   194.4813    32.1786     11.4853      0.226     20.3771     20.3971     -0.0976     17.5       2.3964      -0.6504       
2012-08-01T16:07:32Z    Tianjin_2     46.5121     -165.4953   194.5047    32.1796     11.4596      0.2192    20.3744     20.3971     -0.1114     17.5       2.3947      -0.7425       
2012-08-01T16:10:33Z    Tianjin_2     46.5111     -165.473    194.527     32.1811     11.4591      0.2279    20.3714     20.3971     -0.126      17.5       2.3947      -0.8398       
2012-08-01T16:13:26Z    Tianjin_2     46.51       -165.45     194.55      32.1833     11.4679      0.2311    20.3725     20.3971     -0.1209     17.5       2.3952      -0.8057       
2012-08-01T16:16:27Z    Tianjin_2     46.5089     -165.4263   194.5737    32.1878     11.4922      0.2537    20.3739     20.397      -0.1133     17.5       2.3968      -0.7553       
2012-08-01T16:19:29Z    Tianjin_2     46.5077     -165.4027   194.5973    32.1933     11.5186      0.2625    20.3737     20.3969     -0.1137     17.5       2.3985      -0.7576       
2012-08-01T16:22:30Z    Tianjin_2     46.5064     -165.3793   194.6207    32.199      11.5289      0.2752    20.374      20.3969     -0.1119     17.5       2.3991      -0.7457       
2012-08-01T16:25:32Z    Tianjin_2     46.5052     -165.3558   194.6442    32.2032     11.5215      0.2718    20.376      20.3969     -0.1026     17.5       2.3402      -0.667        
2012-08-01T16:28:33Z    Tianjin_2     46.504      -165.333    194.667     32.208      11.4958      0.2811    20.379      20.397      -0.0882     17.5       2.3386      -0.5733       
2012-08-01T16:31:26Z    Tianjin_2     46.5028     -165.3096   194.6904    32.2073     11.4937      0.2733    20.3845     20.397      -0.0611     17.5       2.3385      -0.397        
2012-08-01T16:34:27Z    Tianjin_2     46.5016     -165.2867   194.7133    32.2022     11.4627      0.2718    20.3854     20.3971     -0.0573     17.5       2.3365      -0.3726       
2012-08-01T16:37:29Z    Tianjin_2     46.5004     -165.2632   194.7368    32.1954     11.4757      0.2515    20.3868     20.3971     -0.0502     17.5       2.3374      -0.3265       
2012-08-01T16:40:30Z    Tianjin_2     46.4991     -165.2393   194.7607    32.1913     11.5468      0.2535    20.3904     20.3968     -0.0314     17.5       2.3418      -0.2045       
2012-08-01T16:43:32Z    Tianjin_2     46.4979     -165.2167   194.7833    32.1899     11.5768      0.2392    20.3903     20.3967     -0.0312     17.5       2.3437      -0.2028       
2012-08-01T16:46:33Z    Tianjin_2     46.4968     -165.1943   194.8057    32.1916     11.5865      0.2372    20.3844     20.3967     -0.0599     17.5       2.3443      -0.39         
2012-08-01T16:49:26Z    Tianjin_2     46.4955     -165.1707   194.8293    32.1938     11.5663      0.2353    20.3799     20.3967     -0.0823     17.5       2.343       -0.5352       
2012-08-01T16:52:27Z    Tianjin_2     46.4943     -165.1478   194.8522    32.1871     11.5671      0.2283    20.376      20.3967     -0.1016     17.5       2.3431      -0.6609       
2012-08-01T16:55:29Z    Tianjin_2     46.493      -165.1257   194.8743    32.1765     11.5611      0.2214    20.3761     20.3968     -0.1015     17.5       2.3427      -0.66         
2012-08-01T16:58:30Z    Tianjin_2     46.4916     -165.1022   194.8978    32.1697     11.5812      0.2284    20.3739     20.3967     -0.112      17.5       2.291       -0.7119       
2012-08-01T17:01:32Z    Tianjin_2     46.4902     -165.0789   194.9211    32.1668     11.5977      0.2213    20.3737     20.3966     -0.1125     17.5       2.292       -0.7155       
2012-08-01T17:04:33Z    Tianjin_2     46.4888     -165.0563   194.9437    32.1679     11.5786      0.2307    20.371      20.3967     -0.1262     17.5       2.2908      -0.8028       
2012-08-01T17:07:26Z    Tianjin_2     46.4875     -165.0333   194.9667    32.1765     11.5483      0.2366    20.3681     20.3968     -0.141      17.5       2.289       -0.8965       
2012-08-01T17:10:27Z    Tianjin_2     46.4861     -165.01     194.99      32.1878     11.5637      0.2347    20.3668     20.3967     -0.1467     17.5       2.2899      -0.9329       
2012-08-01T17:13:29Z    Tianjin_2     46.4847     -164.9871   195.0129    32.1983     11.5885      0.2368    20.3706     20.3966     -0.1274     17.5       2.2914      -0.81         
2012-08-01T17:55:32Z    Tianjin_2     46.4655     -164.6665   195.3335    32.2346     12.0526      0.2107    20.4133     20.3948     0.0906      17.5       2.2731      0.5658        
2012-08-01T17:58:33Z    Tianjin_2     46.4638     -164.6437   195.3563    32.2349     12.0994      0.2173    20.415      20.3947     0.0998      17.5       2.2759      0.6236        
2012-08-01T18:01:26Z    Tianjin_2     46.4621     -164.6207   195.3793    32.2353     12.135       0.2061    20.4106     20.3945     0.079       17.5       2.2415      0.4858        
2012-08-01T18:04:27Z    Tianjin_2     46.4604     -164.5971   195.4029    32.236      12.1637      0.2024    20.4065     20.3944     0.0592      17.5       2.2432      0.3641        
2012-08-01T18:07:29Z    Tianjin_2     46.4587     -164.573    195.427     32.2362     12.1707      0.2085    20.4065     20.3944     0.0593      17.5       2.2436      0.3643        
2012-08-01T18:10:30Z    Tianjin_2     46.457      -164.55     195.45      32.2361     12.1693      0.2153    20.4044     20.3944     0.0489      17.5       2.2435      0.3007        
2012-08-01T18:13:32Z    Tianjin_2     46.4554     -164.5278   195.4722    32.2362     12.1568      0.1987    20.401      20.3944     0.032       17.5       2.2428      0.1967        
2012-08-01T18:16:33Z    Tianjin_2     46.4536     -164.5043   195.4957    32.2381     12.1329      0.2027    20.3976     20.3945     0.0149      17.5       2.2414      0.0916        
2012-08-01T18:19:26Z    Tianjin_2     46.4516     -164.4799   195.5201    32.2422     12.077       0.2109    20.3927     20.3947     -0.01       17.5       2.2381      -0.0615       
2012-08-01T18:22:27Z    Tianjin_2     46.4499     -164.4571   195.5429    32.2461     12.0517      0.2082    20.3912     20.3948     -0.0177     17.5       2.2367      -0.109        
2012-08-01T18:25:29Z    Tianjin_2     46.4481     -164.4339   195.5661    32.2479     12.061       0.2121    20.3918     20.3948     -0.0148     17.5       2.2372      -0.0907       
2012-08-01T18:28:30Z    Tianjin_2     46.4464     -164.4103   195.5897    32.2474     12.1386      0.2014    20.397      20.3945     0.0123      17.5       2.2417      0.0754        
2012-08-01T18:31:32Z    Tianjin_2     46.4448     -164.3881   195.6119    32.2445     12.1891      0.2083    20.4023     20.3943     0.0391      17.5       2.2446      0.2402        
2012-08-01T18:34:33Z    Tianjin_2     46.4432     -164.3651   195.6349    32.2446     12.2413      0.2022    20.4056     20.3941     0.0562      17.5       2.2217      0.3413        
2012-08-01T18:37:26Z    Tianjin_2     46.4417     -164.3418   195.6582    32.2453     12.2771      0.1965    20.4068     20.394      0.0629      17.5       2.2237      0.3826        
2012-08-01T18:40:27Z    Tianjin_2     46.4402     -164.3188   195.6812    32.2456     12.2568      0.1743    20.4081     20.3941     0.0689      17.5       2.2226      0.4187        
2012-08-01T18:43:29Z    Tianjin_2     46.4387     -164.2958   195.7042    32.2447     12.2101      0.1555    20.4065     20.3942     0.0601      17.5       2.2199      0.3655        
2012-08-01T18:46:30Z    Tianjin_2     46.437      -164.2715   195.7285    32.242      12.2075      0.1487    20.4046     20.3943     0.0507      17.5       2.2198      0.3081        
2012-08-01T18:49:32Z    Tianjin_2     46.4354     -164.2482   195.7518    32.2438     12.2453      0.1442    20.4019     20.3941     0.0381      17.5       2.2219      0.2315        
2012-08-01T18:52:33Z    Tianjin_2     46.4339     -164.2261   195.7739    32.2479     12.2502      0.1384    20.389      20.3941     -0.025      17.5       2.2222      -0.152        
2012-08-01T18:55:26Z    Tianjin_2     46.4323     -164.2027   195.7973    32.2499     12.2094      0.1407    20.3719     20.3942     -0.1097     17.5       2.2198      -0.6665       
2012-08-01T18:58:27Z    Tianjin_2     46.4306     -164.1777   195.8223    32.2513     12.2138      0.1538    20.3694     20.3942     -0.1219     17.5       2.2201      -0.7406       
2012-08-01T19:01:29Z    Tianjin_2     46.4291     -164.155    195.845     32.2574     12.2042      0.1576    20.3671     20.3942     -0.1331     17.5       2.2195      -0.8089       
2012-08-01T19:04:30Z    Tianjin_2     46.4275     -164.1321   195.8679    32.2608     12.2296      0.1596    20.3681     20.3941     -0.1278     17.5       2.221       -0.7768       
2012-08-01T19:07:32Z    Tianjin_2     46.4259     -164.1087   195.8913    32.2643     12.2256      0.1678    20.3733     20.3942     -0.1022     17.5       2.2003      -0.6151       
2012-08-01T19:10:33Z    Tianjin_2     46.4244     -164.0868   195.9132    32.2643     12.1999      0.1534    20.3768     20.3942     -0.0855     17.5       2.1988      -0.515        
2012-08-01T19:13:26Z    Tianjin_2     46.4228     -164.063    195.937     32.2627     12.1535      0.1537    20.3828     20.3944     -0.057      17.5       2.1962      -0.3431       
2012-08-01T19:16:27Z    Tianjin_2     46.4212     -164.0395   195.9605    32.2589     12.0785      0.1397    20.3851     20.3947     -0.0471     17.5       2.1919      -0.2833       
2012-08-01T19:19:29Z    Tianjin_2     46.4196     -164.0161   195.9839    32.2573     12.0425      0.1346    20.3875     20.3948     -0.036      17.5       2.1899      -0.2169       
2012-08-01T19:22:30Z    Tianjin_2     46.4179     -163.9919   196.0081    32.2558     12.0543      0.1412    20.3898     20.3948     -0.0244     17.5       2.1906      -0.1468       
2012-08-01T19:25:32Z    Tianjin_2     46.4161     -163.9681   196.0319    32.2486     12.0778      0.1364    20.391      20.3947     -0.0183     17.5       2.1919      -0.1101       
2012-08-01T19:28:33Z    Tianjin_2     46.4143     -163.9439   196.0561    32.2394     12.1001      0.1259    20.3945     20.3947     -0.0008     17.5       2.1932      -0.0046       
2012-08-01T19:31:26Z    Tianjin_2     46.4125     -163.921    196.079     32.231      12.1025      0.1298    20.395      20.3947     0.0018      17.5       2.1934      0.0108        
2012-08-01T19:34:27Z    Tianjin_2     46.4108     -163.8988   196.1012    32.2241     12.1132      0.119     20.3941     20.3946     -0.0026     17.5       2.194       -0.0159       
2012-08-01T19:37:29Z    Tianjin_2     46.409      -163.8752   196.1248    32.2198     12.1257      0.1184    20.3931     20.3946     -0.0071     17.5       2.1947      -0.0425       
2012-08-01T19:40:30Z    Tianjin_2     46.4072     -163.8521   196.1479    32.2223     12.0933      0.1197    20.3904     20.3947     -0.0211     17.5       2.1723      -0.1257       
2012-08-01T19:43:32Z    Tianjin_2     46.4054     -163.8277   196.1723    32.2228     12.0912      0.1166    20.3856     20.3947     -0.0447     17.5       2.1722      -0.2665       
2012-08-01T19:46:33Z    Tianjin_2     46.4037     -163.8042   196.1958    32.2303     12.1605      0.126     20.3816     20.3944     -0.0629     17.5       2.1761      -0.375        
2012-08-01T19:49:26Z    Tianjin_2     46.402      -163.7812   196.2188    32.2409     12.1816      0.1296    20.3803     20.3944     -0.0691     17.5       2.1773      -0.412        
2012-08-01T19:52:27Z    Tianjin_2     46.4003     -163.7575   196.2425    32.2436     12.2097      0.1326    20.3829     20.3942     -0.0558     17.5       2.1788      -0.3328       
2012-08-01T19:55:29Z    Tianjin_2     46.3985     -163.7331   196.2669    32.2387     12.1453      0.1267    20.3884     20.3945     -0.0297     17.5       2.1752      -0.1774       
2012-08-01T19:58:30Z    Tianjin_2     46.3967     -163.7098   196.2902    32.2238     12.048       0.1104    20.393      20.3949     -0.0091     17.5       2.1698      -0.0543       
2012-08-01T20:01:32Z    Tianjin_2     46.3949     -163.6868   196.3132    32.207      12.0221      0.0949    20.3943     20.395      -0.0035     17.5       2.1684      -0.0211       
2012-08-01T20:04:33Z    Tianjin_2     46.3932     -163.6641   196.3359    32.1932     12.0538      0.0905    20.3911     20.3949     -0.0186     17.5       2.1702      -0.111        
2012-08-01T20:07:26Z    Tianjin_2     46.3915     -163.6426   196.3574    32.1864     12.0954      0.0802    20.3838     20.3947     -0.0538     17.5       2.1725      -0.3211       
2012-08-01T20:10:27Z    Tianjin_2     46.3898     -163.6198   196.3802    32.1814     12.1027      0.0847    20.3672     20.3947     -0.1349     17.5       2.1502      -0.7963       
2012-08-01T20:13:29Z    Tianjin_2     46.3878     -163.5968   196.4032    32.1827     12.1018      0.0803    20.3546     20.3947     -0.1968     17.5       2.1501      -1.1614       
2012-08-01T20:55:32Z    Tianjin_2     46.3653     -163.2708   196.7292    32.1972     12.2933      0.1138    20.4017     20.394      0.0379      17.5       2.1379      0.2213        
2012-08-01T20:58:33Z    Tianjin_2     46.3637     -163.2472   196.7528    32.2019     12.3135      0.1147    20.4069     20.3939     0.0635      17.5       2.139       0.3709        
2012-08-01T21:01:26Z    Tianjin_2     46.3621     -163.2235   196.7765    32.209      12.303       0.121     20.4097     20.3939     0.0772      17.5       2.1384      0.4514        
2012-08-01T21:04:27Z    Tianjin_2     46.3605     -163.1998   196.8002    32.2144     12.2613      0.12      20.4136     20.3941     0.0956      17.5       2.1361      0.5584        
2012-08-01T21:07:29Z    Tianjin_2     46.359      -163.1774   196.8226    32.215      12.2594      0.1321    20.4165     20.3941     0.1099      17.5       2.136       0.6422        
2012-08-01T21:10:30Z    Tianjin_2     46.3575     -163.1552   196.8448    32.2142     12.2362      0.1222    20.4221     20.3942     0.1369      17.5       2.1347      0.7998        
2012-08-01T21:13:32Z    Tianjin_2     46.356      -163.1315   196.8685    32.2154     12.2211      0.1209    20.425      20.3942     0.151       17.5       2.1339      0.8819        
2012-08-01T21:16:33Z    Tianjin_2     46.3545     -163.1082   196.8918    32.2152     12.2457      0.1107    20.4293     20.3941     0.1724      17.5       2.1062      0.9937        
2012-08-01T21:19:26Z    Tianjin_2     46.3532     -163.0855   196.9145    32.2159     12.2651      0.1101    20.4317     20.3941     0.1845      17.5       2.1072      1.0631        
2012-08-01T21:22:27Z    Tianjin_2     46.3518     -163.062    196.938     32.2163     12.2905      0.1102    20.4292     20.394      0.1726      17.5       2.1086      0.9947        
2012-08-01T21:25:29Z    Tianjin_2     46.3504     -163.0386   196.9614    32.213      12.3356      0.1052    20.428      20.3938     0.1676      17.5       2.111       0.9661        
2012-08-01T21:28:30Z    Tianjin_2     46.3491     -163.0156   196.9844    32.2141     12.3102      0.0958    20.4268     20.3939     0.1611      17.5       2.1096      0.9289        
2012-08-01T21:31:32Z    Tianjin_2     46.3477     -162.9923   197.0077    32.2206     12.3083      0.0928    20.4238     20.3939     0.1465      17.5       2.1095      0.8446        
2012-08-01T21:34:33Z    Tianjin_2     46.3462     -162.9676   197.0324    32.228      12.4152      0.0897    20.4259     20.3935     0.1589      17.5       2.1153      0.9161        
2012-08-01T21:37:26Z    Tianjin_2     46.3447     -162.9441   197.0559    32.2323     12.4165      0.0936    20.4288     20.3935     0.1733      17.5       2.1154      0.9994        
2012-08-01T21:40:27Z    Tianjin_2     46.3433     -162.9218   197.0782    32.2342     12.3974      0.092     20.4325     20.3936     0.191       17.5       2.1143      1.1014        
2012-08-01T21:43:29Z    Tianjin_2     46.3417     -162.8986   197.1014    32.2371     12.3506      0.0834    20.4397     20.3937     0.2256      17.5       2.1118      1.3005        
2012-08-01T21:46:30Z    Tianjin_2     46.34       -162.8754   197.1246    32.2376     12.27        0.0843    20.444      20.394      0.2451      17.5       2.1074      1.4122        
2012-08-01T21:49:32Z    Tianjin_2     46.3381     -162.8511   197.1489    32.2412     12.2215      0.0867    20.4473     20.3942     0.2604      17.5       2.0791      1.4818        
2012-08-01T21:52:33Z    Tianjin_2     46.3363     -162.8277   197.1723    32.2437     12.2351      0.0981    20.4497     20.3941     0.2723      17.5       2.0798      1.5498        
2012-08-01T21:55:26Z    Tianjin_2     46.3346     -162.8055   197.1945    32.237      12.2761      0.1065    20.4543     20.394      0.2957      17.5       2.082       1.6831        
2012-08-01T21:58:27Z    Tianjin_2     46.3327     -162.7814   197.2186    32.2343     12.2121      0.1177    20.4595     20.3942     0.3199      17.5       2.0787      1.8207        
2012-08-01T22:01:29Z    Tianjin_2     46.3309     -162.7582   197.2418    32.2327     12.1533      0.1082    20.4711     20.3945     0.3758      17.5       2.0756      2.1382        
2012-08-01T22:04:30Z    Tianjin_2     46.3292     -162.7359   197.2641    32.235      12.1116      0.1055    20.4832     20.3946     0.4345      17.5       2.0734      2.4715        
2012-08-01T22:07:32Z    Tianjin_2     46.3274     -162.7123   197.2877    32.2377     12.1097      0.1041    20.4942     20.3946     0.4885      17.5       2.0733      2.7786        
2012-08-01T22:10:33Z    Tianjin_2     46.3256     -162.6882   197.3118    32.2395     12.0676      0.0996    20.5004     20.3948     0.5179      17.5       2.071       2.9454        
2012-08-01T22:13:26Z    Tianjin_2     46.3238     -162.6653   197.3347    32.2386     12.0932      0.0948    20.5042     20.3947     0.5368      17.5       2.0724      3.0531        
2012-08-01T22:16:27Z    Tianjin_2     46.3221     -162.6428   197.3572    32.2375     12.0982      0.0838    20.5075     20.3947     0.5531      17.5       2.0726      3.1462        
2012-08-01T22:19:29Z    Tianjin_2     46.3202     -162.6199   197.3801    32.2422     12.1035      0.0946    20.5057     20.3946     0.5445      17.5       2.0539      3.0685        
2012-08-01T22:22:30Z    Tianjin_2     46.3183     -162.5971   197.4029    32.2502     12.1246      0.076     20.5088     20.3945     0.56        17.5       2.055       3.1561        
2012-08-01T22:25:32Z    Tianjin_2     46.3163     -162.5743   197.4257    32.2547     12.1045      0.0813    20.5051     20.3946     0.5418      17.5       2.0539      3.0534        
2012-08-01T22:28:33Z    Tianjin_2     46.3145     -162.5511   197.4489    32.258      12.0958      0.0752    20.5015     20.3946     0.5238      17.5       2.0535      2.9515        
2012-08-01T22:31:26Z    Tianjin_2     46.3128     -162.5279   197.4721    32.261      12.1524      0.0754    20.4991     20.3944     0.513       17.5       2.0564      2.8916        
2012-08-01T22:34:27Z    Tianjin_2     46.3107     -162.5032   197.4968    32.2599     12.1905      0.0698    20.496      20.3943     0.4986      17.5       2.0583      2.8105        
2012-08-01T22:37:29Z    Tianjin_2     46.3087     -162.4797   197.5203    32.259      12.162       0.0799    20.4947     20.3944     0.4918      17.5       2.0569      2.7718        
2012-08-01T22:40:30Z    Tianjin_2     46.3068     -162.4572   197.5428    32.2602     12.2014      0.0823    20.4917     20.3942     0.4781      17.5       2.0589      2.6951        
2012-08-01T22:43:32Z    Tianjin_2     46.3045     -162.4341   197.5659    32.2584     12.4068      0.0818    20.499      20.3935     0.5176      17.5       2.0696      2.9203        
2012-08-01T22:46:33Z    Tianjin_2     46.3023     -162.4117   197.5883    32.2553     12.521       0.0773    20.505      20.3931     0.5488      17.5       2.0755      3.0982        
2012-08-01T22:49:26Z    Tianjin_2     46.3001     -162.3886   197.6114    32.2507     12.5632      0.074     20.5088     20.3929     0.5682      17.5       2.0777      3.2084        
2012-08-01T22:52:27Z    Tianjin_2     46.2977     -162.3655   197.6345    32.2637     12.6438      0.0802    20.5079     20.3926     0.5654      17.5       2.0693      3.1741        
2012-08-01T22:55:29Z    Tianjin_2     46.2953     -162.341    197.659     32.2844     12.664       0.0865    20.5108     20.3925     0.5802      17.5       2.0703      3.2571        
2012-08-01T22:58:30Z    Tianjin_2     46.293      -162.3179   197.6821    32.2857     12.7244      0.0822    20.5115     20.3923     0.5845      17.5       2.0734      3.2818        
2012-08-01T23:01:32Z    Tianjin_2     46.2908     -162.2962   197.7038    32.2841     12.6684      0.077     20.5183     20.3925     0.6171      17.5       2.0705      3.4638        
2012-08-01T23:04:33Z    Tianjin_2     46.2885     -162.2727   197.7273    32.2849     12.5207      0.0831    20.5205     20.393      0.6251      17.5       2.0629      3.507         
2012-08-01T23:07:26Z    Tianjin_2     46.2869     -162.2572   197.7428    32.2841     12.4613      0.0845    20.5232     20.3933     0.6373      17.5       2.0599      3.5744        
2012-08-01T23:07:26Z    Tianjin_2     46.2858     -162.2459   197.7541    32.2826     12.4342      0.0858    20.5221     20.3934     0.6315      17.5       2.0585      3.5414        
2012-08-01T23:10:27Z    Tianjin_2     46.2837     -162.2266   197.7734    32.2746     12.464       0.1023    20.5274     20.3933     0.6577      17.5       2.06        3.689         
2012-08-01T23:52:30Z    Tianjin_2     46.2287     -161.9201   198.0799    32.2568     12.6403      0.1307    20.6055     20.3926     1.0437      17.5       2.0605      5.8347        
2012-08-01T23:55:32Z    Tianjin_2     46.2274     -161.8975   198.1025    32.2563     12.5925      0.1298    20.6078     20.3928     1.0543      17.5       2.058       5.8926        
2012-08-01T23:58:33Z    Tianjin_2     46.226      -161.874    198.126     32.2536     12.5841      0.1143    20.6099     20.3928     1.0644      17.5       2.0482      5.9217        
2012-08-02T00:01:26Z    Tianjin_2     46.2247     -161.8507   198.1493    32.2499     12.6177      0.109     20.606      20.3927     1.0457      17.5       2.0877      5.9263        
2012-08-02T00:04:27Z    Tianjin_2     46.2234     -161.8274   198.1726    32.2487     12.6769      0.108     20.5983     20.3925     1.0091      17.5       2.0909      5.7205        
2012-08-02T00:07:29Z    Tianjin_2     46.2222     -161.8043   198.1957    32.2466     12.6965      0.101     20.5884     20.3924     0.9608      17.5       2.092       5.4474        
2012-08-02T00:10:30Z    Tianjin_2     46.2209     -161.7799   198.2201    32.2473     12.7463      0.1053    20.5812     20.3923     0.9263      17.5       2.0946      5.2528        
2012-08-02T00:13:32Z    Tianjin_2     46.2198     -161.7564   198.2436    32.2482     12.7596      0.1096    20.5703     20.3922     0.8734      17.5       2.0953      4.9532        
2012-08-02T00:16:33Z    Tianjin_2     46.2187     -161.7346   198.2654    32.2478     12.7325      0.1085    20.5628     20.3923     0.8362      17.5       2.0939      4.7418        
2012-08-02T00:19:26Z    Tianjin_2     46.2176     -161.7118   198.2882    32.2497     12.7209      0.1042    20.5602     20.3924     0.8232      17.5       2.0933      4.6677        
2012-08-02T00:22:27Z    Tianjin_2     46.2165     -161.6878   198.3122    32.2522     12.6972      0.1066    20.555      20.3924     0.7972      17.5       2.092       4.5196        
2012-08-02T00:25:29Z    Tianjin_2     46.2153     -161.6646   198.3354    32.2535     12.6814      0.1117    20.5537     20.3925     0.7905      17.5       2.0911      4.4809        
2012-08-02T00:28:30Z    Tianjin_2     46.2142     -161.6419   198.3581    32.2543     12.6699      0.1199    20.5565     20.3925     0.8039      17.5       2.0905      4.5567        
2012-08-02T00:31:32Z    Tianjin_2     46.2131     -161.6187   198.3813    32.2534     12.6649      0.1268    20.555      20.3926     0.7966      17.5       2.0646      4.4599        
2012-08-02T00:34:33Z    Tianjin_2     46.2118     -161.5949   198.4051    32.2534     12.6706      0.1352    20.5555     20.3925     0.7991      17.5       2.0649      4.4738        
2012-08-02T00:37:26Z    Tianjin_2     46.2106     -161.5723   198.4277    32.2538     12.6808      0.1572    20.5564     20.3925     0.8036      17.5       2.0654      4.4996        
2012-08-02T00:40:27Z    Tianjin_2     46.2078     -161.5502   198.4498    32.2534     12.6855      0.1595    20.5617     20.3925     0.8297      17.5       2.0656      4.6457        
2012-08-02T00:43:29Z    Tianjin_2     46.1999     -161.5297   198.4703    32.2497     12.706       0.1568    20.5731     20.3924     0.8859      17.5       2.0667      4.9608        
2012-08-02T00:46:30Z    Tianjin_2     46.1866     -161.5182   198.4818    32.2442     12.8311      0.1463    20.5784     20.392      0.914       17.5       2.0733      5.1216        
2012-08-02T00:49:32Z    Tianjin_2     46.1716     -161.5164   198.4836    32.2407     12.945       0.146     20.571      20.3916     0.88        17.5       2.0793      4.9338        
2012-08-02T00:52:33Z    Tianjin_2     46.1558     -161.516    198.484     32.2383     13.0096      0.1306    20.5639     20.3913     0.8462      17.5       2.0827      4.7459        
2012-08-02T00:55:26Z    Tianjin_2     46.1401     -161.5154   198.4846    32.2362     13.0377      0.1385    20.556      20.3912     0.8082      17.5       2.0842      4.5334        
2012-08-02T00:58:27Z    Tianjin_2     46.1244     -161.5147   198.4853    32.2304     13.007       0.1328    20.5464     20.3913     0.7605      17.5       2.078       4.2559        
2012-08-02T01:01:29Z    Tianjin_2     46.1083     -161.514    198.486     32.2283     12.9913      0.1346    20.5394     20.3914     0.7257      17.5       2.0772      4.0609        
2012-08-02T01:04:30Z    Tianjin_2     46.0928     -161.5133   198.4867    32.2227     12.9695      0.1421    20.534      20.3915     0.6989      17.5       2.076       3.9109        
2012-08-02T01:07:32Z    Tianjin_2     46.0776     -161.5125   198.4875    32.2172     12.9242      0.1439    20.5285     20.3917     0.6712      17.5       2.0737      3.7547        
2012-08-02T01:10:33Z    Tianjin_2     46.0619     -161.507    198.493     32.2106     12.913       0.1479    20.5249     20.3917     0.6534      17.5       2.0731      3.6552        
2012-08-02T01:13:26Z    Tianjin_2     46.0472     -161.4989   198.5011    32.2084     12.909       0.1366    20.5244     20.3917     0.6507      17.5       2.0729      3.64          
2012-08-02T01:16:27Z    Tianjin_2     46.0338     -161.4911   198.5089    32.2062     12.928       0.1481    20.5258     20.3917     0.658       17.5       2.0739      3.6812        
2012-08-02T01:19:29Z    Tianjin_2     46.0189     -161.4826   198.5174    32.2049     12.9368      0.1473    20.5287     20.3916     0.6722      17.5       2.0743      3.7612        
2012-08-02T01:22:30Z    Tianjin_2     46.0034     -161.4737   198.5263    32.2085     12.9165      0.152     20.528      20.3917     0.6684      17.5       2.0733      3.7395        
2012-08-02T01:25:32Z    Tianjin_2     45.9897     -161.4648   198.5352    32.215      12.8955      0.1511    20.5291     20.3918     0.6737      12.5       2.0642      3.7539        
2012-08-02T01:28:33Z    Tianjin_2     45.9784     -161.4518   198.5482    32.2244     12.8711      0.1444    20.5296     20.3918     0.6756      12.5       2.0627      3.7635        
2012-08-02T01:31:26Z    Tianjin_2     45.9661     -161.4367   198.5633    32.2376     12.8012      0.1405    20.5293     20.3921     0.673       12.5       2.0586      3.7467        
2012-08-02T01:34:27Z    Tianjin_2     45.9537     -161.4212   198.5788    32.2463     12.8339      0.1386    20.5294     20.3919     0.6742      12.5       2.0605      3.7542        
2012-08-02T01:37:29Z    Tianjin_2     45.942      -161.4065   198.5935    32.2551     12.9066      0.1392    20.5307     20.3917     0.6818      12.5       2.0648      3.7981        
2012-08-02T01:40:30Z    Tianjin_2     45.9305     -161.392    198.608     32.2559     12.9472      0.1453    20.5294     20.3915     0.6762      12.5       2.0672      3.7681        
2012-08-02T01:43:32Z    Tianjin_2     45.9186     -161.3767   198.6233    32.2574     12.9074      0.1374    20.5255     20.3917     0.6563      12.5       2.0648      3.6564        
2012-08-02T01:46:33Z    Tianjin_2     45.9096     -161.359    198.641     32.262      12.8783      0.1451    20.5165     20.3918     0.6119      12.5       2.0236      3.3426        
2012-08-02T01:49:26Z    Tianjin_2     45.9052     -161.337    198.663     32.2637     12.9681      0.1565    20.5122     20.3914     0.5925      12.5       2.0288      3.2388        
2012-08-02T01:52:27Z    Tianjin_2     45.9009     -161.3134   198.6866    32.2589     13.0494      0.1588    20.5105     20.3911     0.5853      12.5       2.0334      3.2018        
2012-08-02T01:55:29Z    Tianjin_2     45.8987     -161.2909   198.7091    32.2596     13.0494      0.1684    20.506      20.3911     0.5633      12.5       2.0334      3.0813        
2012-08-02T01:58:30Z    Tianjin_2     45.8974     -161.2699   198.7301    32.2627     13.0301      0.1513    20.5043     20.3912     0.5548      12.5       2.0323      3.0344        
2012-08-02T02:01:32Z    Tianjin_2     45.896      -161.2484   198.7516    32.264      13.0169      0.1555    20.5051     20.3913     0.5581      12.5       2.0316      3.0519        
2012-08-02T02:04:33Z    Tianjin_2     45.8945     -161.2251   198.7749    32.2683     12.9685      0.1434    20.506      20.3914     0.5621      12.5       2.0288      3.0727        
2012-08-02T02:07:26Z    Tianjin_2     45.8931     -161.2022   198.7978    32.2767     12.8913      0.1468    20.5045     20.3917     0.5532      12.5       2.0243      3.022         
2012-08-02T02:10:27Z    Tianjin_2     45.8919     -161.18     198.82      32.2863     12.8691      0.1445    20.5043     20.3918     0.5518      12.5       2.023       3.0134        
2012-08-02T02:52:30Z    Tianjin_2     45.8652     -160.8595   199.1405    32.3419     13.4801      0.1857    20.5731     20.3895     0.9007      12.5       1.9945      4.7875        
2012-08-02T02:55:32Z    Tianjin_2     45.8632     -160.8366   199.1634    32.3709     13.5833      0.1848    20.5757     20.3891     0.9152      12.5       2.0003      4.8676        
2012-08-02T02:58:33Z    Tianjin_2     45.8611     -160.8139   199.1861    32.3882     13.6184      0.2009    20.5713     20.3889     0.8944      12.5       2.0022      4.7577        
2012-08-02T03:01:26Z    Tianjin_2     45.8591     -160.7905   199.2095    32.3985     13.5835      0.2136    20.5728     20.389      0.9012      12.5       2.0002      4.792         
2012-08-02T03:04:27Z    Tianjin_2     45.857      -160.7674   199.2326    32.4054     13.5799      0.2116    20.5735     20.389      0.9049      12.5       2           4.8115        
2012-08-02T03:07:29Z    Tianjin_2     45.855      -160.7452   199.2548    32.4071     13.6282      0.2145    20.5729     20.3889     0.9029      12.5       2.0027      4.8022        
2012-08-02T03:10:30Z    Tianjin_2     45.853      -160.7229   199.2771    32.4071     13.6553      0.2064    20.5714     20.3888     0.8959      12.5       2.0042      4.7661        
2012-08-02T03:13:32Z    Tianjin_2     45.851      -160.7001   199.2999    32.4085     13.6547      0.2108    20.5719     20.3888     0.8983      12.5       2.0042      4.7788        
2012-08-02T03:16:33Z    Tianjin_2     45.8489     -160.6777   199.3223    32.4057     13.5976      0.2119    20.5672     20.389      0.8743      12.5       2.001       4.6494        
2012-08-02T03:19:26Z    Tianjin_2     45.847      -160.6549   199.3451    32.4024     13.5629      0.2249    20.5689     20.3891     0.8819      12.5       1.999       4.6883        
2012-08-02T03:22:27Z    Tianjin_2     45.8449     -160.6323   199.3677    32.4003     13.522       0.2321    20.5681     20.3892     0.8773      12.5       1.9967      4.6626        
2012-08-02T03:25:29Z    Tianjin_2     45.8429     -160.6095   199.3905    32.3988     13.4833      0.2275    20.5689     20.3894     0.8803      12.5       1.9714      4.6231        
2012-08-02T03:28:30Z    Tianjin_2     45.8407     -160.5865   199.4135    32.4001     13.485       0.2187    20.5689     20.3894     0.8804      12.5       1.9714      4.6236        
2012-08-02T03:31:32Z    Tianjin_2     45.8382     -160.5641   199.4359    32.4035     13.4941      0.2055    20.5677     20.3893     0.8748      12.5       1.9719      4.5939        
2012-08-02T03:34:33Z    Tianjin_2     45.8358     -160.5411   199.4589    32.4086     13.5166      0.2081    20.5635     20.3893     0.8544      12.5       1.9732      4.4877        
2012-08-02T03:37:26Z    Tianjin_2     45.8334     -160.5185   199.4815    32.4129     13.5709      0.1999    20.5617     20.3891     0.8469      12.5       1.9761      4.4501        
2012-08-02T03:40:27Z    Tianjin_2     45.8311     -160.4959   199.5041    32.402      13.598       0.1972    20.5585     20.389      0.8312      12.5       1.9777      4.3686        
2012-08-02T03:43:29Z    Tianjin_2     45.8286     -160.4727   199.5273    32.3893     13.5971      0.1994    20.5558     20.389      0.8179      12.5       1.9776      4.2992        
2012-08-02T03:46:30Z    Tianjin_2     45.8263     -160.4498   199.5502    32.3809     13.532       0.2128    20.5491     20.3892     0.784       12.5       1.9741      4.1191        
2012-08-02T03:49:32Z    Tianjin_2     45.8237     -160.4262   199.5738    32.3713     13.4027      0.2163    20.5483     20.3897     0.7777      12.5       1.967       4.0823        
2012-08-02T03:52:33Z    Tianjin_2     45.8214     -160.404    199.596     32.3613     13.3271      0.2249    20.5503     20.39       0.786       12.5       1.9629      4.1241        
2012-08-02T03:55:26Z    Tianjin_2     45.8191     -160.3826   199.6174    32.3607     13.3139      0.2357    20.5517     20.39       0.7929      12.5       1.9621      4.1601        
2012-08-02T03:58:27Z    Tianjin_2     45.8167     -160.3601   199.6399    32.3802     13.3072      0.229     20.5515     20.39       0.7918      12.5       1.9444      4.1165        
2012-08-02T04:01:29Z    Tianjin_2     45.8142     -160.3366   199.6634    32.3749     13.3843      0.2245    20.5524     20.3898     0.7974      12.5       1.9486      4.1483        
2012-08-02T04:04:30Z    Tianjin_2     45.8117     -160.3135   199.6865    32.3321     13.4222      0.2227    20.5547     20.3897     0.8093      12.5       1.9507      4.2126        
2012-08-02T04:07:32Z    Tianjin_2     45.8094     -160.2909   199.7091    32.3056     13.4165      0.2202    20.5543     20.3898     0.8067      12.5       1.9505      4.1998        
2012-08-02T04:10:33Z    Tianjin_2     45.8071     -160.2688   199.7312    32.2926     13.3885      0.211     20.5496     20.3899     0.7834      12.5       1.949       4.0778        
2012-08-02T04:13:26Z    Tianjin_2     45.8048     -160.2471   199.7529    32.28       13.3538      0.2065    20.5454     20.39       0.7622      12.5       1.9471      3.967         
2012-08-02T04:16:27Z    Tianjin_2     45.8024     -160.2241   199.7759    32.2668     13.292       0.2064    20.5409     20.3903     0.7389      12.5       1.9438      3.8443        
2012-08-02T04:19:29Z    Tianjin_2     45.8        -160.2015   199.7985    32.2645     13.2497      0.2068    20.5368     20.3904     0.7179      12.5       1.9415      3.7342        
2012-08-02T04:22:30Z    Tianjin_2     45.7978     -160.1792   199.8208    32.28       13.2473      0.213     20.5315     20.3904     0.6921      12.5       1.9414      3.5992        
2012-08-02T04:25:32Z    Tianjin_2     45.7954     -160.1559   199.8441    32.2942     13.2204      0.231     20.5251     20.3905     0.6601      12.5       1.9399      3.4318        
2012-08-02T04:28:33Z    Tianjin_2     45.7931     -160.1333   199.8667    32.2986     13.1631      0.2291    20.5212     20.3907     0.6402      12.5       1.9368      3.327         
2012-08-02T04:31:26Z    Tianjin_2     45.7907     -160.1102   199.8898    32.2919     13.1774      0.2061    20.5155     20.3906     0.6122      12.5       1.9268      3.1642        
2012-08-02T04:34:27Z    Tianjin_2     45.7885     -160.0876   199.9124    32.2919     13.1692      0.205     20.5136     20.3907     0.6028      12.5       1.9264      3.1156        
2012-08-02T04:37:29Z    Tianjin_2     45.7863     -160.0654   199.9346    32.2896     13.1824      0.1997    20.5048     20.3906     0.5597      12.5       1.9271      2.8932        
2012-08-02T04:40:30Z    Tianjin_2     45.7841     -160.0426   199.9574    32.282      13.2745      0.2035    20.5009     20.3903     0.5422      12.5       1.932       2.8044        
2012-08-02T04:43:32Z    Tianjin_2     45.7816     -160.0186   199.9814    32.2803     13.289       0.2051    20.4959     20.3903     0.5182      12.5       1.9328      2.681         
2012-08-02T04:46:33Z    Tianjin_2     45.7793     -159.9958   200.0042    32.2801     13.3046      0.2009    20.4913     20.3902     0.4958      12.5       1.9337      2.565         
2012-08-02T04:49:26Z    Tianjin_2     45.7773     -159.9747   200.0253    32.2816     13.3263      0.2083    20.49       20.3901     0.4897      12.5       1.9348      2.5339        
2012-08-02T04:52:27Z    Tianjin_2     45.775      -159.9501   200.0499    32.2765     13.3872      0.2085    20.4857     20.3899     0.4699      12.5       1.9381      2.4328        
2012-08-02T04:55:29Z    Tianjin_2     45.7728     -159.9268   200.0732    32.2644     13.494       0.1884    20.485      20.3895     0.4683      12.5       1.9439      2.4262        
2012-08-02T04:58:30Z    Tianjin_2     45.7707     -159.9055   200.0945    32.2529     13.5383      0.2017    20.4831     20.3894     0.4593      12.5       1.9463      2.3808        
2012-08-02T05:01:32Z    Tianjin_2     45.7687     -159.8828   200.1172    32.2356     13.5143      0.1919    20.4762     20.3895     0.425       12.5       1.945       2.2031        
2012-08-02T05:04:33Z    Tianjin_2     45.7663     -159.8572   200.1428    32.2116     13.4822      0.2038    20.4733     20.3897     0.41        12.5       1.9378      2.1192        
2012-08-02T05:07:26Z    Tianjin_2     45.7643     -159.8343   200.1657    32.2033     13.4243      0.2161    20.4703     20.3899     0.3943      12.5       1.9348      2.037         
2012-08-02T05:10:27Z    Tianjin_2     45.7625     -159.8145   200.1855    32.1992     13.3789      0.2058    20.4708     20.39       0.396       12.5       1.9323      2.0455        
2012-08-02T05:52:30Z    Tianjin_2     45.7375     -159.4955   200.5045    32.3106     13.6982      0.1952    20.4594     20.3888     0.3463      12.5       1.9468      1.7892        
2012-08-02T05:55:32Z    Tianjin_2     45.7357     -159.4728   200.5272    32.3093     13.7298      0.1934    20.4631     20.3886     0.3652      12.5       1.9485      1.887         
2012-08-02T05:58:33Z    Tianjin_2     45.734      -159.4513   200.5487    32.3088     13.7439      0.195     20.4644     20.3886     0.3719      12.5       1.9493      1.9222        
2012-08-02T06:01:26Z    Tianjin_2     45.7319     -159.4283   200.5717    32.3034     13.7118      0.217     20.466      20.3887     0.3791      12.5       1.9476      1.9589        
2012-08-02T06:04:27Z    Tianjin_2     45.7297     -159.4056   200.5944    32.2984     13.7426      0.2105    20.4678     20.3886     0.3882      12.5       1.9492      2.0064        
2012-08-02T06:07:29Z    Tianjin_2     45.7274     -159.3815   200.6185    32.2982     13.7599      0.2074    20.4694     20.3886     0.3964      12.5       1.9502      2.049         
2012-08-02T06:10:30Z    Tianjin_2     45.7251     -159.3592   200.6408    32.2985     13.8389      0.2026    20.4716     20.3883     0.4089      12.5       1.9505      2.1106        
2012-08-02T06:13:32Z    Tianjin_2     45.7229     -159.3383   200.6617    32.2963     13.8354      0.2076    20.4757     20.3883     0.4285      12.5       1.9503      2.2117        
2012-08-02T06:16:33Z    Tianjin_2     45.7205     -159.3152   200.6848    32.2941     13.7874      0.2055    20.4716     20.3885     0.4078      12.5       1.9478      2.1044        
2012-08-02T06:19:26Z    Tianjin_2     45.7181     -159.2925   200.7075    32.2932     13.7804      0.2139    20.4692     20.3885     0.396       12.5       1.9474      2.0433        
2012-08-02T06:22:27Z    Tianjin_2     45.7158     -159.2704   200.7296    32.29       13.8509      0.1964    20.4692     20.3882     0.3971      12.5       1.9512      2.05          
2012-08-02T06:25:29Z    Tianjin_2     45.7129     -159.247    200.753     32.2843     13.9092      0.1977    20.4674     20.388      0.389       12.5       1.9543      2.0091        
2012-08-02T06:28:30Z    Tianjin_2     45.7099     -159.2236   200.7764    32.2799     13.9009      0.1901    20.4643     20.3881     0.3737      12.5       1.9538      1.9297        
2012-08-02T06:31:32Z    Tianjin_2     45.7071     -159.2018   200.7982    32.2785     13.8638      0.1998    20.4633     20.3882     0.3682      12.5       1.9519      1.9009        
2012-08-02T06:34:33Z    Tianjin_2     45.7042     -159.1801   200.8199    32.2713     13.8398      0.2       20.4616     20.3883     0.3593      12.5       1.9506      1.855         
2012-08-02T06:37:26Z    Tianjin_2     45.7013     -159.158    200.842     32.2671     13.8411      0.1923    20.4618     20.3883     0.3603      12.5       1.9507      1.8599        
2012-08-02T06:40:27Z    Tianjin_2     45.6981     -159.1354   200.8646    32.2662     13.8956      0.196     20.4555     20.3881     0.3303      12.5       1.9536      1.7059        
2012-08-02T06:43:29Z    Tianjin_2     45.695      -159.1121   200.8879    32.276      13.9633      0.2192    20.4497     20.3879     0.3034      12.5       1.9464      1.5592        
2012-08-02T06:46:30Z    Tianjin_2     45.6919     -159.0895   200.9105    32.2908     14.0017      0.2224    20.4449     20.3877     0.2803      12.5       1.9484      1.4404        
2012-08-02T06:49:32Z    Tianjin_2     45.6889     -159.0674   200.9326    32.2928     14.0814      0.2019    20.4406     20.3874     0.2609      12.5       1.9526      1.3415        
2012-08-02T06:52:33Z    Tianjin_2     45.6856     -159.0437   200.9563    32.2953     14.1403      0.2208    20.441      20.3872     0.264       12.5       1.9558      1.3578        
2012-08-02T06:55:26Z    Tianjin_2     45.6826     -159.0211   200.9789    32.2996     14.1757      0.2262    20.4409     20.3871     0.2639      12.5       1.9576      1.3577        
2012-08-02T06:58:27Z    Tianjin_2     45.6799     -158.9979   201.0021    32.3053     14.1842      0.2412    20.4413     20.3871     0.2661      12.5       1.9581      1.369         
2012-08-02T07:01:29Z    Tianjin_2     45.6771     -158.9745   201.0255    32.3137     14.1876      0.2437    20.4432     20.387      0.2754      12.5       1.9582      1.4167        
2012-08-02T07:04:30Z    Tianjin_2     45.6747     -158.9535   201.0465    32.3225     14.2484      0.2401    20.4466     20.3868     0.2931      12.5       1.9614      1.5083        
2012-08-02T07:07:32Z    Tianjin_2     45.6716     -158.9277   201.0723    32.3272     14.3057      0.2211    20.4468     20.3866     0.2953      12.5       1.9645      1.5202        
2012-08-02T07:10:33Z    Tianjin_2     45.6688     -158.9037   201.0963    32.3288     14.2783      0.2369    20.4472     20.3867     0.2966      12.5       1.963       1.5269        
2012-08-02T07:13:26Z    Tianjin_2     45.6663     -158.883    201.117     32.3223     14.2315      0.2432    20.4446     20.3869     0.2833      12.5       1.9605      1.4581        
2012-08-02T07:16:27Z    Tianjin_2     45.6636     -158.8601   201.1399    32.3218     14.2222      0.2532    20.4463     20.3869     0.2915      12.5       1.9402      1.4846        
2012-08-02T07:19:29Z    Tianjin_2     45.6608     -158.837    201.163     32.3247     14.1789      0.2463    20.4478     20.387      0.298       12.5       1.9379      1.5173        
2012-08-02T07:22:30Z    Tianjin_2     45.6579     -158.8146   201.1854    32.3259     14.083       0.2396    20.4475     20.3874     0.2947      12.5       1.9329      1.4995        
2012-08-02T07:25:32Z    Tianjin_2     45.6552     -158.7924   201.2076    32.3304     14.0464      0.2447    20.4474     20.3875     0.2936      12.5       1.931       1.4937        
2012-08-02T07:28:33Z    Tianjin_2     45.6524     -158.7698   201.2302    32.3294     14.0631      0.2466    20.4435     20.3874     0.275       12.5       1.9319      1.3994        
2012-08-02T07:31:26Z    Tianjin_2     45.6495     -158.7469   201.2531    32.3226     14.1073      0.258     20.4405     20.3873     0.2609      12.5       1.9342      1.3279        
2012-08-02T07:34:27Z    Tianjin_2     45.6465     -158.7226   201.2774    32.3209     14.1254      0.2529    20.4407     20.3872     0.2623      12.5       1.9351      1.3354        
2012-08-02T07:37:29Z    Tianjin_2     45.6434     -158.6994   201.3006    32.3209     14.1493      0.2525    20.4428     20.3872     0.2731      12.5       1.9364      1.3904        
2012-08-02T07:40:30Z    Tianjin_2     45.6409     -158.6784   201.3216    32.3238     14.2188      0.2447    20.4371     20.3869     0.246       12.5       1.94        1.2527        
2012-08-02T07:43:32Z    Tianjin_2     45.6383     -158.6567   201.3433    32.3278     14.3172      0.2536    20.4355     20.3866     0.24        12.5       1.9451      1.2233        
2012-08-02T07:46:33Z    Tianjin_2     45.6357     -158.6339   201.3661    32.3295     14.3172      0.2553    20.4331     20.3866     0.2283      12.5       1.9451      1.1634        
2012-08-02T07:49:26Z    Tianjin_2     45.633      -158.6103   201.3897    32.3304     14.2335      0.2743    20.4303     20.3869     0.2129      12.5       1.9134      1.0691        
2012-08-02T07:52:27Z    Tianjin_2     45.6304     -158.5872   201.4128    32.334      14.1102      0.2952    20.4299     20.3873     0.2089      12.5       1.9072      1.0485        
2012-08-02T07:55:29Z    Tianjin_2     45.6279     -158.5647   201.4353    32.3387     14.0791      0.2992    20.4353     20.3874     0.2349      12.5       1.9057      1.1784        
2012-08-02T07:58:30Z    Tianjin_2     45.6254     -158.542    201.458     32.3416     14.0704      0.3031    20.443      20.3874     0.2727      12.5       1.9052      1.3679        
2012-08-02T08:01:32Z    Tianjin_2     45.623      -158.5191   201.4809    32.3396     14.1003      0.302     20.449      20.3873     0.3024      12.5       1.907       1.5175        
2012-08-02T08:04:33Z    Tianjin_2     45.6204     -158.4943   201.5057    32.3428     14.1504      0.3284    20.4536     20.3871     0.3259      12.5       1.9095      1.6359        
2012-08-02T08:07:26Z    Tianjin_2     45.618      -158.4711   201.5289    32.3524     14.167       0.3328    20.4552     20.3871     0.3342      12.5       1.9103      1.6776        
2012-08-02T08:10:27Z    Tianjin_2     45.6159     -158.4506   201.5494    32.3609     14.2044      0.3401    20.4583     20.3869     0.3502      12.5       1.9121      1.7581        
2012-08-02T08:52:30Z    Tianjin_2     45.5824     -158.1389   201.8611    32.3614     13.85        0.3445    20.4894     20.3881     0.4968      12.5       1.8671      2.4531        
2012-08-02T08:55:32Z    Tianjin_2     45.58       -158.1169   201.8831    32.3446     13.8367      0.3531    20.4949     20.3882     0.5235      12.5       1.8421      2.5511        
2012-08-02T08:58:33Z    Tianjin_2     45.5777     -158.0961   201.9039    32.34       13.8883      0.3754    20.4996     20.388      0.547       12.5       1.8445      2.6667        
2012-08-02T09:01:26Z    Tianjin_2     45.5752     -158.0738   201.9262    32.3417     13.8973      0.3729    20.5015     20.388      0.5568      12.5       1.8449      2.7144        
2012-08-02T09:04:27Z    Tianjin_2     45.5728     -158.0519   201.9481    32.3385     13.8656      0.3808    20.5031     20.3881     0.5638      12.5       1.8434      2.748         
2012-08-02T09:07:29Z    Tianjin_2     45.5703     -158.0296   201.9704    32.3334     13.8963      0.366     20.5074     20.388      0.5855      12.5       1.8449      2.8546        
2012-08-02T09:10:30Z    Tianjin_2     45.5679     -158.0071   201.9929    32.3175     13.9748      0.3524    20.5111     20.3878     0.6048      12.5       1.8486      2.9503        
2012-08-02T09:13:32Z    Tianjin_2     45.5655     -157.984    202.016     32.3064     14.0516      0.375     20.516      20.3875     0.6301      12.5       1.8523      3.0748        
2012-08-02T09:16:33Z    Tianjin_2     45.5634     -157.9623   202.0377    32.3051     14.0373      0.392     20.5136     20.3876     0.6183      12.5       1.8516      3.017         
2012-08-02T09:19:26Z    Tianjin_2     45.5612     -157.9407   202.0593    32.3071     14.0754      0.3762    20.5142     20.3874     0.6218      12.5       1.8534      3.035         
2012-08-02T09:22:27Z    Tianjin_2     45.5589     -157.9187   202.0813    32.3117     14.1156      0.3614    20.5112     20.3873     0.6077      12.5       1.8553      2.9666        
2012-08-02T09:25:29Z    Tianjin_2     45.5565     -157.8941   202.1059    32.3217     14.1229      0.3431    20.5067     20.3872     0.586       12.5       1.8556      2.8603        
2012-08-02T09:28:30Z    Tianjin_2     45.5539     -157.8717   202.1283    32.3257     14.0862      0.3397    20.5003     20.3874     0.554       12.5       1.8363      2.678         
2012-08-02T09:31:32Z    Tianjin_2     45.5515     -157.8514   202.1486    32.3217     14.0407      0.3511    20.4959     20.3875     0.5314      12.5       1.8342      2.5683        
2012-08-02T09:34:33Z    Tianjin_2     45.5487     -157.8281   202.1719    32.314      14.0236      0.3716    20.4933     20.3876     0.5184      12.5       1.8334      2.5053        
2012-08-02T09:37:26Z    Tianjin_2     45.5459     -157.8044   202.1956    32.3049     14.0719      0.3803    20.4942     20.3875     0.5237      12.5       1.8357      2.5317        
2012-08-02T09:40:27Z    Tianjin_2     45.5433     -157.7826   202.2174    32.2973     14.0959      0.3684    20.4947     20.3874     0.5262      12.5       1.8368      2.5445        
2012-08-02T09:43:29Z    Tianjin_2     45.5407     -157.7614   202.2386    32.2967     14.0804      0.3665    20.4935     20.3874     0.5203      12.5       1.8361      2.5159        
2012-08-02T09:46:30Z    Tianjin_2     45.538      -157.739    202.261     32.3015     14.0263      0.3601    20.4915     20.3876     0.5094      12.5       1.8336      2.462         
2012-08-02T09:49:32Z    Tianjin_2     45.5352     -157.7162   202.2838    32.3122     13.9476      0.3378    20.4881     20.3879     0.4915      12.5       1.8299      2.3745        
2012-08-02T09:52:33Z    Tianjin_2     45.5324     -157.6939   202.3061    32.3214     13.9018      0.3335    20.4899     20.388      0.4997      12.5       1.8278      2.4134        
2012-08-02T09:55:26Z    Tianjin_2     45.5295     -157.6705   202.3295    32.3222     13.9043      0.3246    20.4913     20.388      0.5066      12.5       1.8279      2.4468        
2012-08-02T09:58:27Z    Tianjin_2     45.5264     -157.647    202.353     32.3229     13.9498      0.3193    20.4926     20.3879     0.5139      12.5       1.83        2.4826        
2012-08-02T10:01:29Z    Tianjin_2     45.5236     -157.6247   202.3753    32.3239     13.9598      0.3152    20.4916     20.3878     0.5091      12.5       1.8239      2.4508        
2012-08-02T10:04:30Z    Tianjin_2     45.5208     -157.6028   202.3972    32.3261     13.9932      0.3275    20.4861     20.3877     0.4825      12.5       1.8254      2.3229        
2012-08-02T10:07:32Z    Tianjin_2     45.518      -157.5808   202.4192    32.3271     14.0143      0.321     20.4876     20.3876     0.4903      12.5       1.8264      2.3609        
2012-08-02T10:10:33Z    Tianjin_2     45.515      -157.5575   202.4425    32.3289     14.0323      0.3152    20.4846     20.3876     0.4762      12.5       1.8272      2.2932        
2012-08-02T10:13:26Z    Tianjin_2     45.5119     -157.5347   202.4653    32.3337     14.0245      0.3234    20.4823     20.3876     0.4645      12.5       1.8268      2.2366        
2012-08-02T10:16:27Z    Tianjin_2     45.5089     -157.5122   202.4878    32.336      14.04        0.3337    20.4802     20.3875     0.4547      12.5       1.8275      2.1896        
2012-08-02T10:19:29Z    Tianjin_2     45.5058     -157.4891   202.5109    32.3356     14.0369      0.3266    20.4759     20.3875     0.4336      12.5       1.8274      2.0881        
2012-08-02T10:22:30Z    Tianjin_2     45.5026     -157.4652   202.5348    32.3359     14.0111      0.3295    20.4764     20.3876     0.4355      12.5       1.8262      2.097         
2012-08-02T10:25:32Z    Tianjin_2     45.4993     -157.4408   202.5592    32.3323     13.9876      0.3277    20.4782     20.3877     0.444       12.5       1.8251      2.1375        
2012-08-02T10:28:33Z    Tianjin_2     45.4964     -157.4189   202.5811    32.325      13.9398      0.3343    20.4781     20.3879     0.4427      12.5       1.8229      2.1308        
2012-08-02T10:31:26Z    Tianjin_2     45.4936     -157.3985   202.6015    32.3225     13.9034      0.344     20.4788     20.388      0.4451      12.5       1.8213      2.1418        
2012-08-02T10:34:27Z    Tianjin_2     45.4906     -157.3762   202.6238    32.3257     13.9244      0.362     20.4782     20.3879     0.4429      12.5       1.8222      2.1314        
2012-08-02T10:37:29Z    Tianjin_2     45.4874     -157.3518   202.6482    32.327      13.9441      0.3653    20.4852     20.3879     0.4774      12.5       1.8273      2.3031        
2012-08-02T10:40:30Z    Tianjin_2     45.4844     -157.3278   202.6722    32.3295     13.8883      0.3888    20.4912     20.3881     0.5058      12.5       1.8247      2.4392        
2012-08-02T10:43:32Z    Tianjin_2     45.4818     -157.3068   202.6932    32.3304     13.9198      0.3949    20.4955     20.3879     0.5278      12.5       1.8262      2.5457        
2012-08-02T10:46:33Z    Tianjin_2     45.4791     -157.2854   202.7146    32.3332     13.9875      0.3849    20.4975     20.3877     0.5386      12.5       1.8293      2.599         
2012-08-02T10:49:26Z    Tianjin_2     45.4763     -157.263    202.737     32.3377     14.0405      0.357     20.5008     20.3875     0.5559      12.5       1.8318      2.6827        
2012-08-02T10:52:27Z    Tianjin_2     45.4735     -157.2401   202.7599    32.3366     14.05        0.3666    20.4995     20.3875     0.5493      12.5       1.8322      2.6513        
2012-08-02T10:55:29Z    Tianjin_2     45.4707     -157.2163   202.7837    32.3299     14.094       0.4095    20.4954     20.3873     0.5298      12.5       1.8342      2.5579        
2012-08-02T10:58:30Z    Tianjin_2     45.4679     -157.1934   202.8066    32.3267     14.1879      0.4279    20.4986     20.387      0.5471      12.5       1.8386      2.6427        
2012-08-02T11:01:32Z    Tianjin_2     45.4655     -157.1717   202.8283    32.3226     14.2954      0.3957    20.503      20.3866     0.5708      12.5       1.8436      2.7584        
2012-08-02T11:04:33Z    Tianjin_2     45.4629     -157.1496   202.8504    32.3177     14.4072      0.3659    20.5019     20.3863     0.5672      12.5       1.8488      2.7428        
2012-08-02T11:07:26Z    Tianjin_2     45.4602     -157.1269   202.8731    32.3154     14.3811      0.3737    20.4977     20.3864     0.5461      12.5       1.8476      2.6405        
2012-08-02T11:10:27Z    Tianjin_2     45.4575     -157.1042   202.8958    32.3161     14.3169      0.3994    20.4884     20.3866     0.4992      12.5       1.8554      2.4272        
2012-08-02T11:52:30Z    Tianjin_2     45.4212     -156.7841   203.2159    32.3134     14.793       0.2441    20.477      20.385      0.4517      12.5       1.8902      2.216         
2012-08-02T11:55:32Z    Tianjin_2     45.4187     -156.7616   203.2384    32.3139     14.8715      0.2406    20.4793     20.3847     0.464       12.5       1.8939      2.2771        
2012-08-02T11:58:33Z    Tianjin_2     45.4159     -156.7386   203.2614    32.3144     14.8215      0.2478    20.4807     20.3849     0.47        12.5       1.8916      2.3058        
2012-08-02T12:01:26Z    Tianjin_2     45.4133     -156.7169   203.2831    32.3148     14.7663      0.2486    20.4839     20.385      0.485       12.5       1.8889      2.3789        
2012-08-02T12:04:27Z    Tianjin_2     45.4105     -156.6948   203.3052    32.315      14.8205      0.2537    20.4817     20.3849     0.4749      12.5       1.8915      2.3303        
2012-08-02T12:07:29Z    Tianjin_2     45.4078     -156.6728   203.3272    32.3158     14.8555      0.2553    20.4803     20.3847     0.4688      12.5       1.8932      2.3005        
2012-08-02T12:10:30Z    Tianjin_2     45.4051     -156.65     203.35      32.3163     14.9193      0.2581    20.4826     20.3845     0.4809      12.5       1.8962      2.3607        
2012-08-02T12:13:32Z    Tianjin_2     45.4023     -156.6277   203.3723    32.3164     14.9038      0.2566    20.4788     20.3846     0.462       12.5       1.8955      2.2679        
2012-08-02T12:16:33Z    Tianjin_2     45.3997     -156.6063   203.3937    32.3163     14.8228      0.2726    20.4808     20.3849     0.4708      12.5       1.8983      2.3183        
2012-08-02T12:19:26Z    Tianjin_2     45.397      -156.5844   203.4156    32.3159     14.7719      0.2779    20.4811     20.385      0.4712      12.5       1.8959      2.3196        
2012-08-02T12:22:27Z    Tianjin_2     45.394      -156.56     203.44      32.3158     14.8231      0.2807    20.4838     20.3848     0.4854      12.5       1.8983      2.3902        
2012-08-02T12:25:29Z    Tianjin_2     45.3911     -156.5373   203.4627    32.3165     14.9295      0.2789    20.4833     20.3845     0.4849      12.5       1.9034      2.3889        
2012-08-02T12:28:30Z    Tianjin_2     45.3886     -156.516    203.484     32.3154     14.9056      0.2703    20.4837     20.3846     0.4862      12.5       1.9023      2.3949        
2012-08-02T12:31:32Z    Tianjin_2     45.3858     -156.4934   203.5066    32.3141     14.89        0.276     20.4827     20.3846     0.4812      12.5       1.9015      2.3704        
2012-08-02T12:34:33Z    Tianjin_2     45.3831     -156.4719   203.5281    32.3133     14.9005      0.2754    20.4803     20.3846     0.4695      12.5       1.902       2.3127        
2012-08-02T12:37:26Z    Tianjin_2     45.3804     -156.4497   203.5503    32.3118     14.9063      0.2852    20.4798     20.3846     0.4671      12.5       1.9023      2.301         
2012-08-02T12:40:27Z    Tianjin_2     45.3776     -156.4275   203.5725    32.3111     14.9295      0.2791    20.4778     20.3845     0.4576      12.5       1.9034      2.2543        
2012-08-02T12:43:29Z    Tianjin_2     45.3745     -156.405    203.595     32.3106     14.9819      0.2741    20.4746     20.3843     0.4431      12.5       1.8847      2.1594        
2012-08-02T12:46:30Z    Tianjin_2     45.3716     -156.3826   203.6174    32.3103     15.0012      0.2764    20.4706     20.3843     0.4235      12.5       1.8856      2.0638        
2012-08-02T12:49:32Z    Tianjin_2     45.3683     -156.3596   203.6404    32.3103     15.0131      0.2745    20.4711     20.3842     0.4263      12.5       1.8783      2.069         
2012-08-02T12:52:33Z    Tianjin_2     45.3654     -156.3377   203.6623    32.3108     15.0268      0.2694    20.4662     20.3842     0.4024      12.5       1.879       1.9534        
2012-08-02T12:55:26Z    Tianjin_2     45.3624     -156.3158   203.6842    32.312      15.0362      0.2748    20.4643     20.3841     0.3934      12.5       1.8794      1.9096        
2012-08-02T12:58:27Z    Tianjin_2     45.3591     -156.2928   203.7072    32.3143     15.0783      0.2716    20.4618     20.384      0.3817      12.5       1.8814      1.8531        
2012-08-02T13:01:29Z    Tianjin_2     45.3562     -156.2716   203.7284    32.3164     15.1402      0.2691    20.4601     20.3838     0.3742      12.5       1.8843      1.8172        
2012-08-02T13:04:30Z    Tianjin_2     45.353      -156.2499   203.7501    32.3187     15.2538      0.2593    20.459      20.3834     0.3711      12.5       1.8897      1.8034        
2012-08-02T13:07:32Z    Tianjin_2     45.3498     -156.2277   203.7723    32.3199     15.3076      0.2614    20.4548     20.3832     0.3512      12.5       1.8922      1.7072        
2012-08-02T13:10:33Z    Tianjin_2     45.3465     -156.2052   203.7948    32.3202     15.2366      0.2653    20.4522     20.3835     0.3371      12.5       1.8889      1.6378        
2012-08-02T13:13:26Z    Tianjin_2     45.3433     -156.1832   203.8168    32.3218     15.2508      0.2665    20.4477     20.3834     0.3155      12.5       1.8895      1.5332        
2012-08-02T13:16:27Z    Tianjin_2     45.3402     -156.1618   203.8382    32.3232     15.2002      0.2564    20.4467     20.3836     0.3095      12.5       1.8871      1.5037        
2012-08-02T13:19:29Z    Tianjin_2     45.3369     -156.1399   203.8601    32.3236     14.9839      0.2676    20.4451     20.3843     0.2985      12.5       1.8769      1.4486        
2012-08-02T13:22:30Z    Tianjin_2     45.3335     -156.1165   203.8835    32.3243     15.0171      0.2706    20.4439     20.3842     0.2929      12.5       1.8587      1.4065        
2012-08-02T13:25:32Z    Tianjin_2     45.3302     -156.0946   203.9054    32.3259     15.2128      0.2617    20.4463     20.3835     0.3082      12.5       1.8677      1.4813        
2012-08-02T13:28:33Z    Tianjin_2     45.3271     -156.0739   203.9261    32.326      15.1744      0.2676    20.4464     20.3837     0.3076      12.5       1.866       1.4784        
2012-08-02T13:31:26Z    Tianjin_2     45.3237     -156.0515   203.9485    32.3249     15.0496      0.2764    20.4411     20.3841     0.2798      12.5       1.8602      1.3441        
2012-08-02T13:34:27Z    Tianjin_2     45.3204     -156.0296   203.9704    32.3233     14.9726      0.2799    20.44       20.3843     0.2733      12.5       1.8566      1.3122        
2012-08-02T13:37:29Z    Tianjin_2     45.3172     -156.0079   203.9921    32.3225     14.9755      0.2709    20.4397     20.3843     0.2717      12.5       1.8568      1.3045        
2012-08-02T13:40:30Z    Tianjin_2     45.3142     -155.9857   204.0143    32.3222     14.9401      0.2799    20.4373     20.3844     0.2594      12.5       1.8551      1.2453        
2012-08-02T13:43:32Z    Tianjin_2     45.3113     -155.9638   204.0362    32.323      14.9152      0.2786    20.4399     20.3845     0.2714      12.5       1.854       1.3027        
2012-08-02T13:46:33Z    Tianjin_2     45.3083     -155.9415   204.0585    32.3247     14.8876      0.2732    20.4411     20.3846     0.2773      12.5       1.8527      1.3309        
2012-08-02T13:49:26Z    Tianjin_2     45.3054     -155.9191   204.0809    32.3259     14.8586      0.2766    20.4419     20.3847     0.2806      12.5       1.8513      1.3466        
2012-08-02T13:52:27Z    Tianjin_2     45.3024     -155.8969   204.1031    32.3269     14.8416      0.2937    20.4427     20.3848     0.284       12.5       1.8506      1.3624        
2012-08-02T13:55:29Z    Tianjin_2     45.2996     -155.8753   204.1247    32.3268     14.7019      0.3051    20.4445     20.3852     0.2906      12.5       1.8441      1.3933        
2012-08-02T13:58:30Z    Tianjin_2     45.2968     -155.8532   204.1468    32.326      14.5515      0.3097    20.4454     20.3858     0.2927      12.5       1.8075      1.3795        
2012-08-02T14:01:32Z    Tianjin_2     45.2938     -155.8299   204.1701    32.3262     14.546       0.3107    20.4546     20.3858     0.3376      12.5       1.8073      1.5913        
2012-08-02T14:04:33Z    Tianjin_2     45.2909     -155.808    204.192     32.327      14.5823      0.3174    20.464      20.3857     0.3841      12.5       1.8089      1.8108        
2012-08-02T14:07:26Z    Tianjin_2     45.2883     -155.7867   204.2133    32.3274     14.7908      0.3112    20.4676     20.3849     0.4054      12.5       1.8183      1.9128        
2012-08-02T14:10:27Z    Tianjin_2     45.2854     -155.7633   204.2367    32.3278     14.8748      0.3045    20.4739     20.3847     0.4379      12.5       1.822       2.067         
2012-08-02T14:52:30Z    Tianjin_2     45.2441     -155.4502   204.5498    32.3307     14.9863      0.3012    20.496      20.3843     0.5479      12.5       1.7917      2.5377        
2012-08-02T14:55:32Z    Tianjin_2     45.241      -155.428    204.572     32.3296     15.0293      0.2999    20.5033     20.3841     0.5844      12.5       1.7935      2.7074        
2012-08-02T14:58:33Z    Tianjin_2     45.2379     -155.4058   204.5942    32.3286     14.8813      0.3071    20.5095     20.3846     0.6125      12.5       1.7871      2.8357        
2012-08-02T15:01:26Z    Tianjin_2     45.2348     -155.3828   204.6172    32.33       14.9392      0.3095    20.5141     20.3844     0.6363      12.5       1.7896      2.9466        
2012-08-02T15:04:27Z    Tianjin_2     45.2318     -155.3604   204.6396    32.3297     14.8887      0.2923    20.5152     20.3846     0.6407      12.5       1.7536      2.9101        
2012-08-02T15:07:29Z    Tianjin_2     45.2288     -155.3391   204.6609    32.33       14.8238      0.2896    20.516      20.3848     0.6434      12.5       1.7509      2.9215        
2012-08-02T15:10:30Z    Tianjin_2     45.2255     -155.3166   204.6834    32.3303     14.813       0.2953    20.5166     20.3849     0.6465      12.5       1.7504      2.9356        
2012-08-02T15:13:32Z    Tianjin_2     45.2221     -155.2941   204.7059    32.3307     14.8753      0.3071    20.5177     20.3847     0.6529      12.5       1.753       2.9654        
2012-08-02T15:16:33Z    Tianjin_2     45.2189     -155.2724   204.7276    32.3304     14.8607      0.3054    20.5182     20.3847     0.6551      12.5       1.7524      2.9752        
2012-08-02T15:19:26Z    Tianjin_2     45.2157     -155.251    204.749     32.3302     14.937       0.2988    20.5179     20.3844     0.6545      12.5       1.7556      2.9733        
2012-08-02T15:22:27Z    Tianjin_2     45.2125     -155.2295   204.7705    32.3314     14.932       0.2761    20.5125     20.3845     0.6281      12.5       1.7554      2.8535        
2012-08-02T15:25:29Z    Tianjin_2     45.2091     -155.2073   204.7927    32.3322     15.0135      0.27      20.5081     20.3842     0.608       12.5       1.7588      2.7628        
2012-08-02T15:28:30Z    Tianjin_2     45.2058     -155.1849   204.8151    32.3308     15.0315      0.2617    20.5007     20.3841     0.5718      12.5       1.7596      2.5987        
2012-08-02T15:31:32Z    Tianjin_2     45.2025     -155.1631   204.8369    32.331      15.0352      0.2604    20.4946     20.3841     0.5419      12.5       1.7597      2.4626        
2012-08-02T15:34:33Z    Tianjin_2     45.1993     -155.1419   204.8581    32.3293     15.1017      0.2477    20.4909     20.3839     0.5251      12.5       1.7625      2.387         
2012-08-02T15:37:26Z    Tianjin_2     45.1961     -155.1198   204.8802    32.3253     15.1021      0.2539    20.4851     20.3839     0.4965      12.5       1.7329      2.219         
2012-08-02T15:40:27Z    Tianjin_2     45.1928     -155.0981   204.9019    32.3223     15.1206      0.2604    20.4817     20.3838     0.48        12.5       1.7336      2.1456        
2012-08-02T15:43:29Z    Tianjin_2     45.1897     -155.0771   204.9229    32.3177     15.0266      0.2452    20.4762     20.3842     0.4517      12.5       1.7298      2.0185        
2012-08-02T15:46:30Z    Tianjin_2     45.1864     -155.055    204.945     32.3129     15.0917      0.2323    20.4756     20.3839     0.4495      12.5       1.7325      2.0093        
2012-08-02T15:49:32Z    Tianjin_2     45.1832     -155.0329   204.9671    32.3124     15.1985      0.2314    20.4699     20.3836     0.4233      12.5       1.7368      1.8928        
2012-08-02T15:52:33Z    Tianjin_2     45.1799     -155.0111   204.9889    32.3106     15.2721      0.2321    20.4636     20.3833     0.3937      12.5       1.7398      1.7609        
2012-08-02T15:55:26Z    Tianjin_2     45.1766     -154.9888   205.0112    32.3095     15.1953      0.2336    20.4544     20.3836     0.3474      12.5       1.7367      1.5536        
2012-08-02T15:58:27Z    Tianjin_2     45.1733     -154.967    205.033     32.3068     15.196       0.2349    20.449      20.3836     0.3208      12.5       1.7367      1.4346        
2012-08-02T16:01:29Z    Tianjin_2     45.1701     -154.9452   205.0548    32.3069     15.1694      0.2425    20.4443     20.3837     0.2972      12.5       1.7357      1.3287        
2012-08-02T16:04:30Z    Tianjin_2     45.1666     -154.9227   205.0773    32.3042     15.2526      0.2378    20.4461     20.3834     0.3077      12.5       1.739       1.3762        
2012-08-02T16:07:32Z    Tianjin_2     45.1635     -154.9012   205.0988    32.3001     15.2895      0.2525    20.4476     20.3833     0.3157      12.5       1.7405      1.412         
2012-08-02T16:10:33Z    Tianjin_2     45.1603     -154.8802   205.1198    32.2962     15.2794      0.2495    20.4469     20.3833     0.3116      12.5       1.7401      1.3938        
2012-08-02T16:13:26Z    Tianjin_2     45.1569     -154.8583   205.1417    32.2964     15.3332      0.2422    20.4432     20.3832     0.2945      12.5       1.716       1.2978        
2012-08-02T16:16:27Z    Tianjin_2     45.1535     -154.8355   205.1645    32.2991     15.3898      0.2373    20.4432     20.383      0.2955      12.5       1.7183      1.3021        
2012-08-02T16:19:29Z    Tianjin_2     45.1503     -154.8137   205.1863    32.3009     15.4374      0.2334    20.4403     20.3828     0.2821      12.5       1.7201      1.2432        
2012-08-02T16:22:30Z    Tianjin_2     45.1472     -154.7932   205.2068    32.3021     15.3412      0.2186    20.4366     20.3831     0.2623      12.5       1.7163      1.1556        
2012-08-02T16:25:32Z    Tianjin_2     45.144      -154.7719   205.2281    32.2978     15.5781      0.2151    20.4321     20.3823     0.2443      12.5       1.7257      1.0773        
2012-08-02T16:28:33Z    Tianjin_2     45.1407     -154.75     205.25      32.2949     15.6607      0.2103    20.4296     20.3821     0.2333      12.5       1.729       1.0293        
2012-08-02T16:31:26Z    Tianjin_2     45.1374     -154.728    205.272     32.2956     15.5892      0.1952    20.425      20.3823     0.2092      12.5       1.7261      0.9225        
2012-08-02T16:34:27Z    Tianjin_2     45.1341     -154.7059   205.2941    32.2945     15.5977      0.1885    20.4202     20.3823     0.1861      12.5       1.7265      0.8207        
2012-08-02T16:37:29Z    Tianjin_2     45.1306     -154.6827   205.3173    32.2938     15.5271      0.1764    20.4187     20.3825     0.1773      12.5       1.7237      0.7818        
2012-08-02T16:40:30Z    Tianjin_2     45.1274     -154.6606   205.3394    32.2905     15.6455      0.1821    20.419      20.3821     0.1808      12.5       1.7284      0.7975        
2012-08-02T16:43:32Z    Tianjin_2     45.1243     -154.6401   205.3599    32.2861     15.8172      0.1866    20.4163     20.3816     0.1704      12.5       1.7025      0.7381        
2012-08-02T16:46:33Z    Tianjin_2     45.1212     -154.619    205.381     32.2875     15.5892      0.1756    20.4159     20.3823     0.1649      12.5       1.6698      0.7035        
2012-08-02T16:49:26Z    Tianjin_2     45.118      -154.5978   205.4022    32.2914     15.5096      0.1748    20.4126     20.3826     0.1473      12.5       1.6668      0.6283        
2012-08-02T16:52:27Z    Tianjin_2     45.1147     -154.5759   205.4241    32.2932     15.5839      0.1688    20.4122     20.3823     0.1465      12.5       1.6696      0.6251        
2012-08-02T16:55:29Z    Tianjin_2     45.1115     -154.5539   205.4461    32.29       15.7301      0.157     20.4081     20.3819     0.1288      12.5       1.6752      0.5497        
2012-08-02T16:58:30Z    Tianjin_2     45.1082     -154.5317   205.4683    32.2901     15.7166      0.1578    20.4064     20.3819     0.1203      12.5       1.6747      0.5133        
2012-08-02T17:01:32Z    Tianjin_2     45.105      -154.5097   205.4903    32.2906     15.6968      0.1651    20.4028     20.382      0.102       12.5       1.674       0.4355        
2012-08-02T17:04:33Z    Tianjin_2     45.102      -154.4887   205.5113    32.2906     15.6796      0.1684    20.4018     20.382      0.0971      12.5       1.6733      0.4144        
2012-08-02T17:07:26Z    Tianjin_2     45.099      -154.4677   205.5323    32.293      15.5707      0.165     20.4007     20.3824     0.0896      12.5       1.6691      0.3824        
2012-08-02T17:10:27Z    Tianjin_2     45.0959     -154.4459   205.5541    32.2889     15.7706      0.176     20.3983     20.3817     0.0815      12.5       1.6768      0.3478        
2012-08-02T17:52:30Z    Tianjin_2     45.0502     -154.1383   205.8617    32.3437     15.8696      0.1028    20.3873     20.3813     0.0293      12.5       1.6559      0.1233        
2012-08-02T17:55:32Z    Tianjin_2     45.0471     -154.1163   205.8837    32.3365     15.915       0.1095    20.3917     20.3812     0.0517      12.5       1.633       0.2142        
2012-08-02T17:58:33Z    Tianjin_2     45.0437     -154.0932   205.9068    32.3298     15.8808      0.1082    20.3943     20.3813     0.0638      12.5       1.6318      0.2644        
2012-08-02T18:01:26Z    Tianjin_2     45.0406     -154.0711   205.9289    32.3305     15.9383      0.1208    20.3935     20.3811     0.0608      12.5       1.6339      0.2521        
2012-08-02T18:04:27Z    Tianjin_2     45.0377     -154.0504   205.9496    32.3368     15.9976      0.1315    20.396      20.3809     0.0742      12.5       1.636       0.3074        
2012-08-02T18:07:29Z    Tianjin_2     45.0346     -154.0283   205.9717    32.3475     15.9928      0.1068    20.392      20.3809     0.0543      12.5       1.6358      0.225         
2012-08-02T18:10:30Z    Tianjin_2     45.0315     -154.0062   205.9938    32.3548     16.0385      0.1113    20.392      20.3808     0.0551      12.5       1.6375      0.2285        
2012-08-02T18:13:32Z    Tianjin_2     45.0282     -153.9825   206.0175    32.3557     15.9565      0.1172    20.3878     20.381      0.0333      12.5       1.6345      0.1381        
2012-08-02T18:16:33Z    Tianjin_2     45.0244     -153.9598   206.0402    32.3472     16.0158      0.1433    20.3876     20.3808     0.0329      12.5       1.6367      0.1366        
2012-08-02T18:19:26Z    Tianjin_2     45.0209     -153.939    206.061     32.3416     16.1097      0.1483    20.3886     20.3806     0.0395      12.5       1.6401      0.1637        
2012-08-02T18:22:27Z    Tianjin_2     45.0171     -153.9164   206.0836    32.3356     16.1164      0.1334    20.387      20.3805     0.0315      12.5       1.6403      0.1305        
2012-08-02T18:25:29Z    Tianjin_2     45.0134     -153.8944   206.1056    32.3364     16.0629      0.1196    20.3825     20.3807     0.0087      12.5       1.6384      0.0363        
2012-08-02T18:28:30Z    Tianjin_2     45.0098     -153.8727   206.1273    32.3466     16.0924      0.1034    20.3833     20.3806     0.0132      12.5       1.6178      0.0538        
2012-08-02T18:31:32Z    Tianjin_2     45.006      -153.8496   206.1504    32.3572     16.2371      0.0971    20.3802     20.3801     0.0005      12.5       1.6229      0.0019        
2012-08-02T18:34:33Z    Tianjin_2     45.0024     -153.8279   206.1721    32.355      16.3403      0.0996    20.3793     20.3798     -0.0023     12.5       1.6265      -0.0094       
2012-08-02T18:37:26Z    Tianjin_2     44.9988     -153.8063   206.1937    32.3522     16.2208      0.1022    20.3732     20.3802     -0.0344     12.5       1.6223      -0.141        
2012-08-02T18:40:27Z    Tianjin_2     44.9949     -153.7838   206.2162    32.3609     16.1635      0.0832    20.3657     20.3804     -0.0719     12.5       1.6203      -0.2941       
2012-08-02T18:43:29Z    Tianjin_2     44.9911     -153.7617   206.2383    32.3778     16.2145      0.0749    20.3664     20.3802     -0.0677     12.5       1.622       -0.2772       
2012-08-02T18:46:30Z    Tianjin_2     44.9874     -153.7399   206.2601    32.3903     16.2551      0.0825    20.3646     20.38       -0.0755     12.5       1.6234      -0.3088       
2012-08-02T18:49:32Z    Tianjin_2     44.9837     -153.718    206.282     32.3927     16.3279      0.0991    20.3644     20.3798     -0.0756     12.5       1.626       -0.3095       
2012-08-02T18:52:33Z    Tianjin_2     44.9799     -153.6958   206.3042    32.3931     16.4384      0.0812    20.3642     20.3794     -0.0748     12.5       1.6299      -0.3063       
2012-08-02T18:55:26Z    Tianjin_2     44.9762     -153.6736   206.3264    32.3924     16.4458      0.0815    20.3628     20.3794     -0.0814     12.5       1.6302      -0.333        
2012-08-02T18:58:27Z    Tianjin_2     44.9724     -153.6503   206.3497    32.3872     16.4022      0.0819    20.3613     20.3795     -0.0897     12.5       1.6286      -0.367        
2012-08-02T19:01:29Z    Tianjin_2     44.9688     -153.6282   206.3718    32.3875     16.4226      0.1006    20.3601     20.3795     -0.095      12.5       1.6293      -0.389        
2012-08-02T19:04:30Z    Tianjin_2     44.9654     -153.6072   206.3928    32.3987     16.4913      0.1026    20.3581     20.3792     -0.1037     12.5       1.6137      -0.4196       
2012-08-02T19:07:32Z    Tianjin_2     44.9615     -153.5839   206.4161    32.4093     16.4851      0.0865    20.3551     20.3793     -0.1185     12.5       1.6135      -0.4795       
2012-08-02T19:10:33Z    Tianjin_2     44.9578     -153.5615   206.4385    32.4224     16.6224      0.0836    20.3539     20.3788     -0.1221     12.5       1.6182      -0.4944       
2012-08-02T19:13:26Z    Tianjin_2     44.9542     -153.54     206.46      32.4296     16.6943      0.0962    20.3524     20.3786     -0.1283     12.5       1.6207      -0.5194       
2012-08-02T19:16:27Z    Tianjin_2     44.9505     -153.5181   206.4819    32.4231     16.486       0.0895    20.3503     20.3792     -0.1418     12.5       1.6135      -0.5741       
2012-08-02T19:19:29Z    Tianjin_2     44.9469     -153.4966   206.5034    32.4152     16.3746      0.0962    20.3504     20.3796     -0.1432     12.5       1.6097      -0.5795       
2012-08-02T19:22:30Z    Tianjin_2     44.9432     -153.4747   206.5253    32.4052     16.4174      0.1111    20.3513     20.3795     -0.1383     12.5       1.6112      -0.5597       
2012-08-02T19:25:32Z    Tianjin_2     44.9395     -153.4526   206.5474    32.3991     16.4178      0.12      20.3491     20.3795     -0.149      12.5       1.6112      -0.6031       
2012-08-02T19:28:33Z    Tianjin_2     44.9358     -153.4306   206.5694    32.3961     16.4454      0.1097    20.349      20.3794     -0.149      12.5       1.6121      -0.6031       
2012-08-02T19:31:26Z    Tianjin_2     44.9321     -153.4088   206.5912    32.3964     16.4832      0.0934    20.3463     20.3793     -0.1618     12.5       1.6134      -0.6551       
2012-08-02T19:34:27Z    Tianjin_2     44.9281     -153.3854   206.6146    32.3951     16.5445      0.1087    20.3406     20.3791     -0.1887     12.5       1.6156      -0.764        
2012-08-02T19:37:29Z    Tianjin_2     44.9243     -153.3626   206.6374    32.3929     16.548       0.1132    20.3419     20.3791     -0.1823     12.5       1.6036      -0.7325       
2012-08-02T19:40:30Z    Tianjin_2     44.9208     -153.3423   206.6577    32.3789     16.5604      0.0954    20.3404     20.3791     -0.1899     12.5       1.604       -0.7629       
2012-08-02T19:43:32Z    Tianjin_2     44.9173     -153.3211   206.6789    32.3587     16.5802      0.106     20.3394     20.379      -0.1943     12.5       1.6047      -0.781        
2012-08-02T19:46:33Z    Tianjin_2     44.9134     -153.2982   206.7018    32.3451     16.5351      0.0973    20.3326     20.3792     -0.2286     12.5       1.6032      -0.9187       
2012-08-02T19:49:26Z    Tianjin_2     44.9099     -153.276    206.724     32.3279     16.4847      0.0927    20.3295     20.3794     -0.2445     12.5       1.6015      -0.9828       
2012-08-02T19:52:27Z    Tianjin_2     44.9065     -153.2549   206.7451    32.3159     16.5157      0.0932    20.3267     20.3793     -0.2579     12.5       1.6026      -1.0367       
2012-08-02T19:55:29Z    Tianjin_2     44.9029     -153.2329   206.7671    32.3217     16.5144      0.0861    20.3253     20.3793     -0.2647     12.5       1.6025      -1.0641       
2012-08-02T19:58:30Z    Tianjin_2     44.8993     -153.2101   206.7899    32.3556     16.6187      0.1001    20.3249     20.3789     -0.2651     12.5       1.606       -1.0657       
2012-08-02T20:01:32Z    Tianjin_2     44.8959     -153.188    206.812     32.3696     16.6924      0.1032    20.3255     20.3787     -0.2609     12.5       1.6085      -1.0489       
2012-08-02T20:04:33Z    Tianjin_2     44.8927     -153.1666   206.8334    32.3687     16.6701      0.1058    20.3269     20.3787     -0.2544     12.5       1.6077      -1.0224       
2012-08-02T20:07:26Z    Tianjin_2     44.8892     -153.1444   206.8556    32.3696     16.5826      0.0981    20.3308     20.379      -0.2367     12.5       1.6048      -0.9512       
2012-08-02T20:10:27Z    Tianjin_2     44.886      -153.1225   206.8775    32.3564     16.6247      0.0879    20.3299     20.3789     -0.2402     12.5       1.6023      -0.9631       
2012-08-02T20:52:30Z    Tianjin_2     44.8372     -152.8121   207.1879    32.3235     16.7376      0.0674    20.3434     20.3786     -0.1727     12.5       1.5793      -0.681        
2012-08-02T20:55:32Z    Tianjin_2     44.8338     -152.7901   207.2099    32.3279     16.889       0.0678    20.3494     20.3781     -0.1409     12.5       1.5843      -0.556        
2012-08-02T20:58:33Z    Tianjin_2     44.8306     -152.7693   207.2307    32.3349     16.9585      0.056     20.3492     20.3779     -0.1407     12.5       1.5866      -0.5553       
2012-08-02T21:01:26Z    Tianjin_2     44.8272     -152.7472   207.2528    32.3439     16.8803      0.058     20.3506     20.3781     -0.1348     12.5       1.584       -0.5316       
2012-08-02T21:04:27Z    Tianjin_2     44.8237     -152.7247   207.2753    32.3577     16.7861      0.062     20.3481     20.3784     -0.1486     12.5       1.5808      -0.5859       
2012-08-02T21:07:29Z    Tianjin_2     44.8202     -152.7031   207.2969    32.3696     16.7231      0.0594    20.3497     20.3786     -0.1416     12.5       1.5787      -0.5583       
2012-08-02T21:10:30Z    Tianjin_2     44.8165     -152.6799   207.3201    32.3763     16.7214      0.0596    20.3505     20.3786     -0.1378     12.5       1.5786      -0.5435       
2012-08-02T21:13:32Z    Tianjin_2     44.8129     -152.658    207.342     32.3788     16.77        0.0537    20.3566     20.3784     -0.1068     12.5       1.5803      -0.421        
2012-08-02T21:16:33Z    Tianjin_2     44.8095     -152.6376   207.3624    32.3778     16.7663      0.0568    20.3563     20.3784     -0.1084     12.5       1.5801      -0.4273       
2012-08-02T21:19:26Z    Tianjin_2     44.8059     -152.6154   207.3846    32.3741     16.6964      0.048     20.3577     20.3786     -0.1025     12.5       1.5797      -0.4045       
2012-08-02T21:22:27Z    Tianjin_2     44.8022     -152.5935   207.4065    32.3723     16.8175      0.0441    20.3586     20.3783     -0.0965     12.5       1.5837      -0.381        
2012-08-02T21:25:29Z    Tianjin_2     44.7984     -152.5716   207.4284    32.3669     16.8049      0.0489    20.357      20.3783     -0.1044     12.5       1.5833      -0.4121       
2012-08-02T21:28:30Z    Tianjin_2     44.7946     -152.5493   207.4507    32.3587     16.7599      0.048     20.3558     20.3785     -0.1114     12.5       1.5818      -0.4398       
2012-08-02T21:31:32Z    Tianjin_2     44.7905     -152.5263   207.4737    32.3533     16.729       0.0503    20.3547     20.3786     -0.1172     12.5       1.5808      -0.4626       
2012-08-02T21:34:33Z    Tianjin_2     44.7867     -152.5045   207.4955    32.3526     16.6479      0.055     20.3506     20.3788     -0.1385     12.5       1.5781      -0.5466       
2012-08-02T21:37:26Z    Tianjin_2     44.7829     -152.4827   207.5173    32.3563     16.6366      0.0514    20.3468     20.3788     -0.1572     12.5       1.5778      -0.6205       
2012-08-02T21:40:27Z    Tianjin_2     44.779      -152.4606   207.5394    32.3648     16.6904      0.0661    20.3488     20.3787     -0.1465     12.5       1.5795      -0.5785       
2012-08-02T21:43:29Z    Tianjin_2     44.775      -152.4384   207.5616    32.3726     16.7964      0.0839    20.3466     20.3783     -0.1556     12.5       1.583       -0.6142       
2012-08-02T21:46:30Z    Tianjin_2     44.7707     -152.4139   207.5861    32.3669     16.8588      0.0807    20.3484     20.3781     -0.1461     12.5       1.5851      -0.5769       
2012-08-02T21:49:32Z    Tianjin_2     44.7666     -152.3915   207.6085    32.3543     16.8487      0.0533    20.3479     20.3782     -0.1485     12.5       1.5848      -0.5863       
2012-08-02T21:52:33Z    Tianjin_2     44.7629     -152.3709   207.6291    32.3427     16.8858      0.0588    20.3453     20.3781     -0.161      12.5       1.589       -0.637        
2012-08-02T21:55:26Z    Tianjin_2     44.759      -152.3498   207.6502    32.3332     16.9605      0.0514    20.342      20.3779     -0.1758     12.5       1.5916      -0.6959       
2012-08-02T21:58:27Z    Tianjin_2     44.755      -152.3281   207.6719    32.3277     16.9563      0.0622    20.3352     20.3779     -0.2094     12.5       1.5914      -0.8288       
2012-08-02T22:01:29Z    Tianjin_2     44.751      -152.3056   207.6944    32.326      16.8946      0.0635    20.3342     20.3781     -0.2154     12.5       1.5894      -0.8525       
2012-08-02T22:04:30Z    Tianjin_2     44.7471     -152.2841   207.7159    32.3297     16.9387      0.0502    20.3324     20.3779     -0.2233     12.5       1.5908      -0.8837       
2012-08-02T22:07:32Z    Tianjin_2     44.743      -152.2622   207.7378    32.3402     16.93        0.0441    20.3329     20.3779     -0.221      12.5       1.5905      -0.8747       
2012-08-02T22:10:33Z    Tianjin_2     44.739      -152.2402   207.7598    32.3656     17.0724      0.0394    20.3318     20.3775     -0.2241     12.5       1.5952      -0.8869       
2012-08-02T22:13:26Z    Tianjin_2     44.7352     -152.2189   207.7811    32.3998     17.0726      0.044     20.3285     20.3774     -0.2401     12.5       1.5952      -0.9499       
2012-08-02T22:16:27Z    Tianjin_2     44.7314     -152.1973   207.8027    32.4134     17.1019      0.0421    20.3291     20.3773     -0.2364     12.5       1.5961      -0.9354       
2012-08-02T22:19:29Z    Tianjin_2     44.7276     -152.1754   207.8246    32.4084     17.098       0.0358    20.331      20.3773     -0.2273     12.5       1.596       -0.8994       
2012-08-02T22:22:30Z    Tianjin_2     44.7238     -152.1538   207.8462    32.4046     17.0785      0.0409    20.3311     20.3774     -0.2271     12.5       1.5954      -0.8987       
2012-08-02T22:25:32Z    Tianjin_2     44.7201     -152.1317   207.8683    32.4065     17.1125      0.0408    20.334      20.3773     -0.2126     12.5       1.5965      -0.8411       
2012-08-02T22:28:33Z    Tianjin_2     44.7164     -152.1095   207.8905    32.4084     17.1134      0.04      20.3368     20.3773     -0.1986     12.5       1.5948      -0.7848       
2012-08-02T22:31:26Z    Tianjin_2     44.7115     -152.0882   207.9118    32.4046     17.1005      0.0351    20.3426     20.3773     -0.1702     12.5       1.5944      -0.6726       
2012-08-02T22:34:27Z    Tianjin_2     44.7031     -152.0695   207.9305    32.4014     17.0888      0.0464    20.3531     20.3774     -0.1193     12.5       1.594       -0.4714       
2012-08-02T22:37:29Z    Tianjin_2     44.692      -152.0531   207.9469    32.4004     17.1986      0.0441    20.3596     20.377      -0.0855     12.5       1.5977      -0.3381       
2012-08-02T22:40:30Z    Tianjin_2     44.6788     -152.0397   207.9603    32.4035     17.1993      0.0464    20.3681     20.377      -0.0439     12.5       1.5977      -0.1736       
2012-08-02T22:43:32Z    Tianjin_2     44.6657     -152.0276   207.9724    32.4102     17.2066      0.0424    20.3687     20.377      -0.0407     12.5       1.598       -0.1611       
2012-08-02T22:46:33Z    Tianjin_2     44.6544     -152.0126   207.9874    32.4175     17.1441      0.0461    20.3672     20.3772     -0.0491     12.5       1.5959      -0.1939       
2012-08-02T22:49:26Z    Tianjin_2     44.6464     -151.9944   208.0056    32.4217     17.0344      0.0464    20.3671     20.3775     -0.0512     12.5       1.5922      -0.2024       
2012-08-02T22:52:27Z    Tianjin_2     44.6428     -151.9738   208.0262    32.4198     17.0352      0.0489    20.3641     20.3775     -0.0657     12.5       1.5922      -0.2596       
2012-08-02T22:55:29Z    Tianjin_2     44.6427     -151.9517   208.0483    32.4082     17.0481      0.0444    20.3687     20.3775     -0.043      12.5       1.5927      -0.1699       
2012-08-02T22:58:30Z    Tianjin_2     44.6468     -151.9294   208.0706    32.39       17.0034      0.0508    20.3715     20.3776     -0.03       12.5       1.5912      -0.1188       
2012-08-02T23:01:32Z    Tianjin_2     44.6538     -151.9104   208.0896    32.3764     17.1599      0.0567    20.3714     20.3772     -0.0282     12.5       1.5965      -0.1117       
2012-08-02T23:04:33Z    Tianjin_2     44.663      -151.895    208.105     32.369      17.1661      0.0523    20.3748     20.3772     -0.0115     12.5       1.5967      -0.0456       
2012-08-02T23:07:26Z    Tianjin_2     44.6747     -151.8813   208.1187    32.3648     17.3432      0.042     20.3723     20.3766     -0.0215     12.5       1.6026      -0.0851       
2012-08-02T23:10:27Z    Tianjin_2     44.6883     -151.8699   208.1301    32.3678     17.4959      0.0539    20.3705     20.3762     -0.0276     12.5       1.599       -0.1086       
2012-08-03T06:55:26Z    Tianjin_2     44.073      -148.7142   211.2858    32.3793     17.8021      0.2909    20.4408     20.3752     0.3216      12.5       1.235       0.9716        
2012-08-03T06:58:27Z    Tianjin_2     44.0685     -148.6926   211.3074    32.3807     17.7666      0.284     20.4364     20.3753     0.2999      12.5       1.2341      0.9058        
2012-08-03T07:01:29Z    Tianjin_2     44.0642     -148.6721   211.3279    32.3814     17.8924      0.3149    20.4386     20.3749     0.3126      12.5       1.2373      0.9444        
2012-08-03T07:04:30Z    Tianjin_2     44.0596     -148.6503   211.3497    32.3854     17.8488      0.3171    20.4419     20.3751     0.3282      12.5       1.2362      0.9916        
2012-08-03T07:07:32Z    Tianjin_2     44.055      -148.6284   211.3716    32.3877     17.7707      0.3064    20.4552     20.3753     0.3919      12.5       1.2342      1.1838        
2012-08-03T07:10:33Z    Tianjin_2     44.0511     -148.609    211.391     32.3887     17.8185      0.2934    20.4665     20.3752     0.4482      12.5       1.213       1.3292        
2012-08-03T07:13:26Z    Tianjin_2     44.0469     -148.5887   211.4113    32.3898     17.8332      0.286     20.4677     20.3751     0.4546      12.5       1.2134      1.3483        
2012-08-03T07:16:27Z    Tianjin_2     44.0423     -148.5663   211.4337    32.3896     17.7657      0.2641    20.46       20.3753     0.4156      12.5       1.2117      1.2324        
2012-08-03T07:19:29Z    Tianjin_2     44.038      -148.5451   211.4549    32.3907     17.6803      0.2491    20.4513     20.3756     0.3718      12.5       1.2095      1.1026        
2012-08-03T07:22:30Z    Tianjin_2     44.0338     -148.5251   211.4749    32.3908     17.7283      0.2694    20.4295     20.3754     0.2655      12.5       1.2107      0.7875        
2012-08-03T07:25:32Z    Tianjin_2     44.0296     -148.5048   211.4952    32.3904     17.7403      0.2653    20.4195     20.3754     0.2166      12.5       1.211       0.6423        
2012-08-03T07:28:33Z    Tianjin_2     44.0252     -148.4839   211.5161    32.3895     17.7077      0.2655    20.4169     20.3755     0.203       12.5       1.2102      0.602         
2012-08-03T07:31:26Z    Tianjin_2     44.0208     -148.4627   211.5373    32.3898     17.7388      0.2666    20.4121     20.3754     0.1802      12.5       1.211       0.5345        
2012-08-03T07:34:27Z    Tianjin_2     44.0162     -148.4412   211.5588    32.3894     17.7024      0.2559    20.4089     20.3755     0.1637      12.5       1.2101      0.4854        
2012-08-03T07:37:29Z    Tianjin_2     44.0119     -148.4206   211.5794    32.3879     17.7022      0.2505    20.4039     20.3755     0.1392      12.5       1.2101      0.4128        
2012-08-03T07:40:30Z    Tianjin_2     44.0077     -148.4003   211.5997    32.3882     17.6434      0.2466    20.4021     20.3757     0.1299      12.5       1.2086      0.3851        
2012-08-03T07:43:32Z    Tianjin_2     44.0033     -148.3793   211.6207    32.3888     17.5844      0.251     20.402      20.3759     0.1282      12.5       1.2071      0.3802        
2012-08-03T07:46:33Z    Tianjin_2     43.999      -148.3586   211.6414    32.3885     17.6325      0.2538    20.4059     20.3757     0.1481      12.5       1.193       0.4334        
2012-08-03T07:49:26Z    Tianjin_2     43.9947     -148.3375   211.6625    32.3881     17.6505      0.2505    20.4077     20.3757     0.1572      12.5       1.1935      0.4601        
2012-08-03T07:52:27Z    Tianjin_2     43.99       -148.3152   211.6848    32.3862     17.6418      0.2556    20.4089     20.3757     0.163       12.5       1.1933      0.4773        
2012-08-03T07:55:29Z    Tianjin_2     43.9856     -148.2942   211.7058    32.3847     17.6496      0.2629    20.4032     20.3757     0.1353      12.5       1.1934      0.3961        
2012-08-03T07:58:30Z    Tianjin_2     43.9815     -148.2746   211.7254    32.3853     17.5367      0.2487    20.399      20.376      0.1129      12.5       1.1906      0.3305        
2012-08-03T08:01:32Z    Tianjin_2     43.9771     -148.2536   211.7464    32.3855     17.5566      0.2465    20.396      20.376      0.0984      12.5       1.1911      0.288         
2012-08-03T08:04:33Z    Tianjin_2     43.9728     -148.2331   211.7669    32.3868     17.4753      0.2372    20.3947     20.3762     0.091       12.5       1.1891      0.2664        
2012-08-03T08:07:26Z    Tianjin_2     43.9685     -148.2128   211.7872    32.3876     17.4607      0.2299    20.3955     20.3762     0.0944      12.5       1.1888      0.2763        
2012-08-03T08:10:27Z    Tianjin_2     43.9642     -148.1921   211.8079    32.3881     17.4692      0.2323    20.3927     20.3762     0.0811      12.5       1.189       0.2373        
2012-08-03T08:13:29Z    Tianjin_2     43.9594     -148.1694   211.8306    32.3888     17.5637      0.2384    20.3928     20.3759     0.0829      12.5       1.1913      0.2427        
2012-08-03T08:16:30Z    Tianjin_2     43.9549     -148.1487   211.8513    32.3889     17.5224      0.2429    20.3934     20.3761     0.085       12.5       1.1903      0.2488        
2012-08-03T08:19:32Z    Tianjin_2     43.9508     -148.1296   211.8704    32.3879     17.5656      0.2452    20.3889     20.3759     0.0638      12.5       1.1914      0.1868        
2012-08-03T08:22:33Z    Tianjin_2     43.9462     -148.1086   211.8914    32.3848     17.5214      0.2376    20.3864     20.3761     0.0506      12.5       1.1823      0.147         
2012-08-03T08:25:26Z    Tianjin_2     43.9416     -148.088    211.912     32.3834     17.4053      0.2373    20.3803     20.3764     0.0192      12.5       1.1794      0.0559        
2012-08-03T08:28:27Z    Tianjin_2     43.9368     -148.0668   211.9332    32.3826     17.3658      0.2393    20.3784     20.3765     0.009       12.5       1.1784      0.0261        
2012-08-03T08:31:29Z    Tianjin_2     43.9321     -148.0455   211.9545    32.3822     17.3031      0.2391    20.379      20.3767     0.0113      12.5       1.1769      0.033         
2012-08-03T08:34:30Z    Tianjin_2     43.9279     -148.0255   211.9745    32.3839     17.242       0.2465    20.3817     20.3769     0.0237      12.5       1.1754      0.0687        
2012-08-03T08:37:32Z    Tianjin_2     43.9236     -148.0041   211.9959    32.3856     17.2464      0.2543    20.3842     20.3769     0.0358      12.5       1.1755      0.1041        
2012-08-03T08:40:33Z    Tianjin_2     43.9193     -147.9832   212.0168    32.3855     17.3328      0.2656    20.387      20.3766     0.0506      12.5       1.1776      0.1471        
2012-08-03T08:43:26Z    Tianjin_2     43.9152     -147.9625   212.0375    32.3842     17.4615      0.2941    20.3902     20.3762     0.0683      12.5       1.1808      0.1984        
2012-08-03T08:46:27Z    Tianjin_2     43.9106     -147.9403   212.0597    32.3851     17.3925      0.2946    20.3909     20.3765     0.0709      12.5       1.1791      0.2062        
2012-08-03T08:49:29Z    Tianjin_2     43.9064     -147.9195   212.0805    32.3855     17.3577      0.2922    20.385      20.3766     0.0414      12.5       1.1782      0.1202        
2012-08-03T08:52:30Z    Tianjin_2     43.9023     -147.8999   212.1001    32.384      17.4644      0.2975    20.3854     20.3762     0.0447      12.5       1.1809      0.13          
2012-08-03T08:55:32Z    Tianjin_2     43.8978     -147.88     212.12      32.3829     17.4592      0.2992    20.3849     20.3763     0.0422      12.5       1.1807      0.1228        
2012-08-03T09:43:29Z    Tianjin_2     43.8228     -147.5445   212.4555    32.3773     17.2933      0.28      20.4485     20.3768     0.3519      12.5       1.1379      0.9891        
2012-08-03T09:46:30Z    Tianjin_2     43.8174     -147.521    212.479     32.3757     17.2584      0.2875    20.4517     20.3769     0.3671      12.5       1.1371      1.0317        
2012-08-03T09:49:32Z    Tianjin_2     43.8128     -147.5006   212.4994    32.3732     17.3655      0.2925    20.4609     20.3766     0.4141      12.5       1.1397      1.1643        
2012-08-03T09:52:33Z    Tianjin_2     43.8089     -147.482    212.518     32.3706     17.4529      0.2827    20.4665     20.3763     0.4427      12.5       1.1419      1.2448        
2012-08-03T09:55:26Z    Tianjin_2     43.8044     -147.4608   212.5392    32.3692     17.4407      0.3001    20.4702     20.3763     0.4608      12.5       1.1416      1.2958        
2012-08-03T09:58:27Z    Tianjin_2     43.7999     -147.4392   212.5608    32.3702     17.4198      0.3084    20.4648     20.3764     0.434       12.5       1.141       1.2202        
2012-08-03T10:01:29Z    Tianjin_2     43.7951     -147.4164   212.5836    32.3709     17.3473      0.3184    20.4645     20.3766     0.4312      12.5       1.1393      1.2123        
2012-08-03T10:04:30Z    Tianjin_2     43.791      -147.3967   212.6033    32.3747     17.2492      0.3223    20.4647     20.3769     0.4307      12.5       1.1369      1.2106        
2012-08-03T10:07:32Z    Tianjin_2     43.7868     -147.3773   212.6227    32.3791     17.2537      0.3149    20.4649     20.3769     0.4318      12.5       1.137       1.2134        
2012-08-03T10:10:33Z    Tianjin_2     43.7823     -147.3557   212.6443    32.3804     17.4285      0.3088    20.4682     20.3764     0.451       12.5       1.1426      1.2696        
2012-08-03T10:13:26Z    Tianjin_2     43.7779     -147.3347   212.6653    32.3829     17.4353      0.3024    20.4702     20.3763     0.4606      12.5       1.1428      1.2965        
2012-08-03T10:16:27Z    Tianjin_2     43.7734     -147.3127   212.6873    32.3847     17.5139      0.3036    20.4682     20.3761     0.4521      12.5       1.1448      1.2728        
2012-08-03T10:19:29Z    Tianjin_2     43.7688     -147.2905   212.7095    32.3881     17.6446      0.3237    20.4666     20.3757     0.4461      12.5       1.148       1.2565        
2012-08-03T10:22:30Z    Tianjin_2     43.7647     -147.2702   212.7298    32.3935     17.5517      0.338     20.4632     20.376      0.4283      12.5       1.1457      1.206         
2012-08-03T10:25:32Z    Tianjin_2     43.7606     -147.2495   212.7505    32.3959     17.45        0.3346    20.4582     20.3763     0.4022      12.5       1.1432      1.132         
2012-08-03T10:28:33Z    Tianjin_2     43.7563     -147.2272   212.7728    32.3933     17.5545      0.3324    20.4687     20.3759     0.4554      12.5       1.1457      1.2822        
2012-08-03T10:31:26Z    Tianjin_2     43.7523     -147.2068   212.7932    32.3862     17.5915      0.2895    20.4771     20.3758     0.4968      12.5       1.1467      1.3989        
2012-08-03T10:34:27Z    Tianjin_2     43.7486     -147.1871   212.8129    32.3846     17.6446      0.2556    20.4695     20.3757     0.4603      12.5       1.148       1.2963        
2012-08-03T10:37:29Z    Tianjin_2     43.7445     -147.1648   212.8352    32.3896     17.6734      0.2764    20.4564     20.3756     0.3964      12.5       1.1487      1.1166        
2012-08-03T10:40:30Z    Tianjin_2     43.7406     -147.1434   212.8566    32.3949     17.5533      0.286     20.4383     20.376      0.3062      12.5       1.1457      0.862         
2012-08-03T10:43:32Z    Tianjin_2     43.7368     -147.122    212.878     32.3938     17.5354      0.2865    20.4305     20.376      0.2673      12.5       1.1465      0.7534        
2012-08-03T10:46:33Z    Tianjin_2     43.7328     -147.1009   212.8991    32.3919     17.6721      0.2784    20.4311     20.3756     0.2726      12.5       1.1499      0.7685        
2012-08-03T10:49:26Z    Tianjin_2     43.7291     -147.0802   212.9198    32.3942     17.626       0.2943    20.4317     20.3757     0.2745      12.5       1.1488      0.7739        
2012-08-03T10:52:27Z    Tianjin_2     43.7249     -147.0574   212.9426    32.3965     17.6275      0.2903    20.4228     20.3757     0.2312      12.5       1.1488      0.6516        
2012-08-03T10:55:29Z    Tianjin_2     43.721      -147.036    212.964     32.3983     17.7696      0.292     20.4168     20.3753     0.2038      12.5       1.1523      0.5748        
2012-08-03T10:58:30Z    Tianjin_2     43.7172     -147.0157   212.9843    32.4002     17.8365      0.2946    20.4112     20.3751     0.1773      12.5       1.154       0.5001        
2012-08-03T11:01:32Z    Tianjin_2     43.7131     -146.9943   213.0057    32.4017     17.7817      0.2831    20.4035     20.3753     0.1389      12.5       1.1526      0.3916        
2012-08-03T11:04:33Z    Tianjin_2     43.7083     -146.973    213.027     32.4001     17.8923      0.2766    20.3988     20.3749     0.1172      12.5       1.1554      0.3305        
2012-08-03T11:07:26Z    Tianjin_2     43.7034     -146.9515   213.0485    32.4002     17.9334      0.2661    20.3963     20.3748     0.1055      12.5       1.1564      0.2975        
2012-08-03T11:10:27Z    Tianjin_2     43.6984     -146.9303   213.0697    32.3992     18.0145      0.2687    20.388      20.3746     0.0661      12.5       1.1584      0.1865        
2012-08-03T11:13:29Z    Tianjin_2     43.6935     -146.9094   213.0906    32.3996     18.0884      0.2514    20.375      20.3743     0.0034      12.5       1.1602      0.0095        
2012-08-03T11:16:30Z    Tianjin_2     43.6886     -146.8885   213.1115    32.4        18.1258      0.2348    20.3615     20.3742     -0.0626     12.5       1.1612      -0.1766       
2012-08-03T11:19:32Z    Tianjin_2     43.6838     -146.8678   213.1322    32.3998     18.0648      0.2243    20.3455     20.3744     -0.1418     12.5       1.1623      -0.401        
2012-08-03T11:22:33Z    Tianjin_2     43.6782     -146.8446   213.1554    32.3985     18.0023      0.2117    20.3292     20.3746     -0.2228     12.5       1.1608      -0.63         
2012-08-03T11:25:26Z    Tianjin_2     43.6732     -146.8231   213.1769    32.3967     18.0346      0.2038    20.3154     20.3745     -0.2901     12.5       1.1616      -0.8207       
2012-08-03T11:28:27Z    Tianjin_2     43.6688     -146.8049   213.1951    32.3941     18.0683      0.2075    20.3057     20.3744     -0.3373     12.5       1.1624      -0.9542       
2012-08-03T11:31:29Z    Tianjin_2     43.6641     -146.7847   213.2153    32.3931     18.1577      0.2072    20.2966     20.3741     -0.3804     12.5       1.1646      -1.0762       
2012-08-03T11:34:30Z    Tianjin_2     43.6589     -146.7639   213.2361    32.3893     18.2364      0.2089    20.2876     20.3739     -0.4237     12.5       1.1666      -1.1991       
2012-08-03T11:37:32Z    Tianjin_2     43.6534     -146.7413   213.2587    32.3851     18.2128      0.2208    20.2773     20.374      -0.4744     12.5       1.166       -1.3425       
2012-08-03T11:40:33Z    Tianjin_2     43.6484     -146.7205   213.2795    32.3809     18.2252      0.2102    20.2702     20.374      -0.5092     12.5       1.1663      -1.4411       
2012-08-03T11:43:26Z    Tianjin_2     43.6434     -146.6997   213.3003    32.3773     18.3331      0.2125    20.2692     20.3736     -0.5127     12.5       1.169       -1.4513       
2012-08-03T11:46:27Z    Tianjin_2     43.6369     -146.6724   213.3276    32.3749     18.3373      0.2081    20.2737     20.3736     -0.4904     12.5       1.1691      -1.3882       
2012-08-03T11:49:29Z    Tianjin_2     43.6316     -146.6511   213.3489    32.3777     18.3559      0.2108    20.2783     20.3736     -0.4676     12.5       1.1696      -1.3237       
2012-08-03T11:52:30Z    Tianjin_2     43.6278     -146.6355   213.3645    32.3766     18.3284      0.2115    20.2817     20.3737     -0.4514     12.5       1.1689      -1.2779       
2012-08-03T11:55:32Z    Tianjin_2     43.623      -146.6163   213.3837    32.379      18.297       0.215     20.2855     20.3738     -0.4332     12.5       1.1501      -1.2074       
2012-08-03T12:43:29Z    Tianjin_2     43.5433     -146.2853   213.7147    32.4209     18.6432      0.2705    20.4447     20.3727     0.3536      12.5       1.1713      0.9967        
2012-08-03T12:46:30Z    Tianjin_2     43.5382     -146.2629   213.7371    32.4224     18.6547      0.2761    20.4504     20.3726     0.3818      12.5       1.1715      1.0762        
2012-08-03T12:49:32Z    Tianjin_2     43.5335     -146.2418   213.7582    32.4265     18.5914      0.2821    20.4526     20.3728     0.3916      12.5       1.17        1.1038        
2012-08-03T12:52:33Z    Tianjin_2     43.5292     -146.2228   213.7772    32.4389     18.5698      0.3013    20.4503     20.3729     0.3803      12.5       1.1694      1.0717        
2012-08-03T12:55:26Z    Tianjin_2     43.5249     -146.2037   213.7963    32.452      18.638       0.3156    20.4577     20.3727     0.4174      12.5       1.1711      1.1763        
2012-08-03T12:58:27Z    Tianjin_2     43.5201     -146.1831   213.8169    32.4646     18.8375      0.3356    20.4794     20.3721     0.5267      12.5       1.176       1.4851        
2012-08-03T13:01:29Z    Tianjin_2     43.5153     -146.1621   213.8379    32.4723     18.9324      0.3507    20.5043     20.3718     0.6506      12.5       1.1783      1.8344        
2012-08-03T13:04:30Z    Tianjin_2     43.5103     -146.1408   213.8592    32.4968     18.8971      0.3776    20.5116     20.3718     0.6862      12.5       1.1774      1.9343        
2012-08-03T13:07:32Z    Tianjin_2     43.5057     -146.1207   213.8793    32.5172     18.8905      0.402     20.5153     20.3718     0.7042      12.5       1.1946      2.0142        
2012-08-03T13:10:33Z    Tianjin_2     43.5012     -146.101    213.899     32.5289     18.9641      0.4309    20.5244     20.3716     0.7499      12.5       1.1964      2.1451        
2012-08-03T13:13:26Z    Tianjin_2     43.4964     -146.0802   213.9198    32.5348     19.0372      0.4794    20.5363     20.3714     0.8094      12.5       1.1983      2.3155        
2012-08-03T13:16:27Z    Tianjin_2     43.4916     -146.0592   213.9408    32.5362     19.1376      0.4527    20.547      20.3711     0.8637      12.5       1.2008      2.4712        
2012-08-03T13:19:29Z    Tianjin_2     43.4868     -146.0377   213.9623    32.5351     19.1994      0.4498    20.5692     20.3709     0.9734      12.5       1.2023      2.7856        
2012-08-03T13:22:30Z    Tianjin_2     43.4819     -146.0159   213.9841    32.5181     19.2552      0.4253    20.5878     20.3708     1.0653      12.5       1.2037      3.0493        
2012-08-03T13:25:32Z    Tianjin_2     43.4771     -145.9946   214.0054    32.5038     19.2625      0.4069    20.588      20.3708     1.0661      12.5       1.204       3.052         
2012-08-03T13:28:33Z    Tianjin_2     43.4725     -145.9738   214.0262    32.5034     19.2201      0.3853    20.5778     20.3709     1.0154      12.5       1.2029      2.9068        
2012-08-03T13:31:26Z    Tianjin_2     43.468      -145.9535   214.0465    32.5175     19.2465      0.3735    20.5654     20.3708     0.9553      12.5       1.2035      2.7344        
2012-08-03T13:34:27Z    Tianjin_2     43.4633     -145.9333   214.0667    32.5296     19.29        0.3943    20.5653     20.3707     0.9553      12.5       1.2046      2.7346        
2012-08-03T13:37:29Z    Tianjin_2     43.4584     -145.9123   214.0877    32.5338     19.2856      0.3885    20.5684     20.3707     0.9707      12.5       1.2045      2.7784        
2012-08-03T13:40:30Z    Tianjin_2     43.4533     -145.8907   214.1093    32.5353     19.3715      0.4012    20.5772     20.3705     1.0152      12.5       1.2066      2.9063        
2012-08-03T13:43:32Z    Tianjin_2     43.4483     -145.8697   214.1303    32.5374     19.4152      0.4199    20.5872     20.3703     1.0645      12.5       1.2266      3.0954        
2012-08-03T13:46:33Z    Tianjin_2     43.4428     -145.8461   214.1539    32.5375     19.381       0.4199    20.593      20.3704     1.0928      12.5       1.2258      3.1775        
2012-08-03T13:49:26Z    Tianjin_2     43.4376     -145.824    214.176     32.5368     19.3551      0.4168    20.5981     20.3705     1.1173      12.5       1.2251      3.2486        
2012-08-03T13:52:27Z    Tianjin_2     43.4335     -145.8066   214.1934    32.5371     19.3477      0.4187    20.604      20.3705     1.1461      12.5       1.2249      3.3322        
2012-08-03T13:55:29Z    Tianjin_2     43.4289     -145.787    214.213     32.5382     19.336       0.4165    20.6074     20.3706     1.1628      12.5       1.2246      3.3807        
2012-08-03T13:58:30Z    Tianjin_2     43.4238     -145.7657   214.2343    32.5388     19.3698      0.4199    20.6128     20.3705     1.1898      12.5       1.2255      3.4595        
2012-08-03T14:01:32Z    Tianjin_2     43.4189     -145.7451   214.2549    32.5393     19.3965      0.4225    20.6163     20.3704     1.2072      12.5       1.2262      3.5102        
2012-08-03T14:04:33Z    Tianjin_2     43.4141     -145.7248   214.2752    32.5387     19.4036      0.4325    20.6233     20.3704     1.2417      12.5       1.2263      3.6108        
2012-08-03T14:07:26Z    Tianjin_2     43.409      -145.7039   214.2961    32.5374     19.41        0.4351    20.6259     20.3703     1.2546      12.5       1.2265      3.6483        
2012-08-03T14:10:27Z    Tianjin_2     43.4039     -145.6827   214.3173    32.5351     19.437       0.4398    20.6297     20.3703     1.2737      12.5       1.2272      3.704         
2012-08-03T14:13:29Z    Tianjin_2     43.3988     -145.6616   214.3384    32.5302     19.392       0.4368    20.6316     20.3704     1.2821      12.5       1.2261      3.7282        
2012-08-03T14:16:30Z    Tianjin_2     43.3939     -145.6413   214.3587    32.5259     19.3415      0.4085    20.625      20.3706     1.249       12.5       1.2248      3.6319        
2012-08-03T14:19:32Z    Tianjin_2     43.3891     -145.6211   214.3789    32.5227     19.3151      0.405     20.6264     20.3706     1.2556      12.5       1.2417      3.703         
2012-08-03T14:22:33Z    Tianjin_2     43.3838     -145.5993   214.4007    32.5194     19.291       0.3968    20.6217     20.3707     1.2322      12.5       1.2411      3.634         
2012-08-03T14:25:26Z    Tianjin_2     43.3788     -145.5783   214.4217    32.5179     19.2884      0.3835    20.6147     20.3707     1.1978      12.5       1.241       3.5327        
2012-08-03T14:28:27Z    Tianjin_2     43.373      -145.5546   214.4454    32.5176     19.2466      0.3867    20.6118     20.3708     1.1827      12.5       1.2182      3.4267        
2012-08-03T14:31:29Z    Tianjin_2     43.3678     -145.5329   214.4671    32.5177     19.2237      0.3931    20.6105     20.3709     1.1761      12.5       1.2176      3.4074        
2012-08-03T14:34:30Z    Tianjin_2     43.3633     -145.5145   214.4855    32.5158     19.0948      0.3924    20.6097     20.3713     1.1702      12.5       1.2144      3.3896        
2012-08-03T14:37:32Z    Tianjin_2     43.3584     -145.4945   214.5055    32.5143     19.103       0.3965    20.615      20.3712     1.1966      12.5       1.2146      3.466         
2012-08-03T14:40:33Z    Tianjin_2     43.3533     -145.4737   214.5263    32.5124     19.0432      0.3884    20.6236     20.3714     1.2382      12.5       1.2131      3.5861        
2012-08-03T14:43:26Z    Tianjin_2     43.3482     -145.4528   214.5472    32.5143     19.003       0.3672    20.6292     20.3715     1.2647      12.5       1.2121      3.6625        
2012-08-03T14:46:27Z    Tianjin_2     43.3433     -145.4332   214.5668    32.5177     19.1347      0.3713    20.6384     20.3711     1.312       12.5       1.2154      3.8006        
2012-08-03T14:49:29Z    Tianjin_2     43.3383     -145.4125   214.5875    32.5205     19.2376      0.378     20.6469     20.3709     1.355       12.5       1.218       3.9258        
2012-08-03T14:52:30Z    Tianjin_2     43.3331     -145.3914   214.6086    32.521      19.2728      0.3811    20.646      20.3708     1.3512      12.5       1.2189      3.9149        
2012-08-03T14:55:32Z    Tianjin_2     43.3276     -145.369    214.631     32.5208     19.311       0.3909    20.6445     20.3706     1.3441      12.5       1.2255      3.9129        
2012-08-03T15:43:29Z    Tianjin_2     43.2469     -145.0363   214.9637    32.4704     18.9753      0.2783    20.7064     20.3717     1.6433      12.5       1.2178      4.7852        
2012-08-03T15:46:30Z    Tianjin_2     43.2412     -145.0127   214.9873    32.4521     19.0395      0.2852    20.6992     20.3715     1.6086      12.5       1.2194      4.6853        
2012-08-03T15:49:32Z    Tianjin_2     43.236      -144.9917   215.0083    32.4491     19.0925      0.283     20.6859     20.3714     1.5439      12.5       1.2207      4.4971        
2012-08-03T15:52:33Z    Tianjin_2     43.2306     -144.9696   215.0304    32.4225     18.9308      0.2544    20.6604     20.3719     1.4165      12.5       1.2168      4.1258        
2012-08-03T15:55:26Z    Tianjin_2     43.2256     -144.9492   215.0508    32.3937     18.8447      0.2232    20.6459     20.3721     1.3436      12.5       1.2147      3.9139        
2012-08-03T15:58:27Z    Tianjin_2     43.2215     -144.9326   215.0674    32.3835     18.9128      0.224     20.6301     20.372      1.267       12.5       1.2164      3.6914        
2012-08-03T16:01:29Z    Tianjin_2     43.2161     -144.9109   215.0891    32.3766     18.7429      0.2113    20.6101     20.3725     1.1666      12.5       1.2122      3.398         
2012-08-03T16:04:30Z    Tianjin_2     43.2109     -144.8899   215.1101    32.3728     18.7259      0.2064    20.5842     20.3725     1.039       12.5       1.2118      3.0264        
2012-08-03T16:07:32Z    Tianjin_2     43.2061     -144.8701   215.1299    32.3752     18.7122      0.2069    20.5682     20.3725     0.9602      12.5       1.208       2.7888        
2012-08-03T16:10:33Z    Tianjin_2     43.2008     -144.8484   215.1516    32.3769     18.8456      0.2073    20.5578     20.3722     0.9114      12.5       1.2112      2.6473        
2012-08-03T16:13:26Z    Tianjin_2     43.1955     -144.8263   215.1737    32.3747     18.917       0.188     20.5526     20.372      0.8869      12.5       1.2129      2.5764        
2012-08-03T16:16:27Z    Tianjin_2     43.1906     -144.8061   215.1939    32.3731     18.7881      0.2101    20.5494     20.3723     0.8691      12.5       1.2098      2.5244        
2012-08-03T16:19:29Z    Tianjin_2     43.1858     -144.7863   215.2137    32.3713     18.8204      0.2087    20.5493     20.3722     0.8693      12.5       1.2106      2.5251        
2012-08-03T16:22:30Z    Tianjin_2     43.1806     -144.7649   215.2351    32.3732     18.8689      0.2184    20.5527     20.3721     0.8867      12.5       1.2118      2.5759        
2012-08-03T16:25:32Z    Tianjin_2     43.1754     -144.744    215.256     32.3849     18.8277      0.2264    20.5546     20.3722     0.8956      12.5       1.2107      2.6012        
2012-08-03T16:28:33Z    Tianjin_2     43.1702     -144.7225   215.2775    32.398      18.7301      0.2217    20.5577     20.3725     0.9094      12.5       1.2084      2.6409        
2012-08-03T16:31:26Z    Tianjin_2     43.165      -144.7014   215.2986    32.4072     18.6693      0.2104    20.562      20.3726     0.9294      12.5       1.2069      2.6986        
2012-08-03T16:34:27Z    Tianjin_2     43.1602     -144.6818   215.3182    32.409      18.7384      0.197     20.573      20.3724     0.9844      12.5       1.2085      2.8583        
2012-08-03T16:37:29Z    Tianjin_2     43.1551     -144.6614   215.3386    32.4097     18.7758      0.1849    20.578      20.3723     1.0094      12.5       1.2095      2.9313        
2012-08-03T16:40:30Z    Tianjin_2     43.1491     -144.6377   215.3623    32.4081     18.7765      0.1574    20.5825     20.3723     1.0318      12.5       1.2095      2.9961        
2012-08-03T16:43:32Z    Tianjin_2     43.1437     -144.6162   215.3838    32.4066     18.7677      0.1637    20.5807     20.3723     1.0226      12.5       1.2023      2.9525        
2012-08-03T16:46:33Z    Tianjin_2     43.1394     -144.5989   215.4011    32.4064     18.7857      0.1621    20.5787     20.3723     1.013       12.5       1.2028      2.9249        
2012-08-03T16:49:26Z    Tianjin_2     43.1342     -144.5783   215.4217    32.4064     18.8325      0.1608    20.5773     20.3722     1.0072      12.5       1.2039      2.9082        
2012-08-03T16:52:27Z    Tianjin_2     43.129      -144.5571   215.4429    32.4055     18.8715      0.1874    20.5747     20.372      0.9948      12.5       1.2048      2.8724        
2012-08-03T16:55:29Z    Tianjin_2     43.1237     -144.5362   215.4638    32.4025     18.9093      0.1792    20.5726     20.3719     0.9848      12.5       1.1664      2.751         
2012-08-03T16:58:30Z    Tianjin_2     43.1186     -144.5158   215.4842    32.3941     18.9151      0.17      20.5723     20.3719     0.9835      12.5       1.1665      2.7475        
2012-08-03T17:01:32Z    Tianjin_2     43.1136     -144.495    215.505     32.3825     19.0031      0.168     20.5673     20.3717     0.9599      12.5       1.1685      2.6821        
2012-08-03T17:04:33Z    Tianjin_2     43.1083     -144.4736   215.5264    32.3848     18.7376      0.159     20.5637     20.3725     0.9388      12.5       1.1625      2.6227        
2012-08-03T17:07:26Z    Tianjin_2     43.1034     -144.4531   215.5469    32.402      18.6406      0.1481    20.563      20.3727     0.9342      12.5       1.1603      2.6093        
2012-08-03T17:10:27Z    Tianjin_2     43.0982     -144.4317   215.5683    32.409      18.6441      0.1589    20.5701     20.3727     0.9692      12.5       1.1604      2.7069        
2012-08-03T17:13:29Z    Tianjin_2     43.0931     -144.4102   215.5898    32.4173     18.646       0.1487    20.5817     20.3727     1.0262      12.5       1.1604      2.8659        
2012-08-03T17:16:30Z    Tianjin_2     43.0881     -144.3907   215.6093    32.4227     18.727       0.1567    20.596      20.3724     1.0974      12.5       1.1622      3.065         
2012-08-03T17:19:32Z    Tianjin_2     43.083      -144.3711   215.6289    32.4225     18.7748      0.1471    20.6074     20.3723     1.1539      12.5       1.1501      3.186         
2012-08-03T17:22:33Z    Tianjin_2     43.0776     -144.3503   215.6497    32.4168     18.7359      0.1416    20.6189     20.3724     1.2101      12.5       1.1492      3.3413        
2012-08-03T17:25:26Z    Tianjin_2     43.0723     -144.3301   215.6699    32.4193     18.647       0.1332    20.6178     20.3727     1.2031      12.5       1.1473      3.3219        
2012-08-03T17:28:27Z    Tianjin_2     43.0668     -144.3096   215.6904    32.4239     18.5876      0.1312    20.6148     20.3728     1.1877      12.5       1.146       3.2793        
2012-08-03T17:31:29Z    Tianjin_2     43.0611     -144.2885   215.7115    32.4248     18.4645      0.1217    20.6086     20.3732     1.1554      12.5       1.1433      3.1901        
2012-08-03T17:34:30Z    Tianjin_2     43.0558     -144.268    215.732     32.4052     18.6528      0.1219    20.6112     20.3727     1.1707      12.5       1.1474      3.2327        
2012-08-03T17:37:32Z    Tianjin_2     43.0502     -144.2472   215.7528    32.3915     18.7172      0.1231    20.6202     20.3725     1.216       12.5       1.1489      3.3583        
2012-08-03T17:40:33Z    Tianjin_2     43.045      -144.2265   215.7735    32.3765     18.5423      0.1156    20.6221     20.373      1.2224      12.5       1.1451      3.3762        
2012-08-03T17:43:26Z    Tianjin_2     43.0397     -144.2064   215.7936    32.3686     18.4675      0.1146    20.6193     20.3733     1.2077      12.5       1.1434      3.3357        
2012-08-03T17:46:27Z    Tianjin_2     43.0344     -144.1857   215.8143    32.3619     18.3665      0.1084    20.6167     20.3736     1.1932      12.5       1.1412      3.2958        
2012-08-03T17:49:29Z    Tianjin_2     43.0292     -144.1655   215.8345    32.358      18.4102      0.1001    20.6151     20.3734     1.1863      12.5       1.1422      3.2768        
2012-08-03T17:52:30Z    Tianjin_2     43.0238     -144.1447   215.8553    32.3573     18.4151      0.1008    20.6066     20.3734     1.1444      12.5       1.1423      3.1611        
2012-08-03T17:55:32Z    Tianjin_2     43.0184     -144.1238   215.8762    32.3571     18.3645      0.0991    20.5999     20.3736     1.1109      12.5       1.1309      3.0409        
2012-08-03T18:43:29Z    Tianjin_2     42.9333     -143.7959   216.2041    32.3399     18.6419      0.0887    20.7007     20.3728     1.6095      12.5       1.1316      4.386         
2012-08-03T18:46:30Z    Tianjin_2     42.9281     -143.7754   216.2246    32.3358     18.5466      0.0923    20.6952     20.3731     1.5813      12.5       1.1297      4.3093        
2012-08-03T18:49:32Z    Tianjin_2     42.9221     -143.7537   216.2463    32.3352     18.4676      0.0935    20.693      20.3733     1.5691      12.5       1.128       4.2763        
2012-08-03T18:52:33Z    Tianjin_2     42.9167     -143.7337   216.2663    32.3366     18.5118      0.0931    20.6968     20.3732     1.5883      12.5       1.1289      4.3284        
2012-08-03T18:55:26Z    Tianjin_2     42.9116     -143.7146   216.2854    32.34       18.5214      0.0972    20.7017     20.3731     1.6127      12.5       1.1291      4.3949        
2012-08-03T18:58:27Z    Tianjin_2     42.9056     -143.6922   216.3078    32.3438     18.6534      0.0971    20.6975     20.3728     1.5938      12.5       1.1319      4.3429        
2012-08-03T19:01:29Z    Tianjin_2     42.9        -143.6714   216.3286    32.3438     18.8024      0.1011    20.6959     20.3723     1.5885      12.5       1.135       4.3281        
2012-08-03T19:04:30Z    Tianjin_2     42.8948     -143.6517   216.3483    32.343      18.8752      0.1045    20.6904     20.3721     1.5624      12.5       1.1365      4.2568        
2012-08-03T19:07:32Z    Tianjin_2     42.8888     -143.6292   216.3708    32.3442     18.6558      0.1032    20.6824     20.3728     1.5198      12.5       1.1319      4.1414        
2012-08-03T19:10:33Z    Tianjin_2     42.8834     -143.6091   216.3909    32.3446     18.5066      0.1016    20.6809     20.3732     1.5106      12.5       1.1302      4.1215        
2012-08-03T19:13:26Z    Tianjin_2     42.8783     -143.5904   216.4096    32.3459     18.5596      0.0987    20.6905     20.373      1.5581      12.5       1.1313      4.251         
2012-08-03T19:16:27Z    Tianjin_2     42.8728     -143.5704   216.4296    32.35       18.6166      0.0992    20.6995     20.3729     1.6032      12.5       1.0993      4.2455        
2012-08-03T19:19:29Z    Tianjin_2     42.8671     -143.5499   216.4501    32.3524     18.7494      0.1012    20.7077     20.3725     1.6454      12.5       1.1019      4.3566        
2012-08-03T19:22:30Z    Tianjin_2     42.8614     -143.5291   216.4709    32.3549     18.7847      0.1035    20.7083     20.3724     1.6489      12.5       1.1025      4.3655        
2012-08-03T19:25:32Z    Tianjin_2     42.8557     -143.5081   216.4919    32.358      18.777       0.0899    20.7006     20.3724     1.6113      12.5       1.1024      4.2659        
2012-08-03T19:28:33Z    Tianjin_2     42.85       -143.4877   216.5123    32.3585     18.7983      0.0929    20.6964     20.3723     1.5909      12.5       1.1028      4.2117        
2012-08-03T19:31:26Z    Tianjin_2     42.8446     -143.4677   216.5323    32.3571     18.8219      0.0971    20.6956     20.3723     1.5871      12.5       1.1033      4.2016        
2012-08-03T19:34:27Z    Tianjin_2     42.839      -143.4473   216.5527    32.355      18.7895      0.0982    20.6946     20.3724     1.5818      12.5       1.1026      4.188         
2012-08-03T19:37:29Z    Tianjin_2     42.8333     -143.4263   216.5737    32.355      18.6955      0.0949    20.6928     20.3726     1.5715      12.5       1.1008      4.161         
2012-08-03T19:40:30Z    Tianjin_2     42.8277     -143.4055   216.5945    32.3535     18.7367      0.0965    20.694      20.3725     1.5779      12.5       1.1016      4.1778        
2012-08-03T19:43:32Z    Tianjin_2     42.8221     -143.3852   216.6148    32.3509     18.6285      0.0911    20.6965     20.3728     1.5888      12.5       1.0995      4.2073        
2012-08-03T19:46:33Z    Tianjin_2     42.8165     -143.3637   216.6363    32.3447     18.7099      0.0925    20.6965     20.3726     1.5899      12.5       1.1121      4.2521        
2012-08-03T19:49:26Z    Tianjin_2     42.8112     -143.3431   216.6569    32.3379     18.8323      0.0985    20.6981     20.3723     1.5995      12.5       1.1145      4.2773        
2012-08-03T19:52:27Z    Tianjin_2     42.806      -143.3235   216.6765    32.3174     18.4919      0.0908    20.6965     20.3733     1.5864      12.5       1.1079      4.2446        
2012-08-03T19:55:29Z    Tianjin_2     42.8007     -143.3028   216.6972    32.2989     18.445       0.078     20.69       20.3734     1.5538      12.5       1.107       4.1582        
2012-08-03T19:58:30Z    Tianjin_2     42.7951     -143.2807   216.7193    32.2884     18.7036      0.0831    20.6815     20.3727     1.516       12.5       1.112       4.0562        
2012-08-03T20:01:32Z    Tianjin_2     42.7895     -143.2589   216.7411    32.2831     18.7952      0.0754    20.6633     20.3724     1.4276      12.5       1.1138      3.8194        
2012-08-03T20:04:33Z    Tianjin_2     42.7838     -143.236    216.764     32.2823     18.5055      0.0748    20.6467     20.3733     1.3421      12.5       1.1082      3.592         
2012-08-03T20:07:26Z    Tianjin_2     42.7788     -143.2157   216.7843    32.2874     18.286       0.0798    20.6361     20.3739     1.2869      12.5       1.1039      3.4451        
2012-08-03T20:10:27Z    Tianjin_2     42.7744     -143.1979   216.8021    32.311      18.6034      0.082     20.6386     20.373      1.3037      12.5       1.1101      3.4881        
2012-08-03T20:13:29Z    Tianjin_2     42.7694     -143.1774   216.8226    32.3456     18.9515      0.0898    20.646      20.3719     1.3456      12.5       1.1168      3.5976        
2012-08-03T20:16:30Z    Tianjin_2     42.7642     -143.1561   216.8439    32.3489     19.1772      0.0993    20.6586     20.3713     1.4104      12.5       1.1212      3.7697        
2012-08-03T20:19:32Z    Tianjin_2     42.7591     -143.1352   216.8648    32.3387     19.0999      0.0985    20.666      20.3715     1.4459      12.5       1.1197      3.8654        
2012-08-03T20:22:33Z    Tianjin_2     42.7535     -143.1118   216.8882    32.3369     19.1529      0.0914    20.6637     20.3713     1.4353      12.5       1.1399      3.9021        
2012-08-03T20:25:26Z    Tianjin_2     42.7481     -143.0898   216.9102    32.3399     19.1808      0.0973    20.6632     20.3713     1.4329      12.5       1.1404      3.8955        
2012-08-03T20:28:27Z    Tianjin_2     42.7438     -143.0719   216.9281    32.3411     19.2317      0.0977    20.6631     20.3711     1.4331      12.5       1.1414      3.8957        
2012-08-03T20:31:29Z    Tianjin_2     42.7392     -143.052    216.948     32.3421     19.1505      0.0946    20.6665     20.3713     1.4487      12.5       1.1398      3.9384        
2012-08-03T20:34:30Z    Tianjin_2     42.7338     -143.0299   216.9701    32.34       19.2045      0.0951    20.6749     20.3712     1.4908      12.5       1.1409      4.0526        
2012-08-03T20:37:32Z    Tianjin_2     42.7286     -143.0079   216.9921    32.3253     19.0051      0.0867    20.685      20.3718     1.5376      12.5       1.137       4.1815        
2012-08-03T20:40:33Z    Tianjin_2     42.7237     -142.9879   217.0121    32.312      18.8778      0.081     20.6858     20.3722     1.5397      12.5       1.1345      4.1883        
2012-08-03T20:43:26Z    Tianjin_2     42.7188     -142.9678   217.0322    32.3097     18.9745      0.0771    20.6819     20.3719     1.522       12.5       1.1364      4.1396        
2012-08-03T20:46:27Z    Tianjin_2     42.7138     -142.9465   217.0535    32.3099     18.9917      0.0833    20.6704     20.3718     1.4655      12.5       1.1367      3.986         
2012-08-03T20:49:29Z    Tianjin_2     42.7086     -142.9258   217.0742    32.3099     18.9917      0.084     20.6552     20.3718     1.3909      12.5       1.1367      3.783         
2012-08-03T20:52:30Z    Tianjin_2     42.7037     -142.9057   217.0943    32.3099     18.9917      0.089     20.6476     20.3718     1.3537      12.5       1.1367      3.6817        
2012-08-03T20:55:32Z    Tianjin_2     42.6983     -142.8842   217.1158    32.3099     18.9917      0.0852    20.6432     20.3718     1.3322      12.5       1.1367      3.6234        
2012-08-03T21:43:29Z    Tianjin_2     42.6077     -142.5569   217.4431    32.3186     19.7129      0.0752    20.6443     20.3698     1.3475      12.5       1.2112      3.8528        
2012-08-03T21:46:30Z    Tianjin_2     42.6018     -142.5368   217.4632    32.3151     19.795       0.0845    20.6445     20.3696     1.3498      12.5       1.2129      3.8591        
2012-08-03T21:49:32Z    Tianjin_2     42.5965     -142.5178   217.4822    32.3099     19.9927      0.0884    20.6437     20.3691     1.3481      12.5       1.217       3.8532        
2012-08-03T21:52:33Z    Tianjin_2     42.5907     -142.4977   217.5023    32.3046     19.8232      0.0846    20.6391     20.3695     1.3234      12.5       1.2135      3.7837        
2012-08-03T21:55:26Z    Tianjin_2     42.5849     -142.4774   217.5226    32.3046     19.7829      0.0778    20.6328     20.3696     1.2921      12.5       1.2127      3.6943        
2012-08-03T21:58:27Z    Tianjin_2     42.579      -142.4571   217.5429    32.3105     19.7765      0.0772    20.6307     20.3696     1.2814      12.5       1.2125      3.6638        
2012-08-03T22:01:29Z    Tianjin_2     42.5733     -142.4374   217.5626    32.3164     19.7932      0.077     20.629      20.3696     1.2733      12.5       1.2129      3.6402        
2012-08-03T22:04:30Z    Tianjin_2     42.5674     -142.4175   217.5825    32.3194     19.8028      0.081     20.6194     20.3696     1.2268      12.5       1.2131      3.5071        
2012-08-03T22:07:32Z    Tianjin_2     42.5619     -142.3986   217.6014    32.3233     19.8173      0.0848    20.6205     20.3695     1.2321      12.5       1.2134      3.5223        
2012-08-03T22:10:33Z    Tianjin_2     42.5559     -142.3787   217.6213    32.3249     19.9854      0.087     20.6272     20.3691     1.2676      12.5       1.2168      3.6226        
2012-08-03T22:13:26Z    Tianjin_2     42.5498     -142.3583   217.6417    32.3246     19.9238      0.0882    20.6333     20.3692     1.2962      12.5       1.2563      3.8292        
2012-08-03T22:16:27Z    Tianjin_2     42.5441     -142.3384   217.6616    32.3234     19.8196      0.0933    20.6383     20.3695     1.3195      12.5       1.2541      3.8987        
2012-08-03T22:19:29Z    Tianjin_2     42.5384     -142.319    217.681     32.3239     19.7485      0.0948    20.6468     20.3697     1.3602      12.5       1.2526      4.0192        
2012-08-03T22:22:30Z    Tianjin_2     42.5325     -142.298    217.702     32.3254     19.8094      0.0863    20.6588     20.3695     1.4201      12.5       1.2539      4.1959        
2012-08-03T22:25:32Z    Tianjin_2     42.5267     -142.2777   217.7223    32.3245     19.7482      0.0942    20.6695     20.3697     1.4718      12.5       1.2526      4.349         
2012-08-03T22:28:33Z    Tianjin_2     42.5212     -142.2585   217.7415    32.3216     19.5703      0.0916    20.6687     20.3702     1.4654      12.5       1.2488      4.3315        
2012-08-03T22:31:26Z    Tianjin_2     42.5152     -142.2381   217.7619    32.3184     19.5413      0.0832    20.671      20.3703     1.4764      12.5       1.2482      4.3642        
2012-08-03T22:34:27Z    Tianjin_2     42.5093     -142.2176   217.7824    32.3179     19.6247      0.074     20.6698     20.3701     1.4713      12.5       1.25        4.3487        
2012-08-03T22:37:29Z    Tianjin_2     42.5036     -142.198    217.802     32.3207     19.7411      0.0699    20.6617     20.3697     1.4332      12.5       1.2525      4.2351        
2012-08-03T22:40:30Z    Tianjin_2     42.4981     -142.1786   217.8214    32.3277     19.6898      0.0748    20.65       20.3699     1.3752      12.5       1.2514      4.0638        
2012-08-03T22:43:32Z    Tianjin_2     42.4924     -142.1588   217.8412    32.3272     19.5661      0.0649    20.6393     20.3702     1.3208      12.5       1.2487      3.9041        
2012-08-03T22:46:33Z    Tianjin_2     42.4867     -142.1389   217.8611    32.3235     19.5336      0.0679    20.6354     20.3703     1.3016      12.5       1.2481      3.8474        
2012-08-03T22:49:26Z    Tianjin_2     42.4812     -142.1193   217.8807    32.3201     19.5392      0.0691    20.6374     20.3703     1.3113      12.5       1.2872      3.9975        
2012-08-03T22:52:27Z    Tianjin_2     42.4754     -142.0994   217.9006    32.3177     19.5151      0.0796    20.6458     20.3704     1.352       12.5       1.2867      4.1217        
2012-08-03T22:55:29Z    Tianjin_2     42.4701     -142.0801   217.9199    32.3127     19.4549      0.0809    20.656      20.3705     1.4012      12.5       1.2854      4.2721        
2012-08-03T22:58:30Z    Tianjin_2     42.4651     -142.0605   217.9395    32.3056     19.5622      0.0889    20.6589     20.3702     1.4172      12.5       1.2877      4.3204        
2012-08-03T23:01:32Z    Tianjin_2     42.4599     -142.0407   217.9593    32.3026     19.6178      0.096     20.6752     20.3701     1.4977      12.5       1.2889      4.5656        
2012-08-03T23:04:33Z    Tianjin_2     42.4549     -142.0208   217.9792    32.3088     19.5768      0.0991    20.6899     20.3702     1.5694      12.5       1.288       4.7843        
2012-08-03T23:07:26Z    Tianjin_2     42.4499     -142.0008   217.9992    32.3097     19.5495      0.0924    20.7017     20.3703     1.6268      12.5       1.2875      4.9596        
2012-08-03T23:10:27Z    Tianjin_2     42.4445     -141.9799   218.0201    32.3081     19.5243      0.1012    20.7141     20.3703     1.6876      12.5       1.2869      5.1452        
2012-08-03T23:13:29Z    Tianjin_2     42.4395     -141.9601   218.0399    32.3016     19.5481      0.1025    20.7249     20.3703     1.7411      12.5       1.2874      5.3081        
2012-08-03T23:16:30Z    Tianjin_2     42.4347     -141.9415   218.0585    32.2936     19.5358      0.1067    20.7257     20.3703     1.7444      12.5       1.2872      5.3188        
2012-08-03T23:19:32Z    Tianjin_2     42.4294     -141.9212   218.0788    32.2914     19.4649      0.1152    20.7232     20.3705     1.7311      12.5       1.2856      5.2787        
2012-08-03T23:22:33Z    Tianjin_2     42.424      -141.9003   218.0997    32.291      19.3646      0.1009    20.7148     20.3708     1.6887      12.5       1.2834      5.1504        
2012-08-03T23:25:26Z    Tianjin_2     42.4189     -141.881    218.119     32.2889     19.3508      0.0971    20.7078     20.3709     1.6542      12.5       1.2831      5.0453        
2012-08-03T23:28:27Z    Tianjin_2     42.4139     -141.8611   218.1389    32.2887     19.2361      0.1005    20.6994     20.3712     1.6112      12.5       1.3135      5.0411        
2012-08-03T23:31:29Z    Tianjin_2     42.4088     -141.841    218.159     32.2803     19.2983      0.0968    20.6865     20.371      1.5485      12.5       1.3149      4.8447        
2012-08-03T23:34:30Z    Tianjin_2     42.4041     -141.8223   218.1777    32.2786     19.211       0.0934    20.6762     20.3713     1.4971      12.5       1.3129      4.6847        
2012-08-03T23:37:32Z    Tianjin_2     42.3987     -141.8015   218.1985    32.284      18.9429      0.0911    20.6676     20.372      1.4508      12.5       1.307       4.5417        
2012-08-03T23:40:33Z    Tianjin_2     42.3932     -141.781    218.219     32.2839     18.8591      0.0981    20.6663     20.3723     1.4433      12.5       1.3051      4.519         
2012-08-03T23:43:26Z    Tianjin_2     42.3876     -141.7612   218.2388    32.2853     18.6931      0.1       20.6776     20.3727     1.4966      12.5       1.3014      4.687         
2012-08-03T23:46:27Z    Tianjin_2     42.3818     -141.7414   218.2586    32.279      18.9036      0.1024    20.6869     20.3721     1.5449      12.5       1.3061      4.8368        
2012-08-03T23:49:29Z    Tianjin_2     42.3762     -141.722    218.278     32.2692     19.0526      0.1159    20.6973     20.3717     1.5981      12.5       1.3094      5.0023        
2012-08-03T23:52:30Z    Tianjin_2     42.3701     -141.7017   218.2983    32.2626     18.9261      0.1113    20.6892     20.3721     1.5565      12.5       1.3004      4.8503        
2012-08-03T23:55:32Z    Tianjin_2     42.3643     -141.6817   218.3183    32.2751     18.5823      0.108     20.6798     20.3731     1.5055      12.5       1.2928      4.6938        
2012-08-04T00:43:29Z    Tianjin_2     42.2708     -141.3684   218.6316    32.2769     18.827       0.1312    20.7053     20.3724     1.6342      12.5       1.2665      4.9686        
2012-08-04T00:46:30Z    Tianjin_2     42.2652     -141.3482   218.6518    32.2774     18.8629      0.1221    20.7048     20.3723     1.6323      12.5       1.2673      4.9625        
2012-08-04T00:49:32Z    Tianjin_2     42.2597     -141.3286   218.6714    32.2847     18.9131      0.1276    20.6949     20.3721     1.5847      12.5       1.2683      4.8167        
2012-08-04T00:52:33Z    Tianjin_2     42.2544     -141.3094   218.6906    32.2819     19.1092      0.1151    20.6899     20.3715     1.5626      12.5       1.2723      4.7472        
2012-08-04T00:55:26Z    Tianjin_2     42.249      -141.2898   218.7102    32.2826     19.2685      0.1285    20.6812     20.3711     1.5222      12.5       1.2756      4.6226        
2012-08-04T00:58:27Z    Tianjin_2     42.2436     -141.2703   218.7297    32.2841     19.1961      0.1264    20.6667     20.3713     1.4503      12.5       1.2741      4.405         
2012-08-04T01:01:29Z    Tianjin_2     42.2381     -141.2507   218.7493    32.285      18.9674      0.1104    20.6576     20.3719     1.4022      12.5       1.2694      4.2615        
2012-08-04T01:04:30Z    Tianjin_2     42.2326     -141.2305   218.7695    32.2853     19.0767      0.1143    20.6537     20.3716     1.3846      12.5       1.2716      4.2067        
2012-08-04T01:07:32Z    Tianjin_2     42.227      -141.2105   218.7895    32.2857     18.9999      0.1225    20.6488     20.3718     1.3593      12.5       1.2701      4.1306        
2012-08-04T01:10:33Z    Tianjin_2     42.2216     -141.1907   218.8093    32.2837     19.082       0.1348    20.6479     20.3716     1.3561      12.5       1.2718      4.1202        
2012-08-04T01:13:26Z    Tianjin_2     42.2162     -141.171    218.829     32.2805     18.9958      0.1324    20.6482     20.3719     1.3562      12.5       1.27        4.1215        
2012-08-04T01:16:27Z    Tianjin_2     42.2105     -141.1504   218.8496    32.2803     18.7819      0.1312    20.6498     20.3725     1.3612      12.5       1.2656      4.139         
2012-08-04T01:19:29Z    Tianjin_2     42.2051     -141.1303   218.8697    32.2757     18.9345      0.1327    20.6484     20.372      1.3564      12.5       1.2687      4.123         
2012-08-04T01:22:30Z    Tianjin_2     42.1999     -141.1105   218.8895    32.2638     19.2907      0.1146    20.6495     20.3711     1.3667      12.5       1.2953      4.2134        
2012-08-04T01:25:32Z    Tianjin_2     42.1947     -141.0903   218.9097    32.249      19.2975      0.1148    20.6453     20.3711     1.3464      12.5       1.2955      4.1512        
2012-08-04T01:28:33Z    Tianjin_2     42.1894     -141.0707   218.9293    32.2449     19.1058      0.1321    20.6301     20.3716     1.2691      12.5       1.2916      3.915         
2012-08-04T01:31:26Z    Tianjin_2     42.1843     -141.0507   218.9493    32.2553     18.5704      0.1456    20.6223     20.3731     1.2232      12.5       1.2806      3.7789        
2012-08-04T01:34:27Z    Tianjin_2     42.1789     -141.0306   218.9694    32.2596     18.5597      0.1623    20.6309     20.3732     1.2651      12.5       1.2804      3.9085        
2012-08-04T01:37:29Z    Tianjin_2     42.1737     -141.0109   218.9891    32.2521     18.8414      0.1598    20.6485     20.3723     1.3556      12.5       1.2862      4.1849        
2012-08-04T01:40:30Z    Tianjin_2     42.1682     -140.9899   219.0101    32.25       18.6616      0.1425    20.6594     20.3729     1.4066      12.5       1.2825      4.3446        
2012-08-04T01:43:32Z    Tianjin_2     42.1627     -140.9699   219.0301    32.251      18.6246      0.1558    20.6603     20.373      1.4105      12.5       1.2817      4.3569        
2012-08-04T01:46:33Z    Tianjin_2     42.1576     -140.9509   219.0491    32.2468     18.7145      0.147     20.6602     20.3727     1.4112      12.5       1.2836      4.3582        
2012-08-04T01:49:26Z    Tianjin_2     42.1521     -140.9308   219.0692    32.2467     18.7682      0.1408    20.6581     20.3726     1.4018      12.5       1.2847      4.3285        
2012-08-04T01:52:27Z    Tianjin_2     42.1464     -140.9103   219.0897    32.2356     19.0403      0.1203    20.6505     20.3718     1.368       12.5       1.2903      4.2211        
2012-08-04T01:55:29Z    Tianjin_2     42.1406     -140.8893   219.1107    32.2429     19.0412      0.099     20.6351     20.3718     1.2923      12.5       1.2903      3.9874        
2012-08-04T01:58:30Z    Tianjin_2     42.1347     -140.8698   219.1302    32.2515     18.8401      0.1086    20.6148     20.3724     1.19        12.5       1.3123      3.7485        
2012-08-04T02:01:32Z    Tianjin_2     42.1289     -140.8503   219.1497    32.2506     18.7523      0.1492    20.6022     20.3726     1.1269      12.5       1.3105      3.5508        
2012-08-04T02:04:33Z    Tianjin_2     42.1229     -140.8301   219.1699    32.2473     18.7561      0.1499    20.594      20.3726     1.0866      12.5       1.3468      3.5184        
2012-08-04T02:07:26Z    Tianjin_2     42.1171     -140.8108   219.1892    32.2434     18.7522      0.1492    20.599      20.3726     1.111       12.5       1.3467      3.5974        
2012-08-04T02:10:27Z    Tianjin_2     42.1111     -140.791    219.209     32.2421     18.7564      0.1407    20.6015     20.3726     1.1237      12.5       1.3468      3.6384        
2012-08-04T02:13:29Z    Tianjin_2     42.105      -140.7708   219.2292    32.2426     18.741       0.1388    20.6018     20.3727     1.1246      12.5       1.3465      3.6417        
2012-08-04T02:16:30Z    Tianjin_2     42.099      -140.7511   219.2489    32.242      18.848       0.1494    20.5993     20.3723     1.1141      12.5       1.3488      3.6067        
2012-08-04T02:19:32Z    Tianjin_2     42.0931     -140.7315   219.2685    32.245      18.916       0.1507    20.5945     20.3721     1.0917      12.5       1.3503      3.5334        
2012-08-04T02:22:33Z    Tianjin_2     42.0871     -140.7113   219.2887    32.2477     18.9306      0.1496    20.5909     20.3721     1.0742      12.5       1.3506      3.4767        
2012-08-04T02:25:26Z    Tianjin_2     42.0813     -140.6917   219.3083    32.2516     18.7846      0.1674    20.5869     20.3725     1.0526      12.5       1.3474      3.4078        
2012-08-04T02:28:27Z    Tianjin_2     42.0755     -140.6719   219.3281    32.2526     18.7294      0.1584    20.5892     20.3727     1.0629      12.5       1.3462      3.4417        
2012-08-04T02:31:29Z    Tianjin_2     42.0693     -140.6521   219.3479    32.2512     18.7625      0.1504    20.5961     20.3726     1.0974      12.5       1.3469      3.5531        
2012-08-04T02:34:30Z    Tianjin_2     42.0633     -140.6319   219.3681    32.2541     18.6584      0.1526    20.6019     20.3729     1.1242      12.5       1.3446      3.6409        
2012-08-04T02:37:32Z    Tianjin_2     42.0573     -140.6122   219.3878    32.2555     18.7698      0.1665    20.6044     20.3725     1.1381      12.5       1.3891      3.7995        
2012-08-04T02:40:33Z    Tianjin_2     42.0508     -140.5908   219.4092    32.259      18.7777      0.1795    20.6028     20.3725     1.1304      12.5       1.3893      3.7736        
2012-08-04T02:43:26Z    Tianjin_2     42.0447     -140.5704   219.4296    32.2634     18.5617      0.2045    20.6077     20.3731     1.1511      12.5       1.3844      3.845         
2012-08-04T02:46:27Z    Tianjin_2     42.0391     -140.5523   219.4477    32.2594     18.7226      0.1988    20.614      20.3727     1.1843      12.5       1.388       3.9544        
2012-08-04T02:49:29Z    Tianjin_2     42.0335     -140.5327   219.4673    32.2619     18.7919      0.2031    20.628      20.3725     1.254       12.5       1.3896      4.1862        
2012-08-04T02:52:30Z    Tianjin_2     42.0278     -140.5137   219.4863    32.2635     18.7351      0.2079    20.637      20.3726     1.2978      12.5       1.3883      4.3329        
2012-08-04T02:55:32Z    Tianjin_2     42.0216     -140.4927   219.5073    32.2665     18.5955      0.1938    20.6385     20.373      1.3028      12.5       1.3851      4.351         
2012-08-04T03:43:29Z    Tianjin_2     41.9314     -140.1805   219.8195    32.2489     18.7274      0.221     20.6809     20.3727     1.5131      17.5       1.6153      5.8794        
2012-08-04T03:46:30Z    Tianjin_2     41.9252     -140.1611   219.8389    32.2497     18.6871      0.2171    20.6697     20.3728     1.4572      17.5       1.6142      5.6626        
2012-08-04T03:49:32Z    Tianjin_2     41.9195     -140.1419   219.8581    32.2606     18.6189      0.2196    20.658      20.373      1.3991      17.5       1.6124      5.437         
2012-08-04T03:52:33Z    Tianjin_2     41.9133     -140.1226   219.8774    32.2688     18.5953      0.228     20.6471     20.373      1.3453      17.5       1.6653      5.4019        
2012-08-04T03:55:26Z    Tianjin_2     41.907      -140.1023   219.8977    32.2732     18.6225      0.2275    20.6432     20.3729     1.3268      17.5       1.6661      5.327         
2012-08-04T03:58:27Z    Tianjin_2     41.9005     -140.0815   219.9185    32.2764     18.646       0.2248    20.6379     20.3729     1.3009      17.5       1.6667      5.2227        
2012-08-04T04:01:29Z    Tianjin_2     41.8942     -140.0622   219.9378    32.2791     18.6361      0.2263    20.6325     20.3729     1.2742      17.5       1.6665      5.1155        
2012-08-04T04:04:30Z    Tianjin_2     41.8884     -140.0441   219.9559    32.2796     18.6478      0.2286    20.6336     20.3729     1.2796      17.5       1.6668      5.1372        
2012-08-04T04:07:32Z    Tianjin_2     41.8819     -140.0245   219.9755    32.2794     18.6156      0.2292    20.6324     20.373      1.2735      17.5       1.6659      5.1132        
2012-08-04T04:10:33Z    Tianjin_2     41.8752     -140.004    219.996     32.2851     18.6269      0.1937    20.6309     20.3729     1.2664      17.5       1.6662      5.0841        
2012-08-04T04:13:26Z    Tianjin_2     41.8685     -139.984    220.016     32.2941     18.5909      0.1858    20.6271     20.373      1.2472      17.5       1.7498      5.2613        
2012-08-04T04:16:27Z    Tianjin_2     41.8625     -139.9653   220.0347    32.3051     18.4504      0.1752    20.6154     20.3734     1.1878      17.5       1.7454      5.0115        
2012-08-04T04:19:29Z    Tianjin_2     41.8563     -139.946    220.054     32.3103     18.5162      0.1783    20.5998     20.3732     1.1121      17.5       1.7474      4.6913        
2012-08-04T04:22:30Z    Tianjin_2     41.8501     -139.9266   220.0734    32.3137     18.538       0.1738    20.5847     20.3731     1.0386      17.5       1.7481      4.381         
2012-08-04T04:25:32Z    Tianjin_2     41.8442     -139.9082   220.0918    32.3166     18.5579      0.1791    20.5687     20.3731     0.9604      17.5       1.7487      4.0512        
2012-08-04T04:28:33Z    Tianjin_2     41.8383     -139.8894   220.1106    32.3228     18.7282      0.1797    20.5561     20.3726     0.901       17.5       1.7539      3.7995        
2012-08-04T04:31:26Z    Tianjin_2     41.8321     -139.8699   220.1301    32.3255     18.7979      0.1883    20.5443     20.3724     0.8439      17.5       1.8157      3.6791        
2012-08-04T04:34:27Z    Tianjin_2     41.826      -139.8507   220.1493    32.3273     18.7316      0.1906    20.5308     20.3726     0.7769      17.5       1.8136      3.3874        
2012-08-04T04:37:29Z    Tianjin_2     41.8198     -139.8308   220.1692    32.3294     18.6791      0.1948    20.5221     20.3727     0.7335      17.5       1.8119      3.1982        
2012-08-04T04:40:30Z    Tianjin_2     41.8137     -139.8113   220.1887    32.3282     18.7421      0.193     20.5179     20.3725     0.7136      17.5       1.8139      3.1113        
2012-08-04T04:43:32Z    Tianjin_2     41.808      -139.7924   220.2076    32.3263     18.7612      0.2008    20.5153     20.3725     0.701       17.5       1.8146      3.0562        
2012-08-04T04:46:33Z    Tianjin_2     41.802      -139.7733   220.2267    32.3256     18.713       0.1999    20.5064     20.3726     0.6565      17.5       1.813       2.8624        
2012-08-04T04:49:26Z    Tianjin_2     41.7962     -139.754    220.246     32.3232     18.7061      0.1992    20.5001     20.3726     0.6257      17.5       1.8128      2.7281        
2012-08-04T04:52:27Z    Tianjin_2     41.7902     -139.7344   220.2656    32.321      18.8118      0.2129    20.4929     20.3723     0.5916      17.5       1.8162      2.5793        
2012-08-04T04:55:29Z    Tianjin_2     41.7841     -139.7145   220.2855    32.3269     18.8799      0.2299    20.4837     20.3721     0.5476      17.5       1.8184      2.3871        
2012-08-04T04:58:30Z    Tianjin_2     41.7779     -139.6948   220.3052    32.3423     18.8889      0.2516    20.4766     20.3721     0.5128      17.5       1.8186      2.2353        
2012-08-04T05:01:32Z    Tianjin_2     41.7723     -139.676    220.324     32.359      18.8787      0.2639    20.4743     20.3721     0.5016      17.5       1.8183      2.1862        
2012-08-04T05:04:33Z    Tianjin_2     41.7666     -139.6573   220.3427    32.3824     18.8275      0.2419    20.4767     20.3722     0.5128      17.5       1.8166      2.2349        
2012-08-04T05:07:26Z    Tianjin_2     41.7607     -139.6377   220.3623    32.4559     18.9011      0.1736    20.4791     20.3719     0.5262      17.5       1.8188      2.2918        
2012-08-04T05:10:27Z    Tianjin_2     41.7548     -139.6182   220.3818    32.5008     18.9391      0.1377    20.4726     20.3717     0.4954      17.5       1.8748      2.222         
2012-08-04T05:13:29Z    Tianjin_2     41.7491     -139.5989   220.4011    32.5101     18.9544      0.1414    20.4536     20.3717     0.4022      17.5       1.8753      1.8036        
2012-08-04T05:16:30Z    Tianjin_2     41.7432     -139.5794   220.4206    32.517      18.9002      0.1353    20.4308     20.3718     0.2894      17.5       1.8735      1.298         
2012-08-04T05:19:32Z    Tianjin_2     41.7372     -139.5598   220.4402    32.5203     18.8588      0.1332    20.41       20.3719     0.1868      17.5       1.8721      0.8378        
2012-08-04T05:22:33Z    Tianjin_2     41.7313     -139.5406   220.4594    32.52       18.793       0.1358    20.3992     20.3721     0.1331      17.5       1.8699      0.5972        
2012-08-04T05:25:26Z    Tianjin_2     41.7255     -139.5217   220.4783    32.5134     18.7843      0.1367    20.3941     20.3721     0.1078      17.5       1.8697      0.4833        
2012-08-04T05:28:27Z    Tianjin_2     41.7193     -139.5018   220.4982    32.5078     18.7704      0.1463    20.3887     20.3722     0.0811      17.5       1.8692      0.3639        
2012-08-04T05:31:29Z    Tianjin_2     41.7133     -139.4824   220.5176    32.5001     18.8054      0.1376    20.3815     20.3721     0.0461      17.5       1.8704      0.2066        
2012-08-04T05:34:30Z    Tianjin_2     41.7073     -139.4631   220.5369    32.4932     18.8213      0.1421    20.3776     20.3721     0.0272      17.5       1.8709      0.122         
2012-08-04T05:37:32Z    Tianjin_2     41.7013     -139.4435   220.5565    32.4849     18.7281      0.1545    20.3772     20.3723     0.0237      17.5       1.8679      0.1062        
2012-08-04T05:40:33Z    Tianjin_2     41.6957     -139.4253   220.5747    32.4746     18.6956      0.1571    20.3747     20.3725     0.011       17.5       1.8668      0.0492        
2012-08-04T05:43:26Z    Tianjin_2     41.6901     -139.4067   220.5933    32.465      18.6324      0.1756    20.3693     20.3727     -0.0164     17.5       1.8647      -0.0736       
2012-08-04T05:46:27Z    Tianjin_2     41.6842     -139.3878   220.6122    32.4606     18.549       0.1913    20.3758     20.3729     0.0145      17.5       1.862       0.0649        
2012-08-04T05:49:29Z    Tianjin_2     41.6786     -139.3693   220.6307    32.46       18.4755      0.1905    20.3819     20.3731     0.0431      17.5       1.9064      0.1985        
2012-08-04T05:52:30Z    Tianjin_2     41.6728     -139.3506   220.6494    32.4508     18.5056      0.1918    20.3891     20.373      0.0788      17.5       1.9074      0.3626        
2012-08-04T05:55:32Z    Tianjin_2     41.667      -139.3317   220.6683    32.4154     18.5159      0.2216    20.3909     20.3731     0.0877      17.5       1.9079      0.4039        
2012-08-04T06:43:29Z    Tianjin_2     41.5762     -139.0283   220.9717    32.3958     18.409       0.2528    20.4938     20.3734     0.5911      17.5       2.0351      2.9084        
2012-08-04T06:46:30Z    Tianjin_2     41.5707     -139.0094   220.9906    32.4026     18.4279      0.2476    20.4975     20.3733     0.6095      17.5       2.0358      2.9989        
2012-08-04T06:49:32Z    Tianjin_2     41.5651     -138.9904   221.0096    32.4038     18.4193      0.2379    20.4956     20.3734     0.5998      17.5       2.0354      2.951         
2012-08-04T06:52:33Z    Tianjin_2     41.5596     -138.9716   221.0284    32.4044     18.38        0.2375    20.4894     20.3735     0.569       17.5       2.0339      2.7996        
2012-08-04T06:55:26Z    Tianjin_2     41.5538     -138.9529   221.0471    32.4048     18.4089      0.2275    20.4883     20.3734     0.5638      17.5       2.035       2.7741        
2012-08-04T06:58:27Z    Tianjin_2     41.5482     -138.9341   221.0659    32.4042     18.4105      0.2217    20.4825     20.3734     0.5354      17.5       2.0351      2.6342        
2012-08-04T07:01:29Z    Tianjin_2     41.542      -138.9138   221.0862    32.4068     18.3439      0.2228    20.4772     20.3736     0.5084      17.5       2.0325      2.5013        
2012-08-04T07:04:30Z    Tianjin_2     41.5362     -138.8948   221.1052    32.4173     18.3027      0.2175    20.4693     20.3737     0.4692      17.5       2.0309      2.3083        
2012-08-04T07:07:32Z    Tianjin_2     41.5308     -138.8774   221.1226    32.4195     18.2507      0.2309    20.4654     20.3738     0.4497      17.5       2.0289      2.2121        
2012-08-04T07:10:33Z    Tianjin_2     41.5249     -138.8589   221.1411    32.4172     18.1785      0.2303    20.4633     20.374      0.438       17.5       2.0515      2.182         
2012-08-04T07:13:26Z    Tianjin_2     41.5186     -138.8394   221.1606    32.4095     18.2442      0.2322    20.4607     20.3739     0.426       17.5       2.0541      2.1221        
2012-08-04T07:16:27Z    Tianjin_2     41.5124     -138.8205   221.1795    32.4042     18.3522      0.2363    20.4662     20.3736     0.4548      17.5       2.0584      2.2658        
2012-08-04T07:19:29Z    Tianjin_2     41.5064     -138.8025   221.1975    32.3988     18.3678      0.246     20.4668     20.3735     0.458       17.5       2.059       2.282         
2012-08-04T07:22:30Z    Tianjin_2     41.5002     -138.7835   221.2165    32.3946     18.3622      0.2511    20.4707     20.3735     0.4771      17.5       2.0588      2.377         
2012-08-04T07:25:32Z    Tianjin_2     41.4939     -138.7646   221.2354    32.3894     18.2951      0.269     20.4725     20.3737     0.4848      17.5       2.0562      2.4152        
2012-08-04T07:28:33Z    Tianjin_2     41.4877     -138.7462   221.2538    32.3786     18.281       0.3108    20.476      20.3738     0.5018      17.5       2.0556      2.5004        
2012-08-04T07:31:26Z    Tianjin_2     41.4814     -138.7275   221.2725    32.3691     18.2988      0.3528    20.4862     20.3738     0.5518      17.5       2.0563      2.7496        
2012-08-04T07:34:27Z    Tianjin_2     41.4749     -138.7084   221.2916    32.3613     18.269       0.3886    20.5024     20.3739     0.6307      17.5       2.0552      3.1432        
2012-08-04T07:37:29Z    Tianjin_2     41.4686     -138.6899   221.3101    32.3541     18.2149      0.4217    20.5152     20.374      0.6928      17.5       2.0531      3.4524        
2012-08-04T07:40:30Z    Tianjin_2     41.4624     -138.6719   221.3281    32.3495     18.192       0.4564    20.5304     20.3741     0.7671      17.5       2.0522      3.8231        
2012-08-04T07:43:32Z    Tianjin_2     41.456      -138.653    221.347     32.3416     18.2905      0.4536    20.5406     20.3738     0.8185      17.5       2.0561      4.0792        
2012-08-04T07:46:33Z    Tianjin_2     41.4496     -138.6342   221.3658    32.3398     18.3012      0.4477    20.5477     20.3738     0.8534      17.5       2.0565      4.2532        
2012-08-04T07:49:26Z    Tianjin_2     41.4434     -138.6157   221.3843    32.337      18.3228      0.4606    20.5457     20.3737     0.8441      17.5       2.0794      4.2523        
2012-08-04T07:52:27Z    Tianjin_2     41.4373     -138.597    221.403     32.3498     18.3003      0.4523    20.5446     20.3738     0.8387      17.5       2.0785      4.2243        
2012-08-04T07:55:29Z    Tianjin_2     41.4308     -138.5775   221.4225    32.3665     18.2314      0.4502    20.5397     20.374      0.8135      17.5       2.0757      4.097         
2012-08-04T07:58:30Z    Tianjin_2     41.4247     -138.5589   221.4411    32.4044     18.1779      0.4292    20.5374     20.3741     0.8018      17.5       2.0735      4.0372        
2012-08-04T08:01:32Z    Tianjin_2     41.419      -138.5414   221.4586    32.4422     18.1588      0.3942    20.5387     20.3741     0.8081      17.5       2.0727      4.0679        
2012-08-04T08:04:33Z    Tianjin_2     41.4129     -138.5227   221.4773    32.4569     18.0667      0.3828    20.5363     20.3743     0.7949      17.5       2.069       4.0008        
2012-08-04T08:07:26Z    Tianjin_2     41.4066     -138.5027   221.4973    32.4685     18.0199      0.3579    20.5306     20.3744     0.7663      17.5       2.0671      3.8563        
2012-08-04T08:10:27Z    Tianjin_2     41.4009     -138.4837   221.5163    32.4771     18.0205      0.3447    20.5298     20.3744     0.7625      17.5       2.0671      3.837         
2012-08-04T08:13:29Z    Tianjin_2     41.3954     -138.4656   221.5344    32.4819     17.9747      0.346     20.5284     20.3746     0.7552      17.5       2.0653      3.8           
2012-08-04T08:16:30Z    Tianjin_2     41.3897     -138.4466   221.5534    32.4798     18.0465      0.348     20.5233     20.3743     0.7311      17.5       2.0681      3.6793        
2012-08-04T08:19:32Z    Tianjin_2     41.3838     -138.4269   221.5731    32.4666     18.0103      0.3792    20.5196     20.3745     0.7125      17.5       2.0667      3.5856        
2012-08-04T08:22:33Z    Tianjin_2     41.3784     -138.4087   221.5913    32.4417     17.9449      0.4213    20.5189     20.3747     0.7076      17.5       2.0642      3.5616        
2012-08-04T08:25:26Z    Tianjin_2     41.3736     -138.3919   221.6081    32.3983     17.9948      0.4378    20.5185     20.3746     0.7064      17.5       2.1454      3.6931        
2012-08-04T08:28:27Z    Tianjin_2     41.3681     -138.3729   221.6271    32.362      17.9347      0.4445    20.5265     20.3748     0.7444      17.5       2.1618      3.9267        
2012-08-04T08:31:29Z    Tianjin_2     41.3629     -138.3544   221.6456    32.3443     18.1148      0.423     20.5405     20.3743     0.8153      17.5       2.1696      4.3021        
2012-08-04T08:34:30Z    Tianjin_2     41.3578     -138.3363   221.6637    32.3492     18.2643      0.4058    20.5563     20.3739     0.8953      17.5       2.1761      4.7248        
2012-08-04T08:37:32Z    Tianjin_2     41.3526     -138.3175   221.6825    32.3561     18.2311      0.434     20.5616     20.374      0.9208      17.5       2.1746      4.8586        
2012-08-04T08:40:33Z    Tianjin_2     41.3474     -138.2989   221.7011    32.3566     18.3054      0.4185    20.5658     20.3738     0.9424      17.5       2.1778      4.973         
2012-08-04T08:43:26Z    Tianjin_2     41.3423     -138.2805   221.7195    32.3577     18.2377      0.394     20.5611     20.374      0.9186      17.5       2.1749      4.8474        
2012-08-04T08:46:27Z    Tianjin_2     41.337      -138.2613   221.7387    32.3659     18.0694      0.3885    20.5608     20.3744     0.9147      17.5       2.1676      4.8255        
2012-08-04T08:49:29Z    Tianjin_2     41.3317     -138.2425   221.7575    32.3693     18.1403      0.3866    20.5601     20.3742     0.9121      17.5       2.1707      4.8123        
2012-08-04T08:52:30Z    Tianjin_2     41.3267     -138.2244   221.7756    32.3696     18.2486      0.3606    20.5644     20.3739     0.9351      17.5       2.1753      4.934         
2012-08-04T08:55:32Z    Tianjin_2     41.3206     -138.2044   221.7956    32.3756     18.2473      0.3425    20.5605     20.3739     0.916       17.5       2.1753      4.8332        
2012-08-04T09:43:29Z    Tianjin_2     41.2192     -137.9086   222.0914    32.4839     18.3924      0.1725    20.4452     20.3733     0.3529      17.5       2.2052      1.8811        
2012-08-04T09:46:30Z    Tianjin_2     41.2128     -137.89     222.11      32.4832     18.3344      0.1806    20.4383     20.3735     0.3181      17.5       2.2026      1.6954        
2012-08-04T09:49:32Z    Tianjin_2     41.2068     -137.8709   222.1291    32.4801     18.2907      0.1824    20.4312     20.3736     0.2824      17.5       2.2326      1.5271        
2012-08-04T09:52:33Z    Tianjin_2     41.2009     -137.8522   222.1478    32.4763     18.1888      0.194     20.4286     20.3739     0.2682      17.5       2.228       1.4501        
2012-08-04T09:55:26Z    Tianjin_2     41.1952     -137.8342   222.1658    32.4748     17.9894      0.203     20.4276     20.3745     0.2603      17.5       2.219       1.4072        
2012-08-04T09:58:27Z    Tianjin_2     41.1892     -137.8153   222.1847    32.4768     17.9139      0.1881    20.4333     20.3747     0.2872      17.5       2.2156      1.5523        
2012-08-04T10:01:29Z    Tianjin_2     41.1831     -137.7962   222.2038    32.4755     17.9553      0.1459    20.4452     20.3746     0.3463      17.5       2.2175      1.8718        
2012-08-04T10:04:30Z    Tianjin_2     41.177      -137.7768   222.2232    32.4755     17.9101      0.1586    20.4526     20.3748     0.3818      17.5       2.2155      2.0635        
2012-08-04T10:07:32Z    Tianjin_2     41.1712     -137.7582   222.2418    32.4773     17.8007      0.1883    20.4572     20.3751     0.4031      17.5       2.2105      2.1786        
2012-08-04T10:10:33Z    Tianjin_2     41.1653     -137.7394   222.2606    32.4794     17.8361      0.193     20.4591     20.375      0.4127      17.5       2.2121      2.2304        
2012-08-04T10:13:26Z    Tianjin_2     41.1596     -137.7208   222.2792    32.483      17.9254      0.1841    20.4642     20.3747     0.4394      17.5       2.2161      2.3749        
2012-08-04T10:16:27Z    Tianjin_2     41.154      -137.703    222.297     32.484      18.0454      0.1689    20.4608     20.3743     0.4243      17.5       2.2215      2.2938        
2012-08-04T10:19:29Z    Tianjin_2     41.148      -137.6839   222.3161    32.4868     18.1151      0.1662    20.4508     20.3741     0.3762      17.5       2.2247      2.0338        
2012-08-04T10:22:30Z    Tianjin_2     41.1422     -137.6652   222.3348    32.4914     18.1478      0.1698    20.4335     20.374      0.292       17.5       2.2261      1.5785        
2012-08-04T10:25:32Z    Tianjin_2     41.1366     -137.647    222.353     32.4963     18.0381      0.1671    20.4214     20.3744     0.2311      17.5       2.2212      1.2491        
2012-08-04T10:28:33Z    Tianjin_2     41.131      -137.6281   222.3719    32.4981     18.019       0.176     20.4109     20.3744     0.179       17.5       2.2203      0.9673        
2012-08-04T10:31:26Z    Tianjin_2     41.1251     -137.6087   222.3913    32.5006     18.091       0.1936    20.4057     20.3742     0.1545      17.5       2.2616      0.8493        
2012-08-04T10:34:27Z    Tianjin_2     41.1191     -137.5892   222.4108    32.4998     18.1588      0.2126    20.4002     20.374      0.1289      17.5       2.3206      0.7261        
2012-08-04T10:37:29Z    Tianjin_2     41.1131     -137.5695   222.4305    32.4897     18.2254      0.2336    20.397      20.3738     0.1137      17.5       2.3238      0.6407        
2012-08-04T10:40:30Z    Tianjin_2     41.1075     -137.551    222.449     32.4765     18.3129      0.241     20.3966     20.3736     0.1132      17.5       2.3281      0.6379        
2012-08-04T10:43:32Z    Tianjin_2     41.1022     -137.5336   222.4664    32.4546     18.3089      0.2671    20.4013     20.3736     0.136       17.5       2.3279      0.7667        
2012-08-04T10:46:33Z    Tianjin_2     41.0963     -137.5144   222.4856    32.4371     18.2861      0.2776    20.4069     20.3737     0.1629      17.5       2.3269      0.9185        
2012-08-04T10:49:26Z    Tianjin_2     41.0905     -137.4953   222.5047    32.4239     18.2559      0.277     20.415      20.3738     0.2019      17.5       2.3254      1.1385        
2012-08-04T10:52:27Z    Tianjin_2     41.085      -137.4768   222.5232    32.4147     18.1946      0.2784    20.4256     20.374      0.2532      17.5       2.3225      1.4275        
2012-08-04T10:55:29Z    Tianjin_2     41.079      -137.458    222.542     32.4081     18.252       0.2702    20.4376     20.3738     0.313       17.5       2.3253      1.7649        
2012-08-04T10:58:30Z    Tianjin_2     41.0727     -137.4395   222.5605    32.4047     18.3         0.2533    20.4463     20.3737     0.3561      17.5       2.3276      2.0082        
2012-08-04T11:01:32Z    Tianjin_2     41.0664     -137.4211   222.5789    32.4055     18.3431      0.2508    20.4507     20.3736     0.3784      17.5       2.3297      2.134         
2012-08-04T11:04:33Z    Tianjin_2     41.0601     -137.4025   222.5975    32.4093     18.3494      0.2435    20.4507     20.3736     0.3785      17.5       2.33        2.1343        
2012-08-04T11:07:26Z    Tianjin_2     41.0537     -137.3837   222.6163    32.4157     18.342       0.2398    20.4499     20.3736     0.3749      17.5       2.3296      2.1139        
2012-08-04T11:10:27Z    Tianjin_2     41.0473     -137.3652   222.6348    32.4229     18.3721      0.2366    20.4463     20.3735     0.3577      17.5       2.372       2.0525        
2012-08-04T11:13:29Z    Tianjin_2     41.0409     -137.3468   222.6532    32.4381     18.4104      0.2295    20.4442     20.3733     0.348       17.5       2.3738      1.997         
2012-08-04T11:16:30Z    Tianjin_2     41.0345     -137.3281   222.6719    32.453      18.4021      0.223     20.4421     20.3733     0.3376      17.5       2.3734      1.9367        
2012-08-04T11:19:32Z    Tianjin_2     41.0277     -137.3085   222.6915    32.465      18.3631      0.2187    20.4388     20.3734     0.3207      17.5       2.3714      1.8399        
2012-08-04T11:22:33Z    Tianjin_2     41.0212     -137.2898   222.7102    32.476      18.3419      0.2147    20.4305     20.3735     0.2797      17.5       2.3704      1.604         
2012-08-04T11:25:26Z    Tianjin_2     41.0151     -137.2725   222.7275    32.4869     18.2708      0.1938    20.4223     20.3737     0.2388      17.5       2.3668      1.3691        
2012-08-04T11:28:27Z    Tianjin_2     41.0087     -137.2544   222.7456    32.4961     18.2846      0.1789    20.4091     20.3736     0.1739      17.5       2.3675      0.9972        
2012-08-04T11:31:29Z    Tianjin_2     41.0017     -137.235    222.765     32.5081     18.171       0.164     20.3943     20.3739     0.0999      17.5       2.3618      0.5725        
2012-08-04T11:34:30Z    Tianjin_2     40.9951     -137.217    222.783     32.5211     18.0514      0.1336    20.3866     20.3743     0.0605      22.5       2.4721      0.3635        
2012-08-04T11:37:32Z    Tianjin_2     40.9887     -137.1991   222.8009    32.5297     17.982       0.1168    20.3796     20.3745     0.0254      22.5       2.4685      0.1525        
2012-08-04T11:40:33Z    Tianjin_2     40.9819     -137.1806   222.8194    32.5332     18.0468      0.1083    20.3764     20.3743     0.0102      22.5       2.4718      0.0615        
2012-08-04T11:43:26Z    Tianjin_2     40.9752     -137.1626   222.8374    32.5362     18.0707      0.1041    20.3701     20.3742     -0.02       22.5       2.4731      -0.1205       
2012-08-04T11:46:27Z    Tianjin_2     40.9685     -137.1445   222.8555    32.5378     18.0848      0.1022    20.3617     20.3742     -0.061      22.5       2.4738      -0.3665       
2012-08-04T11:49:29Z    Tianjin_2     40.9617     -137.1259   222.8741    32.5397     18.0468      0.0957    20.3566     20.3743     -0.0868     22.5       2.4718      -0.5216       
2012-08-04T11:52:30Z    Tianjin_2     40.955      -137.1073   222.8927    32.5436     17.9913      0.0873    20.3464     20.3744     -0.1376     22.5       2.5147      -0.8425       
2012-08-04T11:55:32Z    Tianjin_2     40.9486     -137.0879   222.9121    32.5452     17.9116      0.078     20.3434     20.3747     -0.1534     22.5       2.5105      -0.9389       
2012-08-04T12:43:29Z    Tianjin_2     40.8496     -136.7898   223.2102    32.5143     18.136       0.2425    20.4149     20.374      0.2007      22.5       2.6044      1.2693        
2012-08-04T12:46:30Z    Tianjin_2     40.8438     -136.7714   223.2286    32.5129     18.1294      0.2445    20.4151     20.3741     0.2012      22.5       2.604       1.2726        
2012-08-04T12:49:32Z    Tianjin_2     40.8378     -136.7523   223.2477    32.508      18.0243      0.2405    20.4184     20.3744     0.2162      22.5       2.5982      1.3674        
2012-08-04T12:52:33Z    Tianjin_2     40.8321     -136.734    223.266     32.5028     17.9225      0.217     20.4185     20.3747     0.2149      22.5       2.5926      1.3588        
2012-08-04T12:55:26Z    Tianjin_2     40.8262     -136.7156   223.2844    32.4979     17.8697      0.2039    20.4225     20.3749     0.2339      22.5       2.5897      1.4787        
2012-08-04T12:58:27Z    Tianjin_2     40.8203     -136.6968   223.3032    32.4931     17.8783      0.1842    20.4252     20.3748     0.2472      22.5       2.5902      1.5627        
2012-08-04T13:01:29Z    Tianjin_2     40.8145     -136.6787   223.3213    32.489      17.943       0.1652    20.4328     20.3746     0.2853      22.5       2.5938      1.8039        
2012-08-04T13:04:30Z    Tianjin_2     40.8088     -136.6605   223.3395    32.4874     17.9323      0.1482    20.4306     20.3747     0.2747      22.5       2.5932      1.7369        
2012-08-04T13:07:32Z    Tianjin_2     40.8026     -136.6414   223.3586    32.4838     17.926       0.1363    20.4193     20.3747     0.2189      22.5       2.5928      1.3843        
2012-08-04T13:10:33Z    Tianjin_2     40.7965     -136.6226   223.3774    32.487      17.9333      0.1249    20.4108     20.3747     0.1772      22.5       2.6432      1.142         
2012-08-04T13:13:26Z    Tianjin_2     40.7903     -136.6037   223.3963    32.4918     17.8957      0.1367    20.3961     20.3748     0.1046      22.5       2.641       0.6744        
2012-08-04T13:16:27Z    Tianjin_2     40.7841     -136.5842   223.4158    32.4958     17.8541      0.147     20.3875     20.3749     0.0617      22.5       2.6387      0.3978        
2012-08-04T13:19:29Z    Tianjin_2     40.7777     -136.5648   223.4352    32.5009     17.7684      0.1519    20.3807     20.3752     0.027       22.5       2.6338      0.1739        
2012-08-04T13:22:30Z    Tianjin_2     40.7717     -136.546    223.454     32.5025     17.7206      0.1622    20.3815     20.3753     0.0306      22.5       2.6311      0.197         
2012-08-04T13:25:32Z    Tianjin_2     40.7659     -136.5279   223.4721    32.5019     17.7169      0.1737    20.3752     20.3753     -0.0004     22.5       2.6309      -0.0028       
2012-08-04T13:28:33Z    Tianjin_2     40.7597     -136.5091   223.4909    32.5076     17.7041      0.1839    20.3739     20.3753     -0.0073     22.5       2.6301      -0.0469       
2012-08-04T13:31:26Z    Tianjin_2     40.7534     -136.4901   223.5099    32.5126     17.6466      0.1934    20.3798     20.3755     0.0211      22.5       2.6268      0.136         
2012-08-04T13:34:27Z    Tianjin_2     40.7471     -136.471    223.529     32.5174     17.5251      0.1942    20.383      20.3759     0.0349      22.5       2.6199      0.2247        
2012-08-04T13:37:29Z    Tianjin_2     40.7402     -136.4525   223.5475    32.5237     17.567       0.1896    20.3871     20.3757     0.0559      22.5       2.6223      0.36          
2012-08-04T13:40:30Z    Tianjin_2     40.7335     -136.4341   223.5659    32.527      17.5536      0.1891    20.399      20.3758     0.1139      22.5       2.6215      0.7334        
2012-08-04T13:43:32Z    Tianjin_2     40.7265     -136.4153   223.5847    32.5347     17.7005      0.174     20.405      20.3753     0.1455      22.5       2.6298      0.9368        
2012-08-04T13:46:33Z    Tianjin_2     40.7196     -136.3966   223.6034    32.5519     17.8761      0.1371    20.4083     20.3748     0.1648      22.5       2.6398      1.0614        
2012-08-04T13:49:26Z    Tianjin_2     40.7128     -136.3781   223.6219    32.5685     17.9679      0.1091    20.4059     20.3745     0.1542      22.5       2.6449      0.9933        
2012-08-04T13:52:27Z    Tianjin_2     40.7059     -136.3592   223.6408    32.5953     18.0716      0.0802    20.4062     20.3741     0.1573      22.5       2.6979      1.0314        
2012-08-04T13:55:29Z    Tianjin_2     40.6993     -136.3409   223.6591    32.6153     18.1655      0.0618    20.4036     20.3738     0.1464      22.5       2.7033      0.9602        
2012-08-04T13:58:30Z    Tianjin_2     40.6928     -136.3229   223.6771    32.6252     18.1623      0.0536    20.3912     20.3738     0.0853      22.5       2.7031      0.5593        
2012-08-04T14:01:32Z    Tianjin_2     40.6862     -136.3042   223.6958    32.6331     18.1964      0.0474    20.3833     20.3737     0.0472      22.5       2.705       0.3093        
2012-08-04T14:04:33Z    Tianjin_2     40.6794     -136.2852   223.7148    32.6358     18.1873      0.0529    20.3729     20.3737     -0.0041     22.5       2.7045      -0.0271       
2012-08-04T14:07:26Z    Tianjin_2     40.6728     -136.2667   223.7333    32.6373     18.1757      0.047     20.365      20.3737     -0.0431     22.5       2.7038      -0.2824       
2012-08-04T14:10:27Z    Tianjin_2     40.6664     -136.2485   223.7515    32.639      18.1793      0.0424    20.361      20.3737     -0.0626     22.5       2.704       -0.4103       
2012-08-04T14:13:29Z    Tianjin_2     40.6598     -136.2299   223.7701    32.6433     18.1724      0.045     20.3509     20.3737     -0.1122     22.5       2.7036      -0.7354       
2012-08-04T14:16:30Z    Tianjin_2     40.6531     -136.2113   223.7887    32.6455     18.0912      0.0422    20.3479     20.374      -0.1282     22.5       2.6989      -0.8402       
2012-08-04T14:19:32Z    Tianjin_2     40.6463     -136.1923   223.8077    32.6461     18.049       0.044     20.3446     20.3741     -0.1449     22.5       2.6964      -0.9497       
2012-08-04T14:22:33Z    Tianjin_2     40.6397     -136.1738   223.8262    32.6475     18.0556      0.0343    20.3438     20.3741     -0.1487     22.5       2.6968      -0.9747       
2012-08-04T14:25:26Z    Tianjin_2     40.6329     -136.1551   223.8449    32.6493     18.0679      0.039     20.3406     20.374      -0.1642     22.5       2.6975      -1.0764       
2012-08-04T14:28:27Z    Tianjin_2     40.6259     -136.1356   223.8644    32.6502     18.0294      0.0388    20.3353     20.3742     -0.1905     22.5       2.6952      -1.2487       
2012-08-04T14:31:29Z    Tianjin_2     40.6192     -136.117    223.883     32.6495     17.9577      0.0355    20.3339     20.3744     -0.1986     22.5       2.7599      -1.3348       
2012-08-04T14:34:30Z    Tianjin_2     40.6126     -136.0988   223.9012    32.6459     17.9968      0.0388    20.3331     20.3743     -0.202      22.5       2.7623      -1.3575       
2012-08-04T14:37:32Z    Tianjin_2     40.6058     -136.0799   223.9201    32.6399     18.0173      0.0349    20.3352     20.3742     -0.1914     22.5       2.7635      -1.2868       
2012-08-04T14:40:33Z    Tianjin_2     40.599      -136.0613   223.9387    32.6349     17.9892      0.0395    20.3337     20.3743     -0.1995     22.5       2.7619      -1.3407       
2012-08-04T14:43:26Z    Tianjin_2     40.5922     -136.0427   223.9573    32.6296     17.9674      0.0408    20.3306     20.3744     -0.2149     22.5       2.7606      -1.4447       
2012-08-04T14:46:27Z    Tianjin_2     40.5852     -136.0237   223.9763    32.6237     17.9863      0.0391    20.3295     20.3743     -0.2199     22.5       2.7617      -1.478        
2012-08-04T14:49:29Z    Tianjin_2     40.5782     -136.0049   223.9951    32.6207     17.941       0.0338    20.3306     20.3745     -0.2151     22.5       2.759       -1.4459       
2012-08-04T14:52:30Z    Tianjin_2     40.5711     -135.9865   224.0135    32.6161     17.8753      0.036     20.326      20.3747     -0.2388     22.5       2.755       -1.6044       
2012-08-04T14:55:32Z    Tianjin_2     40.5641     -135.9682   224.0318    32.6123     17.8452      0.0444    20.3256     20.3748     -0.2412     22.5       2.7532      -1.6208       
2012-08-04T15:43:29Z    Tianjin_2     40.4632     -135.6682   224.3318    32.571      17.5931      0.0404    20.351      20.3756     -0.1208     22.5       2.766       -0.8199       
2012-08-04T15:46:30Z    Tianjin_2     40.4579     -135.6499   224.3501    32.5772     17.6919      0.0407    20.3511     20.3753     -0.1185     22.5       2.772       -0.8045       
2012-08-04T15:49:32Z    Tianjin_2     40.4516     -135.6315   224.3685    32.5805     17.639       0.0419    20.3486     20.3754     -0.1316     22.5       2.7688      -0.8931       
2012-08-04T15:52:33Z    Tianjin_2     40.4454     -135.6131   224.3869    32.5775     17.6045      0.0334    20.3423     20.3755     -0.163      22.5       2.7843      -1.1131       
2012-08-04T15:55:26Z    Tianjin_2     40.439      -135.5945   224.4055    32.5721     17.6788      0.0406    20.3381     20.3753     -0.1829     22.5       2.7889      -1.2491       
2012-08-04T15:58:27Z    Tianjin_2     40.4328     -135.5763   224.4237    32.5715     17.7456      0.0393    20.3336     20.3751     -0.2038     22.5       2.793       -1.3925       
2012-08-04T16:01:29Z    Tianjin_2     40.4262     -135.5576   224.4424    32.5736     17.6972      0.0406    20.3312     20.3753     -0.2162     22.5       2.79        -1.4767       
2012-08-04T16:04:30Z    Tianjin_2     40.4198     -135.5394   224.4606    32.5834     17.6571      0.041     20.3228     20.3754     -0.2578     22.5       2.7875      -1.7607       
2012-08-04T16:07:32Z    Tianjin_2     40.4138     -135.5218   224.4782    32.5986     17.668       0.0364    20.3182     20.3753     -0.2804     22.5       2.7882      -1.915        
2012-08-04T16:10:33Z    Tianjin_2     40.4075     -135.5032   224.4968    32.6076     17.6994      0.0372    20.3207     20.3752     -0.2673     22.5       2.7901      -1.8254       
2012-08-04T16:13:26Z    Tianjin_2     40.4012     -135.4848   224.5152    32.6144     17.7747      0.0325    20.3217     20.375      -0.2613     22.5       2.7947      -1.7848       
2012-08-04T16:16:27Z    Tianjin_2     40.3949     -135.4661   224.5339    32.6263     17.843       0.0327    20.3188     20.3748     -0.2745     22.5       2.7989      -1.8748       
2012-08-04T16:19:29Z    Tianjin_2     40.3884     -135.4475   224.5525    32.6354     17.8866      0.034     20.3184     20.3746     -0.2759     22.5       2.8015      -1.8851       
2012-08-04T16:22:30Z    Tianjin_2     40.3811     -135.4293   224.5707    32.6391     17.8773      0.0381    20.3174     20.3746     -0.2807     22.5       2.801       -1.9176       
2012-08-04T16:25:32Z    Tianjin_2     40.374      -135.411    224.589     32.6426     17.9353      0.0295    20.3181     20.3745     -0.2765     22.5       2.8388      -1.912        
2012-08-04T16:28:33Z    Tianjin_2     40.3665     -135.3924   224.6076    32.6458     17.9636      0.036     20.3194     20.3744     -0.2696     22.5       2.8405      -1.8647       
2012-08-04T16:31:26Z    Tianjin_2     40.359      -135.3734   224.6266    32.6403     17.9743      0.0348    20.3125     20.3743     -0.3036     22.5       2.8521      -2.1081       
2012-08-04T16:34:27Z    Tianjin_2     40.3514     -135.3548   224.6452    32.6329     17.9678      0.0369    20.3107     20.3744     -0.3123     22.5       2.8518      -2.1686       
2012-08-04T16:37:29Z    Tianjin_2     40.3444     -135.3374   224.6626    32.6272     17.9747      0.0336    20.3062     20.3744     -0.3346     22.5       2.8522      -2.3233       
2012-08-04T16:40:30Z    Tianjin_2     40.3375     -135.3202   224.6798    32.6235     17.9909      0.0311    20.3037     20.3743     -0.3468     22.5       2.8532      -2.408        
2012-08-04T16:43:32Z    Tianjin_2     40.3302     -135.3021   224.6979    32.6209     17.9921      0.0377    20.3019     20.3743     -0.3554     22.5       2.8533      -2.4682       
2012-08-04T16:46:33Z    Tianjin_2     40.3229     -135.284    224.716     32.6183     17.957       0.0286    20.3018     20.3744     -0.3565     22.5       2.8511      -2.4754       
2012-08-04T16:49:26Z    Tianjin_2     40.3154     -135.2654   224.7346    32.6153     17.9157      0.0312    20.3016     20.3745     -0.358      22.5       2.8485      -2.4855       
2012-08-04T16:52:27Z    Tianjin_2     40.3081     -135.2473   224.7527    32.6149     17.903       0.0355    20.2979     20.3746     -0.3762     22.5       2.8477      -2.6121       
2012-08-04T16:55:29Z    Tianjin_2     40.3008     -135.2293   224.7707    32.617      17.9251      0.0344    20.2919     20.3745     -0.4056     22.5       2.8491      -2.8163       
2012-08-04T16:58:30Z    Tianjin_2     40.2938     -135.2106   224.7894    32.6193     17.9568      0.0368    20.2885     20.3744     -0.4215     22.5       2.8511      -2.9267       
2012-08-04T17:01:32Z    Tianjin_2     40.287      -135.1927   224.8073    32.6211     17.9752      0.0314    20.2904     20.3744     -0.4122     22.5       2.8523      -2.8625       
2012-08-04T17:04:33Z    Tianjin_2     40.2804     -135.1749   224.8251    32.6213     17.9302      0.0299    20.2871     20.3745     -0.429      22.5       2.8494      -2.9784       
2012-08-04T17:07:26Z    Tianjin_2     40.2735     -135.1558   224.8442    32.6181     17.8646      0.0289    20.2839     20.3747     -0.4454     22.5       2.8453      -3.0917       
2012-08-04T17:10:27Z    Tianjin_2     40.2666     -135.137    224.863     32.6155     17.8114      0.0272    20.2878     20.3749     -0.4274     22.5       2.8419      -2.9661       
2012-08-04T17:13:29Z    Tianjin_2     40.2598     -135.1186   224.8814    32.6127     17.7454      0.031     20.2846     20.3751     -0.4439     22.5       2.8453      -3.0887       
2012-08-04T17:16:30Z    Tianjin_2     40.2529     -135.0997   224.9003    32.6119     17.7634      0.0306    20.2869     20.375      -0.4326     22.5       2.8465      -3.0102       
2012-08-04T17:19:32Z    Tianjin_2     40.2463     -135.0815   224.9185    32.6125     17.7717      0.0362    20.2852     20.375      -0.4405     22.5       2.847       -3.0649       
2012-08-04T17:22:33Z    Tianjin_2     40.2396     -135.063    224.937     32.6102     17.7216      0.027     20.2861     20.3751     -0.4368     22.5       2.8438      -3.0391       
2012-08-04T17:25:26Z    Tianjin_2     40.233      -135.0436   224.9564    32.6048     17.6256      0.0272    20.2888     20.3754     -0.4253     22.5       2.8378      -2.9579       
2012-08-04T17:28:27Z    Tianjin_2     40.2267     -135.025    224.975     32.604      17.6715      0.0318    20.2885     20.3753     -0.4262     22.5       2.8407      -2.9647       
2012-08-04T17:31:29Z    Tianjin_2     40.2208     -135.0068   224.9932    32.611      17.7753      0.0275    20.2895     20.375      -0.4197     22.5       2.8472      -2.9202       
2012-08-04T17:34:30Z    Tianjin_2     40.2147     -134.9879   225.0121    32.6144     17.792       0.025     20.2867     20.3749     -0.4331     22.5       2.8483      -3.0136       
2012-08-04T17:37:32Z    Tianjin_2     40.2084     -134.969    225.031     32.6067     17.8235      0.0315    20.2852     20.3748     -0.4399     22.5       2.8503      -3.0618       
2012-08-04T17:40:33Z    Tianjin_2     40.2023     -134.9502   225.0498    32.5989     17.8169      0.0267    20.2842     20.3749     -0.4448     22.5       2.8499      -3.0958       
2012-08-04T17:43:26Z    Tianjin_2     40.1959     -134.9311   225.0689    32.6061     17.8426      0.0305    20.2843     20.3748     -0.4443     22.5       2.8515      -3.0922       
2012-08-04T17:46:27Z    Tianjin_2     40.1898     -134.9126   225.0874    32.6363     17.9504      0.0197    20.2826     20.3744     -0.4506     22.5       2.8583      -3.137        
2012-08-04T17:49:29Z    Tianjin_2     40.1837     -134.8942   225.1058    32.6638     18.0444      0.03      20.2772     20.3741     -0.4756     22.5       2.8642      -3.3107       
2012-08-04T17:52:30Z    Tianjin_2     40.1778     -134.8759   225.1241    32.6781     18.069       0.0296    20.2785     20.374      -0.4689     22.5       2.8657      -3.2641       
2012-08-04T17:55:32Z    Tianjin_2     40.1717     -134.8576   225.1424    32.6888     18.0614      0.0262    20.2778     20.374      -0.4723     22.5       2.872       -3.2954       
2012-08-04T18:43:29Z    Tianjin_2     40.0682     -134.5656   225.4344    32.6978     18.0591      0.0285    20.307      20.374      -0.329      22.5       2.9047      -2.3219       
2012-08-04T18:46:30Z    Tianjin_2     40.0614     -134.5467   225.4533    32.6975     18.0419      0.0283    20.3063     20.3741     -0.3326     22.5       2.9035      -2.3468       
2012-08-04T18:49:32Z    Tianjin_2     40.0553     -134.5297   225.4703    32.6957     18.0427      0.0289    20.3003     20.3741     -0.3619     22.5       2.9036      -2.5537       
2012-08-04T18:52:33Z    Tianjin_2     40.0486     -134.511    225.489     32.695      18.064       0.0303    20.2997     20.374      -0.3648     22.5       2.905       -2.5742       
2012-08-04T18:55:26Z    Tianjin_2     40.0418     -134.4926   225.5074    32.6953     18.0798      0.0354    20.299      20.3739     -0.3679     22.5       2.906       -2.5963       
2012-08-04T18:58:27Z    Tianjin_2     40.0355     -134.4753   225.5247    32.695      18.0821      0.0336    20.2983     20.3739     -0.3713     22.5       2.9062      -2.6204       
2012-08-04T19:01:29Z    Tianjin_2     40.0288     -134.4572   225.5428    32.6959     18.0956      0.0293    20.2984     20.3739     -0.3707     22.5       2.9071      -2.6165       
2012-08-04T19:04:30Z    Tianjin_2     40.0221     -134.4391   225.5609    32.6962     18.101       0.0315    20.2965     20.3739     -0.3799     22.5       2.9074      -2.6811       
2012-08-04T19:07:32Z    Tianjin_2     40.0155     -134.4213   225.5787    32.6961     18.1027      0.0336    20.2972     20.3739     -0.3765     22.5       2.9075      -2.6573       
2012-08-04T19:10:33Z    Tianjin_2     40.0086     -134.4028   225.5972    32.696      18.092       0.0303    20.294      20.3739     -0.3922     22.5       2.9068      -2.7682       
2012-08-04T19:13:26Z    Tianjin_2     40.0016     -134.3848   225.6152    32.6951     18.0904      0.0263    20.2901     20.3739     -0.4116     22.5       2.9067      -2.9052       
2012-08-04T19:16:27Z    Tianjin_2     39.995      -134.3672   225.6328    32.6945     18.107       0.0356    20.2915     20.3739     -0.4041     22.5       2.9147      -2.8586       
2012-08-04T19:19:29Z    Tianjin_2     39.9879     -134.3485   225.6515    32.6924     18.1037      0.0328    20.2905     20.3739     -0.4092     22.5       2.9145      -2.8954       
2012-08-04T19:22:30Z    Tianjin_2     39.9808     -134.33     225.67      32.6909     18.1154      0.0287    20.2897     20.3738     -0.4132     22.5       2.9153      -2.9236       
2012-08-04T19:25:32Z    Tianjin_2     39.9741     -134.3125   225.6875    32.6901     18.1221      0.027     20.2877     20.3738     -0.4229     22.5       2.9157      -2.9921       
2012-08-04T19:28:33Z    Tianjin_2     39.9669     -134.2942   225.7058    32.6915     18.1279      0.0317    20.282      20.3738     -0.4509     22.5       2.9161      -3.1901       
2012-08-04T19:31:26Z    Tianjin_2     39.9599     -134.2762   225.7238    32.6922     18.1179      0.0303    20.2782     20.3738     -0.4695     22.5       2.9154      -3.3215       
2012-08-04T19:34:27Z    Tianjin_2     39.9532     -134.2593   225.7407    32.6936     18.116       0.0379    20.2767     20.3738     -0.4767     22.5       2.9153      -3.3725       
2012-08-04T19:37:29Z    Tianjin_2     39.9462     -134.2417   225.7583    32.6968     18.1138      0.0353    20.2754     20.3738     -0.483      22.5       2.9151      -3.4171       
2012-08-04T19:40:30Z    Tianjin_2     39.9389     -134.2233   225.7767    32.6983     18.0772      0.0305    20.2762     20.374      -0.4799     22.5       2.9127      -3.3944       
2012-08-04T19:43:32Z    Tianjin_2     39.9319     -134.2056   225.7944    32.6995     18.0626      0.0258    20.2724     20.374      -0.4985     22.5       2.9117      -3.5258       
2012-08-04T19:46:33Z    Tianjin_2     39.9252     -134.1888   225.8112    32.7003     18.0541      0.029     20.2717     20.374      -0.5021     22.5       2.9112      -3.5512       
2012-08-04T19:49:26Z    Tianjin_2     39.9179     -134.1707   225.8293    32.7013     18.016       0.0289    20.2748     20.3741     -0.4876     22.5       2.9086      -3.4481       
2012-08-04T19:52:27Z    Tianjin_2     39.9108     -134.1529   225.8471    32.7021     17.9599      0.0272    20.2776     20.3743     -0.4746     22.5       2.9049      -3.3555       
2012-08-04T19:55:29Z    Tianjin_2     39.9035     -134.1351   225.8649    32.7035     17.9603      0.0311    20.2791     20.3743     -0.4672     22.5       2.905       -3.3034       
2012-08-04T19:58:30Z    Tianjin_2     39.8964     -134.1173   225.8827    32.7038     17.9667      0.03      20.2746     20.3743     -0.4894     22.5       2.9131      -3.4699       
2012-08-04T20:01:32Z    Tianjin_2     39.8893     -134.1      225.9       32.7035     17.9821      0.0271    20.2728     20.3742     -0.4979     22.5       2.9142      -3.5298       
2012-08-04T20:04:33Z    Tianjin_2     39.882      -134.0817   225.9183    32.7019     17.9944      0.0236    20.2727     20.3742     -0.498      22.5       2.915       -3.531        
2012-08-04T20:07:26Z    Tianjin_2     39.8749     -134.0639   225.9361    32.6962     18.0119      0.0278    20.2704     20.3741     -0.509      22.5       2.9396      -3.6384       
2012-08-04T20:10:27Z    Tianjin_2     39.8678     -134.0463   225.9537    32.6913     18.0065      0.0254    20.2739     20.3742     -0.4919     22.5       2.9392      -3.5164       
2012-08-04T20:13:29Z    Tianjin_2     39.8605     -134.0279   225.9721    32.6818     17.9571      0.0207    20.267      20.3743     -0.527      22.5       2.9359      -3.7667       
2012-08-04T20:16:30Z    Tianjin_2     39.8534     -134.0096   225.9904    32.6671     17.8968      0.0197    20.2635     20.3745     -0.5452     22.5       2.9319      -3.8958       
2012-08-04T20:19:32Z    Tianjin_2     39.8466     -133.9926   226.0074    32.6611     17.8094      0.0303    20.2637     20.3748     -0.5455     22.5       2.9259      -3.8969       
2012-08-04T20:22:33Z    Tianjin_2     39.8398     -133.9747   226.0253    32.6522     17.7035      0.0292    20.2654     20.3751     -0.5385     22.5       2.9188      -3.8452       
2012-08-04T20:25:26Z    Tianjin_2     39.8333     -133.9562   226.0438    32.6465     17.6094      0.0272    20.2653     20.3754     -0.5406     22.5       2.9124      -3.8595       
2012-08-04T20:28:27Z    Tianjin_2     39.8272     -133.9388   226.0612    32.6301     17.5058      0.0304    20.2661     20.3758     -0.5381     22.5       2.9054      -3.8402       
2012-08-04T20:31:29Z    Tianjin_2     39.8208     -133.9205   226.0795    32.62       17.5035      0.0226    20.2678     20.3758     -0.5302     22.5       2.9053      -3.7839       
2012-08-04T20:34:30Z    Tianjin_2     39.8146     -133.9018   226.0982    32.6206     17.5295      0.0257    20.2673     20.3757     -0.5321     22.5       2.907       -3.7981       
2012-08-04T20:37:32Z    Tianjin_2     39.8086     -133.8835   226.1165    32.6256     17.5851      0.0231    20.2658     20.3755     -0.5384     22.5       2.9108      -3.8433       
2012-08-04T20:40:33Z    Tianjin_2     39.8026     -133.8653   226.1347    32.626      17.5947      0.0261    20.2616     20.3755     -0.5588     22.5       2.9185      -3.999        
2012-08-04T20:43:26Z    Tianjin_2     39.7962     -133.8462   226.1538    32.6208     17.5513      0.0309    20.2595     20.3756     -0.5699     22.5       2.9156      -4.0777       
2012-08-04T20:46:27Z    Tianjin_2     39.7901     -133.8276   226.1724    32.6144     17.5231      0.0246    20.2599     20.3757     -0.5685     22.5       2.9136      -4.0677       
2012-08-04T20:49:29Z    Tianjin_2     39.7844     -133.8102   226.1898    32.611      17.5073      0.03      20.26       20.3758     -0.5685     22.5       2.9125      -4.067        
2012-08-04T20:52:30Z    Tianjin_2     39.7782     -133.7913   226.2087    32.6111     17.5148      0.0269    20.2605     20.3758     -0.5659     22.5       2.9131      -4.0489       
2012-08-04T20:55:32Z    Tianjin_2     39.7718     -133.7721   226.2279    32.6169     17.5861      0.0295    20.2635     20.3755     -0.5499     22.5       2.918       -3.9354       
2012-08-04T21:43:29Z    Tianjin_2     39.6643     -133.4845   226.5155    32.7054     17.9048      0.0263    20.2747     20.3745     -0.4898     22.5       2.9453      -3.5149       
2012-08-04T21:46:30Z    Tianjin_2     39.6572     -133.467    226.533     32.6973     17.8215      0.0227    20.2755     20.3747     -0.4867     22.5       2.9394      -3.4916       
2012-08-04T21:49:32Z    Tianjin_2     39.6501     -133.4492   226.5508    32.6771     17.7695      0.0255    20.279      20.3749     -0.4706     22.5       2.9358      -3.3759       
2012-08-04T21:52:33Z    Tianjin_2     39.6425     -133.4304   226.5696    32.6593     17.7552      0.0301    20.2809     20.375      -0.4619     22.5       2.9349      -3.3132       
2012-08-04T21:55:26Z    Tianjin_2     39.6352     -133.4126   226.5874    32.6539     17.7485      0.0273    20.2799     20.375      -0.4668     22.5       2.9344      -3.3483       
2012-08-04T21:58:27Z    Tianjin_2     39.6282     -133.3953   226.6047    32.6513     17.6421      0.0332    20.2815     20.3753     -0.4605     22.5       2.9269      -3.3017       
2012-08-04T22:01:29Z    Tianjin_2     39.6207     -133.3771   226.6229    32.632      17.5629      0.0311    20.2838     20.3756     -0.4504     22.5       2.9451      -3.2547       
2012-08-04T22:04:30Z    Tianjin_2     39.6137     -133.3593   226.6407    32.6134     17.495       0.0277    20.2848     20.3758     -0.4465     22.5       2.9451      -3.2308       
2012-08-04T22:07:32Z    Tianjin_2     39.6068     -133.342    226.658     32.6002     17.4429      0.0361    20.2854     20.376      -0.4446     22.5       2.9413      -3.2167       
2012-08-04T22:10:33Z    Tianjin_2     39.5997     -133.3234   226.6766    32.585      17.3708      0.0327    20.2871     20.3762     -0.4376     22.5       2.9361      -3.1647       
2012-08-04T22:13:26Z    Tianjin_2     39.5923     -133.3043   226.6957    32.5743     17.304       0.0284    20.2864     20.3765     -0.442      22.5       2.9313      -3.1957       
2012-08-04T22:16:27Z    Tianjin_2     39.5856     -133.2868   226.7132    32.5515     17.2446      0.0243    20.2812     20.3767     -0.4687     22.5       2.927       -3.3881       
2012-08-04T22:19:29Z    Tianjin_2     39.5788     -133.2697   226.7303    32.538      17.2397      0.0262    20.2829     20.3767     -0.4601     22.5       2.9267      -3.3266       
2012-08-04T22:22:30Z    Tianjin_2     39.5716     -133.2512   226.7488    32.5306     17.2476      0.0302    20.2757     20.3767     -0.4955     22.5       2.9273      -3.5825       
2012-08-04T22:25:32Z    Tianjin_2     39.5646     -133.2332   226.7668    32.5257     17.2359      0.0326    20.2715     20.3767     -0.5163     22.5       2.9265      -3.7326       
2012-08-04T22:28:33Z    Tianjin_2     39.5579     -133.2159   226.7841    32.525      17.2345      0.0309    20.275      20.3767     -0.4993     22.5       2.9264      -3.6102       
2012-08-04T22:31:26Z    Tianjin_2     39.5512     -133.1984   226.8016    32.5243     17.2396      0.0328    20.2737     20.3767     -0.5054     22.5       2.9268      -3.6544       
2012-08-04T22:34:27Z    Tianjin_2     39.5446     -133.1803   226.8197    32.5201     17.2317      0.0322    20.2761     20.3768     -0.4938     22.5       2.9262      -3.5703       
2012-08-04T22:37:29Z    Tianjin_2     39.5381     -133.1628   226.8372    32.516      17.2098      0.0318    20.2785     20.3768     -0.4826     22.5       2.9246      -3.4891       
2012-08-04T22:40:30Z    Tianjin_2     39.5317     -133.1449   226.8551    32.513      17.1771      0.037     20.2759     20.3769     -0.4961     22.5       2.9223      -3.5857       
2012-08-04T22:43:32Z    Tianjin_2     39.5251     -133.1267   226.8733    32.5088     17.214       0.039     20.2774     20.3768     -0.488      22.5       2.925       -3.5281       
2012-08-04T22:46:33Z    Tianjin_2     39.5186     -133.1088   226.8912    32.5034     17.2539      0.0415    20.2793     20.3767     -0.4782     22.5       2.9364      -3.4686       
2012-08-04T22:49:26Z    Tianjin_2     39.5122     -133.0912   226.9088    32.4968     17.2496      0.0406    20.2785     20.3767     -0.4822     22.5       2.9361      -3.4972       
2012-08-04T22:52:27Z    Tianjin_2     39.5059     -133.0734   226.9266    32.4914     17.2272      0.043     20.2808     20.3768     -0.4713     22.5       2.9345      -3.4183       
2012-08-04T22:55:29Z    Tianjin_2     39.499      -133.0541   226.9459    32.4919     17.1888      0.0457    20.2768     20.3769     -0.4912     22.5       2.9316      -3.5617       
2012-08-04T22:58:30Z    Tianjin_2     39.4927     -133.036    226.964     32.492      17.1713      0.0434    20.2747     20.377      -0.5018     22.5       2.9303      -3.6382       
2012-08-04T23:01:32Z    Tianjin_2     39.4865     -133.0189   226.9811    32.493      17.1463      0.0392    20.2769     20.3771     -0.4915     22.5       2.9285      -3.5625       
2012-08-04T23:04:33Z    Tianjin_2     39.4796     -132.9996   227.0004    32.4906     17.1513      0.045     20.279      20.377      -0.4811     22.5       2.9288      -3.4879       
2012-08-04T23:07:26Z    Tianjin_2     39.473      -132.9808   227.0192    32.4858     17.1595      0.0445    20.2835     20.377      -0.4588     22.5       2.9295      -3.3261       
2012-08-04T23:10:27Z    Tianjin_2     39.4671     -132.9641   227.0359    32.4834     17.1528      0.0431    20.2891     20.3771     -0.4317     22.5       2.929       -3.1298       
2012-08-04T23:13:29Z    Tianjin_2     39.4594     -132.9441   227.0559    32.4808     17.142       0.0416    20.2901     20.3771     -0.4268     22.5       2.9282      -3.0939       
2012-08-04T23:16:30Z    Tianjin_2     39.4523     -132.9255   227.0745    32.4769     17.1494      0.0436    20.2896     20.3771     -0.4295     22.5       2.9288      -3.1136       
2012-08-04T23:19:32Z    Tianjin_2     39.4462     -132.9102   227.0898    32.4741     17.152       0.0415    20.2881     20.3771     -0.4364     22.5       2.929       -3.1643       
2012-08-04T23:22:33Z    Tianjin_2     39.4392     -132.8922   227.1078    32.4693     17.1518      0.0492    20.2889     20.3771     -0.4328     22.5       2.929       -3.1381       
2012-08-04T23:25:26Z    Tianjin_2     39.4321     -132.8743   227.1257    32.4616     17.1767      0.0461    20.2891     20.377      -0.4314     22.5       2.9461      -3.1449       
2012-08-04T23:28:27Z    Tianjin_2     39.425      -132.8565   227.1435    32.4595     17.1631      0.0544    20.289      20.3771     -0.4321     22.5       2.9451      -3.1494       
2012-08-04T23:31:29Z    Tianjin_2     39.4176     -132.8378   227.1622    32.462      17.1375      0.0563    20.2943     20.3771     -0.4064     22.5       2.9432      -2.962        
2012-08-04T23:34:30Z    Tianjin_2     39.4105     -132.82     227.18      32.4634     17.0932      0.0515    20.2917     20.3773     -0.4201     22.5       2.9398      -3.0608       
2012-08-04T23:37:32Z    Tianjin_2     39.4033     -132.8021   227.1979    32.4599     17.0509      0.0489    20.2895     20.3774     -0.4313     22.5       2.9366      -3.1414       
2012-08-04T23:40:33Z    Tianjin_2     39.3958     -132.7834   227.2166    32.4555     17.0515      0.0462    20.2893     20.3774     -0.4324     22.5       2.9367      -3.15         
2012-08-04T23:43:26Z    Tianjin_2     39.3884     -132.7654   227.2346    32.4531     17.0711      0.0456    20.2911     20.3773     -0.4235     22.5       2.9382      -3.0851       
2012-08-04T23:46:27Z    Tianjin_2     39.3812     -132.7474   227.2526    32.4456     17.0952      0.0466    20.2931     20.3773     -0.4133     22.5       2.94        -3.0114       
2012-08-04T23:49:29Z    Tianjin_2     39.3741     -132.7298   227.2702    32.4367     17.1702      0.0429    20.2891     20.3771     -0.4316     22.5       2.9604      -3.1624       
2012-08-04T23:52:30Z    Tianjin_2     39.3671     -132.7125   227.2875    32.4297     17.2168      0.0417    20.2869     20.3769     -0.4418     22.5       2.9639      -3.2381       
2012-08-04T23:55:32Z    Tianjin_2     39.36       -132.6946   227.3054    32.419      17.2255      0.0347    20.2835     20.3769     -0.4586     22.5       2.9646      -3.3615       
2012-08-05T00:43:29Z    Tianjin_2     39.2469     -132.4092   227.5908    32.396      17.3382      0.0296    20.3016     20.3766     -0.3681     22.5       3.0531      -2.773        
2012-08-05T00:46:30Z    Tianjin_2     39.2397     -132.3908   227.6092    32.3989     17.3996      0.0333    20.3034     20.3764     -0.3581     22.5       3.0581      -2.6993       
2012-08-05T00:49:32Z    Tianjin_2     39.2329     -132.3735   227.6265    32.4017     17.4369      0.031     20.3047     20.3763     -0.3512     22.5       3.0601      -2.6472       
2012-08-05T00:52:33Z    Tianjin_2     39.226      -132.3555   227.6445    32.4038     17.455       0.0331    20.3021     20.3762     -0.364      22.5       3.0615      -2.744        
2012-08-05T00:55:26Z    Tianjin_2     39.2189     -132.3375   227.6625    32.4049     17.4436      0.0337    20.2987     20.3763     -0.3805     22.5       3.0606      -2.8681       
2012-08-05T00:58:27Z    Tianjin_2     39.212      -132.3198   227.6802    32.4056     17.4086      0.0369    20.2934     20.3764     -0.4074     22.5       3.0578      -3.0697       
2012-08-05T01:01:29Z    Tianjin_2     39.2049     -132.3019   227.6981    32.4067     17.3735      0.0326    20.2907     20.3765     -0.4211     22.5       3.055       -3.1721       
2012-08-05T01:04:30Z    Tianjin_2     39.1977     -132.2835   227.7165    32.4083     17.4342      0.0281    20.2887     20.3763     -0.4298     22.5       3.0598      -3.2393       
2012-08-05T01:07:32Z    Tianjin_2     39.1902     -132.2649   227.7351    32.4097     17.4858      0.0338    20.2916     20.3761     -0.4149     22.5       3.064       -3.1279       
2012-08-05T01:10:33Z    Tianjin_2     39.1827     -132.2461   227.7539    32.4105     17.5231      0.0314    20.2929     20.376      -0.4078     22.5       3.067       -3.0754       
2012-08-05T01:13:26Z    Tianjin_2     39.1758     -132.2284   227.7716    32.4093     17.4783      0.0309    20.2904     20.3762     -0.4208     22.5       3.0634      -3.1722       
2012-08-05T01:16:27Z    Tianjin_2     39.1684     -132.2094   227.7906    32.4082     17.4313      0.0317    20.2905     20.3763     -0.4209     22.5       3.0596      -3.1716       
2012-08-05T01:19:29Z    Tianjin_2     39.1613     -132.191    227.809     32.4094     17.4113      0.0326    20.2862     20.3764     -0.4426     22.5       3.058       -3.3347       
2012-08-05T01:22:30Z    Tianjin_2     39.1545     -132.1733   227.8267    32.41       17.4078      0.0343    20.282      20.3764     -0.463      22.5       3.0577      -3.4883       
2012-08-05T01:25:32Z    Tianjin_2     39.1477     -132.1551   227.8449    32.4105     17.4087      0.0289    20.2817     20.3764     -0.4646     22.5       3.0578      -3.5006       
2012-08-05T01:28:33Z    Tianjin_2     39.1411     -132.1378   227.8622    32.4084     17.379       0.0322    20.2798     20.3765     -0.4745     22.5       3.0554      -3.5747       
2012-08-05T01:31:26Z    Tianjin_2     39.1344     -132.1198   227.8802    32.4071     17.3912      0.0327    20.2796     20.3764     -0.4751     22.5       3.0681      -3.5932       
2012-08-05T01:34:27Z    Tianjin_2     39.1275     -132.1013   227.8987    32.4059     17.4115      0.0381    20.2792     20.3764     -0.4767     22.5       3.0698      -3.6054       
2012-08-05T01:37:29Z    Tianjin_2     39.1208     -132.0836   227.9164    32.4053     17.4298      0.0389    20.2752     20.3763     -0.4963     22.5       3.0518      -3.7305       
2012-08-05T01:40:30Z    Tianjin_2     39.114      -132.0654   227.9346    32.4046     17.4589      0.0373    20.2754     20.3762     -0.4949     22.5       3.0541      -3.7212       
2012-08-05T01:43:32Z    Tianjin_2     39.1073     -132.0476   227.9524    32.4045     17.5229      0.032     20.2767     20.376      -0.4877     22.5       3.0591      -3.6681       
2012-08-05T01:46:33Z    Tianjin_2     39.1008     -132.0303   227.9697    32.4048     17.5619      0.0336    20.2788     20.3759     -0.4765     22.5       3.0622      -3.5848       
2012-08-05T01:49:26Z    Tianjin_2     39.094      -132.0118   227.9882    32.405      17.5449      0.036     20.276      20.376      -0.4905     22.5       3.0609      -3.6897       
2012-08-05T01:52:27Z    Tianjin_2     39.0873     -131.9937   228.0063    32.4049     17.4894      0.0358    20.2771     20.3761     -0.4859     22.5       3.0565      -3.6543       
2012-08-05T01:55:29Z    Tianjin_2     39.0809     -131.9762   228.0238    32.4044     17.4369      0.0394    20.2774     20.3763     -0.4854     22.5       3.0523      -3.6488       
2012-08-05T01:58:30Z    Tianjin_2     39.0743     -131.9584   228.0416    32.4036     17.4077      0.0359    20.2792     20.3764     -0.4769     22.5       3.05        -3.584        
2012-08-05T02:01:32Z    Tianjin_2     39.0672     -131.9401   228.0599    32.4036     17.4294      0.0321    20.2836     20.3763     -0.4551     22.5       3.0518      -3.4211       
2012-08-05T02:04:33Z    Tianjin_2     39.0598     -131.9218   228.0782    32.4036     17.4513      0.0312    20.2823     20.3762     -0.4612     22.5       3.0535      -3.4675       
2012-08-05T02:07:26Z    Tianjin_2     39.0528     -131.9048   228.0952    32.4033     17.4417      0.0362    20.2814     20.3763     -0.4655     22.5       3.0527      -3.4995       
2012-08-05T02:10:27Z    Tianjin_2     39.0456     -131.8874   228.1126    32.4035     17.396       0.0317    20.2817     20.3764     -0.4649     22.5       3.0491      -3.494        
2012-08-05T02:13:29Z    Tianjin_2     39.0378     -131.8685   228.1315    32.4033     17.3225      0.0341    20.2847     20.3766     -0.4511     22.5       3.0677      -3.4161       
2012-08-05T02:16:30Z    Tianjin_2     39.03       -131.8495   228.1505    32.4032     17.3037      0.0321    20.2856     20.3767     -0.4472     22.5       3.0663      -3.3857       
2012-08-05T02:19:32Z    Tianjin_2     39.023      -131.8325   228.1675    32.404      17.3483      0.0312    20.2847     20.3766     -0.4509     22.5       3.0698      -3.4151       
2012-08-05T02:22:33Z    Tianjin_2     39.0163     -131.8162   228.1838    32.4054     17.3981      0.0246    20.283      20.3764     -0.4584     22.5       3.0737      -3.4726       
2012-08-05T02:25:26Z    Tianjin_2     39.009      -131.798    228.202     32.4069     17.4317      0.0342    20.2814     20.3763     -0.4657     22.5       3.0763      -3.529        
2012-08-05T02:28:27Z    Tianjin_2     39.0016     -131.7798   228.2202    32.409      17.489       0.0313    20.2803     20.3761     -0.4703     22.5       3.0808      -3.5645       
2012-08-05T02:31:29Z    Tianjin_2     38.9946     -131.7624   228.2376    32.4101     17.4937      0.0357    20.2804     20.3761     -0.4697     22.5       3.0812      -3.5599       
2012-08-05T02:34:30Z    Tianjin_2     38.9873     -131.7445   228.2555    32.4102     17.4434      0.0357    20.2758     20.3763     -0.4932     22.5       3.0772      -3.7369       
2012-08-05T02:37:32Z    Tianjin_2     38.9797     -131.7255   228.2745    32.4101     17.4079      0.0308    20.274      20.3764     -0.5023     22.5       3.0744      -3.8051       
2012-08-05T02:40:33Z    Tianjin_2     38.9725     -131.7076   228.2924    32.4109     17.39        0.0331    20.2768     20.3764     -0.4891     22.5       3.073       -3.7046       
2012-08-05T02:43:26Z    Tianjin_2     38.9654     -131.6902   228.3098    32.4114     17.3938      0.0327    20.2789     20.3764     -0.4784     22.5       3.0733      -3.6236       
2012-08-05T02:46:27Z    Tianjin_2     38.9582     -131.6725   228.3275    32.4128     17.4249      0.0334    20.2808     20.3763     -0.4686     22.5       3.0757      -3.5501       
2012-08-05T02:49:29Z    Tianjin_2     38.9512     -131.655    228.345     32.4149     17.4407      0.0311    20.2803     20.3763     -0.471      22.5       3.077       -3.5687       
2012-08-05T02:52:30Z    Tianjin_2     38.9439     -131.6371   228.3629    32.4167     17.396       0.0284    20.278      20.3764     -0.4829     22.5       3.0735      -3.658        
2012-08-05T02:55:32Z    Tianjin_2     38.9366     -131.6189   228.3811    32.4205     17.3827      0.0289    20.2777     20.3764     -0.4845     22.5       3.11        -3.7146       
2012-08-05T03:43:29Z    Tianjin_2     38.8226     -131.3318   228.6682    32.5508     17.6687      0.0263    20.288      20.3754     -0.4289     22.5       3.1543      -3.3143       
2012-08-05T03:46:30Z    Tianjin_2     38.8155     -131.3137   228.6863    32.5468     17.6494      0.0245    20.2946     20.3754     -0.3967     22.5       3.1528      -3.065        
2012-08-05T03:49:32Z    Tianjin_2     38.8084     -131.2956   228.7044    32.5385     17.5814      0.0306    20.2968     20.3757     -0.3871     22.5       3.1475      -2.9901       
2012-08-05T03:52:33Z    Tianjin_2     38.8015     -131.278    228.722     32.5355     17.5217      0.0278    20.2961     20.3758     -0.3914     22.5       3.1429      -3.0227       
2012-08-05T03:55:26Z    Tianjin_2     38.794      -131.2602   228.7398    32.5335     17.4813      0.0311    20.2973     20.376      -0.3859     22.5       3.1398      -2.9794       
2012-08-05T03:58:27Z    Tianjin_2     38.7864     -131.242    228.758     32.5295     17.4642      0.0333    20.2948     20.376      -0.3989     22.5       3.1384      -3.0791       
2012-08-05T04:01:29Z    Tianjin_2     38.7789     -131.2245   228.7755    32.5279     17.4381      0.0248    20.2938     20.3761     -0.4039     22.5       3.1364      -3.1173       
2012-08-05T04:04:30Z    Tianjin_2     38.7709     -131.2057   228.7943    32.5284     17.4229      0.0304    20.2951     20.3762     -0.3977     22.5       3.1352      -3.0695       
2012-08-05T04:07:32Z    Tianjin_2     38.7634     -131.1885   228.8115    32.5337     17.4353      0.0257    20.2926     20.3761     -0.4096     22.5       3.1362      -3.1616       
2012-08-05T04:10:33Z    Tianjin_2     38.7564     -131.1726   228.8274    32.5454     17.4916      0.0304    20.2969     20.3759     -0.3879     22.5       3.1405      -2.9943       
2012-08-05T04:13:26Z    Tianjin_2     38.7487     -131.1551   228.8449    32.5652     17.5839      0.027     20.2949     20.3756     -0.3962     22.5       3.1476      -3.0597       
2012-08-05T04:16:27Z    Tianjin_2     38.741      -131.1376   228.8624    32.5734     17.6048      0.0217    20.2952     20.3755     -0.3943     22.5       3.1492      -3.0456       
2012-08-05T04:19:29Z    Tianjin_2     38.7333     -131.1202   228.8798    32.575      17.616       0.0166    20.296      20.3755     -0.3904     22.5       3.187       -3.0507       
2012-08-05T04:22:30Z    Tianjin_2     38.7253     -131.1023   228.8977    32.5791     17.6181      0.0279    20.2942     20.3755     -0.3988     22.5       3.1872      -3.1165       
2012-08-05T04:25:32Z    Tianjin_2     38.7174     -131.0847   228.9153    32.5939     17.7017      0.0228    20.2927     20.3752     -0.4049     22.5       3.1936      -3.1648       
2012-08-05T04:28:33Z    Tianjin_2     38.7098     -131.0675   228.9325    32.5985     17.7288      0.0211    20.2851     20.3751     -0.4421     22.5       3.1957      -3.4559       
2012-08-05T04:31:26Z    Tianjin_2     38.702      -131.0499   228.9501    32.5964     17.7298      0.0233    20.2811     20.3751     -0.4617     22.5       3.1958      -3.6093       
2012-08-05T04:34:27Z    Tianjin_2     38.6943     -131.0325   228.9675    32.5953     17.726       0.0259    20.2817     20.3751     -0.4588     22.5       3.1955      -3.5863       
2012-08-05T04:37:29Z    Tianjin_2     38.6865     -131.0149   228.9851    32.6013     17.7141      0.0228    20.2823     20.3752     -0.4557     22.5       3.1945      -3.5619       
2012-08-05T04:40:30Z    Tianjin_2     38.6784     -130.9964   229.0036    32.6072     17.716       0.0233    20.2791     20.3752     -0.4712     22.5       3.1947      -3.6834       
2012-08-05T04:43:32Z    Tianjin_2     38.6706     -130.9786   229.0214    32.6101     17.7231      0.0301    20.2769     20.3751     -0.482      22.5       3.1952      -3.7679       
2012-08-05T04:46:33Z    Tianjin_2     38.6633     -130.9619   229.0381    32.614      17.7202      0.0248    20.2737     20.3751     -0.498      22.5       3.195       -3.8924       
2012-08-05T04:49:26Z    Tianjin_2     38.6556     -130.9442   229.0558    32.6203     17.7261      0.0304    20.2746     20.3751     -0.4934     22.5       3.1954      -3.8564       
2012-08-05T04:52:27Z    Tianjin_2     38.6478     -130.9263   229.0737    32.6247     17.7167      0.0261    20.2753     20.3751     -0.4899     22.5       3.1947      -3.8291       
2012-08-05T04:55:29Z    Tianjin_2     38.6401     -130.9085   229.0915    32.6129     17.73        0.0274    20.2722     20.3751     -0.5053     22.5       3.1957      -3.9494       
2012-08-05T04:58:30Z    Tianjin_2     38.6326     -130.891    229.109     32.59       17.699       0.0209    20.2721     20.3752     -0.5064     22.5       3.1934      -3.9582       
2012-08-05T05:01:32Z    Tianjin_2     38.625      -130.8732   229.1268    32.5719     17.6738      0.0306    20.2729     20.3753     -0.503      22.5       3.1944      -3.9351       
2012-08-05T05:04:33Z    Tianjin_2     38.6173     -130.8554   229.1446    32.5525     17.6336      0.0228    20.2726     20.3755     -0.5051     22.5       3.1914      -3.9519       
2012-08-05T05:07:26Z    Tianjin_2     38.6097     -130.8378   229.1622    32.5383     17.6001      0.0239    20.2717     20.3756     -0.5102     22.5       3.1889      -3.991        
2012-08-05T05:10:27Z    Tianjin_2     38.6019     -130.82     229.18      32.5287     17.5758      0.0316    20.2719     20.3757     -0.5094     22.5       3.1871      -3.9847       
2012-08-05T05:13:29Z    Tianjin_2     38.5944     -130.8026   229.1974    32.5211     17.5323      0.024     20.2684     20.3758     -0.5274     22.5       3.1838      -4.1245       
2012-08-05T05:16:30Z    Tianjin_2     38.5865     -130.7843   229.2157    32.5156     17.488       0.0254    20.2687     20.376      -0.5265     22.5       3.1804      -4.1168       
2012-08-05T05:19:32Z    Tianjin_2     38.5788     -130.7665   229.2335    32.5114     17.4477      0.0331    20.2714     20.3761     -0.5139     22.5       3.1773      -4.0178       
2012-08-05T05:22:33Z    Tianjin_2     38.5716     -130.7496   229.2504    32.5071     17.3996      0.0223    20.2699     20.3763     -0.5222     22.5       3.1737      -4.0818       
2012-08-05T05:25:26Z    Tianjin_2     38.5639     -130.7311   229.2689    32.5023     17.3377      0.0318    20.2727     20.3765     -0.5094     22.5       3.169       -3.9809       
2012-08-05T05:28:27Z    Tianjin_2     38.5565     -130.7131   229.2869    32.4993     17.328       0.0302    20.2757     20.3765     -0.4946     22.5       3.1682      -3.8648       
2012-08-05T05:31:29Z    Tianjin_2     38.5489     -130.6947   229.3053    32.4968     17.3391      0.0291    20.275      20.3765     -0.4979     22.5       3.1691      -3.8912       
2012-08-05T05:34:30Z    Tianjin_2     38.5417     -130.6769   229.3231    32.4972     17.3404      0.0244    20.2737     20.3765     -0.5045     22.5       3.1692      -3.9431       
2012-08-05T05:37:32Z    Tianjin_2     38.5347     -130.6592   229.3408    32.4972     17.3363      0.0254    20.2697     20.3765     -0.524      22.5       3.1689      -4.095        
2012-08-05T05:40:33Z    Tianjin_2     38.5277     -130.6414   229.3586    32.4959     17.3377      0.0292    20.2711     20.3765     -0.5171     22.5       3.169       -4.0416       
2012-08-05T05:43:26Z    Tianjin_2     38.5208     -130.6239   229.3761    32.4945     17.3412      0.0344    20.2721     20.3765     -0.5123     22.5       3.1922      -4.0327       
2012-08-05T05:46:27Z    Tianjin_2     38.5136     -130.6058   229.3942    32.4935     17.3449      0.0266    20.2764     20.3764     -0.4912     22.5       3.1925      -3.8666       
2012-08-05T05:49:29Z    Tianjin_2     38.5064     -130.5875   229.4125    32.4875     17.3347      0.0289    20.2702     20.3765     -0.5216     22.5       3.1917      -4.1062       
2012-08-05T05:52:30Z    Tianjin_2     38.4991     -130.5694   229.4306    32.4796     17.3164      0.0311    20.2683     20.3766     -0.5314     22.5       3.1904      -4.1831       
2012-08-05T05:55:32Z    Tianjin_2     38.4917     -130.5508   229.4492    32.4735     17.3032      0.0275    20.2708     20.3766     -0.5191     22.5       3.1894      -4.0859       
2012-08-05T06:43:29Z    Tianjin_2     38.3756     -130.2644   229.7356    32.4585     17.3275      0.029     20.287      20.3766     -0.4394     22.5       3.2205      -3.4913       
2012-08-05T06:46:30Z    Tianjin_2     38.368      -130.2467   229.7533    32.4514     17.3233      0.0302    20.2911     20.3766     -0.4196     22.5       3.1929      -3.3057       
2012-08-05T06:49:32Z    Tianjin_2     38.3605     -130.2289   229.7711    32.4416     17.3079      0.0265    20.2902     20.3766     -0.4243     22.5       3.1918      -3.3432       
2012-08-05T06:52:33Z    Tianjin_2     38.3528     -130.211    229.789     32.4391     17.3037      0.0298    20.2895     20.3767     -0.4276     22.5       3.1915      -3.3686       
2012-08-05T06:55:26Z    Tianjin_2     38.3455     -130.1936   229.8064    32.4279     17.2635      0.0312    20.2857     20.3768     -0.4469     22.5       3.1885      -3.5205       
2012-08-05T06:58:27Z    Tianjin_2     38.3379     -130.176    229.824     32.4055     17.2088      0.0268    20.2864     20.377      -0.4445     22.5       3.1845      -3.5015       
2012-08-05T07:01:29Z    Tianjin_2     38.3299     -130.1574   229.8426    32.3815     17.1323      0.0271    20.2785     20.3773     -0.4846     22.5       3.1788      -3.8166       
2012-08-05T07:04:30Z    Tianjin_2     38.322      -130.1393   229.8607    32.3683     17.0452      0.0323    20.2768     20.3775     -0.4942     22.5       3.1724      -3.8916       
2012-08-05T07:07:32Z    Tianjin_2     38.3141     -130.1209   229.8791    32.3536     16.9857      0.0317    20.2771     20.3778     -0.4939     22.5       3.2164      -3.9481       
2012-08-05T07:10:33Z    Tianjin_2     38.3065     -130.103    229.897     32.345      16.9367      0.0269    20.2782     20.3779     -0.4893     22.5       3.2126      -3.91         
2012-08-05T07:13:26Z    Tianjin_2     38.2992     -130.0857   229.9143    32.3322     16.8676      0.0232    20.2794     20.3782     -0.4847     22.5       3.2074      -3.8724       
2012-08-05T07:16:27Z    Tianjin_2     38.2917     -130.068    229.932     32.319      16.7885      0.0262    20.2778     20.3784     -0.4939     22.5       3.2015      -3.945        
2012-08-05T07:19:29Z    Tianjin_2     38.2844     -130.0508   229.9492    32.3105     16.7475      0.0346    20.2747     20.3786     -0.5098     22.5       3.1984      -4.0719       
2012-08-05T07:22:30Z    Tianjin_2     38.2763     -130.032    229.968     32.3072     16.7473      0.0345    20.2746     20.3786     -0.5101     22.5       3.1984      -4.0744       
2012-08-05T07:25:32Z    Tianjin_2     38.2687     -130.0142   229.9858    32.3054     16.7523      0.0301    20.2766     20.3786     -0.5001     22.5       3.1988      -3.9944       
2012-08-05T07:28:33Z    Tianjin_2     38.2611     -129.9968   230.0032    32.3012     16.7477      0.0317    20.2774     20.3786     -0.4963     17.5       3.125       -3.8734       
2012-08-05T07:31:26Z    Tianjin_2     38.2533     -129.9791   230.0209    32.2989     16.7491      0.0323    20.2725     20.3786     -0.5207     17.5       3.1251      -4.0638       
2012-08-05T07:34:27Z    Tianjin_2     38.2458     -129.9619   230.0381    32.2977     16.737       0.0364    20.2715     20.3786     -0.5256     17.5       3.1242      -4.1015       
2012-08-05T07:37:29Z    Tianjin_2     38.2382     -129.9447   230.0553    32.2953     16.7413      0.0407    20.2721     20.3786     -0.5226     17.5       3.1246      -4.0785       
2012-08-05T07:40:30Z    Tianjin_2     38.2307     -129.9275   230.0725    32.293      16.7522      0.0328    20.2734     20.3786     -0.5159     17.5       3.1254      -4.0264       
2012-08-05T07:43:32Z    Tianjin_2     38.2226     -129.9091   230.0909    32.2907     16.7603      0.0324    20.2743     20.3786     -0.5114     17.5       3.126       -3.9919       
2012-08-05T07:46:33Z    Tianjin_2     38.215      -129.8915   230.1085    32.289      16.7548      0.0299    20.273      20.3786     -0.5182     17.5       3.1256      -4.045        
2012-08-05T07:49:26Z    Tianjin_2     38.2074     -129.8744   230.1256    32.2876     16.7561      0.0314    20.2742     20.3786     -0.5123     17.5       3.1975      -4.0908       
2012-08-05T07:52:27Z    Tianjin_2     38.1996     -129.8569   230.1431    32.2857     16.7483      0.0415    20.2711     20.3786     -0.5274     17.5       3.1969      -4.2107       
2012-08-05T07:55:29Z    Tianjin_2     38.1919     -129.8396   230.1604    32.2841     16.746       0.0414    20.2733     20.3786     -0.5169     17.5       3.1968      -4.127        
2012-08-05T07:58:30Z    Tianjin_2     38.1839     -129.8219   230.1781    32.2814     16.7373      0.0368    20.2702     20.3786     -0.532      17.5       3.1961      -4.2475       
2012-08-05T08:01:32Z    Tianjin_2     38.1765     -129.804    230.196     32.2783     16.7335      0.0309    20.265      20.3787     -0.5576     17.5       3.1958      -4.4524       
2012-08-05T08:04:33Z    Tianjin_2     38.1691     -129.7859   230.2141    32.2759     16.7252      0.0356    20.2663     20.3787     -0.5517     17.5       3.1952      -4.4047       
2012-08-05T08:07:26Z    Tianjin_2     38.1616     -129.7676   230.2324    32.275      16.7221      0.0346    20.2655     20.3787     -0.5554     17.5       3.195       -4.4342       
2012-08-05T08:10:27Z    Tianjin_2     38.1545     -129.7499   230.2501    32.2739     16.7242      0.0315    20.2669     20.3787     -0.5485     17.5       3.1951      -4.3793       
2012-08-05T08:13:29Z    Tianjin_2     38.1475     -129.7325   230.2675    32.2711     16.722       0.0384    20.2631     20.3787     -0.5671     17.5       3.195       -4.5281       
2012-08-05T08:16:30Z    Tianjin_2     38.1404     -129.7146   230.2854    32.2695     16.716       0.0344    20.2626     20.3787     -0.5698     17.5       3.1945      -4.5496       
2012-08-05T08:19:32Z    Tianjin_2     38.1334     -129.6968   230.3032    32.2687     16.7072      0.0395    20.2645     20.3787     -0.5608     17.5       3.1939      -4.4775       
2012-08-05T08:22:33Z    Tianjin_2     38.1262     -129.6782   230.3218    32.2662     16.7056      0.0306    20.2619     20.3788     -0.5732     17.5       3.1937      -4.5765       
2012-08-05T08:25:26Z    Tianjin_2     38.1191     -129.6603   230.3397    32.2629     16.7097      0.0335    20.2593     20.3787     -0.5863     17.5       3.1839      -4.6664       
2012-08-05T08:28:27Z    Tianjin_2     38.1122     -129.6426   230.3574    32.2599     16.706       0.0401    20.259      20.3788     -0.5877     17.5       3.1836      -4.6777       
2012-08-05T08:31:29Z    Tianjin_2     38.1051     -129.6245   230.3755    32.2585     16.6908      0.0382    20.26       20.3788     -0.5833     17.5       3.2805      -4.7849       
2012-08-05T08:34:30Z    Tianjin_2     38.0982     -129.6069   230.3931    32.2588     16.6717      0.0405    20.261      20.3789     -0.5783     17.5       3.279       -4.7439       
2012-08-05T08:37:32Z    Tianjin_2     38.091      -129.5882   230.4118    32.2603     16.6595      0.0309    20.2582     20.3789     -0.5925     17.5       3.278       -4.8599       
2012-08-05T08:40:33Z    Tianjin_2     38.0839     -129.5702   230.4298    32.2602     16.6516      0.0385    20.2592     20.3789     -0.5877     17.5       3.2774      -4.8207       
2012-08-05T08:43:26Z    Tianjin_2     38.0773     -129.5533   230.4467    32.2581     16.6453      0.0405    20.262      20.379      -0.5737     17.5       3.2769      -4.7057       
2012-08-05T08:46:27Z    Tianjin_2     38.0701     -129.5353   230.4647    32.2555     16.6415      0.0357    20.2624     20.379      -0.572      17.5       3.2766      -4.6919       
2012-08-05T08:49:29Z    Tianjin_2     38.0627     -129.5169   230.4831    32.2542     16.644       0.0397    20.2592     20.379      -0.5878     17.5       3.2768      -4.8213       
2012-08-05T08:52:30Z    Tianjin_2     38.0557     -129.4995   230.5005    32.2522     16.644       0.0366    20.2567     20.379      -0.6001     17.5       3.2768      -4.9223       
2012-08-05T08:55:32Z    Tianjin_2     38.0486     -129.4821   230.5179    32.2506     16.638       0.0352    20.2558     20.379      -0.6043     17.5       3.2764      -4.957        
2012-08-05T09:43:29Z    Tianjin_2     37.9245     -129.2008   230.7992    32.2422     16.5822      0.0388    20.2793     20.3792     -0.4899     17.5       3.3873      -4.1593       
2012-08-05T09:46:30Z    Tianjin_2     37.9166     -129.1835   230.8165    32.2435     16.583       0.0354    20.284      20.3792     -0.4669     17.5       3.3874      -3.9638       
2012-08-05T09:49:32Z    Tianjin_2     37.9085     -129.166    230.834     32.2471     16.587       0.0293    20.2856     20.3792     -0.4592     17.5       3.3877      -3.8987       
2012-08-05T09:52:33Z    Tianjin_2     37.9004     -129.1485   230.8515    32.2501     16.5901      0.0381    20.2827     20.3791     -0.4732     17.5       3.3879      -4.0172       
2012-08-05T09:55:26Z    Tianjin_2     37.8923     -129.1311   230.8689    32.2521     16.5926      0.0425    20.2803     20.3791     -0.4851     17.5       3.3881      -4.1185       
2012-08-05T09:58:27Z    Tianjin_2     37.8845     -129.1142   230.8858    32.2528     16.5841      0.0326    20.282      20.3792     -0.4767     17.5       3.4883      -4.1674       
2012-08-05T10:01:29Z    Tianjin_2     37.8768     -129.0976   230.9024    32.2534     16.5787      0.0369    20.2774     20.3792     -0.4994     17.5       3.4878      -4.3652       
2012-08-05T10:04:30Z    Tianjin_2     37.869      -129.0803   230.9197    32.2536     16.5783      0.0378    20.2706     20.3792     -0.5329     17.5       3.4726      -4.638        
2012-08-05T10:07:32Z    Tianjin_2     37.8611     -129.0626   230.9374    32.2535     16.5782      0.0367    20.2715     20.3792     -0.5285     17.5       3.4726      -4.6001       
2012-08-05T10:10:33Z    Tianjin_2     37.8533     -129.045    230.955     32.2535     16.5767      0.0392    20.2707     20.3792     -0.5324     17.5       3.4725      -4.6335       
2012-08-05T10:13:26Z    Tianjin_2     37.8456     -129.0277   230.9723    32.2538     16.5649      0.0452    20.2685     20.3792     -0.5435     17.5       3.4715      -4.7299       
2012-08-05T10:16:27Z    Tianjin_2     37.8377     -129.01     230.99      32.2538     16.5601      0.0329    20.2713     20.3792     -0.5295     17.5       3.4711      -4.6086       
2012-08-05T10:19:29Z    Tianjin_2     37.8298     -128.9921   231.0079    32.2538     16.568       0.0357    20.2716     20.3792     -0.5282     17.5       3.4718      -4.5968       
2012-08-05T10:22:30Z    Tianjin_2     37.8219     -128.9744   231.0256    32.2529     16.5681      0.0355    20.269      20.3792     -0.5407     17.5       3.4718      -4.7054       
2012-08-05T10:25:32Z    Tianjin_2     37.8143     -128.9571   231.0429    32.2526     16.5634      0.0368    20.2677     20.3792     -0.5472     17.5       3.4714      -4.7624       
2012-08-05T10:28:33Z    Tianjin_2     37.8066     -128.9398   231.0602    32.2519     16.5686      0.0389    20.2669     20.3792     -0.5511     17.5       3.4718      -4.7961       
2012-08-05T10:31:26Z    Tianjin_2     37.7991     -128.9226   231.0774    32.2514     16.5701      0.0361    20.2642     20.3792     -0.5644     17.5       3.4719      -4.9123       
2012-08-05T10:34:27Z    Tianjin_2     37.7911     -128.9045   231.0955    32.2511     16.5567      0.0392    20.263      20.3792     -0.5705     17.5       3.4708      -4.9647       
2012-08-05T10:37:29Z    Tianjin_2     37.7835     -128.8867   231.1133    32.2518     16.5379      0.0354    20.2649     20.3793     -0.5612     17.5       3.4693      -4.8841       
2012-08-05T10:40:30Z    Tianjin_2     37.776      -128.8692   231.1308    32.2529     16.5243      0.0333    20.2674     20.3794     -0.5495     17.5       3.5515      -4.8964       
2012-08-05T10:43:32Z    Tianjin_2     37.7684     -128.8513   231.1487    32.2545     16.5315      0.0403    20.2661     20.3793     -0.5554     17.5       3.5521      -4.9487       
2012-08-05T10:46:33Z    Tianjin_2     37.7606     -128.833    231.167     32.2592     16.5456      0.0391    20.2654     20.3793     -0.5587     17.5       3.5533      -4.9789       
2012-08-05T10:49:26Z    Tianjin_2     37.7531     -128.8153   231.1847    32.2609     16.5674      0.0345    20.269      20.3792     -0.5407     17.5       3.5551      -4.8187       
2012-08-05T10:52:27Z    Tianjin_2     37.7459     -128.7979   231.2021    32.2601     16.5705      0.0391    20.2677     20.3792     -0.5472     17.5       3.5554      -4.8767       
2012-08-05T10:55:29Z    Tianjin_2     37.7381     -128.78     231.22      32.2589     16.584       0.0321    20.2719     20.3792     -0.5262     17.5       3.5565      -4.6895       
2012-08-05T10:58:30Z    Tianjin_2     37.7303     -128.7621   231.2379    32.2596     16.5898      0.0397    20.2645     20.3791     -0.5626     17.5       3.557       -5.0143       
2012-08-05T11:01:32Z    Tianjin_2     37.7218     -128.7427   231.2573    32.2593     16.5677      0.0364    20.2644     20.3792     -0.5632     17.5       3.5551      -5.0192       
2012-08-05T11:04:33Z    Tianjin_2     37.7139     -128.7246   231.2754    32.2597     16.5763      0.034     20.2661     20.3792     -0.5548     17.5       3.5559      -4.9441       
2012-08-05T11:07:26Z    Tianjin_2     37.7065     -128.7079   231.2921    32.262      16.5935      0.0336    20.2662     20.3791     -0.554      17.5       3.5573      -4.9372       
2012-08-05T11:10:27Z    Tianjin_2     37.6986     -128.6902   231.3098    32.2649     16.6114      0.0307    20.2608     20.3791     -0.5805     17.5       3.5588      -5.1737       
2012-08-05T11:13:29Z    Tianjin_2     37.6907     -128.6726   231.3274    32.2711     16.6319      0.0351    20.2579     20.379      -0.5944     17.5       3.5605      -5.298        
2012-08-05T11:16:30Z    Tianjin_2     37.6827     -128.6546   231.3454    32.2771     16.6597      0.0265    20.258      20.3789     -0.5932     17.5       3.5628      -5.2882       
2012-08-05T11:19:32Z    Tianjin_2     37.6749     -128.6369   231.3631    32.2804     16.6636      0.0368    20.2616     20.3789     -0.5755     17.5       3.5631      -5.1303       
2012-08-05T11:22:33Z    Tianjin_2     37.6671     -128.6193   231.3807    32.2811     16.667       0.0371    20.2615     20.3789     -0.5759     17.5       3.6217      -5.218        
2012-08-05T11:25:26Z    Tianjin_2     37.6592     -128.6013   231.3987    32.282      16.6649      0.0346    20.2595     20.3789     -0.5856     17.5       3.6216      -5.3053       
2012-08-05T11:28:27Z    Tianjin_2     37.6513     -128.5833   231.4167    32.2813     16.6583      0.04      20.2592     20.3789     -0.5875     17.5       3.621       -5.3225       
2012-08-05T11:31:29Z    Tianjin_2     37.6433     -128.5652   231.4348    32.279      16.6482      0.0339    20.2618     20.3789     -0.5746     17.5       3.6201      -5.206        
2012-08-05T11:34:30Z    Tianjin_2     37.6352     -128.5469   231.4531    32.2784     16.6653      0.0315    20.2613     20.3789     -0.5768     17.5       3.6216      -5.226        
2012-08-05T11:37:32Z    Tianjin_2     37.6272     -128.5289   231.4711    32.2785     16.6738      0.038     20.26       20.3788     -0.5833     17.5       3.6223      -5.2848       
2012-08-05T11:40:33Z    Tianjin_2     37.6192     -128.511    231.489     32.2814     16.6689      0.0274    20.26       20.3789     -0.5833     17.5       3.5905      -5.2392       
2012-08-05T11:43:26Z    Tianjin_2     37.6113     -128.4933   231.5067    32.2847     16.6748      0.0296    20.2583     20.3788     -0.5916     17.5       3.591       -5.3134       
2012-08-05T11:46:27Z    Tianjin_2     37.6032     -128.4754   231.5246    32.2863     16.6788      0.0311    20.2619     20.3788     -0.5735     17.5       3.5913      -5.1514       
2012-08-05T11:49:29Z    Tianjin_2     37.5951     -128.4575   231.5425    32.2884     16.688       0.0282    20.2575     20.3788     -0.5952     17.5       3.592       -5.3462       
2012-08-05T11:52:30Z    Tianjin_2     37.587      -128.4395   231.5605    32.2907     16.6848      0.0291    20.255      20.3788     -0.6073     17.5       3.5918      -5.4549       
2012-08-05T11:55:32Z    Tianjin_2     37.5789     -128.4215   231.5785    32.2902     16.6775      0.0341    20.2533     20.3788     -0.616      17.5       3.5912      -5.5327       
2012-08-05T12:43:29Z    Tianjin_2     37.4536     -128.1364   231.8636    32.3691     16.3807      0.0467    20.2993     20.3796     -0.3945     17.5       3.5925      -3.5629       
2012-08-05T12:46:30Z    Tianjin_2     37.4453     -128.1174   231.8826    32.35       16.3606      0.0365    20.2986     20.3797     -0.3982     17.5       3.6048      -3.6107       
2012-08-05T12:49:32Z    Tianjin_2     37.4377     -128.0996   231.9004    32.3403     16.3411      0.0444    20.298      20.3798     -0.4016     17.5       3.6032      -3.6418       
2012-08-05T12:52:33Z    Tianjin_2     37.4304     -128.0827   231.9173    32.3348     16.3391      0.039     20.2951     20.3798     -0.4155     17.5       3.603       -3.768        
2012-08-05T12:55:26Z    Tianjin_2     37.4227     -128.0648   231.9352    32.3299     16.3512      0.0469    20.2946     20.3798     -0.418      17.5       3.6041      -3.7905       
2012-08-05T12:58:27Z    Tianjin_2     37.4152     -128.0478   231.9522    32.3228     16.3361      0.0401    20.2941     20.3799     -0.4206     17.5       3.6028      -3.8143       
2012-08-05T13:01:29Z    Tianjin_2     37.4073     -128.0301   231.9699    32.3109     16.3455      0.0409    20.29       20.3798     -0.4406     17.5       3.6037      -3.9964       
2012-08-05T13:04:30Z    Tianjin_2     37.3993     -128.0121   231.9879    32.3043     16.3379      0.0399    20.2928     20.3799     -0.427      17.5       3.6031      -3.8731       
2012-08-05T13:07:32Z    Tianjin_2     37.3916     -127.9951   232.0049    32.3029     16.333       0.0381    20.2945     20.3799     -0.419      12.5       3.4205      -3.6086       
2012-08-05T13:10:33Z    Tianjin_2     37.3837     -127.9783   232.0217    32.3029     16.3245      0.034     20.2946     20.3799     -0.4187     12.5       3.4199      -3.6055       
2012-08-05T13:13:26Z    Tianjin_2     37.3754     -127.9606   232.0394    32.303      16.3153      0.0392    20.2939     20.3799     -0.4221     12.5       3.4192      -3.6351       
2012-08-05T13:16:27Z    Tianjin_2     37.3671     -127.9429   232.0571    32.3034     16.3134      0.0434    20.2945     20.38       -0.4194     12.5       3.3991      -3.5907       
2012-08-05T13:19:29Z    Tianjin_2     37.3589     -127.9255   232.0745    32.3148     16.3545      0.0416    20.2981     20.3798     -0.401      12.5       3.402       -3.4328       
2012-08-05T13:22:30Z    Tianjin_2     37.3508     -127.908    232.092     32.3625     16.4056      0.0396    20.2996     20.3796     -0.3926     12.5       3.4055      -3.3596       
2012-08-05T13:25:32Z    Tianjin_2     37.3424     -127.89     232.11      32.3752     16.3805      0.0439    20.2937     20.3796     -0.4218     12.5       3.4036      -3.6098       
2012-08-05T13:28:33Z    Tianjin_2     37.3342     -127.8725   232.1275    32.3712     16.3504      0.0442    20.2918     20.3797     -0.4313     12.5       3.4058      -3.6956       
2012-08-05T13:31:26Z    Tianjin_2     37.3264     -127.8558   232.1442    32.37       16.2732      0.0449    20.2887     20.38       -0.448      12.5       3.4003      -3.8384       
2012-08-05T13:34:27Z    Tianjin_2     37.3179     -127.8378   232.1622    32.3772     16.2615      0.0536    20.2894     20.38       -0.4444     12.5       3.3995      -3.8073       
2012-08-05T13:37:29Z    Tianjin_2     37.3095     -127.82     232.18      32.3923     16.3676      0.0505    20.2869     20.3797     -0.4552     12.5       3.4069      -3.8996       
2012-08-05T13:40:30Z    Tianjin_2     37.3014     -127.8028   232.1972    32.3967     16.3882      0.0416    20.2818     20.3796     -0.4796     12.5       3.4083      -4.1083       
2012-08-05T13:43:32Z    Tianjin_2     37.2931     -127.785    232.215     32.3937     16.3697      0.0492    20.2735     20.3796     -0.5206     12.5       3.407       -4.4601       
2012-08-05T13:46:33Z    Tianjin_2     37.2843     -127.7665   232.2335    32.387      16.3322      0.0496    20.2699     20.3798     -0.5389     12.5       3.4044      -4.6167       
2012-08-05T13:49:26Z    Tianjin_2     37.2758     -127.7486   232.2514    32.3806     16.2898      0.0518    20.2696     20.3799     -0.5412     12.5       3.4015      -4.6363       
2012-08-05T13:52:27Z    Tianjin_2     37.2677     -127.7313   232.2687    32.3861     16.3079      0.05      20.2686     20.3799     -0.5459     12.5       3.4027      -4.6764       
2012-08-05T13:55:29Z    Tianjin_2     37.2593     -127.7135   232.2865    32.3938     16.3415      0.0461    20.2718     20.3797     -0.5295     12.5       3.4051      -4.5362       
2012-08-05T13:58:30Z    Tianjin_2     37.2507     -127.6956   232.3044    32.3888     16.3094      0.0428    20.2775     20.3798     -0.502      12.5       3.4028      -4.3005       
2012-08-05T14:01:32Z    Tianjin_2     37.2413     -127.6771   232.3229    32.3846     16.1271      0.0552    20.2851     20.3804     -0.4679     12.5       3.39        -4.0073       
2012-08-05T14:04:33Z    Tianjin_2     37.2305     -127.661    232.339     32.4142     16.1205      0.0811    20.2823     20.3804     -0.4815     12.5       3.3894      -4.1232       
2012-08-05T14:07:26Z    Tianjin_2     37.2203     -127.6461   232.3539    32.4294     16.0928      0.0845    20.2947     20.3805     -0.4209     12.5       3.3874      -3.6037       
2012-08-05T14:10:27Z    Tianjin_2     37.2097     -127.6308   232.3692    32.4302     16.0531      0.077     20.3051     20.3806     -0.3706     12.5       3.3846      -3.1731       
2012-08-05T14:13:29Z    Tianjin_2     37.1985     -127.615    232.385     32.4332     16.0838      0.0751    20.3174     20.3805     -0.3099     12.5       3.3966      -2.6605       
2012-08-05T14:16:30Z    Tianjin_2     37.1874     -127.5993   232.4007    32.4352     16.0944      0.0801    20.3198     20.3805     -0.2977     12.5       3.3973      -2.556        
2012-08-05T14:19:32Z    Tianjin_2     37.1768     -127.5844   232.4156    32.4336     16.0104      0.0876    20.3226     20.3807     -0.2852     12.5       3.3915      -2.4488       
2012-08-05T14:22:33Z    Tianjin_2     37.1659     -127.5693   232.4307    32.4328     15.9315      0.0933    20.3299     20.381      -0.2505     12.5       3.3861      -2.1508       
2012-08-05T14:25:26Z    Tianjin_2     37.1547     -127.5537   232.4463    32.4338     15.6999      0.1692    20.3369     20.3818     -0.2199     12.5       3.37        -1.8876       
2012-08-05T14:28:27Z    Tianjin_2     37.1437     -127.538    232.462     32.4359     15.5453      0.2893    20.3496     20.3823     -0.1601     12.5       3.3593      -1.3741       
2012-08-05T14:31:29Z    Tianjin_2     37.1327     -127.5222   232.4778    32.434      15.5462      0.2868    20.3862     20.3823     0.0191      12.5       3.3594      0.1642        
2012-08-05T14:34:30Z    Tianjin_2     37.123      -127.505    232.495     32.4466     15.5447      0.3363    20.4154     20.3822     0.1627      12.5       3.402       1.4143        
2012-08-05T14:37:32Z    Tianjin_2     37.115      -127.4879   232.5121    32.4546     15.5047      0.3864    20.4442     20.3824     0.3032      12.5       3.3992      2.6348        
2012-08-05T14:40:33Z    Tianjin_2     37.1068     -127.471    232.529     32.459      15.3779      0.4348    20.4828     20.3828     0.4906      12.5       3.3904      4.2626        
2012-08-05T14:43:26Z    Tianjin_2     37.0986     -127.4536   232.5464    32.4507     15.5294      0.3346    20.5219     20.3823     0.685       12.5       3.4009      5.9532        
2012-08-05T14:46:27Z    Tianjin_2     37.0903     -127.4357   232.5643    32.4189     15.8728      0.2264    20.5527     20.3812     0.8413      12.5       3.4248      7.3142        
2012-08-05T14:49:29Z    Tianjin_2     37.0822     -127.4179   232.5821    32.4188     15.8686      0.2068    20.5455     20.3812     0.8059      12.5       3.4245      7.0067        
2012-08-05T14:52:30Z    Tianjin_2     37.0734     -127.3985   232.6015    32.4085     15.7093      0.1841    20.513      20.3818     0.6437      12.5       3.4135      5.5965        
2012-08-05T14:55:32Z    Tianjin_2     37.0653     -127.3808   232.6192    32.4021     15.6025      0.1836    20.4866     20.3821     0.5125      12.5       3.4061      4.4558        
2012-08-05T15:43:29Z    Tianjin_2     36.9438     -127.0916   232.9084    32.3328     16.2431      0.0531    20.4398     20.3801     0.2926      17.5       3.7984      2.8029        
2012-08-05T15:46:30Z    Tianjin_2     36.9371     -127.076    232.924     32.3396     16.1884      0.0559    20.4251     20.3803     0.2197      17.5       3.7939      2.1038        
2012-08-05T15:49:32Z    Tianjin_2     36.9302     -127.0594   232.9406    32.3522     16.1151      0.0737    20.4164     20.3805     0.1763      17.5       3.7878      1.6879        
2012-08-05T15:52:33Z    Tianjin_2     36.9227     -127.0418   232.9582    32.3493     16.2736      0.0652    20.4111     20.38       0.1527      17.5       3.8009      1.4624        
2012-08-05T15:55:26Z    Tianjin_2     36.9157     -127.0245   232.9755    32.3435     16.3572      0.0576    20.4096     20.3798     0.1465      17.5       3.8078      1.4035        
2012-08-05T15:58:27Z    Tianjin_2     36.9086     -127.0079   232.9921    32.3373     16.433       0.0395    20.4039     20.3795     0.1195      17.5       3.814       1.1451        
2012-08-05T16:01:29Z    Tianjin_2     36.9015     -126.9912   233.0088    32.337      16.4902      0.0367    20.3974     20.3793     0.0884      17.5       3.8187      0.8474        
2012-08-05T16:04:30Z    Tianjin_2     36.8942     -126.9741   233.0259    32.3354     16.4473      0.0368    20.3883     20.3795     0.0433      17.5       3.8152      0.4148        
2012-08-05T16:07:32Z    Tianjin_2     36.8869     -126.9567   233.0433    32.335      16.4088      0.0305    20.3786     20.3796     -0.005      17.5       3.812       -0.0481       
2012-08-05T16:10:33Z    Tianjin_2     36.8798     -126.9399   233.0601    32.3365     16.3749      0.037     20.374      20.3797     -0.0279     17.5       3.8092      -0.2676       
2012-08-05T16:13:26Z    Tianjin_2     36.8729     -126.9235   233.0765    32.343      16.2337      0.0562    20.3666     20.3802     -0.0663     17.5       3.9045      -0.6525       
2012-08-05T16:16:27Z    Tianjin_2     36.8656     -126.9061   233.0939    32.3612     16.0701      0.074     20.366      20.3807     -0.0718     17.5       3.8908      -0.7067       
2012-08-05T16:19:29Z    Tianjin_2     36.8583     -126.8885   233.1115    32.36       16.0576      0.0663    20.3628     20.3807     -0.0878     17.5       3.8897      -0.8642       
2012-08-05T16:22:30Z    Tianjin_2     36.8513     -126.8713   233.1287    32.3524     16.1616      0.061     20.3688     20.3804     -0.0569     17.5       3.9594      -0.5694       
2012-08-05T16:25:32Z    Tianjin_2     36.8445     -126.8548   233.1452    32.3305     16.3316      0.0404    20.3714     20.3799     -0.0417     17.5       3.9736      -0.417        
2012-08-05T16:28:33Z    Tianjin_2     36.8381     -126.8392   233.1608    32.3277     16.3461      0.0375    20.3696     20.3798     -0.0501     17.5       3.9749      -0.5007       
2012-08-05T16:31:26Z    Tianjin_2     36.8314     -126.8229   233.1771    32.3321     16.332       0.035     20.3617     20.3799     -0.0889     17.5       3.9737      -0.889        
2012-08-05T16:34:27Z    Tianjin_2     36.8238     -126.8056   233.1944    32.3339     16.3525      0.0451    20.358      20.3798     -0.1068     17.5       3.9754      -1.0685       
2012-08-05T16:37:29Z    Tianjin_2     36.8167     -126.789    233.211     32.3324     16.4088      0.0411    20.3563     20.3796     -0.1141     17.5       3.98        -1.1415       
2012-08-05T16:40:30Z    Tianjin_2     36.8099     -126.7731   233.2269    32.3275     16.4035      0.0309    20.3525     20.3796     -0.1332     17.5       3.9796      -1.3325       
2012-08-05T16:43:32Z    Tianjin_2     36.8026     -126.7568   233.2432    32.3281     16.3887      0.033     20.3468     20.3797     -0.1611     17.5       3.9784      -1.612        
2012-08-05T16:46:33Z    Tianjin_2     36.7952     -126.7407   233.2593    32.3327     16.3845      0.0364    20.3445     20.3797     -0.1724     17.5       3.978       -1.7245       
2012-08-05T16:49:26Z    Tianjin_2     36.7878     -126.7245   233.2755    32.3518     16.4159      0.0312    20.3443     20.3796     -0.1729     17.5       3.9806      -1.7292       
2012-08-05T16:52:27Z    Tianjin_2     36.7803     -126.7085   233.2915    32.3829     16.4244      0.0285    20.3456     20.3795     -0.1662     17.5       3.9811      -1.6619       
2012-08-05T16:55:29Z    Tianjin_2     36.7727     -126.6921   233.3079    32.4152     16.4365      0.032     20.34       20.3794     -0.1935     17.5       3.982       -1.9351       
2012-08-05T16:58:30Z    Tianjin_2     36.7651     -126.6756   233.3244    32.4334     16.4444      0.041     20.335      20.3793     -0.2176     17.5       3.9826      -2.1753       
2012-08-05T17:01:32Z    Tianjin_2     36.7575     -126.6592   233.3408    32.4196     16.4458      0.0357    20.3312     20.3794     -0.2366     17.5       3.9828      -2.3652       
2012-08-05T17:04:33Z    Tianjin_2     36.75       -126.6434   233.3566    32.3605     16.4371      0.034     20.33       20.3795     -0.2427     17.5       3.9823      -2.4272       
2012-08-05T17:07:26Z    Tianjin_2     36.7429     -126.6272   233.3728    32.3441     16.4924      0.0353    20.3296     20.3793     -0.244      17.5       3.9869      -2.4411       
2012-08-05T17:10:27Z    Tianjin_2     36.7358     -126.6105   233.3895    32.3473     16.5215      0.0337    20.3348     20.3792     -0.218      17.5       4.0288      -2.2025       
2012-08-05T17:13:29Z    Tianjin_2     36.7287     -126.5939   233.4061    32.3523     16.5315      0.0266    20.3395     20.3792     -0.1946     17.5       4.0296      -1.966        
2012-08-05T17:16:30Z    Tianjin_2     36.7218     -126.5775   233.4225    32.358      16.5249      0.0279    20.3423     20.3792     -0.1809     17.5       4.0291      -1.8278       
2012-08-05T17:19:32Z    Tianjin_2     36.7148     -126.5613   233.4387    32.3705     16.4949      0.0281    20.3445     20.3793     -0.1708     17.5       4.0266      -1.7255       
2012-08-05T17:22:33Z    Tianjin_2     36.7078     -126.5449   233.4551    32.4145     16.5042      0.0332    20.3457     20.3792     -0.1645     17.5       4.0272      -1.6609       
2012-08-05T17:25:26Z    Tianjin_2     36.7009     -126.529    233.471     32.4355     16.4682      0.0355    20.3497     20.3793     -0.1452     17.5       4.0241      -1.4661       
2012-08-05T17:28:27Z    Tianjin_2     36.694      -126.5128   233.4872    32.4354     16.4449      0.0334    20.3439     20.3793     -0.1741     17.5       4.0222      -1.7574       
2012-08-05T17:31:29Z    Tianjin_2     36.6869     -126.4962   233.5038    32.4239     16.4149      0.0317    20.342      20.3795     -0.1838     17.5       4.0198      -1.8557       
2012-08-05T17:34:30Z    Tianjin_2     36.6796     -126.4793   233.5207    32.4127     16.3896      0.0338    20.3405     20.3796     -0.1915     17.5       4.0178      -1.9333       
2012-08-05T17:37:32Z    Tianjin_2     36.6726     -126.4632   233.5368    32.4064     16.3944      0.0289    20.3371     20.3795     -0.2083     17.5       4.0182      -2.1032       
2012-08-05T17:40:33Z    Tianjin_2     36.6657     -126.4476   233.5524    32.4061     16.382       0.0295    20.3319     20.3796     -0.2341     17.5       4.0172      -2.3638       
2012-08-05T17:43:26Z    Tianjin_2     36.6582     -126.4304   233.5696    32.409      16.3619      0.0301    20.3228     20.3796     -0.2788     17.5       4.0155      -2.8147       
2012-08-05T17:46:27Z    Tianjin_2     36.6509     -126.4137   233.5863    32.4168     16.3342      0.0342    20.3224     20.3797     -0.2813     17.5       4.0132      -2.8399       
2012-08-05T17:49:29Z    Tianjin_2     36.6441     -126.398    233.602     32.4258     16.3539      0.0351    20.3301     20.3796     -0.243      17.5       4.0148      -2.4534       
2012-08-05T17:52:30Z    Tianjin_2     36.6371     -126.3821   233.6179    32.4306     16.3903      0.0312    20.3343     20.3795     -0.2219     17.5       4.0178      -2.2405       
2012-08-05T17:55:32Z    Tianjin_2     36.6299     -126.3656   233.6344    32.4366     16.4388      0.0296    20.3375     20.3794     -0.2054     17.5       4.0587      -2.0928       
2012-08-05T18:43:29Z    Tianjin_2     36.508      -126.1089   233.8911    32.499      15.9203      0.0974    20.4383     20.3809     0.2816      17.5       4.0752      2.9088        
2012-08-05T18:46:30Z    Tianjin_2     36.5004     -126.0934   233.9066    32.4945     15.983       0.0692    20.4502     20.3807     0.341       17.5       4.0803      3.5234        
2012-08-05T18:49:32Z    Tianjin_2     36.493      -126.0785   233.9215    32.4888     16.0166      0.0695    20.4538     20.3806     0.3588      17.5       4.083       3.7072        
2012-08-05T18:52:33Z    Tianjin_2     36.4847     -126.0618   233.9382    32.4907     16.0249      0.0807    20.4535     20.3806     0.3577      17.5       4.0837      3.6952        
2012-08-05T18:55:26Z    Tianjin_2     36.4764     -126.0451   233.9549    32.5013     15.9727      0.0901    20.4632     20.3808     0.4044      17.5       4.0794      4.1776        
2012-08-05T18:58:27Z    Tianjin_2     36.469      -126.0303   233.9697    32.5119     15.8799      0.0878    20.4679     20.3811     0.426       17.5       4.0719      4.4002        
2012-08-05T19:01:29Z    Tianjin_2     36.4616     -126.0153   233.9847    32.5115     15.8084      0.0989    20.4693     20.3813     0.4316      17.5       4.0661      4.4585        
2012-08-05T19:04:30Z    Tianjin_2     36.4542     -125.9998   234.0002    32.5094     15.8472      0.0914    20.476      20.3812     0.4654      12.5       3.6702      4.3359        
2012-08-05T19:07:32Z    Tianjin_2     36.4466     -125.9843   234.0157    32.5065     16.0239      0.094     20.4865     20.3806     0.5196      12.5       3.6811      4.8387        
2012-08-05T19:10:33Z    Tianjin_2     36.439      -125.9683   234.0317    32.4982     16.0485      0.0884    20.495      20.3805     0.5618      12.5       3.6827      5.2313        
2012-08-05T19:13:26Z    Tianjin_2     36.4315     -125.9528   234.0472    32.4911     16.0144      0.0943    20.4974     20.3806     0.5728      12.5       3.6806      5.3347        
2012-08-05T19:16:27Z    Tianjin_2     36.4238     -125.9362   234.0638    32.4848     16.0075      0.092     20.5007     20.3807     0.5889      12.5       3.6802      5.485         
2012-08-05T19:19:29Z    Tianjin_2     36.416      -125.9194   234.0806    32.4838     16.0375      0.0867    20.5021     20.3806     0.5964      12.5       3.682       5.5547        
2012-08-05T19:22:30Z    Tianjin_2     36.4092     -125.9048   234.0952    32.4864     16.0813      0.0817    20.5078     20.3804     0.6252      12.5       3.6848      5.8216        
2012-08-05T19:25:32Z    Tianjin_2     36.402      -125.8898   234.1102    32.4813     16.0861      0.0639    20.5083     20.3804     0.6272      12.5       3.6851      5.8411        
2012-08-05T19:28:33Z    Tianjin_2     36.3943     -125.8744   234.1256    32.4795     16.1433      0.053     20.5048     20.3802     0.6114      12.5       3.7092      5.7243        
2012-08-05T19:31:26Z    Tianjin_2     36.3863     -125.8583   234.1417    32.4756     16.2399      0.0427    20.4958     20.3799     0.5686      12.5       3.7152      5.3222        
2012-08-05T19:34:27Z    Tianjin_2     36.3784     -125.8426   234.1574    32.464      16.2173      0.0452    20.4859     20.38       0.5197      12.5       3.7138      4.8654        
2012-08-05T19:37:29Z    Tianjin_2     36.3711     -125.828    234.172     32.4511     16.14        0.0388    20.4732     20.3803     0.4559      12.5       3.6102      4.156         
2012-08-05T19:40:30Z    Tianjin_2     36.3635     -125.8128   234.1872    32.4483     16.1487      0.0437    20.464      20.3803     0.4108      12.5       3.6107      3.7444        
2012-08-05T19:43:32Z    Tianjin_2     36.3555     -125.7969   234.2031    32.4482     16.1626      0.0365    20.4539     20.3802     0.3613      12.5       3.6116      3.293         
2012-08-05T19:46:33Z    Tianjin_2     36.3476     -125.7815   234.2185    32.4478     16.1543      0.0366    20.4482     20.3803     0.3333      12.5       3.6111      3.0378        
2012-08-05T19:49:26Z    Tianjin_2     36.3399     -125.7662   234.2338    32.4471     16.1466      0.0358    20.4463     20.3803     0.3241      12.5       3.6106      2.9546        
2012-08-05T19:52:27Z    Tianjin_2     36.332      -125.751    234.249     32.4469     16.1399      0.0332    20.4517     20.3803     0.3501      12.5       3.6102      3.1917        
2012-08-05T19:55:29Z    Tianjin_2     36.3245     -125.7362   234.2638    32.4479     16.1571      0.0287    20.4527     20.3802     0.3554      12.5       3.6113      3.2391        
2012-08-05T19:58:30Z    Tianjin_2     36.3166     -125.7207   234.2793    32.4511     16.17        0.0303    20.4529     20.3802     0.3567      12.5       3.612       3.2512        
2012-08-05T20:01:32Z    Tianjin_2     36.3086     -125.7054   234.2946    32.4535     16.1937      0.0347    20.4564     20.3801     0.3741      12.5       3.6134      3.4098        
2012-08-05T20:04:33Z    Tianjin_2     36.3009     -125.6904   234.3096    32.4522     16.2239      0.0314    20.4591     20.38       0.3879      12.5       3.6153      3.5347        
2012-08-05T20:07:26Z    Tianjin_2     36.293      -125.6753   234.3247    32.451      16.2429      0.0322    20.46       20.38       0.3925      12.5       3.6164      3.5768        
2012-08-05T20:10:27Z    Tianjin_2     36.2852     -125.6605   234.3395    32.4477     16.2651      0.0283    20.4624     20.3799     0.4048      12.5       3.6178      3.6884        
2012-08-05T20:13:29Z    Tianjin_2     36.2771     -125.6451   234.3549    32.4455     16.2933      0.0321    20.4587     20.3798     0.3873      12.5       3.6195      3.5289        
2012-08-05T20:16:30Z    Tianjin_2     36.2693     -125.6304   234.3696    32.4449     16.3085      0.0224    20.4628     20.3798     0.4076      12.5       3.6204      3.7136        
2012-08-05T20:19:32Z    Tianjin_2     36.2616     -125.6156   234.3844    32.4466     16.3421      0.0257    20.4631     20.3797     0.4093      12.5       3.6513      3.7589        
2012-08-05T20:22:33Z    Tianjin_2     36.2537     -125.5996   234.4004    32.4475     16.3544      0.0339    20.463      20.3796     0.4092      12.5       3.6521      3.7578        
2012-08-05T20:25:26Z    Tianjin_2     36.2464     -125.5846   234.4154    32.4409     16.3452      0.034     20.4601     20.3797     0.3946      12.5       3.6515      3.6237        
2012-08-05T20:28:27Z    Tianjin_2     36.2393     -125.57     234.43      32.4419     16.3703      0.0355    20.4613     20.3796     0.401       12.5       3.6531      3.6819        
2012-08-05T20:31:29Z    Tianjin_2     36.2315     -125.554    234.446     32.4416     16.402       0.0359    20.4672     20.3795     0.4304      12.5       3.655       3.9515        
2012-08-05T20:34:30Z    Tianjin_2     36.2239     -125.5387   234.4613    32.439      16.4826      0.0285    20.4718     20.3792     0.4543      12.5       3.6599      4.1705        
2012-08-05T20:37:32Z    Tianjin_2     36.2167     -125.5241   234.4759    32.4382     16.4522      0.0282    20.4726     20.3793     0.4578      12.5       3.6581      4.2031        
2012-08-05T20:40:33Z    Tianjin_2     36.2091     -125.5089   234.4911    32.4368     16.413       0.0288    20.467      20.3794     0.4298      12.5       3.6557      3.9459        
2012-08-05T20:43:26Z    Tianjin_2     36.2014     -125.4936   234.5064    32.4363     16.4256      0.0231    20.4696     20.3794     0.4428      12.5       3.6565      4.0657        
2012-08-05T20:46:27Z    Tianjin_2     36.1938     -125.4781   234.5219    32.4364     16.449       0.0296    20.4679     20.3793     0.4345      12.5       3.6579      3.9887        
2012-08-05T20:49:29Z    Tianjin_2     36.1861     -125.4623   234.5377    32.4364     16.4685      0.0243    20.4675     20.3793     0.433       12.5       3.6591      3.9749        
2012-08-05T20:52:30Z    Tianjin_2     36.1789     -125.4472   234.5528    32.4366     16.4908      0.0315    20.4688     20.3792     0.4399      12.5       3.6604      4.0385        
2012-08-05T20:55:32Z    Tianjin_2     36.1716     -125.4324   234.5676    32.4376     16.4924      0.0273    20.4731     20.3792     0.4607      12.5       3.6605      4.2292        
2012-08-05T21:43:29Z    Tianjin_2     36.0496     -125.193    234.807     32.4488     16.526       0.0264    20.5242     20.3791     0.712       12.5       3.543       6.3211        
2012-08-05T21:46:30Z    Tianjin_2     36.0423     -125.1779   234.8221    32.4476     16.5113      0.0283    20.5262     20.3791     0.722       12.5       3.5421      6.4103        
2012-08-05T21:49:32Z    Tianjin_2     36.035      -125.1623   234.8377    32.4479     16.4205      0.0317    20.5306     20.3794     0.7419      12.5       3.5366      6.5886        
2012-08-05T21:52:33Z    Tianjin_2     36.0278     -125.1468   234.8532    32.4514     16.3013      0.0425    20.5364     20.3798     0.7687      12.5       3.5293      6.8287        
2012-08-05T21:55:26Z    Tianjin_2     36.0208     -125.1316   234.8684    32.4515     16.2469      0.0419    20.5513     20.38       0.8407      12.5       3.526       7.4685        
2012-08-05T21:58:27Z    Tianjin_2     36.0138     -125.1162   234.8838    32.4497     16.1004      0.0447    20.5664     20.3804     0.9127      12.5       3.5236      8.126         
2012-08-05T22:01:29Z    Tianjin_2     36.0069     -125.1009   234.8991    32.4509     15.9084      0.0669    20.571      20.381      0.9319      12.5       3.5118      8.301         
2012-08-05T22:04:30Z    Tianjin_2     35.9998     -125.0858   234.9142    32.4555     15.7534      0.0716    20.5856     20.3815     1.0013      17.5       3.8364      9.7723        
2012-08-05T22:07:32Z    Tianjin_2     35.9925     -125.0706   234.9294    32.4617     15.7229      0.0793    20.6111     20.3816     1.126       17.5       3.8339      10.9892       
2012-08-05T22:10:33Z    Tianjin_2     35.9853     -125.0555   234.9445    32.47       15.6922      0.0885    20.6402     20.3817     1.2681      17.5       3.8314      12.3748       
2012-08-05T22:13:26Z    Tianjin_2     35.9779     -125.04     234.96      32.49       15.5419      0.091     20.662      20.3822     1.3728      17.5       3.8192      13.3915       
2012-08-05T22:16:27Z    Tianjin_2     35.9704     -125.0245   234.9755    32.5151     15.3092      0.0996    20.6804     20.3829     1.4592      17.5       3.8003      14.2275       
2012-08-05T22:19:29Z    Tianjin_2     35.9632     -125.0097   234.9903    32.5322     15.2175      0.1033    20.7007     20.3832     1.5578      17.5       3.7928      15.1846       
2012-08-05T22:22:30Z    Tianjin_2     35.9556     -124.9941   235.0059    32.5492     15.3303      0.105     20.7264     20.3828     1.6859      17.5       3.8019      16.4343       
2012-08-05T22:25:32Z    Tianjin_2     35.948      -124.9787   235.0213    32.553      15.4165      0.0977    20.7433     20.3825     1.7698      17.5       3.8089      17.2541       
2012-08-05T22:28:33Z    Tianjin_2     35.9408     -124.9642   235.0358    32.5509     15.393       0.0901    20.7496     20.3826     1.8008      17.5       3.807       17.5553       
2012-08-05T22:31:26Z    Tianjin_2     35.9329     -124.9487   235.0513    32.5476     15.2728      0.0791    20.7538     20.383      1.8192      17.5       3.7973      17.7325       
2012-08-05T22:34:27Z    Tianjin_2     35.9253     -124.9334   235.0666    32.5408     15.2856      0.0851    20.7563     20.383      1.8316      17.5       3.7983      17.8541       
2012-08-05T22:37:29Z    Tianjin_2     35.918      -124.9189   235.0811    32.5529     15.3377      0.0917    20.7463     20.3828     1.7832      17.5       3.8025      17.3829       
2012-08-05T22:40:30Z    Tianjin_2     35.9104     -124.9037   235.0963    32.5848     15.3976      0.0909    20.7386     20.3825     1.7472      17.5       3.8072      17.0287       
2012-08-05T22:43:32Z    Tianjin_2     35.9029     -124.8884   235.1116    32.6222     15.3538      0.0946    20.7332     20.3826     1.7198      17.5       3.8035      16.7564       
2012-08-05T22:46:33Z    Tianjin_2     35.8953     -124.8731   235.1269    32.6403     15.2205      0.1016    20.7273     20.383      1.6888      17.5       3.7672      16.3386       
2012-08-05T22:49:26Z    Tianjin_2     35.8878     -124.8575   235.1425    32.6472     15.1618      0.0978    20.7272     20.3832     1.6876      17.5       3.7624      16.3249       
2012-08-05T22:52:27Z    Tianjin_2     35.8804     -124.8423   235.1577    32.6516     15.1988      0.0901    20.7235     20.3831     1.6699      17.5       3.7654      16.1538       
2012-08-05T22:55:29Z    Tianjin_2     35.8728     -124.8268   235.1732    32.6736     15.1931      0.0828    20.7136     20.3831     1.6214      17.5       3.6519      15.2115       
2012-08-05T22:58:30Z    Tianjin_2     35.8656     -124.8116   235.1884    32.725      15.1458      0.0798    20.7039     20.3832     1.5737      17.5       3.6479      14.7577       
2012-08-05T23:01:32Z    Tianjin_2     35.8582     -124.7962   235.2038    32.7487     14.9823      0.0942    20.6961     20.3837     1.5329      17.5       3.6347      14.3673       
2012-08-05T23:04:33Z    Tianjin_2     35.8507     -124.7801   235.2199    32.8309     15.6148      0.094     20.7031     20.3815     1.5782      17.5       3.6851      14.8025       
2012-08-05T23:07:26Z    Tianjin_2     35.8431     -124.7639   235.2361    32.9173     15.769       0.0921    20.7188     20.3808     1.6582      17.5       3.6971      15.548        
2012-08-05T23:10:27Z    Tianjin_2     35.8358     -124.748    235.252     32.9308     15.8958      0.0954    20.7331     20.3804     1.7304      17.5       3.7072      16.2271       
2012-08-05T23:13:29Z    Tianjin_2     35.8288     -124.733    235.267     32.9396     16.1209      0.112     20.7427     20.3797     1.7812      17.5       3.7251      16.7092       
2012-08-05T23:16:30Z    Tianjin_2     35.8215     -124.7168   235.2832    32.9504     16.2714      0.1316    20.7593     20.3792     1.8651      17.5       3.7371      17.5004       
2012-08-05T23:19:32Z    Tianjin_2     35.814      -124.7003   235.2997    32.9648     16.3049      0.1245    20.7787     20.379      1.9609      17.5       3.7397      18.3986       
2012-08-05T23:22:33Z    Tianjin_2     35.807      -124.6846   235.3154    32.9752     16.2995      0.1094    20.7966     20.379      2.049       17.5       3.7393      19.2228       
2012-08-05T23:25:26Z    Tianjin_2     35.7998     -124.6684   235.3316    32.9793     16.3959      0.1071    20.8022     20.3787     2.0781      17.5       3.7469      19.4986       
2012-08-05T23:28:27Z    Tianjin_2     35.7924     -124.6517   235.3483    32.9462     16.3153      0.1139    20.8077     20.379      2.1037      17.5       3.7406      19.7414       
2012-08-05T23:31:29Z    Tianjin_2     35.785      -124.6354   235.3646    32.9047     16.2469      0.0921    20.8076     20.3793     2.1016      17.5       3.7353      19.7245       
2012-08-05T23:34:30Z    Tianjin_2     35.7776     -124.6193   235.3807    32.8972     16.2136      0.0928    20.804      20.3794     2.0835      17.5       3.7262      19.5209       
2012-08-05T23:37:32Z    Tianjin_2     35.7701     -124.6031   235.3969    32.9041     16.2072      0.0952    20.8006     20.3794     2.0666      17.5       3.7256      19.3606       
2012-08-05T23:40:33Z    Tianjin_2     35.7621     -124.5857   235.4143    32.8821     16.36        0.0972    20.8023     20.379      2.0771      17.5       3.738       19.4681       
2012-08-05T23:43:26Z    Tianjin_2     35.7544     -124.5693   235.4307    32.8435     16.3412      0.1025    20.8027     20.3791     2.0788      17.5       3.7366      19.489        
2012-08-05T23:46:27Z    Tianjin_2     35.7468     -124.5532   235.4468    32.825      16.318       0.1147    20.7903     20.3792     2.0171      17.5       3.7348      18.9119       
2012-08-05T23:49:29Z    Tianjin_2     35.7388     -124.5365   235.4635    32.8195     16.3198      0.1155    20.7671     20.3792     1.9036      17.5       3.735       17.8487       
2012-08-05T23:52:30Z    Tianjin_2     35.7312     -124.5209   235.4791    32.8193     16.3257      0.1293    20.7562     20.3792     1.8501      17.5       3.7355      17.3471       
2012-08-05T23:55:32Z    Tianjin_2     35.7236     -124.5052   235.4948    32.8234     16.3406      0.1284    20.7567     20.3791     1.853       17.5       3.7367      17.3744       
2012-08-06T00:43:29Z    Tianjin_2     35.5933     -124.251    235.749     32.8747     16.4591      0.2256    20.8748     20.3787     2.4347      17.5       3.2558      19.8392       
2012-08-06T00:46:30Z    Tianjin_2     35.5854     -124.2357   235.7643    32.8703     16.4035      0.2158    20.877      20.3789     2.4445      17.5       3.2524      19.9201       
2012-08-06T00:49:32Z    Tianjin_2     35.5771     -124.2191   235.7809    32.8221     16.1509      0.1953    20.8768     20.3797     2.4388      17.5       3.2369      19.8823       
2012-08-06T00:52:33Z    Tianjin_2     35.5688     -124.2025   235.7975    32.7128     15.7936      0.1686    20.87       20.381      2.3992      17.5       3.215       19.5768       
2012-08-06T00:55:26Z    Tianjin_2     35.5609     -124.1868   235.8132    32.6707     15.7307      0.1596    20.8532     20.3813     2.3152      17.5       3.2112      18.8974       
2012-08-06T00:58:27Z    Tianjin_2     35.5528     -124.1709   235.8291    32.6637     15.7409      0.1557    20.8308     20.3813     2.2055      17.5       3.2118      18.0025       
2012-08-06T01:01:29Z    Tianjin_2     35.5447     -124.1547   235.8453    32.6638     15.7294      0.1556    20.8086     20.3813     2.0964      17.5       3.2111      17.1128       
2012-08-06T01:04:30Z    Tianjin_2     35.5366     -124.1388   235.8612    32.6672     15.7273      0.1474    20.7971     20.3813     2.0402      17.5       3.211       16.6529       
2012-08-06T01:07:32Z    Tianjin_2     35.5283     -124.1229   235.8771    32.6697     15.7492      0.1457    20.7925     20.3813     2.0178      17.5       3.2484      16.6554       
2012-08-06T01:10:33Z    Tianjin_2     35.52       -124.1066   235.8934    32.6704     15.7902      0.1411    20.783      20.3811     1.9717      17.5       3.251       16.2748       
2012-08-06T01:13:26Z    Tianjin_2     35.5115     -124.0901   235.9099    32.6777     15.7586      0.1465    20.7767     20.3812     1.9403      17.5       3.249       16.0143       
2012-08-06T01:16:27Z    Tianjin_2     35.503      -124.0739   235.9261    32.6861     15.7713      0.1507    20.7689     20.3812     1.9023      17.5       3.2498      15.6997       
2012-08-06T01:19:29Z    Tianjin_2     35.4946     -124.0578   235.9422    32.6799     15.9481      0.1424    20.7663     20.3806     1.8925      17.5       3.2611      15.6191       
2012-08-06T01:22:30Z    Tianjin_2     35.486      -124.0412   235.9588    32.6409     16.0031      0.1311    20.7576     20.3805     1.8503      17.5       3.2647      15.2752       
2012-08-06T01:25:32Z    Tianjin_2     35.4777     -124.0251   235.9749    32.6288     16.0231      0.1388    20.7447     20.3804     1.7872      17.5       3.266       14.7556       
2012-08-06T01:28:33Z    Tianjin_2     35.4695     -124.0095   235.9905    32.6373     15.9941      0.1398    20.7358     20.3805     1.7431      17.5       3.2641      14.3905       
2012-08-06T01:31:26Z    Tianjin_2     35.4613     -123.9934   236.0066    32.6289     15.9621      0.1414    20.7324     20.3806     1.7263      17.5       3.2621      14.2524       
2012-08-06T01:34:27Z    Tianjin_2     35.4528     -123.9771   236.0229    32.6039     16.039       0.1482    20.7226     20.3804     1.6789      17.5       3.2671      13.8636       
2012-08-06T01:37:29Z    Tianjin_2     35.4441     -123.9605   236.0395    32.5893     15.9437      0.1414    20.7148     20.3807     1.6391      17.5       3.261       13.5369       
2012-08-06T01:40:30Z    Tianjin_2     35.4353     -123.9437   236.0563    32.5792     15.9352      0.1341    20.7133     20.3808     1.6315      17.5       3.2605      13.4747       
2012-08-06T01:43:32Z    Tianjin_2     35.4267     -123.9275   236.0725    32.5741     15.881       0.1321    20.7165     20.381      1.6461      17.5       3.2571      13.596        
2012-08-06T01:46:33Z    Tianjin_2     35.4183     -123.9119   236.0881    32.5746     15.8519      0.1267    20.7215     20.3811     1.6705      17.5       3.2552      13.7977       
2012-08-06T01:49:26Z    Tianjin_2     35.4098     -123.8961   236.1039    32.5757     15.877       0.1294    20.7231     20.381      1.6786      17.5       3.2568      13.8642       
2012-08-06T01:52:27Z    Tianjin_2     35.401      -123.88     236.12      32.5836     16.1596      0.1201    20.7272     20.38       1.7033      17.5       3.2748      14.0667       
2012-08-06T01:55:29Z    Tianjin_2     35.3923     -123.8638   236.1362    32.5804     16.3738      0.1144    20.7288     20.3794     1.7146      17.5       3.3241      14.3137       
2012-08-06T01:58:30Z    Tianjin_2     35.3837     -123.8476   236.1524    32.5796     16.5169      0.1176    20.7236     20.3789     1.6913      17.5       3.3334      14.1192       
2012-08-06T02:01:32Z    Tianjin_2     35.3748     -123.831    236.169     32.5779     16.5498      0.1142    20.7202     20.3788     1.675       17.5       3.3836      14.185        
2012-08-06T02:04:33Z    Tianjin_2     35.3661     -123.8151   236.1849    32.5753     16.5066      0.1249    20.7157     20.3789     1.6526      17.5       3.3808      13.9953       
2012-08-06T02:07:26Z    Tianjin_2     35.3574     -123.7992   236.2008    32.5823     16.5069      0.1268    20.7176     20.3789     1.6617      17.5       3.3808      14.0715       
2012-08-06T02:10:27Z    Tianjin_2     35.3486     -123.7833   236.2167    32.5796     16.6177      0.1131    20.7211     20.3786     1.6806      17.5       3.3881      14.2317       
2012-08-06T02:13:29Z    Tianjin_2     35.3402     -123.7679   236.2321    32.571      16.7103      0.0991    20.7229     20.3783     1.6912      17.5       3.3942      14.3224       
2012-08-06T02:16:30Z    Tianjin_2     35.3313     -123.7516   236.2484    32.5742     16.7774      0.0776    20.7223     20.3781     1.6889      17.5       3.3986      14.3027       
2012-08-06T02:19:32Z    Tianjin_2     35.3224     -123.7354   236.2646    32.6091     16.9076      0.0632    20.7194     20.3776     1.6769      17.5       3.4071      14.1981       
2012-08-06T02:22:33Z    Tianjin_2     35.3135     -123.7193   236.2807    32.6347     16.9513      0.0564    20.7092     20.3775     1.628       17.5       3.4099      13.7816       
2012-08-06T02:25:26Z    Tianjin_2     35.3048     -123.7032   236.2968    32.648      16.9454      0.0436    20.7        20.3775     1.5827      17.5       3.4094      13.3962       
2012-08-06T02:28:27Z    Tianjin_2     35.2964     -123.6878   236.3122    32.6624     16.9605      0.0442    20.6932     20.3774     1.5499      17.5       3.4104      13.1179       
2012-08-06T02:31:29Z    Tianjin_2     35.2879     -123.6722   236.3278    32.6811     16.9885      0.0404    20.6932     20.3773     1.5504      17.5       3.4122      13.1204       
2012-08-06T02:34:30Z    Tianjin_2     35.2792     -123.6564   236.3436    32.7035     17.0303      0.0421    20.6883     20.3771     1.5272      17.5       3.4149      12.9213       
2012-08-06T02:37:32Z    Tianjin_2     35.2706     -123.6408   236.3592    32.7218     17.0697      0.0364    20.6862     20.377      1.5178      17.5       3.4174      12.8402       
2012-08-06T02:40:33Z    Tianjin_2     35.2619     -123.6251   236.3749    32.7315     17.0897      0.0414    20.6851     20.3769     1.5123      17.5       3.4187      12.7929       
2012-08-06T02:43:26Z    Tianjin_2     35.2525     -123.6084   236.3916    32.7372     17.1026      0.0393    20.6834     20.3768     1.5044      17.5       3.4386      12.7972       
2012-08-06T02:46:27Z    Tianjin_2     35.2434     -123.5924   236.4076    32.7418     17.1168      0.0392    20.6829     20.3768     1.5022      17.5       3.4396      12.7778       
2012-08-06T02:49:29Z    Tianjin_2     35.2349     -123.5774   236.4226    32.7437     17.1147      0.0328    20.6852     20.3768     1.5136      17.5       3.4394      12.8745       
2012-08-06T02:52:30Z    Tianjin_2     35.226      -123.5617   236.4383    32.7429     17.0921      0.041     20.686      20.3769     1.5171      17.5       3.4379      12.9044       
2012-08-06T02:55:32Z    Tianjin_2     35.2174     -123.5465   236.4535    32.7342     17.0461      0.0377    20.6818     20.377      1.4957      17.5       3.4348      12.7233       
2012-08-06T03:43:29Z    Tianjin_2     35.0833     -123.2944   236.7056    32.6748     16.8713      0.0531    20.6788     20.3777     1.4777      17.5       3.3966      12.4766       
2012-08-06T03:46:30Z    Tianjin_2     35.0757     -123.2787   236.7213    32.6819     16.9129      0.0379    20.6857     20.3775     1.5121      17.5       3.3995      12.7673       
2012-08-06T03:49:32Z    Tianjin_2     35.0682     -123.2635   236.7365    32.6947     16.9082      0.0319    20.6914     20.3775     1.5402      17.5       3.3991      13.0029       
2012-08-06T03:52:33Z    Tianjin_2     35.0605     -123.2476   236.7524    32.6976     16.9074      0.0335    20.6943     20.3775     1.5547      17.5       3.3991      13.1255       
2012-08-06T03:55:26Z    Tianjin_2     35.0525     -123.2312   236.7688    32.695      16.8656      0.0345    20.6901     20.3776     1.5335      17.5       3.3962      12.9458       
2012-08-06T03:58:27Z    Tianjin_2     35.0444     -123.2147   236.7853    32.6734     16.7601      0.0399    20.6877     20.378      1.5197      17.5       3.3888      12.8299       
2012-08-06T04:01:29Z    Tianjin_2     35.0369     -123.1991   236.8009    32.6396     16.6155      0.0391    20.6912     20.3785     1.5344      17.5       3.3788      12.9539       
2012-08-06T04:04:30Z    Tianjin_2     35.0293     -123.1833   236.8167    32.6151     16.5017      0.0429    20.6988     20.3789     1.5695      17.5       3.3709      13.2511       
2012-08-06T04:07:32Z    Tianjin_2     35.0214     -123.1671   236.8329    32.6141     16.5203      0.0419    20.7044     20.3788     1.5975      17.5       3.3722      13.4875       
2012-08-06T04:10:33Z    Tianjin_2     35.0136     -123.151    236.849     32.6218     16.5444      0.0434    20.7062     20.3788     1.607       17.5       3.3739      13.5675       
2012-08-06T04:13:26Z    Tianjin_2     35.0055     -123.1348   236.8652    32.6332     16.5644      0.0434    20.7058     20.3787     1.6053      17.5       3.3753      13.5528       
2012-08-06T04:16:27Z    Tianjin_2     34.9978     -123.1191   236.8809    32.646      16.6103      0.042     20.7046     20.3785     1.6001      17.5       3.3152      13.2551       
2012-08-06T04:19:29Z    Tianjin_2     34.9901     -123.1037   236.8963    32.6556     16.6382      0.0412    20.7081     20.3784     1.6179      17.5       3.3172      13.4032       
2012-08-06T04:22:30Z    Tianjin_2     34.9822     -123.0879   236.9121    32.6637     16.6407      0.0418    20.7123     20.3784     1.6387      17.5       3.3173      13.5745       
2012-08-06T04:25:32Z    Tianjin_2     34.9741     -123.0719   236.9281    32.6807     16.6923      0.0416    20.7104     20.3782     1.6303      17.5       3.321       13.5047       
2012-08-06T04:28:33Z    Tianjin_2     34.9661     -123.0561   236.9439    32.6951     16.7557      0.0345    20.7104     20.378      1.6311      17.5       3.3255      13.512        
2012-08-06T04:31:26Z    Tianjin_2     34.9576     -123.0397   236.9603    32.6986     16.7624      0.0359    20.7125     20.378      1.6415      17.5       3.326       13.5978       
2012-08-06T04:34:27Z    Tianjin_2     34.9496     -123.024    236.976     32.6914     16.754       0.0354    20.7174     20.378      1.6653      17.5       3.3254      13.7953       
2012-08-06T04:37:29Z    Tianjin_2     34.9419     -123.009    236.991     32.6963     16.7837      0.0313    20.7191     20.3779     1.6745      17.5       3.3275      13.8724       
2012-08-06T04:40:30Z    Tianjin_2     34.9338     -122.9934   237.0066    32.7011     16.7897      0.0371    20.7139     20.3779     1.6489      17.5       3.3279      13.6597       
2012-08-06T04:43:32Z    Tianjin_2     34.9262     -122.9779   237.0221    32.6895     16.7443      0.0401    20.715      20.378      1.6536      17.5       3.3247      13.6987       
2012-08-06T04:46:33Z    Tianjin_2     34.9185     -122.9622   237.0378    32.679      16.7087      0.0434    20.7173     20.3782     1.6643      17.5       3.3222      13.787        
2012-08-06T04:49:26Z    Tianjin_2     34.9108     -122.9462   237.0538    32.6706     16.6811      0.0422    20.7231     20.3783     1.6922      17.5       3.3202      14.0185       
2012-08-06T04:52:27Z    Tianjin_2     34.9032     -122.9303   237.0697    32.6658     16.6611      0.0552    20.725      20.3783     1.7011      17.5       3.3188      14.0918       
2012-08-06T04:55:29Z    Tianjin_2     34.8954     -122.9143   237.0857    32.6681     16.6742      0.0593    20.73       20.3783     1.7257      17.5       3.3197      14.2957       
2012-08-06T04:58:30Z    Tianjin_2     34.8878     -122.8984   237.1016    32.6702     16.7106      0.062     20.7315     20.3782     1.7341      17.5       3.3223      14.3658       
2012-08-06T05:01:32Z    Tianjin_2     34.8802     -122.8825   237.1175    32.6815     16.7294      0.0826    20.7355     20.3781     1.7538      17.5       3.3236      14.5287       
2012-08-06T05:04:33Z    Tianjin_2     34.8724     -122.8665   237.1335    32.677      16.7019      0.0775    20.7389     20.3782     1.7703      17.5       3.188       14.0754       
2012-08-06T05:07:26Z    Tianjin_2     34.8647     -122.8504   237.1496    32.6706     16.6842      0.0687    20.7397     20.3782     1.7736      17.5       3.1868      14.1007       
2012-08-06T05:10:27Z    Tianjin_2     34.8568     -122.8341   237.1659    32.6763     16.6871      0.0613    20.7414     20.3782     1.782       17.5       3.187       14.1677       
2012-08-06T05:13:29Z    Tianjin_2     34.849      -122.818    237.182     32.6731     16.618       0.0695    20.7421     20.3785     1.7845      17.5       3.1819      14.184        
2012-08-06T05:16:30Z    Tianjin_2     34.8405     -122.801    237.199     32.6761     16.5343      0.1273    20.7484     20.3787     1.8143      17.5       3.1758      14.4166       
2012-08-06T05:19:32Z    Tianjin_2     34.8324     -122.7851   237.2149    32.6812     16.448       0.1654    20.7652     20.379      1.8952      17.5       3.1695      15.0543       
2012-08-06T05:22:33Z    Tianjin_2     34.8245     -122.77     237.23      32.6831     16.3929      0.1842    20.7808     20.3792     1.9711      17.5       3.1655      15.654        
2012-08-06T05:25:26Z    Tianjin_2     34.8159     -122.7539   237.2461    32.6922     16.3737      0.1977    20.801      20.3792     2.0696      17.5       3.1641      16.434        
2012-08-06T05:28:27Z    Tianjin_2     34.8072     -122.7378   237.2622    32.713      16.3512      0.2255    20.825      20.3792     2.1873      17.5       3.1624      17.3647       
2012-08-06T05:31:29Z    Tianjin_2     34.7988     -122.722    237.278     32.7732     15.8604      0.377     20.8433     20.3807     2.2695      17.5       3.1265      17.9785       
2012-08-06T05:34:30Z    Tianjin_2     34.7898     -122.7049   237.2951    32.9123     15.0323      0.8787    20.8629     20.3833     2.3532      17.5       3.066       18.5674       
2012-08-06T05:37:32Z    Tianjin_2     34.7816     -122.6888   237.3112    33.1238     14.5905      1.5919    20.9178     20.3845     2.6165      17.5       3.0334      20.5805       
2012-08-06T05:40:33Z    Tianjin_2     34.7738     -122.6731   237.3269    33.0975     14.443       1.6725    21.0381     20.385      3.2036      17.5       3.0228      25.189        
2012-08-06T05:43:26Z    Tianjin_2     34.7658     -122.6571   237.3429    33.0715     14.279       1.7351    21.2321     20.3856     4.1521      17.5       3.0111      32.6336       
2012-08-06T05:46:27Z    Tianjin_2     34.7582     -122.6412   237.3588    33.08       14.4016      1.7333    21.3395     20.3852     4.6815      17.5       3.0199      36.8089       
2012-08-06T05:49:29Z    Tianjin_2     34.75       -122.6244   237.3756    33.0573     14.4031      1.6102    21.358      20.3852     4.772       17.5       2.9416      36.5515       
2012-08-06T05:52:30Z    Tianjin_2     34.7422     -122.6082   237.3918    33.0871     14.5397      1.5696    21.3983     20.3847     4.9724      17.5       2.9515      38.1032       
2012-08-06T05:55:32Z    Tianjin_2     34.7345     -122.5932   237.4068    33.0997     14.7052      1.392     21.436      20.3841     5.1601      17.5       2.9636      39.5685       
2012-08-06T06:43:29Z    Tianjin_2     34.6005     -122.3471   237.6529    33.099      15.7949      0.478     21.1014     20.3805     3.5372      17.5       2.9569      26.4829       
2012-08-06T06:46:30Z    Tianjin_2     34.5918     -122.3314   237.6686    33.0991     15.7702      0.4737    21.093      20.3806     3.4955      17.5       2.955       26.1669       
2012-08-06T06:49:32Z    Tianjin_2     34.5838     -122.3167   237.6833    33.0955     15.7435      0.5209    21.0857     20.3807     3.4593      17.5       2.953       25.8927       
2012-08-06T06:52:33Z    Tianjin_2     34.5757     -122.3021   237.6979    33.0895     15.7         0.5658    21.076      20.3808     3.4112      17.5       2.9498      25.5272       
2012-08-06T06:55:26Z    Tianjin_2     34.567      -122.2864   237.7136    33.085      15.6814      0.591     21.0672     20.3809     3.3677      17.5       2.9484      25.1997       
2012-08-06T06:58:27Z    Tianjin_2     34.5582     -122.2705   237.7295    33.0823     15.6786      0.6036    21.0657     20.3809     3.3601      17.5       2.9482      25.1431       
2012-08-06T07:01:29Z    Tianjin_2     34.5501     -122.2561   237.7439    33.0802     15.6875      0.616     21.0597     20.3809     3.3308      17.5       2.9489      24.9251       
2012-08-06T07:04:30Z    Tianjin_2     34.5422     -122.2417   237.7583    33.0784     15.6975      0.5838    21.0602     20.3808     3.3336      17.5       2.9496      24.9477       
2012-08-06T07:07:32Z    Tianjin_2     34.5336     -122.2265   237.7735    33.0789     15.683       0.5596    21.0535     20.3809     3.3004      17.5       2.9485      24.6976       
2012-08-06T07:10:33Z    Tianjin_2     34.525      -122.2113   237.7887    33.0813     15.6545      0.5405    21.0482     20.381      3.2738      17.5       2.9464      24.4939       
2012-08-06T07:13:26Z    Tianjin_2     34.5164     -122.1963   237.8037    33.0827     15.5852      0.517     21.0428     20.3812     3.2463      17.5       2.9412      24.2783       
2012-08-06T07:16:27Z    Tianjin_2     34.5079     -122.181    237.819     33.0731     15.4992      0.5278    21.0361     20.3815     3.2118      17.5       2.9347      24.01         
2012-08-06T07:19:29Z    Tianjin_2     34.4995     -122.1656   237.8344    33.0666     15.4521      0.508     21.0349     20.3817     3.2049      17.5       2.9312      23.9525       
2012-08-06T07:22:30Z    Tianjin_2     34.4912     -122.1499   237.8501    33.0704     15.4022      0.5366    21.0303     20.3818     3.1818      17.5       2.9275      23.7723       
2012-08-06T07:25:32Z    Tianjin_2     34.4831     -122.1343   237.8657    33.0805     15.3929      0.6161    21.0219     20.3818     3.1402      17.5       2.9267      23.4584       
2012-08-06T07:28:33Z    Tianjin_2     34.4749     -122.1189   237.8811    33.0744     15.3635      0.551     21.0189     20.3819     3.1251      17.5       2.9227      23.3286       
2012-08-06T07:31:26Z    Tianjin_2     34.4666     -122.1033   237.8967    33.0606     15.3358      0.4742    21.0189     20.3821     3.1244      17.5       2.9206      23.3214       
2012-08-06T07:34:27Z    Tianjin_2     34.4583     -122.0877   237.9123    33.0602     15.3038      0.4752    20.9979     20.3822     3.0209      17.5       2.9182      22.5441       
2012-08-06T07:37:29Z    Tianjin_2     34.45       -122.0723   237.9277    33.0603     15.24        0.4941    20.9753     20.3824     2.9091      17.5       2.9132      21.7007       
2012-08-06T07:40:30Z    Tianjin_2     34.4413     -122.0561   237.9439    33.0594     15.1857      0.4957    20.9598     20.3826     2.832       17.5       2.909       21.1175       
2012-08-06T07:43:32Z    Tianjin_2     34.4327     -122.0403   237.9597    33.0569     15.1353      0.4979    20.9456     20.3827     2.7615      17.5       2.9051      20.5854       
2012-08-06T07:46:33Z    Tianjin_2     34.4243     -122.025    237.975     33.0556     15.0963      0.5179    20.9337     20.3829     2.7027      17.5       2.9021      20.1418       
2012-08-06T07:49:26Z    Tianjin_2     34.4157     -122.0094   237.9906    33.0566     15.0755      0.5038    20.9157     20.3829     2.6138      17.5       2.9005      19.477        
2012-08-06T07:52:27Z    Tianjin_2     34.4074     -121.9943   238.0057    33.0558     15.0601      0.4899    20.8976     20.383      2.5249      17.5       2.8993      18.8123       
2012-08-06T07:55:29Z    Tianjin_2     34.3981     -121.9775   238.0225    33.0535     15.0082      0.4943    20.882      20.3832     2.4474      17.5       2.8953      18.2288       
2012-08-06T07:58:30Z    Tianjin_2     34.3895     -121.9621   238.0379    33.049      15.0432      0.4765    20.8681     20.383      2.3797      17.5       2.898       17.7294       
2012-08-06T08:01:32Z    Tianjin_2     34.3814     -121.9477   238.0523    33.0453     15.098       0.4628    20.8565     20.3829     2.3239      17.5       2.9023      17.3205       
2012-08-06T08:04:33Z    Tianjin_2     34.3728     -121.9321   238.0679    33.0497     15.1151      0.4452    20.8457     20.3828     2.2712      17.5       2.8695      16.7307       
2012-08-06T08:07:26Z    Tianjin_2     34.3639     -121.9161   238.0839    33.0644     15.0604      0.4275    20.8414     20.383      2.2489      17.5       2.8653      16.5586       
2012-08-06T08:10:27Z    Tianjin_2     34.3548     -121.8994   238.1006    33.0683     15.131       0.4474    20.8393     20.3827     2.2399      17.5       2.8707      16.4995       
2012-08-06T08:13:29Z    Tianjin_2     34.3466     -121.884    238.116     33.0745     15.0961      0.4726    20.8399     20.3828     2.2425      17.5       2.868       16.5141       
2012-08-06T08:16:30Z    Tianjin_2     34.339      -121.8699   238.1301    33.0915     15.0985      0.5083    20.8445     20.3828     2.2654      17.5       2.9039      16.8885       
2012-08-06T08:19:32Z    Tianjin_2     34.331      -121.8555   238.1445    33.1002     15.089       0.504     20.8437     20.3828     2.2613      17.5       2.9031      16.8558       
2012-08-06T08:22:33Z    Tianjin_2     34.3226     -121.8402   238.1598    33.1174     15.1555      0.495     20.8379     20.3826     2.2338      17.5       2.9083      16.657        
2012-08-06T08:25:26Z    Tianjin_2     34.3143     -121.8253   238.1747    33.1248     15.1916      0.5866    20.8319     20.3824     2.2052      17.5       2.9112      16.4474       
2012-08-06T08:28:27Z    Tianjin_2     34.3062     -121.8105   238.1895    33.1339     15.2734      0.7505    20.8365     20.3822     2.229       17.5       2.9177      16.6342       
2012-08-06T08:31:29Z    Tianjin_2     34.2975     -121.7952   238.2048    33.1375     15.3046      0.8343    20.8623     20.382      2.3563      17.5       2.9202      17.5879       
2012-08-06T08:34:30Z    Tianjin_2     34.2889     -121.7797   238.2203    33.1375     15.3093      0.8502    20.9135     20.382      2.6073      17.5       2.9205      19.4621       
2012-08-06T08:37:32Z    Tianjin_2     34.2807     -121.7648   238.2352    33.1339     15.226       0.8746    20.9416     20.3823     2.7441      17.5       2.9139      20.471        
2012-08-06T08:40:33Z    Tianjin_2     34.2728     -121.7504   238.2496    33.1301     15.1937      0.885     20.9641     20.3824     2.8537      17.5       2.9113      21.2835       
2012-08-06T08:43:26Z    Tianjin_2     34.2647     -121.7353   238.2647    33.1331     15.2409      0.9337    20.9899     20.3823     2.9812      17.5       2.9151      22.2423       
2012-08-06T08:46:27Z    Tianjin_2     34.2565     -121.7199   238.2801    33.132      15.2295      0.9277    21.0182     20.3823     3.12        17.5       2.9142      23.2759       
2012-08-06T08:49:29Z    Tianjin_2     34.2486     -121.7049   238.2951    33.1301     15.2299      0.7976    21.0255     20.3823     3.1554      17.5       2.9142      23.5407       
2012-08-06T08:52:30Z    Tianjin_2     34.2409     -121.6901   238.3099    33.1375     15.3205      0.6897    21.0036     20.382      3.0498      17.5       2.9214      22.7673       
2012-08-06T08:55:32Z    Tianjin_2     34.2331     -121.6747   238.3253    33.1459     15.3852      0.6895    20.9478     20.3818     2.7769      17.5       2.9266      20.7386       
2012-08-06T09:43:29Z    Tianjin_2     34.1073     -121.4317   238.5683    33.1671     15.4497      0.8001    20.6692     20.3815     1.4116      17.5       2.9827      10.729        
2012-08-06T09:46:30Z    Tianjin_2     34.0992     -121.417    238.583     33.1664     15.438       0.7499    20.6667     20.3816     1.3989      17.5       2.9818      10.6318       
2012-08-06T09:49:32Z    Tianjin_2     34.0912     -121.4025   238.5975    33.1655     15.4317      0.7542    20.6601     20.3816     1.3664      17.5       2.9812      10.3844       
2012-08-06T09:52:33Z    Tianjin_2     34.0828     -121.3875   238.6125    33.1672     15.3985      0.9194    20.6485     20.3817     1.3092      17.5       2.9785      9.9466        
2012-08-06T09:55:26Z    Tianjin_2     34.0744     -121.3727   238.6273    33.1675     15.3662      1.0153    20.6425     20.3818     1.2792      17.5       3.0728      10.0329       
2012-08-06T09:58:27Z    Tianjin_2     34.0657     -121.3574   238.6426    33.1752     15.2782      1.2512    20.6346     20.3821     1.2389      17.5       3.0649      9.7085        
2012-08-06T10:01:29Z    Tianjin_2     34.0572     -121.3424   238.6576    33.172      15.2978      1.277     20.6309     20.382      1.2211      17.5       3.0667      9.571         
2012-08-06T10:04:30Z    Tianjin_2     34.0484     -121.3269   238.6731    33.164      15.3244      1.0818    20.6273     20.3819     1.2038      17.5       3.0691      9.4382        
2012-08-06T10:07:32Z    Tianjin_2     34.0398     -121.312    238.688     33.1622     15.3202      1.1668    20.6249     20.382      1.1917      17.5       3.0687      9.3434        
2012-08-06T10:10:33Z    Tianjin_2     34.0315     -121.2976   238.7024    33.1651     15.2809      1.2703    20.6231     20.3821     1.1823      17.5       3.0652      9.2659        
2012-08-06T10:13:26Z    Tianjin_2     34.0227     -121.2822   238.7178    33.1701     15.2509      1.2885    20.6229     20.3822     1.1812      17.5       3.0625      9.2543        
2012-08-06T10:16:27Z    Tianjin_2     34.0143     -121.2676   238.7324    33.1791     15.247       1.4039    20.6238     20.3822     1.1855      17.5       3.0622      9.287         
2012-08-06T10:19:29Z    Tianjin_2     34.0059     -121.2529   238.7471    33.1841     15.2289      1.4809    20.6195     20.3822     1.1642      17.5       3.0605      9.1185        
2012-08-06T10:22:30Z    Tianjin_2     33.9971     -121.2378   238.7622    33.1858     15.2491      1.4682    20.6114     20.3822     1.1249      17.5       3.0623      8.8121        
2012-08-06T10:25:32Z    Tianjin_2     33.9886     -121.2227   238.7773    33.1836     15.3016      1.4907    20.6084     20.382      1.111       17.5       3.067       8.7073        
2012-08-06T10:28:33Z    Tianjin_2     33.98       -121.2078   238.7922    33.1804     15.3047      1.5421    20.6051     20.382      1.0947      17.5       3.0673      8.5801        
2012-08-06T10:31:26Z    Tianjin_2     33.9716     -121.193    238.807     33.1738     15.2655      1.4758    20.6029     20.3821     1.0833      17.5       3.0638      8.4886        
2012-08-06T10:34:27Z    Tianjin_2     33.9626     -121.1776   238.8224    33.1666     15.1729      1.4423    20.6044     20.3824     1.0891      17.5       3.0556      8.527         
2012-08-06T10:37:29Z    Tianjin_2     33.9543     -121.1631   238.8369    33.1621     15.0391      1.4076    20.6052     20.3829     1.0906      17.5       3.0439      8.529         
2012-08-06T10:40:30Z    Tianjin_2     33.9464     -121.1493   238.8507    33.1565     14.9655      1.3344    20.6051     20.3832     1.0888      17.5       3.0374      8.5097        
2012-08-06T10:43:32Z    Tianjin_2     33.9377     -121.1343   238.8657    33.1513     14.9159      1.2999    20.6006     20.3833     1.066       17.5       3.033       8.3281        
2012-08-06T10:46:33Z    Tianjin_2     33.9288     -121.1194   238.8806    33.1532     14.8697      1.3118    20.5917     20.3835     1.0215      17.5       3.149       8.2929        
2012-08-06T10:49:26Z    Tianjin_2     33.9201     -121.1048   238.8952    33.1591     14.8521      1.5706    20.5825     20.3835     0.9762      17.5       3.1473      7.9235        
2012-08-06T10:52:27Z    Tianjin_2     33.9116     -121.0906   238.9094    33.1807     14.9933      2.119     20.5743     20.383      0.9384      17.5       3.1605      7.6256        
2012-08-06T10:55:29Z    Tianjin_2     33.9031     -121.0761   238.9239    33.2251     15.1924      2.4137    20.5698     20.3823     0.9201      17.5       3.1791      7.4891        
2012-08-06T10:58:30Z    Tianjin_2     33.8941     -121.0609   238.9391    33.2234     15.4552      2.1155    20.5705     20.3814     0.9277      17.5       3.204       7.5707        
2012-08-06T11:01:32Z    Tianjin_2     33.8855     -121.046    238.954     33.2108     15.4837      1.8875    20.574      20.3813     0.9453      17.5       3.2068      7.7174        
2012-08-06T11:04:33Z    Tianjin_2     33.8771     -121.0317   238.9683    33.2067     15.4322      1.779     20.5718     20.3815     0.9337      17.5       3.2019      7.6194        
2012-08-06T11:07:26Z    Tianjin_2     33.8684     -121.017    238.983     33.2048     15.3468      1.8446    20.5738     20.3818     0.9419      17.5       3.1705      7.6238        
2012-08-06T11:10:27Z    Tianjin_2     33.86       -121.0025   238.9975    33.2048     15.1699      1.9504    20.5722     20.3824     0.9312      17.5       3.1539      7.524         
2012-08-06T11:13:29Z    Tianjin_2     33.8513     -120.988    239.012     33.204      15.1905      1.9242    20.5706     20.3823     0.9236      12.5       3.3056      7.8181        
2012-08-06T11:16:30Z    Tianjin_2     33.8427     -120.9737   239.0263    33.2031     15.2459      2.037     20.568      20.3821     0.9119      12.5       3.3112      7.724         
2012-08-06T11:19:32Z    Tianjin_2     33.8338     -120.9595   239.0405    33.2029     15.3753      2.0476    20.5644     20.3817     0.8965      12.5       3.3245      7.6045        
2012-08-06T11:22:33Z    Tianjin_2     33.8249     -120.9453   239.0547    33.2031     15.4847      2.0995    20.56       20.3814     0.8767      12.5       3.3358      7.4452        
2012-08-06T11:25:26Z    Tianjin_2     33.8157     -120.9306   239.0694    33.211      15.4422      2.2273    20.5581     20.3815     0.8664      12.5       3.3313      7.3543        
2012-08-06T11:28:27Z    Tianjin_2     33.8063     -120.9158   239.0842    33.2264     15.2765      2.2465    20.5594     20.382      0.8704      12.5       3.3143      7.3737        
2012-08-06T11:31:29Z    Tianjin_2     33.7976     -120.9015   239.0985    33.2425     15.0764      2.1561    20.5617     20.3827     0.8782      12.5       3.2937      7.4223        
2012-08-06T11:34:30Z    Tianjin_2     33.7888     -120.8871   239.1129    33.2459     15.0071      1.9111    20.5607     20.3829     0.8726      12.5       3.2867      7.3693        
2012-08-06T11:37:32Z    Tianjin_2     33.78       -120.8728   239.1272    33.2481     15.0237      1.8464    20.5601     20.3828     0.8695      12.5       3.4546      7.7155        
2012-08-06T11:40:33Z    Tianjin_2     33.7713     -120.859    239.141     33.2489     15.0019      1.7905    20.5537     20.3829     0.8379      12.5       3.4522      7.4328        
2012-08-06T11:43:26Z    Tianjin_2     33.7626     -120.8445   239.1555    33.238      15.04        1.8012    20.549      20.3828     0.8155      12.5       3.4565      7.2386        
2012-08-06T11:46:27Z    Tianjin_2     33.7537     -120.8306   239.1694    33.2192     15.1655      1.8978    20.5467     20.3824     0.806       12.5       3.4706      7.1664        
2012-08-06T11:49:29Z    Tianjin_2     33.745      -120.817    239.183     33.2025     15.2023      2.0071    20.54       20.3823     0.7738      12.5       3.4747      6.8839        
2012-08-06T11:52:30Z    Tianjin_2     33.7361     -120.8032   239.1968    33.1936     15.1634      1.9225    20.5352     20.3824     0.7493      12.5       3.4704      6.6634        
2012-08-06T11:55:32Z    Tianjin_2     33.7271     -120.7896   239.2104    33.1889     15.1194      1.796     20.5376     20.3826     0.7605      12.5       3.4656      6.7593        
2012-08-06T12:43:29Z    Tianjin_2     33.6073     -120.5482   239.4518    33.1428     15.3946      2.0697    20.605      20.3817     1.0954      12.5       3.5556      9.9377        
2012-08-06T12:46:30Z    Tianjin_2     33.6007     -120.5329   239.4671    33.1432     15.3132      2.1008    nd          20.382      nd          12.5       3.546       nd            
2012-08-06T12:49:32Z    Tianjin_2     33.5941     -120.5176   239.4824    33.1396     15.2656      2.1007    nd          20.3822     nd          12.5       3.5404      nd            
2012-08-06T12:52:33Z    Tianjin_2     33.5872     -120.5017   239.4983    33.1369     15.2629      2.0582    nd          20.3822     nd          12.5       3.5401      nd            
2011-05-16T13:55:29Z    Tokyo_1       22.6872     116.6051    116.6051    34.1942     25.5307      -0.0191   nd          20.3538     nd          22.5       2.4861      nd            
2011-05-16T13:58:30Z    Tokyo_1       22.6971     116.62      116.62      34.1903     25.5313      -0.0218   nd          20.3538     nd          22.5       2.4861      nd            
2011-05-16T14:01:32Z    Tokyo_1       22.7079     116.6347    116.6347    34.1854     25.5661      -0.0227   nd          20.3537     nd          22.5       2.3645      nd            
2011-05-16T14:04:33Z    Tokyo_1       22.7186     116.6491    116.6491    34.1809     25.5821      -0.0266   nd          20.3537     nd          22.5       2.3654      nd            
2011-05-16T14:07:26Z    Tokyo_1       22.7292     116.6634    116.6634    34.1759     25.5937      -0.0253   nd          20.3537     nd          22.5       2.366       nd            
2011-05-16T14:10:27Z    Tokyo_1       22.7401     116.6781    116.6781    34.1651     25.6108      -0.0289   nd          20.3537     nd          22.5       2.3669      nd            
2011-05-16T14:13:29Z    Tokyo_1       22.7508     116.6925    116.6925    34.1573     25.5665      -0.0278   nd          20.3538     nd          22.5       2.3646      nd            
2011-05-16T14:16:30Z    Tokyo_1       22.762      116.7073    116.7073    34.1443     25.5426      -0.0221   nd          20.3538     nd          22.5       2.3634      nd            
2011-05-16T14:19:32Z    Tokyo_1       22.7727     116.7216    116.7216    34.1355     25.5214      -0.0199   nd          20.3539     nd          22.5       2.3623      nd            
2011-05-16T14:22:33Z    Tokyo_1       22.7833     116.7358    116.7358    34.1341     25.489       -0.0152   nd          20.3539     nd          22.5       2.3606      nd            
2011-05-16T14:25:26Z    Tokyo_1       22.7946     116.751     116.751     34.1333     25.4306      -0.0133   nd          20.3541     nd          22.5       2.3575      nd            
2011-05-16T14:28:27Z    Tokyo_1       22.8053     116.7657    116.7657    34.1316     25.3708      -0.0134   nd          20.3542     nd          22.5       2.3544      nd            
2011-05-16T14:31:29Z    Tokyo_1       22.8155     116.7797    116.7797    34.132      25.319       -0.0142   nd          20.3543     nd          22.5       2.3517      nd            
2011-05-16T14:34:30Z    Tokyo_1       22.826      116.7941    116.7941    34.1359     25.286       -0.0118   nd          20.3543     nd          22.5       2.3499      nd            
2011-05-16T14:37:32Z    Tokyo_1       22.8368     116.809     116.809     34.1375     25.2611      -0.0112   nd          20.3544     nd          22.5       2.3486      nd            
2011-05-16T14:40:33Z    Tokyo_1       22.8473     116.8235    116.8235    34.1334     25.1929      -0.009    nd          20.3545     nd          22.5       2.345       nd            
2011-05-16T14:43:26Z    Tokyo_1       22.8576     116.8379    116.8379    34.124      25.0989      -0.004    nd          20.3547     nd          22.5       2.3401      nd            
2011-05-16T14:46:27Z    Tokyo_1       22.8681     116.8524    116.8524    34.1096     24.9542      0.0022    nd          20.355      nd          22.5       2.3325      nd            
2011-05-16T14:49:29Z    Tokyo_1       22.8787     116.867     116.867     34.0827     24.8273      0.0107    nd          20.3553     nd          22.5       2.3728      nd            
2011-05-16T14:52:30Z    Tokyo_1       22.8894     116.8818    116.8818    34.0782     24.7841      0.0201    nd          20.3554     nd          22.5       2.3279      nd            
2011-05-16T14:55:32Z    Tokyo_1       22.9003     116.897     116.897     34.0851     24.6885      0.0214    nd          20.3556     nd          22.5       2.3229      nd            
2011-05-16T14:58:33Z    Tokyo_1       22.9104     116.9115    116.9115    34.0853     24.6011      0.0339    nd          20.3558     nd          22.5       2.3183      nd            
2011-05-16T15:01:26Z    Tokyo_1       22.9205     116.926     116.926     34.0735     24.5708      0.0394    nd          20.3558     nd          22.5       2.3167      nd            
2011-05-16T15:04:27Z    Tokyo_1       22.9312     116.9413    116.9413    34.0626     24.5958      0.0382    nd          20.3558     nd          22.5       2.3181      nd            
2011-05-16T15:07:29Z    Tokyo_1       22.9416     116.9562    116.9562    34.0623     24.6558      0.0316    nd          20.3557     nd          22.5       2.3212      nd            
2011-05-16T15:10:30Z    Tokyo_1       22.9516     116.9705    116.9705    34.0698     24.7158      0.0258    nd          20.3556     nd          22.5       2.3244      nd            
2011-05-16T15:13:32Z    Tokyo_1       22.9617     116.985     116.985     34.0784     24.7472      0.0237    nd          20.3555     nd          22.5       2.326       nd            
2011-05-16T15:16:33Z    Tokyo_1       22.9719     116.9997    116.9997    34.0796     24.7098      0.0307    nd          20.3556     nd          22.5       2.324       nd            
2011-05-16T15:19:26Z    Tokyo_1       22.9821     117.0144    117.0144    34.0796     24.6675      0.039     nd          20.3556     nd          22.5       2.3218      nd            
2011-05-16T15:22:27Z    Tokyo_1       22.9923     117.0291    117.0291    34.0863     24.642       0.0406    nd          20.3557     nd          22.5       2.3204      nd            
2011-05-16T15:25:29Z    Tokyo_1       23.5081     117.0437    117.0437    34.0872     24.5907      0.0388    nd          20.3558     nd          nd         1.1961      nd            
2011-05-16T15:28:30Z    Tokyo_1       23.0128     117.0585    117.0585    34.0827     24.483       0.0429    nd          20.356      nd          nd         1.0883      nd            
2011-05-16T15:31:32Z    Tokyo_1       23.0231     117.0733    117.0733    34.0556     24.3588      0.0538    nd          20.3563     nd          nd         1.0853      nd            
2011-05-16T15:34:33Z    Tokyo_1       23.0331     117.0878    117.0878    34.0234     24.2417      0.0922    nd          20.3566     nd          nd         1.0824      nd            
2011-05-16T15:37:26Z    Tokyo_1       23.0433     117.1025    117.1025    34.0093     24.157       0.1195    nd          20.3568     nd          nd         1.0804      nd            
2011-05-16T15:40:27Z    Tokyo_1       23.0534     117.1171    117.1171    34.01       24.0841      0.1134    nd          20.3569     nd          nd         1.0786      nd            
2011-05-16T15:43:29Z    Tokyo_1       23.0633     117.1315    117.1315    34.0182     24.0476      0.0908    nd          20.357      nd          nd         1.0436      nd            
2011-05-16T15:46:30Z    Tokyo_1       23.0733     117.1459    117.1459    34.0324     24.0178      0.0711    nd          20.3571     nd          nd         1.0429      nd            
2011-05-16T15:49:32Z    Tokyo_1       23.0833     117.1603    117.1603    34.0446     24.0066      0.0614    nd          20.3571     nd          nd         1.0426      nd            
2011-05-16T15:52:33Z    Tokyo_1       23.0935     117.175     117.175     34.0513     24.0087      0.0563    nd          20.357      nd          nd         1.0426      nd            
2011-05-16T15:55:26Z    Tokyo_1       23.1035     117.1893    117.1893    34.0447     24.0082      0.0479    nd          20.3571     nd          nd         1.0426      nd            
2011-05-16T15:58:27Z    Tokyo_1       23.1133     117.2034    117.2034    34.0461     24.0143      0.044     nd          20.357      nd          nd         1.0428      nd            
2011-05-16T16:01:29Z    Tokyo_1       23.1232     117.2179    117.2179    34.0474     24.0234      0.0517    nd          20.357      nd          nd         1.043       nd            
2011-05-16T16:04:30Z    Tokyo_1       23.1331     117.2322    117.2322    34.047      24.0257      0.0622    nd          20.357      nd          nd         1.1142      nd            
2011-05-16T16:07:32Z    Tokyo_1       23.1429     117.2464    117.2464    34.0418     24.0157      0.0616    nd          20.357      nd          nd         1.1139      nd            
2011-05-16T16:10:33Z    Tokyo_1       23.1528     117.2607    117.2607    34.0304     23.9995      0.0657    nd          20.3571     nd          nd         1.1135      nd            
2011-05-16T16:13:26Z    Tokyo_1       23.1625     117.2747    117.2747    34.0193     23.9958      0.0694    nd          20.3571     nd          nd         1.1135      nd            
2011-05-16T16:55:29Z    Tokyo_1       23.2961     117.4716    117.4716    34.4708     22.9362      0.194     nd          20.3588     nd          nd         1.1258      nd            
2011-05-16T16:58:30Z    Tokyo_1       23.305      117.4856    117.4856    34.4188     22.8893      0.2013    nd          20.359      nd          nd         1.1247      nd            
2011-05-16T17:01:32Z    Tokyo_1       23.3145     117.4986    117.4986    34.3552     22.8545      0.1948    nd          20.3592     nd          nd         1.1238      nd            
2011-05-16T17:04:33Z    Tokyo_1       23.3243     117.5116    117.5116    34.3225     22.7177      0.2036    nd          20.3595     nd          nd         1.1203      nd            
2011-05-16T17:07:26Z    Tokyo_1       23.3342     117.5248    117.5248    34.3255     22.5773      0.2227    nd          20.3599     nd          nd         1.1166      nd            
2011-05-16T17:10:27Z    Tokyo_1       23.3439     117.538     117.538     34.3082     22.5309      0.2346    nd          20.36       nd          nd         1.1154      nd            
2011-05-16T17:13:29Z    Tokyo_1       23.3538     117.5515    117.5515    34.3142     22.5639      0.2229    nd          20.3599     nd          nd         1.1163      nd            
2011-05-16T17:16:30Z    Tokyo_1       23.3639     117.5642    117.5642    34.2807     22.5675      0.1966    nd          20.3599     nd          nd         1.1164      nd            
2011-05-16T17:19:32Z    Tokyo_1       23.3739     117.5763    117.5763    34.3206     22.5392      0.1777    nd          20.3599     nd          nd         1.1156      nd            
2011-05-16T17:22:33Z    Tokyo_1       23.3838     117.5891    117.5891    34.5491     22.4936      0.2091    nd          20.3597     nd          nd         1.2073      nd            
2011-05-16T17:25:26Z    Tokyo_1       23.3934     117.6026    117.6026    34.5975     22.4316      0.2188    nd          20.3598     nd          nd         1.2055      nd            
2011-05-16T17:28:27Z    Tokyo_1       23.4019     117.6167    117.6167    34.5796     22.387       0.2288    nd          20.36       nd          nd         1.2043      nd            
2011-05-16T17:31:29Z    Tokyo_1       23.4099     117.631     117.631     34.5495     22.3538      0.2252    nd          20.3601     nd          nd         1.4008      nd            
2011-05-16T17:34:30Z    Tokyo_1       23.4183     117.6453    117.6453    34.5209     22.3428      0.222     nd          20.3601     nd          nd         1.4005      nd            
2011-05-16T17:37:32Z    Tokyo_1       23.427      117.6598    117.6598    34.4892     22.3495      0.225     nd          20.3602     nd          nd         1.4008      nd            
2011-05-16T17:40:33Z    Tokyo_1       23.4356     117.6742    117.6742    34.4863     22.3697      0.2417    nd          20.3601     nd          nd         1.4015      nd            
2011-05-16T17:43:26Z    Tokyo_1       23.4439     117.688     117.688     34.4742     22.3915      0.2629    nd          20.3601     nd          nd         1.4022      nd            
2011-05-16T17:46:27Z    Tokyo_1       23.4521     117.7018    117.7018    34.4465     22.4216      0.2477    nd          20.3601     nd          nd         1.4033      nd            
2011-05-16T17:49:29Z    Tokyo_1       23.4606     117.7158    117.7158    34.4436     22.4453      0.3134    nd          20.36       nd          nd         1.4041      nd            
2011-05-16T17:52:30Z    Tokyo_1       23.4695     117.7295    117.7295    34.366      22.5062      0.2959    nd          20.36       nd          nd         1.4062      nd            
2011-05-16T17:55:32Z    Tokyo_1       23.4784     117.7432    117.7432    34.3586     22.6021      0.2774    nd          20.3598     nd          nd         1.4094      nd            
2011-05-16T17:58:33Z    Tokyo_1       23.4873     117.7569    117.7569    34.3565     22.6591      0.2845    nd          20.3596     nd          nd         1.4113      nd            
2011-05-16T18:01:26Z    Tokyo_1       23.4962     117.7705    117.7705    34.3438     22.6682      0.2588    nd          20.3596     nd          nd         1.4116      nd            
2011-05-16T18:04:27Z    Tokyo_1       23.5054     117.7846    117.7846    34.3384     22.6454      0.2514    nd          20.3597     nd          nd         1.4109      nd            
2011-05-16T18:07:29Z    Tokyo_1       23.5145     117.7983    117.7983    34.3437     22.6255      0.2476    nd          20.3597     nd          nd         1.4102      nd            
2011-05-16T18:10:30Z    Tokyo_1       23.5237     117.8114    117.8114    34.2546     22.6118      0.2341    nd          20.3599     nd          nd         1.41        nd            
2011-05-16T18:13:32Z    Tokyo_1       23.5332     117.825     117.825     34.3289     22.583       0.2533    nd          20.3598     nd          nd         1.4089      nd            
2011-05-16T18:16:33Z    Tokyo_1       23.5429     117.8391    117.8391    34.344      22.57        0.2387    nd          20.3598     nd          nd         1.4084      nd            
2011-05-16T18:19:26Z    Tokyo_1       23.5522     117.8526    117.8526    34.3438     22.5733      0.2344    nd          20.3598     nd          nd         1.4085      nd            
2011-05-16T18:22:27Z    Tokyo_1       23.5613     117.8656    117.8656    34.3468     22.5841      0.2276    nd          20.3598     nd          nd         1.4089      nd            
2011-05-16T18:25:29Z    Tokyo_1       23.5701     117.8795    117.8795    34.3535     22.6268      0.2282    nd          20.3597     nd          nd         1.5611      nd            
2011-05-16T18:28:30Z    Tokyo_1       23.5793     117.8947    117.8947    34.3481     22.6851      0.2325    nd          20.3596     nd          nd         1.5633      nd            
2011-05-16T18:31:32Z    Tokyo_1       23.5878     117.9086    117.9086    34.3198     22.7759      0.2197    nd          20.3594     nd          nd         1.5667      nd            
2011-05-16T18:34:33Z    Tokyo_1       23.5957     117.9217    117.9217    34.2843     22.8365      0.2206    nd          20.3593     nd          nd         1.569       nd            
2011-05-16T18:37:26Z    Tokyo_1       23.6047     117.9357    117.9357    34.2526     22.9517      0.2173    nd          20.3591     nd          nd         1.5733      nd            
2011-05-16T18:40:27Z    Tokyo_1       23.6141     117.9491    117.9491    34.2493     23.0157      0.2422    nd          20.359      nd          nd         1.5756      nd            
2011-05-16T18:43:29Z    Tokyo_1       23.6236     117.9627    117.9627    34.2574     23.0347      0.2714    nd          20.3589     nd          nd         1.5763      nd            
2011-05-16T18:46:30Z    Tokyo_1       23.6333     117.9765    117.9765    34.2593     23.0263      0.223     nd          20.3589     nd          nd         1.7934      nd            
2011-05-16T18:49:32Z    Tokyo_1       23.6429     117.9902    117.9902    34.2701     23.0092      0.2191    nd          20.3589     nd          nd         1.7927      nd            
2011-05-16T18:52:33Z    Tokyo_1       23.6524     118.004     118.004     34.293      23.012       0.2158    nd          20.3589     nd          22.5       2.2899      nd            
2011-05-16T18:55:26Z    Tokyo_1       23.6618     118.0175    118.0175    34.3097     23.0216      0.208     nd          20.3589     nd          22.5       2.2903      nd            
2011-05-16T18:58:27Z    Tokyo_1       23.6711     118.0309    118.0309    34.3172     23.0273      0.2073    nd          20.3588     nd          22.5       2.2906      nd            
2011-05-16T19:01:29Z    Tokyo_1       23.6807     118.0445    118.0445    34.3164     23.04        0.207     nd          20.3588     nd          22.5       2.2912      nd            
2011-05-16T19:04:30Z    Tokyo_1       23.6903     118.0582    118.0582    34.3178     23.0388      0.2152    nd          20.3588     nd          22.5       2.2912      nd            
2011-05-16T19:07:32Z    Tokyo_1       23.6999     118.0719    118.0719    34.3242     23.0578      0.2491    nd          20.3588     nd          22.5       2.2921      nd            
2011-05-16T19:10:33Z    Tokyo_1       23.7095     118.0855    118.0855    34.3282     23.0656      0.2296    nd          20.3587     nd          22.5       2.2925      nd            
2011-05-16T19:13:26Z    Tokyo_1       23.7193     118.0995    118.0995    34.3259     23.0715      0.2276    nd          20.3587     nd          22.5       2.2928      nd            
2011-05-16T19:55:29Z    Tokyo_1       23.8555     118.2953    118.2953    34.1793     23.2236      0.2239    nd          20.3586     nd          22.5       2.5526      nd            
2011-05-16T19:58:30Z    Tokyo_1       23.8648     118.3094    118.3094    34.1802     23.2335      0.221     nd          20.3586     nd          22.5       2.5532      nd            
2011-05-16T20:01:32Z    Tokyo_1       23.8744     118.324     118.324     34.1821     23.2341      0.2303    nd          20.3586     nd          22.5       2.5532      nd            
2011-05-16T20:04:33Z    Tokyo_1       23.8841     118.3387    118.3387    34.1854     23.1958      0.2268    nd          20.3586     nd          22.5       2.8316      nd            
2011-05-16T20:07:26Z    Tokyo_1       23.8938     118.3534    118.3534    34.1812     23.1525      0.2296    nd          20.3587     nd          22.5       2.8285      nd            
2011-05-16T20:10:27Z    Tokyo_1       23.9031     118.3675    118.3675    34.1759     23.1133      0.2293    nd          20.3588     nd          22.5       2.8258      nd            
2011-05-16T20:13:29Z    Tokyo_1       23.9123     118.3816    118.3816    34.1745     23.0852      0.221     nd          20.3589     nd          22.5       2.9471      nd            
2011-05-16T20:16:30Z    Tokyo_1       23.9223     118.3967    118.3967    34.1754     23.0461      0.2219    nd          20.359      nd          22.5       2.9442      nd            
2011-05-16T20:19:32Z    Tokyo_1       23.9319     118.4113    118.4113    34.1734     23.0106      0.2137    nd          20.3591     nd          22.5       2.9415      nd            
2011-05-16T20:22:33Z    Tokyo_1       23.9411     118.4254    118.4254    34.1727     22.9975      0.2148    nd          20.3591     nd          22.5       2.9406      nd            
2011-05-16T20:25:26Z    Tokyo_1       23.9507     118.4401    118.4401    34.1859     22.9952      0.1982    nd          20.3591     nd          22.5       2.9403      nd            
2011-05-16T20:28:27Z    Tokyo_1       23.9606     118.4551    118.4551    34.1889     22.9954      0.2207    nd          20.3591     nd          22.5       2.9403      nd            
2011-05-16T20:31:29Z    Tokyo_1       23.9702     118.4696    118.4696    34.1994     23.0013      0.2074    nd          20.3591     nd          22.5       2.9407      nd            
2011-05-16T20:34:30Z    Tokyo_1       23.9796     118.484     118.484     34.2044     23.0115      0.2214    nd          20.359      nd          22.5       2.9415      nd            
2011-05-16T20:37:32Z    Tokyo_1       23.9897     118.4991    118.4991    34.198      23.033       0.2357    nd          20.359      nd          22.5       2.9431      nd            
2011-05-16T20:40:33Z    Tokyo_1       24.2951     118.5139    118.5139    34.1446     23.0441      0.2081    nd          20.359      nd          nd         2.4415      nd            
2011-05-16T20:43:26Z    Tokyo_1       24.0088     118.5288    118.5288    34.1911     23.0478      0.2074    nd          20.359      nd          nd         2.1818      nd            
2011-05-16T20:46:27Z    Tokyo_1       24.0182     118.544     118.544     34.2053     23.0562      0.1998    nd          20.3589     nd          nd         2.1822      nd            
2011-05-16T20:49:29Z    Tokyo_1       24.0274     118.5592    118.5592    34.2245     23.0468      0.204     nd          20.3589     nd          nd         2.1817      nd            
2011-05-16T20:52:30Z    Tokyo_1       24.0368     118.575     118.575     34.2328     23.065       0.2158    nd          20.3589     nd          nd         2.1826      nd            
2011-05-16T20:55:32Z    Tokyo_1       24.046      118.5903    118.5903    34.2308     23.1026      0.2134    nd          20.3588     nd          nd         2.1845      nd            
2011-05-16T20:58:33Z    Tokyo_1       24.0551     118.6055    118.6055    34.1786     23.1046      0.2042    nd          20.3588     nd          nd         2.1848      nd            
2011-05-16T21:01:26Z    Tokyo_1       24.0641     118.6213    118.6213    34.1473     23.1286      0.2078    nd          20.3588     nd          nd         2.1861      nd            
2011-05-16T21:04:27Z    Tokyo_1       24.0718     118.6377    118.6377    34.1247     23.158       0.2106    nd          20.3588     nd          nd         2.0833      nd            
2011-05-16T21:07:29Z    Tokyo_1       24.0777     118.6547    118.6547    34.111      23.1679      0.2016    nd          20.3588     nd          nd         2.0838      nd            
2011-05-16T21:10:30Z    Tokyo_1       24.0837     118.6716    118.6716    34.1018     23.1628      0.204     nd          20.3588     nd          nd         2.0836      nd            
2011-05-16T21:13:32Z    Tokyo_1       24.0912     118.6883    118.6883    34.1035     23.1745      0.2023    nd          20.3588     nd          nd         2.0841      nd            
2011-05-16T21:16:33Z    Tokyo_1       24.101      118.7031    118.7031    34.1023     23.182       0.2011    nd          20.3588     nd          nd         2.0845      nd            
2011-05-16T21:19:26Z    Tokyo_1       24.1119     118.7169    118.7169    34.0956     23.1844      0.2013    nd          20.3588     nd          nd         2.0846      nd            
2011-05-16T21:22:27Z    Tokyo_1       24.1233     118.7307    118.7307    34.0824     23.2045      0.1874    nd          20.3588     nd          nd         2.0857      nd            
2011-05-16T21:25:29Z    Tokyo_1       24.1347     118.7442    118.7442    34.0613     23.2353      0.1791    nd          20.3587     nd          nd         2.3162      nd            
2011-05-16T21:28:30Z    Tokyo_1       24.1463     118.758     118.758     34.0424     23.2699      0.1499    nd          20.3587     nd          nd         2.3181      nd            
2011-05-16T21:31:32Z    Tokyo_1       24.1578     118.7714    118.7714    34.0418     23.2913      0.1445    nd          20.3586     nd          nd         2.3192      nd            
2011-05-16T21:34:33Z    Tokyo_1       24.1693     118.7852    118.7852    34.0458     23.3098      0.1333    nd          20.3586     nd          nd         2.3202      nd            
2011-05-16T21:37:26Z    Tokyo_1       24.1809     118.7989    118.7989    34.0463     23.3374      0.1221    nd          20.3585     nd          nd         2.3217      nd            
2011-05-16T21:40:27Z    Tokyo_1       24.1923     118.8124    118.8124    34.0477     23.3657      0.1309    nd          20.3584     nd          nd         2.3232      nd            
2011-05-16T21:43:29Z    Tokyo_1       24.2039     118.8262    118.8262    34.0426     23.3858      0.1462    nd          20.3584     nd          nd         2.3243      nd            
2011-05-16T21:46:30Z    Tokyo_1       24.2155     118.8399    118.8399    34.0369     23.3964      0.1325    nd          20.3584     nd          nd         2.3249      nd            
2011-05-16T21:49:32Z    Tokyo_1       24.227      118.8539    118.8539    34.0275     23.4144      0.1135    nd          20.3584     nd          nd         2.3259      nd            
2011-05-16T21:52:33Z    Tokyo_1       24.2383     118.8683    118.8683    34.0128     23.4263      0.1067    nd          20.3584     nd          nd         2.3266      nd            
2011-05-16T21:55:26Z    Tokyo_1       24.2491     118.8823    118.8823    33.9993     23.4283      0.0978    nd          20.3584     nd          nd         2.275       nd            
2011-05-16T21:58:27Z    Tokyo_1       24.2601     118.8966    118.8966    33.9887     23.4287      0.0976    nd          20.3584     nd          nd         2.2751      nd            
2011-05-16T22:01:29Z    Tokyo_1       24.2708     118.9111    118.9111    33.9796     23.4233      0.0981    nd          20.3584     nd          nd         2.2749      nd            
2011-05-16T22:04:30Z    Tokyo_1       24.2812     118.9257    118.9257    33.9731     23.4144      0.0985    nd          20.3584     nd          nd         2.2744      nd            
2011-05-16T22:07:32Z    Tokyo_1       24.292      118.9413    118.9413    33.9666     23.4117      0.1069    nd          20.3584     nd          nd         2.2743      nd            
2011-05-16T22:10:33Z    Tokyo_1       24.3025     118.9563    118.9563    33.9623     23.4224      0.1068    nd          20.3584     nd          nd         2.2749      nd            
2011-05-16T22:13:26Z    Tokyo_1       24.3126     118.9706    118.9706    33.958      23.4625      0.1112    nd          20.3583     nd          nd         2.277       nd            
2011-05-16T22:55:29Z    Tokyo_1       24.4583     119.1774    119.1774    33.9754     23.5368      0.1184    nd          20.3582     nd          27.5       2.2254      nd            
2011-05-16T22:58:30Z    Tokyo_1       24.4682     119.1931    119.1931    33.9726     23.5272      0.1213    nd          20.3582     nd          27.5       2.225       nd            
2011-05-16T23:01:32Z    Tokyo_1       24.4779     119.2086    119.2086    33.9714     23.5114      0.1193    nd          20.3582     nd          27.5       2.2243      nd            
2011-05-16T23:04:33Z    Tokyo_1       24.4875     119.224     119.224     33.9704     23.4937      0.1126    nd          20.3583     nd          27.5       2.2236      nd            
2011-05-16T23:07:26Z    Tokyo_1       24.4973     119.2395    119.2395    33.9688     23.483       0.1117    nd          20.3583     nd          27.5       2.2231      nd            
2011-05-16T23:10:27Z    Tokyo_1       24.507      119.2548    119.2548    33.9667     23.4723      0.1116    nd          20.3583     nd          27.5       2.2227      nd            
2011-05-16T23:13:29Z    Tokyo_1       24.5168     119.2702    119.2702    33.9654     23.4775      0.1141    nd          20.3583     nd          27.5       2.2229      nd            
2011-05-16T23:16:30Z    Tokyo_1       24.5267     119.2858    119.2858    33.9662     23.5423      0.1127    nd          20.3582     nd          27.5       2.2257      nd            
2011-05-16T23:19:32Z    Tokyo_1       24.5366     119.3014    119.3014    33.9649     23.6123      0.1068    nd          20.358      nd          27.5       2.2287      nd            
2011-05-16T23:22:33Z    Tokyo_1       24.5463     119.3167    119.3167    33.965      23.6269      0.1019    nd          20.358      nd          27.5       2.2293      nd            
2011-05-16T23:25:26Z    Tokyo_1       24.5564     119.3326    119.3326    33.9645     23.6125      0.0996    nd          20.358      nd          27.5       2.2287      nd            
2011-05-16T23:28:27Z    Tokyo_1       24.5662     119.3481    119.3481    33.9635     23.6191      0.097     nd          20.358      nd          27.5       2.229       nd            
2011-05-16T23:31:29Z    Tokyo_1       24.5758     119.3634    119.3634    33.9642     23.6432      0.0935    nd          20.3579     nd          27.5       2.23        nd            
2011-05-16T23:34:30Z    Tokyo_1       24.5857     119.379     119.379     33.9638     23.6711      0.0959    nd          20.3579     nd          27.5       2.2487      nd            
2011-05-16T23:37:32Z    Tokyo_1       24.5954     119.3944    119.3944    33.9632     23.7051      0.1113    nd          20.3578     nd          27.5       2.2502      nd            
2011-05-16T23:40:33Z    Tokyo_1       24.6052     119.41      119.41      33.9636     23.756       0.1081    nd          20.3577     nd          27.5       2.2524      nd            
2011-05-16T23:43:26Z    Tokyo_1       24.6153     119.426     119.426     33.9643     23.8091      0.1331    nd          20.3576     nd          27.5       2.2547      nd            
2011-05-16T23:46:27Z    Tokyo_1       24.6252     119.4415    119.4415    33.9654     23.8528      0.235     nd          20.3575     nd          27.5       nd          nd            
2011-05-16T23:49:29Z    Tokyo_1       24.6352     119.4565    119.4565    33.9705     23.8823      0.4387    nd          20.3574     nd          27.5       nd          nd            
2011-05-16T23:52:30Z    Tokyo_1       24.6467     119.4709    119.4709    33.9762     23.8638      0.6326    nd          20.3575     nd          27.5       nd          nd            
2011-05-16T23:55:32Z    Tokyo_1       24.6579     119.485     119.485     33.9841     23.8242      0.86      nd          20.3575     nd          27.5       nd          nd            
2011-05-16T23:58:33Z    Tokyo_1       24.6682     119.5001    119.5001    33.9951     23.775       0.8267    nd          20.3576     nd          27.5       nd          nd            
2011-05-17T00:01:26Z    Tokyo_1       24.6751     119.5177    119.5177    33.9955     23.7798      0.7462    nd          20.3576     nd          27.5       nd          nd            
2011-05-17T00:04:27Z    Tokyo_1       24.6803     119.5353    119.5353    33.9996     23.8399      0.5333    nd          20.3575     nd          27.5       nd          nd            
2011-05-17T00:07:29Z    Tokyo_1       24.6888     119.5508    119.5508    34.0072     23.8697      0.4855    nd          20.3574     nd          27.5       nd          nd            
2011-05-17T00:10:30Z    Tokyo_1       24.6995     119.5655    119.5655    34.0094     23.794       0.3756    nd          20.3576     nd          27.5       nd          nd            
2011-05-17T00:13:32Z    Tokyo_1       24.7103     119.5801    119.5801    34.0133     23.7546      0.2523    nd          20.3576     nd          27.5       nd          nd            
2011-05-17T00:16:33Z    Tokyo_1       24.7209     119.5947    119.5947    34.0186     23.737       0.1665    nd          20.3577     nd          27.5       nd          nd            
2011-05-17T00:19:26Z    Tokyo_1       24.7316     119.6095    119.6095    34.0232     23.7254      0.149     nd          20.3577     nd          27.5       nd          nd            
2011-05-17T00:22:27Z    Tokyo_1       24.742      119.6239    119.6239    34.0268     23.7098      0.1585    nd          20.3577     nd          27.5       nd          nd            
2011-05-17T00:25:29Z    Tokyo_1       24.7525     119.6386    119.6386    34.03       23.9296      0.1667    nd          20.3572     nd          27.5       0.5015      nd            
2011-05-17T00:28:30Z    Tokyo_1       24.7633     119.6535    119.6535    34.0324     23.6883      0.1731    nd          20.3578     nd          27.5       0.5012      nd            
2011-05-17T00:31:32Z    Tokyo_1       24.7739     119.6679    119.6679    34.0341     23.687       0.1644    nd          20.3578     nd          27.5       0.5012      nd            
2011-05-17T00:34:33Z    Tokyo_1       24.7844     119.6825    119.6825    34.0348     23.6878      0.1465    nd          20.3578     nd          27.5       0.5012      nd            
2011-05-17T00:37:26Z    Tokyo_1       24.7949     119.6968    119.6968    34.0355     23.7056      0.1369    nd          20.3577     nd          27.5       0.5012      nd            
2011-05-17T00:40:27Z    Tokyo_1       24.8053     119.7112    119.7112    34.0356     23.7287      0.1251    nd          20.3577     nd          27.5       0.5012      nd            
2011-05-17T00:43:29Z    Tokyo_1       24.8161     119.726     119.726     34.0362     23.7326      0.1294    nd          20.3577     nd          27.5       0.5013      nd            
2011-05-17T00:46:30Z    Tokyo_1       24.8267     119.7404    119.7404    34.0371     23.7127      0.129     nd          20.3577     nd          27.5       0.5012      nd            
2011-05-17T00:49:32Z    Tokyo_1       24.837      119.7547    119.7547    34.037      23.6944      0.1329    nd          20.3577     nd          27.5       0.5012      nd            
2011-05-17T00:52:33Z    Tokyo_1       24.8473     119.7692    119.7692    34.0363     23.6882      0.1291    nd          20.3578     nd          27.5       0.5012      nd            
2011-05-17T00:55:26Z    Tokyo_1       24.8572     119.7841    119.7841    34.0362     23.6997      0.1375    nd          20.3577     nd          27.5       0.5012      nd            
2011-05-17T00:58:27Z    Tokyo_1       24.8669     119.7991    119.7991    34.0361     23.735       0.1435    nd          20.3577     nd          27.5       0.5013      nd            
2011-05-17T01:01:29Z    Tokyo_1       24.8768     119.8143    119.8143    34.0368     23.7563      0.1307    nd          20.3576     nd          27.5       0.5012      nd            
2011-05-17T01:04:30Z    Tokyo_1       24.8864     119.829     119.829     34.0369     23.8232      0.1165    nd          20.3575     nd          27.5       0.5013      nd            
2011-05-17T01:07:32Z    Tokyo_1       24.8957     119.8434    119.8434    34.0376     23.9481      0.1091    nd          20.3572     nd          27.5       0.5014      nd            
2011-05-17T01:10:33Z    Tokyo_1       24.9053     119.8581    119.8581    34.0378     23.9254      0.1018    nd          20.3572     nd          27.5       0.5014      nd            
2011-05-17T01:13:26Z    Tokyo_1       24.9148     119.8728    119.8728    34.0377     23.7478      0.1015    nd          20.3576     nd          27.5       0.5012      nd            
2011-05-17T01:55:29Z    Tokyo_1       25.0502     120.0742    120.0742    34.0366     23.291       0.1342    nd          20.3586     nd          22.5       1.6074      nd            
2011-05-17T01:58:30Z    Tokyo_1       25.0619     120.087     120.087     34.037      23.2967      0.0998    nd          20.3586     nd          22.5       1.6076      nd            
2011-05-17T02:01:32Z    Tokyo_1       25.073      120.1001    120.1001    34.0369     23.2924      0.0958    nd          20.3586     nd          22.5       1.6075      nd            
2011-05-17T02:04:33Z    Tokyo_1       25.0833     120.1132    120.1132    34.0371     23.264       0.0879    nd          20.3587     nd          22.5       1.6066      nd            
2011-05-17T02:07:26Z    Tokyo_1       25.0939     120.1267    120.1267    34.0376     23.2568      0.0902    nd          20.3587     nd          22.5       2.4933      nd            
2011-05-17T02:10:27Z    Tokyo_1       25.1043     120.1406    120.1406    34.0371     23.2483      0.0958    nd          20.3587     nd          22.5       2.4927      nd            
2011-05-17T02:13:29Z    Tokyo_1       25.1139     120.1548    120.1548    34.0375     23.1701      0.0886    nd          20.3589     nd          22.5       2.4878      nd            
2011-05-17T02:16:30Z    Tokyo_1       25.1231     120.1694    120.1694    34.0376     23.0485      0.0946    nd          20.3592     nd          22.5       2.4802      nd            
2011-05-17T02:19:32Z    Tokyo_1       25.1318     120.1844    120.1844    34.0377     23.0273      0.1086    nd          20.3592     nd          22.5       2.4146      nd            
2011-05-17T02:22:33Z    Tokyo_1       25.1401     120.1995    120.1995    34.038      23.0095      0.136     nd          20.3592     nd          22.5       2.4135      nd            
2011-05-17T02:25:26Z    Tokyo_1       25.1483     120.2152    120.2152    34.0383     22.9362      0.2783    nd          20.3594     nd          22.5       2.4092      nd            
2011-05-17T02:28:27Z    Tokyo_1       25.1564     120.2305    120.2305    34.038      22.8136      0.2955    nd          20.3597     nd          22.5       2.4019      nd            
2011-05-17T02:31:29Z    Tokyo_1       25.1644     120.2459    120.2459    34.038      22.6779      0.3152    nd          20.36       nd          22.5       2.3939      nd            
2011-05-17T02:34:30Z    Tokyo_1       25.1725     120.2614    120.2614    34.0385     22.5714      0.1494    nd          20.3602     nd          22.5       2.3876      nd            
2011-05-17T02:37:32Z    Tokyo_1       25.1806     120.2767    120.2767    34.0386     22.3399      0.0961    nd          20.3608     nd          22.5       2.374       nd            
2011-05-17T02:40:33Z    Tokyo_1       25.1889     120.2923    120.2923    34.0386     22.3128      0.0701    nd          20.3608     nd          22.5       2.3724      nd            
2011-05-17T02:43:26Z    Tokyo_1       25.1971     120.3076    120.3076    34.0384     22.4808      0.067     nd          20.3605     nd          22.5       2.3823      nd            
2011-05-17T02:46:27Z    Tokyo_1       25.2057     120.3236    120.3236    34.0383     22.6862      0.0748    nd          20.36       nd          22.5       2.3944      nd            
2011-05-17T02:49:29Z    Tokyo_1       25.2141     120.3392    120.3392    34.0384     22.8155      0.0795    nd          20.3597     nd          22.5       2.402       nd            
2011-05-17T02:52:30Z    Tokyo_1       25.2225     120.3546    120.3546    34.0382     22.9638      0.076     nd          20.3594     nd          22.5       2.4108      nd            
2011-05-17T02:55:32Z    Tokyo_1       25.2311     120.3704    120.3704    34.0381     23.0476      0.0955    nd          20.3592     nd          22.5       2.4158      nd            
2011-05-17T02:58:33Z    Tokyo_1       25.2396     120.3858    120.3858    34.0384     23.1453      0.1114    nd          20.3589     nd          22.5       2.6057      nd            
2011-05-17T03:01:26Z    Tokyo_1       25.2479     120.4013    120.4013    34.0384     23.2131      0.0684    nd          20.3588     nd          22.5       2.6099      nd            
2011-05-17T03:04:27Z    Tokyo_1       25.2563     120.4181    120.4181    34.0386     23.2845      0.0552    nd          20.3586     nd          22.5       2.6142      nd            
2011-05-17T03:07:29Z    Tokyo_1       25.2642     120.4344    120.4344    34.0382     23.3089      0.0767    nd          20.3586     nd          22.5       2.6157      nd            
2011-05-17T03:10:30Z    Tokyo_1       25.2719     120.4504    120.4504    34.038      23.2862      0.1298    nd          20.3586     nd          22.5       2.6144      nd            
2011-05-17T03:13:32Z    Tokyo_1       25.2799     120.467     120.467     34.0377     23.2971      0.0902    nd          20.3586     nd          22.5       2.615       nd            
2011-05-17T03:16:33Z    Tokyo_1       25.2878     120.4832    120.4832    34.0376     23.2828      0.0681    nd          20.3586     nd          22.5       2.6141      nd            
2011-05-17T03:19:26Z    Tokyo_1       25.2957     120.4995    120.4995    34.0375     23.2778      0.0631    nd          20.3586     nd          22.5       2.6138      nd            
2011-05-17T03:22:27Z    Tokyo_1       25.3036     120.516     120.516     34.0374     23.2936      0.0539    nd          20.3586     nd          22.5       2.6148      nd            
2011-05-17T03:25:29Z    Tokyo_1       25.3114     120.5327    120.5327    34.0369     23.3022      0.058     nd          20.3586     nd          22.5       2.6153      nd            
2011-05-17T03:28:30Z    Tokyo_1       25.3193     120.5493    120.5493    34.0373     23.306       0.0792    nd          20.3586     nd          22.5       2.6156      nd            
2011-05-17T03:31:32Z    Tokyo_1       25.3272     120.5659    120.5659    34.0365     23.325       0.0997    nd          20.3585     nd          22.5       2.6167      nd            
2011-05-17T03:34:33Z    Tokyo_1       25.3352     120.5827    120.5827    34.0369     23.3349      0.0788    nd          20.3585     nd          22.5       2.6173      nd            
2011-05-17T03:37:26Z    Tokyo_1       25.3432     120.5997    120.5997    34.036      23.4226      0.0551    nd          20.3583     nd          22.5       2.6227      nd            
2011-05-17T03:40:27Z    Tokyo_1       25.3512     120.6164    120.6164    34.0361     23.5145      0.0624    nd          20.3581     nd          22.5       2.6284      nd            
2011-05-17T03:43:29Z    Tokyo_1       25.3592     120.633     120.633     34.0362     23.6457      0.0849    nd          20.3578     nd          22.5       2.6487      nd            
2011-05-17T03:46:30Z    Tokyo_1       25.3671     120.6496    120.6496    34.0358     23.7759      0.093     nd          20.3576     nd          22.5       2.6567      nd            
2011-05-17T03:49:32Z    Tokyo_1       25.3752     120.6665    120.6665    34.0351     23.9265      0.0906    nd          20.3572     nd          22.5       2.6854      nd            
2011-05-17T03:52:33Z    Tokyo_1       25.3833     120.6833    120.6833    34.0348     24.0258      0.058     nd          20.357      nd          22.5       2.6912      nd            
2011-05-17T03:55:26Z    Tokyo_1       25.3913     120.7001    120.7001    34.0342     24.0885      0.0602    nd          20.3569     nd          22.5       2.6948      nd            
2011-05-17T03:58:27Z    Tokyo_1       25.3994     120.7172    120.7172    34.0336     24.1116      0.0491    nd          20.3569     nd          22.5       2.6962      nd            
2011-05-17T04:01:29Z    Tokyo_1       25.4077     120.7346    120.7346    34.0334     24.0406      0.0481    nd          20.357      nd          22.5       2.692       nd            
2011-05-17T04:04:30Z    Tokyo_1       25.416      120.7519    120.7519    34.0329     24.0855      0.06      nd          20.3569     nd          22.5       2.6947      nd            
2011-05-17T04:07:32Z    Tokyo_1       25.4246     120.7686    120.7686    34.0321     24.1514      0.0804    nd          20.3568     nd          22.5       2.6985      nd            
2011-05-17T08:49:29Z    Tokyo_1       nd          nd          nd          nd          nd           nd        nd          nd          nd          nd         nd          nd            
2011-05-17T08:52:30Z    Tokyo_1       nd          nd          nd          nd          nd           nd        nd          nd          nd          nd         nd          nd            
2011-05-17T08:55:32Z    Tokyo_1       26.2495     122.3927    122.3927    87.9991     37.9438      -0.0679   nd          20.3146     nd          17.5       3.6493      nd            
2011-05-17T08:58:33Z    Tokyo_1       26.2563     122.4065    122.4065    34.0903     24.4315      -0.0677   nd          20.3561     nd          17.5       3.2354      nd            
2011-05-17T09:01:26Z    Tokyo_1       26.2646     122.4231    122.4231    34.089      24.4557      -0.0697   nd          20.3561     nd          17.5       3.2369      nd            
2011-05-17T09:04:27Z    Tokyo_1       26.2728     122.4398    122.4398    34.0896     24.4733      -0.0685   nd          20.356      nd          17.5       3.238       nd            
2011-05-17T09:07:29Z    Tokyo_1       26.2809     122.4563    122.4563    34.0889     24.4779      -0.0716   nd          20.356      nd          17.5       3.2383      nd            
2011-05-17T09:10:30Z    Tokyo_1       26.2892     122.4729    122.4729    34.0889     24.4564      -0.071    nd          20.3561     nd          17.5       3.2369      nd            
2011-05-17T09:13:32Z    Tokyo_1       26.2976     122.4899    122.4899    34.0894     24.4523      -0.0696   nd          20.3561     nd          17.5       3.2367      nd            
2011-05-17T09:16:33Z    Tokyo_1       26.306      122.5067    122.5067    34.0899     24.575       -0.069    20.4662     20.3558     0.5422      17.5       3.2443      3.7694        
2011-05-17T09:19:26Z    Tokyo_1       26.3144     122.5236    122.5236    34.0933     24.6013      -0.0699   20.4773     20.3558     0.597       17.5       3.246       4.1501        
2011-05-17T09:22:27Z    Tokyo_1       26.3226     122.5402    122.5402    34.0971     24.649       -0.0678   20.4642     20.3557     0.533       17.5       3.2489      3.7057        
2011-05-17T09:25:29Z    Tokyo_1       26.3307     122.5566    122.5566    34.1041     24.7198      -0.0676   20.4722     20.3555     0.5734      17.5       3.2533      3.9871        
2011-05-17T09:28:30Z    Tokyo_1       26.3394     122.5736    122.5736    34.1115     24.7805      -0.0687   20.4836     20.3554     0.63        17.5       3.2571      4.3804        
2011-05-17T09:31:32Z    Tokyo_1       26.3477     122.5905    122.5905    34.12       24.8074      -0.0691   20.4671     20.3553     0.5494      17.5       3.2587      3.8204        
2011-05-17T09:34:33Z    Tokyo_1       26.3561     122.6073    122.6073    34.1301     24.8093      -0.0678   20.463      20.3553     0.5293      17.5       3.2588      3.6799        
2011-05-17T09:37:26Z    Tokyo_1       26.3646     122.6243    122.6243    34.1391     24.7956      -0.0673   20.4637     20.3553     0.5327      17.5       3.2579      3.7036        
2011-05-17T09:40:27Z    Tokyo_1       26.3728     122.641     122.641     34.152      24.7928      -0.0671   20.4701     20.3553     0.5641      17.5       3.3005      3.9731        
2011-05-17T09:43:29Z    Tokyo_1       26.3812     122.6578    122.6578    34.1613     24.7967      -0.0657   20.4721     20.3553     0.574       17.5       3.1676      3.8793        
2011-05-17T09:46:30Z    Tokyo_1       26.3894     122.6745    122.6745    34.1724     24.848       -0.0679   20.4838     20.3552     0.6319      17.5       3.1706      4.2707        
2011-05-17T09:49:32Z    Tokyo_1       26.3978     122.6913    122.6913    34.1822     24.9036      -0.0691   20.4748     20.355      0.5885      17.5       3.1739      3.9774        
2011-05-17T09:52:33Z    Tokyo_1       26.4061     122.7082    122.7082    34.1927     24.8688      -0.0674   20.4811     20.3551     0.619       17.5       3.1718      4.1832        
2011-05-17T09:55:26Z    Tokyo_1       26.4144     122.7249    122.7249    34.2005     24.8166      -0.0697   20.4759     20.3552     0.5932      17.5       3.1686      4.0083        
2011-05-17T09:58:27Z    Tokyo_1       26.4225     122.7414    122.7414    34.2102     24.8106      -0.0697   20.465      20.3552     0.5397      17.5       3.1682      3.6462        
2011-05-17T10:01:29Z    Tokyo_1       26.431      122.7582    122.7582    34.2171     24.9103      -0.0692   20.4591     20.355      0.5113      17.5       3.1742      3.4549        
2011-05-17T10:04:30Z    Tokyo_1       26.4392     122.7748    122.7748    34.2231     25.022       -0.0692   20.466      20.3548     0.5463      17.5       3.1808      3.6923        
2011-05-17T10:07:32Z    Tokyo_1       26.4474     122.7914    122.7914    34.2307     25.0568      -0.0685   20.4678     20.3547     0.5557      17.5       3.1828      3.7559        
2011-05-17T10:10:33Z    Tokyo_1       26.4556     122.808     122.808     34.2374     25.0457      -0.0689   20.4685     20.3547     0.559       17.5       3.1821      3.7778        
2011-05-17T10:13:26Z    Tokyo_1       26.4637     122.8245    122.8245    34.2426     25.008       -0.0698   20.4632     20.3548     0.533       17.5       3.1799      3.6014        
2011-05-17T10:16:27Z    Tokyo_1       26.4718     122.8412    122.8412    34.2481     24.9334      -0.0694   20.4558     20.3549     0.4955      17.5       3.1754      3.3478        
2011-05-17T10:19:29Z    Tokyo_1       26.48       122.8583    122.8583    34.2536     24.8483      -0.0694   20.4631     20.3551     0.5306      17.5       3.1703      3.5843        
2011-05-17T10:22:30Z    Tokyo_1       26.488      122.8749    122.8749    34.2577     24.7596      -0.0692   20.4733     20.3552     0.5799      17.5       3.165       3.9162        
2011-05-17T10:25:32Z    Tokyo_1       26.496      122.8915    122.8915    34.2612     24.6318      -0.0672   20.4865     20.3555     0.6438      17.5       3.3179      4.5678        
2011-05-17T10:28:33Z    Tokyo_1       26.5042     122.9085    122.9085    34.2649     24.4572      -0.0676   20.4654     20.3558     0.5382      17.5       3.3064      3.8165        
2011-05-17T10:31:26Z    Tokyo_1       26.512      122.9258    122.9258    34.2683     24.2937      -0.0676   20.4591     20.3562     0.5056      17.5       3.2956      3.5838        
2011-05-17T10:34:27Z    Tokyo_1       26.5195     122.9429    122.9429    34.2713     24.1481      -0.0667   20.477      20.3565     0.5921      17.5       3.2859      4.1949        
2011-05-17T10:37:29Z    Tokyo_1       26.527      122.9603    122.9603    34.2658     24.1339      -0.0678   20.4643     20.3565     0.5295      17.5       3.285       3.7515        
2011-05-17T10:40:30Z    Tokyo_1       26.5333     122.9785    122.9785    34.2749     24.0901      -0.0688   20.4698     20.3566     0.5561      17.5       3.2821      3.9391        
2011-05-17T10:43:32Z    Tokyo_1       26.5392     122.9961    122.9961    34.2738     24.1114      -0.0689   20.4733     20.3565     0.5735      17.5       3.2835      4.0627        
2011-05-17T10:46:33Z    Tokyo_1       26.5455     123.0135    123.0135    34.2738     23.9403      -0.0689   20.4672     20.3569     0.542       12.5       3.138       3.6805        
2011-05-17T10:49:26Z    Tokyo_1       26.5529     123.031     123.031     34.2761     23.8376      -0.0688   20.4759     20.3571     0.5833      12.5       3.1317      3.9595        
2011-05-17T10:52:27Z    Tokyo_1       26.5616     123.047     123.047     34.271      23.7652      -0.0698   20.4533     20.3573     0.4717      12.5       3.1272      3.2021        
2011-05-17T10:55:29Z    Tokyo_1       26.5708     123.0629    123.0629    34.2695     23.5752      -0.0699   20.4627     20.3577     0.5158      12.5       3.1155      3.4997        
2011-05-17T10:58:30Z    Tokyo_1       26.5804     123.0792    123.0792    34.2697     23.6394      -0.07     20.4678     20.3576     0.5414      12.5       3.1195      3.6741        
2011-05-17T11:01:32Z    Tokyo_1       26.5901     123.0951    123.0951    34.2712     24.2742      -0.0705   20.4499     20.3562     0.4602      12.5       3.1586      3.1272        
2011-05-17T11:04:33Z    Tokyo_1       26.5995     123.1106    123.1106    34.2671     24.5847      -0.0695   20.4466     20.3556     0.447       12.5       3.1776      3.0396        
2011-05-17T11:07:26Z    Tokyo_1       26.6094     123.1264    123.1264    34.2671     24.6209      -0.0689   20.4473     20.3555     0.4511      12.5       3.3218      3.2052        
2011-05-17T11:49:29Z    Tokyo_1       26.7384     123.3487    123.3487    34.2363     24.121       -0.0717   20.4178     20.3566     0.3006      12.5       2.6998      1.7509        
2011-05-17T11:52:30Z    Tokyo_1       26.7455     123.3656    123.3656    34.2359     23.9292      -0.0714   20.438      20.357      0.398       12.5       2.6899      2.3177        
2011-05-17T11:55:32Z    Tokyo_1       26.7526     123.3826    123.3826    34.2353     23.8126      -0.0709   20.4065     20.3572     0.2421      12.5       2.6811      1.4078        
2011-05-17T11:58:33Z    Tokyo_1       26.7597     123.3998    123.3998    34.2308     23.9165      -0.071    20.405      20.357      0.2355      12.5       2.6868      1.3702        
2011-05-17T12:01:26Z    Tokyo_1       26.7665     123.4166    123.4166    34.2296     23.9234      -0.0714   20.4022     20.357      0.2222      12.5       2.6872      1.293         
2011-05-17T12:04:27Z    Tokyo_1       26.7734     123.4331    123.4331    34.2268     23.9305      -0.0702   20.4064     20.357      0.2427      12.5       2.6876      1.4124        
2011-05-17T12:07:29Z    Tokyo_1       26.7804     123.4503    123.4503    34.2269     23.9534      -0.0721   20.411      20.3569     0.2654      12.5       2.6888      1.5441        
2011-05-17T12:10:30Z    Tokyo_1       26.7875     123.4675    123.4675    34.2213     23.9688      -0.0705   20.4055     20.3569     0.2386      12.5       2.6897      1.3884        
2011-05-17T12:13:32Z    Tokyo_1       26.7945     123.4845    123.4845    34.2207     23.9471      -0.0713   20.4134     20.357      0.2773      12.5       2.6885      1.6137        
2011-05-17T12:16:33Z    Tokyo_1       26.8018     123.5014    123.5014    34.2169     23.8864      -0.0718   20.4205     20.3571     0.3113      12.5       2.6852      1.8114        
2011-05-17T12:19:26Z    Tokyo_1       26.8095     123.5184    123.5184    34.214      23.8179      -0.0724   20.4078     20.3572     0.2486      12.5       2.6814      1.4458        
2011-05-17T12:22:27Z    Tokyo_1       26.8176     123.5352    123.5352    34.2109     23.6618      -0.0724   20.4243     20.3576     0.3276      12.5       2.6729      1.9044        
2011-05-17T12:25:29Z    Tokyo_1       26.8255     123.5517    123.5517    34.2079     23.5891      -0.0723   20.4203     20.3577     0.3075      12.5       2.6689      1.7872        
2011-05-17T12:28:30Z    Tokyo_1       26.8335     123.5685    123.5685    34.2064     23.5436      -0.0729   20.4132     20.3578     0.2719      12.5       2.6664      1.5803        
2011-05-17T12:31:32Z    Tokyo_1       26.8414     123.5852    123.5852    34.2045     23.553       -0.0735   20.4277     20.3578     0.3432      12.5       2.6669      1.995         
2011-05-17T12:34:33Z    Tokyo_1       26.8493     123.6018    123.6018    34.2015     23.5835      -0.0739   20.4214     20.3578     0.3127      12.5       2.6686      1.8179        
2011-05-17T12:37:26Z    Tokyo_1       26.8572     123.6186    123.6186    34.1998     23.7601      -0.0721   20.4099     20.3574     0.2581      12.5       2.6783      1.5012        
2011-05-17T12:40:27Z    Tokyo_1       26.865      123.6353    123.6353    34.1968     23.8676      -0.0731   20.4162     20.3572     0.2902      12.5       2.7247      1.7142        
2011-05-17T12:43:29Z    Tokyo_1       26.8728     123.6519    123.6519    34.1951     23.8096      -0.0724   20.4275     20.3573     0.3451      12.5       2.7213      2.0376        
2011-05-17T12:46:30Z    Tokyo_1       26.8807     123.6688    123.6688    34.1939     23.7751      -0.0728   20.4187     20.3574     0.3014      12.5       2.3627      1.5459        
2011-05-17T12:49:32Z    Tokyo_1       26.8885     123.6856    123.6856    34.1922     23.6854      -0.0714   20.398      20.3576     0.1985      12.5       2.3583      1.0179        
2011-05-17T12:52:33Z    Tokyo_1       26.8965     123.702     123.702     34.1905     23.4343      -0.0735   20.4075     20.3581     0.2428      12.5       2.3462      1.244         
2011-05-17T12:55:26Z    Tokyo_1       26.905      123.7187    123.7187    34.1872     23.4907      -0.0734   20.4111     20.358      0.261       12.5       2.3489      1.3378        
2011-05-17T12:58:27Z    Tokyo_1       26.9133     123.7352    123.7352    34.1851     23.4957      -0.0733   20.3961     20.358      0.1874      12.5       2.3492      0.9603        
2011-05-17T13:01:29Z    Tokyo_1       26.9214     123.7513    123.7513    34.183      23.5103      -0.0736   20.406      20.3579     0.2361      12.5       2.3499      1.2103        
2011-05-17T13:04:30Z    Tokyo_1       26.9295     123.7677    123.7677    34.1809     23.5442      -0.0739   20.4073     20.3579     0.2429      12.5       2.3516      1.2451        
2011-05-17T13:07:32Z    Tokyo_1       26.9377     123.7843    123.7843    34.1794     23.6279      -0.0737   20.4161     20.3577     0.2871      12.5       2.3556      1.4721        
2011-05-17T13:10:33Z    Tokyo_1       26.946      123.8011    123.8011    34.1774     23.7281      -0.0748   20.4052     20.3575     0.2342      12.5       2.3604      1.2011        
2011-05-17T13:13:26Z    Tokyo_1       26.9544     123.8184    123.8184    34.177      23.799       -0.0726   20.4056     20.3573     0.237       12.5       2.3639      1.216         
2011-05-17T13:16:27Z    Tokyo_1       26.9625     123.8351    123.8351    34.1759     23.8128      -0.0735   20.4094     20.3573     0.2561      12.5       2.3645      1.3142        
2011-05-17T13:19:29Z    Tokyo_1       26.9707     123.8511    123.8511    34.173      23.8131      -0.0748   20.4073     20.3573     0.2456      12.5       2.3646      1.2604        
2011-05-17T13:22:30Z    Tokyo_1       26.9794     123.8678    123.8678    34.1721     23.9295      -0.0732   20.3967     20.3571     0.1946      12.5       2.3702      0.9988        
2011-05-17T13:25:32Z    Tokyo_1       26.988      123.8844    123.8844    34.1685     23.9562      -0.0752   20.4008     20.357      0.2152      12.5       2.3756      1.1064        
2011-05-17T13:28:33Z    Tokyo_1       27.018      123.9012    123.9012    34.1708     23.9405      -0.074    20.4142     20.357      0.2808      12.5       2.3748      1.4438        
2011-05-17T13:31:26Z    Tokyo_1       27.0044     123.9183    123.9183    34.1685     23.9023      -0.0745   20.4267     20.3571     0.3417      12.5       2.3729      1.757         
2011-05-17T13:34:27Z    Tokyo_1       27.0124     123.9348    123.9348    34.1667     23.7742      -0.0739   20.4151     20.3574     0.2832      12.5       2.3666      1.4553        
2011-05-17T13:37:29Z    Tokyo_1       27.0205     123.9515    123.9515    34.1658     23.4495      -0.0728   20.4192     20.3581     0.3001      12.5       2.3505      1.5405        
2011-05-17T13:40:30Z    Tokyo_1       27.0288     123.9687    123.9687    34.1635     23.2699      -0.0751   20.4116     20.3585     0.2608      12.5       2.3416      1.3379        
2011-05-17T13:43:32Z    Tokyo_1       27.037      123.9854    123.9854    34.1642     23.2059      -0.0735   20.4133     20.3586     0.2685      12.5       2.3385      1.3769        
2011-05-17T13:46:33Z    Tokyo_1       27.0454     124.0017    124.0017    34.162      23.1649      -0.0733   20.3956     20.3587     0.1812      12.5       2.3364      0.9292        
2011-05-17T13:49:26Z    Tokyo_1       27.054      124.0183    124.0183    34.1599     23.0974      -0.0738   20.395      20.3589     0.1774      12.5       2.3331      0.9095        
2011-05-17T13:52:27Z    Tokyo_1       27.0627     124.035     124.035     34.1592     22.9852      -0.075    20.379      20.3591     0.0973      12.5       2.3276      0.4987        
2011-05-17T13:55:29Z    Tokyo_1       27.0713     124.0516    124.0516    34.1588     22.9094      -0.0747   20.4066     20.3593     0.2322      12.5       2.3238      1.1897        
2011-05-17T13:58:30Z    Tokyo_1       27.0802     124.0684    124.0684    34.1575     22.8475      -0.0728   20.3933     20.3595     0.1663      12.5       2.3208      0.8519        
2011-05-17T14:01:32Z    Tokyo_1       27.089      124.085     124.085     34.1578     22.8649      -0.0741   20.3931     20.3594     0.1653      12.5       2.3216      0.8469        
2011-05-17T14:04:33Z    Tokyo_1       27.0979     124.1015    124.1015    34.1547     23.0497      -0.0733   20.4147     20.359      0.2737      12.5       2.3308      1.4029        
2011-05-17T14:07:26Z    Tokyo_1       27.1068     124.1184    124.1184    34.1553     23.2141      -0.0761   20.4045     20.3586     0.2254      12.5       2.3389      1.1559        
2011-05-17T17:49:29Z    Tokyo_1       27.7343     125.3828    125.3828    34.2908     19.9313      -0.0778   20.7612     20.3665     1.938       12.5       1.7733      7.9865        
2011-05-17T17:52:30Z    Tokyo_1       27.7427     125.3992    125.3992    34.298      20.1146      -0.0775   20.7967     20.366      2.1147      12.5       1.7793      8.7141        
2011-05-17T17:55:32Z    Tokyo_1       27.751      125.4155    125.4155    34.3057     20.1478      -0.076    20.83       20.3659     2.279       12.5       1.7803      9.3907        
2011-05-17T17:58:33Z    Tokyo_1       27.7595     125.4323    125.4323    34.3123     20.082       -0.0782   20.8334     20.3661     2.2948      12.5       1.7782      9.4552        
2011-05-17T18:01:26Z    Tokyo_1       27.7681     125.449     125.449     34.3181     20.0245      -0.0779   20.8402     20.3662     2.3274      12.5       1.7763      9.589         
2011-05-17T18:04:27Z    Tokyo_1       27.7767     125.4658    125.4658    34.3242     20.0034      -0.0784   20.8612     20.3662     2.4301      12.5       1.7756      10.0117       
2011-05-17T18:07:29Z    Tokyo_1       27.7853     125.4825    125.4825    34.3275     20.1092      -0.0782   20.8741     20.366      2.4952      12.5       1.779       10.2798       
2011-05-17T18:10:30Z    Tokyo_1       27.794      125.4992    125.4992    34.3333     20.1213      -0.0779   20.8721     20.3659     2.4856      12.5       1.7794      10.2399       
2011-05-17T18:13:32Z    Tokyo_1       27.8026     125.5159    125.5159    34.3403     20.1197      -0.0786   20.8662     20.3659     2.4566      12.5       1.7794      10.1202       
2011-05-17T18:16:33Z    Tokyo_1       27.8114     125.5323    125.5323    34.3399     20.0052      -0.0784   20.8581     20.3662     2.4152      12.5       1.7756      9.9492        
2011-05-17T18:19:26Z    Tokyo_1       27.8201     125.549     125.549     34.3407     19.9592      -0.0786   20.9037     20.3663     2.6383      12.5       1.7741      10.8682       
2011-05-17T18:22:27Z    Tokyo_1       27.8285     125.566     125.566     34.3461     20.0929      -0.0794   20.9016     20.366      2.6298      12.5       1.7785      10.8332       
2011-05-17T18:25:29Z    Tokyo_1       27.837      125.5828    125.5828    34.344      20.3856      -0.0783   20.9147     20.3652     2.6982      12.5       1.788       11.1149       
2011-05-17T18:28:30Z    Tokyo_1       27.8452     125.5994    125.5994    34.346      20.3502      -0.0782   20.9035     20.3653     2.6426      12.5       1.7869      10.8859       
2011-05-17T18:31:32Z    Tokyo_1       27.8533     125.6163    125.6163    34.3479     20.4413      -0.0787   20.9051     20.3651     2.6519      12.5       1.7898      10.9239       
2011-05-17T18:34:33Z    Tokyo_1       27.8613     125.6334    125.6334    34.3478     20.8664      -0.0784   20.8872     20.364      2.5695      12.5       1.9329      11.3431       
2011-05-17T18:37:26Z    Tokyo_1       27.8694     125.6506    125.6506    34.3456     20.8972      -0.0789   20.8618     20.3639     2.4449      12.5       1.9341      10.7934       
2011-05-17T18:40:27Z    Tokyo_1       27.8775     125.6681    125.6681    34.3451     20.802       -0.08     20.8452     20.3641     2.3625      12.5       2.0437      11.0401       
2011-05-17T18:43:29Z    Tokyo_1       27.8856     125.6855    125.6855    34.3454     20.8609      -0.0785   20.8318     20.364      2.2972      12.5       2.0462      10.7362       
2011-05-17T18:46:30Z    Tokyo_1       27.8938     125.7031    125.7031    34.3434     20.959       -0.0778   20.7895     20.3637     2.0909      12.5       2.0502      9.7744        
2011-05-17T18:49:32Z    Tokyo_1       27.9018     125.7204    125.7204    34.3437     21.0098      -0.0778   20.7867     20.3636     2.0776      12.5       2.0524      9.7132        
2011-05-17T18:52:33Z    Tokyo_1       27.9099     125.7376    125.7376    34.341      21.0921      -0.0786   20.7469     20.3634     1.8833      12.5       2.0558      8.8064        
2011-05-17T18:55:26Z    Tokyo_1       27.9178     125.7547    125.7547    34.3426     21.134       -0.0784   20.752      20.3633     1.9086      12.5       2.0575      8.9257        
2011-05-17T18:58:27Z    Tokyo_1       27.9261     125.7724    125.7724    34.3405     21.162       -0.0784   20.7354     20.3632     1.8276      12.5       2.0587      8.5476        
2011-05-17T19:01:29Z    Tokyo_1       27.9341     125.7896    125.7896    34.3376     21.2012      -0.0791   20.7039     20.3631     1.6732      12.5       2.0603      7.8264        
2011-05-17T19:04:30Z    Tokyo_1       27.942      125.8064    125.8064    34.3369     21.2267      -0.0796   20.6957     20.3631     1.6335      12.5       2.0614      7.6412        
2011-05-17T19:07:32Z    Tokyo_1       27.9501     125.8238    125.8238    34.3366     21.2798      -0.0793   20.6632     20.3629     1.4743      12.5       2.0636      6.8973        
2011-05-17T19:10:33Z    Tokyo_1       27.9584     125.8409    125.8409    34.337      21.275       -0.0799   20.6557     20.363      1.4378      12.5       2.0634      6.7261        
2011-05-17T19:13:26Z    Tokyo_1       27.9668     125.8579    125.8579    34.3331     21.3092      -0.0776   20.6219     20.3629     1.2719      12.5       2.0648      5.9507        
2011-05-17T19:16:27Z    Tokyo_1       27.9752     125.8748    125.8748    34.333      21.3634      -0.0801   20.6267     20.3627     1.2962      12.5       2.0671      6.0651        
2011-05-17T19:19:29Z    Tokyo_1       27.9837     125.8917    125.8917    34.3312     21.4496      -0.0794   20.6012     20.3625     1.172       12.5       2.2651      6.0002        
2011-05-17T19:22:30Z    Tokyo_1       27.9923     125.9086    125.9086    34.3312     21.5752      -0.0781   20.5855     20.3622     1.0966      12.5       2.2711      5.6164        
2011-05-17T19:25:32Z    Tokyo_1       28.4294     125.9255    125.9255    34.3267     21.7347      -0.08     20.5819     20.3618     1.0806      12.5       2.058       5.0007        
2011-05-17T19:28:33Z    Tokyo_1       28.0099     125.942     125.942     34.3269     21.8819      -0.0792   20.5785     20.3615     1.0656      12.5       2.2857      5.4629        
2011-05-17T19:31:26Z    Tokyo_1       28.0185     125.9585    125.9585    34.3252     22.04        -0.0786   20.5786     20.3611     1.068       12.5       2.2932      5.4776        
2011-05-17T19:34:27Z    Tokyo_1       28.0271     125.9756    125.9756    34.3253     22.1446      -0.0793   20.5853     20.3609     1.1021      12.5       2.2982      5.6542        
2011-05-17T19:37:29Z    Tokyo_1       28.0356     125.9926    125.9926    34.3229     22.2524      -0.0804   20.6022     20.3606     1.1866      12.5       2.3034      6.0899        
2011-05-17T19:40:30Z    Tokyo_1       28.044      126.0095    126.0095    34.3229     22.3889      -0.0789   20.5916     20.3603     1.1363      12.5       2.3099      5.8342        
2011-05-17T19:43:32Z    Tokyo_1       28.0524     126.0263    126.0263    34.3198     22.5332      -0.0796   20.5927     20.36       1.1431      12.5       2.3168      5.8719        
2011-05-17T19:46:33Z    Tokyo_1       28.0611     126.0438    126.0438    34.3175     22.6558      -0.081    20.6032     20.3597     1.1962      12.5       2.3226      6.1471        
2011-05-17T19:49:26Z    Tokyo_1       28.0696     126.0609    126.0609    34.3184     22.7084      -0.0808   20.4565     20.3596     0.4763      12.5       2.3252      2.4481        
2011-05-17T19:52:27Z    Tokyo_1       28.078      126.0777    126.0777    34.3149     22.73        -0.0798   20.4511     20.3595     0.4497      12.5       2.3262      2.3114        
2011-05-17T19:55:29Z    Tokyo_1       28.0864     126.0949    126.0949    34.3124     22.7879      -0.08     20.4618     20.3594     0.5029      12.5       2.329       2.5852        
2011-05-17T19:58:30Z    Tokyo_1       28.0949     126.1121    126.1121    34.309      22.8162      -0.0794   20.4391     20.3593     0.3917      12.5       2.3303      2.0139        
2011-05-17T20:01:32Z    Tokyo_1       28.1034     126.1292    126.1292    34.3068     22.8561      -0.08     20.4586     20.3592     0.488       12.5       2.5899      2.7867        
2011-05-17T20:04:33Z    Tokyo_1       28.1118     126.1465    126.1465    34.3074     22.9062      -0.0805   20.4437     20.3591     0.4155      12.5       2.5927      2.373         
2011-05-17T20:07:26Z    Tokyo_1       28.1204     126.1638    126.1638    34.3028     22.9542      -0.0797   20.4423     20.359      0.4091      12.5       2.5954      2.3369        
2011-05-17T20:49:29Z    Tokyo_1       28.2384     126.4014    126.4014    34.2687     23.6706      -0.0802   20.4079     20.3575     0.2478      12.5       2.8192      1.5186        
2011-05-17T20:52:30Z    Tokyo_1       28.247      126.4186    126.4186    34.2661     23.6949      -0.0806   20.4247     20.3574     0.3304      12.5       2.8208      2.0255        
2011-05-17T20:55:32Z    Tokyo_1       28.2556     126.4359    126.4359    34.2637     23.7368      -0.0789   20.4023     20.3574     0.2208      12.5       2.8234      1.3539        
2011-05-17T20:58:33Z    Tokyo_1       28.264      126.4529    126.4529    34.2615     23.784       -0.0797   20.4084     20.3573     0.2515      12.5       2.8264      1.5422        
2011-05-17T21:01:26Z    Tokyo_1       28.2725     126.4701    126.4701    34.2586     23.8414      -0.0802   20.4109     20.3571     0.2642      12.5       2.83        1.6211        
2011-05-17T21:04:27Z    Tokyo_1       28.281      126.4871    126.4871    34.2574     23.901       -0.0786   20.3927     20.357      0.1751      12.5       2.8338      1.0746        
2011-05-17T21:07:29Z    Tokyo_1       28.2894     126.5041    126.5041    34.2537     23.93        -0.0786   20.3855     20.357      0.14        12.5       2.8356      0.8593        
2011-05-17T21:10:30Z    Tokyo_1       28.298      126.5212    126.5212    34.2527     23.9295      -0.0795   20.3788     20.357      0.1074      12.5       2.8356      0.6594        
2011-05-17T21:13:32Z    Tokyo_1       28.3067     126.5382    126.5382    34.2494     23.9192      -0.0793   20.384      20.357      0.1328      12.5       2.8349      0.8152        
2011-05-17T21:16:33Z    Tokyo_1       28.3153     126.5549    126.5549    34.2478     23.9573      -0.0793   20.3994     20.3569     0.2087      12.5       2.8373      1.2813        
2011-05-17T21:19:26Z    Tokyo_1       28.3239     126.5712    126.5712    34.246      24.0141      -0.08     20.3756     20.3568     0.0923      12.5       2.8409      0.5669        
2011-05-17T21:22:27Z    Tokyo_1       28.3332     126.5884    126.5884    34.2437     24.0057      -0.0808   20.3844     20.3568     0.1358      12.5       2.8404      0.8338        
2011-05-17T21:25:29Z    Tokyo_1       28.3422     126.6051    126.6051    34.2428     24.0559      -0.0788   20.3742     20.3567     0.0862      12.5       2.8436      0.5293        
2011-05-17T21:28:30Z    Tokyo_1       28.3513     126.6217    126.6217    34.2411     24.0938      -0.0786   20.3793     20.3566     0.1112      12.5       2.8459      0.6831        
2011-05-17T21:31:32Z    Tokyo_1       28.3605     126.6384    126.6384    34.2356     24.2575      -0.0791   20.3861     20.3563     0.1466      12.5       3.196       1.0082        
2011-05-17T21:34:33Z    Tokyo_1       28.3692     126.6558    126.6558    34.2357     24.427       -0.0795   20.3711     20.3559     0.0744      12.5       3.2083      0.5123        
2011-05-17T21:37:26Z    Tokyo_1       28.3776     126.673     126.673     34.2346     24.4792      -0.0796   20.3578     20.3558     0.0094      12.5       2.9234      0.059         
2011-05-17T21:40:27Z    Tokyo_1       28.3862     126.69      126.69      34.2312     24.5312      -0.0799   20.3723     20.3557     0.0814      12.5       2.9269      0.5106        
2011-05-17T21:43:29Z    Tokyo_1       28.395      126.708     126.708     34.2303     24.6661      -0.08     20.3655     20.3555     0.0494      12.5       2.936       0.3099        
2011-05-17T21:46:30Z    Tokyo_1       28.4038     126.7254    126.7254    34.2278     24.6965      -0.0793   20.3159     20.3554     -0.1942     12.5       2.938       -1.2191       
2011-05-17T21:49:32Z    Tokyo_1       28.412      126.742     126.742     34.2265     24.6895      -0.0791   20.3252     20.3554     -0.1482     12.5       2.9375      -0.9306       
2011-05-17T21:52:33Z    Tokyo_1       28.4208     126.7594    126.7594    34.2234     24.6708      -0.0792   20.3379     20.3555     -0.0861     12.5       2.9363      -0.5402       
2011-05-17T21:55:26Z    Tokyo_1       28.4296     126.7768    126.7768    34.2212     24.6929      -0.0808   20.3312     20.3554     -0.119      12.5       2.9378      -0.7469       
2011-05-17T21:58:27Z    Tokyo_1       28.4381     126.7945    126.7945    34.2193     24.7778      -0.0802   20.313      20.3552     -0.2074     12.5       2.9435      -1.3027       
2011-05-17T22:01:29Z    Tokyo_1       28.4466     126.8123    126.8123    34.2174     24.8665      -0.0806   20.307      20.3551     -0.236      12.5       2.9494      -1.4829       
2011-05-17T22:04:30Z    Tokyo_1       28.4551     126.8301    126.8301    34.2148     24.9315      -0.0798   20.2953     20.3549     -0.2928     12.5       2.9538      -1.8407       
2011-05-17T22:07:32Z    Tokyo_1       28.4637     126.8482    126.8482    34.2139     24.9658      -0.0804   20.3035     20.3549     -0.2526     12.5       2.9561      -1.588        
2011-05-17T22:10:33Z    Tokyo_1       28.4721     126.866     126.866     34.2106     24.9813      -0.0819   20.2729     20.3548     -0.4024     12.5       2.9571      -2.5301       
2011-05-17T22:13:26Z    Tokyo_1       28.4807     126.884     126.884     34.2086     24.9969      -0.0797   20.2695     20.3548     -0.4194     12.5       3.2314      -2.8808       
2011-05-17T22:16:27Z    Tokyo_1       28.4894     126.902     126.902     34.2044     25.0067      -0.0781   20.2655     20.3548     -0.439      12.5       3.2321      -3.0158       
2011-05-17T22:19:29Z    Tokyo_1       28.4981     126.9201    126.9201    34.205      24.9975      -0.0801   20.275      20.3548     -0.3921     12.5       3.2314      -2.6938       
2011-05-17T22:22:30Z    Tokyo_1       28.5067     126.9381    126.9381    34.2014     24.9965      -0.0815   20.2762     20.3548     -0.3861     12.5       3.2314      -2.6522       
2011-05-17T22:25:32Z    Tokyo_1       28.5155     126.9566    126.9566    34.1993     24.9958      -0.0802   20.2589     20.3548     -0.4715     12.5       3.2313      -3.2393       
2011-05-17T22:28:33Z    Tokyo_1       28.5243     126.9747    126.9747    34.198      25.0262      -0.0798   20.2333     20.3548     -0.5969     12.5       3.2336      -4.1014       
2011-05-17T22:31:26Z    Tokyo_1       28.5338     126.9921    126.9921    34.1945     25.0316      -0.0798   20.2484     20.3548     -0.5228     12.5       3.234       -3.5922       
2011-05-17T22:34:27Z    Tokyo_1       28.5439     127.0097    127.0097    34.1902     25.0225      -0.0794   20.2302     20.3548     -0.6121     17.5       3.2244      -4.1945       
2011-05-17T22:37:29Z    Tokyo_1       28.5542     127.0271    127.0271    34.1878     25.0041      -0.0807   20.2588     20.3548     -0.472      17.5       3.2232      -3.2341       
2011-05-17T22:40:30Z    Tokyo_1       28.5649     127.0449    127.0449    34.1846     24.9776      -0.0812   20.2561     20.3549     -0.4853     17.5       3.2213      -3.3247       
2011-05-17T22:43:32Z    Tokyo_1       28.5754     127.0623    127.0623    34.1836     24.9683      -0.0808   20.2155     20.3549     -0.6849     17.5       3.2206      -4.6919       
2011-05-17T22:46:33Z    Tokyo_1       28.5859     127.0794    127.0794    34.1805     24.9732      -0.0808   20.2162     20.3549     -0.6814     17.5       3.221       -4.6685       
2011-05-17T22:49:26Z    Tokyo_1       28.5966     127.0969    127.0969    34.1784     24.9517      -0.0799   20.2455     20.3549     -0.5376     17.5       3.2195      -3.6827       
2011-05-17T22:52:27Z    Tokyo_1       28.6074     127.1145    127.1145    34.1741     24.9628      -0.0802   20.2739     20.3549     -0.3981     17.5       3.2203      -2.7272       
2011-05-17T22:55:29Z    Tokyo_1       28.6182     127.1321    127.1321    34.1716     25.0135      -0.0807   20.2491     20.3548     -0.5193     17.5       3.435       -3.7921       
2011-05-17T22:58:30Z    Tokyo_1       28.6294     127.1493    127.1493    34.1699     25.0296      -0.0795   20.2769     20.3548     -0.3827     17.5       3.0439      -2.4753       
2011-05-17T23:01:32Z    Tokyo_1       28.641      127.1665    127.1665    34.1691     24.9876      -0.0808   20.2679     20.3549     -0.4274     17.5       3.0412      -2.7641       
2011-05-17T23:04:33Z    Tokyo_1       28.653      127.184     127.184     34.1684     24.9291      -0.0802   20.2711     20.355      -0.4123     17.5       3.0374      -2.6657       
2011-05-17T23:07:26Z    Tokyo_1       28.6646     127.2008    127.2008    34.1689     24.9385      -0.0807   20.2597     20.355      -0.4682     17.5       3.038       -3.0272       
2011-05-17T23:49:29Z    Tokyo_1       28.8283     127.4424    127.4424    34.1861     25.2854      -0.0797   20.4269     20.3543     0.3568      17.5       3.2596      2.4609        
2011-05-17T23:52:30Z    Tokyo_1       28.8394     127.4595    127.4595    34.1863     25.3052      -0.0797   20.4242     20.3542     0.3435      17.5       3.261       2.3694        
2011-05-17T23:55:32Z    Tokyo_1       28.8505     127.4768    127.4768    34.1873     25.3415      -0.0804   20.4278     20.3542     0.3616      17.5       3.2635      2.4945        
2011-05-17T23:58:33Z    Tokyo_1       28.8617     127.4942    127.4942    34.1315     25.3752      -0.0766   20.4099     20.3542     0.2738      17.5       3.2661      1.8894        
2011-05-18T00:01:26Z    Tokyo_1       28.8729     127.5117    127.5117    34.1054     25.3858      -0.0468   20.4099     20.3542     0.2735      17.5       3.6436      2.1059        
2011-05-18T00:04:27Z    Tokyo_1       28.884      127.5293    127.5293    34.4957     25.3223      -0.0524   20.4168     20.3538     0.3093      17.5       3.1722      2.0706        
2011-05-18T00:07:29Z    Tokyo_1       28.8952     127.5466    127.5466    34.5039     25.2577      -0.058    20.4112     20.3539     0.2814      17.5       3.1675      1.8833        
2011-05-18T00:10:30Z    Tokyo_1       28.9063     127.5641    127.5641    34.5258     25.3051      -0.0625   20.4044     20.3538     0.2484      17.5       3.1708      1.6627        
2011-05-18T00:13:32Z    Tokyo_1       28.9178     127.582     127.582     34.5019     25.3487      -0.0625   20.4006     20.3538     0.2301      17.5       3.174       1.5409        
2011-05-18T00:16:33Z    Tokyo_1       28.9286     127.5991    127.5991    34.4849     25.3773      -0.0631   20.4188     20.3537     0.3199      17.5       3.1762      2.1424        
2011-05-18T00:19:26Z    Tokyo_1       28.9396     127.6165    127.6165    34.4379     25.3055      -0.0628   20.4142     20.3539     0.296       17.5       3.1713      1.9828        
2011-05-18T00:22:27Z    Tokyo_1       28.9507     127.6339    127.6339    34.3968     25.2498      -0.0614   20.3903     20.3541     0.178       17.5       3.4538      1.2999        
2011-05-18T00:25:29Z    Tokyo_1       28.9615     127.6508    127.6508    34.406      25.2817      -0.0627   20.4098     20.354      0.2742      17.5       3.4562      2.0028        
2011-05-18T00:28:30Z    Tokyo_1       28.9727     127.668     127.668     34.3665     25.3203      -0.0613   20.4054     20.354      0.2527      17.5       3.4595      1.8467        
2011-05-18T00:31:32Z    Tokyo_1       28.9842     127.685     127.685     34.4031     25.3038      -0.0613   20.4069     20.354      0.2598      17.5       3.458       1.8977        
2011-05-18T00:34:33Z    Tokyo_1       29.0683     127.7021    127.7021    34.3913     25.2666      -0.0593   20.4013     20.3541     0.2323      12.5       3.5353      1.7358        
2011-05-18T00:37:26Z    Tokyo_1       29.007      127.7194    127.7194    34.3494     25.2446      -0.0604   20.4201     20.3542     0.3238      12.5       3.5337      2.4206        
2011-05-18T00:40:27Z    Tokyo_1       29.0184     127.7365    127.7365    34.3588     25.2415      -0.0597   20.4193     20.3542     0.32        12.5       3.5334      2.3916        
2011-05-18T00:43:29Z    Tokyo_1       29.0303     127.7535    127.7535    34.3527     25.2473      -0.0594   20.404      20.3542     0.2447      12.5       3.5339      1.8289        
2011-05-18T00:46:30Z    Tokyo_1       29.042      127.7704    127.7704    34.3304     25.2531      -0.0596   20.3988     20.3542     0.2191      12.5       3.5346      1.638         
2011-05-18T00:49:32Z    Tokyo_1       29.0535     127.7873    127.7873    34.3498     25.2546      -0.0596   20.3991     20.3541     0.2207      12.5       3.5346      1.6497        
2011-05-18T00:52:33Z    Tokyo_1       29.0655     127.8048    127.8048    34.3469     25.2619      -0.0604   20.4047     20.3541     0.2485      12.5       3.5352      1.8578        
2011-05-18T00:55:26Z    Tokyo_1       29.0772     127.822     127.822     34.3068     25.2777      -0.0606   20.4088     20.3541     0.2687      12.5       3.5368      2.0095        
2011-05-18T00:58:27Z    Tokyo_1       29.0892     127.8397    127.8397    34.2901     25.3127      -0.0596   20.4064     20.3541     0.2568      12.5       3.54        1.9213        
2011-05-18T01:01:29Z    Tokyo_1       29.1009     127.8572    127.8572    34.4004     25.3566      -0.0583   20.4062     20.3539     0.2572      12.5       3.543       1.923         
2011-05-18T01:04:30Z    Tokyo_1       29.1123     127.8741    127.8741    34.3913     25.3856      -0.0586   20.4147     20.3538     0.2989      12.5       3.5456      2.2357        
2011-05-18T01:07:32Z    Tokyo_1       29.1239     127.8915    127.8915    34.3694     25.4018      -0.06     20.4078     20.3538     0.2652      12.5       3.7826      2.116         
2011-05-18T01:10:33Z    Tokyo_1       29.1356     127.909     127.909     34.3911     25.4376      -0.0616   20.3901     20.3537     0.1789      12.5       3.4157      1.2879        
2011-05-18T01:13:26Z    Tokyo_1       29.1471     127.9265    127.9265    34.4198     25.4614      -0.0596   20.4189     20.3537     0.3205      12.5       3.4174      2.3075        
2011-05-18T01:16:27Z    Tokyo_1       29.1589     127.9443    127.9443    34.4271     25.4706      -0.0591   20.3943     20.3536     0.2         12.5       3.418       1.4399        
2011-05-18T01:19:29Z    Tokyo_1       29.1707     127.9623    127.9623    34.4315     25.4718      -0.0596   20.3908     20.3536     0.1825      12.5       3.4181      1.3135        
2011-05-18T01:22:30Z    Tokyo_1       29.1823     127.9802    127.9802    34.4377     25.4609      -0.0608   20.4224     20.3536     0.3378      12.5       3.4172      2.4313        
2011-05-18T01:25:32Z    Tokyo_1       29.1937     127.9977    127.9977    34.4079     25.423       -0.0604   20.3987     20.3537     0.221       12.5       3.4144      1.5908        
2011-05-18T01:28:33Z    Tokyo_1       29.2051     128.0154    128.0154    34.3851     25.3538      -0.0589   20.4101     20.3539     0.2761      17.5       3.3942      1.978         
2011-05-18T01:31:26Z    Tokyo_1       29.2167     128.0334    128.0334    34.3735     25.3018      -0.0591   20.3955     20.354      0.204       17.5       3.3905      1.4614        
2011-05-18T01:34:27Z    Tokyo_1       29.2282     128.0513    128.0513    34.3587     25.2823      -0.0603   20.4027     20.3541     0.2391      17.5       3.3892      1.713         
2011-05-18T01:37:29Z    Tokyo_1       29.2396     128.0693    128.0693    34.3826     25.2725      -0.0608   20.4101     20.3541     0.2754      17.5       3.3883      1.9728        
2011-05-18T01:40:30Z    Tokyo_1       29.2513     128.0872    128.0872    34.3858     25.27        -0.0616   20.4094     20.3541     0.2716      17.5       3.3881      1.9454        
2011-05-18T01:43:32Z    Tokyo_1       29.2633     128.1047    128.1047    34.3811     25.2673      -0.0615   20.4035     20.3541     0.2428      17.5       3.3879      1.739         
2011-05-18T01:46:33Z    Tokyo_1       29.2753     128.1223    128.1223    34.3606     25.2676      -0.0619   20.407      20.3541     0.2599      17.5       3.3881      1.8614        
2011-05-18T01:49:26Z    Tokyo_1       29.2874     128.1398    128.1398    34.3177     25.2566      -0.0615   20.4443     20.3542     0.4428      17.5       3.6307      3.4005        
2011-05-18T01:52:27Z    Tokyo_1       29.2992     128.1569    128.1569    34.3799     25.2457      -0.0624   20.4372     20.3541     0.4083      17.5       3.6295      3.1341        
2011-05-18T01:55:29Z    Tokyo_1       29.3114     128.174     128.174     34.4061     25.2552      -0.0645   20.4579     20.3541     0.51        17.5       3.6301      3.9137        
2011-05-18T01:58:30Z    Tokyo_1       29.3235     128.1912    128.1912    34.3881     25.294       -0.064    20.474      20.354      0.5897      17.5       3.6332      4.5267        
2011-05-18T02:01:32Z    Tokyo_1       29.3355     128.2082    128.2082    34.4024     25.3058      -0.0628   20.4622     20.354      0.5315      17.5       3.634       4.0802        
2011-05-18T02:04:33Z    Tokyo_1       29.3475     128.2253    128.2253    34.3737     25.3062      -0.0633   20.445      20.354      0.4469      17.5       3.6342      3.4311        
2011-05-18T02:07:26Z    Tokyo_1       29.3598     128.2426    128.2426    34.3917     25.3266      -0.063    20.4594     20.3539     0.518       17.5       3.6357      3.9773        
2011-05-18T02:49:29Z    Tokyo_1       29.5245     128.4819    128.4819    34.5189     25.3757      -0.0664   20.4214     20.3537     0.3326      17.5       3.4798      2.4402        
2011-05-18T02:52:30Z    Tokyo_1       29.5361     128.4992    128.4992    34.4939     25.3788      -0.065    20.4174     20.3537     0.3127      17.5       3.4801      2.295         
2011-05-18T02:55:32Z    Tokyo_1       29.5478     128.5169    128.5169    34.5176     25.3239      -0.0647   20.431      20.3538     0.3795      17.5       3.4761      2.784         
2011-05-18T02:58:33Z    Tokyo_1       29.5593     128.5343    128.5343    33.8943     25.2359      -0.0634   20.4413     20.3547     0.4255      17.5       3.4733      3.1343        
2011-05-18T03:01:26Z    Tokyo_1       29.5706     128.5514    128.5514    34.5105     25.1061      -0.0656   20.4302     20.3542     0.3732      17.5       3.4609      2.7363        
2011-05-18T03:04:27Z    Tokyo_1       29.5822     128.569     128.569     33.9251     24.8906      -0.066    20.4437     20.3554     0.4339      17.5       3.4489      3.1919        
2011-05-18T03:07:29Z    Tokyo_1       29.5934     128.5864    128.5864    34.4857     24.7097      -0.0639   20.4459     20.3551     0.4462      17.5       3.4332      3.2675        
2011-05-18T03:10:30Z    Tokyo_1       29.6046     128.6036    128.6036    34.4593     24.5708      -0.0639   20.4356     20.3554     0.394       17.5       3.4236      2.8841        
2011-05-18T03:13:32Z    Tokyo_1       29.616      128.6211    128.6211    34.4368     24.3946      -0.0638   20.4613     20.3558     0.5183      17.5       3.4113      3.7927        
2011-05-18T03:16:33Z    Tokyo_1       29.6274     128.6387    128.6387    34.4252     24.2775      -0.063    20.4578     20.356      0.5001      17.5       3.1499      3.3858        
2011-05-18T03:19:26Z    Tokyo_1       29.6388     128.6563    128.6563    34.4475     24.222       -0.0621   20.4626     20.3561     0.5234      17.5       3.1465      3.5427        
2011-05-18T03:22:27Z    Tokyo_1       29.6502     128.6742    128.6742    34.4237     24.1808      -0.0569   20.4683     20.3562     0.5506      17.5       3.1441      3.7277        
2011-05-18T03:25:29Z    Tokyo_1       29.6618     128.6921    128.6921    34.2071     24.1474      -0.0533   20.474      20.3566     0.5771      17.5       3.1431      3.9125        
2011-05-18T03:28:30Z    Tokyo_1       29.6735     128.7105    128.7105    34.3008     24.0907      -0.0658   20.4811     20.3566     0.6119      17.5       3.1393      4.1453        
2011-05-18T03:31:32Z    Tokyo_1       29.6852     128.7288    128.7288    34.4024     24.0422      -0.0638   20.4883     20.3565     0.6475      17.5       3.1359      4.3827        
2011-05-18T03:34:33Z    Tokyo_1       29.6967     128.7467    128.7467    34.4172     23.7904      -0.0632   20.4771     20.357      0.5897      17.5       3.1208      3.9892        
2011-05-18T03:37:26Z    Tokyo_1       29.7086     128.7644    128.7644    34.3958     21.552       -0.0518   20.4899     20.3622     0.6272      17.5       2.9867      4.2247        
2011-05-18T03:40:27Z    Tokyo_1       29.72       128.7811    128.7811    34.37       21.0641      -0.0362   20.4891     20.3634     0.617       17.5       2.9575      4.1524        
2011-05-18T03:43:29Z    Tokyo_1       29.731      128.7971    128.7971    34.4477     21.0337      -0.0247   20.5034     20.3634     0.6874      17.5       2.9554      4.6229        
2011-05-18T03:46:30Z    Tokyo_1       29.7421     128.8135    128.8135    34.3846     20.9612      -0.0217   20.5308     20.3637     0.8206      17.5       2.9513      5.5205        
2011-05-18T03:49:32Z    Tokyo_1       29.753      128.8293    128.8293    34.4027     21.0421      -0.0209   20.5282     20.3634     0.809       17.5       2.9561      5.4428        
2011-05-18T03:52:33Z    Tokyo_1       29.7636     128.8447    128.8447    34.4161     21.3337      -0.0195   20.5439     20.3627     0.8901      17.5       2.9735      5.9913        
2011-05-18T03:55:26Z    Tokyo_1       29.7742     128.8602    128.8602    34.4586     21.6007      -0.0293   20.5226     20.362      0.7888      17.5       2.9893      5.311         
2011-05-18T03:58:27Z    Tokyo_1       29.7845     128.8758    128.8758    34.3681     21.5631      -0.0327   20.5153     20.3622     0.7519      17.5       3.0161      5.1139        
2011-05-18T04:01:29Z    Tokyo_1       29.7948     128.8917    128.8917    34.434      21.5458      -0.034    20.5292     20.3622     0.8205      17.5       3.0148      5.5778        
2011-05-18T04:04:30Z    Tokyo_1       29.8052     128.9074    128.9074    34.4466     21.4639      -0.0295   20.512      20.3623     0.735       17.5       3.0099      4.9957        
2011-05-18T04:07:32Z    Tokyo_1       29.816      128.9235    128.9235    34.3374     21.358       -0.0248   20.5142     20.3627     0.7438      17.5       3.004       5.0581        
2011-05-18T04:10:33Z    Tokyo_1       29.8268     128.9394    128.9394    34.4433     21.2668      -0.0206   20.5243     20.3628     0.7929      17.5       2.9982      5.3871        
2011-05-18T04:13:26Z    Tokyo_1       29.8375     128.9548    128.9548    34.4631     21.057       -0.0139   20.5067     20.3633     0.7041      17.5       2.9857      4.7817        
2011-05-18T04:16:27Z    Tokyo_1       29.8487     128.9712    128.9712    34.4633     20.9679      -0.0134   20.4882     20.3635     0.612       17.5       2.9805      4.1553        
2011-05-18T04:19:29Z    Tokyo_1       29.8595     128.9876    128.9876    34.3723     20.8896      -0.0165   20.4856     20.3639     0.598       17.5       2.9762      4.0622        
2011-05-18T04:22:30Z    Tokyo_1       29.8696     129.0038    129.0038    34.4543     20.7332      -0.0166   20.4676     20.3642     0.5082      22.5       3.1105      3.6165        
2011-05-18T04:25:32Z    Tokyo_1       29.8802     129.0207    129.0207    34.4677     20.6925      -0.0124   20.4528     20.3642     0.4348      22.5       2.8979      2.8849        
2011-05-18T04:28:33Z    Tokyo_1       29.8906     129.0372    129.0372    34.2733     20.5717      -0.0084   20.4607     20.3648     0.4709      22.5       2.892       3.1279        
2011-05-18T04:31:26Z    Tokyo_1       29.9012     129.0537    129.0537    34.4629     20.7148      -0.0128   20.4478     20.3642     0.4107      22.5       2.8991      2.7248        
2011-05-18T04:34:27Z    Tokyo_1       29.912      129.0705    129.0705    34.434      20.7489      -0.0106   20.4542     20.3641     0.4423      22.5       2.901       2.9354        
2011-05-18T04:37:29Z    Tokyo_1       29.9227     129.0872    129.0872    34.354      20.9363      -0.0181   20.4469     20.3638     0.4083      22.5       2.9114      2.7112        
2011-05-18T04:40:30Z    Tokyo_1       29.9333     129.1039    129.1039    34.4453     20.9163      -0.0187   20.441      20.3637     0.3794      22.5       2.91        2.5178        
2011-05-18T04:43:32Z    Tokyo_1       29.9443     129.1212    129.1212    34.4568     20.858       -0.0138   20.4527     20.3638     0.4365      22.5       2.9069      2.8962        
2011-05-18T04:46:33Z    Tokyo_1       29.9552     129.1383    129.1383    34.4466     20.6356      -0.0118   20.4659     20.3644     0.4983      22.5       2.9376      3.3551        
2011-05-18T04:49:26Z    Tokyo_1       29.9661     129.1552    129.1552    34.4457     20.5586      -0.0142   20.459      20.3646     0.4633      22.5       2.9335      3.1196        
2011-05-18T04:52:27Z    Tokyo_1       29.9771     129.1722    129.1722    34.4609     20.536       -0.0221   20.4675     20.3647     0.5052      22.5       2.9322      3.4011        
2011-05-18T04:55:29Z    Tokyo_1       29.9881     129.1893    129.1893    34.4201     20.4877      -0.0279   20.4708     20.3648     0.5201      22.5       2.9297      3.5023        
2011-05-18T04:58:30Z    Tokyo_1       30.2587     129.206     129.206     34.4277     20.4941      -0.0341   20.4476     20.3648     0.4067      27.5       2.9197      2.7289        
2011-05-18T05:01:32Z    Tokyo_1       30.0096     129.223     129.223     34.3925     20.5712      -0.0392   20.4589     20.3647     0.4629      27.5       3.0854      3.2782        
2011-05-18T05:04:33Z    Tokyo_1       30.0203     129.2401    129.2401    34.3446     20.6954      -0.041    20.4681     20.3644     0.5094      27.5       3.0926      3.6092        
2011-05-18T05:07:26Z    Tokyo_1       30.0315     129.2582    129.2582    34.3124     20.9645      -0.0426   20.4532     20.3638     0.4394      27.5       3.108       3.1139        
2011-05-18T05:49:29Z    Tokyo_1       30.187      129.4854    129.4854    34.2123     22.3642      -0.052    20.3835     20.3605     0.1129      27.5       3.0934      0.7768        
2011-05-18T05:52:30Z    Tokyo_1       30.1978     129.5023    129.5023    33.049      22.3659      -0.0521   20.3875     20.362      0.1252      27.5       3.0974      0.8691        
2011-05-18T05:55:32Z    Tokyo_1       30.209      129.5195    129.5195    33.4017     22.3811      -0.0538   20.3962     20.3615     0.1701      27.5       3.097       1.1777        
2011-05-18T05:58:33Z    Tokyo_1       30.2199     129.5362    129.5362    33.3534     22.4641      -0.0541   20.3944     20.3614     0.1619      27.5       3.1015      1.1213        
2011-05-18T06:01:26Z    Tokyo_1       30.2308     129.553     129.553     33.313      22.4436      -0.0518   20.4037     20.3615     0.2074      27.5       3.1006      1.4367        
2011-05-18T06:04:27Z    Tokyo_1       30.2417     129.5702    129.5702    33.3931     22.3362      -0.0488   20.3932     20.3617     0.1551      27.5       3.0947      1.074         
2011-05-18T06:07:29Z    Tokyo_1       30.2527     129.5871    129.5871    33.3361     22.4689      -0.0483   20.4255     20.3614     0.3147      27.5       3.1019      2.1795        
2011-05-18T06:10:30Z    Tokyo_1       30.2637     129.6041    129.6041    33.2629     22.7656      -0.0532   20.4049     20.3608     0.2164      27.5       3.1177      1.4989        
2011-05-18T06:13:32Z    Tokyo_1       30.2744     129.6208    129.6208    33.309      23.0924      -0.0539   20.3992     20.36       0.1927      27.5       3.1346      1.334         
2011-05-18T06:16:33Z    Tokyo_1       30.2853     129.6377    129.6377    33.2841     23.1745      -0.0544   20.4143     20.3599     0.2672      27.5       3.2294      1.9032        
2011-05-18T06:19:26Z    Tokyo_1       30.2963     129.6547    129.6547    33.2429     23.0111      -0.0552   20.3962     20.3603     0.1762      27.5       3.2209      1.2556        
2011-05-18T06:22:27Z    Tokyo_1       30.3074     129.6718    129.6718    33.2551     22.9135      -0.0566   20.4102     20.3605     0.2443      27.5       3.2157      1.7408        
2011-05-18T06:25:29Z    Tokyo_1       30.3188     129.6891    129.6891    33.2778     22.8626      -0.0568   20.4228     20.3606     0.3055      27.5       3.2129      2.177         
2011-05-18T06:28:30Z    Tokyo_1       30.3298     129.706     129.706     33.284      22.7777      -0.0576   20.4151     20.3608     0.2666      27.5       3.2083      1.9           
2011-05-18T06:31:32Z    Tokyo_1       30.3407     129.7225    129.7225    33.2644     23.2077      -0.0575   20.4297     20.3598     0.3434      27.5       3.2312      2.4464        
2011-05-18T06:34:33Z    Tokyo_1       30.3521     129.7398    129.7398    33.2684     23.1881      -0.0577   20.4095     20.3598     0.2437      27.5       3.2302      1.7357        
2011-05-18T06:37:26Z    Tokyo_1       30.3632     129.7569    129.7569    33.2403     23.432       -0.0577   20.4201     20.3593     0.2986      27.5       3.2432      2.1269        
2011-05-18T06:40:27Z    Tokyo_1       30.3745     129.7743    129.7743    33.2083     23.3278      -0.0592   20.406      20.3596     0.2277      27.5       3.2378      1.6221        
2011-05-18T06:43:29Z    Tokyo_1       30.3856     129.7916    129.7916    33.1692     23.2813      -0.0595   20.4087     20.3598     0.2405      27.5       3.0899      1.6369        
2011-05-18T06:46:30Z    Tokyo_1       30.3967     129.8088    129.8088    33.1349     23.4133      -0.0552   20.41       20.3595     0.2479      27.5       3.0967      1.6875        
2011-05-18T06:49:32Z    Tokyo_1       30.4082     129.8264    129.8264    33.1155     23.4238      -0.0547   20.3885     20.3595     0.1425      27.5       3.0973      0.9699        
2011-05-18T06:52:33Z    Tokyo_1       30.4197     129.8442    129.8442    33.0736     23.4902      -0.0598   20.4116     20.3594     0.2561      27.5       3.1008      1.7442        
2011-05-18T06:55:26Z    Tokyo_1       30.4306     129.8615    129.8615    33.0905     23.6022      -0.0609   20.422      20.3592     0.3086      27.5       3.1064      2.1008        
2011-05-18T06:58:27Z    Tokyo_1       30.4418     129.879     129.879     33.1113     23.7469      -0.0615   20.3844     20.3588     0.1256      27.5       3.1669      0.8692        
2011-05-18T07:01:29Z    Tokyo_1       30.4529     129.8965    129.8965    33.1099     23.1566      -0.0563   20.4021     20.3601     0.2061      27.5       3.1371      1.4282        
2011-05-18T07:04:30Z    Tokyo_1       30.464      129.9138    129.9138    33.0579     22.9738      -0.0589   20.4141     20.3606     0.2625      27.5       3.128       1.8196        
2011-05-18T07:07:32Z    Tokyo_1       30.4753     129.931     129.931     33.0167     23.095       -0.061    20.3999     20.3604     0.1941      27.5       3.1343      1.3459        
2011-05-18T07:10:33Z    Tokyo_1       30.4864     129.9478    129.9478    32.9889     23.0453      -0.0601   20.4004     20.3605     0.196       27.5       3.1319      1.3594        
2011-05-18T07:13:26Z    Tokyo_1       30.4974     129.9646    129.9646    32.9555     23.1913      -0.0622   20.4087     20.3602     0.238       27.5       3.1394      1.6506        
2011-05-18T07:16:27Z    Tokyo_1       30.5084     129.9814    129.9814    32.9203     23.417       -0.0618   20.4159     20.3598     0.2755      27.5       3.151       1.9103        
2011-05-18T07:19:29Z    Tokyo_1       30.5196     129.9981    129.9981    32.8991     23.6119      -0.0607   20.4146     20.3594     0.2712      27.5       3.1609      1.8801        
2011-05-18T07:22:30Z    Tokyo_1       30.5299     130.0149    130.0149    32.6461     24.4639      -0.0603   20.4187     20.3578     0.2987      32.5       3.3703      2.1794        
2011-05-18T07:25:32Z    Tokyo_1       30.539      130.0335    130.0335    32.6105     24.6274      -0.0608   20.4227     20.3575     0.3201      32.5       3.3793      2.335         
2011-05-18T07:28:33Z    Tokyo_1       30.5482     130.0519    130.0519    33.1928     24.5979      -0.0561   20.4141     20.3569     0.2808      32.5       3.3754      2.0405        
2011-05-18T07:31:26Z    Tokyo_1       30.5575     130.0707    130.0707    33.4018     24.4071      -0.0498   20.405      20.357      0.2356      32.5       3.3643      1.71          
2011-05-18T07:34:27Z    Tokyo_1       30.5669     130.0892    130.0892    33.5078     24.217       -0.0484   20.3939     20.3573     0.1797      32.5       3.3537      1.3038        
2011-05-18T07:37:29Z    Tokyo_1       30.5764     130.108     130.108     33.5237     24.0855      -0.0443   20.3744     20.3576     0.0826      32.5       3.3466      0.5991        
2011-05-18T07:40:30Z    Tokyo_1       30.5857     130.1267    130.1267    33.5823     23.775       -0.0425   20.3378     20.3581     -0.0998     32.5       3.4216      -0.7444       
2011-05-18T07:43:32Z    Tokyo_1       30.5951     130.1447    130.1447    33.5732     23.3261      -0.0469   20.3087     20.3591     -0.2477     32.5       3.3969      -1.8477       
2011-05-18T07:46:33Z    Tokyo_1       30.6043     130.163     130.163     33.452      23.1288      -0.0528   20.2503     20.3597     -0.5375     32.5       3.3865      -4.0141       
2011-05-18T07:49:26Z    Tokyo_1       30.6135     130.1814    130.1814    33.3808     23.1655      -0.0625   20.3197     20.3598     -0.197      32.5       3.3888      -1.4714       
2011-05-18T07:52:27Z    Tokyo_1       30.6226     130.1996    130.1996    33.3556     23.676       -0.0636   20.3466     20.3587     -0.059      32.5       3.4171      -0.4406       
2011-05-18T07:55:29Z    Tokyo_1       30.6319     130.2182    130.2182    33.3886     23.6241      -0.0626   20.3504     20.3587     -0.0409     32.5       3.1558      -0.2826       
2011-05-18T07:58:30Z    Tokyo_1       30.641      130.2365    130.2365    33.368      23.6362      -0.0623   20.3311     20.3587     -0.1357     32.5       3.1565      -0.9365       
2011-05-18T08:01:32Z    Tokyo_1       30.6499     130.2549    130.2549    33.368      23.6391      -0.0615   20.3588     20.3587     0.0006      32.5       3.1567      0.004         
2011-05-18T08:04:33Z    Tokyo_1       30.6585     130.2729    130.2729    33.3818     23.5718      -0.055    20.3456     20.3588     -0.0651     32.5       3.1532      -0.4492       
2011-05-18T08:07:26Z    Tokyo_1       30.6672     130.2913    130.2913    33.3715     23.528       -0.0583   20.3455     20.359      -0.066      32.5       3.1509      -0.4558       
2011-05-18T08:49:29Z    Tokyo_1       30.7819     130.542     130.542     33.5132     22.2662      -0.0399   20.494      20.3617     0.6502      32.5       3.341       4.8618        
2011-05-18T08:52:30Z    Tokyo_1       30.7902     130.5592    130.5592    33.4141     22.3648      -0.0497   20.5058     20.3616     0.7083      32.5       3.3469      5.2999        
2011-05-18T08:55:32Z    Tokyo_1       30.7984     130.5764    130.5764    33.4206     22.341       -0.0408   20.5058     20.3616     0.7083      32.5       3.3456      5.2991        
2011-05-18T08:58:33Z    Tokyo_1       30.8066     130.5935    130.5935    33.4837     22.268       -0.0291   20.5178     20.3617     0.7666      32.5       3.3412      5.7339        
2011-05-18T09:01:26Z    Tokyo_1       30.8145     130.6102    130.6102    33.486      22.2237      -0.0211   20.5191     20.3618     0.7726      32.5       3.3387      5.7787        
2011-05-18T09:04:27Z    Tokyo_1       30.8228     130.6274    130.6274    33.4626     22.293       -0.0188   20.5406     20.3617     0.8789      32.5       3.8389      7.5504        
2011-05-18T09:07:29Z    Tokyo_1       30.8309     130.6443    130.6443    33.4198     22.4039      -0.0261   20.535      20.3615     0.8524      32.5       3.8464      7.3245        
2011-05-18T09:10:30Z    Tokyo_1       30.839      130.6609    130.6609    33.3226     22.6204      -0.0358   20.5411     20.3611     0.8842      32.5       3.861       7.6014        
2011-05-18T09:13:32Z    Tokyo_1       30.8471     130.6777    130.6777    33.3497     22.5318      -0.0396   20.5459     20.3612     0.907       32.5       3.855       7.7967        
2011-05-18T09:16:33Z    Tokyo_1       30.8555     130.6952    130.6952    33.4696     22.4236      -0.0318   20.5224     20.3613     0.791       32.5       3.8474      6.7942        
2011-05-18T09:19:26Z    Tokyo_1       30.8639     130.7127    130.7127    33.4592     22.4491      -0.032    20.5491     20.3613     0.9223      32.5       3.8492      7.9222        
2011-05-18T09:22:27Z    Tokyo_1       30.8718     130.7295    130.7295    33.4735     22.3867      -0.0289   20.5398     20.3614     0.876       32.5       3.845       7.524         
2011-05-18T09:25:29Z    Tokyo_1       30.8799     130.7465    130.7465    33.4992     22.362       -0.0265   20.5378     20.3614     0.8663      32.5       3.8397      7.4329        
2011-05-18T09:28:30Z    Tokyo_1       30.8882     130.7636    130.7636    33.5092     22.3312      -0.0285   20.5455     20.3615     0.9037      32.5       3.8376      7.7534        
2011-05-18T09:31:32Z    Tokyo_1       30.8965     130.7807    130.7807    33.4618     22.407       -0.0317   20.549      20.3614     0.9214      32.5       3.8429      7.9072        
2011-05-18T09:34:33Z    Tokyo_1       30.9053     130.7974    130.7974    33.4827     22.2979      -0.0291   20.5373     20.3616     0.8628      32.5       3.8355      7.4038        
2011-05-18T09:37:26Z    Tokyo_1       30.9141     130.8146    130.8146    33.517      22.2421      -0.0243   20.5413     20.3617     0.8821      32.5       3.8316      7.568         
2011-05-18T09:40:27Z    Tokyo_1       30.9224     130.8322    130.8322    33.5508     22.039       -0.0128   20.5442     20.3621     0.894       32.5       3.8178      7.6682        
2011-05-18T09:43:29Z    Tokyo_1       30.9305     130.8496    130.8496    33.6296     21.8145      -0.0128   20.5559     20.3626     0.9496      32.5       3.8024      8.1411        
2011-05-18T09:46:30Z    Tokyo_1       30.9384     130.867     130.867     33.6183     21.7709      -0.0122   20.5777     20.3627     1.0558      32.5       3.7995      9.0526        
2011-05-18T09:49:32Z    Tokyo_1       30.9464     130.885     130.885     33.5567     21.7673      0.007     20.5776     20.3628     1.0549      32.5       3.9058      9.3019        
2011-05-18T09:52:33Z    Tokyo_1       30.9539     130.9022    130.9022    33.5184     21.7423      0.003     20.5755     20.3629     1.0442      32.5       3.9041      9.2094        
2011-05-18T09:55:26Z    Tokyo_1       30.9614     130.9195    130.9195    33.5121     21.7157      -0.0041   20.5706     20.363      1.0197      32.5       3.902       8.9931        
2011-05-18T09:58:27Z    Tokyo_1       30.969      130.937     130.937     33.522      21.4609      0.0112    20.5698     20.3636     1.0127      32.5       3.8824      8.9264        
2011-05-18T10:01:29Z    Tokyo_1       30.9764     130.9547    130.9547    33.9173     20.6813      -0.0022   20.5678     20.365      0.9958      32.5       3.8204      8.7397        
2011-05-18T10:04:30Z    Tokyo_1       30.9835     130.9718    130.9718    33.9247     20.5722      -0.0131   20.5826     20.3653     1.067       32.5       3.8119      9.3619        
2011-05-18T10:07:32Z    Tokyo_1       30.9909     130.9891    130.9891    33.8829     20.2366      0.0016    20.6031     20.3662     1.1631      32.5       3.7862      10.2008       
2011-05-18T10:10:33Z    Tokyo_1       31.1676     131.006     131.006     33.8516     20.2185      0.0038    20.617      20.3663     1.2308      nd         0.7446      2.1242        
2011-05-18T10:13:26Z    Tokyo_1       31.0067     131.0212    131.0212    33.6769     20.3683      0.005     20.6263     20.3662     1.2774      nd         0.9099      2.6894        
2011-05-18T10:16:27Z    Tokyo_1       31.0156     131.0367    131.0367    33.5861     20.4034      0.0126    20.6316     20.3662     1.3029      nd         0.9108      2.7455        
2011-05-18T10:19:29Z    Tokyo_1       31.0232     131.053     131.053     33.5928     20.4131      0.0113    20.6716     20.3662     1.4996      nd         0.911       3.16          
2011-05-18T10:22:30Z    Tokyo_1       31.029      131.0701    131.0701    33.5664     20.456       0.0802    20.6884     20.3661     1.5823      nd         0.912       3.3358        
2011-05-18T10:25:32Z    Tokyo_1       31.0339     131.0884    131.0884    33.5493     20.5151      0.0563    20.6891     20.366      1.5865      nd         0.9134      3.3463        
2011-05-18T10:28:33Z    Tokyo_1       31.0389     131.1067    131.1067    33.5012     20.6723      0.045     20.6788     20.3656     1.5377      nd         0.917       3.2479        
2011-05-18T10:31:26Z    Tokyo_1       31.0429     131.1256    131.1256    33.4451     20.7624      0.0018    20.6948     20.3655     1.6172      nd         0.952       3.5414        
2011-05-18T10:34:27Z    Tokyo_1       31.0461     131.1448    131.1448    33.4573     20.7749      -0.0055   20.7096     20.3654     1.6899      nd         0.9523      3.7006        
2011-05-18T10:37:29Z    Tokyo_1       31.0495     131.164     131.164     33.5745     20.5642      0.0028    20.707      20.3658     1.6754      nd         0.9472      3.6608        
2011-05-18T10:40:30Z    Tokyo_1       31.0536     131.1831    131.1831    33.6259     20.5499      0.007     20.7028     20.3658     1.6548      nd         0.9468      3.6141        
2011-05-18T10:43:32Z    Tokyo_1       31.0598     131.2014    131.2014    33.5977     20.7148      0.0065    20.7076     20.3654     1.6804      nd         0.9507      3.6747        
2011-05-18T10:46:33Z    Tokyo_1       31.0657     131.2197    131.2197    33.2503     21.509       -0.0057   20.7049     20.3638     1.6749      nd         0.9697      3.6901        
2011-05-18T10:49:26Z    Tokyo_1       31.0714     131.2384    131.2384    33.215      21.4206      0.0212    20.479      20.3641     0.5641      nd         0.9677      1.2426        
2011-05-18T10:52:27Z    Tokyo_1       31.0766     131.2574    131.2574    33.4228     21.3268      0.0398    20.4545     20.3641     0.444       nd         0.9652      0.9758        
2011-05-18T10:55:29Z    Tokyo_1       31.0817     131.2766    131.2766    33.4616     21.4151      0.0264    20.4643     20.3638     0.4937      nd         0.9672      1.0853        
2011-05-18T10:58:30Z    Tokyo_1       31.0864     131.2958    131.2958    33.4202     21.5539      0.0179    20.4675     20.3635     0.5106      nd         0.9705      1.1239        
2011-05-18T11:01:32Z    Tokyo_1       31.091      131.3145    131.3145    33.4285     21.6422      0.0169    20.4602     20.3633     0.4761      nd         0.9725      1.0483        
2011-05-18T11:04:33Z    Tokyo_1       31.0954     131.333     131.333     33.3407     21.8723      0.0201    20.472      20.3628     0.5362      nd         0.9781      1.1831        
2011-05-18T11:07:26Z    Tokyo_1       31.0998     131.3516    131.3516    33.365      21.818       0.0215    20.4502     20.3629     0.4284      nd         0.9767      0.9449        
2011-05-18T13:13:26Z    Tokyo_1       31.3291     132.1495    132.1495    33.3467     23.415       -0.0444   20.5782     20.3592     1.0755      22.5       3.4989      8.2616        
2011-05-18T13:16:27Z    Tokyo_1       31.3357     132.1685    132.1685    33.2591     23.7766      -0.0685   20.5923     20.3586     1.1483      22.5       3.5194      8.8212        
2011-05-18T13:19:29Z    Tokyo_1       31.3421     132.1868    132.1868    33.207      23.922       -0.0658   20.5993     20.3583     1.1838      22.5       3.5277      9.0955        
2011-05-18T13:22:30Z    Tokyo_1       31.3484     132.2051    132.2051    33.2157     24.2753      -0.0649   20.594      20.3575     1.1616      22.5       3.5472      8.9185        
2011-05-18T13:25:32Z    Tokyo_1       31.3538     132.2237    132.2237    33.2115     24.2957      -0.0738   20.5984     20.3575     1.1834      22.5       3.5483      9.0861        
2011-05-18T13:28:33Z    Tokyo_1       31.359      132.2427    132.2427    33.2438     24.3304      -0.0681   20.597      20.3574     1.177       22.5       3.5501      9.0348        
2011-05-18T13:31:26Z    Tokyo_1       31.3639     132.2617    132.2617    33.2764     24.0581      -0.0686   20.5643     20.3579     1.0138      22.5       3.535       7.7838        
2011-05-18T13:34:27Z    Tokyo_1       31.368      132.2807    132.2807    33.3292     24.0115      -0.0701   20.5476     20.358      0.9317      22.5       3.5322      7.1513        
2011-05-18T13:37:29Z    Tokyo_1       31.372      132.3002    132.3002    33.3681     24.0344      -0.0686   20.5563     20.3579     0.9749      22.5       3.5333      7.4806        
2011-05-18T13:40:30Z    Tokyo_1       31.3758     132.3197    132.3197    33.3694     23.932       -0.0685   20.5585     20.3581     0.9845      22.5       3.4739      7.4403        
2011-05-18T13:43:32Z    Tokyo_1       31.3796     132.3394    132.3394    33.3896     23.8916      -0.0682   20.5619     20.3581     1.0011      22.5       3.4716      7.5654        
2011-05-18T13:46:33Z    Tokyo_1       31.3838     132.3591    132.3591    33.4029     23.8965      -0.0622   20.5446     20.3581     0.916       22.5       3.4718      6.9215        
2011-05-18T13:49:26Z    Tokyo_1       31.3883     132.3788    132.3788    33.4079     24.0622      -0.0598   20.5557     20.3577     0.9723      22.5       3.4686      7.3186        
2011-05-18T13:52:27Z    Tokyo_1       31.3931     132.3985    132.3985    33.3859     24.144       -0.0581   20.5271     20.3576     0.8327      22.5       3.4732      6.268         
2011-05-18T13:55:29Z    Tokyo_1       31.3982     132.4182    132.4182    33.3485     23.8567      -0.0569   20.5235     20.3583     0.8118      22.5       3.4573      6.1149        
2011-05-18T13:58:30Z    Tokyo_1       31.4036     132.4378    132.4378    34.5451     23.5282      0.0176    20.5358     20.3574     0.8762      22.5       3.4342      6.5476        
2011-05-18T14:01:32Z    Tokyo_1       31.4092     132.4574    132.4574    34.6531     23.377       0.0022    20.536      20.3576     0.8763      22.5       3.4252      6.5448        
2011-05-18T14:04:33Z    Tokyo_1       31.4147     132.4766    132.4766    34.6831     23.1765      -0.0125   20.51       20.358      0.7463      22.5       3.4138      5.5735        
2011-05-18T14:07:26Z    Tokyo_1       31.4203     132.4959    132.4959    34.6717     23.0207      -0.0338   20.5213     20.3584     0.8         22.5       3.4051      5.976         
2011-05-18T14:10:27Z    Tokyo_1       31.4258     132.515     132.515     34.6687     23.2719      -0.0252   20.5276     20.3578     0.8338      22.5       3.4193      6.2271        
2011-05-18T14:13:29Z    Tokyo_1       31.4315     132.5342    132.5342    34.6623     23.3435      -0.0634   20.5298     20.3577     0.8455      22.5       3.4233      6.3142        
2011-05-18T14:16:30Z    Tokyo_1       31.4369     132.5535    132.5535    34.655      23.4051      -0.0638   20.5377     20.3576     0.8851      22.5       3.4268      6.6097        
2011-05-18T14:19:32Z    Tokyo_1       31.4425     132.5728    132.5728    34.6481     23.2429      -0.0647   20.5373     20.3579     0.8809      22.5       3.4177      6.58          
2011-05-18T14:22:33Z    Tokyo_1       31.4478     132.5919    132.5919    34.6464     23.1296      -0.0639   20.5363     20.3582     0.8748      22.5       3.4113      6.5355        
2011-05-18T14:25:26Z    Tokyo_1       31.4532     132.611     132.611     34.6462     23.1647      -0.0648   20.5381     20.3581     0.884       22.5       3.4133      6.604         
2011-05-18T14:28:27Z    Tokyo_1       31.4586     132.6305    132.6305    34.6508     23.0622      -0.0642   20.5539     20.3583     0.9605      22.5       3.4018      7.1636        
2011-05-18T14:31:29Z    Tokyo_1       31.464      132.6499    132.6499    34.6381     23.0646      -0.0632   20.5383     20.3583     0.8842      22.5       3.402       6.5949        
2011-05-18T14:34:30Z    Tokyo_1       31.4693     132.6692    132.6692    34.661      23.0087      -0.0639   20.5423     20.3584     0.9031      22.5       3.3986      6.7354        
2011-05-18T14:37:32Z    Tokyo_1       31.4746     132.6885    132.6885    34.6728     22.9264      -0.0643   20.5353     20.3586     0.868       22.5       3.3938      6.4735        
2011-05-18T14:40:33Z    Tokyo_1       31.4801     132.708     132.708     34.6762     22.7892      -0.0534   20.5434     20.3589     0.9063      22.5       3.3859      6.7594        
2011-05-18T14:43:26Z    Tokyo_1       31.4856     132.7277    132.7277    34.655      22.6589      -0.0495   20.5526     20.3592     0.9498      22.5       3.3784      7.0848        
2011-05-18T14:46:27Z    Tokyo_1       31.4909     132.747     132.747     34.6336     22.6974      -0.0456   20.5558     20.3592     0.9656      22.5       3.3807      7.2039        
2011-05-18T14:49:29Z    Tokyo_1       31.4965     132.7668    132.7668    34.613      22.8909      -0.0576   20.5529     20.3588     0.9538      22.5       3.392       7.1164        
2011-05-18T14:52:30Z    Tokyo_1       31.502      132.7864    132.7864    34.5996     22.9806      -0.0634   20.5539     20.3586     0.9592      22.5       3.3973      7.157         
2011-05-18T14:55:32Z    Tokyo_1       31.5075     132.8058    132.8058    34.5328     23.4581      -0.0596   20.5472     20.3576     0.9315      22.5       3.425       6.9516        
2011-05-18T14:58:33Z    Tokyo_1       31.5128     132.8251    132.8251    34.5788     23.4681      -0.0569   20.5377     20.3575     0.885       22.5       3.4254      6.602         
2011-05-18T15:01:26Z    Tokyo_1       31.5182     132.8447    132.8447    34.5773     23.5376      -0.0505   20.554      20.3574     0.9657      22.5       3.4294      7.2037        
2011-05-18T15:04:27Z    Tokyo_1       31.5235     132.8644    132.8644    34.5813     23.6835      -0.0503   20.5466     20.3571     0.9312      22.5       3.4378      6.9462        
2011-05-18T15:07:29Z    Tokyo_1       31.5287     132.8845    132.8845    34.5774     23.6188      -0.052    20.5536     20.3572     0.9649      22.5       3.4258      7.1803        
2011-05-18T15:10:30Z    Tokyo_1       31.5339     132.9046    132.9046    34.5784     23.5679      -0.05     20.529      20.3573     0.8434      22.5       3.4228      6.2763        
2011-05-18T15:13:32Z    Tokyo_1       31.5389     132.9245    132.9245    34.5722     23.5676      -0.0451   20.5274     20.3573     0.8355      22.5       3.4228      6.2175        
2011-05-18T15:16:33Z    Tokyo_1       31.5438     132.9445    132.9445    34.5757     23.6312      -0.0424   20.5475     20.3572     0.9348      22.5       3.4266      6.9562        
2011-05-18T15:19:26Z    Tokyo_1       31.5487     132.9648    132.9648    34.5739     23.6426      -0.0432   20.5209     20.3572     0.8042      22.5       3.4272      5.9847        
2011-05-18T15:22:27Z    Tokyo_1       31.5534     132.9849    132.9849    34.5342     23.5764      -0.042    20.5577     20.3574     0.984       22.5       3.4235      7.3249        
2011-05-18T15:25:29Z    Tokyo_1       31.5582     133.0059    133.0059    34.5717     23.5554      -0.0341   20.5488     20.3573     0.9402      22.5       3.4221      6.9972        
2011-05-18T15:28:30Z    Tokyo_1       31.5628     133.0266    133.0266    34.5633     23.4899      -0.0346   20.532      20.3575     0.8571      22.5       3.4183      6.3789        
2011-05-18T15:31:32Z    Tokyo_1       31.5674     133.0469    133.0469    34.5615     23.3598      -0.0431   20.5394     20.3578     0.8922      22.5       3.4106      6.6402        
2011-05-18T16:13:26Z    Tokyo_1       31.6523     133.3174    133.3174    34.7118     20.8463      -0.0488   20.5547     20.3635     0.9391      22.5       3.2331      6.9217        
2011-05-18T16:16:27Z    Tokyo_1       31.658      133.3368    133.3368    34.7154     21.0002      -0.0499   20.5593     20.3631     0.9634      22.5       3.2427      7.1021        
2011-05-18T16:19:29Z    Tokyo_1       31.6637     133.356     133.356     34.708      20.9478      -0.0502   20.5832     20.3633     1.0798      22.5       3.2395      7.9605        
2011-05-18T16:22:30Z    Tokyo_1       31.6689     133.3753    133.3753    34.6987     20.8524      -0.0495   20.5739     20.3635     1.0332      22.5       3.2566      7.6708        
2011-05-18T16:25:32Z    Tokyo_1       31.674      133.3945    133.3945    34.6679     20.9355      -0.051    20.5721     20.3634     1.0252      22.5       3.2621      7.6144        
2011-05-18T16:28:33Z    Tokyo_1       31.679      133.4138    133.4138    34.7207     21.0442      -0.0487   20.5872     20.363      1.1012      22.5       3.269       8.1772        
2011-05-18T16:31:26Z    Tokyo_1       31.6841     133.4336    133.4336    34.7329     21.1021      -0.0501   20.6052     20.3628     1.1902      22.5       3.2727      8.8377        
2011-05-18T16:34:27Z    Tokyo_1       31.689      133.4529    133.4529    34.7369     21.0832      -0.0541   20.6018     20.3629     1.1734      22.5       3.2714      8.7128        
2011-05-18T16:37:29Z    Tokyo_1       31.6939     133.4721    133.4721    34.7336     21.0845      -0.0525   20.6031     20.3629     1.1795      22.5       3.2715      8.7583        
2011-05-18T16:40:30Z    Tokyo_1       31.6988     133.4913    133.4913    34.6891     20.9164      -0.0531   20.5868     20.3634     1.0974      22.5       3.2608      8.1486        
2011-05-18T16:43:32Z    Tokyo_1       31.7036     133.5106    133.5106    34.6599     20.8176      -0.0506   20.602      20.3637     1.1704      22.5       3.2545      8.6908        
2011-05-18T16:46:33Z    Tokyo_1       31.7086     133.5302    133.5302    34.6664     20.8283      -0.0524   20.5964     20.3636     1.1429      22.5       3.2552      8.4869        
2011-05-18T16:49:26Z    Tokyo_1       31.7137     133.5497    133.5497    34.3699     20.8563      -0.0544   20.6122     20.364      1.2189      22.5       3.2582      9.0703        
2011-05-18T16:52:27Z    Tokyo_1       31.7187     133.5686    133.5686    34.6325     20.8675      -0.0534   20.6019     20.3636     1.1703      22.5       3.2579      8.6925        
2011-05-18T16:55:29Z    Tokyo_1       31.7238     133.5878    133.5878    34.6739     20.8276      -0.0528   20.6284     20.3636     1.3005      22.5       3.2551      9.6563        
2011-05-18T16:58:30Z    Tokyo_1       31.7293     133.6071    133.6071    34.511      20.811       -0.0495   20.6351     20.3639     1.3317      22.5       3.2547      9.8988        
2011-05-18T17:01:32Z    Tokyo_1       31.7349     133.6264    133.6264    34.6657     20.7864      -0.0496   20.6423     20.3637     1.3681      22.5       3.2864      10.2641       
2011-05-18T17:04:33Z    Tokyo_1       31.7403     133.6452    133.6452    34.6624     20.8143      -0.0492   20.6338     20.3637     1.3265      22.5       3.2883      9.9532        
2011-05-18T17:07:26Z    Tokyo_1       31.7459     133.6643    133.6643    34.6533     20.9121      -0.0508   20.6476     20.3634     1.3955      22.5       3.2949      10.4739       
2011-05-18T17:10:27Z    Tokyo_1       31.7515     133.6835    133.6835    34.6611     20.9339      -0.0533   20.6507     20.3634     1.4111      22.5       3.2963      10.5905       
2011-05-18T17:13:29Z    Tokyo_1       31.7571     133.7027    133.7027    34.6662     20.912       -0.053    20.6442     20.3634     1.3788      22.5       3.2948      10.3473       
2011-05-18T17:16:30Z    Tokyo_1       31.7626     133.7214    133.7214    34.6432     20.811       -0.0522   20.6548     20.3637     1.4293      22.5       3.2882      10.7255       
2011-05-18T17:19:32Z    Tokyo_1       31.7684     133.7409    133.7409    34.6584     20.9301      -0.0535   20.6311     20.3634     1.3147      22.5       3.2961      9.8673        
2011-05-18T17:22:33Z    Tokyo_1       31.774      133.7601    133.7601    34.6871     21.0456      -0.0536   20.6458     20.363      1.3884      22.5       3.3037      10.4212       
2011-05-18T17:25:26Z    Tokyo_1       31.7796     133.7788    133.7788    34.711      21.1116      -0.0543   20.6434     20.3628     1.3778      22.5       3.3081      10.341        
2011-05-18T17:28:27Z    Tokyo_1       31.7853     133.7982    133.7982    34.7273     21.1925      -0.0561   20.6494     20.3626     1.4082      22.5       3.3134      10.57         
2011-05-18T17:31:29Z    Tokyo_1       31.7909     133.8175    133.8175    34.7008     21.161       -0.0559   20.6338     20.3627     1.331       22.5       3.3114      9.9919        
2011-05-18T17:34:30Z    Tokyo_1       31.7966     133.8364    133.8364    34.7293     21.1558      -0.0559   20.6541     20.3627     1.4312      22.5       3.311       10.7418       
2011-05-18T17:37:32Z    Tokyo_1       31.8022     133.8552    133.8552    34.7246     21.1087      -0.0552   20.6367     20.3628     1.3447      22.5       3.3078      10.0921       
2011-05-18T17:40:33Z    Tokyo_1       31.808      133.8744    133.8744    34.7189     21.073       -0.0546   20.6525     20.3629     1.4219      22.5       3.3054      10.6711       
2011-05-18T17:43:26Z    Tokyo_1       31.8136     133.8932    133.8932    34.7312     21.0793      -0.0556   20.6654     20.3629     1.4854      22.5       3.3483      11.2896       
2011-05-18T17:46:27Z    Tokyo_1       31.8192     133.912     133.912     34.7177     21.0415      -0.0561   20.6509     20.363      1.4139      22.5       3.3457      10.746        
2011-05-18T17:49:29Z    Tokyo_1       31.8248     133.931     133.931     34.7191     21.0276      -0.0546   20.6498     20.363      1.408       22.5       3.3448      10.701        
2011-05-18T17:52:30Z    Tokyo_1       31.83       133.9502    133.9502    34.6354     21.0421      -0.0541   20.6735     20.3631     1.5244      22.5       3.3461      11.5927       
2011-05-18T17:55:32Z    Tokyo_1       31.835      133.9692    133.9692    34.7247     21.0698      -0.0541   20.6571     20.3629     1.4445      22.5       3.3476      10.9788       
2011-05-18T17:58:33Z    Tokyo_1       31.8402     133.9884    133.9884    34.7301     21.0686      -0.0544   20.6805     20.3629     1.5594      22.5       3.3475      11.8522       
2011-05-18T18:01:26Z    Tokyo_1       31.8454     134.0075    134.0075    34.7258     21.0618      -0.0542   20.662      20.363      1.4686      22.5       3.3471      11.1617       
2011-05-18T18:04:27Z    Tokyo_1       31.8506     134.0265    134.0265    34.7125     21.0066      -0.0531   20.6729     20.3631     1.5215      22.5       3.3433      11.5633       
2011-05-18T18:07:29Z    Tokyo_1       31.856      134.046     134.046     34.6729     20.8451      -0.0551   20.6806     20.3636     1.5571      22.5       3.3323      11.832        
2011-05-18T18:10:30Z    Tokyo_1       31.8614     134.0652    134.0652    34.6427     20.8386      -0.0565   20.653      20.3636     1.421       22.5       3.332       10.7998       
2011-05-18T18:13:32Z    Tokyo_1       31.8666     134.0839    134.0839    34.6131     20.7648      -0.0562   20.6832     20.3639     1.5684      22.5       3.327       11.9202       
2011-05-18T18:16:33Z    Tokyo_1       31.872      134.1028    134.1028    34.6062     20.7957      -0.056    20.6766     20.3638     1.5362      22.5       3.3292      11.6777       
2011-05-18T18:19:26Z    Tokyo_1       31.8774     134.1219    134.1219    34.6033     20.8012      -0.0559   20.6663     20.3638     1.4857      22.5       3.4036      11.5453       
2011-05-18T18:22:27Z    Tokyo_1       31.8828     134.1407    134.1407    34.6021     20.8171      -0.0575   20.6829     20.3637     1.5672      22.5       3.4511      12.3448       
2011-05-18T18:25:29Z    Tokyo_1       31.8881     134.1597    134.1597    34.4199     20.8502      -0.055    20.6641     20.3639     1.4741      22.5       3.4543      11.6275       
2011-05-18T18:28:30Z    Tokyo_1       31.8936     134.1789    134.1789    34.3915     20.8501      -0.0563   20.6519     20.3639     1.4138      22.5       3.4544      11.1544       
2011-05-18T18:31:32Z    Tokyo_1       31.899      134.198     134.198     34.3563     20.7512      -0.0577   20.6608     20.3642     1.4561      22.5       3.4473      11.4877       
2011-05-18T19:13:26Z    Tokyo_1       31.9746     134.4666    134.4666    34.7331     21.2913      -0.0566   20.6404     20.3624     1.3652      22.5       3.514       10.848        
2011-05-18T19:16:27Z    Tokyo_1       31.9797     134.4859    134.4859    34.741      21.3574      -0.057    20.6349     20.3622     1.3393      22.5       3.5188      10.6434       
2011-05-18T19:19:29Z    Tokyo_1       31.9848     134.5056    134.5056    34.5722     21.392       -0.0568   20.6501     20.3623     1.4132      22.5       3.5221      11.2461       
2011-05-18T19:22:30Z    Tokyo_1       31.9898     134.5251    134.5251    34.7457     21.419       -0.0592   20.6692     20.362      1.5083      22.5       3.5233      11.9889       
2011-05-18T19:25:32Z    Tokyo_1       31.9949     134.5447    134.5447    34.7499     21.4356      -0.0596   20.6819     20.362      1.5713      22.5       3.5246      12.4894       
2011-05-18T19:28:33Z    Tokyo_1       32.3154     134.5642    134.5642    34.7565     21.4341      -0.0609   20.6627     20.362      1.4768      22.5       3.5902      11.9566       
2011-05-18T19:31:26Z    Tokyo_1       32.0048     134.5833    134.5833    34.7667     21.4474      -0.0608   20.6843     20.3619     1.5832      22.5       3.5254      12.5832       
2011-05-18T19:34:27Z    Tokyo_1       32.0101     134.6037    134.6037    34.7658     21.4234      -0.0599   20.6792     20.362      1.5577      22.5       3.5236      12.3795       
2011-05-18T19:37:29Z    Tokyo_1       32.0152     134.6233    134.6233    34.7692     21.379       -0.0611   20.6659     20.3621     1.492       22.5       3.5203      11.8555       
2011-05-18T19:40:30Z    Tokyo_1       32.02       134.6422    134.6422    34.773      21.3458      -0.0603   20.6657     20.3622     1.4908      22.5       3.5294      11.8836       
2011-05-18T19:43:32Z    Tokyo_1       32.0253     134.6617    134.6617    34.621      21.312       -0.0595   20.6686     20.3625     1.5031      22.5       3.5276      11.994        
2011-05-18T19:46:33Z    Tokyo_1       32.0305     134.6815    134.6815    34.6449     21.299       -0.0603   20.6766     20.3625     1.5429      22.5       3.5266      12.3082       
2011-05-18T19:49:26Z    Tokyo_1       32.0358     134.7014    134.7014    34.6748     21.267       -0.0594   20.6852     20.3625     1.5846      22.5       3.5241      12.6376       
2011-05-18T19:52:27Z    Tokyo_1       32.041      134.721     134.721     34.7542     21.2273      -0.0599   20.6653     20.3625     1.487       22.5       3.5208      11.8512       
2011-05-18T19:55:29Z    Tokyo_1       32.0462     134.741     134.741     34.5424     21.1513      -0.059    20.6857     20.363      1.5848      22.5       3.5161      12.6461       
2011-05-18T19:58:30Z    Tokyo_1       32.0515     134.761     134.761     34.7172     21.0461      -0.0575   20.6644     20.363      1.48        22.5       3.5076      11.7916       
2011-05-18T20:01:32Z    Tokyo_1       32.0567     134.7805    134.7805    34.6965     20.9655      -0.0533   20.6858     20.3632     1.584       22.5       3.5017      12.6195       
2011-05-18T20:04:33Z    Tokyo_1       32.0618     134.8       134.8       34.6779     20.896       -0.0372   20.6852     20.3634     1.5801      22.5       3.4966      12.5874       
2011-05-18T20:07:26Z    Tokyo_1       32.0671     134.8196    134.8196    34.6737     20.8837      -0.0292   20.6817     20.3635     1.5628      22.5       3.4958      12.4492       
2011-05-18T20:10:27Z    Tokyo_1       32.0724     134.8396    134.8396    34.6767     20.9027      -0.0334   20.6749     20.3634     1.5294      22.5       3.4971      12.1833       
2011-05-18T20:13:29Z    Tokyo_1       32.0778     134.8592    134.8592    34.6804     20.9296      -0.0324   20.6592     20.3633     1.4528      22.5       3.4991      11.5742       
2011-05-18T20:16:30Z    Tokyo_1       32.0832     134.8788    134.8788    34.7013     20.9766      -0.0289   20.6907     20.3632     1.6081      22.5       3.3863      12.3865       
2011-05-18T20:19:32Z    Tokyo_1       32.0886     134.8986    134.8986    34.7213     21.0149      -0.0146   20.6628     20.3631     1.4719      22.5       3.3891      11.3376       
2011-05-18T20:22:33Z    Tokyo_1       32.094      134.9181    134.9181    34.7321     21.0381      -0.029    20.693      20.363      1.6204      22.5       3.3908      12.4808       
2011-05-18T20:25:26Z    Tokyo_1       32.0994     134.9377    134.9377    34.7368     21.0701      -0.0296   20.7041     20.3629     1.6757      22.5       3.3931      12.9081       
2011-05-18T20:28:27Z    Tokyo_1       32.1048     134.9572    134.9572    34.7402     21.0835      -0.0279   20.6873     20.3629     1.5934      22.5       3.3941      12.275        
2011-05-18T20:31:29Z    Tokyo_1       32.1104     134.9766    134.9766    34.7398     21.0924      -0.0206   20.6774     20.3629     1.5447      22.5       3.3948      11.8997       
2011-05-18T20:34:30Z    Tokyo_1       32.116      134.9963    134.9963    34.7374     21.0838      -0.0288   20.6791     20.3629     1.5528      22.5       3.3941      11.9624       
2011-05-18T20:37:32Z    Tokyo_1       32.1217     135.016     135.016     34.7457     21.0975      -0.0128   20.6808     20.3628     1.5614      22.5       3.3951      12.0285       
2011-05-18T20:40:33Z    Tokyo_1       32.1273     135.0356    135.0356    34.7563     21.1288      -0.0416   20.6939     20.3627     1.6262      22.5       3.4723      12.8039       
2011-05-18T20:43:26Z    Tokyo_1       32.1331     135.055     135.055     34.7732     21.2127      -0.0622   20.7042     20.3625     1.6782      22.5       3.4786      13.2165       
2011-05-18T20:46:27Z    Tokyo_1       32.139      135.0747    135.0747    34.7784     21.2569      -0.0642   20.6741     20.3624     1.5309      22.5       3.4819      12.0578       
2011-05-18T20:49:29Z    Tokyo_1       32.1447     135.0946    135.0946    34.7747     21.2675      -0.066    20.695      20.3624     1.6333      22.5       3.4827      12.8654       
2011-05-18T20:52:30Z    Tokyo_1       32.1503     135.1141    135.1141    34.7654     21.2471      -0.0642   20.6924     20.3624     1.6203      22.5       3.4812      12.7629       
2011-05-18T20:55:32Z    Tokyo_1       32.1559     135.1336    135.1336    34.7603     21.1923      -0.0645   20.6904     20.3626     1.6099      22.5       3.4648      12.6338       
2011-05-18T20:58:33Z    Tokyo_1       32.1615     135.1535    135.1535    34.7521     21.0631      -0.0633   20.683      20.3629     1.5718      22.5       3.4552      12.3297       
2011-05-18T21:01:26Z    Tokyo_1       32.1672     135.1733    135.1733    30.3097     20.9064      -0.0242   20.7039     20.3693     1.6425      22.5       3.4635      13.2948       
2011-05-18T21:04:27Z    Tokyo_1       32.173      135.1938    135.1938    30.2712     20.8077      -0.0613   20.6942     20.3696     1.5933      22.5       3.4562      12.8957       
2011-05-18T21:07:29Z    Tokyo_1       32.1786     135.2137    135.2137    30.6928     20.7505      -0.0572   20.682      20.3692     1.5357      22.5       3.45        12.3888       
2011-05-18T21:10:30Z    Tokyo_1       32.1841     135.2331    135.2331    34.71       20.7378      -0.0593   20.6909     20.3638     1.6064      22.5       3.4311      12.5902       
2011-05-18T21:13:32Z    Tokyo_1       32.1896     135.2528    135.2528    34.7109     20.7185      -0.0609   20.7037     20.3638     1.6691      22.5       3.4297      13.0807       
2011-05-18T21:16:33Z    Tokyo_1       32.1953     135.2728    135.2728    34.7108     20.6872      -0.0579   20.685      20.3639     1.5768      22.5       3.4273      12.3563       
2011-05-18T21:19:26Z    Tokyo_1       32.2012     135.293     135.293     34.714      20.6596      -0.0608   20.7007     20.364      1.6536      22.5       3.4253      12.9566       
2011-05-18T21:22:27Z    Tokyo_1       32.2073     135.313     135.313     34.7228     20.6781      -0.0626   20.7116     20.3639     1.7071      22.5       3.4266      13.3754       
2011-05-18T21:25:29Z    Tokyo_1       32.2135     135.3334    135.3334    34.7194     20.6334      -0.0622   20.719      20.364      1.743       22.5       3.4233      13.6547       
2011-05-18T21:28:30Z    Tokyo_1       32.2196     135.3532    135.3532    34.7167     20.6677      -0.0602   20.7051     20.364      1.6754      22.5       3.4259      13.1274       
2011-05-18T21:31:32Z    Tokyo_1       32.2255     135.3723    135.3723    34.7099     20.7037      -0.0631   20.7114     20.3639     1.7066      22.5       3.4286      13.3739       
2011-05-19T01:13:26Z    Tokyo_1       32.6329     136.8782    136.8782    34.7232     20.9114      -0.0685   20.7933     20.3633     2.1117      22.5       3.2131      15.4494       
2011-05-19T01:16:27Z    Tokyo_1       32.6387     136.8986    136.8986    34.7154     20.8749      -0.0702   20.8017     20.3634     2.1524      22.5       3.2112      15.7484       
2011-05-19T01:19:29Z    Tokyo_1       32.6449     136.9193    136.9193    34.725      20.8471      -0.069    20.8185     20.3635     2.2343      22.5       3.2096      16.3473       
2011-05-19T01:22:30Z    Tokyo_1       32.6513     136.9407    136.9407    34.7262     20.7765      -0.0695   20.8296     20.3637     2.2879      22.5       3.2058      16.7413       
2011-05-19T01:25:32Z    Tokyo_1       32.6574     136.9618    136.9618    34.72       20.6924      -0.0694   20.8224     20.3639     2.2516      22.5       3.2013      16.4774       
2011-05-19T01:28:33Z    Tokyo_1       32.6639     136.9831    136.9831    34.7195     20.6921      -0.0725   20.8417     20.3639     2.3464      22.5       3.2013      17.1719       
2011-05-19T01:31:26Z    Tokyo_1       32.6704     137.0046    137.0046    34.734      20.7518      -0.0759   20.8126     20.3637     2.2042      22.5       3.2045      16.1284       
2011-05-19T01:34:27Z    Tokyo_1       32.6765     137.0253    137.0253    34.7364     20.8242      -0.0753   20.8314     20.3635     2.2977      22.5       3.2084      16.8103       
2011-05-19T01:37:29Z    Tokyo_1       32.6827     137.0465    137.0465    34.7393     20.9061      -0.075    20.8501     20.3633     2.3904      22.5       3.2128      17.4864       
2011-05-19T01:40:30Z    Tokyo_1       32.689      137.0676    137.0676    34.7393     20.8517      -0.0753   20.8498     20.3635     2.3881      22.5       3.2098      17.4709       
2011-05-19T01:43:32Z    Tokyo_1       32.6952     137.0889    137.0889    34.7353     20.7736      -0.0765   20.8419     20.3637     2.3483      22.5       3.2056      17.1819       
2011-05-19T01:46:33Z    Tokyo_1       32.7015     137.1102    137.1102    34.7469     20.851       -0.0748   20.8524     20.3635     2.4013      22.5       3.2098      17.5667       
2011-05-19T01:49:26Z    Tokyo_1       32.7076     137.1312    137.1312    34.7513     20.9572      -0.0748   20.8469     20.3632     2.3756      22.5       3.2103      17.3474       
2011-05-19T01:52:27Z    Tokyo_1       32.7138     137.1528    137.1528    34.7562     21.0318      -0.0719   20.8397     20.363      2.3409      22.5       3.2142      17.0918       
2011-05-19T01:55:29Z    Tokyo_1       32.72       137.1744    137.1744    34.7379     20.9295      -0.0721   20.8562     20.3633     2.4207      22.5       3.2088      17.6793       
2011-05-19T01:58:30Z    Tokyo_1       32.726      137.1958    137.1958    34.7549     20.856       -0.074    20.8641     20.3634     2.4584      22.5       3.2048      17.9543       
2011-05-19T02:01:32Z    Tokyo_1       32.7321     137.2174    137.2174    33.9112     20.8403      -0.0733   20.853      20.3646     2.3983      22.5       3.2067      17.6171       
2011-05-19T02:04:33Z    Tokyo_1       32.7382     137.2389    137.2389    34.7563     20.8224      -0.0704   20.8511     20.3635     2.3945      22.5       3.203       17.488        
2011-05-19T02:07:26Z    Tokyo_1       32.7442     137.2604    137.2604    34.6804     20.8482      -0.0737   20.8567     20.3636     2.4219      22.5       3.2047      17.6965       
2011-05-19T02:10:27Z    Tokyo_1       32.7503     137.2823    137.2823    34.6009     20.8921      -0.0834   20.869      20.3636     2.482       22.5       3.2073      18.1444       
2011-05-19T02:13:29Z    Tokyo_1       32.7562     137.3037    137.3037    34.5619     21.0701      -0.1165   20.854      20.3632     2.4105      22.5       3.2169      17.6222       
2011-05-19T02:16:30Z    Tokyo_1       32.762      137.3251    137.3251    34.5264     21.2361      -0.0968   20.8692     20.3628     2.4871      22.5       3.2259      18.1821       
2011-05-19T02:19:32Z    Tokyo_1       32.7679     137.3467    137.3467    34.4979     21.0799      -0.0872   20.8552     20.3632     2.416       22.5       3.2176      17.67         
2011-05-19T02:22:33Z    Tokyo_1       32.7738     137.3683    137.3683    34.6206     20.9253      -0.0836   20.8703     20.3634     2.4891      22.5       3.209       18.1934       
2011-05-19T02:25:26Z    Tokyo_1       32.7797     137.3904    137.3904    34.7492     20.9867      -0.084    20.8631     20.3631     2.4555      22.5       3.1864      17.7883       
2011-05-19T02:28:27Z    Tokyo_1       32.7856     137.4127    137.4127    34.7458     21.0683      -0.0833   20.8673     20.3629     2.4768      22.5       3.1906      17.9408       
2011-05-19T02:31:29Z    Tokyo_1       32.7913     137.4342    137.4342    34.7441     21.1348      -0.0829   20.8646     20.3627     2.4645      22.5       3.1941      17.8498       
2011-05-19T02:34:30Z    Tokyo_1       32.7968     137.4554    137.4554    34.7403     21.2916      -0.084    20.8637     20.3624     2.462       22.5       3.2023      17.8275       
2011-05-19T02:37:32Z    Tokyo_1       32.8025     137.4774    137.4774    34.7414     21.3438      -0.0855   20.8762     20.3622     2.5241      22.5       3.205       18.2754       
2011-05-19T02:40:33Z    Tokyo_1       32.8082     137.4989    137.4989    34.7444     21.4068      -0.0842   20.8768     20.3621     2.5281      22.5       3.2083      18.3017       
2011-05-19T02:43:26Z    Tokyo_1       32.8137     137.5201    137.5201    34.7423     21.6021      -0.0827   20.8885     20.3616     2.5876      22.5       3.2185      18.7266       
2011-05-19T02:46:27Z    Tokyo_1       32.8193     137.5416    137.5416    34.7168     21.9609      -0.0817   20.8734     20.3608     2.5177      22.5       3.2372      18.2129       
2011-05-19T02:49:29Z    Tokyo_1       32.825      137.5627    137.5627    34.7068     22.092       -0.0836   20.8763     20.3605     2.5335      22.5       3.244       18.324        
2011-05-19T02:52:30Z    Tokyo_1       32.8305     137.5839    137.5839    34.6994     22.219       -0.0841   20.879      20.3602     2.5481      22.5       3.2506      18.426        
2011-05-19T02:55:32Z    Tokyo_1       32.8361     137.6055    137.6055    34.6927     22.405       -0.0831   20.8726     20.3598     2.5188      22.5       3.2602      18.2087       
2011-05-19T02:58:33Z    Tokyo_1       32.8416     137.6271    137.6271    34.6798     22.6604      -0.0996   20.8465     20.3592     2.3936      22.5       3.2487      17.1666       
2011-05-19T03:01:26Z    Tokyo_1       32.8472     137.6494    137.6494    34.6336     22.9047      -0.0784   20.8561     20.3587     2.4433      22.5       3.2611      17.5187       
2011-05-19T03:04:27Z    Tokyo_1       32.8527     137.6714    137.6714    34.5916     22.9445      -0.0665   20.8691     20.3587     2.507       22.5       3.2632      17.9791       
2011-05-19T03:07:29Z    Tokyo_1       32.858      137.693     137.693     34.4888     22.9949      -0.0628   20.8567     20.3587     2.4461      22.5       3.266       17.5528       
2011-05-19T03:10:30Z    Tokyo_1       32.8637     137.7148    137.7148    34.6437     22.9902      -0.0622   20.8774     20.3585     2.5487      22.5       3.2653      18.2698       
2011-05-19T03:13:32Z    Tokyo_1       32.8701     137.7368    137.7368    34.6474     23.0116      -0.0735   20.8452     20.3584     2.3909      22.5       3.2663      17.1371       
2011-05-19T03:16:33Z    Tokyo_1       32.8767     137.7584    137.7584    34.6508     23.0158      -0.0665   20.8352     20.3584     2.3419      22.5       3.1632      16.2547       
2011-05-19T03:19:26Z    Tokyo_1       32.8832     137.7802    137.7802    34.6432     22.9863      -0.0657   20.8599     20.3585     2.4626      22.5       3.1618      17.0946       
2011-05-19T03:22:27Z    Tokyo_1       32.8898     137.8023    137.8023    34.6342     22.9647      -0.0651   20.86       20.3586     2.4631      22.5       3.1608      17.0997       
2011-05-19T03:25:29Z    Tokyo_1       32.8964     137.8244    137.8244    34.6341     23.0276      -0.0653   20.8725     20.3584     2.5251      22.5       3.1639      17.5283       
2011-05-19T03:28:30Z    Tokyo_1       32.9027     137.8462    137.8462    34.6148     22.9567      -0.0614   20.8611     20.3586     2.4683      22.5       3.1604      17.1385       
2011-05-19T03:31:32Z    Tokyo_1       32.909      137.8682    137.8682    34.5334     22.8051      -0.049    20.8645     20.3591     2.4828      22.5       3.1531      17.2532       
2011-05-19T04:13:26Z    Tokyo_1       33.4218     138.1751    138.1751    34.5538     19.8955      -0.0448   21.0789     20.3662     3.4995      22.5       2.9297      23.804        
2011-05-19T04:16:27Z    Tokyo_1       33.0072     138.195     138.195     34.5889     20.1415      -0.0412   21.1721     20.3655     3.9604      22.5       3.0049      27.5006       
2011-05-19T04:19:29Z    Tokyo_1       33.0128     138.2143    138.2143    34.5966     20.3125      -0.0445   21.1931     20.3651     4.0662      22.5       3.0131      28.2229       
2011-05-19T04:22:30Z    Tokyo_1       33.0184     138.2339    138.2339    34.5981     20.2172      -0.0464   21.1855     20.3653     4.0273      22.5       3.0085      27.9588       
2011-05-19T04:25:32Z    Tokyo_1       33.0239     138.2532    138.2532    34.5951     20.0593      -0.0442   21.1814     20.3657     4.0051      22.5       3.001       27.8151       
2011-05-19T04:28:33Z    Tokyo_1       33.0293     138.2738    138.2738    34.5923     19.9979      -0.0445   21.1599     20.3659     3.8989      22.5       2.998       27.082        
2011-05-19T04:31:26Z    Tokyo_1       33.0342     138.2935    138.2935    34.5904     19.8192      -0.0435   21.0024     20.3664     3.1227      22.5       2.9894      21.6996       
2011-05-19T04:34:27Z    Tokyo_1       33.0391     138.3132    138.3132    34.5889     19.803       -0.0425   20.8937     20.3664     2.5891      22.5       2.9886      17.9924       
2011-05-19T04:37:29Z    Tokyo_1       33.0442     138.334     138.334     34.5849     19.7308      -0.0438   21.1272     20.3666     3.7344      22.5       2.9852      25.9562       
2011-05-19T04:40:30Z    Tokyo_1       33.0492     138.3545    138.3545    34.5848     19.6409      -0.0453   21.1645     20.3669     3.9164      22.5       2.9808      27.2266       
2011-05-19T04:43:32Z    Tokyo_1       33.0543     138.3746    138.3746    34.5876     19.7932      -0.0475   21.1799     20.3664     3.9943      22.5       2.9882      27.7581       
2011-05-19T04:46:33Z    Tokyo_1       33.0593     138.3945    138.3945    34.5866     19.6045      -0.0443   21.1598     20.367      3.893       22.5       3.0279      27.5103       
2011-05-19T04:49:26Z    Tokyo_1       33.0644     138.4149    138.4149    34.5906     19.5634      -0.0427   21.1576     20.3671     3.8814      22.5       3.026       27.4307       
2011-05-19T04:52:27Z    Tokyo_1       33.0695     138.4355    138.4355    34.5933     19.7212      -0.0425   21.1769     20.3666     3.9783      22.5       3.0334      28.102        
2011-05-19T04:55:29Z    Tokyo_1       33.0745     138.4554    138.4554    34.5919     19.8791      -0.0413   21.1683     20.3662     3.9385      22.5       3.0408      27.8087       
2011-05-19T04:58:30Z    Tokyo_1       33.0796     138.4756    138.4756    34.5923     19.8678      -0.0412   21.1934     20.3662     4.0614      22.5       3.0403      28.6771       
2011-05-19T05:01:32Z    Tokyo_1       33.0846     138.4958    138.4958    34.5894     19.7822      -0.0424   21.2098     20.3665     4.1409      22.5       3.0363      29.2463       
2011-05-19T05:04:33Z    Tokyo_1       33.0898     138.5162    138.5162    34.588      19.5418      -0.0433   21.1742     20.3671     3.9628      22.5       3.025       28.0082       
2011-05-19T05:07:26Z    Tokyo_1       33.0948     138.5368    138.5368    34.5873     19.5066      -0.0445   21.2145     20.3672     4.16        22.5       3.0233      29.405        
2011-05-19T05:10:27Z    Tokyo_1       33.0999     138.5564    138.5564    34.5925     20.0227      -0.0386   21.2217     20.3658     4.2023      22.5       3.0476      29.6587       
2011-05-19T05:13:29Z    Tokyo_1       33.1054     138.5759    138.5759    34.5917     20.2268      -0.0322   21.2174     20.3653     4.184       22.5       3.0571      29.5117       
2011-05-19T05:16:30Z    Tokyo_1       33.111      138.5957    138.5957    34.5891     20.143       -0.0302   21.2208     20.3655     4.1996      22.5       3.0532      29.6294       
2011-05-19T05:19:32Z    Tokyo_1       33.1168     138.6157    138.6157    34.5874     20.0899      -0.0279   21.2134     20.3656     4.1624      22.5       3.0507      29.3724       
2011-05-19T05:22:33Z    Tokyo_1       33.1225     138.6355    138.6355    34.5837     19.8078      -0.0296   21.2177     20.3664     4.1797      22.5       3.0962      30.0893       
2011-05-19T05:25:26Z    Tokyo_1       33.1284     138.6555    138.6555    34.584      19.8789      -0.0323   21.2157     20.3662     4.1709      22.5       3.0866      29.8937       
2011-05-19T05:28:27Z    Tokyo_1       33.1343     138.6755    138.6755    34.5828     19.7631      -0.0359   21.2206     20.3665     4.1937      22.5       3.0811      30.0684       
2011-05-19T05:31:29Z    Tokyo_1       33.1403     138.6956    138.6956    34.582      19.5114      -0.037    21.2417     20.3672     4.2937      22.5       3.0692      30.8086       
2011-05-19T05:34:30Z    Tokyo_1       33.1464     138.7158    138.7158    34.5801     19.3137      -0.0424   21.2553     20.3678     4.3577      22.5       3.0597      31.2863       
2011-05-19T05:37:32Z    Tokyo_1       33.1525     138.7363    138.7363    34.5776     19.3625      -0.0408   21.2403     20.3676     4.2844      22.5       3.0621      30.7561       
2011-05-19T05:40:33Z    Tokyo_1       33.1586     138.7568    138.7568    34.5749     19.3212      -0.0381   21.2311     20.3677     4.2388      22.5       3.0601      30.4331       
2011-05-19T05:43:26Z    Tokyo_1       33.1646     138.7778    138.7778    34.5785     19.6331      -0.0329   21.2355     20.3669     4.2649      22.5       3.075       30.5917       
2011-05-19T05:46:27Z    Tokyo_1       33.1705     138.7988    138.7988    34.5821     20.2159      -0.0277   21.2296     20.3653     4.2436      22.5       3.1025      30.3845       
2011-05-19T05:49:29Z    Tokyo_1       33.1763     138.8194    138.8194    34.5812     20.3453      -0.0224   21.2565     20.365      4.3777      22.5       3.1086      31.3321       
2011-05-19T05:52:30Z    Tokyo_1       33.1824     138.8407    138.8407    34.5801     20.5016      -0.0138   21.2558     20.3646     4.3765      22.5       3.116       31.309        
2011-05-19T05:55:32Z    Tokyo_1       33.1883     138.8617    138.8617    34.5727     20.3775      -0.0123   21.2536     20.3649     4.3637      22.5       3.1102      31.2305       
2011-05-19T05:58:33Z    Tokyo_1       33.1942     138.8825    138.8825    34.5704     20.4052      -0.0106   21.262      20.3648     4.4052      22.5       3.2008      32.4304       
2011-05-19T06:01:26Z    Tokyo_1       33.2003     138.9036    138.9036    34.5752     20.4898      -0.0102   21.2768     20.3646     4.4794      22.5       3.2047      32.9651       
2011-05-19T06:04:27Z    Tokyo_1       33.2065     138.9245    138.9245    34.5864     20.379       -0.0218   21.2651     20.3649     4.4204      22.5       3.1995      32.542        
2011-05-19T06:07:29Z    Tokyo_1       33.2127     138.946     138.946     34.5903     20.2088      -0.0284   21.2558     20.3653     4.3726      22.5       3.1916      32.2094       
2011-05-19T06:10:30Z    Tokyo_1       33.2191     138.9678    138.9678    34.5913     20.0585      -0.0286   21.2838     20.3657     4.5078      22.5       3.1846      33.2231       
2011-05-19T06:13:32Z    Tokyo_1       33.2254     138.9892    138.9892    34.5919     19.8572      -0.0312   21.2396     20.3663     4.2879      22.5       3.1752      31.6258       
2011-05-19T06:16:33Z    Tokyo_1       33.2317     139.0101    139.0101    34.5889     19.6576      -0.0326   21.2542     20.3668     4.3569      22.5       3.1658      32.1583       
2011-05-19T06:19:26Z    Tokyo_1       33.2383     139.031     139.031     34.5866     19.7593      -0.0304   21.2782     20.3665     4.4761      22.5       3.1706      33.0264       
2011-05-19T06:22:27Z    Tokyo_1       33.245      139.0519    139.0519    34.5787     20.0039      -0.026    21.2615     20.3659     4.3977      22.5       3.1821      32.4215       
2011-05-19T06:25:29Z    Tokyo_1       33.2517     139.0731    139.0731    34.5239     19.8385      0.006     21.2665     20.3664     4.4193      22.5       3.1745      32.6124       
2011-05-19T06:28:30Z    Tokyo_1       33.2572     139.0942    139.0942    34.4944     20.092       0.0555    21.2793     20.3658     4.4854      22.5       3.1864      33.0759       
2011-05-19T06:31:32Z    Tokyo_1       33.263      139.1156    139.1156    34.4063     20.7991      0.0089    21.3384     20.3641     4.7845      22.5       3.2195      35.2097       
2011-05-19T07:13:26Z    Tokyo_1       33.3446     139.4111    139.4111    34.6212     22.6625      -0.0534   21.1418     20.3593     3.8434      22.5       3.5368      30.0174       
2011-05-19T07:16:27Z    Tokyo_1       33.3498     139.4319    139.4319    34.677      22.6806      -0.0652   21.1081     20.3591     3.6785      22.5       3.5374      28.7162       
2011-05-19T07:19:29Z    Tokyo_1       33.3546     139.4525    139.4525    34.6847     22.6442      -0.068    21.1066     20.3592     3.671       22.5       3.5357      28.661        
2011-05-19T07:22:30Z    Tokyo_1       33.3595     139.4737    139.4737    34.6865     22.6128      -0.0666   21.099      20.3593     3.6334      22.5       3.5343      28.3719       
2011-05-19T07:25:32Z    Tokyo_1       33.3641     139.4943    139.4943    34.6806     22.5652      -0.0603   21.0965     20.3594     3.6202      22.5       3.5321      28.2757       
2011-05-19T07:28:33Z    Tokyo_1       33.3686     139.5146    139.5146    34.6714     22.579       -0.064    21.0736     20.3594     3.5082      22.5       3.5328      27.4008       
2011-05-19T07:31:26Z    Tokyo_1       33.3732     139.5354    139.5354    34.672      22.5183      -0.0646   21.0935     20.3595     3.6051      22.5       3.53        28.1655       
2011-05-19T07:34:27Z    Tokyo_1       33.3777     139.5559    139.5559    34.6847     22.5817      -0.0631   21.0923     20.3594     3.6         22.5       3.5979      28.633        
2011-05-19T07:37:29Z    Tokyo_1       33.3821     139.5765    139.5765    34.697      22.4977      -0.057    21.0736     20.3595     3.5075      22.5       3.5937      27.9038       
2011-05-19T07:40:30Z    Tokyo_1       33.3868     139.5967    139.5967    34.6966     22.4228      -0.0541   21.0698     20.3597     3.4876      22.5       3.5901      27.7542       
2011-05-19T07:43:32Z    Tokyo_1       33.3922     139.6163    139.6163    34.6861     22.37        -0.0513   21.0857     20.3599     3.5652      22.5       3.5875      28.3793       
2011-05-19T07:46:33Z    Tokyo_1       33.3973     139.6362    139.6362    34.6905     22.2974      -0.0485   21.098      20.36       3.6245      22.5       3.735       30.0754       
2011-05-19T07:49:26Z    Tokyo_1       33.4025     139.6557    139.6557    34.695      22.3518      -0.0558   21.0756     20.3599     3.5153      22.5       3.7378      29.1622       
2011-05-19T07:52:27Z    Tokyo_1       33.409      139.6746    139.6746    34.695      22.3357      -0.0569   21.061      20.3599     3.4435      22.5       3.737       28.5682       
2011-05-19T07:55:29Z    Tokyo_1       33.4162     139.6932    139.6932    34.6954     22.3115      -0.0525   21.076      20.36       3.517       22.5       3.7357      29.1807       
2011-05-19T07:58:30Z    Tokyo_1       33.4226     139.7119    139.7119    34.6906     22.2332      -0.039    21.0667     20.3602     3.4701      22.5       3.7317      28.8018       
2011-05-19T08:01:32Z    Tokyo_1       33.4289     139.7312    139.7312    34.6855     22.2059      -0.0303   21.0697     20.3602     3.4844      22.5       3.7303      28.9245       
2011-05-19T08:04:33Z    Tokyo_1       33.4351     139.7499    139.7499    34.6763     22.4537      -0.0491   21.0562     20.3597     3.4209      22.5       3.7431      28.3719       
2011-05-19T08:07:26Z    Tokyo_1       33.4413     139.7687    139.7687    34.6757     22.528       -0.0545   21.0636     20.3595     3.4584      22.5       3.747       28.6743       
2011-05-19T08:10:27Z    Tokyo_1       33.4476     139.7875    139.7875    34.679      22.5567      -0.0537   21.0445     20.3594     3.365       22.5       3.7484      27.8964       
2011-05-19T08:13:29Z    Tokyo_1       33.4542     139.8065    139.8065    34.684      22.283       -0.0302   21.0421     20.3601     3.3497      22.5       3.7343      27.7985       
2011-05-19T08:16:30Z    Tokyo_1       33.4608     139.8262    139.8262    34.6898     22.0687      -0.0139   21.0502     20.3606     3.387       22.5       3.7232      28.1298       
2011-05-19T08:19:32Z    Tokyo_1       33.4667     139.8458    139.8458    34.6936     22.0206      -0.0066   21.0218     20.3607     3.2469      22.5       3.7206      26.9707       
2011-05-19T08:22:33Z    Tokyo_1       33.4716     139.8657    139.8657    34.6938     22.0919      -0.009    21.0409     20.3605     3.3417      22.5       3.7243      27.7502       
2011-05-19T08:25:26Z    Tokyo_1       33.4766     139.8853    139.8853    34.6904     22.4449      -0.0473   21.0499     20.3597     3.39        22.5       3.8814      29.1559       
2011-05-19T08:28:27Z    Tokyo_1       33.4811     139.9049    139.9049    34.6906     22.2555      -0.0437   21.0389     20.3601     3.3337      22.5       3.871       28.6909       
2011-05-19T08:31:29Z    Tokyo_1       33.4861     139.924     139.924     34.6924     22.2819      -0.0425   21.027      20.36       3.2758      22.5       3.8725      28.1903       
2011-05-19T08:34:30Z    Tokyo_1       33.4909     139.9431    139.9431    34.695      22.2676      -0.04     21.0422     20.3601     3.3505      22.5       3.8717      28.8334       
2011-05-19T08:37:32Z    Tokyo_1       33.4948     139.9589    139.9589    34.6967     22.253       -0.0322   21.0382     20.3601     3.3304      22.5       3.8709      28.6618       
2011-05-19T08:40:33Z    Tokyo_1       nd          nd          nd          nd          nd           nd        nd          nd          nd          nd         nd          nd            
2011-05-19T08:43:26Z    Tokyo_1       nd          nd          nd          nd          nd           nd        nd          nd          nd          nd         nd          nd            
2011-05-19T08:46:27Z    Tokyo_1       nd          nd          nd          nd          nd           nd        nd          nd          nd          nd         nd          nd            
2011-05-19T08:49:29Z    Tokyo_1       nd          nd          nd          nd          nd           nd        nd          nd          nd          nd         nd          nd            
2011-05-19T08:52:30Z    Tokyo_1       nd          nd          nd          nd          nd           nd        nd          nd          nd          nd         nd          nd            
2011-05-19T08:55:32Z    Tokyo_1       nd          nd          nd          nd          nd           nd        nd          nd          nd          nd         nd          nd            
2011-05-19T08:58:33Z    Tokyo_1       nd          nd          nd          nd          nd           nd        nd          nd          nd          nd         nd          nd            
2011-05-19T09:01:26Z    Tokyo_1       nd          nd          nd          nd          nd           nd        nd          nd          nd          nd         nd          nd            
2011-05-19T09:04:27Z    Tokyo_1       nd          nd          nd          nd          nd           nd        nd          nd          nd          nd         nd          nd            
2011-05-19T09:07:29Z    Tokyo_1       nd          nd          nd          nd          nd           nd        nd          nd          nd          nd         nd          nd            
2011-05-19T09:10:30Z    Tokyo_1       nd          nd          nd          nd          nd           nd        nd          nd          nd          nd         nd          nd            
2011-05-19T09:13:32Z    Tokyo_1       nd          nd          nd          nd          nd           nd        nd          nd          nd          nd         nd          nd            
2011-05-19T09:16:33Z    Tokyo_1       nd          nd          nd          nd          nd           nd        nd          nd          nd          nd         nd          nd            
2011-05-19T09:19:26Z    Tokyo_1       nd          nd          nd          nd          nd           nd        nd          nd          nd          nd         nd          nd            
2011-05-19T09:22:27Z    Tokyo_1       nd          nd          nd          nd          nd           nd        nd          nd          nd          nd         nd          nd            
2011-05-19T09:25:29Z    Tokyo_1       nd          nd          nd          nd          nd           nd        nd          nd          nd          nd         nd          nd            
2011-05-19T09:28:30Z    Tokyo_1       nd          nd          nd          nd          nd           nd        nd          nd          nd          nd         nd          nd            
2011-05-19T09:31:32Z    Tokyo_1       nd          nd          nd          nd          nd           nd        nd          nd          nd          nd         nd          nd            
2011-05-19T10:13:26Z    Tokyo_1       33.7789     140.5194    140.5194    34.6991     20.9845      0.0164    21.0447     20.3632     3.3467      27.5       4.3102      32.8067       
2011-05-19T10:16:27Z    Tokyo_1       33.789      140.5366    140.5366    34.7012     21.168       -0        21.0234     20.3627     3.2445      27.5       4.3235      31.7967       
2011-05-19T10:19:29Z    Tokyo_1       33.7988     140.5538    140.5538    34.7073     21.3031      -0.0172   21.0185     20.3624     3.222       27.5       4.3333      31.5702       
2011-05-19T10:22:30Z    Tokyo_1       33.8087     140.5716    140.5716    34.7118     21.4909      -0.0357   21.0362     20.3619     3.3113      27.5       4.3468      32.4358       
2011-05-19T10:25:32Z    Tokyo_1       33.8187     140.5894    140.5894    34.7139     21.602       -0.0364   21.0253     20.3616     3.2595      27.5       4.3548      31.9233       
2011-05-19T10:28:33Z    Tokyo_1       33.8287     140.6073    140.6073    34.7125     21.547       -0.0363   21.0497     20.3618     3.3785      27.5       4.3509      33.0916       
2011-05-19T10:31:26Z    Tokyo_1       33.8388     140.625     140.625     34.7119     21.4113      -0.0309   21.0399     20.3621     3.3288      27.5       4.3411      32.611        
2011-05-19T10:34:27Z    Tokyo_1       33.8491     140.643     140.643     34.7165     21.4344      -0.028    21.0464     20.362      3.361       27.5       4.3533      33.0042       
2011-05-19T10:37:29Z    Tokyo_1       33.8588     140.6613    140.6613    34.7154     21.5177      -0.0295   21.0478     20.3618     3.369       27.5       4.3594      33.0797       
2011-05-19T10:40:30Z    Tokyo_1       33.8684     140.6798    140.6798    34.7122     21.499       -0.0301   21.0506     20.3619     3.3822      27.5       4.358       33.2104       
2011-05-19T10:43:32Z    Tokyo_1       33.8777     140.698     140.698     34.7044     21.4589      -0.0225   21.0469     20.362      3.3637      27.5       4.3853      33.2618       
2011-05-19T10:46:33Z    Tokyo_1       33.887      140.7167    140.7167    34.707      21.4821      -0.0019   21.0539     20.3619     3.3984      27.5       4.387       33.6033       
2011-05-19T10:49:26Z    Tokyo_1       33.8964     140.7352    140.7352    34.7087     21.5137      0.0083    21.0343     20.3619     3.3025      27.5       4.3894      32.654        
2011-05-19T10:52:27Z    Tokyo_1       33.9054     140.7535    140.7535    34.7069     21.5533      0.0086    21.0458     20.3618     3.3596      27.5       4.3924      33.2183       
2011-05-19T10:55:29Z    Tokyo_1       33.9145     140.7725    140.7725    34.7111     21.6001      0.0127    21.0581     20.3616     3.4202      27.5       4.3959      33.8153       
2011-05-19T10:58:30Z    Tokyo_1       33.9232     140.7913    140.7913    34.7094     21.6192      0.0013    21.0589     20.3616     3.4246      27.5       4.3974      33.8585       
2011-05-19T11:01:32Z    Tokyo_1       33.932      140.8103    140.8103    34.7094     21.6391      -0.0136   21.038      20.3616     3.322       27.5       4.3989      32.8436       
2011-05-19T11:04:33Z    Tokyo_1       33.9411     140.8294    140.8294    34.7088     21.5877      -0.0375   21.0576     20.3617     3.418       27.5       4.395       33.7937       
2011-05-19T11:07:26Z    Tokyo_1       33.9507     140.8484    140.8484    34.7054     21.3764      -0.0392   21.0467     20.3622     3.3615      27.5       4.3791      33.2414       
2011-05-19T11:10:27Z    Tokyo_1       33.9604     140.867     140.867     34.7016     21.2385      -0.0445   21.0469     20.3625     3.361       27.5       4.3687      33.2407       
2011-05-19T11:13:29Z    Tokyo_1       33.9697     140.8846    140.8846    34.6865     20.9831      -0.0477   21.0586     20.3632     3.415       27.5       4.3697      33.9411       
2011-05-19T11:16:30Z    Tokyo_1       33.9796     140.9025    140.9025    34.6312     20.2392      -0.0563   21.0776     20.3652     3.498       27.5       4.3131      34.7941       
2011-05-19T11:19:32Z    Tokyo_1       33.9897     140.9202    140.9202    34.6272     20.1892      -0.0563   21.0739     20.3653     3.4791      27.5       4.3093      34.6072       
2011-05-19T11:22:33Z    Tokyo_1       34.319      140.9375    140.9375    34.655      20.5631      -0.0516   21.0834     20.3643     3.5312      27.5       4.3031      34.8309       
2011-05-19T11:25:26Z    Tokyo_1       34.0094     140.955     140.955     34.668      20.859       -0.0518   21.07       20.3635     3.469       27.5       4.3603      34.4848       
2011-05-19T11:28:27Z    Tokyo_1       34.0192     140.9727    140.9727    34.697      21.4111      -0.0399   21.0835     20.3621     3.5426      27.5       4.4021      35.1962       
2011-05-19T11:31:29Z    Tokyo_1       34.0289     140.9906    140.9906    34.7204     21.7335      -0.0301   21.1014     20.3613     3.6347      27.5       4.4264      36.0971       
2011-05-19T11:34:30Z    Tokyo_1       34.0382     141.0083    141.0083    34.7229     21.825       -0.0234   21.0879     20.3611     3.5694      22.5       4.1645      33.2963       
2011-05-19T11:37:32Z    Tokyo_1       34.0473     141.0261    141.0261    34.7166     21.8221      -0.02     21.0649     20.3611     3.4564      22.5       4.1644      32.2443       
2011-05-19T11:40:33Z    Tokyo_1       34.0563     141.0439    141.0439    34.7136     21.8166      -0.0076   21.0796     20.3611     3.5285      22.5       4.164       32.9173       
2011-05-19T11:43:26Z    Tokyo_1       34.0656     141.0621    141.0621    34.7099     21.8065      -0.0071   21.0824     20.3611     3.5423      22.5       4.1634      33.0474       
2011-05-19T11:46:27Z    Tokyo_1       34.075      141.0808    141.0808    34.713      21.7893      -0.0012   21.1135     20.3612     3.6947      22.5       4.1622      34.4695       
2011-05-19T11:49:29Z    Tokyo_1       34.0842     141.0992    141.0992    34.7125     21.7809      -0.0042   21.0736     20.3612     3.4989      22.5       4.1617      32.6438       
2011-05-19T11:52:30Z    Tokyo_1       34.093      141.1169    141.1169    34.7185     21.8086      -0.0217   21.0748     20.3611     3.5052      22.5       4.1635      32.6997       
2011-05-19T11:55:32Z    Tokyo_1       34.102      141.1355    141.1355    34.722      21.8696      -0.036    21.079      20.361      3.5264      22.5       4.2109      33.235        
2011-05-19T11:58:33Z    Tokyo_1       34.1111     141.1539    141.1539    34.7203     21.9182      -0.0382   21.0806     20.3609     3.5349      22.5       4.2141      33.3122       
2011-05-19T12:01:26Z    Tokyo_1       34.1205     141.1721    141.1721    34.7198     21.8987      -0.0387   21.0926     20.3609     3.5938      22.5       4.2128      33.8692       
2011-05-19T12:04:27Z    Tokyo_1       34.1299     141.1905    141.1905    34.7206     21.9341      -0.035    21.0802     20.3608     3.5332      22.5       4.2045      33.211        
2011-05-19T12:07:29Z    Tokyo_1       34.1393     141.2088    141.2088    34.7133     21.9988      -0.0282   21.1123     20.3607     3.6914      22.5       4.209       34.6973       
2011-05-19T12:10:30Z    Tokyo_1       34.1486     141.2273    141.2273    34.7095     22.0663      -0.0289   21.1001     20.3605     3.6322      22.5       4.2137      34.1382       
2011-05-19T12:13:32Z    Tokyo_1       34.1578     141.2458    141.2458    34.7135     22.0983      -0.0286   21.0869     20.3604     3.5679      22.5       4.2159      33.5317       
2011-05-19T12:16:33Z    Tokyo_1       34.1671     141.2645    141.2645    34.7098     22.1317      -0.0335   21.0967     20.3604     3.6164      22.5       4.2182      33.9869       
2011-05-19T12:19:26Z    Tokyo_1       34.1761     141.2833    141.2833    34.7103     22.1242      -0.0406   21.0851     20.3604     3.5592      22.5       4.2177      33.4488       
2011-05-19T12:22:27Z    Tokyo_1       34.1848     141.3015    141.3015    34.711      22.1044      -0.039    21.0919     20.3604     3.5928      22.5       4.2163      33.7655       
2011-05-19T12:25:29Z    Tokyo_1       34.1939     141.3204    141.3204    34.701      22.0572      -0.0328   21.0808     20.3606     3.5373      22.5       4.2131      33.2486       
2011-05-19T12:28:30Z    Tokyo_1       34.2028     141.3389    141.3389    34.686      22.0658      -0.0347   21.0637     20.3606     3.4535      22.5       4.2138      32.4642       
2011-05-19T12:31:32Z    Tokyo_1       34.2123     141.3572    141.3572    34.6697     22.0767      -0.038    21.0804     20.3606     3.5354      22.5       4.2146      33.2372       
2011-05-19T13:13:26Z    Tokyo_1       34.3483     141.6154    141.6154    34.4594     21.9795      -0.0447   21.0905     20.3611     3.5823      22.5       4.2641      34.1747       
2011-05-19T13:16:27Z    Tokyo_1       34.3586     141.6334    141.6334    34.4309     21.9869      -0.0461   21.0771     20.3611     3.5165      22.5       4.3251      34.0271       
2011-05-19T13:19:29Z    Tokyo_1       34.3691     141.6514    141.6514    34.3981     22.0346      -0.0435   21.0958     20.361      3.6086      22.5       4.3285      34.9234       
2011-05-19T13:22:30Z    Tokyo_1       34.3802     141.6689    141.6689    34.3732     21.9732      -0.039    21.1111     20.3612     3.6831      22.5       4.2389      34.9494       
2011-05-19T13:25:32Z    Tokyo_1       34.3912     141.6866    141.6866    34.3405     21.8856      -0.0313   21.1067     20.3615     3.6603      22.5       4.2329      34.7444       
2011-05-19T13:28:33Z    Tokyo_1       34.4013     141.7045    141.7045    34.2986     21.9072      0.0012    21.119      20.3615     3.7203      22.5       4.2346      35.3235       
2011-05-19T13:31:26Z    Tokyo_1       34.4113     141.7222    141.7222    34.2454     21.886       0.0898    21.1274     20.3616     3.761       22.5       4.2333      35.7238       
2011-05-19T13:34:27Z    Tokyo_1       34.4216     141.7399    141.7399    34.2117     21.8366      0.117     21.1321     20.3617     3.7833      22.5       4.23        35.9465       
2011-05-19T13:37:29Z    Tokyo_1       34.4319     141.7578    141.7578    34.1873     21.8489      0.0312    21.1119     20.3618     3.6843      22.5       4.231       35.0108       
2011-05-19T13:40:30Z    Tokyo_1       34.4418     141.7757    141.7757    34.1588     21.8809      -0.0042   21.1163     20.3617     3.7059      22.5       4.2334      35.2217       
2011-05-19T13:43:32Z    Tokyo_1       34.4514     141.794     141.794     34.1218     21.9009      -0.0218   21.1163     20.3617     3.706       22.5       4.2349      35.2311       
2011-05-19T13:46:33Z    Tokyo_1       34.4609     141.8125    141.8125    34.073      21.9194      -0.0309   21.1225     20.3617     3.7361      22.5       4.2365      35.5277       
2011-05-19T13:49:26Z    Tokyo_1       34.4705     141.8315    141.8315    34.038      21.956       -0.032    21.1337     20.3617     3.7916      22.5       4.2392      36.063        
2011-05-19T13:52:27Z    Tokyo_1       34.4798     141.8499    141.8499    33.9781     21.9603      -0.0308   21.1291     20.3618     3.7685      22.5       4.2398      35.8583       
2011-05-19T13:55:29Z    Tokyo_1       34.4892     141.8682    141.8682    33.9399     21.9317      -0.0325   21.1379     20.3619     3.8109      22.5       4.2379      36.2724       
2011-05-19T13:58:30Z    Tokyo_1       34.4986     141.8868    141.8868    33.8977     21.9251      -0.0323   21.1222     20.362      3.7334      22.5       4.2208      35.4042       
2011-05-19T14:01:32Z    Tokyo_1       34.508      141.9054    141.9054    33.8644     21.9265      -0.0303   21.1127     20.362      3.6869      22.5       4.2211      34.9717       
2011-05-19T14:04:33Z    Tokyo_1       34.5175     141.9241    141.9241    33.8307     21.924       -0.0272   21.1376     20.3621     3.8087      22.5       4.2211      36.135        
2011-05-19T14:07:26Z    Tokyo_1       34.5271     141.943     141.943     33.7985     21.9061      -0.0267   21.123      20.3621     3.7364      22.5       4.2199      35.4573       
2011-05-19T14:10:27Z    Tokyo_1       34.5365     141.9614    141.9614    33.7689     21.8528      -0.0249   21.1365     20.3623     3.8023      22.5       4.216       36.0902       
2011-05-19T14:13:29Z    Tokyo_1       34.546      141.9797    141.9797    33.7255     21.8799      -0.0269   21.1239     20.3623     3.7405      22.5       4.2183      35.5138       
2011-05-19T14:16:30Z    Tokyo_1       34.5556     141.9984    141.9984    33.6866     21.8757      -0.0286   21.1367     20.3624     3.8028      22.5       4.2181      36.1154       
2011-05-19T14:19:32Z    Tokyo_1       34.5651     142.017     142.017     33.6351     21.8616      -0.0305   21.1293     20.3625     3.7661      22.5       4.2173      35.7797       
2011-05-19T14:22:33Z    Tokyo_1       34.5747     142.0358    142.0358    33.6        21.8643      -0.0331   21.1429     20.3625     3.8323      22.5       4.2177      36.4174       
2011-05-19T14:25:26Z    Tokyo_1       34.5842     142.0547    142.0547    33.5736     21.8734      -0.0334   21.1441     20.3625     3.8384      22.5       4.2185      36.4823       
2011-05-19T14:28:27Z    Tokyo_1       34.5938     142.0737    142.0737    33.5428     21.8969      -0.0348   21.1328     20.3625     3.7828      22.5       4.2204      35.9611       
2011-05-19T14:31:29Z    Tokyo_1       34.6034     142.0933    142.0933    33.5139     21.9334      -0.0376   21.1316     20.3625     3.7773      22.5       4.2233      35.9156       
2011-05-19T14:34:30Z    Tokyo_1       34.6129     142.1125    142.1125    33.4909     21.9369      -0.0406   21.1348     20.3625     3.7927      22.5       4.2236      36.0687       
2011-05-19T14:37:32Z    Tokyo_1       34.6221     142.1314    142.1314    33.4626     21.8936      -0.0395   21.1233     20.3626     3.7357      22.5       4.2427      35.7207       
2011-05-19T14:40:33Z    Tokyo_1       34.6313     142.1501    142.1501    33.4318     21.8583      -0.0294   21.1431     20.3627     3.8322      22.5       3.8581      33.3485       
2011-05-19T14:43:26Z    Tokyo_1       34.6405     142.169     142.169     33.4074     21.8658      -0.0287   21.1425     20.3628     3.8292      22.5       3.8588      33.3282       
2011-05-19T14:46:27Z    Tokyo_1       34.6497     142.1883    142.1883    33.3728     21.8807      -0.0323   21.1265     20.3628     3.7509      22.5       3.8602      32.6558       
2011-05-19T14:49:29Z    Tokyo_1       34.6587     142.2073    142.2073    33.3531     21.8666      -0.029    21.1284     20.3628     3.7595      22.5       3.8592      32.7345       
2011-05-19T14:52:30Z    Tokyo_1       34.6676     142.2264    142.2264    33.3291     21.8766      -0.0203   21.1479     20.3628     3.8555      22.5       3.8601      33.5772       
2011-05-19T14:55:32Z    Tokyo_1       34.677      142.2455    142.2455    33.2975     21.9637      -0.0354   21.1392     20.3627     3.8137      22.5       3.867       33.2273       
2011-05-19T14:58:33Z    Tokyo_1       34.6866     142.2643    142.2643    33.2738     21.967       -0.0369   21.1343     20.3627     3.7894      22.5       3.8673      33.0212       
2011-05-19T15:01:26Z    Tokyo_1       34.6957     142.2827    142.2827    33.2545     22.0167      -0.0387   21.1529     20.3626     3.8813      22.5       3.8713      33.8304       
2011-05-19T15:04:27Z    Tokyo_1       34.7047     142.3011    142.3011    33.2321     22.0397      -0.0412   21.127      20.3626     3.7542      22.5       3.8732      32.7296       
2011-05-19T15:07:29Z    Tokyo_1       34.7136     142.3196    142.3196    33.2084     22.0126      -0.04     21.1357     20.3627     3.7963      22.5       3.8712      33.0999       
2011-05-19T15:10:30Z    Tokyo_1       34.7227     142.3379    142.3379    33.1887     21.9674      -0.0082   21.135      20.3628     3.7921      22.5       3.8678      33.0647       
2011-05-19T15:13:32Z    Tokyo_1       34.7318     142.3561    142.3561    33.1555     21.9192      -0.0001   21.1275     20.363      3.7544      22.5       3.8642      32.7398       
2011-05-19T15:16:33Z    Tokyo_1       34.7406     142.3737    142.3737    33.1286     21.8945      0.0067    21.12       20.3631     3.717       22.5       3.8624      32.418        
2011-05-19T15:19:26Z    Tokyo_1       34.7499     142.3912    142.3912    33.1068     21.5865      -0.0119   21.15       20.3638     3.8605      22.5       3.8784      33.9998       
2011-05-19T15:22:27Z    Tokyo_1       34.7597     142.4088    142.4088    33.058      20.8256      -0.0222   21.1267     20.3658     3.7358      22.5       3.8193      32.8587       
2011-05-19T15:25:29Z    Tokyo_1       34.7692     142.4255    142.4255    33.0327     20.7057      -0.0057   21.136      20.3662     3.7801      22.5       3.8101      33.2455       
2011-05-19T15:28:30Z    Tokyo_1       34.7787     142.4419    142.4419    33.0173     20.6892      0.0168    21.136      20.3662     3.7796      22.5       3.8089      33.2428       
2011-05-19T15:31:32Z    Tokyo_1       34.7889     142.4587    142.4587    33.0045     20.6912      0.0218    21.1453     20.3663     3.8252      22.5       3.8091      33.6475       
2011-05-19T16:13:26Z    Tokyo_1       34.922      142.7029    142.7029    32.8179     20.1358      -0.0227   21.1842     20.368      4.0073      22.5       3.65        34.1591       
2011-05-19T16:16:27Z    Tokyo_1       34.9305     142.7215    142.7215    32.79       20.1221      -0.0209   21.1877     20.3681     4.0241      22.5       3.6491      34.3085       
2011-05-19T16:19:29Z    Tokyo_1       34.939      142.7403    142.7403    32.7781     20.2809      -0.0136   21.1655     20.3676     3.9174      22.5       3.6613      33.4145       
2011-05-19T16:22:30Z    Tokyo_1       34.9474     142.7588    142.7588    32.7609     20.2904      -0.0087   21.1979     20.3676     4.0765      22.5       3.6621      34.7766       
2011-05-19T16:25:32Z    Tokyo_1       34.9558     142.7774    142.7774    32.7377     20.2738      -0.0098   21.2164     20.3677     4.1668      22.5       3.6609      35.5514       
2011-05-19T16:28:33Z    Tokyo_1       34.9641     142.7959    142.7959    32.7167     20.2088      -0.0137   21.2223     20.3679     4.1947      22.5       3.656       35.7889       
2011-05-19T16:31:26Z    Tokyo_1       34.9725     142.8149    142.8149    32.7008     20.2514      -0.0202   21.2004     20.3678     4.0875      22.5       3.6593      34.8817       
2011-05-19T16:34:27Z    Tokyo_1       34.9813     142.8334    142.8334    32.6837     20.3099      -0.0063   21.2207     20.3677     4.188       22.5       3.6639      35.7496       
2011-05-19T16:37:29Z    Tokyo_1       34.9899     142.8511    142.8511    32.6597     20.2765      0.0135    21.2145     20.3678     4.1568      22.5       3.6614      35.486        
2011-05-19T16:40:30Z    Tokyo_1       35.2447     142.8695    142.8695    32.6461     20.3349      0.0208    21.2123     20.3677     4.1468      17.5       3.4075      32.9128       
2011-05-19T16:43:32Z    Tokyo_1       35.0078     142.888     142.888     32.6343     20.3409      0.005     21.2049     20.3677     4.1107      17.5       3.6041      34.5076       
2011-05-19T16:46:33Z    Tokyo_1       35.0168     142.9067    142.9067    32.6163     20.343       -0.0217   21.2182     20.3677     4.1757      17.5       3.6043      35.0577       
2011-05-19T16:49:26Z    Tokyo_1       35.0258     142.9256    142.9256    32.6052     20.3625      -0.0327   21.2136     20.3677     4.1532      17.5       3.6058      34.8728       
2011-05-19T16:52:27Z    Tokyo_1       35.0348     142.9441    142.9441    32.5908     20.3827      -0.0251   21.2312     20.3676     4.2398      17.5       3.6074      35.6058       
2011-05-19T16:55:29Z    Tokyo_1       35.0439     142.9628    142.9628    32.5728     20.363       -0.0244   21.2473     20.3677     4.3186      17.5       3.606       36.2706       
2011-05-19T16:58:30Z    Tokyo_1       35.053      142.9818    142.9818    32.5556     20.2929      -0.0207   21.2275     20.3679     4.2205      17.5       3.6008      35.444        
2011-05-19T17:01:32Z    Tokyo_1       35.0621     143.0009    143.0009    32.5375     20.2454      -0.0232   21.2132     20.3681     4.1495      22.5       3.7378      36.209        
2011-05-19T17:04:33Z    Tokyo_1       35.0712     143.0199    143.0199    32.5194     20.2172      -0.0248   21.2197     20.3682     4.1807      22.5       3.7357      36.4842       
2011-05-19T17:07:26Z    Tokyo_1       35.0807     143.0391    143.0391    32.5071     20.1911      -0.0242   21.2278     20.3683     4.2201      22.5       3.7337      36.8287       
2011-05-19T17:10:27Z    Tokyo_1       35.0902     143.058     143.058     32.4907     20.2005      -0.0234   21.2377     20.3683     4.2685      22.5       3.7345      37.2564       
2011-05-19T17:13:29Z    Tokyo_1       35.0999     143.0771    143.0771    32.4834     20.1646      -0.0262   21.2438     20.3684     4.2978      22.5       3.7318      37.5106       
2011-05-19T17:16:30Z    Tokyo_1       35.1095     143.0962    143.0962    32.463      20.2137      -0.0283   21.2386     20.3683     4.2728      22.5       3.7357      37.3023       
2011-05-19T17:19:32Z    Tokyo_1       35.1194     143.1151    143.1151    32.4524     20.2995      -0.0196   21.259      20.368      4.3743      22.5       3.7424      38.1992       
2011-05-19T17:22:33Z    Tokyo_1       35.1294     143.1348    143.1348    32.4405     20.3026      -0.0217   21.2407     20.368      4.2845      22.5       3.6682      36.6736       
2011-05-19T17:25:26Z    Tokyo_1       35.1392     143.1539    143.1539    32.4237     20.2915      -0.0359   21.229      20.3681     4.2267      22.5       3.6674      36.1823       
2011-05-19T17:28:27Z    Tokyo_1       35.1486     143.1724    143.1724    32.401      20.209       -0.0384   21.2517     20.3684     4.3368      22.5       3.6613      37.1235       
2011-05-19T17:31:29Z    Tokyo_1       35.1586     143.1916    143.1916    32.3781     19.9601      -0.0375   21.2403     20.3691     4.2773      22.5       3.6426      36.5988       
2011-05-19T17:34:30Z    Tokyo_1       35.169      143.211     143.211     32.3476     19.8844      -0.0422   21.2282     20.3693     4.2168      22.5       3.637       36.0832       
2011-05-19T17:37:32Z    Tokyo_1       35.1793     143.2302    143.2302    32.3265     19.9574      -0.0484   21.2313     20.3691     4.2329      22.5       3.6426      36.2324       
2011-05-19T17:40:33Z    Tokyo_1       35.1897     143.2496    143.2496    32.3323     20.24        -0.044    21.2048     20.3684     4.1068      22.5       3.6639      35.1745       
2011-05-19T17:43:26Z    Tokyo_1       35.2001     143.2692    143.2692    32.3652     20.4996      -0.0286   21.2248     20.3676     4.2084      22.5       3.6835      36.058        
2011-05-19T17:46:27Z    Tokyo_1       35.2107     143.2891    143.2891    32.3768     20.6367      -0.0235   21.2009     20.3673     4.0933      22.5       3.6938      35.0803       
2011-05-19T17:49:29Z    Tokyo_1       35.221      143.309     143.309     32.3614     20.7035      -0.0172   21.2153     20.3671     4.1648      22.5       3.699       35.7021       
2011-05-19T17:52:30Z    Tokyo_1       35.2312     143.3286    143.3286    32.3532     20.7365      -0.0079   21.2157     20.367      4.1668      22.5       3.7015      35.7239       
2011-05-19T17:55:32Z    Tokyo_1       35.2413     143.3486    143.3486    32.3377     20.7595      0.0014    21.2245     20.367      4.2103      22.5       3.7033      36.1033       
2011-05-19T17:58:33Z    Tokyo_1       35.2514     143.3688    143.3688    32.3207     20.7689      0.006     21.2012     20.367      4.0958      22.5       3.7041      35.126        
2011-05-19T18:01:26Z    Tokyo_1       35.2614     143.3889    143.3889    32.3026     20.7762      0.0102    21.2277     20.367      4.2262      22.5       3.7707      36.8953       
2011-05-19T18:04:27Z    Tokyo_1       35.2714     143.4092    143.4092    32.2852     20.8151      0.0089    21.2308     20.3669     4.2414      22.5       3.7738      37.0357       
2011-05-19T18:07:29Z    Tokyo_1       35.2814     143.4295    143.4295    34.2723     20.821       -0.0098   21.243      20.3642     4.3155      22.5       3.7651      37.155        
2011-05-19T18:10:30Z    Tokyo_1       35.2909     143.4503    143.4503    34.6475     20.8057      -0.011    21.2218     20.3637     4.2137      22.5       3.7622      36.1807       
2011-05-19T18:13:32Z    Tokyo_1       35.3004     143.4713    143.4713    34.6409     20.8085      -0.0066   21.2474     20.3637     4.3397      22.5       3.7624      37.2651       
2011-05-19T18:16:33Z    Tokyo_1       35.3096     143.492     143.492     34.6293     20.8743      -0.0167   21.2407     20.3636     4.3074      22.5       3.7676      36.9959       
2011-05-19T18:19:26Z    Tokyo_1       35.3187     143.5125    143.5125    34.6204     20.9063      -0.0224   21.2437     20.3635     4.3223      22.5       3.7701      37.1297       
2011-05-19T18:22:27Z    Tokyo_1       35.3277     143.5329    143.5329    34.6131     20.889       -0.0199   21.2576     20.3635     4.3903      22.5       3.7688      37.714        
2011-05-19T18:25:29Z    Tokyo_1       35.3369     143.5539    143.5539    34.6053     20.8594      -0.017    21.2411     20.3636     4.3091      22.5       3.7665      37.0158       
2011-05-19T18:28:30Z    Tokyo_1       35.3462     143.5749    143.5749    34.5984     20.8411      -0.0176   21.2429     20.3637     4.3175      22.5       3.7651      37.0883       
2011-05-19T18:31:32Z    Tokyo_1       35.3556     143.5956    143.5956    34.5915     20.8479      -0.0201   21.2402     20.3637     4.3045      22.5       3.7657      36.9785       
2011-05-19T19:13:26Z    Tokyo_1       35.4925     143.8804    143.8804    34.501      21.2397      -0.0259   21.2642     20.3628     4.4267      22.5       3.8496      38.6228       
2011-05-19T19:16:27Z    Tokyo_1       35.5021     143.9005    143.9005    34.4943     21.2433      -0.0237   21.2827     20.3628     4.5175      22.5       3.8499      39.4174       
2011-05-19T19:19:29Z    Tokyo_1       35.512      143.9213    143.9213    34.4806     21.3305      -0.0239   21.2891     20.3626     4.5498      22.5       3.8569      39.7123       
2011-05-19T19:22:30Z    Tokyo_1       35.5216     143.9412    143.9412    34.4532     21.339       -0.0211   21.3048     20.3626     4.6269      22.5       3.8578      40.3946       
2011-05-19T19:25:32Z    Tokyo_1       35.5308     143.9604    143.9604    34.4298     21.3094      -0.0247   21.2754     20.3627     4.4822      22.5       3.8555      39.1347       
2011-05-19T19:28:33Z    Tokyo_1       35.5403     143.9801    143.9801    34.4061     21.2776      -0.0222   21.2768     20.3629     4.4883      22.5       3.8531      39.1908       
2011-05-19T19:31:26Z    Tokyo_1       35.55       144.0002    144.0002    34.381      21.252       -0.0064   21.3117     20.363      4.6593      22.5       3.8512      40.6881       
2011-05-19T19:34:27Z    Tokyo_1       35.5597     144.0203    144.0203    34.3493     21.2532      -0.013    21.2943     20.363      4.5734      22.5       3.8514      39.9476       
2011-05-19T19:37:29Z    Tokyo_1       35.5693     144.0403    144.0403    34.3212     21.2493      -0.0207   21.3152     20.363      4.6758      22.5       3.8512      40.8499       
2011-05-19T19:40:30Z    Tokyo_1       35.5786     144.0599    144.0599    34.2997     21.2003      -0.0191   21.3223     20.3632     4.7098      22.5       3.8474      41.1472       
2011-05-19T19:43:32Z    Tokyo_1       35.588      144.0795    144.0795    34.2816     21.113       -0.0047   21.3288     20.3634     4.7406      22.5       3.8406      41.4117       
2011-05-19T19:46:33Z    Tokyo_1       35.5978     144.0995    144.0995    34.2453     21.0701      0.0005    21.3286     20.3636     4.7388      22.5       3.8373      41.402        
2011-05-19T19:49:26Z    Tokyo_1       35.6074     144.1195    144.1195    34.2158     21.084       -0.0069   21.3307     20.3636     4.7491      22.5       3.8386      41.5027       
2011-05-19T19:52:27Z    Tokyo_1       35.617      144.139     144.139     34.1885     21.0645      -0.0084   21.3403     20.3637     4.7958      22.5       3.9477      43.1237       
2011-05-19T19:55:29Z    Tokyo_1       35.627      144.1586    144.1586    34.1629     21.0641      -0.0091   21.3278     20.3637     4.7342      22.5       3.9844      42.9725       
2011-05-19T19:58:30Z    Tokyo_1       35.637      144.1782    144.1782    34.1209     21.0597      -0.0085   21.3301     20.3638     4.7453      22.5       3.9843      43.0865       
2011-05-19T20:01:32Z    Tokyo_1       35.6471     144.198     144.198     34.0969     21.1173      -0.0142   21.346      20.3637     4.8237      22.5       3.989       43.8104       
2011-05-19T20:04:33Z    Tokyo_1       35.6573     144.2179    144.2179    34.0763     21.1106      -0.0142   21.3586     20.3637     4.8853      22.5       3.9885      44.376        
2011-05-19T20:07:26Z    Tokyo_1       35.6674     144.2374    144.2374    34.0484     21.0701      -0.0159   21.3711     20.3639     4.9463      22.5       3.9854      44.935        
2011-05-19T20:10:27Z    Tokyo_1       35.6774     144.2565    144.2565    34.0067     21.059       -0.0123   21.3538     20.3639     4.8608      22.5       3.9848      44.1704       
2011-05-19T20:13:29Z    Tokyo_1       35.6879     144.2768    144.2768    33.9666     21.0827      -0.012    21.3451     20.3639     4.8182      22.5       3.9868      43.7974       
2011-05-19T20:16:30Z    Tokyo_1       35.6981     144.2968    144.2968    33.9508     21.1138      -0.0139   21.3733     20.3639     4.9568      22.5       3.9894      45.0653       
2011-05-19T20:19:32Z    Tokyo_1       35.7078     144.3156    144.3156    33.9358     21.2426      -0.0222   21.3872     20.3636     5.0268      22.5       3.9998      45.7188       
2011-05-19T20:22:33Z    Tokyo_1       35.7181     144.3349    144.3349    33.9136     21.3718      -0.0248   21.3639     20.3633     4.9137      22.5       4.0102      44.7078       
2011-05-19T20:25:26Z    Tokyo_1       35.7285     144.3552    144.3552    33.8822     21.4727      -0.0201   21.3642     20.3631     4.9166      22.5       4.0184      44.7531       
2011-05-19T20:28:27Z    Tokyo_1       35.7383     144.3748    144.3748    33.8514     21.5873      -0.0286   21.3644     20.3628     4.9183      22.5       4.0277      44.7889       
2011-05-19T20:31:29Z    Tokyo_1       35.748      144.3943    144.3943    33.8265     21.619       -0.0347   21.3823     20.3628     5.0068      22.5       4.1889      47.3985       
2011-05-19T20:34:30Z    Tokyo_1       35.758      144.4146    144.4146    33.7931     21.6408      -0.0357   21.3837     20.3628     5.0136      22.5       4.1909      47.4763       
2011-05-19T20:37:32Z    Tokyo_1       35.768      144.4349    144.4349    33.7608     21.6349      -0.0394   21.3695     20.3628     4.9438      22.5       4.1905      46.8247       
2011-05-19T20:40:33Z    Tokyo_1       35.7777     144.4548    144.4548    33.7189     21.5943      -0.0381   21.3789     20.363      4.9888      22.5       4.1874      47.2613       
2011-05-19T20:43:26Z    Tokyo_1       35.7875     144.4743    144.4743    33.6757     21.5575      -0.0342   21.3796     20.3632     4.9916      22.5       4.1845      47.299        
2011-05-19T20:46:27Z    Tokyo_1       35.7974     144.4944    144.4944    33.6401     21.5478      -0.0303   21.4006     20.3632     5.0945      22.5       4.1839      48.285        
2011-05-19T20:49:29Z    Tokyo_1       35.8073     144.5148    144.5148    33.6099     21.5645      -0.031    21.3816     20.3632     5.0011      22.5       4.1854      47.412        
2011-05-19T20:52:30Z    Tokyo_1       35.8171     144.535     144.535     33.5752     21.5663      -0.0297   21.3987     20.3633     5.085       22.5       4.1858      48.2195       
2011-05-19T20:55:32Z    Tokyo_1       35.8271     144.5556    144.5556    33.5365     21.5721      -0.0275   21.4196     20.3633     5.1873      22.5       4.1864      49.2036       
2011-05-19T20:58:33Z    Tokyo_1       35.8369     144.5761    144.5761    33.5178     21.5748      -0.0253   21.3993     20.3633     5.0874      22.5       4.1868      48.2621       
2011-05-19T21:01:26Z    Tokyo_1       35.8468     144.5967    144.5967    33.4995     21.5663      -0.0194   21.4011     20.3634     5.0962      22.5       4.1862      48.3515       
2011-05-19T21:04:27Z    Tokyo_1       35.8564     144.6173    144.6173    33.4802     21.5581      -0.0157   21.4062     20.3634     5.121       22.5       4.1856      48.5922       
2011-05-19T21:07:29Z    Tokyo_1       35.8658     144.6381    144.6381    33.4665     21.6224      -0.0294   21.3951     20.3633     5.0669      22.5       4.2699      48.9945       
2011-05-19T21:10:30Z    Tokyo_1       35.8751     144.6591    144.6591    33.4447     21.6526      -0.0362   21.388      20.3632     5.0327      22.5       4.2192      48.066        
2011-05-19T21:13:32Z    Tokyo_1       35.8846     144.6803    144.6803    33.4249     21.6477      -0.0353   21.4138     20.3633     5.1589      22.5       4.2189      49.2781       
2011-05-19T21:16:33Z    Tokyo_1       35.8941     144.7013    144.7013    33.4094     21.6242      -0.0332   21.4153     20.3633     5.1661      22.5       4.2169      49.3491       
2011-05-19T21:19:26Z    Tokyo_1       35.9034     144.7224    144.7224    33.3922     21.6079      -0.0311   21.4071     20.3634     5.1253      22.5       4.2156      48.9639       
2011-05-19T21:22:27Z    Tokyo_1       35.9128     144.7436    144.7436    33.3774     21.5969      -0.0299   21.4168     20.3635     5.1725      22.5       4.2147      49.4186       
2011-05-19T21:25:29Z    Tokyo_1       35.9222     144.7647    144.7647    33.3603     21.6031      -0.0282   21.4267     20.3635     5.2212      22.5       4.2154      49.8906       
2011-05-19T21:28:30Z    Tokyo_1       35.9318     144.7859    144.7859    33.337      21.6157      -0.0329   21.4347     20.3635     5.2608      22.5       4.2166      50.2787       
2011-05-19T21:31:32Z    Tokyo_1       35.9415     144.8076    144.8076    33.3072     21.5882      -0.0249   21.4302     20.3636     5.2378      22.5       4.2144      50.0663       
2011-05-19T22:13:26Z    Tokyo_1       36.0759     145.1039    145.1039    33.4812     21.41        -0.0308   21.4534     20.3638     5.3506      22.5       4.2525      51.7198       
2011-05-19T22:16:27Z    Tokyo_1       36.0854     145.1251    145.1251    33.449      21.4599      -0.0163   21.4722     20.3637     5.4433      22.5       4.281       52.9319       
2011-05-19T22:19:29Z    Tokyo_1       36.0947     145.1458    145.1458    33.4379     21.4738      -0.0139   21.482      20.3637     5.4918      22.5       4.2824      53.4101       
2011-05-19T22:22:30Z    Tokyo_1       36.1042     145.1663    145.1663    33.4388     21.4763      -0.014    21.4912     20.3637     5.5372      22.5       4.2826      53.8515       
2011-05-19T22:25:32Z    Tokyo_1       36.1145     145.1871    145.1871    33.446      21.4894      -0.0157   21.5171     20.3636     5.6641      22.5       4.2838      55.0859       
2011-05-19T22:28:33Z    Tokyo_1       36.1247     145.2074    145.2074    33.459      21.4405      -0.0169   21.5268     20.3637     5.7113      22.5       4.2792      55.5299       
2011-05-19T22:31:26Z    Tokyo_1       36.1346     145.2271    145.2271    33.4876     21.3663      -0.0164   21.5602     20.3639     5.8746      22.5       4.1964      56.0773       
2011-05-19T22:34:27Z    Tokyo_1       36.1451     145.2479    145.2479    33.5152     21.287       -0.0202   21.556      20.364      5.8535      22.5       4.1888      55.8462       
2011-05-19T22:37:29Z    Tokyo_1       36.1557     145.2688    145.2688    33.5449     21.2965      -0.0244   21.5643     20.364      5.8944      22.5       4.1895      56.2265       
2011-05-19T22:40:30Z    Tokyo_1       36.1655     145.2882    145.2882    33.549      21.316       -0.0166   21.5552     20.3639     5.85        22.5       4.1913      55.8067       
2011-05-19T22:43:32Z    Tokyo_1       36.175      145.3071    145.3071    33.5369     21.3731      0.009     21.5698     20.3638     5.9224      22.5       4.1967      56.5153       
2011-05-19T22:46:33Z    Tokyo_1       36.1848     145.3267    145.3267    33.516      21.4248      0.0279    21.5539     20.3637     5.8445      22.5       4.2017      55.7926       
2011-05-19T22:49:26Z    Tokyo_1       36.1946     145.3465    145.3465    33.4935     21.4417      0.0147    21.553      20.3637     5.8404      22.5       4.2034      55.7667       
2011-05-19T22:52:27Z    Tokyo_1       36.2044     145.3664    145.3664    33.4821     21.4267      -0.0032   21.5676     20.3637     5.9117      22.5       4.202       56.4484       
2011-05-19T22:55:29Z    Tokyo_1       36.2141     145.3863    145.3863    33.475      21.2251      -0.0137   21.5641     20.3643     5.8917      22.5       4.079       54.8109       
2011-05-19T22:58:30Z    Tokyo_1       36.2239     145.4059    145.4059    33.4911     21.0812      -0.0143   21.5576     20.3646     5.8581      22.5       4.0656      54.4559       
2011-05-19T23:01:32Z    Tokyo_1       36.2337     145.425     145.425     33.5038     21.1237      -0.0144   21.5375     20.3645     5.76        22.5       4.0694      53.5493       
2011-05-19T23:04:33Z    Tokyo_1       36.2432     145.4438    145.4438    33.4965     21.2968      -0.0205   21.5512     20.364      5.8299      22.5       4.0855      54.2451       
2011-05-19T23:07:26Z    Tokyo_1       36.2528     145.4629    145.4629    33.4651     21.357       -0.0277   21.5565     20.3639     5.8562      22.5       4.0912      54.5172       
2011-05-19T23:10:27Z    Tokyo_1       36.2625     145.4821    145.4821    33.4352     21.3045      -0.0323   21.554      20.3641     5.8431      22.5       4.0865      54.394        
2011-05-19T23:13:29Z    Tokyo_1       36.2719     145.5011    145.5011    33.4154     21.32        -0.0367   21.583      20.3641     5.9858      22.5       4.0881      55.7338       
2011-05-19T23:16:30Z    Tokyo_1       36.2813     145.5203    145.5203    33.4122     21.3273      -0.0419   21.5691     20.3641     5.9172      22.5       4.0887      55.0982       
2011-05-19T23:19:32Z    Tokyo_1       36.2906     145.5397    145.5397    33.4492     21.286       -0.0433   21.5687     20.3641     5.9154      22.5       4.0847      55.0565       
2011-05-19T23:22:33Z    Tokyo_1       36.2999     145.5592    145.5592    33.5234     21.26        -0.0449   21.5797     20.3641     5.9693      22.5       4.0819      55.5217       
2011-05-19T23:25:26Z    Tokyo_1       36.309      145.5786    145.5786    33.5529     21.3131      -0.0428   21.589      20.3639     6.0159      22.5       4.0866      55.9574       
2011-05-19T23:28:27Z    Tokyo_1       36.3178     145.5976    145.5976    33.6869     21.3241      -0.036    21.5807     20.3637     5.9761      22.5       4.0869      55.5356       
2011-05-19T23:31:29Z    Tokyo_1       36.3269     145.6172    145.6172    33.7572     21.3728      -0.0355   21.6203     20.3635     6.1717      22.5       4.091       57.3366       
2011-05-19T23:34:30Z    Tokyo_1       36.3358     145.6366    145.6366    33.7129     21.3586      -0.0311   21.5769     20.3636     5.9583      22.5       3.8761      52.4742       
2011-05-19T23:37:32Z    Tokyo_1       36.3445     145.6556    145.6556    33.6786     21.3312      -0.0346   21.5971     20.3637     6.0571      22.5       3.8739      53.3501       
2011-05-19T23:40:33Z    Tokyo_1       36.3532     145.6751    145.6751    33.6774     21.329       -0.038    21.6035     20.3637     6.088       22.5       3.8737      53.6227       
2011-05-19T23:43:26Z    Tokyo_1       36.3619     145.6946    145.6946    33.6635     21.3824      -0.0391   21.6323     20.3636     6.23        22.5       3.8784      54.8922       
2011-05-19T23:46:27Z    Tokyo_1       36.3704     145.714     145.714     33.6294     21.4367      -0.0404   21.6454     20.3635     6.295       22.5       3.8834      55.4924       
2011-05-19T23:49:29Z    Tokyo_1       36.3787     145.7334    145.7334    33.596      21.4815      -0.043    21.6386     20.3634     6.2618      22.5       3.6289      51.5514       
2011-05-19T23:52:30Z    Tokyo_1       36.3871     145.7529    145.7529    33.583      21.4867      -0.0404   21.6297     20.3635     6.2182      22.5       3.6294      51.1986       
2011-05-19T23:55:32Z    Tokyo_1       36.3954     145.7726    145.7726    33.5937     21.4277      -0.0419   21.647      20.3636     6.3025      22.5       3.6246      51.8745       
2011-05-19T23:58:33Z    Tokyo_1       36.4035     145.7919    145.7919    33.5943     21.337       -0.0398   21.6518     20.3638     6.3249      22.5       3.6172      52.0373       
2011-05-20T00:01:26Z    Tokyo_1       36.4115     145.8114    145.8114    33.5583     21.2355      -0.0323   21.6416     20.3641     6.2734      22.5       3.8066      54.4275       
2011-05-20T00:04:27Z    Tokyo_1       36.4203     145.8311    145.8311    33.5787     21.1953      -0.0236   21.6347     20.3642     6.2391      22.5       3.8028      54.1086       
2011-05-20T00:07:29Z    Tokyo_1       36.429      145.85      145.85      33.6033     21.0408      -0.0158   21.6389     20.3645     6.258       22.5       3.7885      54.2114       
2011-05-20T00:10:30Z    Tokyo_1       36.4376     145.8686    145.8686    33.7408     20.8827      0.0078    21.6505     20.3648     6.3134      22.5       3.7732      54.5832       
2011-05-20T00:13:32Z    Tokyo_1       36.4466     145.8881    145.8881    33.8104     20.9334      0.0201    21.6688     20.3645     6.4048      22.5       3.4644      50.7735       
2011-05-20T00:16:33Z    Tokyo_1       36.4557     145.907     145.907     33.7712     21.0457      0.0037    21.6838     20.3643     6.4793      22.5       3.4737      51.41         
2011-05-20T00:19:26Z    Tokyo_1       36.4646     145.9255    145.9255    33.6918     21.0476      -0.0098   21.6948     20.3644     6.5331      22.5       3.4743      51.8673       
2011-05-20T00:22:27Z    Tokyo_1       36.4735     145.944     145.944     33.6622     20.9556      -0.0181   21.6919     20.3647     6.5172      22.5       3.4669      51.7269       
2011-05-20T00:25:29Z    Tokyo_1       36.4823     145.9625    145.9625    33.6794     20.8972      -0.0228   21.7046     20.3648     6.5791      22.5       3.462       52.1948       
2011-05-20T00:28:30Z    Tokyo_1       36.4915     145.9816    145.9816    33.7089     20.8976      -0.0244   21.6933     20.3648     6.5235      22.5       3.4619      51.7429       
2011-05-20T00:31:32Z    Tokyo_1       36.5005     146.0005    146.0005    33.7023     21.003       -0.0266   21.6929     20.3645     6.5229      22.5       3.4706      51.7701       
2011-05-20T01:13:26Z    Tokyo_1       36.6201     146.2635    146.2635    33.8014     14.9858      0.1015    21.8788     20.3822     7.3427      22.5       2.7409      51.5585       
2011-05-20T01:16:27Z    Tokyo_1       36.629      146.281     146.281     34.0853     14.4339      0.1365    21.9376     20.3836     7.6237      22.5       2.4765      48.8198       
2011-05-20T01:19:29Z    Tokyo_1       36.6385     146.2991    146.2991    34.2967     14.4171      0.1279    22.0359     20.3834     8.1072      22.5       2.4751      51.8353       
2011-05-20T01:22:30Z    Tokyo_1       36.6482     146.3169    146.3169    34.3069     14.1952      0.0853    22.0943     20.3841     8.3897      22.5       2.4626      53.6079       
2011-05-20T01:25:32Z    Tokyo_1       36.6582     146.335     146.335     34.2232     13.8726      0.0723    22.1453     20.3854     8.6334      22.5       2.4448      55.1535       
2011-05-20T01:28:33Z    Tokyo_1       36.667      146.3537    146.3537    34.2163     14.0702      0.1635    22.2013     20.3847     8.9119      22.5       2.4559      56.9631       
2011-05-20T01:31:26Z    Tokyo_1       36.6749     146.3727    146.3727    34.1197     14.0049      0.2553    22.3176     20.385      9.4803      22.5       2.4524      60.6282       
2011-05-20T01:34:27Z    Tokyo_1       36.6831     146.3921    146.3921    34.0836     13.7258      0.2894    22.4669     20.3861     10.207      22.5       2.2947      61.4384       
2011-05-20T01:37:29Z    Tokyo_1       36.6914     146.4117    146.4117    34.1182     13.4132      0.1775    22.6189     20.3871     10.9471     22.5       2.279       65.8466       
2011-05-20T01:40:30Z    Tokyo_1       36.6997     146.4308    146.4308    34.1442     13.4041      0.1096    22.7039     20.3871     11.3641     22.5       2.2785      68.3412       
2011-05-20T01:43:32Z    Tokyo_1       36.7081     146.4501    146.4501    34.1189     13.4813      0.0921    22.7248     20.3869     11.4675     22.5       2.2824      68.9832       
2011-05-20T01:46:33Z    Tokyo_1       36.7167     146.4698    146.4698    34.051      13.3989      0.0714    22.6877     20.3873     11.2836     22.5       2.2784      67.9011       
2011-05-20T01:49:26Z    Tokyo_1       36.7253     146.4893    146.4893    33.9732     13.2114      0.0589    22.6747     20.3881     11.2158     22.5       2.2692      67.5123       
2011-05-20T01:52:27Z    Tokyo_1       36.7339     146.5083    146.5083    33.9234     13.431       0.0642    22.6899     20.3874     11.2942     22.5       2.2803      68.0296       
2011-05-20T01:55:29Z    Tokyo_1       36.7425     146.5274    146.5274    33.8834     13.6479      0.0644    22.6641     20.3866     11.1714     22.5       2.2912      67.3306       
2011-05-20T01:58:30Z    Tokyo_1       36.7507     146.5471    146.5471    33.7801     13.77        0.0682    22.6465     20.3864     11.0865     22.5       2.2975      66.8806       
2011-05-20T02:01:32Z    Tokyo_1       36.7589     146.5666    146.5666    33.6518     13.8329      0.098     22.6998     20.3863     11.348      22.5       2.301       68.527        
2011-05-20T02:04:33Z    Tokyo_1       36.7672     146.5865    146.5865    33.561      13.7811      0.1626    22.7695     20.3866     11.6885     22.5       2.2985      70.6227       
2011-05-20T02:07:26Z    Tokyo_1       36.7754     146.606     146.606     33.5472     13.5468      0.2207    22.885      20.3875     12.2502     22.5       2.2868      73.9978       
2011-05-20T02:10:27Z    Tokyo_1       36.7837     146.6254    146.6254    33.5414     13.3698      0.253     22.9556     20.3881     12.593      22.5       2.2114      73.831        
2011-05-20T02:13:29Z    Tokyo_1       36.7921     146.6452    146.6452    30.767      13.292       0.2164    22.9525     20.3924     12.5541     22.5       2.2129      75.0556       
2011-05-20T02:16:30Z    Tokyo_1       36.8004     146.6645    146.6645    32.2595     13.2824      0.0918    22.9434     20.3903     12.5213     22.5       2.2096      74.0723       
2011-05-20T02:19:32Z    Tokyo_1       36.8089     146.6843    146.6843    33.3594     13.3964      0.0861    22.896      20.3883     12.2998     22.5       2.2131      72.2071       
2011-05-20T02:22:33Z    Tokyo_1       36.8176     146.7041    146.7041    33.74       13.4172      0.0894    22.8601     20.3877     12.1272     22.5       2.2133      71.0043       
2011-05-20T02:25:26Z    Tokyo_1       36.8263     146.724     146.724     33.7324     13.4107      0.1073    22.7879     20.3877     11.7727     22.5       2.213       68.9318       
2011-05-20T02:28:27Z    Tokyo_1       36.835      146.7437    146.7437    33.7196     13.5107      0.0932    22.7418     20.3874     11.5484     22.5       2.2178      67.6321       
2011-05-20T02:31:29Z    Tokyo_1       36.8439     146.7639    146.7639    33.7065     13.6295      0.0872    22.7237     20.387      11.462      22.5       2.2236      67.1416       
2011-05-20T02:34:30Z    Tokyo_1       36.8526     146.7837    146.7837    33.6972     13.6228      0.0877    22.6719     20.387      11.2076     22.5       2.2232      65.6548       
2011-05-20T02:37:32Z    Tokyo_1       36.8612     146.8034    146.8034    33.6931     13.6675      0.086     22.6451     20.3869     11.0769     22.5       2.2254      64.8946       
2011-05-20T02:40:33Z    Tokyo_1       36.8699     146.823     146.823     33.6822     13.6898      0.0967    22.6162     20.3868     10.9357     22.5       2.2265      64.0739       
2011-05-20T02:43:26Z    Tokyo_1       36.8786     146.8428    146.8428    33.6705     13.7159      0.1437    22.6155     20.3867     10.9323     22.5       2.1567      62.0185       
2011-05-20T02:46:27Z    Tokyo_1       36.8873     146.8627    146.8627    33.6614     13.7659      0.1429    22.6182     20.3866     10.9465     22.5       2.159       62.1058       
2011-05-20T02:49:29Z    Tokyo_1       36.8961     146.8826    146.8826    33.675      13.8205      0.1452    22.6233     20.3863     10.9727     22.5       2.1954      63.2268       
2011-05-20T02:52:30Z    Tokyo_1       36.905      146.9026    146.9026    33.721      13.9748      0.1772    22.616      20.3857     10.9402     22.5       2.2027      63.033        
2011-05-20T02:55:32Z    Tokyo_1       36.9138     146.9223    146.9223    33.7918     14.2021      0.1601    22.6256     20.3848     10.9923     22.5       2.2134      63.3225       
2011-05-20T02:58:33Z    Tokyo_1       36.9226     146.9418    146.9418    33.8133     14.1206      0.0527    22.6561     20.3851     11.1404     22.5       2.2095      64.1582       
2011-05-20T03:01:26Z    Tokyo_1       36.9315     146.9616    146.9616    33.7999     14.1085      0.0399    22.6587     20.3852     11.1531     22.5       2.2089      64.2365       
2011-05-20T03:04:27Z    Tokyo_1       36.9404     146.9814    146.9814    33.8049     14.2507      0.0535    22.6369     20.3847     11.0489     22.5       2.2157      63.6477       
2011-05-20T03:07:29Z    Tokyo_1       36.9496     147.0014    147.0014    33.8179     14.6073      0.1066    22.6571     20.3834     11.1546     22.5       2.2329      64.2855       
2011-05-20T03:10:30Z    Tokyo_1       36.9585     147.021     147.021     33.8132     14.8127      0.1052    22.6653     20.3827     11.1987     22.5       2.2428      64.5627       
2011-05-20T03:13:32Z    Tokyo_1       36.9674     147.0407    147.0407    33.8019     14.9328      0.113     22.6995     20.3823     11.3688     22.5       2.2486      65.5611       
2011-05-20T03:16:33Z    Tokyo_1       36.9764     147.0605    147.0605    33.7731     14.9197      0.1009    22.7839     20.3824     11.7823     22.5       2.2481      67.958        
2011-05-20T03:19:26Z    Tokyo_1       36.9853     147.08      147.08      33.7239     14.7477      0.0509    22.8744     20.3831     12.2228     22.5       2.2398      70.504        
2011-05-20T03:22:27Z    Tokyo_1       36.994      147.0991    147.0991    33.6287     14.4741      0.0534    22.9187     20.3841     12.4339     22.5       2.2268      71.7395       
2011-05-20T03:25:29Z    Tokyo_1       37.5697     147.1195    147.1195    33.5011     14.0993      0.0474    22.9393     20.3856     12.5271     22.5       2.3288      76.2209       
2011-05-20T03:28:30Z    Tokyo_1       37.0122     147.1387    147.1387    33.5068     14.3338      0.049     22.9037     20.3848     12.3567     22.5       2.3067      74.115        
2011-05-20T03:31:32Z    Tokyo_1       37.0207     147.1575    147.1575    33.607      14.5431      0.0279    22.8468     20.3839     12.0825     22.5       2.3173      72.4541       
2011-05-20T04:13:26Z    Tokyo_1       37.1429     147.4334    147.4334    33.6981     15.3809      0.065     22.6684     20.381      11.2232     22.5       2.5496      72.7805       
2011-05-20T04:16:27Z    Tokyo_1       37.1508     147.453     147.453     33.899      15.4378      0.059     22.7099     20.3805     11.4296     22.5       2.5525      74.0277       
2011-05-20T04:19:29Z    Tokyo_1       37.1586     147.4727    147.4727    33.8983     15.4465      0.0805    22.7048     20.3805     11.4045     22.5       2.553       73.8677       
2011-05-20T04:22:30Z    Tokyo_1       37.1666     147.4924    147.4924    33.8522     15.3329      0.1047    22.735      20.3809     11.5504     22.5       2.5464      74.8073       
2011-05-20T04:25:32Z    Tokyo_1       37.1747     147.5122    147.5122    33.8103     15.2431      0.118     22.7406     20.3813     11.576      22.5       2.5412      74.972        
2011-05-20T04:28:33Z    Tokyo_1       37.1829     147.5324    147.5324    33.8006     15.1715      0.1111    22.7606     20.3815     11.6727     22.5       2.5369      75.5844       
2011-05-20T04:31:26Z    Tokyo_1       37.1911     147.5525    147.5525    33.8423     15.1453      0.1063    22.7858     20.3816     11.7963     22.5       2.5353      76.3555       
2011-05-20T04:34:27Z    Tokyo_1       37.1992     147.5725    147.5725    33.7521     15.2301      0.1104    22.7641     20.3814     11.6905     22.5       2.5405      75.7416       
2011-05-20T04:37:29Z    Tokyo_1       37.2079     147.5926    147.5926    33.7516     15.2518      0.1157    22.7806     20.3813     11.7719     22.5       2.5418      76.2751       
2011-05-20T04:40:30Z    Tokyo_1       37.2167     147.6122    147.6122    33.7743     15.3529      0.107     22.8092     20.381      11.9144     22.5       2.5478      77.2134       
2011-05-20T04:43:32Z    Tokyo_1       37.2253     147.6312    147.6312    33.774      15.397       0.1066    22.7966     20.3808     11.8532     22.5       2.6879      80.972        
2011-05-20T04:46:33Z    Tokyo_1       37.2343     147.6508    147.6508    33.7721     15.2963      0.1122    22.8503     20.3812     12.1147     22.5       2.6815      82.7253       
2011-05-20T04:49:26Z    Tokyo_1       37.2432     147.67      147.67      33.8188     15.281       0.1044    22.8494     20.3811     12.1106     22.5       2.6804      82.6646       
2011-05-20T04:52:27Z    Tokyo_1       37.252      147.6893    147.6893    33.7179     15.4948      0.0935    22.8847     20.3806     12.2869     22.5       2.6943      84.0014       
2011-05-20T04:55:29Z    Tokyo_1       37.2607     147.7088    147.7088    33.6934     15.835       0.0577    22.9149     20.3795     12.4411     22.5       2.7163      85.1894       
2011-05-20T04:58:30Z    Tokyo_1       37.2694     147.7286    147.7286    33.7571     16.0722      0.11      22.9295     20.3786     12.5172     22.5       2.7315      85.7548       
2011-05-20T05:01:32Z    Tokyo_1       37.2781     147.7483    147.7483    33.7905     16.2458      0.1519    22.9251     20.378      12.4991     22.5       2.7426      85.6719       
2011-05-20T05:04:33Z    Tokyo_1       37.2866     147.7678    147.7678    33.8245     16.3665      0.236     22.8933     20.3776     12.3453     22.5       2.7503      84.6393       
2011-05-20T05:07:26Z    Tokyo_1       37.2952     147.7876    147.7876    33.8786     16.3916      0.2633    22.8693     20.3774     12.2285     22.5       2.7518      83.8152       
2011-05-20T05:10:27Z    Tokyo_1       37.3036     147.8069    147.8069    33.9225     16.4139      0.2344    22.904      20.3773     12.3997     22.5       2.7531      84.9699       
2011-05-20T05:13:29Z    Tokyo_1       37.3119     147.8263    147.8263    33.9561     16.3732      0.1621    22.9315     20.3774     12.534      22.5       2.7504      85.8548       
2011-05-20T05:16:30Z    Tokyo_1       37.3203     147.8459    147.8459    34.0096     16.2768      0.0938    22.9435     20.3776     12.5916     22.5       2.744       86.1813       
2011-05-20T05:19:32Z    Tokyo_1       37.3286     147.8653    147.8653    34.0635     16.1875      0.0497    22.9346     20.3778     12.547      22.5       2.738       85.8114       
2011-05-20T05:22:33Z    Tokyo_1       37.3369     147.8847    147.8847    34.0708     16.1288      0.0387    22.8978     20.378      12.3654     22.5       2.8462      88.0068       
2011-05-20T05:25:26Z    Tokyo_1       37.3452     147.9043    147.9043    34.096      16.0121      0.0348    22.8662     20.3783     12.2081     22.5       2.8382      86.8286       
2011-05-20T05:28:27Z    Tokyo_1       37.3534     147.9242    147.9242    34.1146     15.884       0.0262    22.8197     20.3787     11.9783     22.5       2.8295      85.1354       
2011-05-20T05:31:29Z    Tokyo_1       37.3616     147.9436    147.9436    34.13       15.7901      0.0224    22.7731     20.379      11.7477     22.5       2.8231      83.4538       
2011-05-20T05:34:30Z    Tokyo_1       37.3698     147.9631    147.9631    34.1185     15.7368      0.0201    22.7358     20.3792     11.5639     22.5       2.8195      82.1364       
2011-05-20T05:37:32Z    Tokyo_1       37.378      147.9825    147.9825    34.0677     15.7736      0.0253    22.6558     20.3792     11.1716     22.5       2.8721      80.7968       
2011-05-20T05:40:33Z    Tokyo_1       37.3863     148.0025    148.0025    34.0371     15.8098      0.0242    22.637      20.3791     11.0797     22.5       2.8747      80.1606       
2011-05-20T05:43:26Z    Tokyo_1       37.3944     148.0222    148.0222    34.0455     15.8049      0.0277    22.58       20.3791     10.8001     22.5       2.8743      78.1318       
2011-05-20T05:46:27Z    Tokyo_1       37.4023     148.0419    148.0419    34.0713     15.8169      0.0338    22.5574     20.379      10.6894     22.5       2.875       77.3203       
2011-05-20T05:49:29Z    Tokyo_1       37.4101     148.0615    148.0615    34.0433     15.8514      0.0383    22.5178     20.3789     10.4955     22.5       2.8774      75.9431       
2011-05-20T05:52:30Z    Tokyo_1       37.418      148.0807    148.0807    33.9878     15.9874      0.0506    22.4964     20.3786     10.3922     22.5       2.8868      75.2644       
2011-05-20T05:55:32Z    Tokyo_1       37.426      148.1007    148.1007    33.9266     16.0988      0.0455    22.4586     20.3783     10.2085     22.5       2.8945      73.9984       
2011-05-20T05:58:33Z    Tokyo_1       37.4342     148.1201    148.1201    33.9646     16.0675      0.0362    22.4105     20.3784     9.9722      22.5       2.8923      72.2575       
2011-05-20T06:01:26Z    Tokyo_1       37.4429     148.1391    148.1391    34.0642     15.8802      0.0319    22.4014     20.3788     9.9248      22.5       2.9438      73.4191       
2011-05-20T06:04:27Z    Tokyo_1       37.4517     148.1583    148.1583    34.2118     15.5937      0.0433    22.4033     20.3795     9.9302      22.5       2.9237      73.3034       
2011-05-20T06:07:29Z    Tokyo_1       37.4605     148.1778    148.1778    34.1968     15.6007      0.0814    22.3961     20.3795     9.8951      22.5       2.9243      73.0548       
2011-05-20T06:10:30Z    Tokyo_1       37.4693     148.1972    148.1972    34.1068     15.6613      0.107     22.3947     20.3795     9.8886      22.5       2.9287      73.0698       
2011-05-20T06:13:32Z    Tokyo_1       37.4779     148.2163    148.2163    34.0889     15.5935      0.0983    22.4042     20.3797     9.9336      22.5       2.9241      73.3938       
2011-05-20T06:16:33Z    Tokyo_1       37.4866     148.2357    148.2357    34.2297     15.2713      0.0538    22.3973     20.3806     9.8956      22.5       2.9017      72.9521       
2011-05-20T06:19:26Z    Tokyo_1       37.4953     148.2548    148.2548    34.3739     15.0267      0.0267    22.3839     20.3812     9.8265      22.5       2.8846      72.3037       
2011-05-20T06:22:27Z    Tokyo_1       37.5042     148.274     148.274     34.3315     15.0164      0.0298    22.3758     20.3813     9.7859      22.5       2.884       72.0238       
2011-05-20T06:25:29Z    Tokyo_1       37.5128     148.293     148.293     34.2133     15.0783      0.0487    22.3802     20.3812     9.8077      22.5       2.8886      72.262        
2011-05-20T06:28:30Z    Tokyo_1       37.5214     148.3121    148.3121    34.1739     15.0725      0.0482    22.381      20.3813     9.8111      22.5       2.8883      72.3059       
2011-05-20T06:31:32Z    Tokyo_1       37.53       148.3313    148.3313    34.1251     15.0892      0.0465    22.4117     20.3813     9.9619      22.5       2.8896      73.4473       
2011-05-20T07:13:26Z    Tokyo_1       37.6452     148.6023    148.6023    34.0612     16.012       0.0824    22.2283     20.3784     9.0776      22.5       2.9756      67.7028       
2011-05-20T07:16:27Z    Tokyo_1       37.6531     148.6226    148.6226    34.0206     15.975       0.0981    22.1803     20.3786     8.8412      22.5       2.9732      65.952        
2011-05-20T07:19:29Z    Tokyo_1       37.6607     148.6422    148.6422    33.9698     15.8537      0.1034    22.1343     20.379      8.6129      22.5       2.9509      63.9376       
2011-05-20T07:22:30Z    Tokyo_1       37.6683     148.6613    148.6613    34.0295     15.6143      0.1115    22.094      20.3797     8.4114      22.5       2.9349      62.3747       
2011-05-20T07:25:32Z    Tokyo_1       37.6761     148.6811    148.6811    34.1559     15.3974      0.1837    22.0264     20.3803     8.077       22.5       2.9203      59.8058       
2011-05-20T07:28:33Z    Tokyo_1       37.6841     148.7007    148.7007    34.261      15.3208      0.242     22.0582     20.3804     8.2326      22.5       2.915       60.8999       
2011-05-20T07:31:26Z    Tokyo_1       37.6922     148.7202    148.7202    34.4213     15.5772      0.2234    22.0519     20.3793     8.2072      22.5       2.9314      60.6849       
2011-05-20T07:34:27Z    Tokyo_1       37.7004     148.7399    148.7399    34.1234     16.1401      0.3358    22.0861     20.3779     8.3828      22.5       2.9693      62.21         
2011-05-20T07:37:29Z    Tokyo_1       37.7086     148.7595    148.7595    33.8156     16.5366      0.4445    22.0779     20.3771     8.347       22.5       2.9966      62.1478       
2011-05-20T07:40:30Z    Tokyo_1       37.7166     148.7793    148.7793    33.6585     16.8084      0.3884    22.0788     20.3764     8.3543      22.5       3.0151      62.3189       
2011-05-20T07:43:32Z    Tokyo_1       37.7246     148.7992    148.7992    33.6212     16.9646      0.325     22.1029     20.376      8.4751      22.5       3.0257      63.2639       
2011-05-20T07:46:33Z    Tokyo_1       37.7324     148.8188    148.8188    33.651      17.0482      0.299     22.1055     20.3757     8.4896      22.5       3.0312      63.3739       
2011-05-20T07:49:26Z    Tokyo_1       37.7402     148.8387    148.8387    33.7046     17.0771      0.3138    22.125      20.3755     8.5859      22.5       3.0329      64.0736       
2011-05-20T07:52:27Z    Tokyo_1       37.7484     148.8597    148.8597    33.7699     17.0816      0.3155    22.1485     20.3754     8.7019      22.5       3.033       64.9096       
2011-05-20T07:55:29Z    Tokyo_1       37.7563     148.8798    148.8798    33.8174     17.0808      0.3277    22.1275     20.3754     8.5994      22.5       3.012       63.6825       
2011-05-20T07:58:30Z    Tokyo_1       37.7638     148.8985    148.8985    33.8444     17.0796      0.34      22.1017     20.3753     8.473       22.5       3.0118      62.7339       
2011-05-20T08:01:32Z    Tokyo_1       37.7718     148.918     148.918     33.868      17.0729      0.3431    22.1383     20.3753     8.6527      22.5       3.0113      64.0526       
2011-05-20T08:04:33Z    Tokyo_1       37.7801     148.9378    148.9378    33.8892     17.0553      0.3441    22.0943     20.3753     8.4366      22.5       3.01        62.4402       
2011-05-20T08:07:26Z    Tokyo_1       37.7884     148.9578    148.9578    33.9081     17.0284      0.3415    22.076      20.3754     8.3465      22.5       3.0082      61.7607       
2011-05-20T08:10:27Z    Tokyo_1       37.7966     148.9778    148.9778    33.9317     16.9554      0.342     22.05       20.3756     8.2175      22.5       3.0033      60.7836       
2011-05-20T08:13:29Z    Tokyo_1       37.8049     148.9976    148.9976    33.9854     16.8379      0.4058    22.0394     20.3759     8.1643      22.5       2.9954      60.3482       
2011-05-20T08:16:30Z    Tokyo_1       37.813      149.0174    149.0174    34.0359     16.7425      0.5262    22.0333     20.3761     8.1332      22.5       2.9889      60.081        
2011-05-20T08:19:32Z    Tokyo_1       37.821      149.0372    149.0372    34.0676     16.6416      0.5478    22.0026     20.3764     7.981       22.5       2.9822      58.9268       
2011-05-20T08:22:33Z    Tokyo_1